<?xml version='1.0' encoding='UTF-8'?><gpx version="1.1" creator="JPX - https://github.com/jenetics/jpx" xmlns="http://www.topografix.com/GPX/1/1"><trk><trkseg><trkpt lat="43.89300236090785" lon="12.885137969070053"><ele>11.0</ele><time>2026-05-01T07:18:38.999Z</time></trkpt><trkpt lat="43.89292755327879" lon="12.885185223998663"><ele>11.0</ele><time>2026-05-01T07:18:40.999Z</time></trkpt><trkpt lat="43.89283792180562" lon="12.885288546567544"><ele>11.0</ele><time>2026-05-01T07:18:42.999Z</time></trkpt><trkpt lat="43.89280176002117" lon="12.885366545855492"><ele>11.0</ele><time>2026-05-01T07:18:43.999Z</time></trkpt><trkpt lat="43.89272359497905" lon="12.885446858730143"><ele>11.0</ele><time>2026-05-01T07:18:45.999Z</time></trkpt><trkpt lat="43.89266019819456" lon="12.885407582929336"><ele>11.0</ele><time>2026-05-01T07:18:47.999Z</time></trkpt><trkpt lat="43.89263916913249" lon="12.88526445309307"><ele>11.0</ele><time>2026-05-01T07:18:49.999Z</time></trkpt><trkpt lat="43.89267033267146" lon="12.885171297639234"><ele>11.0</ele><time>2026-05-01T07:18:50.999Z</time></trkpt><trkpt lat="43.89271584309981" lon="12.885074256287085"><ele>11.0</ele><time>2026-05-01T07:18:51.999Z</time></trkpt><trkpt lat="43.89277853925266" lon="12.885012406222614"><ele>11.0</ele><time>2026-05-01T07:18:52.999Z</time></trkpt><trkpt lat="43.89282793101625" lon="12.884946701594634"><ele>11.0</ele><time>2026-05-01T07:18:53.999Z</time></trkpt><trkpt lat="43.89289224867589" lon="12.884870288898913"><ele>11.0</ele><time>2026-05-01T07:18:54.999Z</time></trkpt><trkpt lat="43.89298102993544" lon="12.884778818695331"><ele>10.8</ele><time>2026-05-01T07:18:55.999Z</time></trkpt><trkpt lat="43.893072768481076" lon="12.884751890583845"><ele>10.600000000000001</ele><time>2026-05-01T07:18:56.999Z</time></trkpt><trkpt lat="43.893161894244614" lon="12.884780359331705"><ele>10.4</ele><time>2026-05-01T07:18:57.999Z</time></trkpt><trkpt lat="43.89324988707889" lon="12.884771152800933"><ele>10.2</ele><time>2026-05-01T07:18:58.999Z</time></trkpt><trkpt lat="43.893338196804145" lon="12.884725393476836"><ele>10.0</ele><time>2026-05-01T07:18:59.999Z</time></trkpt><trkpt lat="43.8934218249007" lon="12.884655179986224"><ele>10.0</ele><time>2026-05-01T07:19:00.999Z</time></trkpt><trkpt lat="43.893477741994815" lon="12.884510398984075"><ele>10.0</ele><time>2026-05-01T07:19:01.999Z</time></trkpt><trkpt lat="43.89348608646194" lon="12.884354838588242"><ele>10.0</ele><time>2026-05-01T07:19:02.999Z</time></trkpt><trkpt lat="43.893473278006155" lon="12.884205287077096"><ele>10.0</ele><time>2026-05-01T07:19:03.999Z</time></trkpt><trkpt lat="43.893420570328345" lon="12.884071854994138"><ele>10.0</ele><time>2026-05-01T07:19:04.999Z</time></trkpt><trkpt lat="43.89333384310555" lon="12.883966722640057"><ele>9.25</ele><time>2026-05-01T07:19:05.999Z</time></trkpt><trkpt lat="43.893225138908655" lon="12.883913517439463"><ele>8.5</ele><time>2026-05-01T07:19:06.999Z</time></trkpt><trkpt lat="43.89311247891344" lon="12.883902792958777"><ele>7.75</ele><time>2026-05-01T07:19:07.999Z</time></trkpt><trkpt lat="43.89300214595845" lon="12.883933275214725"><ele>7.0</ele><time>2026-05-01T07:19:08.998Z</time></trkpt><trkpt lat="43.89288470378798" lon="12.883951336685756"><ele>7.0</ele><time>2026-05-01T07:19:09.998Z</time></trkpt><trkpt lat="43.89276085104452" lon="12.883912348123202"><ele>7.0</ele><time>2026-05-01T07:19:10.998Z</time></trkpt><trkpt lat="43.89264382507302" lon="12.883830002725883"><ele>7.0</ele><time>2026-05-01T07:19:11.998Z</time></trkpt><trkpt lat="43.892532368520484" lon="12.88372583257488"><ele>7.0</ele><time>2026-05-01T07:19:12.998Z</time></trkpt><trkpt lat="43.89242142214562" lon="12.883614204770561"><ele>8.0</ele><time>2026-05-01T07:19:13.998Z</time></trkpt><trkpt lat="43.89231589760773" lon="12.883508733173473"><ele>9.0</ele><time>2026-05-01T07:19:14.998Z</time></trkpt><trkpt lat="43.89221128364146" lon="12.883413271169987"><ele>10.0</ele><time>2026-05-01T07:19:15.998Z</time></trkpt><trkpt lat="43.89212004877399" lon="12.883296302621215"><ele>11.0</ele><time>2026-05-01T07:19:16.998Z</time></trkpt><trkpt lat="43.8920422181518" lon="12.88315305180929"><ele>11.0</ele><time>2026-05-01T07:19:17.998Z</time></trkpt><trkpt lat="43.89199203896181" lon="12.882990505933991"><ele>11.0</ele><time>2026-05-01T07:19:18.998Z</time></trkpt><trkpt lat="43.891966834531075" lon="12.882814720967474"><ele>11.0</ele><time>2026-05-01T07:19:19.998Z</time></trkpt><trkpt lat="43.89195355260908" lon="12.882620316220404"><ele>11.0</ele><time>2026-05-01T07:19:20.998Z</time></trkpt><trkpt lat="43.89195017229519" lon="12.882414495390062"><ele>12.0</ele><time>2026-05-01T07:19:21.998Z</time></trkpt><trkpt lat="43.891947299377684" lon="12.882204872135818"><ele>13.0</ele><time>2026-05-01T07:19:22.998Z</time></trkpt><trkpt lat="43.891945805444955" lon="12.881997905188168"><ele>14.0</ele><time>2026-05-01T07:19:23.998Z</time></trkpt><trkpt lat="43.89194759310972" lon="12.881781541370254"><ele>13.333333333333334</ele><time>2026-05-01T07:19:24.998Z</time></trkpt><trkpt lat="43.89196643703109" lon="12.881557668092674"><ele>12.666666666666668</ele><time>2026-05-01T07:19:25.998Z</time></trkpt><trkpt lat="43.89200993379552" lon="12.881335383438335"><ele>12.0</ele><time>2026-05-01T07:19:26.998Z</time></trkpt><trkpt lat="43.892079160048034" lon="12.881117318514598"><ele>12.0</ele><time>2026-05-01T07:19:27.998Z</time></trkpt><trkpt lat="43.892176740622276" lon="12.880913225824537"><ele>12.0</ele><time>2026-05-01T07:19:28.998Z</time></trkpt><trkpt lat="43.89228657600361" lon="12.880723532679188"><ele>12.0</ele><time>2026-05-01T07:19:29.998Z</time></trkpt><trkpt lat="43.89240276019109" lon="12.880542834160654"><ele>12.0</ele><time>2026-05-01T07:19:30.998Z</time></trkpt><trkpt lat="43.8925145057484" lon="12.880357604077224"><ele>12.0</ele><time>2026-05-01T07:19:31.998Z</time></trkpt><trkpt lat="43.89261383934432" lon="12.880172564638995"><ele>12.0</ele><time>2026-05-01T07:19:32.998Z</time></trkpt><trkpt lat="43.892690202566435" lon="12.87997533216657"><ele>12.333333333333332</ele><time>2026-05-01T07:19:33.998Z</time></trkpt><trkpt lat="43.892742228607545" lon="12.879763422775795"><ele>12.666666666666666</ele><time>2026-05-01T07:19:34.998Z</time></trkpt><trkpt lat="43.89276319359702" lon="12.879536376838166"><ele>13.0</ele><time>2026-05-01T07:19:35.998Z</time></trkpt><trkpt lat="43.8927505507083" lon="12.879299123030924"><ele>12.666666666666666</ele><time>2026-05-01T07:19:37Z</time></trkpt><trkpt lat="43.89272449540813" lon="12.879059262984596"><ele>12.333333333333332</ele><time>2026-05-01T07:19:38Z</time></trkpt><trkpt lat="43.89270725543509" lon="12.87881828564708"><ele>12.0</ele><time>2026-05-01T07:19:39Z</time></trkpt><trkpt lat="43.89269828880757" lon="12.878570681355823"><ele>11.666666666666666</ele><time>2026-05-01T07:19:40Z</time></trkpt><trkpt lat="43.8926906580294" lon="12.878323326406013"><ele>11.333333333333332</ele><time>2026-05-01T07:19:41Z</time></trkpt><trkpt lat="43.89268021146175" lon="12.878073745233927"><ele>11.0</ele><time>2026-05-01T07:19:42Z</time></trkpt><trkpt lat="43.89266820948285" lon="12.87782265492349"><ele>10.333333333333332</ele><time>2026-05-01T07:19:43Z</time></trkpt><trkpt lat="43.892655094130674" lon="12.87757507678048"><ele>9.666666666666666</ele><time>2026-05-01T07:19:44Z</time></trkpt><trkpt lat="43.892656421566194" lon="12.877329759836371"><ele>9.0</ele><time>2026-05-01T07:19:45Z</time></trkpt><trkpt lat="43.8926326638558" lon="12.87709888931863"><ele>9.0</ele><time>2026-05-01T07:19:46Z</time></trkpt><trkpt lat="43.89262056860785" lon="12.87687190718288"><ele>9.0</ele><time>2026-05-01T07:19:47Z</time></trkpt><trkpt lat="43.892603754380595" lon="12.876658643282308"><ele>9.0</ele><time>2026-05-01T07:19:48Z</time></trkpt><trkpt lat="43.8925922648351" lon="12.876457555173538"><ele>9.5</ele><time>2026-05-01T07:19:49Z</time></trkpt><trkpt lat="43.8925985998661" lon="12.876260870998935"><ele>10.0</ele><time>2026-05-01T07:19:50Z</time></trkpt><trkpt lat="43.892642823958205" lon="12.876065722286691"><ele>10.5</ele><time>2026-05-01T07:19:51Z</time></trkpt><trkpt lat="43.892712389838486" lon="12.875875953672061"><ele>11.0</ele><time>2026-05-01T07:19:52Z</time></trkpt><trkpt lat="43.89280147736659" lon="12.875692020670147"><ele>12.666666666666666</ele><time>2026-05-01T07:19:53Z</time></trkpt><trkpt lat="43.892901297960236" lon="12.875522651968225"><ele>14.333333333333332</ele><time>2026-05-01T07:19:54Z</time></trkpt><trkpt lat="43.89300258623073" lon="12.87535820171033"><ele>16.0</ele><time>2026-05-01T07:19:55Z</time></trkpt><trkpt lat="43.893095891710686" lon="12.87518850066767"><ele>15.75</ele><time>2026-05-01T07:19:56Z</time></trkpt><trkpt lat="43.893186403272125" lon="12.875017594650547"><ele>15.5</ele><time>2026-05-01T07:19:57Z</time></trkpt><trkpt lat="43.89327667817049" lon="12.874855573245538"><ele>15.25</ele><time>2026-05-01T07:19:58Z</time></trkpt><trkpt lat="43.89336674470796" lon="12.874700805514358"><ele>15.0</ele><time>2026-05-01T07:19:59Z</time></trkpt><trkpt lat="43.8934513051823" lon="12.874557006403464"><ele>14.5</ele><time>2026-05-01T07:20:00Z</time></trkpt><trkpt lat="43.89352489690022" lon="12.874420042579507"><ele>14.0</ele><time>2026-05-01T07:20:01Z</time></trkpt><trkpt lat="43.89358217261716" lon="12.874282946397157"><ele>13.5</ele><time>2026-05-01T07:20:02Z</time></trkpt><trkpt lat="43.893616089996854" lon="12.874139631723471"><ele>13.0</ele><time>2026-05-01T07:20:03Z</time></trkpt><trkpt lat="43.89362342717886" lon="12.87398546823721"><ele>12.75</ele><time>2026-05-01T07:20:04Z</time></trkpt><trkpt lat="43.8936017096343" lon="12.87382508506047"><ele>12.5</ele><time>2026-05-01T07:20:05Z</time></trkpt><trkpt lat="43.893562196133" lon="12.873661022981217"><ele>12.25</ele><time>2026-05-01T07:20:06Z</time></trkpt><trkpt lat="43.893485790080604" lon="12.873503619693071"><ele>12.0</ele><time>2026-05-01T07:20:07Z</time></trkpt><trkpt lat="43.89338137951411" lon="12.873347492249849"><ele>11.666666666666666</ele><time>2026-05-01T07:20:08Z</time></trkpt><trkpt lat="43.893244778160906" lon="12.873188550321297"><ele>11.333333333333332</ele><time>2026-05-01T07:20:09Z</time></trkpt><trkpt lat="43.89309221642379" lon="12.873016443496896"><ele>11.0</ele><time>2026-05-01T07:20:10Z</time></trkpt><trkpt lat="43.892943193816244" lon="12.8728080953378"><ele>11.666666666666666</ele><time>2026-05-01T07:20:11Z</time></trkpt><trkpt lat="43.89279263772726" lon="12.872582845409466"><ele>12.333333333333332</ele><time>2026-05-01T07:20:12Z</time></trkpt><trkpt lat="43.89264738224044" lon="12.872357724867678"><ele>13.0</ele><time>2026-05-01T07:20:13Z</time></trkpt><trkpt lat="43.89250369995735" lon="12.872153643906966"><ele>13.0</ele><time>2026-05-01T07:20:14Z</time></trkpt><trkpt lat="43.89236305185151" lon="12.871946677640958"><ele>13.0</ele><time>2026-05-01T07:20:15Z</time></trkpt><trkpt lat="43.89222326365421" lon="12.871738475491439"><ele>13.0</ele><time>2026-05-01T07:20:16Z</time></trkpt><trkpt lat="43.89209165863798" lon="12.871547282750827"><ele>12.666666666666666</ele><time>2026-05-01T07:20:17Z</time></trkpt><trkpt lat="43.891967337597265" lon="12.871371256946784"><ele>12.333333333333332</ele><time>2026-05-01T07:20:18Z</time></trkpt><trkpt lat="43.891849404440876" lon="12.871206225917566"><ele>12.0</ele><time>2026-05-01T07:20:19Z</time></trkpt><trkpt lat="43.89172917105533" lon="12.871051908716227"><ele>13.333333333333332</ele><time>2026-05-01T07:20:19.999Z</time></trkpt><trkpt lat="43.89159867673334" lon="12.870911705288664"><ele>14.666666666666666</ele><time>2026-05-01T07:20:20.999Z</time></trkpt><trkpt lat="43.89145072348894" lon="12.870818217584377"><ele>16.0</ele><time>2026-05-01T07:20:21.999Z</time></trkpt><trkpt lat="43.89128267780109" lon="12.870782654109442"><ele>16.0</ele><time>2026-05-01T07:20:22.999Z</time></trkpt><trkpt lat="43.89110841685821" lon="12.870784445607244"><ele>16.0</ele><time>2026-05-01T07:20:23.999Z</time></trkpt><trkpt lat="43.89093482471076" lon="12.870791010423392"><ele>16.0</ele><time>2026-05-01T07:20:24.999Z</time></trkpt><trkpt lat="43.890760499118066" lon="12.870781725673774"><ele>16.333333333333332</ele><time>2026-05-01T07:20:25.999Z</time></trkpt><trkpt lat="43.89058596915859" lon="12.87074976612328"><ele>16.666666666666668</ele><time>2026-05-01T07:20:26.999Z</time></trkpt><trkpt lat="43.89041981150107" lon="12.870676042113297"><ele>17.0</ele><time>2026-05-01T07:20:27.999Z</time></trkpt><trkpt lat="43.89028197298643" lon="12.87054690879594"><ele>17.0</ele><time>2026-05-01T07:20:28.999Z</time></trkpt><trkpt lat="43.89018246459859" lon="12.870375351121206"><ele>17.0</ele><time>2026-05-01T07:20:29.999Z</time></trkpt><trkpt lat="43.89010280701338" lon="12.870172070075483"><ele>17.0</ele><time>2026-05-01T07:20:30.999Z</time></trkpt><trkpt lat="43.89001541324079" lon="12.869981334394991"><ele>16.333333333333336</ele><time>2026-05-01T07:20:31.999Z</time></trkpt><trkpt lat="43.889917239402486" lon="12.869799779112817"><ele>15.666666666666668</ele><time>2026-05-01T07:20:32.999Z</time></trkpt><trkpt lat="43.8898233371063" lon="12.869620557173366"><ele>15.0</ele><time>2026-05-01T07:20:33.999Z</time></trkpt><trkpt lat="43.88974251154293" lon="12.869455719833699"><ele>15.0</ele><time>2026-05-01T07:20:34.999Z</time></trkpt><trkpt lat="43.889685690313755" lon="12.869303718119236"><ele>15.0</ele><time>2026-05-01T07:20:35.999Z</time></trkpt><trkpt lat="43.88963935447758" lon="12.869160238213025"><ele>15.0</ele><time>2026-05-01T07:20:36.999Z</time></trkpt><trkpt lat="43.88960209285176" lon="12.869042757444875"><ele>15.0</ele><time>2026-05-01T07:20:37.999Z</time></trkpt><trkpt lat="43.88959033985477" lon="12.868936141146445"><ele>15.0</ele><time>2026-05-01T07:20:38.999Z</time></trkpt><trkpt lat="43.88960760958197" lon="12.868836753065626"><ele>15.0</ele><time>2026-05-01T07:20:39.999Z</time></trkpt><trkpt lat="43.889618311027185" lon="12.868740143838375"><ele>15.0</ele><time>2026-05-01T07:20:40.999Z</time></trkpt><trkpt lat="43.889506684663104" lon="12.868632177385829"><ele>15.0</ele><time>2026-05-01T07:20:42.999Z</time></trkpt><trkpt lat="43.88942017529957" lon="12.868621161739474"><ele>15.0</ele><time>2026-05-01T07:20:43.999Z</time></trkpt><trkpt lat="43.889327885051095" lon="12.868614216622497"><ele>15.0</ele><time>2026-05-01T07:20:44.999Z</time></trkpt><trkpt lat="43.88923186772566" lon="12.868617282180422"><ele>15.0</ele><time>2026-05-01T07:20:45.999Z</time></trkpt><trkpt lat="43.88913201158933" lon="12.868633204912403"><ele>15.0</ele><time>2026-05-01T07:20:46.999Z</time></trkpt><trkpt lat="43.889030049483466" lon="12.868657989975546"><ele>15.0</ele><time>2026-05-01T07:20:47.999Z</time></trkpt><trkpt lat="43.88892507864547" lon="12.868686512159147"><ele>15.0</ele><time>2026-05-01T07:20:48.999Z</time></trkpt><trkpt lat="43.888822890799794" lon="12.868716940906493"><ele>15.0</ele><time>2026-05-01T07:20:49.999Z</time></trkpt><trkpt lat="43.88872749027414" lon="12.868738713746547"><ele>15.0</ele><time>2026-05-01T07:20:50.999Z</time></trkpt><trkpt lat="43.888643971593346" lon="12.868765532995457"><ele>15.0</ele><time>2026-05-01T07:20:51.999Z</time></trkpt><trkpt lat="43.888425089057876" lon="12.86868577036643"><ele>15.0</ele><time>2026-05-01T07:20:53.999Z</time></trkpt><trkpt lat="43.8883181660283" lon="12.868583038181079"><ele>15.0</ele><time>2026-05-01T07:20:54.999Z</time></trkpt><trkpt lat="43.88821160357124" lon="12.868460055790365"><ele>15.666666666666668</ele><time>2026-05-01T07:20:55.999Z</time></trkpt><trkpt lat="43.888112185568495" lon="12.868302574281477"><ele>16.333333333333336</ele><time>2026-05-01T07:20:56.999Z</time></trkpt><trkpt lat="43.88803048582005" lon="12.868107304757439"><ele>17.0</ele><time>2026-05-01T07:20:57.999Z</time></trkpt><trkpt lat="43.887954147483185" lon="12.867889561359632"><ele>17.0</ele><time>2026-05-01T07:20:58.999Z</time></trkpt><trkpt lat="43.887871531430044" lon="12.867668601732726"><ele>17.0</ele><time>2026-05-01T07:20:59.999Z</time></trkpt><trkpt lat="43.887786435205676" lon="12.86744546110166"><ele>17.0</ele><time>2026-05-01T07:21:00.999Z</time></trkpt><trkpt lat="43.887700426865564" lon="12.867212460788368"><ele>17.0</ele><time>2026-05-01T07:21:01.999Z</time></trkpt><trkpt lat="43.88761190118777" lon="12.86696747690478"><ele>17.0</ele><time>2026-05-01T07:21:02.999Z</time></trkpt><trkpt lat="43.887527376869016" lon="12.866733164835233"><ele>17.0</ele><time>2026-05-01T07:21:03.999Z</time></trkpt><trkpt lat="43.88744415786762" lon="12.866506655390756"><ele>17.0</ele><time>2026-05-01T07:21:04.999Z</time></trkpt><trkpt lat="43.887356918040375" lon="12.866273384917003"><ele>17.0</ele><time>2026-05-01T07:21:05.999Z</time></trkpt><trkpt lat="43.88726621803739" lon="12.866041627127528"><ele>17.0</ele><time>2026-05-01T07:21:06.999Z</time></trkpt><trkpt lat="43.88717978322917" lon="12.865811034754472"><ele>17.333333333333336</ele><time>2026-05-01T07:21:07.999Z</time></trkpt><trkpt lat="43.88709516761227" lon="12.8655814466664"><ele>17.666666666666668</ele><time>2026-05-01T07:21:08.999Z</time></trkpt><trkpt lat="43.887009949226766" lon="12.865354007130346"><ele>18.0</ele><time>2026-05-01T07:21:09.999Z</time></trkpt><trkpt lat="43.88692218574736" lon="12.865123826397626"><ele>18.0</ele><time>2026-05-01T07:21:10.999Z</time></trkpt><trkpt lat="43.88683330145026" lon="12.864891585367745"><ele>18.0</ele><time>2026-05-01T07:21:11.998Z</time></trkpt><trkpt lat="43.886743538701346" lon="12.864654621580653"><ele>18.0</ele><time>2026-05-01T07:21:12.998Z</time></trkpt><trkpt lat="43.88664729838446" lon="12.86442465683323"><ele>18.333333333333332</ele><time>2026-05-01T07:21:13.998Z</time></trkpt><trkpt lat="43.88654449796016" lon="12.864199030789443"><ele>18.666666666666664</ele><time>2026-05-01T07:21:14.998Z</time></trkpt><trkpt lat="43.88643279495273" lon="12.863979382164892"><ele>19.0</ele><time>2026-05-01T07:21:15.998Z</time></trkpt><trkpt lat="43.88631935436609" lon="12.863760294727898"><ele>19.0</ele><time>2026-05-01T07:21:16.998Z</time></trkpt><trkpt lat="43.88620404981463" lon="12.863540264281898"><ele>19.0</ele><time>2026-05-01T07:21:17.998Z</time></trkpt><trkpt lat="43.886088614043516" lon="12.863321745917188"><ele>19.0</ele><time>2026-05-01T07:21:18.998Z</time></trkpt><trkpt lat="43.885976180307885" lon="12.86310925515038"><ele>19.0</ele><time>2026-05-01T07:21:19.998Z</time></trkpt><trkpt lat="43.885863657788796" lon="12.86289746626999"><ele>19.0</ele><time>2026-05-01T07:21:20.998Z</time></trkpt><trkpt lat="43.885752090500326" lon="12.862686776839363"><ele>19.0</ele><time>2026-05-01T07:21:21.998Z</time></trkpt><trkpt lat="43.88564824229335" lon="12.862487360191805"><ele>19.0</ele><time>2026-05-01T07:21:22.998Z</time></trkpt><trkpt lat="43.88555391673582" lon="12.86230462164709"><ele>19.0</ele><time>2026-05-01T07:21:23.998Z</time></trkpt><trkpt lat="43.88546591608441" lon="12.862135270258392"><ele>19.0</ele><time>2026-05-01T07:21:24.998Z</time></trkpt><trkpt lat="43.885387055262214" lon="12.861969827176651"><ele>19.0</ele><time>2026-05-01T07:21:25.998Z</time></trkpt><trkpt lat="43.885329938276776" lon="12.861789579601725"><ele>19.0</ele><time>2026-05-01T07:21:26.998Z</time></trkpt><trkpt lat="43.88529483392777" lon="12.861600724013151"><ele>19.0</ele><time>2026-05-01T07:21:27.998Z</time></trkpt><trkpt lat="43.88524597205686" lon="12.86142849293328"><ele>19.0</ele><time>2026-05-01T07:21:28.998Z</time></trkpt><trkpt lat="43.8851547271888" lon="12.861283884049373"><ele>19.666666666666664</ele><time>2026-05-01T07:21:29.998Z</time></trkpt><trkpt lat="43.885028456477144" lon="12.861173857884092"><ele>20.333333333333332</ele><time>2026-05-01T07:21:30.998Z</time></trkpt><trkpt lat="43.88489972710106" lon="12.861050445786143"><ele>21.0</ele><time>2026-05-01T07:21:31.998Z</time></trkpt><trkpt lat="43.88478551718474" lon="12.860886537693798"><ele>21.666666666666668</ele><time>2026-05-01T07:21:32.998Z</time></trkpt><trkpt lat="43.88467853540485" lon="12.860706374996036"><ele>22.333333333333336</ele><time>2026-05-01T07:21:33.998Z</time></trkpt><trkpt lat="43.88456686796263" lon="12.860515638301566"><ele>23.0</ele><time>2026-05-01T07:21:34.998Z</time></trkpt><trkpt lat="43.884451420776614" lon="12.860319886768144"><ele>22.0</ele><time>2026-05-01T07:21:35.998Z</time></trkpt><trkpt lat="43.88433122503149" lon="12.860114660339708"><ele>21.0</ele><time>2026-05-01T07:21:36.998Z</time></trkpt><trkpt lat="43.884210462046234" lon="12.859898164969987"><ele>20.0</ele><time>2026-05-01T07:21:37.998Z</time></trkpt><trkpt lat="43.88408696001754" lon="12.859676121260778"><ele>20.0</ele><time>2026-05-01T07:21:38.998Z</time></trkpt><trkpt lat="43.883962717697216" lon="12.859448477678836"><ele>20.0</ele><time>2026-05-01T07:21:39.998Z</time></trkpt><trkpt lat="43.88383623604055" lon="12.859216692881517"><ele>20.0</ele><time>2026-05-01T07:21:40.998Z</time></trkpt><trkpt lat="43.88370969664606" lon="12.858980087640631"><ele>20.333333333333336</ele><time>2026-05-01T07:21:41.998Z</time></trkpt><trkpt lat="43.88358866118724" lon="12.858749170525979"><ele>20.666666666666668</ele><time>2026-05-01T07:21:43Z</time></trkpt><trkpt lat="43.88346420676806" lon="12.85851215179575"><ele>21.0</ele><time>2026-05-01T07:21:44Z</time></trkpt><trkpt lat="43.883332445246005" lon="12.858273798990009"><ele>21.0</ele><time>2026-05-01T07:21:45Z</time></trkpt><trkpt lat="43.88319939413208" lon="12.8580341866341"><ele>21.0</ele><time>2026-05-01T07:21:46Z</time></trkpt><trkpt lat="43.88306821875133" lon="12.857791422924413"><ele>21.0</ele><time>2026-05-01T07:21:47Z</time></trkpt><trkpt lat="43.88293691196953" lon="12.85754947407159"><ele>21.0</ele><time>2026-05-01T07:21:48Z</time></trkpt><trkpt lat="43.88280861314837" lon="12.857309929468187"><ele>21.0</ele><time>2026-05-01T07:21:49Z</time></trkpt><trkpt lat="43.882681842754714" lon="12.857072509940574"><ele>21.0</ele><time>2026-05-01T07:21:50Z</time></trkpt><trkpt lat="43.882554774719594" lon="12.856832583850405"><ele>21.666666666666668</ele><time>2026-05-01T07:21:51Z</time></trkpt><trkpt lat="43.88242446165983" lon="12.856593219685298"><ele>22.333333333333336</ele><time>2026-05-01T07:21:52Z</time></trkpt><trkpt lat="43.88229263921919" lon="12.856355523841211"><ele>23.0</ele><time>2026-05-01T07:21:53Z</time></trkpt><trkpt lat="43.88216157793127" lon="12.856125513122965"><ele>22.666666666666668</ele><time>2026-05-01T07:21:54Z</time></trkpt><trkpt lat="43.88203038922003" lon="12.855891988128494"><ele>22.333333333333332</ele><time>2026-05-01T07:21:55Z</time></trkpt><trkpt lat="43.88189986308731" lon="12.855658044986301"><ele>22.0</ele><time>2026-05-01T07:21:56Z</time></trkpt><trkpt lat="43.881769922177575" lon="12.855424025089004"><ele>22.0</ele><time>2026-05-01T07:21:57Z</time></trkpt><trkpt lat="43.881640895248864" lon="12.85519137683151"><ele>22.0</ele><time>2026-05-01T07:21:58Z</time></trkpt><trkpt lat="43.88151085863701" lon="12.854959079732426"><ele>22.0</ele><time>2026-05-01T07:21:59Z</time></trkpt><trkpt lat="43.8813838922426" lon="12.854724297783351"><ele>22.0</ele><time>2026-05-01T07:22:00Z</time></trkpt><trkpt lat="43.88126145077014" lon="12.854484594761294"><ele>22.0</ele><time>2026-05-01T07:22:01Z</time></trkpt><trkpt lat="43.88113898172007" lon="12.854247998964158"><ele>22.0</ele><time>2026-05-01T07:22:02Z</time></trkpt><trkpt lat="43.881015190329705" lon="12.854012435268471"><ele>22.333333333333332</ele><time>2026-05-01T07:22:03Z</time></trkpt><trkpt lat="43.880890005282765" lon="12.853778577064942"><ele>22.666666666666668</ele><time>2026-05-01T07:22:04Z</time></trkpt><trkpt lat="43.88076371701052" lon="12.853544448449902"><ele>23.0</ele><time>2026-05-01T07:22:05Z</time></trkpt><trkpt lat="43.8806370797269" lon="12.853313521905745"><ele>22.0</ele><time>2026-05-01T07:22:06Z</time></trkpt><trkpt lat="43.8805055251805" lon="12.85307981856209"><ele>21.0</ele><time>2026-05-01T07:22:07Z</time></trkpt><trkpt lat="43.88036749507005" lon="12.85284000233522"><ele>20.0</ele><time>2026-05-01T07:22:08Z</time></trkpt><trkpt lat="43.88022454562779" lon="12.852592447691604"><ele>21.0</ele><time>2026-05-01T07:22:09Z</time></trkpt><trkpt lat="43.880079898673635" lon="12.852338009627339"><ele>22.0</ele><time>2026-05-01T07:22:10Z</time></trkpt><trkpt lat="43.87993146378079" lon="12.852073676793188"><ele>22.0</ele><time>2026-05-01T07:22:11Z</time></trkpt><trkpt lat="43.879780864573476" lon="12.851804968039854"><ele>22.0</ele><time>2026-05-01T07:22:12Z</time></trkpt><trkpt lat="43.87963033900903" lon="12.851533794107322"><ele>21.333333333333332</ele><time>2026-05-01T07:22:13Z</time></trkpt><trkpt lat="43.87948977266307" lon="12.851275030729033"><ele>20.666666666666668</ele><time>2026-05-01T07:22:14Z</time></trkpt><trkpt lat="43.87936658184853" lon="12.851044021583489"><ele>20.0</ele><time>2026-05-01T07:22:15Z</time></trkpt><trkpt lat="43.879252091381474" lon="12.850834406096274"><ele>22.333333333333336</ele><time>2026-05-01T07:22:16Z</time></trkpt><trkpt lat="43.87914907380327" lon="12.850643101374628"><ele>24.666666666666668</ele><time>2026-05-01T07:22:17Z</time></trkpt><trkpt lat="43.87905446112293" lon="12.850465074741248"><ele>27.0</ele><time>2026-05-01T07:22:18Z</time></trkpt><trkpt lat="43.878968521546625" lon="12.850304943337015"><ele>27.0</ele><time>2026-05-01T07:22:19Z</time></trkpt><trkpt lat="43.87888757366388" lon="12.850152948875287"><ele>27.0</ele><time>2026-05-01T07:22:20Z</time></trkpt><trkpt lat="43.87880399372853" lon="12.850001866390276"><ele>27.0</ele><time>2026-05-01T07:22:21Z</time></trkpt><trkpt lat="43.87870851628594" lon="12.849834036181713"><ele>27.0</ele><time>2026-05-01T07:22:21.999Z</time></trkpt><trkpt lat="43.878596620144435" lon="12.849644859238358"><ele>26.666666666666664</ele><time>2026-05-01T07:22:22.999Z</time></trkpt><trkpt lat="43.87847345808516" lon="12.84943443404522"><ele>26.333333333333332</ele><time>2026-05-01T07:22:23.999Z</time></trkpt><trkpt lat="43.87834237051614" lon="12.849194657530155"><ele>26.0</ele><time>2026-05-01T07:22:24.999Z</time></trkpt><trkpt lat="43.878200398384315" lon="12.84892759873311"><ele>24.5</ele><time>2026-05-01T07:22:25.999Z</time></trkpt><trkpt lat="43.87804937646905" lon="12.848631808908847"><ele>23.0</ele><time>2026-05-01T07:22:26.999Z</time></trkpt><trkpt lat="43.87788723382849" lon="12.84831192610864"><ele>23.0</ele><time>2026-05-01T07:22:27.999Z</time></trkpt><trkpt lat="43.877715951092775" lon="12.847982357350173"><ele>23.0</ele><time>2026-05-01T07:22:28.999Z</time></trkpt><trkpt lat="43.87755099633692" lon="12.847668673865288"><ele>22.5</ele><time>2026-05-01T07:22:29.999Z</time></trkpt><trkpt lat="43.87738851473062" lon="12.847368144809444"><ele>22.0</ele><time>2026-05-01T07:22:30.999Z</time></trkpt><trkpt lat="43.87722553114983" lon="12.847066929861274"><ele>22.5</ele><time>2026-05-01T07:22:31.999Z</time></trkpt><trkpt lat="43.87706506319937" lon="12.84676899121113"><ele>23.0</ele><time>2026-05-01T07:22:32.999Z</time></trkpt><trkpt lat="43.87690517798508" lon="12.846473387829274"><ele>23.0</ele><time>2026-05-01T07:22:33.999Z</time></trkpt><trkpt lat="43.87674370768782" lon="12.84617909907513"><ele>23.0</ele><time>2026-05-01T07:22:34.999Z</time></trkpt><trkpt lat="43.876582339071824" lon="12.845878904856368"><ele>23.0</ele><time>2026-05-01T07:22:35.999Z</time></trkpt><trkpt lat="43.8764202535052" lon="12.845574277479063"><ele>23.0</ele><time>2026-05-01T07:22:36.999Z</time></trkpt><trkpt lat="43.876253181861706" lon="12.84526970254079"><ele>23.5</ele><time>2026-05-01T07:22:37.999Z</time></trkpt><trkpt lat="43.8760851843967" lon="12.844965287130929"><ele>24.0</ele><time>2026-05-01T07:22:38.999Z</time></trkpt><trkpt lat="43.87591608922788" lon="12.844658592281906"><ele>24.0</ele><time>2026-05-01T07:22:39.999Z</time></trkpt><trkpt lat="43.87574738882265" lon="12.84434807809317"><ele>24.0</ele><time>2026-05-01T07:22:40.999Z</time></trkpt><trkpt lat="43.87557921688708" lon="12.844035372762956"><ele>24.0</ele><time>2026-05-01T07:22:41.999Z</time></trkpt><trkpt lat="43.875410188394675" lon="12.843720248892295"><ele>24.0</ele><time>2026-05-01T07:22:42.999Z</time></trkpt><trkpt lat="43.875241035503855" lon="12.843404316547643"><ele>25.5</ele><time>2026-05-01T07:22:43.999Z</time></trkpt><trkpt lat="43.87507059522473" lon="12.843090623957337"><ele>27.0</ele><time>2026-05-01T07:22:44.999Z</time></trkpt><trkpt lat="43.87489780351666" lon="12.842776533333167"><ele>26.5</ele><time>2026-05-01T07:22:45.999Z</time></trkpt><trkpt lat="43.87472382298605" lon="12.842465842514653"><ele>26.0</ele><time>2026-05-01T07:22:46.999Z</time></trkpt><trkpt lat="43.87455283071968" lon="12.842152428422152"><ele>26.0</ele><time>2026-05-01T07:22:47.999Z</time></trkpt><trkpt lat="43.874384418123505" lon="12.84183879644738"><ele>26.0</ele><time>2026-05-01T07:22:48.999Z</time></trkpt><trkpt lat="43.87421591644849" lon="12.841527804117598"><ele>26.0</ele><time>2026-05-01T07:22:49.999Z</time></trkpt><trkpt lat="43.87404438198888" lon="12.84121690929443"><ele>26.0</ele><time>2026-05-01T07:22:50.999Z</time></trkpt><trkpt lat="43.87387468826199" lon="12.840905454403305"><ele>27.0</ele><time>2026-05-01T07:22:51.999Z</time></trkpt><trkpt lat="43.87370650727788" lon="12.840593966529987"><ele>28.0</ele><time>2026-05-01T07:22:52.999Z</time></trkpt><trkpt lat="43.873540368804335" lon="12.840281623682378"><ele>27.5</ele><time>2026-05-01T07:22:53.999Z</time></trkpt><trkpt lat="43.87337618730217" lon="12.839968356148155"><ele>27.0</ele><time>2026-05-01T07:22:54.999Z</time></trkpt><trkpt lat="43.873215358843346" lon="12.83965337990315"><ele>27.0</ele><time>2026-05-01T07:22:55.999Z</time></trkpt><trkpt lat="43.87305702731113" lon="12.83933823411738"><ele>27.0</ele><time>2026-05-01T07:22:56.999Z</time></trkpt><trkpt lat="43.87289968393193" lon="12.839020013378315"><ele>26.0</ele><time>2026-05-01T07:22:57.999Z</time></trkpt><trkpt lat="43.87274273003231" lon="12.838702645063861"><ele>25.0</ele><time>2026-05-01T07:22:58.999Z</time></trkpt><trkpt lat="43.87258623557279" lon="12.83838576028467"><ele>25.0</ele><time>2026-05-01T07:22:59.999Z</time></trkpt><trkpt lat="43.87242875250322" lon="12.838071104076544"><ele>25.0</ele><time>2026-05-01T07:23:00.999Z</time></trkpt><trkpt lat="43.872267981267065" lon="12.837758581291865"><ele>24.0</ele><time>2026-05-01T07:23:01.999Z</time></trkpt><trkpt lat="43.87210889879406" lon="12.837445810862105"><ele>23.0</ele><time>2026-05-01T07:23:02.999Z</time></trkpt><trkpt lat="43.87195371981177" lon="12.837134207425992"><ele>23.0</ele><time>2026-05-01T07:23:03.999Z</time></trkpt><trkpt lat="43.87179764512286" lon="12.83682195579871"><ele>23.0</ele><time>2026-05-01T07:23:04.999Z</time></trkpt><trkpt lat="43.871639586549946" lon="12.83651000522409"><ele>24.0</ele><time>2026-05-01T07:23:05.999Z</time></trkpt><trkpt lat="43.87148306570515" lon="12.836198965940229"><ele>25.0</ele><time>2026-05-01T07:23:06.999Z</time></trkpt><trkpt lat="43.87132937318425" lon="12.835887452510534"><ele>25.0</ele><time>2026-05-01T07:23:07.999Z</time></trkpt><trkpt lat="43.87117408102352" lon="12.835581105025193"><ele>25.0</ele><time>2026-05-01T07:23:08.999Z</time></trkpt><trkpt lat="43.87101784266317" lon="12.83527305116553"><ele>28.0</ele><time>2026-05-01T07:23:09.999Z</time></trkpt><trkpt lat="43.870861472549485" lon="12.834965092028463"><ele>31.0</ele><time>2026-05-01T07:23:10.999Z</time></trkpt><trkpt lat="43.87070703835819" lon="12.834658459608603"><ele>31.0</ele><time>2026-05-01T07:23:11.999Z</time></trkpt><trkpt lat="43.870556361112406" lon="12.834353913778235"><ele>31.0</ele><time>2026-05-01T07:23:12.999Z</time></trkpt><trkpt lat="43.87041689852602" lon="12.834072269487732"><ele>30.666666666666668</ele><time>2026-05-01T07:23:13.999Z</time></trkpt><trkpt lat="43.870284147734466" lon="12.833805426082282"><ele>30.333333333333336</ele><time>2026-05-01T07:23:14.999Z</time></trkpt><trkpt lat="43.87016737207134" lon="12.833565573109132"><ele>30.0</ele><time>2026-05-01T07:23:15.998Z</time></trkpt><trkpt lat="43.87006560587956" lon="12.833360309322002"><ele>28.666666666666664</ele><time>2026-05-01T07:23:16.998Z</time></trkpt><trkpt lat="43.86997125124632" lon="12.833172712180327"><ele>27.333333333333332</ele><time>2026-05-01T07:23:17.998Z</time></trkpt><trkpt lat="43.86986972609443" lon="12.83298125519898"><ele>26.0</ele><time>2026-05-01T07:23:18.998Z</time></trkpt><trkpt lat="43.8697727644022" lon="12.832782354178802"><ele>26.666666666666664</ele><time>2026-05-01T07:23:19.998Z</time></trkpt><trkpt lat="43.86967099407462" lon="12.832582172995787"><ele>27.333333333333336</ele><time>2026-05-01T07:23:20.998Z</time></trkpt><trkpt lat="43.86956664663794" lon="12.832379659020216"><ele>28.0</ele><time>2026-05-01T07:23:21.998Z</time></trkpt><trkpt lat="43.86946513721824" lon="12.83218564205569"><ele>28.0</ele><time>2026-05-01T07:23:22.998Z</time></trkpt><trkpt lat="43.86936794560417" lon="12.832002788662017"><ele>28.0</ele><time>2026-05-01T07:23:23.998Z</time></trkpt><trkpt lat="43.869272086182704" lon="12.83182077373545"><ele>28.0</ele><time>2026-05-01T07:23:24.998Z</time></trkpt><trkpt lat="43.86917138535384" lon="12.831638403285474"><ele>27.666666666666668</ele><time>2026-05-01T07:23:25.998Z</time></trkpt><trkpt lat="43.86906519546548" lon="12.83145330020761"><ele>27.333333333333336</ele><time>2026-05-01T07:23:26.998Z</time></trkpt><trkpt lat="43.86895511100035" lon="12.8312661817093"><ele>27.0</ele><time>2026-05-01T07:23:27.998Z</time></trkpt><trkpt lat="43.86884148651447" lon="12.831072653281595"><ele>27.0</ele><time>2026-05-01T07:23:28.998Z</time></trkpt><trkpt lat="43.868727644705615" lon="12.830870838805843"><ele>27.0</ele><time>2026-05-01T07:23:29.998Z</time></trkpt><trkpt lat="43.868611471065826" lon="12.830663286457423"><ele>27.0</ele><time>2026-05-01T07:23:30.998Z</time></trkpt><trkpt lat="43.86849114635944" lon="12.830453088444107"><ele>26.666666666666664</ele><time>2026-05-01T07:23:31.998Z</time></trkpt><trkpt lat="43.86836621390048" lon="12.830235870571135"><ele>26.333333333333332</ele><time>2026-05-01T07:23:32.998Z</time></trkpt><trkpt lat="43.86823936002242" lon="12.830012523894336"><ele>26.0</ele><time>2026-05-01T07:23:33.998Z</time></trkpt><trkpt lat="43.86810894724538" lon="12.829788663784308"><ele>26.333333333333332</ele><time>2026-05-01T07:23:34.998Z</time></trkpt><trkpt lat="43.86797503124012" lon="12.829558598800123"><ele>26.666666666666664</ele><time>2026-05-01T07:23:35.998Z</time></trkpt><trkpt lat="43.867837130176255" lon="12.829317416789683"><ele>27.0</ele><time>2026-05-01T07:23:36.998Z</time></trkpt><trkpt lat="43.86769580758231" lon="12.829072500779123"><ele>27.5</ele><time>2026-05-01T07:23:37.998Z</time></trkpt><trkpt lat="43.86755215183209" lon="12.828819198989036"><ele>28.0</ele><time>2026-05-01T07:23:38.998Z</time></trkpt><trkpt lat="43.86740543362544" lon="12.82856259349763"><ele>28.5</ele><time>2026-05-01T07:23:39.998Z</time></trkpt><trkpt lat="43.8672555010471" lon="12.828304387574057"><ele>29.0</ele><time>2026-05-01T07:23:40.998Z</time></trkpt><trkpt lat="43.867102782106166" lon="12.828040055084797"><ele>29.0</ele><time>2026-05-01T07:23:41.998Z</time></trkpt><trkpt lat="43.86695009212966" lon="12.827775913437097"><ele>29.0</ele><time>2026-05-01T07:23:42.998Z</time></trkpt><trkpt lat="43.86679420200392" lon="12.827505503308034"><ele>28.5</ele><time>2026-05-01T07:23:43.998Z</time></trkpt><trkpt lat="43.866634717881034" lon="12.827234244102232"><ele>28.0</ele><time>2026-05-01T07:23:44.998Z</time></trkpt><trkpt lat="43.866474728029104" lon="12.826959792500816"><ele>28.0</ele><time>2026-05-01T07:23:45.998Z</time></trkpt><trkpt lat="43.8663138597126" lon="12.826684172515812"><ele>28.0</ele><time>2026-05-01T07:23:46.998Z</time></trkpt><trkpt lat="43.86615121296166" lon="12.826403981741567"><ele>28.0</ele><time>2026-05-01T07:23:47.998Z</time></trkpt><trkpt lat="43.865987668605094" lon="12.826123290645013"><ele>28.0</ele><time>2026-05-01T07:23:49Z</time></trkpt><trkpt lat="43.86582432568705" lon="12.825841719695536"><ele>29.0</ele><time>2026-05-01T07:23:50Z</time></trkpt><trkpt lat="43.86565999729509" lon="12.825560101812519"><ele>30.0</ele><time>2026-05-01T07:23:51Z</time></trkpt><trkpt lat="43.86549905376357" lon="12.825294043412754"><ele>30.0</ele><time>2026-05-01T07:23:52Z</time></trkpt><trkpt lat="43.865344302209145" lon="12.82502950828554"><ele>30.0</ele><time>2026-05-01T07:23:53Z</time></trkpt><trkpt lat="43.86518957947175" lon="12.824764741327284"><ele>30.0</ele><time>2026-05-01T07:23:54Z</time></trkpt><trkpt lat="43.86503266627127" lon="12.824501023319518"><ele>30.0</ele><time>2026-05-01T07:23:55Z</time></trkpt><trkpt lat="43.86487690944342" lon="12.824238063555569"><ele>30.0</ele><time>2026-05-01T07:23:56Z</time></trkpt><trkpt lat="43.86472285110882" lon="12.823979111563307"><ele>30.0</ele><time>2026-05-01T07:23:57Z</time></trkpt><trkpt lat="43.864575159040186" lon="12.82373078773311"><ele>30.0</ele><time>2026-05-01T07:23:58Z</time></trkpt><trkpt lat="43.864437764719284" lon="12.823485270863573"><ele>30.0</ele><time>2026-05-01T07:23:59Z</time></trkpt><trkpt lat="43.86430104334736" lon="12.823242132742777"><ele>30.0</ele><time>2026-05-01T07:24:00Z</time></trkpt><trkpt lat="43.86416505522428" lon="12.822997961584681"><ele>31.0</ele><time>2026-05-01T07:24:01Z</time></trkpt><trkpt lat="43.86402563525409" lon="12.822753732248605"><ele>32.0</ele><time>2026-05-01T07:24:02Z</time></trkpt><trkpt lat="43.86388427282181" lon="12.822503617180423"><ele>32.5</ele><time>2026-05-01T07:24:03Z</time></trkpt><trkpt lat="43.86374783562873" lon="12.822250933626544"><ele>33.0</ele><time>2026-05-01T07:24:04Z</time></trkpt><trkpt lat="43.86361517847698" lon="12.821987987224631"><ele>32.5</ele><time>2026-05-01T07:24:05Z</time></trkpt><trkpt lat="43.86348218849926" lon="12.821724860073317"><ele>32.0</ele><time>2026-05-01T07:24:06Z</time></trkpt><trkpt lat="43.86334783484526" lon="12.821463207890353"><ele>32.5</ele><time>2026-05-01T07:24:07Z</time></trkpt><trkpt lat="43.863213572034574" lon="12.82120103139045"><ele>33.0</ele><time>2026-05-01T07:24:08Z</time></trkpt><trkpt lat="43.863076863123155" lon="12.820937819062884"><ele>33.0</ele><time>2026-05-01T07:24:09Z</time></trkpt><trkpt lat="43.862938175777316" lon="12.820674469042725"><ele>33.0</ele><time>2026-05-01T07:24:10Z</time></trkpt><trkpt lat="43.862801898632355" lon="12.820409711663908"><ele>32.5</ele><time>2026-05-01T07:24:11Z</time></trkpt><trkpt lat="43.862668366089274" lon="12.820142984806818"><ele>32.0</ele><time>2026-05-01T07:24:12Z</time></trkpt><trkpt lat="43.86253844230664" lon="12.819882410139638"><ele>32.0</ele><time>2026-05-01T07:24:13Z</time></trkpt><trkpt lat="43.86241481483835" lon="12.81963220456302"><ele>32.0</ele><time>2026-05-01T07:24:14Z</time></trkpt><trkpt lat="43.86229602069235" lon="12.819397988310527"><ele>32.0</ele><time>2026-05-01T07:24:15Z</time></trkpt><trkpt lat="43.862179807857" lon="12.819168616992616"><ele>31.333333333333332</ele><time>2026-05-01T07:24:16Z</time></trkpt><trkpt lat="43.86207537839132" lon="12.818961211701344"><ele>30.666666666666664</ele><time>2026-05-01T07:24:17Z</time></trkpt><trkpt lat="43.86197972015326" lon="12.818761760233372"><ele>30.0</ele><time>2026-05-01T07:24:18Z</time></trkpt><trkpt lat="43.86189000155139" lon="12.818578461994228"><ele>30.25</ele><time>2026-05-01T07:24:19Z</time></trkpt><trkpt lat="43.86180628277118" lon="12.818406657916526"><ele>30.5</ele><time>2026-05-01T07:24:20Z</time></trkpt><trkpt lat="43.86173729884077" lon="12.818243084638114"><ele>30.75</ele><time>2026-05-01T07:24:21Z</time></trkpt><trkpt lat="43.86168635660523" lon="12.818072769137112"><ele>31.0</ele><time>2026-05-01T07:24:22Z</time></trkpt><trkpt lat="43.86168728763654" lon="12.81790288872681"><ele>30.25</ele><time>2026-05-01T07:24:23Z</time></trkpt><trkpt lat="43.86170221278029" lon="12.817742758876495"><ele>29.5</ele><time>2026-05-01T07:24:23.999Z</time></trkpt><trkpt lat="43.861665544190885" lon="12.817591525688279"><ele>28.75</ele><time>2026-05-01T07:24:24.999Z</time></trkpt><trkpt lat="43.86159371997109" lon="12.817453224450226"><ele>28.0</ele><time>2026-05-01T07:24:25.999Z</time></trkpt><trkpt lat="43.86148356255232" lon="12.817357826819935"><ele>28.0</ele><time>2026-05-01T07:24:26.999Z</time></trkpt><trkpt lat="43.86135320079209" lon="12.817281401892556"><ele>28.0</ele><time>2026-05-01T07:24:27.999Z</time></trkpt><trkpt lat="43.86122835749509" lon="12.817165264168988"><ele>28.0</ele><time>2026-05-01T07:24:28.999Z</time></trkpt><trkpt lat="43.86111319856089" lon="12.816994538914587"><ele>28.666666666666668</ele><time>2026-05-01T07:24:29.999Z</time></trkpt><trkpt lat="43.86100945905581" lon="12.816801197518704"><ele>29.333333333333336</ele><time>2026-05-01T07:24:30.999Z</time></trkpt><trkpt lat="43.860896047269485" lon="12.816597481641127"><ele>30.0</ele><time>2026-05-01T07:24:31.999Z</time></trkpt><trkpt lat="43.86078039472523" lon="12.816388624628022"><ele>30.0</ele><time>2026-05-01T07:24:32.999Z</time></trkpt><trkpt lat="43.86067421902819" lon="12.816185799629741"><ele>30.0</ele><time>2026-05-01T07:24:33.999Z</time></trkpt><trkpt lat="43.86056569602507" lon="12.81597115824837"><ele>30.0</ele><time>2026-05-01T07:24:34.999Z</time></trkpt><trkpt lat="43.8604516785591" lon="12.815745515972004"><ele>30.0</ele><time>2026-05-01T07:24:35.999Z</time></trkpt><trkpt lat="43.860334900601174" lon="12.815523741750328"><ele>30.0</ele><time>2026-05-01T07:24:36.999Z</time></trkpt><trkpt lat="43.860216156592976" lon="12.815291039420554"><ele>30.0</ele><time>2026-05-01T07:24:37.999Z</time></trkpt><trkpt lat="43.860096201362275" lon="12.815053291228415"><ele>30.333333333333336</ele><time>2026-05-01T07:24:38.999Z</time></trkpt><trkpt lat="43.859974168309876" lon="12.81480547058725"><ele>30.666666666666668</ele><time>2026-05-01T07:24:39.999Z</time></trkpt><trkpt lat="43.85985179323523" lon="12.814548966855375"><ele>31.0</ele><time>2026-05-01T07:24:40.999Z</time></trkpt><trkpt lat="43.85972232176474" lon="12.814291525536621"><ele>31.0</ele><time>2026-05-01T07:24:41.999Z</time></trkpt><trkpt lat="43.85959618773863" lon="12.814052024381887"><ele>31.0</ele><time>2026-05-01T07:24:42.999Z</time></trkpt><trkpt lat="43.85947296264903" lon="12.813817130582706"><ele>31.0</ele><time>2026-05-01T07:24:43.999Z</time></trkpt><trkpt lat="43.8593443795002" lon="12.813574347985812"><ele>32.0</ele><time>2026-05-01T07:24:44.999Z</time></trkpt><trkpt lat="43.859209425095116" lon="12.813334067992654"><ele>33.0</ele><time>2026-05-01T07:24:45.999Z</time></trkpt><trkpt lat="43.859068679592426" lon="12.813092047031049"><ele>34.0</ele><time>2026-05-01T07:24:46.999Z</time></trkpt><trkpt lat="43.85891862010375" lon="12.81285652192042"><ele>32.5</ele><time>2026-05-01T07:24:47.999Z</time></trkpt><trkpt lat="43.85876328441326" lon="12.812619924423533"><ele>31.0</ele><time>2026-05-01T07:24:48.999Z</time></trkpt><trkpt lat="43.85860603576275" lon="12.81238348917852"><ele>31.5</ele><time>2026-05-01T07:24:49.999Z</time></trkpt><trkpt lat="43.85844562559734" lon="12.812143050806617"><ele>32.0</ele><time>2026-05-01T07:24:50.999Z</time></trkpt><trkpt lat="43.85828460294478" lon="12.811898452401792"><ele>33.0</ele><time>2026-05-01T07:24:51.999Z</time></trkpt><trkpt lat="43.85812271515061" lon="12.81165256623125"><ele>34.0</ele><time>2026-05-01T07:24:52.999Z</time></trkpt><trkpt lat="43.8579567971027" lon="12.811406417419391"><ele>34.0</ele><time>2026-05-01T07:24:53.999Z</time></trkpt><trkpt lat="43.85778815756977" lon="12.81115839768755"><ele>34.0</ele><time>2026-05-01T07:24:54.999Z</time></trkpt><trkpt lat="43.85761953620494" lon="12.810904670681623"><ele>33.0</ele><time>2026-05-01T07:24:55.999Z</time></trkpt><trkpt lat="43.85745037623073" lon="12.810649132496316"><ele>32.0</ele><time>2026-05-01T07:24:56.999Z</time></trkpt><trkpt lat="43.85727886317871" lon="12.810396828553387"><ele>32.0</ele><time>2026-05-01T07:24:57.999Z</time></trkpt><trkpt lat="43.85710521924356" lon="12.810147086698565"><ele>32.0</ele><time>2026-05-01T07:24:58.999Z</time></trkpt><trkpt lat="43.856933854318065" lon="12.809890149977504"><ele>31.5</ele><time>2026-05-01T07:24:59.999Z</time></trkpt><trkpt lat="43.85676367957521" lon="12.809631689674838"><ele>31.0</ele><time>2026-05-01T07:25:00.999Z</time></trkpt><trkpt lat="43.8565898656376" lon="12.809375311430982"><ele>31.5</ele><time>2026-05-01T07:25:01.999Z</time></trkpt><trkpt lat="43.85641503420819" lon="12.809116536184154"><ele>32.0</ele><time>2026-05-01T07:25:02.999Z</time></trkpt><trkpt lat="43.8562404809532" lon="12.808860841992649"><ele>32.0</ele><time>2026-05-01T07:25:03.999Z</time></trkpt><trkpt lat="43.85606724980444" lon="12.808604608779522"><ele>32.0</ele><time>2026-05-01T07:25:04.999Z</time></trkpt><trkpt lat="43.855893405747786" lon="12.808346817230074"><ele>32.5</ele><time>2026-05-01T07:25:05.999Z</time></trkpt><trkpt lat="43.8557177854093" lon="12.808087892514099"><ele>33.0</ele><time>2026-05-01T07:25:06.999Z</time></trkpt><trkpt lat="43.855542969019886" lon="12.807828186159217"><ele>34.0</ele><time>2026-05-01T07:25:07.999Z</time></trkpt><trkpt lat="43.855372397965034" lon="12.807565482304286"><ele>35.0</ele><time>2026-05-01T07:25:08.999Z</time></trkpt><trkpt lat="43.85521046968573" lon="12.80729075555213"><ele>35.0</ele><time>2026-05-01T07:25:09.999Z</time></trkpt><trkpt lat="43.85506641782167" lon="12.806999687149936"><ele>35.0</ele><time>2026-05-01T07:25:10.999Z</time></trkpt><trkpt lat="43.85493728043645" lon="12.806699481791686"><ele>34.5</ele><time>2026-05-01T07:25:11.999Z</time></trkpt><trkpt lat="43.85482614514405" lon="12.806400080461575"><ele>34.0</ele><time>2026-05-01T07:25:12.999Z</time></trkpt><trkpt lat="43.8547271445658" lon="12.806112186403805"><ele>33.333333333333336</ele><time>2026-05-01T07:25:13.999Z</time></trkpt><trkpt lat="43.8546365214446" lon="12.805838321206943"><ele>32.666666666666664</ele><time>2026-05-01T07:25:14.999Z</time></trkpt><trkpt lat="43.85454684795381" lon="12.805571712453055"><ele>32.0</ele><time>2026-05-01T07:25:15.999Z</time></trkpt><trkpt lat="43.85445482250247" lon="12.80530498614482"><ele>32.0</ele><time>2026-05-01T07:25:16.999Z</time></trkpt><trkpt lat="43.8543622492976" lon="12.80503924145421"><ele>32.0</ele><time>2026-05-01T07:25:17.999Z</time></trkpt><trkpt lat="43.854269577466134" lon="12.804775274981361"><ele>32.0</ele><time>2026-05-01T07:25:18.999Z</time></trkpt><trkpt lat="43.854176926668686" lon="12.804513262209172"><ele>32.33333333333333</ele><time>2026-05-01T07:25:19.998Z</time></trkpt><trkpt lat="43.85408647663907" lon="12.804257706551347"><ele>32.666666666666664</ele><time>2026-05-01T07:25:20.998Z</time></trkpt><trkpt lat="43.85400302409474" lon="12.804012780196866"><ele>33.0</ele><time>2026-05-01T07:25:21.998Z</time></trkpt><trkpt lat="43.85392377260153" lon="12.803774041295139"><ele>33.0</ele><time>2026-05-01T07:25:22.998Z</time></trkpt><trkpt lat="43.853846017933975" lon="12.803543702747028"><ele>33.0</ele><time>2026-05-01T07:25:23.998Z</time></trkpt><trkpt lat="43.85376589825371" lon="12.803312880888239"><ele>33.0</ele><time>2026-05-01T07:25:24.998Z</time></trkpt><trkpt lat="43.85368336732212" lon="12.803080383400692"><ele>33.333333333333336</ele><time>2026-05-01T07:25:25.998Z</time></trkpt><trkpt lat="43.853602460297516" lon="12.80284949917295"><ele>33.66666666666667</ele><time>2026-05-01T07:25:26.998Z</time></trkpt><trkpt lat="43.853524336899184" lon="12.802619494830026"><ele>34.0</ele><time>2026-05-01T07:25:27.998Z</time></trkpt><trkpt lat="43.85344649879664" lon="12.802388643407614"><ele>35.0</ele><time>2026-05-01T07:25:28.998Z</time></trkpt><trkpt lat="43.853370594821975" lon="12.8021642199492"><ele>36.0</ele><time>2026-05-01T07:25:29.998Z</time></trkpt><trkpt lat="43.85329700449128" lon="12.801938632827998"><ele>37.0</ele><time>2026-05-01T07:25:30.998Z</time></trkpt><trkpt lat="43.85322343573707" lon="12.801713328908152"><ele>37.0</ele><time>2026-05-01T07:25:31.998Z</time></trkpt><trkpt lat="43.853148574118954" lon="12.801492176497113"><ele>37.0</ele><time>2026-05-01T07:25:32.998Z</time></trkpt><trkpt lat="43.85307069714777" lon="12.80127198690123"><ele>37.0</ele><time>2026-05-01T07:25:33.998Z</time></trkpt><trkpt lat="43.85299214036307" lon="12.80105289208337"><ele>37.333333333333336</ele><time>2026-05-01T07:25:34.998Z</time></trkpt><trkpt lat="43.85291577003286" lon="12.800837340305078"><ele>37.666666666666664</ele><time>2026-05-01T07:25:35.998Z</time></trkpt><trkpt lat="43.85284411373357" lon="12.80062206150222"><ele>38.0</ele><time>2026-05-01T07:25:36.998Z</time></trkpt><trkpt lat="43.85277880474588" lon="12.800416462117948"><ele>38.0</ele><time>2026-05-01T07:25:37.998Z</time></trkpt><trkpt lat="43.85271356747611" lon="12.800224033073649"><ele>38.0</ele><time>2026-05-01T07:25:38.998Z</time></trkpt><trkpt lat="43.8526481768976" lon="12.800034553341929"><ele>38.0</ele><time>2026-05-01T07:25:39.998Z</time></trkpt><trkpt lat="43.8525842468832" lon="12.799833397589092"><ele>38.33333333333333</ele><time>2026-05-01T07:25:40.998Z</time></trkpt><trkpt lat="43.85251846173048" lon="12.799627318780098"><ele>38.666666666666664</ele><time>2026-05-01T07:25:41.998Z</time></trkpt><trkpt lat="43.85245775566013" lon="12.799416445101809"><ele>39.0</ele><time>2026-05-01T07:25:42.998Z</time></trkpt><trkpt lat="43.852404582982565" lon="12.799201945652147"><ele>39.0</ele><time>2026-05-01T07:25:43.998Z</time></trkpt><trkpt lat="43.85235678173177" lon="12.798980926411257"><ele>39.0</ele><time>2026-05-01T07:25:44.998Z</time></trkpt><trkpt lat="43.85231401884422" lon="12.798754951837267"><ele>39.0</ele><time>2026-05-01T07:25:45.998Z</time></trkpt><trkpt lat="43.8522747696729" lon="12.798524264202413"><ele>38.0</ele><time>2026-05-01T07:25:46.998Z</time></trkpt><trkpt lat="43.85223917859228" lon="12.798287951979578"><ele>37.0</ele><time>2026-05-01T07:25:47.998Z</time></trkpt><trkpt lat="43.85220916950339" lon="12.79804629730617"><ele>36.0</ele><time>2026-05-01T07:25:48.998Z</time></trkpt><trkpt lat="43.85218682196837" lon="12.797797984641257"><ele>36.0</ele><time>2026-05-01T07:25:49.998Z</time></trkpt><trkpt lat="43.852168429823266" lon="12.797544279525972"><ele>36.0</ele><time>2026-05-01T07:25:50.998Z</time></trkpt><trkpt lat="43.85215285353696" lon="12.797287244094521"><ele>36.0</ele><time>2026-05-01T07:25:51.998Z</time></trkpt><trkpt lat="43.85213442339164" lon="12.797042438567525"><ele>35.333333333333336</ele><time>2026-05-01T07:25:52.998Z</time></trkpt><trkpt lat="43.85211365406967" lon="12.79678451901471"><ele>34.66666666666667</ele><time>2026-05-01T07:25:53.998Z</time></trkpt><trkpt lat="43.85209153730767" lon="12.7965099779053"><ele>34.0</ele><time>2026-05-01T07:25:55Z</time></trkpt><trkpt lat="43.85206971883831" lon="12.79622505499436"><ele>34.66666666666667</ele><time>2026-05-01T07:25:56Z</time></trkpt><trkpt lat="43.85205212796483" lon="12.795929664076526"><ele>35.333333333333336</ele><time>2026-05-01T07:25:57Z</time></trkpt><trkpt lat="43.852033584592384" lon="12.795630371931052"><ele>36.0</ele><time>2026-05-01T07:25:58Z</time></trkpt><trkpt lat="43.85201613081306" lon="12.795315542279834"><ele>38.5</ele><time>2026-05-01T07:25:59Z</time></trkpt><trkpt lat="43.85199537621661" lon="12.794991864165874"><ele>41.0</ele><time>2026-05-01T07:26:00Z</time></trkpt><trkpt lat="43.85197240414054" lon="12.794660607554693"><ele>40.5</ele><time>2026-05-01T07:26:01Z</time></trkpt><trkpt lat="43.85195276464362" lon="12.794323913572693"><ele>40.0</ele><time>2026-05-01T07:26:02Z</time></trkpt><trkpt lat="43.85193183166576" lon="12.793985417798847"><ele>40.0</ele><time>2026-05-01T07:26:03Z</time></trkpt><trkpt lat="43.85191002358247" lon="12.793646696038419"><ele>40.0</ele><time>2026-05-01T07:26:04Z</time></trkpt><trkpt lat="43.85189696808501" lon="12.793309374935905"><ele>37.5</ele><time>2026-05-01T07:26:05Z</time></trkpt><trkpt lat="43.8518833577147" lon="12.79296590134136"><ele>35.0</ele><time>2026-05-01T07:26:06Z</time></trkpt><trkpt lat="43.85187051347868" lon="12.792621409793115"><ele>34.5</ele><time>2026-05-01T07:26:07Z</time></trkpt><trkpt lat="43.85185653046177" lon="12.792278890285788"><ele>34.0</ele><time>2026-05-01T07:26:08Z</time></trkpt><trkpt lat="43.85183960633191" lon="12.791936381026487"><ele>35.0</ele><time>2026-05-01T07:26:09Z</time></trkpt><trkpt lat="43.85181991735712" lon="12.791596231695372"><ele>36.0</ele><time>2026-05-01T07:26:10Z</time></trkpt><trkpt lat="43.851795005809485" lon="12.791257974128001"><ele>37.0</ele><time>2026-05-01T07:26:11Z</time></trkpt><trkpt lat="43.85176694515505" lon="12.790924857020018"><ele>38.0</ele><time>2026-05-01T07:26:12Z</time></trkpt><trkpt lat="43.851734204158596" lon="12.790595681328993"><ele>38.0</ele><time>2026-05-01T07:26:13Z</time></trkpt><trkpt lat="43.85169486366541" lon="12.790282003155177"><ele>38.0</ele><time>2026-05-01T07:26:14Z</time></trkpt><trkpt lat="43.851645646941584" lon="12.789987326557789"><ele>38.0</ele><time>2026-05-01T07:26:15Z</time></trkpt><trkpt lat="43.85158984175655" lon="12.78970297148776"><ele>38.666666666666664</ele><time>2026-05-01T07:26:16Z</time></trkpt><trkpt lat="43.85152831138906" lon="12.789428018757945"><ele>39.333333333333336</ele><time>2026-05-01T07:26:17Z</time></trkpt><trkpt lat="43.85146770737367" lon="12.7891640502247"><ele>40.0</ele><time>2026-05-01T07:26:18Z</time></trkpt><trkpt lat="43.85140781600943" lon="12.788913404858596"><ele>40.333333333333336</ele><time>2026-05-01T07:26:19Z</time></trkpt><trkpt lat="43.85135284525073" lon="12.788678056688981"><ele>40.666666666666664</ele><time>2026-05-01T07:26:20Z</time></trkpt><trkpt lat="43.85129486433707" lon="12.788466108790937"><ele>41.0</ele><time>2026-05-01T07:26:21Z</time></trkpt><trkpt lat="43.851238822247986" lon="12.788279363132862"><ele>41.0</ele><time>2026-05-01T07:26:22Z</time></trkpt><trkpt lat="43.851180587961814" lon="12.788113641184083"><ele>41.0</ele><time>2026-05-01T07:26:23Z</time></trkpt><trkpt lat="43.85113201795873" lon="12.787961550422994"><ele>41.0</ele><time>2026-05-01T07:26:24Z</time></trkpt><trkpt lat="43.85112616388949" lon="12.787813925841922"><ele>41.0</ele><time>2026-05-01T07:26:24.999Z</time></trkpt><trkpt lat="43.851140667867206" lon="12.787669567254618"><ele>40.25</ele><time>2026-05-01T07:26:25.999Z</time></trkpt><trkpt lat="43.8511755288796" lon="12.787536450980141"><ele>39.5</ele><time>2026-05-01T07:26:26.999Z</time></trkpt><trkpt lat="43.851247952967114" lon="12.787427538171553"><ele>38.75</ele><time>2026-05-01T07:26:27.999Z</time></trkpt><trkpt lat="43.85134929514898" lon="12.787331896483211"><ele>38.0</ele><time>2026-05-01T07:26:28.999Z</time></trkpt><trkpt lat="43.851454479702895" lon="12.787222929439995"><ele>38.0</ele><time>2026-05-01T07:26:29.999Z</time></trkpt><trkpt lat="43.85156174787179" lon="12.787105802483143"><ele>38.0</ele><time>2026-05-01T07:26:30.999Z</time></trkpt><trkpt lat="43.85167996843358" lon="12.78698438649438"><ele>38.0</ele><time>2026-05-01T07:26:31.999Z</time></trkpt><trkpt lat="43.851802378491904" lon="12.786853625788359"><ele>38.0</ele><time>2026-05-01T07:26:32.999Z</time></trkpt><trkpt lat="43.85192735482848" lon="12.786715513877798"><ele>38.666666666666664</ele><time>2026-05-01T07:26:33.999Z</time></trkpt><trkpt lat="43.85205902714561" lon="12.786572624219275"><ele>39.333333333333336</ele><time>2026-05-01T07:26:34.999Z</time></trkpt><trkpt lat="43.85219339916054" lon="12.786422687989674"><ele>40.0</ele><time>2026-05-01T07:26:35.999Z</time></trkpt><trkpt lat="43.85232778505043" lon="12.786264607582043"><ele>40.0</ele><time>2026-05-01T07:26:36.999Z</time></trkpt><trkpt lat="43.85245379559582" lon="12.786104811066824"><ele>40.0</ele><time>2026-05-01T07:26:37.999Z</time></trkpt><trkpt lat="43.852572772069635" lon="12.785927151512363"><ele>40.0</ele><time>2026-05-01T07:26:38.999Z</time></trkpt><trkpt lat="43.85268924935048" lon="12.785737243748049"><ele>40.66666666666667</ele><time>2026-05-01T07:26:39.999Z</time></trkpt><trkpt lat="43.85280576581314" lon="12.785541613744307"><ele>41.333333333333336</ele><time>2026-05-01T07:26:40.999Z</time></trkpt><trkpt lat="43.85292511212743" lon="12.785344850545973"><ele>42.0</ele><time>2026-05-01T07:26:41.999Z</time></trkpt><trkpt lat="43.85317448617646" lon="12.784946006229742"><ele>42.0</ele><time>2026-05-01T07:26:43.999Z</time></trkpt><trkpt lat="43.85329704150291" lon="12.784743072321591"><ele>42.0</ele><time>2026-05-01T07:26:44.999Z</time></trkpt><trkpt lat="43.85341796498721" lon="12.784534888409455"><ele>42.0</ele><time>2026-05-01T07:26:45.999Z</time></trkpt><trkpt lat="43.85353183302959" lon="12.78433452830043"><ele>43.333333333333336</ele><time>2026-05-01T07:26:46.999Z</time></trkpt><trkpt lat="43.853643005021844" lon="12.784140936235943"><ele>44.66666666666667</ele><time>2026-05-01T07:26:47.999Z</time></trkpt><trkpt lat="43.853755556905284" lon="12.783953831287537"><ele>46.0</ele><time>2026-05-01T07:26:48.999Z</time></trkpt><trkpt lat="43.853870144051704" lon="12.783765351752882"><ele>46.0</ele><time>2026-05-01T07:26:49.999Z</time></trkpt><trkpt lat="43.853986285167565" lon="12.783580821722454"><ele>46.0</ele><time>2026-05-01T07:26:50.999Z</time></trkpt><trkpt lat="43.85409643707831" lon="12.783400180954493"><ele>46.0</ele><time>2026-05-01T07:26:51.999Z</time></trkpt><trkpt lat="43.85419368555942" lon="12.783232760007742"><ele>46.0</ele><time>2026-05-01T07:26:52.999Z</time></trkpt><trkpt lat="43.85428352645519" lon="12.783076625032253"><ele>46.0</ele><time>2026-05-01T07:26:53.999Z</time></trkpt><trkpt lat="43.85436641847009" lon="12.782933397527307"><ele>46.0</ele><time>2026-05-01T07:26:54.999Z</time></trkpt><trkpt lat="43.85444430393721" lon="12.782801623669492"><ele>46.0</ele><time>2026-05-01T07:26:55.999Z</time></trkpt><trkpt lat="43.854513620370554" lon="12.782686497299041"><ele>45.833333333333336</ele><time>2026-05-01T07:26:56.999Z</time></trkpt><trkpt lat="43.85457854763904" lon="12.782591951473128"><ele>45.66666666666667</ele><time>2026-05-01T07:26:57.999Z</time></trkpt><trkpt lat="43.85464741993398" lon="12.78252233895063"><ele>45.5</ele><time>2026-05-01T07:26:58.999Z</time></trkpt><trkpt lat="43.85472290566658" lon="12.782491128046722"><ele>45.333333333333336</ele><time>2026-05-01T07:26:59.999Z</time></trkpt><trkpt lat="43.854785668353124" lon="12.782450216285493"><ele>45.166666666666664</ele><time>2026-05-01T07:27:00.999Z</time></trkpt><trkpt lat="43.85482869585756" lon="12.782368725342375"><ele>45.0</ele><time>2026-05-01T07:27:01.999Z</time></trkpt><trkpt lat="43.854860121995934" lon="12.782256276198007"><ele>45.0</ele><time>2026-05-01T07:27:02.999Z</time></trkpt><trkpt lat="43.854893295630966" lon="12.782134753310743"><ele>45.0</ele><time>2026-05-01T07:27:03.999Z</time></trkpt><trkpt lat="43.854929098817856" lon="12.782009313944277"><ele>45.0</ele><time>2026-05-01T07:27:04.999Z</time></trkpt><trkpt lat="43.85496463028306" lon="12.781884808432462"><ele>45.0</ele><time>2026-05-01T07:27:05.999Z</time></trkpt><trkpt lat="43.85500224939013" lon="12.78175980329377"><ele>45.0</ele><time>2026-05-01T07:27:06.999Z</time></trkpt><trkpt lat="43.85503557359807" lon="12.781620984216637"><ele>45.0</ele><time>2026-05-01T07:27:07.999Z</time></trkpt><trkpt lat="43.855057266725375" lon="12.781462351323045"><ele>45.0</ele><time>2026-05-01T07:27:08.999Z</time></trkpt><trkpt lat="43.85506715853525" lon="12.781291172628679"><ele>45.0</ele><time>2026-05-01T07:27:09.999Z</time></trkpt><trkpt lat="43.85506501655831" lon="12.781116198782517"><ele>45.0</ele><time>2026-05-01T07:27:10.999Z</time></trkpt><trkpt lat="43.855056579306044" lon="12.780934168315813"><ele>45.25</ele><time>2026-05-01T07:27:11.999Z</time></trkpt><trkpt lat="43.8550477551866" lon="12.780750547485187"><ele>45.5</ele><time>2026-05-01T07:27:12.999Z</time></trkpt><trkpt lat="43.85503702376951" lon="12.780561310116807"><ele>45.75</ele><time>2026-05-01T07:27:13.999Z</time></trkpt><trkpt lat="43.85502391421833" lon="12.780366287300968"><ele>46.0</ele><time>2026-05-01T07:27:14.999Z</time></trkpt><trkpt lat="43.85500929184187" lon="12.78016801871594"><ele>46.0</ele><time>2026-05-01T07:27:15.999Z</time></trkpt><trkpt lat="43.85498880679472" lon="12.77996024423969"><ele>46.0</ele><time>2026-05-01T07:27:16.999Z</time></trkpt><trkpt lat="43.854964958485326" lon="12.779745878161776"><ele>46.0</ele><time>2026-05-01T07:27:17.999Z</time></trkpt><trkpt lat="43.854937453820774" lon="12.779521432791583"><ele>46.0</ele><time>2026-05-01T07:27:18.999Z</time></trkpt><trkpt lat="43.85491500434046" lon="12.779288729810522"><ele>46.0</ele><time>2026-05-01T07:27:19.999Z</time></trkpt><trkpt lat="43.85489244797146" lon="12.779054470935897"><ele>46.0</ele><time>2026-05-01T07:27:20.999Z</time></trkpt><trkpt lat="43.85499030316234" lon="12.778799585424855"><ele>46.0</ele><time>2026-05-01T07:27:22.999Z</time></trkpt><trkpt lat="43.85504263097252" lon="12.778622739987473"><ele>46.0</ele><time>2026-05-01T07:27:23.999Z</time></trkpt><trkpt lat="43.85510065846393" lon="12.778441129840884"><ele>46.0</ele><time>2026-05-01T07:27:24.999Z</time></trkpt><trkpt lat="43.85516457019494" lon="12.77826231041802"><ele>46.0</ele><time>2026-05-01T07:27:25.999Z</time></trkpt><trkpt lat="43.85523825277996" lon="12.778092373624554"><ele>46.0</ele><time>2026-05-01T07:27:26.999Z</time></trkpt><trkpt lat="43.855319034841045" lon="12.7779322041954"><ele>46.0</ele><time>2026-05-01T07:27:27.998Z</time></trkpt><trkpt lat="43.85540065293771" lon="12.77777676863885"><ele>46.0</ele><time>2026-05-01T07:27:28.998Z</time></trkpt><trkpt lat="43.855485732192925" lon="12.777619198802013"><ele>46.0</ele><time>2026-05-01T07:27:29.998Z</time></trkpt><trkpt lat="43.85557086781956" lon="12.77746025952517"><ele>46.0</ele><time>2026-05-01T07:27:30.998Z</time></trkpt><trkpt lat="43.855652292066964" lon="12.777294199441535"><ele>46.0</ele><time>2026-05-01T07:27:31.998Z</time></trkpt><trkpt lat="43.85573341414873" lon="12.77712661802133"><ele>46.0</ele><time>2026-05-01T07:27:32.998Z</time></trkpt><trkpt lat="43.85581448567849" lon="12.77695763062692"><ele>46.0</ele><time>2026-05-01T07:27:33.998Z</time></trkpt><trkpt lat="43.8558969361034" lon="12.776787193685609"><ele>45.75</ele><time>2026-05-01T07:27:34.998Z</time></trkpt><trkpt lat="43.85597349415707" lon="12.776628389450774"><ele>45.5</ele><time>2026-05-01T07:27:35.998Z</time></trkpt><trkpt lat="43.85604407460277" lon="12.776479745288528"><ele>45.25</ele><time>2026-05-01T07:27:36.998Z</time></trkpt><trkpt lat="43.85610851287064" lon="12.77634560227693"><ele>45.0</ele><time>2026-05-01T07:27:37.998Z</time></trkpt><trkpt lat="43.85616964894589" lon="12.776214421599938"><ele>45.0</ele><time>2026-05-01T07:27:38.998Z</time></trkpt><trkpt lat="43.856232863870304" lon="12.77608742487609"><ele>45.0</ele><time>2026-05-01T07:27:39.998Z</time></trkpt><trkpt lat="43.85630870052343" lon="12.775969812209238"><ele>45.0</ele><time>2026-05-01T07:27:40.998Z</time></trkpt><trkpt lat="43.85640281994121" lon="12.775880807341338"><ele>45.0</ele><time>2026-05-01T07:27:41.998Z</time></trkpt><trkpt lat="43.85649656379845" lon="12.775812102529908"><ele>45.0</ele><time>2026-05-01T07:27:42.998Z</time></trkpt><trkpt lat="43.85659654303634" lon="12.775758801496556"><ele>45.2</ele><time>2026-05-01T07:27:43.998Z</time></trkpt><trkpt lat="43.85667989013249" lon="12.775685012055261"><ele>45.4</ele><time>2026-05-01T07:27:44.998Z</time></trkpt><trkpt lat="43.856737394885435" lon="12.77558561408132"><ele>45.599999999999994</ele><time>2026-05-01T07:27:45.998Z</time></trkpt><trkpt lat="43.856766761753754" lon="12.77545689946791"><ele>45.8</ele><time>2026-05-01T07:27:46.998Z</time></trkpt><trkpt lat="43.856796694876984" lon="12.77530657578486"><ele>46.0</ele><time>2026-05-01T07:27:47.998Z</time></trkpt><trkpt lat="43.85684055731766" lon="12.775147097908782"><ele>46.25</ele><time>2026-05-01T07:27:48.998Z</time></trkpt><trkpt lat="43.856907458377336" lon="12.774982932233883"><ele>46.5</ele><time>2026-05-01T07:27:49.998Z</time></trkpt><trkpt lat="43.85699404033174" lon="12.774835632674135"><ele>46.75</ele><time>2026-05-01T07:27:50.998Z</time></trkpt><trkpt lat="43.85709902187977" lon="12.774694599951216"><ele>47.0</ele><time>2026-05-01T07:27:51.998Z</time></trkpt><trkpt lat="43.857207272573845" lon="12.774556562058358"><ele>47.0</ele><time>2026-05-01T07:27:52.998Z</time></trkpt><trkpt lat="43.85731107234269" lon="12.774418684172732"><ele>47.0</ele><time>2026-05-01T07:27:53.998Z</time></trkpt><trkpt lat="43.85741375343131" lon="12.77428334984276"><ele>47.0</ele><time>2026-05-01T07:27:54.998Z</time></trkpt><trkpt lat="43.85751950507076" lon="12.77414427439629"><ele>47.0</ele><time>2026-05-01T07:27:55.998Z</time></trkpt><trkpt lat="43.85762547721816" lon="12.774008482449805"><ele>47.25</ele><time>2026-05-01T07:27:56.998Z</time></trkpt><trkpt lat="43.85773512903462" lon="12.773870778072176"><ele>47.5</ele><time>2026-05-01T07:27:57.998Z</time></trkpt><trkpt lat="43.857847618366876" lon="12.773730821724872"><ele>47.75</ele><time>2026-05-01T07:27:58.998Z</time></trkpt><trkpt lat="43.857958642185196" lon="12.773590670723374"><ele>48.0</ele><time>2026-05-01T07:27:59.998Z</time></trkpt><trkpt lat="43.858068589005356" lon="12.77345121046487"><ele>48.0</ele><time>2026-05-01T07:28:00.999Z</time></trkpt><trkpt lat="43.85817758670559" lon="12.773315513236309"><ele>48.0</ele><time>2026-05-01T07:28:01.999Z</time></trkpt><trkpt lat="43.85827959460942" lon="12.773184038458837"><ele>48.0</ele><time>2026-05-01T07:28:02.999Z</time></trkpt><trkpt lat="43.85837739641429" lon="12.77305278991208"><ele>48.0</ele><time>2026-05-01T07:28:03.999Z</time></trkpt><trkpt lat="43.858475883911936" lon="12.772929642044966"><ele>48.0</ele><time>2026-05-01T07:28:04.999Z</time></trkpt><trkpt lat="43.85857088261266" lon="12.772804553299649"><ele>48.0</ele><time>2026-05-01T07:28:05.999Z</time></trkpt><trkpt lat="43.85866944843912" lon="12.772685406211576"><ele>48.0</ele><time>2026-05-01T07:28:06.999Z</time></trkpt><trkpt lat="43.85875721562739" lon="12.772580534209176"><ele>48.0</ele><time>2026-05-01T07:28:07.999Z</time></trkpt><trkpt lat="43.858834932226415" lon="12.772482291507808"><ele>48.333333333333336</ele><time>2026-05-01T07:28:08.999Z</time></trkpt><trkpt lat="43.85891949050147" lon="12.772387097080445"><ele>48.66666666666667</ele><time>2026-05-01T07:28:09.999Z</time></trkpt><trkpt lat="43.85898667992375" lon="12.772318582987072"><ele>49.0</ele><time>2026-05-01T07:28:10.999Z</time></trkpt><trkpt lat="43.859066161020735" lon="12.7722402310809"><ele>49.333333333333336</ele><time>2026-05-01T07:28:12.999Z</time></trkpt><trkpt lat="43.85913587224911" lon="12.772171638230388"><ele>49.66666666666667</ele><time>2026-05-01T07:28:14.999Z</time></trkpt><trkpt lat="43.859176624815134" lon="12.772101418585908"><ele>50.0</ele><time>2026-05-01T07:28:15.999Z</time></trkpt><trkpt lat="43.85922730886309" lon="12.772013517131322"><ele>50.2</ele><time>2026-05-01T07:28:16.999Z</time></trkpt><trkpt lat="43.85929077459503" lon="12.771921393446574"><ele>50.4</ele><time>2026-05-01T07:28:17.999Z</time></trkpt><trkpt lat="43.859348539878546" lon="12.771835816361902"><ele>50.599999999999994</ele><time>2026-05-01T07:28:18.999Z</time></trkpt><trkpt lat="43.859420741721046" lon="12.771735936350863"><ele>50.8</ele><time>2026-05-01T07:28:19.999Z</time></trkpt><trkpt lat="43.85950270288989" lon="12.771628977356407"><ele>51.0</ele><time>2026-05-01T07:28:20.999Z</time></trkpt><trkpt lat="43.85959249564963" lon="12.771510385779187"><ele>50.5</ele><time>2026-05-01T07:28:21.999Z</time></trkpt><trkpt lat="43.85967481176654" lon="12.771399489764141"><ele>50.0</ele><time>2026-05-01T07:28:22.999Z</time></trkpt><trkpt lat="43.85976537256792" lon="12.771284337557477"><ele>49.5</ele><time>2026-05-01T07:28:23.999Z</time></trkpt><trkpt lat="43.85986261614521" lon="12.771159735922739"><ele>49.0</ele><time>2026-05-01T07:28:24.999Z</time></trkpt><trkpt lat="43.8599612501794" lon="12.771033380838114"><ele>49.5</ele><time>2026-05-01T07:28:25.999Z</time></trkpt><trkpt lat="43.86005939872202" lon="12.770906999243376"><ele>50.0</ele><time>2026-05-01T07:28:26.999Z</time></trkpt><trkpt lat="43.860156911345896" lon="12.770782581871174"><ele>50.5</ele><time>2026-05-01T07:28:27.999Z</time></trkpt><trkpt lat="43.860245825195626" lon="12.77067201375857"><ele>51.0</ele><time>2026-05-01T07:28:28.999Z</time></trkpt><trkpt lat="43.860329676866215" lon="12.77056750288287"><ele>52.0</ele><time>2026-05-01T07:28:29.999Z</time></trkpt><trkpt lat="43.860412208543124" lon="12.77046665219911"><ele>53.0</ele><time>2026-05-01T07:28:30.999Z</time></trkpt><trkpt lat="43.86049116133731" lon="12.770375730260245"><ele>53.99999999999999</ele><time>2026-05-01T07:28:31.999Z</time></trkpt><trkpt lat="43.860568024586115" lon="12.770310209779794"><ele>55.0</ele><time>2026-05-01T07:28:32.999Z</time></trkpt><trkpt lat="43.860644174971775" lon="12.770267813992517"><ele>56.0</ele><time>2026-05-01T07:28:33.999Z</time></trkpt><trkpt lat="43.86072554554729" lon="12.770255036372852"><ele>56.00000000000001</ele><time>2026-05-01T07:28:34.999Z</time></trkpt><trkpt lat="43.86080398049431" lon="12.770255753528685"><ele>56.0</ele><time>2026-05-01T07:28:35.999Z</time></trkpt><trkpt lat="43.86086888816595" lon="12.77023501190312"><ele>56.0</ele><time>2026-05-01T07:28:36.999Z</time></trkpt><trkpt lat="43.86093781008839" lon="12.770097775069367"><ele>56.0</ele><time>2026-05-01T07:28:38.999Z</time></trkpt><trkpt lat="43.86092234964782" lon="12.769943890654007"><ele>56.00000000000001</ele><time>2026-05-01T07:28:40.999Z</time></trkpt><trkpt lat="43.86087900184411" lon="12.769876230263336"><ele>56.0</ele><time>2026-05-01T07:28:41.999Z</time></trkpt><trkpt lat="43.86081682502645" lon="12.769802501633926"><ele>56.599999999999994</ele><time>2026-05-01T07:28:42.999Z</time></trkpt><trkpt lat="43.86077177477683" lon="12.7696975703142"><ele>57.199999999999996</ele><time>2026-05-01T07:28:43.999Z</time></trkpt><trkpt lat="43.860741749529524" lon="12.769574385419531"><ele>57.800000000000004</ele><time>2026-05-01T07:28:44.999Z</time></trkpt><trkpt lat="43.86071309387427" lon="12.76944371234621"><ele>58.400000000000006</ele><time>2026-05-01T07:28:45.999Z</time></trkpt><trkpt lat="43.860666158768744" lon="12.769302401188892"><ele>59.0</ele><time>2026-05-01T07:28:46.999Z</time></trkpt><trkpt lat="43.860602848525446" lon="12.76917417578524"><ele>59.5</ele><time>2026-05-01T07:28:47.999Z</time></trkpt><trkpt lat="43.860538509488514" lon="12.76905501613109"><ele>60.0</ele><time>2026-05-01T07:28:48.999Z</time></trkpt><trkpt lat="43.86047669018316" lon="12.768934933744982"><ele>60.5</ele><time>2026-05-01T07:28:49.999Z</time></trkpt><trkpt lat="43.8604047894241" lon="12.768802571801045"><ele>61.0</ele><time>2026-05-01T07:28:50.999Z</time></trkpt><trkpt lat="43.86032766049863" lon="12.768663553364117"><ele>61.0</ele><time>2026-05-01T07:28:51.999Z</time></trkpt><trkpt lat="43.860251806383005" lon="12.768526373196496"><ele>61.0</ele><time>2026-05-01T07:28:52.999Z</time></trkpt><trkpt lat="43.86017741903963" lon="12.768393263983633"><ele>61.0</ele><time>2026-05-01T07:28:53.999Z</time></trkpt><trkpt lat="43.86010550209377" lon="12.768271768736023"><ele>61.0</ele><time>2026-05-01T07:28:54.999Z</time></trkpt><trkpt lat="43.8600380831031" lon="12.768159888169565"><ele>59.99999999999999</ele><time>2026-05-01T07:28:55.999Z</time></trkpt><trkpt lat="43.859979267868376" lon="12.768062401185471"><ele>59.0</ele><time>2026-05-01T07:28:56.999Z</time></trkpt><trkpt lat="43.85992944584515" lon="12.767984219782562"><ele>58.0</ele><time>2026-05-01T07:28:57.999Z</time></trkpt><trkpt lat="43.85988542239569" lon="12.767904727144177"><ele>57.0</ele><time>2026-05-01T07:28:58.999Z</time></trkpt><trkpt lat="43.85985072024801" lon="12.767831068070786"><ele>55.99999999999999</ele><time>2026-05-01T07:28:59.999Z</time></trkpt><trkpt lat="43.859812269758486" lon="12.767761502231215"><ele>55.0</ele><time>2026-05-01T07:29:00.999Z</time></trkpt><trkpt lat="43.85976069247579" lon="12.76766713561316"><ele>55.0</ele><time>2026-05-01T07:29:02.999Z</time></trkpt><trkpt lat="43.85972446315034" lon="12.76758724802906"><ele>55.0</ele><time>2026-05-01T07:29:04.999Z</time></trkpt><trkpt lat="43.85963032784451" lon="12.76746329938826"><ele>55.0</ele><time>2026-05-01T07:29:06.999Z</time></trkpt><trkpt lat="43.859526212066" lon="12.767414881704195"><ele>55.0</ele><time>2026-05-01T07:29:07.999Z</time></trkpt><trkpt lat="43.85941356787744" lon="12.7673377994434"><ele>55.0</ele><time>2026-05-01T07:29:08.999Z</time></trkpt><trkpt lat="43.85930614225855" lon="12.767274742056934"><ele>54.5</ele><time>2026-05-01T07:29:09.999Z</time></trkpt><trkpt lat="43.85919773867184" lon="12.767227514421423"><ele>54.0</ele><time>2026-05-01T07:29:10.999Z</time></trkpt><trkpt lat="43.85907985067086" lon="12.76718074889694"><ele>53.5</ele><time>2026-05-01T07:29:11.999Z</time></trkpt><trkpt lat="43.8589662598533" lon="12.76713042274866"><ele>53.0</ele><time>2026-05-01T07:29:12.999Z</time></trkpt><trkpt lat="43.85885631040758" lon="12.767070538816418"><ele>53.0</ele><time>2026-05-01T07:29:13.999Z</time></trkpt><trkpt lat="43.85874023949805" lon="12.766997414969326"><ele>53.0</ele><time>2026-05-01T07:29:14.999Z</time></trkpt><trkpt lat="43.85862757053731" lon="12.76690699159104"><ele>53.0</ele><time>2026-05-01T07:29:15.999Z</time></trkpt><trkpt lat="43.858525325191124" lon="12.766818791110786"><ele>53.0</ele><time>2026-05-01T07:29:16.999Z</time></trkpt><trkpt lat="43.858428143247735" lon="12.766730769321054"><ele>53.0</ele><time>2026-05-01T07:29:17.999Z</time></trkpt><trkpt lat="43.85832444767358" lon="12.766645929689464"><ele>53.0</ele><time>2026-05-01T07:29:18.999Z</time></trkpt><trkpt lat="43.85822467193475" lon="12.766546971349626"><ele>53.0</ele><time>2026-05-01T07:29:19.999Z</time></trkpt><trkpt lat="43.85813656864466" lon="12.766422474341168"><ele>53.0</ele><time>2026-05-01T07:29:20.999Z</time></trkpt><trkpt lat="43.858052661464434" lon="12.766291146084173"><ele>53.0</ele><time>2026-05-01T07:29:21.999Z</time></trkpt><trkpt lat="43.85796445592818" lon="12.766164143708028"><ele>53.0</ele><time>2026-05-01T07:29:22.999Z</time></trkpt><trkpt lat="43.857886475915144" lon="12.766042237921937"><ele>53.0</ele><time>2026-05-01T07:29:23.999Z</time></trkpt><trkpt lat="43.85781226590901" lon="12.765930838133261"><ele>53.0</ele><time>2026-05-01T07:29:24.999Z</time></trkpt><trkpt lat="43.85774473972767" lon="12.765822030172806"><ele>53.4</ele><time>2026-05-01T07:29:25.999Z</time></trkpt><trkpt lat="43.85767936504443" lon="12.765717070209444"><ele>53.8</ele><time>2026-05-01T07:29:26.999Z</time></trkpt><trkpt lat="43.85761145643404" lon="12.76561464026327"><ele>54.2</ele><time>2026-05-01T07:29:27.999Z</time></trkpt><trkpt lat="43.85754258552302" lon="12.76551148142598"><ele>54.6</ele><time>2026-05-01T07:29:28.999Z</time></trkpt><trkpt lat="43.8574713779773" lon="12.765403904044117"><ele>55.0</ele><time>2026-05-01T07:29:29.999Z</time></trkpt><trkpt lat="43.857399091697204" lon="12.765294647879001"><ele>56.6</ele><time>2026-05-01T07:29:30.999Z</time></trkpt><trkpt lat="43.85733278303673" lon="12.765174895483952"><ele>58.2</ele><time>2026-05-01T07:29:31.999Z</time></trkpt><trkpt lat="43.85726320262366" lon="12.765055755626438"><ele>59.8</ele><time>2026-05-01T07:29:32.999Z</time></trkpt><trkpt lat="43.85719431481795" lon="12.764931706342379"><ele>61.4</ele><time>2026-05-01T07:29:33.999Z</time></trkpt><trkpt lat="43.85712710418828" lon="12.764811493224583"><ele>63.0</ele><time>2026-05-01T07:29:34.999Z</time></trkpt><trkpt lat="43.85707140776781" lon="12.76470406289367"><ele>63.0</ele><time>2026-05-01T07:29:35.998Z</time></trkpt><trkpt lat="43.85702634488744" lon="12.764597572822403"><ele>63.0</ele><time>2026-05-01T07:29:36.998Z</time></trkpt><trkpt lat="43.85699548698293" lon="12.764486401070297"><ele>63.0</ele><time>2026-05-01T07:29:37.998Z</time></trkpt><trkpt lat="43.856966763663614" lon="12.764367905761674"><ele>63.0</ele><time>2026-05-01T07:29:38.998Z</time></trkpt><trkpt lat="43.85691415264839" lon="12.764256475864"><ele>63.0</ele><time>2026-05-01T07:29:39.998Z</time></trkpt><trkpt lat="43.85684079460828" lon="12.764156878875989"><ele>61.5</ele><time>2026-05-01T07:29:40.998Z</time></trkpt><trkpt lat="43.85677283347553" lon="12.764034229733277"><ele>60.0</ele><time>2026-05-01T07:29:41.998Z</time></trkpt><trkpt lat="43.85673560050542" lon="12.763881290786156"><ele>58.5</ele><time>2026-05-01T07:29:42.998Z</time></trkpt><trkpt lat="43.85669995337497" lon="12.763724209387803"><ele>57.0</ele><time>2026-05-01T07:29:43.998Z</time></trkpt><trkpt lat="43.856652963342015" lon="12.763561766706692"><ele>58.0</ele><time>2026-05-01T07:29:44.998Z</time></trkpt><trkpt lat="43.856605099502325" lon="12.763393200466433"><ele>59.0</ele><time>2026-05-01T07:29:45.998Z</time></trkpt><trkpt lat="43.85655570649363" lon="12.763216300612383"><ele>60.0</ele><time>2026-05-01T07:29:46.998Z</time></trkpt><trkpt lat="43.8565058390393" lon="12.763036111762094"><ele>61.0</ele><time>2026-05-01T07:29:47.998Z</time></trkpt><trkpt lat="43.85645615899389" lon="12.76284687487283"><ele>63.33333333333333</ele><time>2026-05-01T07:29:48.998Z</time></trkpt><trkpt lat="43.85640212087716" lon="12.7626510564389"><ele>65.66666666666667</ele><time>2026-05-01T07:29:49.998Z</time></trkpt><trkpt lat="43.85635004626093" lon="12.762453977524238"><ele>68.0</ele><time>2026-05-01T07:29:50.998Z</time></trkpt><trkpt lat="43.85629370961008" lon="12.762256889513335"><ele>68.0</ele><time>2026-05-01T07:29:51.998Z</time></trkpt><trkpt lat="43.85623817681736" lon="12.762071928191512"><ele>68.0</ele><time>2026-05-01T07:29:52.998Z</time></trkpt><trkpt lat="43.85618555549651" lon="12.761889623001235"><ele>68.0</ele><time>2026-05-01T07:29:53.998Z</time></trkpt><trkpt lat="43.8561310153057" lon="12.761700190148545"><ele>68.0</ele><time>2026-05-01T07:29:54.998Z</time></trkpt><trkpt lat="43.856069126227176" lon="12.761509531792628"><ele>71.0</ele><time>2026-05-01T07:29:55.998Z</time></trkpt><trkpt lat="43.856003237621174" lon="12.76131812634085"><ele>74.0</ele><time>2026-05-01T07:29:56.998Z</time></trkpt><trkpt lat="43.85593472500962" lon="12.761124314177355"><ele>77.0</ele><time>2026-05-01T07:29:57.998Z</time></trkpt><trkpt lat="43.855865627748784" lon="12.760924813930746"><ele>70.66666666666667</ele><time>2026-05-01T07:29:58.998Z</time></trkpt><trkpt lat="43.85579657314133" lon="12.760727599872462"><ele>64.33333333333333</ele><time>2026-05-01T07:29:59.998Z</time></trkpt><trkpt lat="43.85572960054319" lon="12.760527178640501"><ele>58.0</ele><time>2026-05-01T07:30:00.998Z</time></trkpt><trkpt lat="43.85567209158607" lon="12.760322059215877"><ele>60.666666666666664</ele><time>2026-05-01T07:30:01.998Z</time></trkpt><trkpt lat="43.855620525367165" lon="12.760112627982028"><ele>63.33333333333333</ele><time>2026-05-01T07:30:02.998Z</time></trkpt><trkpt lat="43.85557815235165" lon="12.759901334240553"><ele>66.0</ele><time>2026-05-01T07:30:03.998Z</time></trkpt><trkpt lat="43.855545820350535" lon="12.75968946153947"><ele>66.0</ele><time>2026-05-01T07:30:04.998Z</time></trkpt><trkpt lat="43.85552692612278" lon="12.759475876486512"><ele>66.0</ele><time>2026-05-01T07:30:05.998Z</time></trkpt><trkpt lat="43.85551111785124" lon="12.759264092984246"><ele>66.0</ele><time>2026-05-01T07:30:06.999Z</time></trkpt><trkpt lat="43.85550070607628" lon="12.759062879601945"><ele>67.75</ele><time>2026-05-01T07:30:07.999Z</time></trkpt><trkpt lat="43.85549133750377" lon="12.758876405708145"><ele>69.5</ele><time>2026-05-01T07:30:08.999Z</time></trkpt><trkpt lat="43.8554889016797" lon="12.758690565741725"><ele>71.25</ele><time>2026-05-01T07:30:09.999Z</time></trkpt><trkpt lat="43.85549648779073" lon="12.758506882390725"><ele>73.0</ele><time>2026-05-01T07:30:10.999Z</time></trkpt><trkpt lat="43.85551323914357" lon="12.758325679339464"><ele>72.75</ele><time>2026-05-01T07:30:11.999Z</time></trkpt><trkpt lat="43.85552744373168" lon="12.75814040432878"><ele>72.5</ele><time>2026-05-01T07:30:12.999Z</time></trkpt><trkpt lat="43.85554183113064" lon="12.75794676576251"><ele>72.25</ele><time>2026-05-01T07:30:13.999Z</time></trkpt><trkpt lat="43.85554514832807" lon="12.75775018329014"><ele>72.0</ele><time>2026-05-01T07:30:14.999Z</time></trkpt><trkpt lat="43.85551848213602" lon="12.75734772962004"><ele>72.0</ele><time>2026-05-01T07:30:16.999Z</time></trkpt><trkpt lat="43.85548683169607" lon="12.757145859285396"><ele>72.0</ele><time>2026-05-01T07:30:17.999Z</time></trkpt><trkpt lat="43.85544542798806" lon="12.75694771914908"><ele>72.0</ele><time>2026-05-01T07:30:18.999Z</time></trkpt><trkpt lat="43.85539933829927" lon="12.756754850057463"><ele>72.0</ele><time>2026-05-01T07:30:19.999Z</time></trkpt><trkpt lat="43.85535517598787" lon="12.756570759355581"><ele>73.25</ele><time>2026-05-01T07:30:20.999Z</time></trkpt><trkpt lat="43.85531435093658" lon="12.756393457193582"><ele>74.5</ele><time>2026-05-01T07:30:21.999Z</time></trkpt><trkpt lat="43.855274295206826" lon="12.756219851037287"><ele>75.75</ele><time>2026-05-01T07:30:22.999Z</time></trkpt><trkpt lat="43.85523444435141" lon="12.756050792228804"><ele>77.0</ele><time>2026-05-01T07:30:23.999Z</time></trkpt><trkpt lat="43.85519665996672" lon="12.755889184373427"><ele>79.0</ele><time>2026-05-01T07:30:24.999Z</time></trkpt><trkpt lat="43.855155174007145" lon="12.75572215124524"><ele>81.0</ele><time>2026-05-01T07:30:25.999Z</time></trkpt><trkpt lat="43.85511376253585" lon="12.755551810445967"><ele>83.0</ele><time>2026-05-01T07:30:26.999Z</time></trkpt><trkpt lat="43.8550714951437" lon="12.755375944695583"><ele>85.0</ele><time>2026-05-01T07:30:27.999Z</time></trkpt><trkpt lat="43.855032118023324" lon="12.75521305291059"><ele>79.2</ele><time>2026-05-01T07:30:28.999Z</time></trkpt><trkpt lat="43.85499502016714" lon="12.755058981379044"><ele>73.4</ele><time>2026-05-01T07:30:29.999Z</time></trkpt><trkpt lat="43.85495915621611" lon="12.75491372107194"><ele>67.6</ele><time>2026-05-01T07:30:30.999Z</time></trkpt><trkpt lat="43.85493224538127" lon="12.754788597218266"><ele>61.8</ele><time>2026-05-01T07:30:31.999Z</time></trkpt><trkpt lat="43.85490518319446" lon="12.754683850331201"><ele>56.0</ele><time>2026-05-01T07:30:32.999Z</time></trkpt><trkpt lat="43.85488262586096" lon="12.754582144775956"><ele>56.00000000000001</ele><time>2026-05-01T07:30:33.999Z</time></trkpt><trkpt lat="43.85486331642688" lon="12.75449902414533"><ele>56.0</ele><time>2026-05-01T07:30:34.999Z</time></trkpt><trkpt lat="43.85482868381281" lon="12.754321038394155"><ele>56.0</ele><time>2026-05-01T07:30:36.999Z</time></trkpt><trkpt lat="43.85480831565353" lon="12.754213279590683"><ele>56.0</ele><time>2026-05-01T07:30:37.999Z</time></trkpt><trkpt lat="43.85478620870516" lon="12.754099246964238"><ele>56.00000000000001</ele><time>2026-05-01T07:30:38.999Z</time></trkpt><trkpt lat="43.854761363533136" lon="12.753982476002045"><ele>56.0</ele><time>2026-05-01T07:30:39.999Z</time></trkpt><trkpt lat="43.85473778842376" lon="12.753861626027026"><ele>56.0</ele><time>2026-05-01T07:30:40.999Z</time></trkpt><trkpt lat="43.854716617355706" lon="12.753734069881913"><ele>55.99999999999999</ele><time>2026-05-01T07:30:41.999Z</time></trkpt><trkpt lat="43.85469206833581" lon="12.753604979885003"><ele>55.99999999999999</ele><time>2026-05-01T07:30:42.999Z</time></trkpt><trkpt lat="43.85466534934915" lon="12.753471389124826"><ele>56.0</ele><time>2026-05-01T07:30:43.999Z</time></trkpt><trkpt lat="43.85463535421005" lon="12.753331259643417"><ele>56.0</ele><time>2026-05-01T07:30:44.999Z</time></trkpt><trkpt lat="43.8546085292703" lon="12.753182895755943"><ele>56.0</ele><time>2026-05-01T07:30:45.999Z</time></trkpt><trkpt lat="43.8545837355334" lon="12.753026286667103"><ele>56.0</ele><time>2026-05-01T07:30:46.999Z</time></trkpt><trkpt lat="43.85455645191943" lon="12.75286282695202"><ele>56.0</ele><time>2026-05-01T07:30:47.999Z</time></trkpt><trkpt lat="43.85452733913186" lon="12.752696164702954"><ele>56.0</ele><time>2026-05-01T07:30:48.999Z</time></trkpt><trkpt lat="43.85449754277237" lon="12.752520497109831"><ele>57.0</ele><time>2026-05-01T07:30:49.999Z</time></trkpt><trkpt lat="43.85447151383282" lon="12.75235444883367"><ele>58.0</ele><time>2026-05-01T07:30:50.999Z</time></trkpt><trkpt lat="43.85444997421993" lon="12.752198614031686"><ele>59.0</ele><time>2026-05-01T07:30:51.999Z</time></trkpt><trkpt lat="43.85443159919146" lon="12.752040891298325"><ele>60.0</ele><time>2026-05-01T07:30:52.999Z</time></trkpt><trkpt lat="43.854414995229256" lon="12.751881121417702"><ele>60.0</ele><time>2026-05-01T07:30:53.999Z</time></trkpt><trkpt lat="43.854404872239094" lon="12.751716590422083"><ele>60.0</ele><time>2026-05-01T07:30:54.999Z</time></trkpt><trkpt lat="43.85439390098851" lon="12.751568527186732"><ele>60.0</ele><time>2026-05-01T07:30:55.999Z</time></trkpt><trkpt lat="43.85439593838591" lon="12.75143359538838"><ele>60.0</ele><time>2026-05-01T07:30:56.999Z</time></trkpt><trkpt lat="43.854412044055216" lon="12.751301062359548"><ele>60.0</ele><time>2026-05-01T07:30:57.999Z</time></trkpt><trkpt lat="43.85446181630985" lon="12.751188224039947"><ele>60.0</ele><time>2026-05-01T07:30:58.999Z</time></trkpt><trkpt lat="43.85447962267182" lon="12.75107237012968"><ele>60.0</ele><time>2026-05-01T07:30:59.999Z</time></trkpt><trkpt lat="43.854458823460455" lon="12.750934114332145"><ele>60.0</ele><time>2026-05-01T07:31:00.999Z</time></trkpt><trkpt lat="43.854410537092875" lon="12.750813331484917"><ele>60.0</ele><time>2026-05-01T07:31:01.999Z</time></trkpt><trkpt lat="43.85435434431123" lon="12.750684203729516"><ele>60.0</ele><time>2026-05-01T07:31:02.999Z</time></trkpt><trkpt lat="43.85432423479061" lon="12.750530451088107"><ele>59.0</ele><time>2026-05-01T07:31:03.999Z</time></trkpt><trkpt lat="43.85430369375176" lon="12.750375310849307"><ele>58.0</ele><time>2026-05-01T07:31:04.999Z</time></trkpt><trkpt lat="43.854290133914716" lon="12.750219933600528"><ele>57.0</ele><time>2026-05-01T07:31:05.999Z</time></trkpt><trkpt lat="43.854278330464574" lon="12.750048690544125"><ele>56.0</ele><time>2026-05-01T07:31:06.999Z</time></trkpt><trkpt lat="43.854266395268375" lon="12.749851266363505"><ele>55.66666666666667</ele><time>2026-05-01T07:31:07.999Z</time></trkpt><trkpt lat="43.854242211997665" lon="12.749613045729467"><ele>55.33333333333333</ele><time>2026-05-01T07:31:08.999Z</time></trkpt><trkpt lat="43.85421366514615" lon="12.74934136680258"><ele>55.0</ele><time>2026-05-01T07:31:09.999Z</time></trkpt><trkpt lat="43.85418856632413" lon="12.749023591701203"><ele>55.0</ele><time>2026-05-01T07:31:10.999Z</time></trkpt><trkpt lat="43.8541801348822" lon="12.748672376367379"><ele>55.0</ele><time>2026-05-01T07:31:11.999Z</time></trkpt><trkpt lat="43.854165606471135" lon="12.748289403040253"><ele>55.0</ele><time>2026-05-01T07:31:12.999Z</time></trkpt><trkpt lat="43.854144526579624" lon="12.747931086254656"><ele>55.0</ele><time>2026-05-01T07:31:13.999Z</time></trkpt><trkpt lat="43.85411958249328" lon="12.747605895453919"><ele>55.0</ele><time>2026-05-01T07:31:14.999Z</time></trkpt><trkpt lat="43.854096058639605" lon="12.74727398531431"><ele>55.0</ele><time>2026-05-01T07:31:15.999Z</time></trkpt><trkpt lat="43.854071657165676" lon="12.74693875409185"><ele>54.5</ele><time>2026-05-01T07:31:16.999Z</time></trkpt><trkpt lat="43.854049379640806" lon="12.746596975526732"><ele>54.0</ele><time>2026-05-01T07:31:17.999Z</time></trkpt><trkpt lat="43.854024124041445" lon="12.746261968272329"><ele>55.0</ele><time>2026-05-01T07:31:18.999Z</time></trkpt><trkpt lat="43.85399660519532" lon="12.745923480668651"><ele>56.0</ele><time>2026-05-01T07:31:19.999Z</time></trkpt><trkpt lat="43.85396852814164" lon="12.74558636030409"><ele>56.0</ele><time>2026-05-01T07:31:20.999Z</time></trkpt><trkpt lat="43.85394105961637" lon="12.74525290428963"><ele>56.0</ele><time>2026-05-01T07:31:21.999Z</time></trkpt><trkpt lat="43.85391511648158" lon="12.744940881639305"><ele>55.66666666666667</ele><time>2026-05-01T07:31:22.999Z</time></trkpt><trkpt lat="43.85389388405445" lon="12.744656092246633"><ele>55.33333333333333</ele><time>2026-05-01T07:31:23.999Z</time></trkpt><trkpt lat="43.853871157577686" lon="12.744402242783822"><ele>55.0</ele><time>2026-05-01T07:31:24.999Z</time></trkpt><trkpt lat="43.853844133552144" lon="12.744170691185268"><ele>54.666666666666664</ele><time>2026-05-01T07:31:25.999Z</time></trkpt><trkpt lat="43.85381387517436" lon="12.743953214825838"><ele>54.33333333333333</ele><time>2026-05-01T07:31:26.999Z</time></trkpt><trkpt lat="43.853778221979645" lon="12.743739189010002"><ele>54.0</ele><time>2026-05-01T07:31:27.999Z</time></trkpt><trkpt lat="43.85373521021622" lon="12.74353593742356"><ele>54.0</ele><time>2026-05-01T07:31:28.999Z</time></trkpt><trkpt lat="43.853688783452704" lon="12.74334567371724"><ele>54.0</ele><time>2026-05-01T07:31:29.999Z</time></trkpt><trkpt lat="43.85363808937739" lon="12.743153942355798"><ele>54.0</ele><time>2026-05-01T07:31:30.999Z</time></trkpt><trkpt lat="43.85358576412973" lon="12.742963859390766"><ele>54.0</ele><time>2026-05-01T07:31:31.999Z</time></trkpt><trkpt lat="43.85353591571539" lon="12.742787930243523"><ele>54.25</ele><time>2026-05-01T07:31:32.999Z</time></trkpt><trkpt lat="43.85348391309568" lon="12.742616170380522"><ele>54.5</ele><time>2026-05-01T07:31:33.999Z</time></trkpt><trkpt lat="43.853434727271214" lon="12.74244744877367"><ele>54.75</ele><time>2026-05-01T07:31:34.999Z</time></trkpt><trkpt lat="43.853386335644345" lon="12.742287497119761"><ele>55.0</ele><time>2026-05-01T07:31:35.999Z</time></trkpt><trkpt lat="43.85333893604739" lon="12.742124142242616"><ele>55.25</ele><time>2026-05-01T07:31:36.999Z</time></trkpt><trkpt lat="43.853292885173666" lon="12.741970861659462"><ele>55.5</ele><time>2026-05-01T07:31:37.999Z</time></trkpt><trkpt lat="43.85324900231918" lon="12.741816489652718"><ele>55.75</ele><time>2026-05-01T07:31:38.999Z</time></trkpt><trkpt lat="43.85320179769109" lon="12.741659714431295"><ele>56.0</ele><time>2026-05-01T07:31:39.999Z</time></trkpt><trkpt lat="43.853151168302674" lon="12.741500526204993"><ele>56.0</ele><time>2026-05-01T07:31:40.999Z</time></trkpt><trkpt lat="43.853101211638254" lon="12.741337606252493"><ele>56.0</ele><time>2026-05-01T07:31:41.999Z</time></trkpt><trkpt lat="43.85305224257858" lon="12.741166212610587"><ele>56.0</ele><time>2026-05-01T07:31:42.999Z</time></trkpt><trkpt lat="43.853004998859696" lon="12.74099679240477"><ele>56.0</ele><time>2026-05-01T07:31:43.999Z</time></trkpt><trkpt lat="43.85296202212406" lon="12.740832907272827"><ele>56.0</ele><time>2026-05-01T07:31:44.998Z</time></trkpt><trkpt lat="43.85291665115844" lon="12.740666471177642"><ele>56.0</ele><time>2026-05-01T07:31:45.998Z</time></trkpt><trkpt lat="43.85286523973973" lon="12.740499140975475"><ele>56.0</ele><time>2026-05-01T07:31:46.998Z</time></trkpt><trkpt lat="43.85281219250328" lon="12.740332715577683"><ele>56.0</ele><time>2026-05-01T07:31:47.998Z</time></trkpt><trkpt lat="43.85275942192172" lon="12.740162739676489"><ele>55.5</ele><time>2026-05-01T07:31:48.998Z</time></trkpt><trkpt lat="43.85270518359393" lon="12.739984174890651"><ele>55.0</ele><time>2026-05-01T07:31:49.998Z</time></trkpt><trkpt lat="43.852649974795916" lon="12.739797000851672"><ele>54.5</ele><time>2026-05-01T07:31:50.998Z</time></trkpt><trkpt lat="43.852593087374316" lon="12.739600740116055"><ele>54.0</ele><time>2026-05-01T07:31:51.998Z</time></trkpt><trkpt lat="43.85253645064906" lon="12.739394553952415"><ele>54.0</ele><time>2026-05-01T07:31:52.998Z</time></trkpt><trkpt lat="43.852477214736226" lon="12.739181513974076"><ele>54.0</ele><time>2026-05-01T07:31:53.998Z</time></trkpt><trkpt lat="43.85241646644132" lon="12.738960859503347"><ele>54.0</ele><time>2026-05-01T07:31:54.998Z</time></trkpt><trkpt lat="43.85235393881625" lon="12.738732530257343"><ele>55.0</ele><time>2026-05-01T07:31:55.998Z</time></trkpt><trkpt lat="43.852286533302745" lon="12.738501249053387"><ele>56.0</ele><time>2026-05-01T07:31:56.998Z</time></trkpt><trkpt lat="43.8522067388014" lon="12.738269993714011"><ele>57.0</ele><time>2026-05-01T07:31:57.998Z</time></trkpt><trkpt lat="43.85211480448295" lon="12.738032814152687"><ele>57.0</ele><time>2026-05-01T07:31:58.998Z</time></trkpt><trkpt lat="43.85201900569821" lon="12.737798394419862"><ele>57.0</ele><time>2026-05-01T07:31:59.998Z</time></trkpt><trkpt lat="43.85191983650026" lon="12.737562664381965"><ele>57.0</ele><time>2026-05-01T07:32:00.998Z</time></trkpt><trkpt lat="43.85182089523825" lon="12.737324503136769"><ele>56.66666666666667</ele><time>2026-05-01T07:32:01.998Z</time></trkpt><trkpt lat="43.85172619595639" lon="12.737091090025565"><ele>56.333333333333336</ele><time>2026-05-01T07:32:02.998Z</time></trkpt><trkpt lat="43.85162766386726" lon="12.736856373590003"><ele>56.0</ele><time>2026-05-01T07:32:03.998Z</time></trkpt><trkpt lat="43.851526530933015" lon="12.73662020125876"><ele>56.0</ele><time>2026-05-01T07:32:04.998Z</time></trkpt><trkpt lat="43.851424965567155" lon="12.736379129507775"><ele>56.0</ele><time>2026-05-01T07:32:05.998Z</time></trkpt><trkpt lat="43.85131746524254" lon="12.736142496517958"><ele>56.0</ele><time>2026-05-01T07:32:06.998Z</time></trkpt><trkpt lat="43.851209268958634" lon="12.73590143934081"><ele>55.66666666666667</ele><time>2026-05-01T07:32:07.998Z</time></trkpt><trkpt lat="43.851100957177806" lon="12.735660218213209"><ele>55.33333333333333</ele><time>2026-05-01T07:32:08.998Z</time></trkpt><trkpt lat="43.85099184455852" lon="12.735413858897138"><ele>55.0</ele><time>2026-05-01T07:32:09.998Z</time></trkpt><trkpt lat="43.85088312508956" lon="12.735161990486333"><ele>54.666666666666664</ele><time>2026-05-01T07:32:10.998Z</time></trkpt><trkpt lat="43.85077247288876" lon="12.734910740100611"><ele>54.33333333333333</ele><time>2026-05-01T07:32:11.998Z</time></trkpt><trkpt lat="43.850659277455435" lon="12.734658469582586"><ele>54.0</ele><time>2026-05-01T07:32:12.999Z</time></trkpt><trkpt lat="43.85054852179131" lon="12.734403662613298"><ele>54.33333333333333</ele><time>2026-05-01T07:32:13.999Z</time></trkpt><trkpt lat="43.85044419949914" lon="12.734141783782242"><ele>54.666666666666664</ele><time>2026-05-01T07:32:14.999Z</time></trkpt><trkpt lat="43.85035685870077" lon="12.733866726016357"><ele>55.0</ele><time>2026-05-01T07:32:15.999Z</time></trkpt><trkpt lat="43.850287290441905" lon="12.733582980059968"><ele>54.666666666666664</ele><time>2026-05-01T07:32:16.999Z</time></trkpt><trkpt lat="43.85023140917908" lon="12.733294823207824"><ele>54.33333333333333</ele><time>2026-05-01T07:32:17.999Z</time></trkpt><trkpt lat="43.85017857975711" lon="12.733005786412331"><ele>54.0</ele><time>2026-05-01T07:32:18.999Z</time></trkpt><trkpt lat="43.850123411284805" lon="12.732718970006143"><ele>54.66666666666667</ele><time>2026-05-01T07:32:19.999Z</time></trkpt><trkpt lat="43.850071614883305" lon="12.732441166627062"><ele>55.333333333333336</ele><time>2026-05-01T07:32:20.999Z</time></trkpt><trkpt lat="43.850027194651005" lon="12.73218026276328"><ele>56.0</ele><time>2026-05-01T07:32:21.999Z</time></trkpt><trkpt lat="43.84998681014631" lon="12.731928952612268"><ele>56.333333333333336</ele><time>2026-05-01T07:32:22.999Z</time></trkpt><trkpt lat="43.84994866332991" lon="12.731684476827203"><ele>56.66666666666667</ele><time>2026-05-01T07:32:23.999Z</time></trkpt><trkpt lat="43.84991185542099" lon="12.731439774218504"><ele>57.0</ele><time>2026-05-01T07:32:24.999Z</time></trkpt><trkpt lat="43.8498784451625" lon="12.731205779644807"><ele>57.0</ele><time>2026-05-01T07:32:25.999Z</time></trkpt><trkpt lat="43.849848458014264" lon="12.730986207958766"><ele>57.0</ele><time>2026-05-01T07:32:26.999Z</time></trkpt><trkpt lat="43.84982017662984" lon="12.730782864341048"><ele>57.0</ele><time>2026-05-01T07:32:27.999Z</time></trkpt><trkpt lat="43.84979657854166" lon="12.730602854767943"><ele>57.0</ele><time>2026-05-01T07:32:28.999Z</time></trkpt><trkpt lat="43.84978037148702" lon="12.730433418755359"><ele>57.0</ele><time>2026-05-01T07:32:29.999Z</time></trkpt><trkpt lat="43.8497790256242" lon="12.730276041596452"><ele>57.0</ele><time>2026-05-01T07:32:30.999Z</time></trkpt><trkpt lat="43.84980120650401" lon="12.730134596824248"><ele>57.0</ele><time>2026-05-01T07:32:31.999Z</time></trkpt><trkpt lat="43.84982565860273" lon="12.729996664788676"><ele>57.0</ele><time>2026-05-01T07:32:32.999Z</time></trkpt><trkpt lat="43.84981692321132" lon="12.72986669136585"><ele>57.0</ele><time>2026-05-01T07:32:33.999Z</time></trkpt><trkpt lat="43.84978105322246" lon="12.729736681297943"><ele>56.75</ele><time>2026-05-01T07:32:34.999Z</time></trkpt><trkpt lat="43.84972960883484" lon="12.729604559972598"><ele>56.5</ele><time>2026-05-01T07:32:35.999Z</time></trkpt><trkpt lat="43.84968226214933" lon="12.7294514742989"><ele>56.25</ele><time>2026-05-01T07:32:36.999Z</time></trkpt><trkpt lat="43.84965656280033" lon="12.729278114070828"><ele>56.0</ele><time>2026-05-01T07:32:37.999Z</time></trkpt><trkpt lat="43.849639133655195" lon="12.72909215003548"><ele>56.0</ele><time>2026-05-01T07:32:38.999Z</time></trkpt><trkpt lat="43.84962061440769" lon="12.728894110724227"><ele>56.0</ele><time>2026-05-01T07:32:39.999Z</time></trkpt><trkpt lat="43.849598670129744" lon="12.728688214628253"><ele>56.0</ele><time>2026-05-01T07:32:40.999Z</time></trkpt><trkpt lat="43.84957787297595" lon="12.728474883094227"><ele>56.0</ele><time>2026-05-01T07:32:41.999Z</time></trkpt><trkpt lat="43.84955544558022" lon="12.728256163489633"><ele>56.0</ele><time>2026-05-01T07:32:42.999Z</time></trkpt><trkpt lat="43.84953356078022" lon="12.728027554890406"><ele>56.0</ele><time>2026-05-01T07:32:43.999Z</time></trkpt><trkpt lat="43.84950579090663" lon="12.727785765591253"><ele>56.0</ele><time>2026-05-01T07:32:44.999Z</time></trkpt><trkpt lat="43.84947619969244" lon="12.727547181747825"><ele>55.66666666666667</ele><time>2026-05-01T07:32:45.999Z</time></trkpt><trkpt lat="43.849450457227334" lon="12.727324037991641"><ele>55.33333333333333</ele><time>2026-05-01T07:32:46.999Z</time></trkpt><trkpt lat="43.84942693399266" lon="12.72708864609305"><ele>55.0</ele><time>2026-05-01T07:32:47.999Z</time></trkpt><trkpt lat="43.84940130555073" lon="12.72684946515228"><ele>55.0</ele><time>2026-05-01T07:32:48.999Z</time></trkpt><trkpt lat="43.849375806336845" lon="12.726605375090413"><ele>55.0</ele><time>2026-05-01T07:32:49.999Z</time></trkpt><trkpt lat="43.84934857933355" lon="12.726363551273964"><ele>55.0</ele><time>2026-05-01T07:32:50.999Z</time></trkpt><trkpt lat="43.84932143305222" lon="12.726128444769147"><ele>55.666666666666664</ele><time>2026-05-01T07:32:51.999Z</time></trkpt><trkpt lat="43.849293060378365" lon="12.725915551054658"><ele>56.33333333333333</ele><time>2026-05-01T07:32:52.999Z</time></trkpt><trkpt lat="43.84926522509414" lon="12.725713859059919"><ele>57.0</ele><time>2026-05-01T07:32:53.999Z</time></trkpt><trkpt lat="43.84924216779259" lon="12.725503179830257"><ele>57.0</ele><time>2026-05-01T07:32:54.999Z</time></trkpt><trkpt lat="43.849228775403674" lon="12.72531283444314"><ele>57.0</ele><time>2026-05-01T07:32:55.999Z</time></trkpt><trkpt lat="43.84922829021785" lon="12.725142880320094"><ele>57.0</ele><time>2026-05-01T07:32:56.999Z</time></trkpt><trkpt lat="43.84925648859659" lon="12.724990100821564"><ele>57.0</ele><time>2026-05-01T07:32:57.999Z</time></trkpt><trkpt lat="43.84931047324681" lon="12.724853737597302"><ele>57.25</ele><time>2026-05-01T07:32:58.999Z</time></trkpt><trkpt lat="43.84936101610196" lon="12.724713209719948"><ele>57.5</ele><time>2026-05-01T07:32:59.999Z</time></trkpt><trkpt lat="43.849377780726" lon="12.72455642661359"><ele>57.75</ele><time>2026-05-01T07:33:00.999Z</time></trkpt><trkpt lat="43.84935534475952" lon="12.724393967731862"><ele>58.0</ele><time>2026-05-01T07:33:01.999Z</time></trkpt><trkpt lat="43.84931031451069" lon="12.724234691789759"><ele>56.75</ele><time>2026-05-01T07:33:02.999Z</time></trkpt><trkpt lat="43.84924320539207" lon="12.724103166140788"><ele>55.5</ele><time>2026-05-01T07:33:03.999Z</time></trkpt><trkpt lat="43.84914747272753" lon="12.724005978428716"><ele>54.25</ele><time>2026-05-01T07:33:04.999Z</time></trkpt><trkpt lat="43.849030822208285" lon="12.723918471758022"><ele>53.0</ele><time>2026-05-01T07:33:05.999Z</time></trkpt><trkpt lat="43.84892042462958" lon="12.72380697565244"><ele>53.0</ele><time>2026-05-01T07:33:06.999Z</time></trkpt><trkpt lat="43.84882301112005" lon="12.723656937232048"><ele>53.0</ele><time>2026-05-01T07:33:07.999Z</time></trkpt><trkpt lat="43.848724437952065" lon="12.723500963083332"><ele>53.0</ele><time>2026-05-01T07:33:08.999Z</time></trkpt><trkpt lat="43.84862095835246" lon="12.723339283885371"><ele>53.0</ele><time>2026-05-01T07:33:09.999Z</time></trkpt><trkpt lat="43.8485153542386" lon="12.723168880554757"><ele>53.0</ele><time>2026-05-01T07:33:10.999Z</time></trkpt><trkpt lat="43.84840197307936" lon="12.722993454529476"><ele>53.0</ele><time>2026-05-01T07:33:11.999Z</time></trkpt><trkpt lat="43.84828234867809" lon="12.722811273931878"><ele>54.0</ele><time>2026-05-01T07:33:12.999Z</time></trkpt><trkpt lat="43.84816124122484" lon="12.722632520469498"><ele>55.0</ele><time>2026-05-01T07:33:13.999Z</time></trkpt><trkpt lat="43.848055265096" lon="12.72246053756269"><ele>56.0</ele><time>2026-05-01T07:33:14.999Z</time></trkpt><trkpt lat="43.84796024344432" lon="12.722271442498355"><ele>56.0</ele><time>2026-05-01T07:33:15.999Z</time></trkpt><trkpt lat="43.84787425839558" lon="12.722064423566243"><ele>56.0</ele><time>2026-05-01T07:33:16.999Z</time></trkpt><trkpt lat="43.847797536951674" lon="12.721845532284362"><ele>56.0</ele><time>2026-05-01T07:33:17.999Z</time></trkpt><trkpt lat="43.847738792160406" lon="12.72161219670687"><ele>55.66666666666667</ele><time>2026-05-01T07:33:18.999Z</time></trkpt><trkpt lat="43.84768797294731" lon="12.721372135188762"><ele>55.33333333333333</ele><time>2026-05-01T07:33:19.999Z</time></trkpt><trkpt lat="43.84764167883573" lon="12.721137948721"><ele>55.0</ele><time>2026-05-01T07:33:20.999Z</time></trkpt><trkpt lat="43.8475913552478" lon="12.720922825699395"><ele>54.33333333333333</ele><time>2026-05-01T07:33:21.999Z</time></trkpt><trkpt lat="43.84751279264403" lon="12.720719802949134"><ele>53.66666666666667</ele><time>2026-05-01T07:33:22.999Z</time></trkpt><trkpt lat="43.84743642865148" lon="12.720509364281126"><ele>53.0</ele><time>2026-05-01T07:33:23.999Z</time></trkpt><trkpt lat="43.847402355945725" lon="12.720273543068597"><ele>53.333333333333336</ele><time>2026-05-01T07:33:24.999Z</time></trkpt><trkpt lat="43.84739649704129" lon="12.720029721010121"><ele>53.66666666666667</ele><time>2026-05-01T07:33:25.999Z</time></trkpt><trkpt lat="43.84739553599772" lon="12.719781546213094"><ele>54.0</ele><time>2026-05-01T07:33:26.999Z</time></trkpt><trkpt lat="43.84736627284154" lon="12.71953272814099"><ele>54.33333333333333</ele><time>2026-05-01T07:33:27.999Z</time></trkpt><trkpt lat="43.84731761099273" lon="12.71927951029089"><ele>54.666666666666664</ele><time>2026-05-01T07:33:28.999Z</time></trkpt><trkpt lat="43.84727014562977" lon="12.719020524291018"><ele>55.0</ele><time>2026-05-01T07:33:29.999Z</time></trkpt><trkpt lat="43.84722671559991" lon="12.718767504118574"><ele>54.666666666666664</ele><time>2026-05-01T07:33:30.999Z</time></trkpt><trkpt lat="43.84717994628083" lon="12.718505317960522"><ele>54.33333333333333</ele><time>2026-05-01T07:33:31.999Z</time></trkpt><trkpt lat="43.847133008316284" lon="12.718237800074215"><ele>54.0</ele><time>2026-05-01T07:33:32.999Z</time></trkpt><trkpt lat="43.847086410061955" lon="12.71796795922601"><ele>54.0</ele><time>2026-05-01T07:33:33.999Z</time></trkpt><trkpt lat="43.847038030616524" lon="12.717697388699413"><ele>54.0</ele><time>2026-05-01T07:33:34.999Z</time></trkpt><trkpt lat="43.846990222747" lon="12.71742427095733"><ele>54.0</ele><time>2026-05-01T07:33:35.999Z</time></trkpt><trkpt lat="43.846941547491824" lon="12.71715050635733"><ele>54.0</ele><time>2026-05-01T07:33:36.999Z</time></trkpt><trkpt lat="43.84689394025858" lon="12.716877990665505"><ele>54.0</ele><time>2026-05-01T07:33:37.999Z</time></trkpt><trkpt lat="43.846851518789755" lon="12.716598781323606"><ele>54.0</ele><time>2026-05-01T07:33:38.999Z</time></trkpt><trkpt lat="43.846805224778635" lon="12.716321190969412"><ele>54.33333333333333</ele><time>2026-05-01T07:33:39.999Z</time></trkpt><trkpt lat="43.84675042740509" lon="12.716050944634107"><ele>54.666666666666664</ele><time>2026-05-01T07:33:40.999Z</time></trkpt><trkpt lat="43.846681220463196" lon="12.71579966469182"><ele>55.0</ele><time>2026-05-01T07:33:41.999Z</time></trkpt><trkpt lat="43.84659561194406" lon="12.715568379456405"><ele>55.0</ele><time>2026-05-01T07:33:42.999Z</time></trkpt><trkpt lat="43.84649052506447" lon="12.715358060857907"><ele>55.0</ele><time>2026-05-01T07:33:43.999Z</time></trkpt><trkpt lat="43.84638443023748" lon="12.715166787169132"><ele>55.0</ele><time>2026-05-01T07:33:44.999Z</time></trkpt><trkpt lat="43.84627886212813" lon="12.714988033838143"><ele>54.33333333333333</ele><time>2026-05-01T07:33:45.999Z</time></trkpt><trkpt lat="43.8461757138865" lon="12.714799238889825"><ele>53.66666666666667</ele><time>2026-05-01T07:33:46.999Z</time></trkpt><trkpt lat="43.846078840103914" lon="12.714611197279403"><ele>53.0</ele><time>2026-05-01T07:33:47.999Z</time></trkpt><trkpt lat="43.84598128142227" lon="12.714430510112344"><ele>54.66666666666667</ele><time>2026-05-01T07:33:48.999Z</time></trkpt><trkpt lat="43.84587418489642" lon="12.71425643854009"><ele>56.33333333333333</ele><time>2026-05-01T07:33:49.999Z</time></trkpt><trkpt lat="43.8457552118411" lon="12.714077441646111"><ele>58.0</ele><time>2026-05-01T07:33:50.999Z</time></trkpt><trkpt lat="43.84562931599203" lon="12.713867085844917"><ele>58.0</ele><time>2026-05-01T07:33:51.999Z</time></trkpt><trkpt lat="43.84550275330308" lon="12.71363983649797"><ele>58.0</ele><time>2026-05-01T07:33:52.999Z</time></trkpt><trkpt lat="43.84538995402995" lon="12.71342675861227"><ele>58.0</ele><time>2026-05-01T07:33:53.999Z</time></trkpt><trkpt lat="43.84529732088969" lon="12.713240385807683"><ele>58.25</ele><time>2026-05-01T07:33:54.999Z</time></trkpt><trkpt lat="43.84521043180914" lon="12.713060794985948"><ele>58.5</ele><time>2026-05-01T07:33:55.999Z</time></trkpt><trkpt lat="43.84512782606607" lon="12.712902812386986"><ele>58.75</ele><time>2026-05-01T07:33:56.999Z</time></trkpt><trkpt lat="43.84504058239126" lon="12.712743484413375"><ele>59.0</ele><time>2026-05-01T07:33:57.999Z</time></trkpt><trkpt lat="43.84495534767912" lon="12.712581171106933"><ele>58.5</ele><time>2026-05-01T07:33:58.999Z</time></trkpt><trkpt lat="43.844868903610276" lon="12.712416044414908"><ele>58.0</ele><time>2026-05-01T07:33:59.999Z</time></trkpt><trkpt lat="43.844782167351404" lon="12.712253027008682"><ele>57.5</ele><time>2026-05-01T07:34:00.999Z</time></trkpt><trkpt lat="43.84469305336762" lon="12.712090875707101"><ele>57.0</ele><time>2026-05-01T07:34:01.999Z</time></trkpt><trkpt lat="43.84460159031227" lon="12.711926843208222"><ele>56.33333333333333</ele><time>2026-05-01T07:34:02.999Z</time></trkpt><trkpt lat="43.844511163263306" lon="12.711766142931808"><ele>55.666666666666664</ele><time>2026-05-01T07:34:03.999Z</time></trkpt><trkpt lat="43.84442499161639" lon="12.71159564459733"><ele>55.0</ele><time>2026-05-01T07:34:04.999Z</time></trkpt><trkpt lat="43.84433403290536" lon="12.7114212646568"><ele>55.75</ele><time>2026-05-01T07:34:05.999Z</time></trkpt><trkpt lat="43.84423860176546" lon="12.711248556102994"><ele>56.5</ele><time>2026-05-01T07:34:06.999Z</time></trkpt><trkpt lat="43.84414578606059" lon="12.711089966764728"><ele>57.25</ele><time>2026-05-01T07:34:07.999Z</time></trkpt><trkpt lat="43.84405715323314" lon="12.710931644638807"><ele>58.0</ele><time>2026-05-01T07:34:08.999Z</time></trkpt><trkpt lat="43.84397326568414" lon="12.71077390035606"><ele>58.0</ele><time>2026-05-01T07:34:09.999Z</time></trkpt><trkpt lat="43.843889903093675" lon="12.710616760720333"><ele>58.0</ele><time>2026-05-01T07:34:10.999Z</time></trkpt><trkpt lat="43.84380808197797" lon="12.710462277896001"><ele>58.0</ele><time>2026-05-01T07:34:11.999Z</time></trkpt><trkpt lat="43.84372169765172" lon="12.71030938267369"><ele>58.0</ele><time>2026-05-01T07:34:12.999Z</time></trkpt><trkpt lat="43.84362626769392" lon="12.71016203902894"><ele>58.25</ele><time>2026-05-01T07:34:13.999Z</time></trkpt><trkpt lat="43.84351326585576" lon="12.710030039664481"><ele>58.5</ele><time>2026-05-01T07:34:14.999Z</time></trkpt><trkpt lat="43.8433899595703" lon="12.709912898034755"><ele>58.75</ele><time>2026-05-01T07:34:15.998Z</time></trkpt><trkpt lat="43.843258044593604" lon="12.709811316845052"><ele>59.0</ele><time>2026-05-01T07:34:16.998Z</time></trkpt><trkpt lat="43.84312512480795" lon="12.709713090289165"><ele>59.0</ele><time>2026-05-01T07:34:17.998Z</time></trkpt><trkpt lat="43.84299267926761" lon="12.709615997911687"><ele>59.0</ele><time>2026-05-01T07:34:18.999Z</time></trkpt><trkpt lat="43.84286030560543" lon="12.7095216207582"><ele>59.0</ele><time>2026-05-01T07:34:19.999Z</time></trkpt><trkpt lat="43.84273096503642" lon="12.709430909666532"><ele>59.0</ele><time>2026-05-01T07:34:20.999Z</time></trkpt><trkpt lat="43.842610476054254" lon="12.709338275019963"><ele>60.25</ele><time>2026-05-01T07:34:21.999Z</time></trkpt><trkpt lat="43.842490358643396" lon="12.709250582454795"><ele>61.5</ele><time>2026-05-01T07:34:22.999Z</time></trkpt><trkpt lat="43.84237403769069" lon="12.709164373693051"><ele>62.75</ele><time>2026-05-01T07:34:23.999Z</time></trkpt><trkpt lat="43.84225863156785" lon="12.70908242712486"><ele>64.0</ele><time>2026-05-01T07:34:24.999Z</time></trkpt><trkpt lat="43.842147437693804" lon="12.709001034409606"><ele>64.0</ele><time>2026-05-01T07:34:25.999Z</time></trkpt><trkpt lat="43.84204014438849" lon="12.708915775741668"><ele>64.0</ele><time>2026-05-01T07:34:26.999Z</time></trkpt><trkpt lat="43.841939189018845" lon="12.708825035694923"><ele>64.0</ele><time>2026-05-01T07:34:27.999Z</time></trkpt><trkpt lat="43.841846550329414" lon="12.708721836981512"><ele>64.0</ele><time>2026-05-01T07:34:28.999Z</time></trkpt><trkpt lat="43.84176151665494" lon="12.708603105399613"><ele>64.75</ele><time>2026-05-01T07:34:29.999Z</time></trkpt><trkpt lat="43.84168337864541" lon="12.708472495876396"><ele>65.5</ele><time>2026-05-01T07:34:30.999Z</time></trkpt><trkpt lat="43.841609838559876" lon="12.708338582846233"><ele>66.25</ele><time>2026-05-01T07:34:31.999Z</time></trkpt><trkpt lat="43.841542016611996" lon="12.708207947019114"><ele>67.0</ele><time>2026-05-01T07:34:32.999Z</time></trkpt><trkpt lat="43.84147651186667" lon="12.70807239771696"><ele>67.0</ele><time>2026-05-01T07:34:33.999Z</time></trkpt><trkpt lat="43.84141023827625" lon="12.707939427759475"><ele>67.0</ele><time>2026-05-01T07:34:34.999Z</time></trkpt><trkpt lat="43.84134088991877" lon="12.7078062240429"><ele>67.0</ele><time>2026-05-01T07:34:35.999Z</time></trkpt><trkpt lat="43.84126948424647" lon="12.707676187892842"><ele>67.0</ele><time>2026-05-01T07:34:36.999Z</time></trkpt><trkpt lat="43.84120391803789" lon="12.70754604091916"><ele>66.5</ele><time>2026-05-01T07:34:37.999Z</time></trkpt><trkpt lat="43.84113884365531" lon="12.707414936087789"><ele>66.0</ele><time>2026-05-01T07:34:38.999Z</time></trkpt><trkpt lat="43.841076819114264" lon="12.707280151142973"><ele>65.5</ele><time>2026-05-01T07:34:39.999Z</time></trkpt><trkpt lat="43.84101277519391" lon="12.707145826926725"><ele>65.0</ele><time>2026-05-01T07:34:40.999Z</time></trkpt><trkpt lat="43.84094418623893" lon="12.707012726364153"><ele>66.0</ele><time>2026-05-01T07:34:41.999Z</time></trkpt><trkpt lat="43.84087500140391" lon="12.70688121972059"><ele>67.0</ele><time>2026-05-01T07:34:42.999Z</time></trkpt><trkpt lat="43.8408061105501" lon="12.706749847019363"><ele>68.0</ele><time>2026-05-01T07:34:43.999Z</time></trkpt><trkpt lat="43.84073527290466" lon="12.7066140361329"><ele>69.0</ele><time>2026-05-01T07:34:44.999Z</time></trkpt><trkpt lat="43.84065860569217" lon="12.706473869168292"><ele>69.0</ele><time>2026-05-01T07:34:45.999Z</time></trkpt><trkpt lat="43.84057874565297" lon="12.706315613172722"><ele>69.0</ele><time>2026-05-01T07:34:46.999Z</time></trkpt><trkpt lat="43.840493477138416" lon="12.706142579025277"><ele>69.0</ele><time>2026-05-01T07:34:47.999Z</time></trkpt><trkpt lat="43.840401747528425" lon="12.705959776103455"><ele>69.33333333333333</ele><time>2026-05-01T07:34:48.999Z</time></trkpt><trkpt lat="43.84030580763391" lon="12.705773060087342"><ele>69.66666666666666</ele><time>2026-05-01T07:34:49.999Z</time></trkpt><trkpt lat="43.840209396043626" lon="12.705579139274409"><ele>70.0</ele><time>2026-05-01T07:34:50.999Z</time></trkpt><trkpt lat="43.840116754965166" lon="12.705389319518682"><ele>70.25</ele><time>2026-05-01T07:34:51.999Z</time></trkpt><trkpt lat="43.84002909901209" lon="12.70520993024077"><ele>70.5</ele><time>2026-05-01T07:34:52.999Z</time></trkpt><trkpt lat="43.83994688094134" lon="12.705042397913703"><ele>70.75</ele><time>2026-05-01T07:34:53.999Z</time></trkpt><trkpt lat="43.83986790507772" lon="12.704878837265282"><ele>71.0</ele><time>2026-05-01T07:34:54.999Z</time></trkpt><trkpt lat="43.839793451833664" lon="12.704724894880215"><ele>71.0</ele><time>2026-05-01T07:34:55.999Z</time></trkpt><trkpt lat="43.839719874211944" lon="12.704583389677982"><ele>71.0</ele><time>2026-05-01T07:34:56.999Z</time></trkpt><trkpt lat="43.83965111078967" lon="12.704449938748864"><ele>71.0</ele><time>2026-05-01T07:34:57.999Z</time></trkpt><trkpt lat="43.839585078869355" lon="12.704315255433995"><ele>71.0</ele><time>2026-05-01T07:34:58.999Z</time></trkpt><trkpt lat="43.83952229713755" lon="12.704178493496078"><ele>72.0</ele><time>2026-05-01T07:34:59.999Z</time></trkpt><trkpt lat="43.83946647547872" lon="12.704035990854514"><ele>73.0</ele><time>2026-05-01T07:35:00.999Z</time></trkpt><trkpt lat="43.83941725654971" lon="12.703883240425599"><ele>74.0</ele><time>2026-05-01T07:35:01.999Z</time></trkpt><trkpt lat="43.839379181862455" lon="12.703719553153132"><ele>75.0</ele><time>2026-05-01T07:35:02.999Z</time></trkpt><trkpt lat="43.83934423717196" lon="12.703554959940643"><ele>74.75</ele><time>2026-05-01T07:35:03.999Z</time></trkpt><trkpt lat="43.839318998945764" lon="12.703385720197446"><ele>74.5</ele><time>2026-05-01T07:35:04.999Z</time></trkpt><trkpt lat="43.83930154314085" lon="12.703206617204339"><ele>74.25</ele><time>2026-05-01T07:35:05.999Z</time></trkpt><trkpt lat="43.83928982295512" lon="12.703005522893006"><ele>74.0</ele><time>2026-05-01T07:35:06.999Z</time></trkpt><trkpt lat="43.83928379845144" lon="12.702787488117542"><ele>74.33333333333334</ele><time>2026-05-01T07:35:07.999Z</time></trkpt><trkpt lat="43.839279607323334" lon="12.70255863385772"><ele>74.66666666666667</ele><time>2026-05-01T07:35:08.999Z</time></trkpt><trkpt lat="43.839287111826536" lon="12.702333396653936"><ele>75.0</ele><time>2026-05-01T07:35:09.999Z</time></trkpt><trkpt lat="43.83929347731608" lon="12.702123994844504"><ele>75.0</ele><time>2026-05-01T07:35:10.999Z</time></trkpt><trkpt lat="43.83929628515902" lon="12.701929843098714"><ele>75.0</ele><time>2026-05-01T07:35:11.999Z</time></trkpt><trkpt lat="43.8392982866809" lon="12.701758331562246"><ele>75.0</ele><time>2026-05-01T07:35:12.999Z</time></trkpt><trkpt lat="43.839305075735055" lon="12.701597376653682"><ele>75.0</ele><time>2026-05-01T07:35:13.999Z</time></trkpt><trkpt lat="43.839304730916396" lon="12.701448925670032"><ele>76.5</ele><time>2026-05-01T07:35:14.999Z</time></trkpt><trkpt lat="43.839305661608236" lon="12.701298573607854"><ele>78.0</ele><time>2026-05-01T07:35:15.999Z</time></trkpt><trkpt lat="43.839307179003825" lon="12.701141279851369"><ele>79.5</ele><time>2026-05-01T07:35:16.999Z</time></trkpt><trkpt lat="43.83930713924829" lon="12.700978777100675"><ele>81.0</ele><time>2026-05-01T07:35:17.999Z</time></trkpt><trkpt lat="43.839306013529935" lon="12.70081326686524"><ele>81.0</ele><time>2026-05-01T07:35:18.999Z</time></trkpt><trkpt lat="43.83930370699115" lon="12.700652598804542"><ele>81.0</ele><time>2026-05-01T07:35:19.999Z</time></trkpt><trkpt lat="43.83929415228709" lon="12.70049940052545"><ele>81.0</ele><time>2026-05-01T07:35:20.999Z</time></trkpt><trkpt lat="43.83928259222197" lon="12.70034531939199"><ele>81.0</ele><time>2026-05-01T07:35:21.999Z</time></trkpt><trkpt lat="43.83925973496525" lon="12.700192391097525"><ele>80.8</ele><time>2026-05-01T07:35:22.999Z</time></trkpt><trkpt lat="43.83922770343628" lon="12.700038699583592"><ele>80.6</ele><time>2026-05-01T07:35:23.999Z</time></trkpt><trkpt lat="43.83918400652533" lon="12.699897405716474"><ele>80.4</ele><time>2026-05-01T07:35:24.999Z</time></trkpt><trkpt lat="43.83914497797145" lon="12.699755598518072"><ele>80.2</ele><time>2026-05-01T07:35:25.999Z</time></trkpt><trkpt lat="43.8391018507893" lon="12.699612530891383"><ele>80.0</ele><time>2026-05-01T07:35:26.999Z</time></trkpt><trkpt lat="43.8390538019441" lon="12.699472648856142"><ele>80.5</ele><time>2026-05-01T07:35:27.999Z</time></trkpt><trkpt lat="43.83900111268402" lon="12.699343618853563"><ele>81.0</ele><time>2026-05-01T07:35:28.999Z</time></trkpt><trkpt lat="43.83894922949729" lon="12.699209510810574"><ele>81.5</ele><time>2026-05-01T07:35:29.999Z</time></trkpt><trkpt lat="43.83887478759236" lon="12.699064538084203"><ele>82.0</ele><time>2026-05-01T07:35:30.999Z</time></trkpt><trkpt lat="43.83880266327407" lon="12.69889952773422"><ele>82.0</ele><time>2026-05-01T07:35:31.999Z</time></trkpt><trkpt lat="43.838723981699104" lon="12.69871051813025"><ele>82.0</ele><time>2026-05-01T07:35:32.999Z</time></trkpt><trkpt lat="43.83863901807262" lon="12.698511035598097"><ele>82.0</ele><time>2026-05-01T07:35:33.999Z</time></trkpt><trkpt lat="43.83855311428826" lon="12.698295382125107"><ele>82.0</ele><time>2026-05-01T07:35:34.999Z</time></trkpt><trkpt lat="43.8384576699284" lon="12.698075685009181"><ele>82.0</ele><time>2026-05-01T07:35:35.999Z</time></trkpt><trkpt lat="43.83837623774902" lon="12.697839240642"><ele>82.0</ele><time>2026-05-01T07:35:36.999Z</time></trkpt><trkpt lat="43.83829276446971" lon="12.697604579065429"><ele>82.0</ele><time>2026-05-01T07:35:37.999Z</time></trkpt><trkpt lat="43.838211027120096" lon="12.697389240966515"><ele>82.0</ele><time>2026-05-01T07:35:38.999Z</time></trkpt><trkpt lat="43.83813182460042" lon="12.697191433603793"><ele>82.0</ele><time>2026-05-01T07:35:39.999Z</time></trkpt><trkpt lat="43.838058547986" lon="12.697006434589316"><ele>82.25</ele><time>2026-05-01T07:35:40.999Z</time></trkpt><trkpt lat="43.83799469480326" lon="12.696834395995115"><ele>82.5</ele><time>2026-05-01T07:35:41.999Z</time></trkpt><trkpt lat="43.83793294246885" lon="12.696672418365164"><ele>82.75</ele><time>2026-05-01T07:35:42.999Z</time></trkpt><trkpt lat="43.837874301483104" lon="12.696520572305891"><ele>83.0</ele><time>2026-05-01T07:35:43.999Z</time></trkpt><trkpt lat="43.83780992695758" lon="12.696374828013383"><ele>83.0</ele><time>2026-05-01T07:35:44.999Z</time></trkpt><trkpt lat="43.837747583121484" lon="12.696227079194971"><ele>83.0</ele><time>2026-05-01T07:35:45.999Z</time></trkpt><trkpt lat="43.837682240163936" lon="12.69606274857352"><ele>83.0</ele><time>2026-05-01T07:35:46.999Z</time></trkpt><trkpt lat="43.83761499602423" lon="12.695888247965762"><ele>83.0</ele><time>2026-05-01T07:35:47.999Z</time></trkpt><trkpt lat="43.837534442219834" lon="12.69569466572826"><ele>82.0</ele><time>2026-05-01T07:35:48.999Z</time></trkpt><trkpt lat="43.83744231033579" lon="12.695471639293519"><ele>81.0</ele><time>2026-05-01T07:35:49.999Z</time></trkpt><trkpt lat="43.83734769400717" lon="12.69522720765147"><ele>80.0</ele><time>2026-05-01T07:35:50.999Z</time></trkpt><trkpt lat="43.83725150725947" lon="12.694986622541588"><ele>80.0</ele><time>2026-05-01T07:35:51.999Z</time></trkpt><trkpt lat="43.837152401085454" lon="12.694741676744254"><ele>80.0</ele><time>2026-05-01T07:35:52.999Z</time></trkpt><trkpt lat="43.83704873034963" lon="12.694485168822517"><ele>80.0</ele><time>2026-05-01T07:35:53.999Z</time></trkpt><trkpt lat="43.836949362578714" lon="12.694241012114919"><ele>79.66666666666667</ele><time>2026-05-01T07:35:54.999Z</time></trkpt><trkpt lat="43.83685227725636" lon="12.693992435615405"><ele>79.33333333333333</ele><time>2026-05-01T07:35:55.999Z</time></trkpt><trkpt lat="43.83674735752202" lon="12.693738302169468"><ele>79.0</ele><time>2026-05-01T07:35:56.999Z</time></trkpt><trkpt lat="43.83664036427268" lon="12.693483783138024"><ele>80.33333333333333</ele><time>2026-05-01T07:35:57.999Z</time></trkpt><trkpt lat="43.836534827921305" lon="12.69322831475989"><ele>81.66666666666667</ele><time>2026-05-01T07:35:58.999Z</time></trkpt><trkpt lat="43.836429157532976" lon="12.692973771523958"><ele>83.0</ele><time>2026-05-01T07:35:59.999Z</time></trkpt><trkpt lat="43.83632314864762" lon="12.692717473287491"><ele>84.0</ele><time>2026-05-01T07:36:00.999Z</time></trkpt><trkpt lat="43.83621702853906" lon="12.692462722244372"><ele>85.0</ele><time>2026-05-01T07:36:01.999Z</time></trkpt><trkpt lat="43.83611417876028" lon="12.692205035612536"><ele>86.0</ele><time>2026-05-01T07:36:02.999Z</time></trkpt><trkpt lat="43.83602976890317" lon="12.69193161515865"><ele>86.0</ele><time>2026-05-01T07:36:03.999Z</time></trkpt><trkpt lat="43.83595618498794" lon="12.691645204528067"><ele>86.0</ele><time>2026-05-01T07:36:04.999Z</time></trkpt><trkpt lat="43.83588307004531" lon="12.69135580688873"><ele>86.0</ele><time>2026-05-01T07:36:05.999Z</time></trkpt><trkpt lat="43.83581052386179" lon="12.691057474719855"><ele>85.66666666666667</ele><time>2026-05-01T07:36:06.999Z</time></trkpt><trkpt lat="43.83573822087109" lon="12.690757399421837"><ele>85.33333333333333</ele><time>2026-05-01T07:36:07.999Z</time></trkpt><trkpt lat="43.83566887462707" lon="12.69047764983579"><ele>85.0</ele><time>2026-05-01T07:36:08.999Z</time></trkpt><trkpt lat="43.835602749536584" lon="12.690199236932616"><ele>85.66666666666666</ele><time>2026-05-01T07:36:09.999Z</time></trkpt><trkpt lat="43.83553551759081" lon="12.689915931227212"><ele>86.33333333333333</ele><time>2026-05-01T07:36:10.999Z</time></trkpt><trkpt lat="43.8354701086006" lon="12.689626465950557"><ele>87.0</ele><time>2026-05-01T07:36:11.999Z</time></trkpt><trkpt lat="43.835401410385394" lon="12.689339375433182"><ele>87.33333333333333</ele><time>2026-05-01T07:36:12.999Z</time></trkpt><trkpt lat="43.83533578686817" lon="12.689056087565678"><ele>87.66666666666666</ele><time>2026-05-01T07:36:13.999Z</time></trkpt><trkpt lat="43.83527237174143" lon="12.688776689148021"><ele>88.0</ele><time>2026-05-01T07:36:14.999Z</time></trkpt><trkpt lat="43.83521000263213" lon="12.688498858139061"><ele>88.0</ele><time>2026-05-01T07:36:15.999Z</time></trkpt><trkpt lat="43.83514493337058" lon="12.688223602610549"><ele>88.0</ele><time>2026-05-01T07:36:16.999Z</time></trkpt><trkpt lat="43.83507124436403" lon="12.687952055808326"><ele>88.0</ele><time>2026-05-01T07:36:17.999Z</time></trkpt><trkpt lat="43.83498974492205" lon="12.687691603316312"><ele>88.0</ele><time>2026-05-01T07:36:18.999Z</time></trkpt><trkpt lat="43.834900192856374" lon="12.687435673143174"><ele>88.0</ele><time>2026-05-01T07:36:19.999Z</time></trkpt><trkpt lat="43.83479249887863" lon="12.687213261082364"><ele>88.0</ele><time>2026-05-01T07:36:20.999Z</time></trkpt><trkpt lat="43.83466488566418" lon="12.68703022201278"><ele>88.33333333333333</ele><time>2026-05-01T07:36:21.999Z</time></trkpt><trkpt lat="43.83451249030404" lon="12.686875686369113"><ele>88.66666666666667</ele><time>2026-05-01T07:36:22.999Z</time></trkpt><trkpt lat="43.834355069750316" lon="12.6867289421799"><ele>89.0</ele><time>2026-05-01T07:36:23.999Z</time></trkpt><trkpt lat="43.83420379584921" lon="12.686592661532115"><ele>87.33333333333334</ele><time>2026-05-01T07:36:24.999Z</time></trkpt><trkpt lat="43.83405840503463" lon="12.686462316412635"><ele>85.66666666666667</ele><time>2026-05-01T07:36:25.999Z</time></trkpt><trkpt lat="43.83391457543938" lon="12.68633367423955"><ele>84.0</ele><time>2026-05-01T07:36:26.999Z</time></trkpt><trkpt lat="43.83377128691392" lon="12.686204494609202"><ele>84.0</ele><time>2026-05-01T07:36:27.999Z</time></trkpt><trkpt lat="43.83362709885965" lon="12.68607335316228"><ele>84.0</ele><time>2026-05-01T07:36:28.999Z</time></trkpt><trkpt lat="43.833483160787814" lon="12.685940385708959"><ele>84.0</ele><time>2026-05-01T07:36:29.999Z</time></trkpt><trkpt lat="43.83334402385322" lon="12.685813338466609"><ele>84.0</ele><time>2026-05-01T07:36:30.999Z</time></trkpt><trkpt lat="43.83320869718618" lon="12.685688256970241"><ele>84.0</ele><time>2026-05-01T07:36:31.999Z</time></trkpt><trkpt lat="43.83307893430361" lon="12.685568253701518"><ele>84.0</ele><time>2026-05-01T07:36:32.999Z</time></trkpt><trkpt lat="43.83295310383051" lon="12.685449963567489"><ele>84.0</ele><time>2026-05-01T07:36:33.999Z</time></trkpt><trkpt lat="43.832828707006776" lon="12.685333408325173"><ele>84.0</ele><time>2026-05-01T07:36:34.999Z</time></trkpt><trkpt lat="43.83269787051848" lon="12.685215979972394"><ele>84.0</ele><time>2026-05-01T07:36:35.999Z</time></trkpt><trkpt lat="43.832566114731556" lon="12.685096302287263"><ele>82.66666666666667</ele><time>2026-05-01T07:36:36.999Z</time></trkpt><trkpt lat="43.83243085288909" lon="12.68497659259738"><ele>81.33333333333334</ele><time>2026-05-01T07:36:37.999Z</time></trkpt><trkpt lat="43.832295351486934" lon="12.684853314077655"><ele>80.0</ele><time>2026-05-01T07:36:38.999Z</time></trkpt><trkpt lat="43.83216512641069" lon="12.684737399272429"><ele>80.0</ele><time>2026-05-01T07:36:39.999Z</time></trkpt><trkpt lat="43.83204074549108" lon="12.68462474085786"><ele>80.0</ele><time>2026-05-01T07:36:40.999Z</time></trkpt><trkpt lat="43.831918946219695" lon="12.684511067992522"><ele>80.0</ele><time>2026-05-01T07:36:41.999Z</time></trkpt><trkpt lat="43.83180028239758" lon="12.684400302913577"><ele>80.0</ele><time>2026-05-01T07:36:42.999Z</time></trkpt><trkpt lat="43.83167910813347" lon="12.684292715412939"><ele>80.5</ele><time>2026-05-01T07:36:43.999Z</time></trkpt><trkpt lat="43.831561589409816" lon="12.684190890652223"><ele>81.0</ele><time>2026-05-01T07:36:44.999Z</time></trkpt><trkpt lat="43.8314473885216" lon="12.684088535166936"><ele>81.5</ele><time>2026-05-01T07:36:45.999Z</time></trkpt><trkpt lat="43.83133140052889" lon="12.683983124241513"><ele>82.0</ele><time>2026-05-01T07:36:46.999Z</time></trkpt><trkpt lat="43.83121391342315" lon="12.683879495238351"><ele>82.0</ele><time>2026-05-01T07:36:47.999Z</time></trkpt><trkpt lat="43.83109570180972" lon="12.683778732598991"><ele>82.0</ele><time>2026-05-01T07:36:48.999Z</time></trkpt><trkpt lat="43.8309805182769" lon="12.683675235639752"><ele>82.0</ele><time>2026-05-01T07:36:49.999Z</time></trkpt><trkpt lat="43.83086961100451" lon="12.683575685025266"><ele>82.0</ele><time>2026-05-01T07:36:51Z</time></trkpt><trkpt lat="43.830765108573864" lon="12.683482896108503"><ele>82.0</ele><time>2026-05-01T07:36:52Z</time></trkpt><trkpt lat="43.830649736033806" lon="12.683384755868037"><ele>82.0</ele><time>2026-05-01T07:36:53Z</time></trkpt><trkpt lat="43.83051367470447" lon="12.683279689321024"><ele>82.0</ele><time>2026-05-01T07:36:54Z</time></trkpt><trkpt lat="43.830369304373626" lon="12.683163462451128"><ele>82.0</ele><time>2026-05-01T07:36:55Z</time></trkpt><trkpt lat="43.8302254646435" lon="12.683030703943539"><ele>82.0</ele><time>2026-05-01T07:36:56Z</time></trkpt><trkpt lat="43.830081281781695" lon="12.68288674366708"><ele>82.0</ele><time>2026-05-01T07:36:57Z</time></trkpt><trkpt lat="43.82993184450107" lon="12.682743808454378"><ele>82.0</ele><time>2026-05-01T07:36:58Z</time></trkpt><trkpt lat="43.829779605238286" lon="12.682602134970505"><ele>82.0</ele><time>2026-05-01T07:36:59Z</time></trkpt><trkpt lat="43.829626637972524" lon="12.682459930478384"><ele>82.0</ele><time>2026-05-01T07:37:00Z</time></trkpt><trkpt lat="43.829478480129474" lon="12.682328405538863"><ele>82.0</ele><time>2026-05-01T07:37:01Z</time></trkpt><trkpt lat="43.82933785872625" lon="12.682202703349686"><ele>82.0</ele><time>2026-05-01T07:37:02Z</time></trkpt><trkpt lat="43.82919688169109" lon="12.682073093538731"><ele>82.0</ele><time>2026-05-01T07:37:03Z</time></trkpt><trkpt lat="43.82905509970144" lon="12.681943586204092"><ele>82.66666666666666</ele><time>2026-05-01T07:37:04Z</time></trkpt><trkpt lat="43.828914062272695" lon="12.681814980147799"><ele>83.33333333333333</ele><time>2026-05-01T07:37:05Z</time></trkpt><trkpt lat="43.82877161089291" lon="12.681691193271583"><ele>84.0</ele><time>2026-05-01T07:37:06Z</time></trkpt><trkpt lat="43.82863250201737" lon="12.68156263973914"><ele>84.0</ele><time>2026-05-01T07:37:07Z</time></trkpt><trkpt lat="43.82849171124752" lon="12.681431969810513"><ele>84.0</ele><time>2026-05-01T07:37:08Z</time></trkpt><trkpt lat="43.828351677719475" lon="12.681305876322302"><ele>84.0</ele><time>2026-05-01T07:37:09Z</time></trkpt><trkpt lat="43.828212828044116" lon="12.681182798269692"><ele>82.5</ele><time>2026-05-01T07:37:10Z</time></trkpt><trkpt lat="43.82808629709519" lon="12.681068553719795"><ele>81.0</ele><time>2026-05-01T07:37:11Z</time></trkpt><trkpt lat="43.82796940105859" lon="12.680962333796334"><ele>79.5</ele><time>2026-05-01T07:37:12Z</time></trkpt><trkpt lat="43.8278599936023" lon="12.68086219235528"><ele>78.0</ele><time>2026-05-01T07:37:13Z</time></trkpt><trkpt lat="43.82774900581803" lon="12.680760230003983"><ele>78.0</ele><time>2026-05-01T07:37:14Z</time></trkpt><trkpt lat="43.82763577204603" lon="12.680660342040051"><ele>78.0</ele><time>2026-05-01T07:37:15Z</time></trkpt><trkpt lat="43.827518559799884" lon="12.680564914170755"><ele>78.0</ele><time>2026-05-01T07:37:15.999Z</time></trkpt><trkpt lat="43.82740178477569" lon="12.680475791517681"><ele>78.0</ele><time>2026-05-01T07:37:16.999Z</time></trkpt><trkpt lat="43.82728201815639" lon="12.680403279481096"><ele>78.0</ele><time>2026-05-01T07:37:17.999Z</time></trkpt><trkpt lat="43.82715773677313" lon="12.680347746388549"><ele>78.0</ele><time>2026-05-01T07:37:18.999Z</time></trkpt><trkpt lat="43.82703122906226" lon="12.680305079036525"><ele>78.0</ele><time>2026-05-01T07:37:19.999Z</time></trkpt><trkpt lat="43.82690061819489" lon="12.680277536646754"><ele>78.0</ele><time>2026-05-01T07:37:20.999Z</time></trkpt><trkpt lat="43.82676762054119" lon="12.680263926699071"><ele>80.0</ele><time>2026-05-01T07:37:21.999Z</time></trkpt><trkpt lat="43.82663328752732" lon="12.680266347453223"><ele>82.0</ele><time>2026-05-01T07:37:22.999Z</time></trkpt><trkpt lat="43.82649863342089" lon="12.68029024414694"><ele>84.0</ele><time>2026-05-01T07:37:23.999Z</time></trkpt><trkpt lat="43.82636399865746" lon="12.680332841681286"><ele>86.0</ele><time>2026-05-01T07:37:24.999Z</time></trkpt><trkpt lat="43.82622861374907" lon="12.680381951578436"><ele>86.25</ele><time>2026-05-01T07:37:25.999Z</time></trkpt><trkpt lat="43.82609344077049" lon="12.680443132743958"><ele>86.5</ele><time>2026-05-01T07:37:26.999Z</time></trkpt><trkpt lat="43.82595974322075" lon="12.680506744356371"><ele>86.75</ele><time>2026-05-01T07:37:27.999Z</time></trkpt><trkpt lat="43.82582759792558" lon="12.680574174775108"><ele>87.0</ele><time>2026-05-01T07:37:28.999Z</time></trkpt><trkpt lat="43.82569803147735" lon="12.680635769515975"><ele>87.0</ele><time>2026-05-01T07:37:29.999Z</time></trkpt><trkpt lat="43.82556779261871" lon="12.680694578839159"><ele>87.0</ele><time>2026-05-01T07:37:30.999Z</time></trkpt><trkpt lat="43.82543415378115" lon="12.680753571823463"><ele>87.0</ele><time>2026-05-01T07:37:31.999Z</time></trkpt><trkpt lat="43.82529702750344" lon="12.680808066654658"><ele>87.0</ele><time>2026-05-01T07:37:32.999Z</time></trkpt><trkpt lat="43.82515588169169" lon="12.680852927017428"><ele>87.25</ele><time>2026-05-01T07:37:33.999Z</time></trkpt><trkpt lat="43.82501454952823" lon="12.680889887804982"><ele>87.5</ele><time>2026-05-01T07:37:34.999Z</time></trkpt><trkpt lat="43.82486889682186" lon="12.68091413235464"><ele>87.75</ele><time>2026-05-01T07:37:35.999Z</time></trkpt><trkpt lat="43.824721004930836" lon="12.680920037989505"><ele>88.0</ele><time>2026-05-01T07:37:36.999Z</time></trkpt><trkpt lat="43.8245709724825" lon="12.68090912766953"><ele>88.0</ele><time>2026-05-01T07:37:37.999Z</time></trkpt><trkpt lat="43.824419329041" lon="12.680879828004539"><ele>88.0</ele><time>2026-05-01T07:37:38.999Z</time></trkpt><trkpt lat="43.82426775836729" lon="12.680835434790632"><ele>88.0</ele><time>2026-05-01T07:37:39.999Z</time></trkpt><trkpt lat="43.82411901497059" lon="12.680769352973636"><ele>87.33333333333333</ele><time>2026-05-01T07:37:40.999Z</time></trkpt><trkpt lat="43.823975133252524" lon="12.680690536161883"><ele>86.66666666666667</ele><time>2026-05-01T07:37:41.999Z</time></trkpt><trkpt lat="43.82383444609676" lon="12.680602529920124"><ele>86.0</ele><time>2026-05-01T07:37:42.999Z</time></trkpt><trkpt lat="43.82369916631363" lon="12.680499846797238"><ele>86.0</ele><time>2026-05-01T07:37:43.999Z</time></trkpt><trkpt lat="43.82357089005401" lon="12.680381135383364"><ele>86.0</ele><time>2026-05-01T07:37:44.999Z</time></trkpt><trkpt lat="43.82345190308969" lon="12.680245493020742"><ele>86.0</ele><time>2026-05-01T07:37:45.999Z</time></trkpt><trkpt lat="43.823341784863175" lon="12.680096060732733"><ele>86.33333333333334</ele><time>2026-05-01T07:37:46.999Z</time></trkpt><trkpt lat="43.823240700544495" lon="12.679934657575734"><ele>86.66666666666667</ele><time>2026-05-01T07:37:47.999Z</time></trkpt><trkpt lat="43.823148888929744" lon="12.679761556284825"><ele>87.0</ele><time>2026-05-01T07:37:48.999Z</time></trkpt><trkpt lat="43.82306713902398" lon="12.679576676754172"><ele>87.66666666666667</ele><time>2026-05-01T07:37:49.999Z</time></trkpt><trkpt lat="43.82299286914569" lon="12.679382899173397"><ele>88.33333333333334</ele><time>2026-05-01T07:37:50.999Z</time></trkpt><trkpt lat="43.82292573096031" lon="12.679180794585427"><ele>89.0</ele><time>2026-05-01T07:37:51.999Z</time></trkpt><trkpt lat="43.82286331159024" lon="12.678977848745637"><ele>89.0</ele><time>2026-05-01T07:37:52.999Z</time></trkpt><trkpt lat="43.82280394185824" lon="12.678772766179874"><ele>89.0</ele><time>2026-05-01T07:37:53.999Z</time></trkpt><trkpt lat="43.82274012604068" lon="12.678557135356096"><ele>89.0</ele><time>2026-05-01T07:37:54.999Z</time></trkpt><trkpt lat="43.82266777672289" lon="12.678326157595222"><ele>89.33333333333334</ele><time>2026-05-01T07:37:55.999Z</time></trkpt><trkpt lat="43.82259307305125" lon="12.678085936764736"><ele>89.66666666666667</ele><time>2026-05-01T07:37:56.999Z</time></trkpt><trkpt lat="43.82252002117532" lon="12.677821565791456"><ele>90.0</ele><time>2026-05-01T07:37:57.999Z</time></trkpt><trkpt lat="43.822451327212434" lon="12.67755141267324"><ele>90.0</ele><time>2026-05-01T07:37:58.999Z</time></trkpt><trkpt lat="43.82237912475932" lon="12.677267461260067"><ele>90.0</ele><time>2026-05-01T07:37:59.999Z</time></trkpt><trkpt lat="43.82230778721576" lon="12.676976365754355"><ele>90.0</ele><time>2026-05-01T07:38:00.999Z</time></trkpt><trkpt lat="43.82223999750769" lon="12.676702821771736"><ele>90.33333333333333</ele><time>2026-05-01T07:38:01.999Z</time></trkpt><trkpt lat="43.822174687277666" lon="12.676440572514778"><ele>90.66666666666666</ele><time>2026-05-01T07:38:02.999Z</time></trkpt><trkpt lat="43.82210503821777" lon="12.676174928348242"><ele>91.0</ele><time>2026-05-01T07:38:03.999Z</time></trkpt><trkpt lat="43.822032257962555" lon="12.675910079188547"><ele>91.66666666666666</ele><time>2026-05-01T07:38:04.999Z</time></trkpt><trkpt lat="43.821960678214026" lon="12.675651809474214"><ele>92.33333333333333</ele><time>2026-05-01T07:38:05.999Z</time></trkpt><trkpt lat="43.82189488759081" lon="12.675396943520353"><ele>93.0</ele><time>2026-05-01T07:38:06.999Z</time></trkpt><trkpt lat="43.82183996280816" lon="12.675140023932952"><ele>92.0</ele><time>2026-05-01T07:38:07.999Z</time></trkpt><trkpt lat="43.82180070112351" lon="12.674881049764208"><ele>91.0</ele><time>2026-05-01T07:38:08.999Z</time></trkpt><trkpt lat="43.82178452544824" lon="12.674614084817888"><ele>90.0</ele><time>2026-05-01T07:38:09.999Z</time></trkpt><trkpt lat="43.82178446439438" lon="12.674344914882752"><ele>90.0</ele><time>2026-05-01T07:38:10.999Z</time></trkpt><trkpt lat="43.82178990352047" lon="12.674087262370879"><ele>90.0</ele><time>2026-05-01T07:38:11.999Z</time></trkpt><trkpt lat="43.821790911717116" lon="12.673847975605808"><ele>90.0</ele><time>2026-05-01T07:38:12.999Z</time></trkpt><trkpt lat="43.82179065201482" lon="12.673620239448939"><ele>90.0</ele><time>2026-05-01T07:38:13.999Z</time></trkpt><trkpt lat="43.82179419207154" lon="12.673398372543156"><ele>90.0</ele><time>2026-05-01T07:38:14.999Z</time></trkpt><trkpt lat="43.82179786435618" lon="12.673176188844307"><ele>90.0</ele><time>2026-05-01T07:38:15.999Z</time></trkpt><trkpt lat="43.82180149144681" lon="12.672950468051415"><ele>89.66666666666667</ele><time>2026-05-01T07:38:16.999Z</time></trkpt><trkpt lat="43.82180683084745" lon="12.672726006066512"><ele>89.33333333333334</ele><time>2026-05-01T07:38:17.999Z</time></trkpt><trkpt lat="43.82180976325989" lon="12.672503468971613"><ele>89.0</ele><time>2026-05-01T07:38:18.999Z</time></trkpt><trkpt lat="43.82181305726275" lon="12.672281050656123"><ele>88.66666666666667</ele><time>2026-05-01T07:38:19.999Z</time></trkpt><trkpt lat="43.82181982940411" lon="12.672060132788461"><ele>88.33333333333333</ele><time>2026-05-01T07:38:20.999Z</time></trkpt><trkpt lat="43.821836055867685" lon="12.671840654825669"><ele>88.0</ele><time>2026-05-01T07:38:21.999Z</time></trkpt><trkpt lat="43.82186145188567" lon="12.671621321043327"><ele>89.0</ele><time>2026-05-01T07:38:22.999Z</time></trkpt><trkpt lat="43.82188720444518" lon="12.671401311514787"><ele>90.0</ele><time>2026-05-01T07:38:23.999Z</time></trkpt><trkpt lat="43.8219164105274" lon="12.67118110687583"><ele>91.0</ele><time>2026-05-01T07:38:24.999Z</time></trkpt><trkpt lat="43.82194613797838" lon="12.67096140019172"><ele>92.33333333333333</ele><time>2026-05-01T07:38:25.999Z</time></trkpt><trkpt lat="43.82197708985843" lon="12.67074044510875"><ele>93.66666666666667</ele><time>2026-05-01T07:38:26.999Z</time></trkpt><trkpt lat="43.822008677694114" lon="12.670519745176032"><ele>95.0</ele><time>2026-05-01T07:38:27.999Z</time></trkpt><trkpt lat="43.82204123002267" lon="12.670299631699457"><ele>96.0</ele><time>2026-05-01T07:38:28.999Z</time></trkpt><trkpt lat="43.822071810906806" lon="12.670080929180596"><ele>97.0</ele><time>2026-05-01T07:38:29.999Z</time></trkpt><trkpt lat="43.82210243643827" lon="12.669862288572261"><ele>98.0</ele><time>2026-05-01T07:38:30.999Z</time></trkpt><trkpt lat="43.82212829587251" lon="12.669653725124295"><ele>98.0</ele><time>2026-05-01T07:38:31.999Z</time></trkpt><trkpt lat="43.822141613789896" lon="12.669458592511182"><ele>98.0</ele><time>2026-05-01T07:38:32.999Z</time></trkpt><trkpt lat="43.8221349764953" lon="12.669268642691211"><ele>98.0</ele><time>2026-05-01T07:38:33.999Z</time></trkpt><trkpt lat="43.82210257189001" lon="12.669086793493932"><ele>98.0</ele><time>2026-05-01T07:38:34.999Z</time></trkpt><trkpt lat="43.822043996005256" lon="12.668923702008085"><ele>97.75</ele><time>2026-05-01T07:38:36Z</time></trkpt><trkpt lat="43.821968301651715" lon="12.668785705184499"><ele>97.5</ele><time>2026-05-01T07:38:37Z</time></trkpt><trkpt lat="43.82188084044308" lon="12.668678154070891"><ele>97.25</ele><time>2026-05-01T07:38:38Z</time></trkpt><trkpt lat="43.82179048322956" lon="12.668588252895427"><ele>97.0</ele><time>2026-05-01T07:38:39Z</time></trkpt><trkpt lat="43.82169543193669" lon="12.668509402549446"><ele>98.0</ele><time>2026-05-01T07:38:40Z</time></trkpt><trkpt lat="43.821596029840435" lon="12.668424635645419"><ele>99.0</ele><time>2026-05-01T07:38:41Z</time></trkpt><trkpt lat="43.821499445523905" lon="12.668338694050425"><ele>100.0</ele><time>2026-05-01T07:38:42Z</time></trkpt><trkpt lat="43.82140730632069" lon="12.668256143087007"><ele>101.0</ele><time>2026-05-01T07:38:43Z</time></trkpt><trkpt lat="43.82131335262138" lon="12.668178614686434"><ele>101.0</ele><time>2026-05-01T07:38:44Z</time></trkpt><trkpt lat="43.821223103654674" lon="12.668100943167017"><ele>101.0</ele><time>2026-05-01T07:38:45Z</time></trkpt><trkpt lat="43.821138406936306" lon="12.668027772620254"><ele>101.0</ele><time>2026-05-01T07:38:46Z</time></trkpt><trkpt lat="43.821061363582075" lon="12.667958791411067"><ele>101.0</ele><time>2026-05-01T07:38:47Z</time></trkpt><trkpt lat="43.820981021755294" lon="12.667888266219407"><ele>101.0</ele><time>2026-05-01T07:38:48Z</time></trkpt><trkpt lat="43.820888235914126" lon="12.667823705070399"><ele>101.75</ele><time>2026-05-01T07:38:49Z</time></trkpt><trkpt lat="43.82077576135678" lon="12.66776010386179"><ele>102.5</ele><time>2026-05-01T07:38:50Z</time></trkpt><trkpt lat="43.82064320151591" lon="12.667663320520727"><ele>103.25</ele><time>2026-05-01T07:38:51Z</time></trkpt><trkpt lat="43.82049950404571" lon="12.667546831134306"><ele>104.0</ele><time>2026-05-01T07:38:52Z</time></trkpt><trkpt lat="43.820336267906406" lon="12.667426115370816"><ele>104.0</ele><time>2026-05-01T07:38:53Z</time></trkpt><trkpt lat="43.82017875954924" lon="12.667326619328302"><ele>104.0</ele><time>2026-05-01T07:38:54Z</time></trkpt><trkpt lat="43.82001615523022" lon="12.667230723540513"><ele>104.0</ele><time>2026-05-01T07:38:55Z</time></trkpt><trkpt lat="43.819850272843176" lon="12.667132014534557"><ele>103.33333333333333</ele><time>2026-05-01T07:38:56Z</time></trkpt><trkpt lat="43.81968121042821" lon="12.667030799015556"><ele>102.66666666666666</ele><time>2026-05-01T07:38:57Z</time></trkpt><trkpt lat="43.81950836305902" lon="12.666929118805244"><ele>102.0</ele><time>2026-05-01T07:38:58Z</time></trkpt><trkpt lat="43.81934230640801" lon="12.666832393587214"><ele>103.33333333333334</ele><time>2026-05-01T07:38:59Z</time></trkpt><trkpt lat="43.819173219868624" lon="12.666733471479567"><ele>104.66666666666667</ele><time>2026-05-01T07:39:00Z</time></trkpt><trkpt lat="43.8190009531013" lon="12.666632064586317"><ele>106.0</ele><time>2026-05-01T07:39:01Z</time></trkpt><trkpt lat="43.818826730630136" lon="12.666529008973024"><ele>106.0</ele><time>2026-05-01T07:39:02Z</time></trkpt><trkpt lat="43.818651456473866" lon="12.666425699593747"><ele>106.0</ele><time>2026-05-01T07:39:03Z</time></trkpt><trkpt lat="43.8184758660527" lon="12.666320818739772"><ele>106.0</ele><time>2026-05-01T07:39:04Z</time></trkpt><trkpt lat="43.81830843322297" lon="12.666222125907483"><ele>105.66666666666667</ele><time>2026-05-01T07:39:05Z</time></trkpt><trkpt lat="43.81814822471979" lon="12.666128705745132"><ele>105.33333333333334</ele><time>2026-05-01T07:39:06Z</time></trkpt><trkpt lat="43.81799468437528" lon="12.66603381745437"><ele>105.0</ele><time>2026-05-01T07:39:07Z</time></trkpt><trkpt lat="43.81783697971544" lon="12.665940058270895"><ele>105.25</ele><time>2026-05-01T07:39:08Z</time></trkpt><trkpt lat="43.817692931509534" lon="12.665857226110047"><ele>105.5</ele><time>2026-05-01T07:39:09Z</time></trkpt><trkpt lat="43.81756383059282" lon="12.66578170237821"><ele>105.75</ele><time>2026-05-01T07:39:10Z</time></trkpt><trkpt lat="43.81742949151002" lon="12.665700935252497"><ele>106.0</ele><time>2026-05-01T07:39:11Z</time></trkpt><trkpt lat="43.8172885068922" lon="12.665623656363172"><ele>106.0</ele><time>2026-05-01T07:39:12Z</time></trkpt><trkpt lat="43.81714087284339" lon="12.665541652648832"><ele>106.0</ele><time>2026-05-01T07:39:13Z</time></trkpt><trkpt lat="43.816991083394065" lon="12.665453516623538"><ele>106.0</ele><time>2026-05-01T07:39:14Z</time></trkpt><trkpt lat="43.816838906166424" lon="12.665360376191558"><ele>107.0</ele><time>2026-05-01T07:39:15Z</time></trkpt><trkpt lat="43.816682418996294" lon="12.66526545087488"><ele>108.0</ele><time>2026-05-01T07:39:16Z</time></trkpt><trkpt lat="43.81652272231296" lon="12.665169075101831"><ele>109.0</ele><time>2026-05-01T07:39:17Z</time></trkpt><trkpt lat="43.816357108685196" lon="12.665069403670167"><ele>109.0</ele><time>2026-05-01T07:39:18Z</time></trkpt><trkpt lat="43.81618829690817" lon="12.664968844528783"><ele>109.0</ele><time>2026-05-01T07:39:19Z</time></trkpt><trkpt lat="43.81601731162947" lon="12.664867629927217"><ele>109.0</ele><time>2026-05-01T07:39:20Z</time></trkpt><trkpt lat="43.81584497155879" lon="12.664763774658747"><ele>107.66666666666667</ele><time>2026-05-01T07:39:21Z</time></trkpt><trkpt lat="43.81567099850447" lon="12.66465834676821"><ele>106.33333333333334</ele><time>2026-05-01T07:39:22Z</time></trkpt><trkpt lat="43.81549453834012" lon="12.6645588509948"><ele>105.0</ele><time>2026-05-01T07:39:23Z</time></trkpt><trkpt lat="43.81531363011155" lon="12.664469974246598"><ele>105.33333333333334</ele><time>2026-05-01T07:39:24Z</time></trkpt><trkpt lat="43.81513112002999" lon="12.664392422517098"><ele>105.66666666666667</ele><time>2026-05-01T07:39:25Z</time></trkpt><trkpt lat="43.8149477666565" lon="12.664324942170456"><ele>106.0</ele><time>2026-05-01T07:39:26Z</time></trkpt><trkpt lat="43.81477324360223" lon="12.664260066798077"><ele>106.0</ele><time>2026-05-01T07:39:27Z</time></trkpt><trkpt lat="43.81460526297656" lon="12.664200558447357"><ele>106.0</ele><time>2026-05-01T07:39:28Z</time></trkpt><trkpt lat="43.81444622746194" lon="12.664145345810837"><ele>106.0</ele><time>2026-05-01T07:39:29Z</time></trkpt><trkpt lat="43.81429198817847" lon="12.664089093275173"><ele>106.0</ele><time>2026-05-01T07:39:30Z</time></trkpt><trkpt lat="43.81414064312865" lon="12.664031876996313"><ele>106.0</ele><time>2026-05-01T07:39:31Z</time></trkpt><trkpt lat="43.81399051449885" lon="12.663972885423457"><ele>106.0</ele><time>2026-05-01T07:39:32Z</time></trkpt><trkpt lat="43.8138395138622" lon="12.663907188017216"><ele>106.0</ele><time>2026-05-01T07:39:33Z</time></trkpt><trkpt lat="43.81368509847227" lon="12.663848833857324"><ele>106.0</ele><time>2026-05-01T07:39:34Z</time></trkpt><trkpt lat="43.813530909169735" lon="12.663792175786796"><ele>106.0</ele><time>2026-05-01T07:39:35Z</time></trkpt><trkpt lat="43.81337953093093" lon="12.663736755650326"><ele>106.0</ele><time>2026-05-01T07:39:36Z</time></trkpt><trkpt lat="43.813232707916" lon="12.663681344264193"><ele>106.0</ele><time>2026-05-01T07:39:37Z</time></trkpt><trkpt lat="43.81308535787535" lon="12.663623566097279"><ele>106.0</ele><time>2026-05-01T07:39:38Z</time></trkpt><trkpt lat="43.81293587612567" lon="12.663559122722381"><ele>106.66666666666667</ele><time>2026-05-01T07:39:39Z</time></trkpt><trkpt lat="43.81278497799112" lon="12.6634899116086"><ele>107.33333333333334</ele><time>2026-05-01T07:39:40Z</time></trkpt><trkpt lat="43.81263725125525" lon="12.663400153174555"><ele>108.0</ele><time>2026-05-01T07:39:41Z</time></trkpt><trkpt lat="43.812492151060056" lon="12.663290303214778"><ele>105.33333333333334</ele><time>2026-05-01T07:39:42Z</time></trkpt><trkpt lat="43.81236627459323" lon="12.663154001533925"><ele>102.66666666666667</ele><time>2026-05-01T07:39:43Z</time></trkpt><trkpt lat="43.8122564610221" lon="12.663007691846918"><ele>100.0</ele><time>2026-05-01T07:39:44Z</time></trkpt><trkpt lat="43.81215602703967" lon="12.662843758568485"><ele>99.33333333333334</ele><time>2026-05-01T07:39:45Z</time></trkpt><trkpt lat="43.81204708938832" lon="12.662686410717777"><ele>98.66666666666666</ele><time>2026-05-01T07:39:46Z</time></trkpt><trkpt lat="43.811922657366196" lon="12.662547865487806"><ele>98.0</ele><time>2026-05-01T07:39:47Z</time></trkpt><trkpt lat="43.811786332062724" lon="12.662429461732204"><ele>94.33333333333333</ele><time>2026-05-01T07:39:48Z</time></trkpt><trkpt lat="43.81163936790442" lon="12.662323216292222"><ele>90.66666666666666</ele><time>2026-05-01T07:39:49Z</time></trkpt><trkpt lat="43.811487671762265" lon="12.662219365706799"><ele>87.0</ele><time>2026-05-01T07:39:50Z</time></trkpt><trkpt lat="43.811346043276934" lon="12.662115803026955"><ele>87.0</ele><time>2026-05-01T07:39:51Z</time></trkpt><trkpt lat="43.8112112011331" lon="12.66201009503156"><ele>87.0</ele><time>2026-05-01T07:39:52Z</time></trkpt><trkpt lat="43.81107877774826" lon="12.66189978966453"><ele>87.0</ele><time>2026-05-01T07:39:53Z</time></trkpt><trkpt lat="43.81094567921558" lon="12.661792294114415"><ele>88.33333333333333</ele><time>2026-05-01T07:39:54Z</time></trkpt><trkpt lat="43.81080711488908" lon="12.661682142533342"><ele>89.66666666666666</ele><time>2026-05-01T07:39:55Z</time></trkpt><trkpt lat="43.81067329107242" lon="12.661569657825497"><ele>91.0</ele><time>2026-05-01T07:39:56Z</time></trkpt><trkpt lat="43.81054059539714" lon="12.661459964188273"><ele>91.0</ele><time>2026-05-01T07:39:57Z</time></trkpt><trkpt lat="43.81041556799729" lon="12.661361499726008"><ele>91.0</ele><time>2026-05-01T07:39:58Z</time></trkpt><trkpt lat="43.810298773922945" lon="12.66126770899719"><ele>91.0</ele><time>2026-05-01T07:39:59Z</time></trkpt><trkpt lat="43.81018255594586" lon="12.661179101781864"><ele>91.0</ele><time>2026-05-01T07:40:00Z</time></trkpt><trkpt lat="43.81006427899168" lon="12.661105410662124"><ele>92.5</ele><time>2026-05-01T07:40:01Z</time></trkpt><trkpt lat="43.809938357332186" lon="12.661052220476087"><ele>94.0</ele><time>2026-05-01T07:40:02Z</time></trkpt><trkpt lat="43.80980313931988" lon="12.661025570798286"><ele>95.5</ele><time>2026-05-01T07:40:03Z</time></trkpt><trkpt lat="43.80966506132927" lon="12.661026593172641"><ele>97.0</ele><time>2026-05-01T07:40:04Z</time></trkpt><trkpt lat="43.80952307227215" lon="12.661045143179093"><ele>97.0</ele><time>2026-05-01T07:40:05Z</time></trkpt><trkpt lat="43.809380014836314" lon="12.661074052628374"><ele>97.0</ele><time>2026-05-01T07:40:06Z</time></trkpt><trkpt lat="43.809232895167774" lon="12.661100008275277"><ele>97.0</ele><time>2026-05-01T07:40:06.999Z</time></trkpt><trkpt lat="43.80908943954785" lon="12.661127111004593"><ele>97.0</ele><time>2026-05-01T07:40:07.999Z</time></trkpt><trkpt lat="43.808947061531036" lon="12.661151729185736"><ele>92.0</ele><time>2026-05-01T07:40:08.999Z</time></trkpt><trkpt lat="43.808796600835116" lon="12.66118603938131"><ele>87.0</ele><time>2026-05-01T07:40:09.999Z</time></trkpt><trkpt lat="43.80862386002083" lon="12.661229345739303"><ele>82.0</ele><time>2026-05-01T07:40:10.999Z</time></trkpt><trkpt lat="43.80843032236882" lon="12.66127723921036"><ele>81.66666666666666</ele><time>2026-05-01T07:40:11.999Z</time></trkpt><trkpt lat="43.80821860041021" lon="12.661327947485013"><ele>81.33333333333333</ele><time>2026-05-01T07:40:12.999Z</time></trkpt><trkpt lat="43.80801367314106" lon="12.661372571608249"><ele>81.0</ele><time>2026-05-01T07:40:13.999Z</time></trkpt><trkpt lat="43.807824744368986" lon="12.661399515444877"><ele>81.0</ele><time>2026-05-01T07:40:14.999Z</time></trkpt><trkpt lat="43.80764246602695" lon="12.66142554114192"><ele>81.0</ele><time>2026-05-01T07:40:15.999Z</time></trkpt><trkpt lat="43.807465739421396" lon="12.661454233516825"><ele>81.0</ele><time>2026-05-01T07:40:16.999Z</time></trkpt><trkpt lat="43.80729589234461" lon="12.661493294445263"><ele>81.0</ele><time>2026-05-01T07:40:17.999Z</time></trkpt><trkpt lat="43.80712482677388" lon="12.66152843018706"><ele>81.0</ele><time>2026-05-01T07:40:18.999Z</time></trkpt><trkpt lat="43.8069610510948" lon="12.661557188227151"><ele>81.0</ele><time>2026-05-01T07:40:19.999Z</time></trkpt><trkpt lat="43.806798449257336" lon="12.661586774844539"><ele>81.33333333333333</ele><time>2026-05-01T07:40:20.999Z</time></trkpt><trkpt lat="43.8066367105182" lon="12.661616727310042"><ele>81.66666666666666</ele><time>2026-05-01T07:40:21.999Z</time></trkpt><trkpt lat="43.80647597809562" lon="12.661649330915177"><ele>82.0</ele><time>2026-05-01T07:40:22.999Z</time></trkpt><trkpt lat="43.806320335269106" lon="12.661680582210757"><ele>82.0</ele><time>2026-05-01T07:40:23.999Z</time></trkpt><trkpt lat="43.806169010144565" lon="12.66171087857839"><ele>82.0</ele><time>2026-05-01T07:40:24.999Z</time></trkpt><trkpt lat="43.806019658091664" lon="12.661736699638633"><ele>82.0</ele><time>2026-05-01T07:40:25.999Z</time></trkpt><trkpt lat="43.80586783096721" lon="12.661762451920888"><ele>83.66666666666666</ele><time>2026-05-01T07:40:26.999Z</time></trkpt><trkpt lat="43.805717228824726" lon="12.661783960207757"><ele>85.33333333333333</ele><time>2026-05-01T07:40:27.999Z</time></trkpt><trkpt lat="43.80556637171556" lon="12.661783555703073"><ele>87.0</ele><time>2026-05-01T07:40:28.999Z</time></trkpt><trkpt lat="43.80541814693743" lon="12.661775316413589"><ele>87.0</ele><time>2026-05-01T07:40:29.999Z</time></trkpt><trkpt lat="43.80527307852435" lon="12.661733338830022"><ele>87.0</ele><time>2026-05-01T07:40:30.999Z</time></trkpt><trkpt lat="43.80512358319381" lon="12.661683467485055"><ele>87.0</ele><time>2026-05-01T07:40:31.999Z</time></trkpt><trkpt lat="43.804983430645244" lon="12.66162326292477"><ele>87.0</ele><time>2026-05-01T07:40:32.999Z</time></trkpt><trkpt lat="43.80484674657275" lon="12.661542884218456"><ele>86.66666666666667</ele><time>2026-05-01T07:40:33.999Z</time></trkpt><trkpt lat="43.80470999346714" lon="12.661447331147379"><ele>86.33333333333334</ele><time>2026-05-01T07:40:34.999Z</time></trkpt><trkpt lat="43.80456392077307" lon="12.661333930855513"><ele>86.0</ele><time>2026-05-01T07:40:35.999Z</time></trkpt><trkpt lat="43.804400096771396" lon="12.661210550736325"><ele>85.66666666666667</ele><time>2026-05-01T07:40:37Z</time></trkpt><trkpt lat="43.80421663475763" lon="12.661060555832206"><ele>85.33333333333333</ele><time>2026-05-01T07:40:38Z</time></trkpt><trkpt lat="43.80401515668335" lon="12.66089028632899"><ele>85.0</ele><time>2026-05-01T07:40:39Z</time></trkpt><trkpt lat="43.80379791081508" lon="12.660705909447577"><ele>85.0</ele><time>2026-05-01T07:40:40Z</time></trkpt><trkpt lat="43.80356113401362" lon="12.66051563627461"><ele>85.0</ele><time>2026-05-01T07:40:41Z</time></trkpt><trkpt lat="43.80331265358574" lon="12.660306478108307"><ele>85.0</ele><time>2026-05-01T07:40:42Z</time></trkpt><trkpt lat="43.803049124877546" lon="12.660085969643273"><ele>85.0</ele><time>2026-05-01T07:40:43Z</time></trkpt><trkpt lat="43.802788320234285" lon="12.659866865767208"><ele>85.5</ele><time>2026-05-01T07:40:44Z</time></trkpt><trkpt lat="43.802526303007205" lon="12.659652219492687"><ele>86.0</ele><time>2026-05-01T07:40:45Z</time></trkpt><trkpt lat="43.80226557251264" lon="12.659431597743156"><ele>86.0</ele><time>2026-05-01T07:40:46Z</time></trkpt><trkpt lat="43.802013326443834" lon="12.659216942505216"><ele>86.0</ele><time>2026-05-01T07:40:47Z</time></trkpt><trkpt lat="43.80178331351488" lon="12.659013074683429"><ele>85.5</ele><time>2026-05-01T07:40:48Z</time></trkpt><trkpt lat="43.80156625227802" lon="12.658818558541363"><ele>85.0</ele><time>2026-05-01T07:40:49Z</time></trkpt><trkpt lat="43.80136713722862" lon="12.65864759261259"><ele>85.33333333333333</ele><time>2026-05-01T07:40:50Z</time></trkpt><trkpt lat="43.80117899699622" lon="12.658493761113387"><ele>85.66666666666667</ele><time>2026-05-01T07:40:51Z</time></trkpt><trkpt lat="43.801008330952726" lon="12.65835250040209"><ele>86.0</ele><time>2026-05-01T07:40:52Z</time></trkpt><trkpt lat="43.80084690609001" lon="12.65820023701058"><ele>86.66666666666667</ele><time>2026-05-01T07:40:53Z</time></trkpt><trkpt lat="43.800698608679276" lon="12.658019589006308"><ele>87.33333333333333</ele><time>2026-05-01T07:40:54Z</time></trkpt><trkpt lat="43.80058712369999" lon="12.657802738195109"><ele>88.0</ele><time>2026-05-01T07:40:55Z</time></trkpt><trkpt lat="43.800505923446714" lon="12.657564254232115"><ele>90.33333333333333</ele><time>2026-05-01T07:40:56Z</time></trkpt><trkpt lat="43.80045641831664" lon="12.657303674000458"><ele>92.66666666666667</ele><time>2026-05-01T07:40:57Z</time></trkpt><trkpt lat="43.80043015086113" lon="12.657035509561283"><ele>95.0</ele><time>2026-05-01T07:40:58Z</time></trkpt><trkpt lat="43.80041424141365" lon="12.65676860655634"><ele>96.66666666666667</ele><time>2026-05-01T07:40:59Z</time></trkpt><trkpt lat="43.80038724982148" lon="12.65650485310432"><ele>98.33333333333334</ele><time>2026-05-01T07:41:00Z</time></trkpt><trkpt lat="43.80036031787446" lon="12.656251356166633"><ele>100.0</ele><time>2026-05-01T07:41:01Z</time></trkpt><trkpt lat="43.800336262341894" lon="12.656014060351358"><ele>101.33333333333334</ele><time>2026-05-01T07:41:02Z</time></trkpt><trkpt lat="43.80029465668165" lon="12.65577924680816"><ele>102.66666666666666</ele><time>2026-05-01T07:41:03Z</time></trkpt><trkpt lat="43.80022142331163" lon="12.655552430760999"><ele>104.0</ele><time>2026-05-01T07:41:04Z</time></trkpt><trkpt lat="43.80014402734856" lon="12.655326859041875"><ele>101.0</ele><time>2026-05-01T07:41:05Z</time></trkpt><trkpt lat="43.80003777915266" lon="12.655116812554144"><ele>98.0</ele><time>2026-05-01T07:41:06Z</time></trkpt><trkpt lat="43.79990879623749" lon="12.654927322624445"><ele>95.0</ele><time>2026-05-01T07:41:07Z</time></trkpt><trkpt lat="43.799774403665126" lon="12.65473746054577"><ele>95.0</ele><time>2026-05-01T07:41:08Z</time></trkpt><trkpt lat="43.79963458115492" lon="12.654546178498839"><ele>95.0</ele><time>2026-05-01T07:41:09Z</time></trkpt><trkpt lat="43.799492105683065" lon="12.654352628041622"><ele>95.0</ele><time>2026-05-01T07:41:10Z</time></trkpt><trkpt lat="43.79935416617753" lon="12.654154767392264"><ele>97.33333333333334</ele><time>2026-05-01T07:41:11Z</time></trkpt><trkpt lat="43.79921929204879" lon="12.653968241949748"><ele>99.66666666666667</ele><time>2026-05-01T07:41:12Z</time></trkpt><trkpt lat="43.79908561887292" lon="12.653784384883142"><ele>102.0</ele><time>2026-05-01T07:41:13Z</time></trkpt><trkpt lat="43.79895278791033" lon="12.653607981866747"><ele>107.33333333333334</ele><time>2026-05-01T07:41:14Z</time></trkpt><trkpt lat="43.79881532691472" lon="12.65345378280685"><ele>112.66666666666667</ele><time>2026-05-01T07:41:15Z</time></trkpt><trkpt lat="43.79866477745664" lon="12.653329191715816"><ele>118.0</ele><time>2026-05-01T07:41:16Z</time></trkpt><trkpt lat="43.79850230227137" lon="12.653223392345781"><ele>114.33333333333334</ele><time>2026-05-01T07:41:17Z</time></trkpt><trkpt lat="43.798337596097014" lon="12.653118646472791"><ele>110.66666666666666</ele><time>2026-05-01T07:41:18Z</time></trkpt><trkpt lat="43.798168230231575" lon="12.653017622374096"><ele>107.0</ele><time>2026-05-01T07:41:19Z</time></trkpt><trkpt lat="43.79799916198035" lon="12.652915916145888"><ele>107.0</ele><time>2026-05-01T07:41:20Z</time></trkpt><trkpt lat="43.79783188779651" lon="12.65280733126143"><ele>107.0</ele><time>2026-05-01T07:41:21Z</time></trkpt><trkpt lat="43.797663426851464" lon="12.652695563714188"><ele>107.0</ele><time>2026-05-01T07:41:22Z</time></trkpt><trkpt lat="43.79749820551984" lon="12.652587793854805"><ele>108.33333333333333</ele><time>2026-05-01T07:41:23Z</time></trkpt><trkpt lat="43.79732961169801" lon="12.652486724312482"><ele>109.66666666666666</ele><time>2026-05-01T07:41:24Z</time></trkpt><trkpt lat="43.7971509414928" lon="12.652391610827472"><ele>111.0</ele><time>2026-05-01T07:41:25Z</time></trkpt><trkpt lat="43.796968450504245" lon="12.652298915422243"><ele>109.0</ele><time>2026-05-01T07:41:26Z</time></trkpt><trkpt lat="43.79678426237766" lon="12.652221714189615"><ele>107.0</ele><time>2026-05-01T07:41:27Z</time></trkpt><trkpt lat="43.7965925892163" lon="12.652148825909263"><ele>105.0</ele><time>2026-05-01T07:41:28Z</time></trkpt><trkpt lat="43.79640168852549" lon="12.652066557844458"><ele>105.0</ele><time>2026-05-01T07:41:29Z</time></trkpt><trkpt lat="43.79621256744734" lon="12.651970367384553"><ele>105.0</ele><time>2026-05-01T07:41:30Z</time></trkpt><trkpt lat="43.79602905569695" lon="12.651856152484385"><ele>105.0</ele><time>2026-05-01T07:41:31Z</time></trkpt><trkpt lat="43.79585170102306" lon="12.651721807024991"><ele>106.66666666666666</ele><time>2026-05-01T07:41:32Z</time></trkpt><trkpt lat="43.79567875286669" lon="12.651573036151165"><ele>108.33333333333333</ele><time>2026-05-01T07:41:33Z</time></trkpt><trkpt lat="43.79550089330352" lon="12.651422213844517"><ele>110.0</ele><time>2026-05-01T07:41:34Z</time></trkpt><trkpt lat="43.795327057324826" lon="12.651267948721467"><ele>111.0</ele><time>2026-05-01T07:41:35Z</time></trkpt><trkpt lat="43.79515413282971" lon="12.65111554610124"><ele>112.0</ele><time>2026-05-01T07:41:36Z</time></trkpt><trkpt lat="43.794981074588435" lon="12.650970700489532"><ele>113.0</ele><time>2026-05-01T07:41:37Z</time></trkpt><trkpt lat="43.79480745264918" lon="12.650826305339338"><ele>113.0</ele><time>2026-05-01T07:41:38Z</time></trkpt><trkpt lat="43.79463985701245" lon="12.650673158331495"><ele>113.0</ele><time>2026-05-01T07:41:39Z</time></trkpt><trkpt lat="43.79447503497913" lon="12.650529122789091"><ele>113.0</ele><time>2026-05-01T07:41:40Z</time></trkpt><trkpt lat="43.7943146815521" lon="12.65038090698459"><ele>112.66666666666666</ele><time>2026-05-01T07:41:41Z</time></trkpt><trkpt lat="43.794155714334906" lon="12.650244736912516"><ele>112.33333333333334</ele><time>2026-05-01T07:41:42Z</time></trkpt><trkpt lat="43.79401000335393" lon="12.65011496447548"><ele>112.0</ele><time>2026-05-01T07:41:43Z</time></trkpt><trkpt lat="43.79386906733584" lon="12.649990378169583"><ele>112.0</ele><time>2026-05-01T07:41:44Z</time></trkpt><trkpt lat="43.79371832890501" lon="12.649881019761178"><ele>112.0</ele><time>2026-05-01T07:41:45Z</time></trkpt><trkpt lat="43.79357647349035" lon="12.649760674027876"><ele>112.0</ele><time>2026-05-01T07:41:46Z</time></trkpt><trkpt lat="43.793435638915724" lon="12.649635728399174"><ele>112.33333333333334</ele><time>2026-05-01T07:41:47Z</time></trkpt><trkpt lat="43.793294099475546" lon="12.649508507213437"><ele>112.66666666666666</ele><time>2026-05-01T07:41:48Z</time></trkpt><trkpt lat="43.7931540044593" lon="12.649385233694073"><ele>113.0</ele><time>2026-05-01T07:41:49Z</time></trkpt><trkpt lat="43.79302170559544" lon="12.649273479175095"><ele>113.0</ele><time>2026-05-01T07:41:50Z</time></trkpt><trkpt lat="43.79289842389951" lon="12.649168328226741"><ele>113.0</ele><time>2026-05-01T07:41:51Z</time></trkpt><trkpt lat="43.79278669906448" lon="12.6490530272555"><ele>113.0</ele><time>2026-05-01T07:41:52Z</time></trkpt><trkpt lat="43.792707758822864" lon="12.64888658801622"><ele>113.0</ele><time>2026-05-01T07:41:53Z</time></trkpt><trkpt lat="43.7926544699343" lon="12.648681174157774"><ele>111.66666666666666</ele><time>2026-05-01T07:41:54Z</time></trkpt><trkpt lat="43.792631007413064" lon="12.648456716187633"><ele>110.33333333333334</ele><time>2026-05-01T07:41:55Z</time></trkpt><trkpt lat="43.79263087895564" lon="12.648218935543994"><ele>109.0</ele><time>2026-05-01T07:41:56Z</time></trkpt><trkpt lat="43.79263236870062" lon="12.6479814799144"><ele>109.66666666666667</ele><time>2026-05-01T07:41:57Z</time></trkpt><trkpt lat="43.79263487805782" lon="12.64774492335309"><ele>110.33333333333334</ele><time>2026-05-01T07:41:58Z</time></trkpt><trkpt lat="43.792631481594874" lon="12.64750921920761"><ele>111.0</ele><time>2026-05-01T07:41:59Z</time></trkpt><trkpt lat="43.79262304755799" lon="12.647262864167365"><ele>111.0</ele><time>2026-05-01T07:42:00Z</time></trkpt><trkpt lat="43.792601508607305" lon="12.647018190864882"><ele>111.0</ele><time>2026-05-01T07:42:01Z</time></trkpt><trkpt lat="43.79255913088541" lon="12.646773740208365"><ele>111.0</ele><time>2026-05-01T07:42:02Z</time></trkpt><trkpt lat="43.79249414600708" lon="12.646535183841667"><ele>111.33333333333334</ele><time>2026-05-01T07:42:03Z</time></trkpt><trkpt lat="43.79240258111183" lon="12.64628777116258"><ele>111.66666666666667</ele><time>2026-05-01T07:42:04Z</time></trkpt><trkpt lat="43.792265296689635" lon="12.646032573526368"><ele>112.0</ele><time>2026-05-01T07:42:05Z</time></trkpt><trkpt lat="43.79212930082593" lon="12.645743277780827"><ele>114.5</ele><time>2026-05-01T07:42:06Z</time></trkpt><trkpt lat="43.79199218752669" lon="12.645427392737977"><ele>117.0</ele><time>2026-05-01T07:42:07Z</time></trkpt><trkpt lat="43.79185166477349" lon="12.645081448949291"><ele>118.0</ele><time>2026-05-01T07:42:08Z</time></trkpt><trkpt lat="43.79171059791451" lon="12.644713556349911"><ele>119.0</ele><time>2026-05-01T07:42:09Z</time></trkpt><trkpt lat="43.79156815468361" lon="12.644342982125032"><ele>119.0</ele><time>2026-05-01T07:42:10Z</time></trkpt><trkpt lat="43.79143309825377" lon="12.64400377549688"><ele>119.0</ele><time>2026-05-01T07:42:11Z</time></trkpt><trkpt lat="43.79130542625987" lon="12.643691534379148"><ele>120.5</ele><time>2026-05-01T07:42:12Z</time></trkpt><trkpt lat="43.79118223750302" lon="12.643394050154686"><ele>122.0</ele><time>2026-05-01T07:42:13Z</time></trkpt><trkpt lat="43.791067054716784" lon="12.643114177791386"><ele>120.66666666666666</ele><time>2026-05-01T07:42:14Z</time></trkpt><trkpt lat="43.79095233315593" lon="12.64284951637584"><ele>119.33333333333334</ele><time>2026-05-01T07:42:15Z</time></trkpt><trkpt lat="43.79083856668063" lon="12.642587603204937"><ele>118.0</ele><time>2026-05-01T07:42:16Z</time></trkpt><trkpt lat="43.790728549682456" lon="12.642324338406521"><ele>118.0</ele><time>2026-05-01T07:42:17Z</time></trkpt><trkpt lat="43.79062823885572" lon="12.6420496929106"><ele>118.0</ele><time>2026-05-01T07:42:18Z</time></trkpt><trkpt lat="43.79054638429898" lon="12.641764087713048"><ele>118.0</ele><time>2026-05-01T07:42:19Z</time></trkpt><trkpt lat="43.7904825526641" lon="12.64146873578393"><ele>119.66666666666667</ele><time>2026-05-01T07:42:20Z</time></trkpt><trkpt lat="43.79045207662508" lon="12.641182085932835"><ele>121.33333333333334</ele><time>2026-05-01T07:42:21Z</time></trkpt><trkpt lat="43.79045630609668" lon="12.640904989146291"><ele>123.0</ele><time>2026-05-01T07:42:22Z</time></trkpt><trkpt lat="43.79051140905395" lon="12.64062556188203"><ele>123.33333333333334</ele><time>2026-05-01T07:42:23Z</time></trkpt><trkpt lat="43.79059431220003" lon="12.640344135352471"><ele>123.66666666666667</ele><time>2026-05-01T07:42:24Z</time></trkpt><trkpt lat="43.790704820241125" lon="12.640066138302783"><ele>124.0</ele><time>2026-05-01T07:42:25Z</time></trkpt><trkpt lat="43.79083135413902" lon="12.639794679791601"><ele>123.5</ele><time>2026-05-01T07:42:26Z</time></trkpt><trkpt lat="43.79096013812372" lon="12.639527632395824"><ele>123.0</ele><time>2026-05-01T07:42:27Z</time></trkpt><trkpt lat="43.791081250491985" lon="12.63927116108542"><ele>123.0</ele><time>2026-05-01T07:42:28Z</time></trkpt><trkpt lat="43.79119222538518" lon="12.638999013654143"><ele>123.0</ele><time>2026-05-01T07:42:29Z</time></trkpt><trkpt lat="43.79128239884267" lon="12.638715010571731"><ele>119.5</ele><time>2026-05-01T07:42:30Z</time></trkpt><trkpt lat="43.791345004366846" lon="12.638417322899878"><ele>116.0</ele><time>2026-05-01T07:42:31Z</time></trkpt><trkpt lat="43.79138967512569" lon="12.638109293904034"><ele>112.0</ele><time>2026-05-01T07:42:32Z</time></trkpt><trkpt lat="43.79140563050147" lon="12.637788464263307"><ele>108.0</ele><time>2026-05-01T07:42:33Z</time></trkpt><trkpt lat="43.791394015678975" lon="12.637460979891507"><ele>108.0</ele><time>2026-05-01T07:42:34Z</time></trkpt><trkpt lat="43.7913624959197" lon="12.63712837142194"><ele>108.0</ele><time>2026-05-01T07:42:35Z</time></trkpt><trkpt lat="43.791326497660684" lon="12.636791686304973"><ele>106.0</ele><time>2026-05-01T07:42:36Z</time></trkpt><trkpt lat="43.79129383001888" lon="12.636451003163826"><ele>104.0</ele><time>2026-05-01T07:42:37Z</time></trkpt><trkpt lat="43.79126390809913" lon="12.63610552047654"><ele>103.0</ele><time>2026-05-01T07:42:38Z</time></trkpt><trkpt lat="43.791230855253524" lon="12.63575886219792"><ele>102.0</ele><time>2026-05-01T07:42:39Z</time></trkpt><trkpt lat="43.79119661333809" lon="12.63540880544063"><ele>102.0</ele><time>2026-05-01T07:42:40Z</time></trkpt><trkpt lat="43.791161042924266" lon="12.635057565693328"><ele>102.0</ele><time>2026-05-01T07:42:41Z</time></trkpt><trkpt lat="43.791125686833354" lon="12.634704548996233"><ele>101.0</ele><time>2026-05-01T07:42:42Z</time></trkpt><trkpt lat="43.79109184571747" lon="12.634350402836372"><ele>100.0</ele><time>2026-05-01T07:42:43Z</time></trkpt><trkpt lat="43.7910537486548" lon="12.63400573972407"><ele>100.0</ele><time>2026-05-01T07:42:44Z</time></trkpt><trkpt lat="43.79101584411641" lon="12.633672837022413"><ele>100.0</ele><time>2026-05-01T07:42:45Z</time></trkpt><trkpt lat="43.790981727611765" lon="12.633342421445054"><ele>99.5</ele><time>2026-05-01T07:42:46Z</time></trkpt><trkpt lat="43.790947571524" lon="12.633021622306929"><ele>99.0</ele><time>2026-05-01T07:42:47Z</time></trkpt><trkpt lat="43.79091691080689" lon="12.632720194172279"><ele>98.33333333333334</ele><time>2026-05-01T07:42:48Z</time></trkpt><trkpt lat="43.790898485154784" lon="12.632432528953853"><ele>97.66666666666667</ele><time>2026-05-01T07:42:49Z</time></trkpt><trkpt lat="43.79089030861113" lon="12.632144828902623"><ele>97.0</ele><time>2026-05-01T07:42:50Z</time></trkpt><trkpt lat="43.79089511101435" lon="12.631848908877188"><ele>97.0</ele><time>2026-05-01T07:42:51Z</time></trkpt><trkpt lat="43.790916475651045" lon="12.631549092613927"><ele>97.0</ele><time>2026-05-01T07:42:52Z</time></trkpt><trkpt lat="43.79094961342443" lon="12.631246526511896"><ele>97.0</ele><time>2026-05-01T07:42:53Z</time></trkpt><trkpt lat="43.79099293032396" lon="12.630943588213375"><ele>98.66666666666667</ele><time>2026-05-01T07:42:54Z</time></trkpt><trkpt lat="43.79105425696395" lon="12.6306459738307"><ele>100.33333333333334</ele><time>2026-05-01T07:42:55Z</time></trkpt><trkpt lat="43.79113099283175" lon="12.63035620737631"><ele>102.0</ele><time>2026-05-01T07:42:56Z</time></trkpt><trkpt lat="43.7912234868742" lon="12.63007390676136"><ele>102.0</ele><time>2026-05-01T07:42:57Z</time></trkpt><trkpt lat="43.791327296266964" lon="12.629799831126732"><ele>102.0</ele><time>2026-05-01T07:42:58Z</time></trkpt><trkpt lat="43.7914417091071" lon="12.629532818564844"><ele>102.0</ele><time>2026-05-01T07:42:59Z</time></trkpt><trkpt lat="43.79156007381718" lon="12.629265791998854"><ele>102.0</ele><time>2026-05-01T07:43:00Z</time></trkpt><trkpt lat="43.79168323878747" lon="12.628993984337393"><ele>102.0</ele><time>2026-05-01T07:43:01Z</time></trkpt><trkpt lat="43.791815985682696" lon="12.628691561466828"><ele>101.0</ele><time>2026-05-01T07:43:02Z</time></trkpt><trkpt lat="43.7919565533414" lon="12.628370457453382"><ele>100.0</ele><time>2026-05-01T07:43:03Z</time></trkpt><trkpt lat="43.79211171093406" lon="12.628049004226948"><ele>100.0</ele><time>2026-05-01T07:43:04Z</time></trkpt><trkpt lat="43.79227680266225" lon="12.627736815864798"><ele>100.0</ele><time>2026-05-01T07:43:05Z</time></trkpt><trkpt lat="43.792427527285675" lon="12.627439966818317"><ele>100.0</ele><time>2026-05-01T07:43:06Z</time></trkpt><trkpt lat="43.79256892934131" lon="12.627158458083759"><ele>100.0</ele><time>2026-05-01T07:43:07Z</time></trkpt><trkpt lat="43.79269998410239" lon="12.626891596679474"><ele>101.5</ele><time>2026-05-01T07:43:08Z</time></trkpt><trkpt lat="43.79282680614983" lon="12.626631750148674"><ele>103.0</ele><time>2026-05-01T07:43:09Z</time></trkpt><trkpt lat="43.792950432260746" lon="12.62637169818045"><ele>102.5</ele><time>2026-05-01T07:43:10Z</time></trkpt><trkpt lat="43.79307407202273" lon="12.62610726210241"><ele>102.0</ele><time>2026-05-01T07:43:11Z</time></trkpt><trkpt lat="43.793194620991855" lon="12.625845121712512"><ele>102.0</ele><time>2026-05-01T07:43:12Z</time></trkpt><trkpt lat="43.79330949863266" lon="12.625597028320833"><ele>102.0</ele><time>2026-05-01T07:43:13Z</time></trkpt><trkpt lat="43.79341429981448" lon="12.625362540250647"><ele>102.0</ele><time>2026-05-01T07:43:14Z</time></trkpt><trkpt lat="43.793513281865415" lon="12.625137226776767"><ele>102.0</ele><time>2026-05-01T07:43:15Z</time></trkpt><trkpt lat="43.79361044414399" lon="12.624915271913945"><ele>102.0</ele><time>2026-05-01T07:43:16Z</time></trkpt><trkpt lat="43.79370339594487" lon="12.624693660180832"><ele>102.0</ele><time>2026-05-01T07:43:17Z</time></trkpt><trkpt lat="43.79378691614414" lon="12.624482453641058"><ele>102.0</ele><time>2026-05-01T07:43:18Z</time></trkpt><trkpt lat="43.79385722197601" lon="12.624285856723834"><ele>102.0</ele><time>2026-05-01T07:43:19Z</time></trkpt><trkpt lat="43.79392426195572" lon="12.624109308015724"><ele>102.0</ele><time>2026-05-01T07:43:20Z</time></trkpt><trkpt lat="43.79399420343044" lon="12.623967924132574"><ele>102.0</ele><time>2026-05-01T07:43:21Z</time></trkpt><trkpt lat="43.794071652788595" lon="12.62385611804462"><ele>102.0</ele><time>2026-05-01T07:43:22Z</time></trkpt><trkpt lat="43.79414184185728" lon="12.62374827630542"><ele>102.0</ele><time>2026-05-01T07:43:23Z</time></trkpt><trkpt lat="43.794171518004205" lon="12.623583903703116"><ele>102.0</ele><time>2026-05-01T07:43:24Z</time></trkpt><trkpt lat="43.79417442521524" lon="12.623396488055567"><ele>102.0</ele><time>2026-05-01T07:43:25Z</time></trkpt><trkpt lat="43.79420514179626" lon="12.62320814799603"><ele>102.33333333333334</ele><time>2026-05-01T07:43:26Z</time></trkpt><trkpt lat="43.79426625680634" lon="12.62301577895341"><ele>102.66666666666667</ele><time>2026-05-01T07:43:27Z</time></trkpt><trkpt lat="43.79431754846261" lon="12.622807682991745"><ele>103.0</ele><time>2026-05-01T07:43:28Z</time></trkpt><trkpt lat="43.79436990601578" lon="12.622589487093256"><ele>103.0</ele><time>2026-05-01T07:43:29Z</time></trkpt><trkpt lat="43.79442447610754" lon="12.622370662919574"><ele>103.0</ele><time>2026-05-01T07:43:30Z</time></trkpt><trkpt lat="43.79447754828529" lon="12.622147899402732"><ele>103.0</ele><time>2026-05-01T07:43:31Z</time></trkpt><trkpt lat="43.79453324134031" lon="12.621917278884682"><ele>103.0</ele><time>2026-05-01T07:43:32Z</time></trkpt><trkpt lat="43.79459911465118" lon="12.62168135009074"><ele>103.0</ele><time>2026-05-01T07:43:33Z</time></trkpt><trkpt lat="43.79466886394066" lon="12.621441500738797"><ele>103.0</ele><time>2026-05-01T07:43:34Z</time></trkpt><trkpt lat="43.79473878769649" lon="12.621198081565204"><ele>103.0</ele><time>2026-05-01T07:43:35Z</time></trkpt><trkpt lat="43.79481374138452" lon="12.620945184109338"><ele>103.0</ele><time>2026-05-01T07:43:36Z</time></trkpt><trkpt lat="43.79489610191652" lon="12.620686137951706"><ele>103.0</ele><time>2026-05-01T07:43:37Z</time></trkpt><trkpt lat="43.79498768463886" lon="12.620426984198627"><ele>103.0</ele><time>2026-05-01T07:43:38Z</time></trkpt><trkpt lat="43.79508636221834" lon="12.62017261781588"><ele>103.0</ele><time>2026-05-01T07:43:39Z</time></trkpt><trkpt lat="43.79519889556116" lon="12.61992312395429"><ele>103.0</ele><time>2026-05-01T07:43:40Z</time></trkpt><trkpt lat="43.7953257184873" lon="12.619681417160706"><ele>104.33333333333334</ele><time>2026-05-01T07:43:41Z</time></trkpt><trkpt lat="43.79545919669181" lon="12.619443954207396"><ele>105.66666666666666</ele><time>2026-05-01T07:43:42Z</time></trkpt><trkpt lat="43.79560170068675" lon="12.619211493411722"><ele>107.0</ele><time>2026-05-01T07:43:43Z</time></trkpt><trkpt lat="43.7957544052334" lon="12.618988155565498"><ele>107.0</ele><time>2026-05-01T07:43:44Z</time></trkpt><trkpt lat="43.79591776242998" lon="12.618776101356335"><ele>107.0</ele><time>2026-05-01T07:43:45Z</time></trkpt><trkpt lat="43.79608841785089" lon="12.618569335872024"><ele>108.5</ele><time>2026-05-01T07:43:46Z</time></trkpt><trkpt lat="43.796264810742805" lon="12.618354906493616"><ele>110.0</ele><time>2026-05-01T07:43:47Z</time></trkpt><trkpt lat="43.79644647464054" lon="12.618144913299703"><ele>110.0</ele><time>2026-05-01T07:43:48Z</time></trkpt><trkpt lat="43.796618884931924" lon="12.617942766846339"><ele>110.0</ele><time>2026-05-01T07:43:49Z</time></trkpt><trkpt lat="43.796794331387" lon="12.617734097465698"><ele>110.5</ele><time>2026-05-01T07:43:50Z</time></trkpt><trkpt lat="43.79697146332336" lon="12.617521361157738"><ele>111.0</ele><time>2026-05-01T07:43:51Z</time></trkpt><trkpt lat="43.79714975267092" lon="12.617307656648332"><ele>111.0</ele><time>2026-05-01T07:43:52Z</time></trkpt><trkpt lat="43.79732676768574" lon="12.61709510197642"><ele>111.0</ele><time>2026-05-01T07:43:53Z</time></trkpt><trkpt lat="43.797511777906344" lon="12.616875442393214"><ele>110.0</ele><time>2026-05-01T07:43:54Z</time></trkpt><trkpt lat="43.797695245941725" lon="12.61666103159844"><ele>109.0</ele><time>2026-05-01T07:43:55Z</time></trkpt><trkpt lat="43.7978760809438" lon="12.616449148544339"><ele>109.0</ele><time>2026-05-01T07:43:56Z</time></trkpt><trkpt lat="43.79805925775441" lon="12.616229090777878"><ele>109.0</ele><time>2026-05-01T07:43:57Z</time></trkpt><trkpt lat="43.798245092412124" lon="12.616007039518081"><ele>108.0</ele><time>2026-05-01T07:43:58Z</time></trkpt><trkpt lat="43.798429756482044" lon="12.615786459995787"><ele>107.0</ele><time>2026-05-01T07:43:59Z</time></trkpt><trkpt lat="43.798612894991244" lon="12.615565969956862"><ele>107.0</ele><time>2026-05-01T07:44:00Z</time></trkpt><trkpt lat="43.79879777691213" lon="12.615348919038398"><ele>107.0</ele><time>2026-05-01T07:44:01Z</time></trkpt><trkpt lat="43.79898151298009" lon="12.615131245402779"><ele>107.0</ele><time>2026-05-01T07:44:02Z</time></trkpt><trkpt lat="43.799165289710665" lon="12.614913387812571"><ele>107.0</ele><time>2026-05-01T07:44:03Z</time></trkpt><trkpt lat="43.79934858124587" lon="12.614693442029521"><ele>107.0</ele><time>2026-05-01T07:44:04Z</time></trkpt><trkpt lat="43.79953060534467" lon="12.614476395687852"><ele>107.0</ele><time>2026-05-01T07:44:05Z</time></trkpt><trkpt lat="43.799711779925126" lon="12.614264580899583"><ele>107.0</ele><time>2026-05-01T07:44:06Z</time></trkpt><trkpt lat="43.79989124313278" lon="12.614055093267364"><ele>107.0</ele><time>2026-05-01T07:44:07Z</time></trkpt><trkpt lat="43.80006828081433" lon="12.613845470377175"><ele>107.5</ele><time>2026-05-01T07:44:08Z</time></trkpt><trkpt lat="43.80024466659171" lon="12.61363660446447"><ele>108.0</ele><time>2026-05-01T07:44:09Z</time></trkpt><trkpt lat="43.80041887442745" lon="12.613424255867768"><ele>108.0</ele><time>2026-05-01T07:44:10Z</time></trkpt><trkpt lat="43.80059162087439" lon="12.613213169867045"><ele>108.0</ele><time>2026-05-01T07:44:11Z</time></trkpt><trkpt lat="43.80076619187413" lon="12.613005986562106"><ele>108.5</ele><time>2026-05-01T07:44:12Z</time></trkpt><trkpt lat="43.80094091871187" lon="12.61280285309432"><ele>109.0</ele><time>2026-05-01T07:44:13Z</time></trkpt><trkpt lat="43.80111461416173" lon="12.612597023995152"><ele>109.5</ele><time>2026-05-01T07:44:14Z</time></trkpt><trkpt lat="43.80128842347158" lon="12.612392794925979"><ele>110.0</ele><time>2026-05-01T07:44:15Z</time></trkpt><trkpt lat="43.80145834167682" lon="12.612186743805307"><ele>110.0</ele><time>2026-05-01T07:44:16Z</time></trkpt><trkpt lat="43.801627053535256" lon="12.61198121641571"><ele>110.0</ele><time>2026-05-01T07:44:17Z</time></trkpt><trkpt lat="43.801793174678934" lon="12.611777840583628"><ele>110.0</ele><time>2026-05-01T07:44:18Z</time></trkpt><trkpt lat="43.80196232696438" lon="12.611577792986472"><ele>110.0</ele><time>2026-05-01T07:44:19Z</time></trkpt><trkpt lat="43.80213172928481" lon="12.611379228555311"><ele>110.0</ele><time>2026-05-01T07:44:20Z</time></trkpt><trkpt lat="43.802302159472355" lon="12.611183191220212"><ele>110.0</ele><time>2026-05-01T07:44:21Z</time></trkpt><trkpt lat="43.802472859158726" lon="12.610987947568946"><ele>110.0</ele><time>2026-05-01T07:44:22Z</time></trkpt><trkpt lat="43.802640051900326" lon="12.610790563954739"><ele>110.0</ele><time>2026-05-01T07:44:23Z</time></trkpt><trkpt lat="43.802809414886084" lon="12.610595582862535"><ele>110.0</ele><time>2026-05-01T07:44:24Z</time></trkpt><trkpt lat="43.80297836287679" lon="12.610397281862097"><ele>110.66666666666666</ele><time>2026-05-01T07:44:25Z</time></trkpt><trkpt lat="43.80314299729857" lon="12.610197592337588"><ele>111.33333333333334</ele><time>2026-05-01T07:44:26Z</time></trkpt><trkpt lat="43.80330923360216" lon="12.60999646930625"><ele>112.0</ele><time>2026-05-01T07:44:27Z</time></trkpt><trkpt lat="43.80347664860441" lon="12.609800460838102"><ele>114.33333333333334</ele><time>2026-05-01T07:44:28Z</time></trkpt><trkpt lat="43.80364611818399" lon="12.609606964345256"><ele>116.66666666666666</ele><time>2026-05-01T07:44:29Z</time></trkpt><trkpt lat="43.80382139966924" lon="12.609420123528853"><ele>119.0</ele><time>2026-05-01T07:44:30Z</time></trkpt><trkpt lat="43.804001365345584" lon="12.60923824330595"><ele>119.0</ele><time>2026-05-01T07:44:31Z</time></trkpt><trkpt lat="43.80418568228168" lon="12.60906992468765"><ele>119.0</ele><time>2026-05-01T07:44:32Z</time></trkpt><trkpt lat="43.80436935487454" lon="12.608919338758735"><ele>119.0</ele><time>2026-05-01T07:44:33Z</time></trkpt><trkpt lat="43.80455663732733" lon="12.608782694562018"><ele>119.33333333333333</ele><time>2026-05-01T07:44:34Z</time></trkpt><trkpt lat="43.804745146505205" lon="12.608659935503345"><ele>119.66666666666666</ele><time>2026-05-01T07:44:35Z</time></trkpt><trkpt lat="43.804936534119086" lon="12.608548083517803"><ele>120.0</ele><time>2026-05-01T07:44:36Z</time></trkpt><trkpt lat="43.805129970233295" lon="12.608451462227436"><ele>119.66666666666666</ele><time>2026-05-01T07:44:37Z</time></trkpt><trkpt lat="43.80532846691669" lon="12.608364886409666"><ele>119.33333333333333</ele><time>2026-05-01T07:44:38Z</time></trkpt><trkpt lat="43.80552368693006" lon="12.608280703012946"><ele>119.0</ele><time>2026-05-01T07:44:39Z</time></trkpt><trkpt lat="43.80570994758243" lon="12.608199078797226"><ele>119.0</ele><time>2026-05-01T07:44:40Z</time></trkpt><trkpt lat="43.80589564519418" lon="12.608111078663967"><ele>119.0</ele><time>2026-05-01T07:44:41Z</time></trkpt><trkpt lat="43.8060909877436" lon="12.608050253277172"><ele>119.0</ele><time>2026-05-01T07:44:42Z</time></trkpt><trkpt lat="43.80628056381746" lon="12.607977657734533"><ele>119.33333333333333</ele><time>2026-05-01T07:44:43Z</time></trkpt><trkpt lat="43.80646839747296" lon="12.607901868098766"><ele>119.66666666666666</ele><time>2026-05-01T07:44:44Z</time></trkpt><trkpt lat="43.80665582132368" lon="12.607824562705254"><ele>120.0</ele><time>2026-05-01T07:44:45Z</time></trkpt><trkpt lat="43.806844185680696" lon="12.60774634162795"><ele>120.66666666666666</ele><time>2026-05-01T07:44:46Z</time></trkpt><trkpt lat="43.80703243909799" lon="12.6076729350593"><ele>121.33333333333333</ele><time>2026-05-01T07:44:47Z</time></trkpt><trkpt lat="43.80722077617844" lon="12.60760135746136"><ele>122.0</ele><time>2026-05-01T07:44:48Z</time></trkpt><trkpt lat="43.80741213458902" lon="12.60752741648926"><ele>122.0</ele><time>2026-05-01T07:44:49Z</time></trkpt><trkpt lat="43.80760700896955" lon="12.607450498574499"><ele>122.0</ele><time>2026-05-01T07:44:50Z</time></trkpt><trkpt lat="43.80780451584522" lon="12.607373874776727"><ele>122.0</ele><time>2026-05-01T07:44:51Z</time></trkpt><trkpt lat="43.80800099431417" lon="12.607296393002164"><ele>122.66666666666666</ele><time>2026-05-01T07:44:52Z</time></trkpt><trkpt lat="43.8082015510016" lon="12.607217189337206"><ele>123.33333333333334</ele><time>2026-05-01T07:44:53Z</time></trkpt><trkpt lat="43.808401796449374" lon="12.607135765581472"><ele>124.0</ele><time>2026-05-01T07:44:54Z</time></trkpt><trkpt lat="43.80860364604107" lon="12.607049292664703"><ele>123.0</ele><time>2026-05-01T07:44:55Z</time></trkpt><trkpt lat="43.80880721603311" lon="12.606947200396883"><ele>122.0</ele><time>2026-05-01T07:44:56Z</time></trkpt><trkpt lat="43.809005204682876" lon="12.60682917939531"><ele>121.0</ele><time>2026-05-01T07:44:57Z</time></trkpt><trkpt lat="43.80919575259215" lon="12.60668669778609"><ele>122.0</ele><time>2026-05-01T07:44:58Z</time></trkpt><trkpt lat="43.80938243273456" lon="12.60652806100638"><ele>123.0</ele><time>2026-05-01T07:44:59Z</time></trkpt><trkpt lat="43.80956306983816" lon="12.606348641211998"><ele>124.0</ele><time>2026-05-01T07:45:00Z</time></trkpt><trkpt lat="43.8097408911972" lon="12.606157066397312"><ele>124.0</ele><time>2026-05-01T07:45:01Z</time></trkpt><trkpt lat="43.809913996854796" lon="12.605954978905856"><ele>124.0</ele><time>2026-05-01T07:45:02Z</time></trkpt><trkpt lat="43.810075616650536" lon="12.60573841476816"><ele>125.0</ele><time>2026-05-01T07:45:03Z</time></trkpt><trkpt lat="43.810228434958944" lon="12.605510003146021"><ele>126.0</ele><time>2026-05-01T07:45:04Z</time></trkpt><trkpt lat="43.81037008054121" lon="12.605268841818475"><ele>127.0</ele><time>2026-05-01T07:45:05Z</time></trkpt><trkpt lat="43.810496473998064" lon="12.605011431469892"><ele>127.0</ele><time>2026-05-01T07:45:06Z</time></trkpt><trkpt lat="43.81060342246599" lon="12.604739173043637"><ele>127.0</ele><time>2026-05-01T07:45:07Z</time></trkpt><trkpt lat="43.810695850583606" lon="12.604458237636862"><ele>127.0</ele><time>2026-05-01T07:45:08Z</time></trkpt><trkpt lat="43.81077305113993" lon="12.60416594458912"><ele>126.5</ele><time>2026-05-01T07:45:09Z</time></trkpt><trkpt lat="43.81084149985347" lon="12.603867435441037"><ele>126.0</ele><time>2026-05-01T07:45:10Z</time></trkpt><trkpt lat="43.81090521608301" lon="12.603569276151347"><ele>126.0</ele><time>2026-05-01T07:45:11Z</time></trkpt><trkpt lat="43.81096375436642" lon="12.603263748697755"><ele>126.0</ele><time>2026-05-01T07:45:12Z</time></trkpt><trkpt lat="43.81101334467816" lon="12.602958052701485"><ele>127.66666666666666</ele><time>2026-05-01T07:45:13Z</time></trkpt><trkpt lat="43.81105473887344" lon="12.602669793117132"><ele>129.33333333333331</ele><time>2026-05-01T07:45:14Z</time></trkpt><trkpt lat="43.81109154787435" lon="12.602397441757226"><ele>131.0</ele><time>2026-05-01T07:45:15Z</time></trkpt><trkpt lat="43.81112868942478" lon="12.602143838544723"><ele>131.0</ele><time>2026-05-01T07:45:16Z</time></trkpt><trkpt lat="43.811171818531975" lon="12.6018905514352"><ele>131.0</ele><time>2026-05-01T07:45:17Z</time></trkpt><trkpt lat="43.81120809804829" lon="12.601652859741716"><ele>131.0</ele><time>2026-05-01T07:45:18Z</time></trkpt><trkpt lat="43.811234161889466" lon="12.60141868025731"><ele>131.0</ele><time>2026-05-01T07:45:19Z</time></trkpt><trkpt lat="43.811263888724085" lon="12.601181745425375"><ele>131.0</ele><time>2026-05-01T07:45:20Z</time></trkpt><trkpt lat="43.811300892500846" lon="12.60094275991427"><ele>131.0</ele><time>2026-05-01T07:45:21Z</time></trkpt><trkpt lat="43.81133724259555" lon="12.60069864781191"><ele>131.0</ele><time>2026-05-01T07:45:22Z</time></trkpt><trkpt lat="43.811371710711306" lon="12.6004519898805"><ele>131.0</ele><time>2026-05-01T07:45:23Z</time></trkpt><trkpt lat="43.81140125180036" lon="12.600205388182962"><ele>131.0</ele><time>2026-05-01T07:45:24Z</time></trkpt><trkpt lat="43.81142471794964" lon="12.59995703694119"><ele>131.0</ele><time>2026-05-01T07:45:25Z</time></trkpt><trkpt lat="43.81144142498284" lon="12.59970722440929"><ele>131.0</ele><time>2026-05-01T07:45:26Z</time></trkpt><trkpt lat="43.81145296861265" lon="12.599455850786349"><ele>131.0</ele><time>2026-05-01T07:45:27Z</time></trkpt><trkpt lat="43.811457029182606" lon="12.599202407988864"><ele>130.0</ele><time>2026-05-01T07:45:28Z</time></trkpt><trkpt lat="43.811454853837695" lon="12.598945244011922"><ele>129.0</ele><time>2026-05-01T07:45:29Z</time></trkpt><trkpt lat="43.81144120306047" lon="12.598678412054843"><ele>128.0</ele><time>2026-05-01T07:45:30Z</time></trkpt><trkpt lat="43.81141845149917" lon="12.598400690938394"><ele>127.0</ele><time>2026-05-01T07:45:31Z</time></trkpt><trkpt lat="43.81138118081241" lon="12.598113289601201"><ele>126.0</ele><time>2026-05-01T07:45:32Z</time></trkpt><trkpt lat="43.81133573284838" lon="12.597813030108854"><ele>125.0</ele><time>2026-05-01T07:45:33Z</time></trkpt><trkpt lat="43.811287239181304" lon="12.59750971109735"><ele>123.5</ele><time>2026-05-01T07:45:34Z</time></trkpt><trkpt lat="43.811236159606324" lon="12.597203979860536"><ele>122.0</ele><time>2026-05-01T07:45:35Z</time></trkpt><trkpt lat="43.8111842994321" lon="12.596892215256139"><ele>121.5</ele><time>2026-05-01T07:45:36Z</time></trkpt><trkpt lat="43.81113140218645" lon="12.596576387250437"><ele>121.0</ele><time>2026-05-01T07:45:37Z</time></trkpt><trkpt lat="43.81107593435088" lon="12.596262269123006"><ele>122.0</ele><time>2026-05-01T07:45:38Z</time></trkpt><trkpt lat="43.81102082816755" lon="12.595942803381872"><ele>123.0</ele><time>2026-05-01T07:45:39Z</time></trkpt><trkpt lat="43.81096620598031" lon="12.595621968136502"><ele>121.5</ele><time>2026-05-01T07:45:40Z</time></trkpt><trkpt lat="43.810910605327614" lon="12.595303138084972"><ele>120.0</ele><time>2026-05-01T07:45:41Z</time></trkpt><trkpt lat="43.81085569872838" lon="12.594986702926487"><ele>120.0</ele><time>2026-05-01T07:45:42Z</time></trkpt><trkpt lat="43.810802837752206" lon="12.594669914307508"><ele>120.0</ele><time>2026-05-01T07:45:43Z</time></trkpt><trkpt lat="43.81075617315792" lon="12.594351176153172"><ele>121.5</ele><time>2026-05-01T07:45:44Z</time></trkpt><trkpt lat="43.81071732607781" lon="12.594030533949066"><ele>123.0</ele><time>2026-05-01T07:45:45Z</time></trkpt><trkpt lat="43.810686915139556" lon="12.593711182398106"><ele>123.0</ele><time>2026-05-01T07:45:46Z</time></trkpt><trkpt lat="43.81066727712338" lon="12.593385218446167"><ele>123.0</ele><time>2026-05-01T07:45:47Z</time></trkpt><trkpt lat="43.81067399784919" lon="12.593056871623926"><ele>124.0</ele><time>2026-05-01T07:45:48Z</time></trkpt><trkpt lat="43.81070044752951" lon="12.592733499416008"><ele>125.0</ele><time>2026-05-01T07:45:49Z</time></trkpt><trkpt lat="43.810737335823696" lon="12.592410442742203"><ele>125.0</ele><time>2026-05-01T07:45:50Z</time></trkpt><trkpt lat="43.81077925484749" lon="12.59208617910819"><ele>125.0</ele><time>2026-05-01T07:45:51Z</time></trkpt><trkpt lat="43.81083050829697" lon="12.591763997754379"><ele>125.5</ele><time>2026-05-01T07:45:52Z</time></trkpt><trkpt lat="43.810891890475546" lon="12.591440876693968"><ele>126.0</ele><time>2026-05-01T07:45:53Z</time></trkpt><trkpt lat="43.81095313258378" lon="12.591115801282339"><ele>125.5</ele><time>2026-05-01T07:45:54Z</time></trkpt><trkpt lat="43.81101246910035" lon="12.590788071255883"><ele>125.0</ele><time>2026-05-01T07:45:55Z</time></trkpt><trkpt lat="43.811072683990275" lon="12.590459704863026"><ele>123.5</ele><time>2026-05-01T07:45:56Z</time></trkpt><trkpt lat="43.811137116875535" lon="12.590133988815667"><ele>122.0</ele><time>2026-05-01T07:45:57Z</time></trkpt><trkpt lat="43.81120349465305" lon="12.589808205931483"><ele>121.5</ele><time>2026-05-01T07:45:58Z</time></trkpt><trkpt lat="43.81126888216273" lon="12.589481521251548"><ele>121.0</ele><time>2026-05-01T07:45:59Z</time></trkpt><trkpt lat="43.811334050679584" lon="12.589153464485277"><ele>121.0</ele><time>2026-05-01T07:46:00Z</time></trkpt><trkpt lat="43.81139712761425" lon="12.58882731022094"><ele>121.0</ele><time>2026-05-01T07:46:01Z</time></trkpt><trkpt lat="43.81145321961976" lon="12.588497391699798"><ele>121.0</ele><time>2026-05-01T07:46:02Z</time></trkpt><trkpt lat="43.81150065364117" lon="12.58816762732232"><ele>121.0</ele><time>2026-05-01T07:46:03Z</time></trkpt><trkpt lat="43.81152761151003" lon="12.587840759217949"><ele>121.5</ele><time>2026-05-01T07:46:04Z</time></trkpt><trkpt lat="43.811541520039" lon="12.587515460845742"><ele>122.0</ele><time>2026-05-01T07:46:05Z</time></trkpt><trkpt lat="43.811547396737346" lon="12.587193280988105"><ele>122.5</ele><time>2026-05-01T07:46:06Z</time></trkpt><trkpt lat="43.81155270572434" lon="12.58686932265378"><ele>123.0</ele><time>2026-05-01T07:46:07Z</time></trkpt><trkpt lat="43.81155155423929" lon="12.58654807141359"><ele>123.0</ele><time>2026-05-01T07:46:08Z</time></trkpt><trkpt lat="43.81154841924587" lon="12.586224203033312"><ele>123.0</ele><time>2026-05-01T07:46:09Z</time></trkpt><trkpt lat="43.81154756483034" lon="12.585901839794905"><ele>123.5</ele><time>2026-05-01T07:46:10Z</time></trkpt><trkpt lat="43.81154728361526" lon="12.585582251040945"><ele>124.0</ele><time>2026-05-01T07:46:11Z</time></trkpt><trkpt lat="43.81154896934871" lon="12.585263866021448"><ele>125.5</ele><time>2026-05-01T07:46:12Z</time></trkpt><trkpt lat="43.811544906430065" lon="12.584948491898997"><ele>127.0</ele><time>2026-05-01T07:46:13Z</time></trkpt><trkpt lat="43.81153427746219" lon="12.584636578714518"><ele>127.5</ele><time>2026-05-01T07:46:14Z</time></trkpt><trkpt lat="43.811527996799065" lon="12.584320348676375"><ele>128.0</ele><time>2026-05-01T07:46:15Z</time></trkpt><trkpt lat="43.81152089553536" lon="12.584004293622161"><ele>128.0</ele><time>2026-05-01T07:46:16Z</time></trkpt><trkpt lat="43.811518759218984" lon="12.583688460967203"><ele>128.0</ele><time>2026-05-01T07:46:17Z</time></trkpt><trkpt lat="43.811520400379955" lon="12.583378004210786"><ele>129.0</ele><time>2026-05-01T07:46:18Z</time></trkpt><trkpt lat="43.81153054694379" lon="12.583068317005166"><ele>130.0</ele><time>2026-05-01T07:46:19Z</time></trkpt><trkpt lat="43.81154539672178" lon="12.58276244077036"><ele>131.0</ele><time>2026-05-01T07:46:20Z</time></trkpt><trkpt lat="43.81156867560199" lon="12.582461425627105"><ele>131.0</ele><time>2026-05-01T07:46:21Z</time></trkpt><trkpt lat="43.81159503115484" lon="12.582160435788808"><ele>131.0</ele><time>2026-05-01T07:46:22Z</time></trkpt><trkpt lat="43.81162790036199" lon="12.581862175209253"><ele>131.0</ele><time>2026-05-01T07:46:23Z</time></trkpt><trkpt lat="43.81166954694106" lon="12.581564110797878"><ele>130.0</ele><time>2026-05-01T07:46:24Z</time></trkpt><trkpt lat="43.811711831540045" lon="12.581265852587194"><ele>129.0</ele><time>2026-05-01T07:46:25Z</time></trkpt><trkpt lat="43.81175189824116" lon="12.580965825862009"><ele>128.0</ele><time>2026-05-01T07:46:26Z</time></trkpt><trkpt lat="43.811791197912676" lon="12.580664262649114"><ele>129.0</ele><time>2026-05-01T07:46:27Z</time></trkpt><trkpt lat="43.81183362127212" lon="12.580365605073954"><ele>130.0</ele><time>2026-05-01T07:46:28Z</time></trkpt><trkpt lat="43.811877058627985" lon="12.580067682666606"><ele>131.0</ele><time>2026-05-01T07:46:29Z</time></trkpt><trkpt lat="43.811919144358306" lon="12.579766921479308"><ele>130.0</ele><time>2026-05-01T07:46:30Z</time></trkpt><trkpt lat="43.81196063868258" lon="12.579467508256776"><ele>129.0</ele><time>2026-05-01T07:46:31Z</time></trkpt><trkpt lat="43.81200044669004" lon="12.579166799879573"><ele>128.0</ele><time>2026-05-01T07:46:32Z</time></trkpt><trkpt lat="43.81203361945832" lon="12.5788692892577"><ele>128.66666666666666</ele><time>2026-05-01T07:46:33Z</time></trkpt><trkpt lat="43.81206054298994" lon="12.578578615052177"><ele>129.33333333333334</ele><time>2026-05-01T07:46:34Z</time></trkpt><trkpt lat="43.81208042135214" lon="12.578298113316773"><ele>130.0</ele><time>2026-05-01T07:46:35Z</time></trkpt><trkpt lat="43.81209720115823" lon="12.578015797086163"><ele>130.33333333333334</ele><time>2026-05-01T07:46:36Z</time></trkpt><trkpt lat="43.812108777554755" lon="12.577743105995822"><ele>130.66666666666666</ele><time>2026-05-01T07:46:37Z</time></trkpt><trkpt lat="43.81211813878035" lon="12.577482372309056"><ele>131.0</ele><time>2026-05-01T07:46:38Z</time></trkpt><trkpt lat="43.812124920438556" lon="12.577220904115887"><ele>131.66666666666666</ele><time>2026-05-01T07:46:39Z</time></trkpt><trkpt lat="43.81213203285624" lon="12.57695634980516"><ele>132.33333333333334</ele><time>2026-05-01T07:46:40Z</time></trkpt><trkpt lat="43.812136052880525" lon="12.576690911304782"><ele>133.0</ele><time>2026-05-01T07:46:41Z</time></trkpt><trkpt lat="43.812140035679725" lon="12.576425498550439"><ele>133.33333333333334</ele><time>2026-05-01T07:46:42Z</time></trkpt><trkpt lat="43.81214377294168" lon="12.576164060284464"><ele>133.66666666666666</ele><time>2026-05-01T07:46:43Z</time></trkpt><trkpt lat="43.81214765728561" lon="12.575903597056465"><ele>134.0</ele><time>2026-05-01T07:46:44Z</time></trkpt><trkpt lat="43.812150352121535" lon="12.57564388877122"><ele>134.0</ele><time>2026-05-01T07:46:45Z</time></trkpt><trkpt lat="43.812153488697426" lon="12.57538340578722"><ele>134.0</ele><time>2026-05-01T07:46:46Z</time></trkpt><trkpt lat="43.812162768213526" lon="12.57511864044634"><ele>134.0</ele><time>2026-05-01T07:46:47Z</time></trkpt><trkpt lat="43.81217854329736" lon="12.574858628698708"><ele>133.66666666666666</ele><time>2026-05-01T07:46:48Z</time></trkpt><trkpt lat="43.81220288920943" lon="12.574596058819228"><ele>133.33333333333334</ele><time>2026-05-01T07:46:49Z</time></trkpt><trkpt lat="43.81223431867776" lon="12.574336528272655"><ele>133.0</ele><time>2026-05-01T07:46:50Z</time></trkpt><trkpt lat="43.81227197457124" lon="12.574089620858167"><ele>133.0</ele><time>2026-05-01T07:46:51Z</time></trkpt><trkpt lat="43.812315730620845" lon="12.573856676967585"><ele>133.0</ele><time>2026-05-01T07:46:52Z</time></trkpt><trkpt lat="43.81236253174224" lon="12.573642566924192"><ele>133.0</ele><time>2026-05-01T07:46:53Z</time></trkpt><trkpt lat="43.8124121657687" lon="12.573447214486318"><ele>133.5</ele><time>2026-05-01T07:46:54Z</time></trkpt><trkpt lat="43.812462286947415" lon="12.573265859678882"><ele>134.0</ele><time>2026-05-01T07:46:55Z</time></trkpt><trkpt lat="43.812510635726284" lon="12.57310328863483"><ele>134.5</ele><time>2026-05-01T07:46:56Z</time></trkpt><trkpt lat="43.81255780953423" lon="12.57294969261206"><ele>135.0</ele><time>2026-05-01T07:46:57Z</time></trkpt><trkpt lat="43.812604584542" lon="12.57280531291371"><ele>135.4</ele><time>2026-05-01T07:46:58Z</time></trkpt><trkpt lat="43.8126493767753" lon="12.572671005059291"><ele>135.8</ele><time>2026-05-01T07:46:59Z</time></trkpt><trkpt lat="43.81269193746684" lon="12.572553654204247"><ele>136.2</ele><time>2026-05-01T07:47:00Z</time></trkpt><trkpt lat="43.81272974448626" lon="12.572445511673232"><ele>136.6</ele><time>2026-05-01T07:47:01Z</time></trkpt><trkpt lat="43.81276805138194" lon="12.572343076773883"><ele>137.0</ele><time>2026-05-01T07:47:02Z</time></trkpt><trkpt lat="43.81281046910274" lon="12.572243627218675"><ele>138.16666666666666</ele><time>2026-05-01T07:47:03Z</time></trkpt><trkpt lat="43.81286640093693" lon="12.572157420946603"><ele>139.33333333333331</ele><time>2026-05-01T07:47:04Z</time></trkpt><trkpt lat="43.81293653516996" lon="12.572090624698529"><ele>140.5</ele><time>2026-05-01T07:47:05Z</time></trkpt><trkpt lat="43.813011854692114" lon="12.57203470716123"><ele>141.66666666666666</ele><time>2026-05-01T07:47:06Z</time></trkpt><trkpt lat="43.81310186902795" lon="12.572027114631437"><ele>142.83333333333334</ele><time>2026-05-01T07:47:07Z</time></trkpt><trkpt lat="43.81318939848774" lon="12.572026320168368"><ele>144.0</ele><time>2026-05-01T07:47:08Z</time></trkpt><trkpt lat="43.81327213926721" lon="12.571984142492695"><ele>144.6</ele><time>2026-05-01T07:47:09Z</time></trkpt><trkpt lat="43.813338236034866" lon="12.571904764853628"><ele>145.2</ele><time>2026-05-01T07:47:10Z</time></trkpt><trkpt lat="43.813382299168396" lon="12.571792129779379"><ele>145.79999999999998</ele><time>2026-05-01T07:47:11Z</time></trkpt><trkpt lat="43.813381594946186" lon="12.571655564110095"><ele>146.4</ele><time>2026-05-01T07:47:12Z</time></trkpt><trkpt lat="43.81335089828333" lon="12.571522600845126"><ele>147.0</ele><time>2026-05-01T07:47:13Z</time></trkpt><trkpt lat="43.81329262935102" lon="12.571388293315485"><ele>147.0</ele><time>2026-05-01T07:47:14Z</time></trkpt><trkpt lat="43.81324938025216" lon="12.5712392818147"><ele>147.0</ele><time>2026-05-01T07:47:15Z</time></trkpt><trkpt lat="43.81324482938114" lon="12.571070316384448"><ele>147.0</ele><time>2026-05-01T07:47:16Z</time></trkpt><trkpt lat="43.813263913950934" lon="12.570898248299539"><ele>147.0</ele><time>2026-05-01T07:47:17Z</time></trkpt><trkpt lat="43.81328534047707" lon="12.570718739657085"><ele>147.0</ele><time>2026-05-01T07:47:18Z</time></trkpt><trkpt lat="43.81330958654989" lon="12.570527872861247"><ele>147.0</ele><time>2026-05-01T07:47:19Z</time></trkpt><trkpt lat="43.8133368154681" lon="12.570322610164036"><ele>147.0</ele><time>2026-05-01T07:47:20Z</time></trkpt><trkpt lat="43.813359997228055" lon="12.570103795541256"><ele>147.0</ele><time>2026-05-01T07:47:21Z</time></trkpt><trkpt lat="43.813384284812265" lon="12.569888339312241"><ele>147.0</ele><time>2026-05-01T07:47:22Z</time></trkpt><trkpt lat="43.81341090828195" lon="12.569688671054884"><ele>147.0</ele><time>2026-05-01T07:47:23Z</time></trkpt><trkpt lat="43.813435017866155" lon="12.569484719811632"><ele>146.25</ele><time>2026-05-01T07:47:24Z</time></trkpt><trkpt lat="43.813454600277026" lon="12.569290641301883"><ele>145.5</ele><time>2026-05-01T07:47:25Z</time></trkpt><trkpt lat="43.81347095821609" lon="12.569111175411033"><ele>144.75</ele><time>2026-05-01T07:47:26Z</time></trkpt><trkpt lat="43.81347778388208" lon="12.568937932800175"><ele>144.0</ele><time>2026-05-01T07:47:27Z</time></trkpt><trkpt lat="43.81347576920919" lon="12.56877139542076"><ele>144.25</ele><time>2026-05-01T07:47:28Z</time></trkpt><trkpt lat="43.813461367520965" lon="12.568608287742748"><ele>144.5</ele><time>2026-05-01T07:47:29Z</time></trkpt><trkpt lat="43.81344404016674" lon="12.56844543965224"><ele>144.75</ele><time>2026-05-01T07:47:30Z</time></trkpt><trkpt lat="43.8134224022141" lon="12.568268195787748"><ele>145.0</ele><time>2026-05-01T07:47:31Z</time></trkpt><trkpt lat="43.81339197598018" lon="12.568088306939226"><ele>145.0</ele><time>2026-05-01T07:47:32Z</time></trkpt><trkpt lat="43.813358196465416" lon="12.567905984963303"><ele>145.0</ele><time>2026-05-01T07:47:33Z</time></trkpt><trkpt lat="43.81332105301059" lon="12.567725335153971"><ele>145.0</ele><time>2026-05-01T07:47:34Z</time></trkpt><trkpt lat="43.8132854057438" lon="12.567549529954283"><ele>145.0</ele><time>2026-05-01T07:47:35Z</time></trkpt><trkpt lat="43.81325505852584" lon="12.567373748125878"><ele>145.25</ele><time>2026-05-01T07:47:36Z</time></trkpt><trkpt lat="43.8132232713975" lon="12.567195454057353"><ele>145.5</ele><time>2026-05-01T07:47:37Z</time></trkpt><trkpt lat="43.81318306887602" lon="12.567014684274818"><ele>145.75</ele><time>2026-05-01T07:47:38Z</time></trkpt><trkpt lat="43.81314663173912" lon="12.566828197323153"><ele>146.0</ele><time>2026-05-01T07:47:39Z</time></trkpt><trkpt lat="43.81310977923859" lon="12.566647192764032"><ele>147.0</ele><time>2026-05-01T07:47:40Z</time></trkpt><trkpt lat="43.813085161997506" lon="12.566455699168126"><ele>148.0</ele><time>2026-05-01T07:47:41Z</time></trkpt><trkpt lat="43.81307604465805" lon="12.566261227422734"><ele>149.0</ele><time>2026-05-01T07:47:42Z</time></trkpt><trkpt lat="43.81309278675975" lon="12.5660588550456"><ele>150.0</ele><time>2026-05-01T07:47:43Z</time></trkpt><trkpt lat="43.81310331747672" lon="12.565854167498223"><ele>152.25</ele><time>2026-05-01T07:47:44Z</time></trkpt><trkpt lat="43.81309512657793" lon="12.565649944758883"><ele>154.5</ele><time>2026-05-01T07:47:45Z</time></trkpt><trkpt lat="43.813074869238505" lon="12.565440752144"><ele>156.75</ele><time>2026-05-01T07:47:46Z</time></trkpt><trkpt lat="43.81304333392209" lon="12.56524006433782"><ele>159.0</ele><time>2026-05-01T07:47:47Z</time></trkpt><trkpt lat="43.812991600844015" lon="12.565048212942258"><ele>160.0</ele><time>2026-05-01T07:47:48Z</time></trkpt><trkpt lat="43.812928662460955" lon="12.564860662136159"><ele>161.0</ele><time>2026-05-01T07:47:49Z</time></trkpt><trkpt lat="43.812854304641974" lon="12.564679679325403"><ele>162.0</ele><time>2026-05-01T07:47:50Z</time></trkpt><trkpt lat="43.81278415137942" lon="12.56449259088099"><ele>162.5</ele><time>2026-05-01T07:47:51Z</time></trkpt><trkpt lat="43.81271833830221" lon="12.564311874984744"><ele>163.0</ele><time>2026-05-01T07:47:52Z</time></trkpt><trkpt lat="43.812669733004725" lon="12.564131520419712"><ele>163.5</ele><time>2026-05-01T07:47:53Z</time></trkpt><trkpt lat="43.81263924303894" lon="12.56393964885522"><ele>164.0</ele><time>2026-05-01T07:47:54Z</time></trkpt><trkpt lat="43.81263721962642" lon="12.563746232891669"><ele>161.5</ele><time>2026-05-01T07:47:55Z</time></trkpt><trkpt lat="43.812651264706695" lon="12.563560181328349"><ele>159.0</ele><time>2026-05-01T07:47:56Z</time></trkpt><trkpt lat="43.81264104892069" lon="12.563373936164776"><ele>156.5</ele><time>2026-05-01T07:47:57Z</time></trkpt><trkpt lat="43.8125935328427" lon="12.563187565547826"><ele>154.0</ele><time>2026-05-01T07:47:58Z</time></trkpt><trkpt lat="43.81250930396028" lon="12.56302226401906"><ele>154.0</ele><time>2026-05-01T07:47:59Z</time></trkpt><trkpt lat="43.81240173601599" lon="12.562884476808687"><ele>154.0</ele><time>2026-05-01T07:48:00Z</time></trkpt><trkpt lat="43.8122765397931" lon="12.562780944872422"><ele>154.0</ele><time>2026-05-01T07:48:01Z</time></trkpt><trkpt lat="43.812135212777406" lon="12.562716252787576"><ele>154.0</ele><time>2026-05-01T07:48:02Z</time></trkpt><trkpt lat="43.811987364735494" lon="12.562687553542691"><ele>154.25</ele><time>2026-05-01T07:48:03Z</time></trkpt><trkpt lat="43.811840607213796" lon="12.562655550419851"><ele>154.5</ele><time>2026-05-01T07:48:04Z</time></trkpt><trkpt lat="43.81169740606169" lon="12.562621373898553"><ele>154.75</ele><time>2026-05-01T07:48:05Z</time></trkpt><trkpt lat="43.81155596281998" lon="12.562581661677756"><ele>155.0</ele><time>2026-05-01T07:48:06Z</time></trkpt><trkpt lat="43.8114230838106" lon="12.562537845268745"><ele>155.0</ele><time>2026-05-01T07:48:07Z</time></trkpt><trkpt lat="43.81129639198915" lon="12.562483224144772"><ele>155.0</ele><time>2026-05-01T07:48:08Z</time></trkpt><trkpt lat="43.811182203005444" lon="12.562400947395599"><ele>155.0</ele><time>2026-05-01T07:48:09Z</time></trkpt><trkpt lat="43.811082320729035" lon="12.562269462788743"><ele>155.0</ele><time>2026-05-01T07:48:10Z</time></trkpt><trkpt lat="43.81102149171829" lon="12.562089032372757"><ele>156.0</ele><time>2026-05-01T07:48:11Z</time></trkpt><trkpt lat="43.8110102745903" lon="12.561896090288725"><ele>157.0</ele><time>2026-05-01T07:48:12Z</time></trkpt><trkpt lat="43.81105464783169" lon="12.561708314284266"><ele>158.0</ele><time>2026-05-01T07:48:13Z</time></trkpt><trkpt lat="43.81113278645099" lon="12.561559092388062"><ele>159.0</ele><time>2026-05-01T07:48:14Z</time></trkpt><trkpt lat="43.8112129822758" lon="12.56140146581024"><ele>159.0</ele><time>2026-05-01T07:48:15Z</time></trkpt><trkpt lat="43.811304023715635" lon="12.56123205563162"><ele>159.0</ele><time>2026-05-01T07:48:16Z</time></trkpt><trkpt lat="43.81140358026247" lon="12.561058728487271"><ele>159.0</ele><time>2026-05-01T07:48:17Z</time></trkpt><trkpt lat="43.81150793473567" lon="12.560888778994222"><ele>156.66666666666666</ele><time>2026-05-01T07:48:18Z</time></trkpt><trkpt lat="43.81161048171245" lon="12.56070988965794"><ele>154.33333333333331</ele><time>2026-05-01T07:48:19Z</time></trkpt><trkpt lat="43.811705680366416" lon="12.560532004984813"><ele>152.0</ele><time>2026-05-01T07:48:20Z</time></trkpt><trkpt lat="43.81179492868596" lon="12.560367823608427"><ele>152.0</ele><time>2026-05-01T07:48:21Z</time></trkpt><trkpt lat="43.81187783026591" lon="12.560209567145915"><ele>152.0</ele><time>2026-05-01T07:48:22Z</time></trkpt><trkpt lat="43.81194262514688" lon="12.560030145664523"><ele>152.0</ele><time>2026-05-01T07:48:23Z</time></trkpt><trkpt lat="43.811986416531035" lon="12.559821526422237"><ele>152.0</ele><time>2026-05-01T07:48:24Z</time></trkpt><trkpt lat="43.81202218866754" lon="12.559579272508843"><ele>149.66666666666666</ele><time>2026-05-01T07:48:25Z</time></trkpt><trkpt lat="43.81203476964532" lon="12.559352529202586"><ele>147.33333333333334</ele><time>2026-05-01T07:48:26Z</time></trkpt><trkpt lat="43.81203300580026" lon="12.559114661268508"><ele>145.0</ele><time>2026-05-01T07:48:27Z</time></trkpt><trkpt lat="43.81202674129693" lon="12.55887848287661"><ele>145.33333333333334</ele><time>2026-05-01T07:48:28Z</time></trkpt><trkpt lat="43.81201709114937" lon="12.558656026428006"><ele>145.66666666666666</ele><time>2026-05-01T07:48:29Z</time></trkpt><trkpt lat="43.81200478293548" lon="12.558433522479534"><ele>146.0</ele><time>2026-05-01T07:48:30Z</time></trkpt><trkpt lat="43.8120031589926" lon="12.558210807046068"><ele>146.0</ele><time>2026-05-01T07:48:31Z</time></trkpt><trkpt lat="43.811998701004114" lon="12.55798882801596"><ele>146.0</ele><time>2026-05-01T07:48:32Z</time></trkpt><trkpt lat="43.81198743463246" lon="12.557783328054565"><ele>146.0</ele><time>2026-05-01T07:48:33Z</time></trkpt><trkpt lat="43.81195045716362" lon="12.55758663138224"><ele>146.33333333333331</ele><time>2026-05-01T07:48:34Z</time></trkpt><trkpt lat="43.811923438238175" lon="12.557379382319036"><ele>146.66666666666666</ele><time>2026-05-01T07:48:35Z</time></trkpt><trkpt lat="43.81189756734376" lon="12.557169860362364"><ele>147.0</ele><time>2026-05-01T07:48:36Z</time></trkpt><trkpt lat="43.81186861103741" lon="12.556959080221876"><ele>146.33333333333334</ele><time>2026-05-01T07:48:37Z</time></trkpt><trkpt lat="43.81183706024021" lon="12.556750574843546"><ele>145.66666666666669</ele><time>2026-05-01T07:48:38Z</time></trkpt><trkpt lat="43.81180321822667" lon="12.556541604452393"><ele>145.0</ele><time>2026-05-01T07:48:39Z</time></trkpt><trkpt lat="43.81176793418486" lon="12.556333873336568"><ele>145.33333333333334</ele><time>2026-05-01T07:48:40Z</time></trkpt><trkpt lat="43.81173223199611" lon="12.556124113876603"><ele>145.66666666666666</ele><time>2026-05-01T07:48:41Z</time></trkpt><trkpt lat="43.811697175705106" lon="12.555915321978086"><ele>146.0</ele><time>2026-05-01T07:48:42Z</time></trkpt><trkpt lat="43.811661044091636" lon="12.55570971387718"><ele>146.0</ele><time>2026-05-01T07:48:43Z</time></trkpt><trkpt lat="43.811625435559975" lon="12.55551384693628"><ele>146.0</ele><time>2026-05-01T07:48:44Z</time></trkpt><trkpt lat="43.811590162521966" lon="12.55531641654798"><ele>146.0</ele><time>2026-05-01T07:48:45Z</time></trkpt><trkpt lat="43.81155699998851" lon="12.555137989554984"><ele>146.0</ele><time>2026-05-01T07:48:46Z</time></trkpt><trkpt lat="43.81152457600816" lon="12.55497143778911"><ele>147.0</ele><time>2026-05-01T07:48:47Z</time></trkpt><trkpt lat="43.81149508425464" lon="12.554810886800404"><ele>148.0</ele><time>2026-05-01T07:48:48Z</time></trkpt><trkpt lat="43.81146947223337" lon="12.554658383275353"><ele>149.0</ele><time>2026-05-01T07:48:49Z</time></trkpt><trkpt lat="43.811445053418836" lon="12.554512368965023"><ele>150.0</ele><time>2026-05-01T07:48:50Z</time></trkpt><trkpt lat="43.811421627745275" lon="12.554362499347937"><ele>150.75</ele><time>2026-05-01T07:48:51Z</time></trkpt><trkpt lat="43.81139703355395" lon="12.55421398553711"><ele>151.5</ele><time>2026-05-01T07:48:52Z</time></trkpt><trkpt lat="43.811373158699155" lon="12.55405991062819"><ele>152.25</ele><time>2026-05-01T07:48:53Z</time></trkpt><trkpt lat="43.8113476361592" lon="12.55389981497447"><ele>153.0</ele><time>2026-05-01T07:48:54Z</time></trkpt><trkpt lat="43.81132069532905" lon="12.553734791086056"><ele>153.25</ele><time>2026-05-01T07:48:55Z</time></trkpt><trkpt lat="43.8112926366997" lon="12.553565671248409"><ele>153.5</ele><time>2026-05-01T07:48:56Z</time></trkpt><trkpt lat="43.81124449133607" lon="12.553393801258284"><ele>153.75</ele><time>2026-05-01T07:48:57Z</time></trkpt><trkpt lat="43.81118224300426" lon="12.55322412660227"><ele>154.0</ele><time>2026-05-01T07:48:58Z</time></trkpt><trkpt lat="43.81111315887184" lon="12.55305808708666"><ele>154.0</ele><time>2026-05-01T07:48:59Z</time></trkpt><trkpt lat="43.81103083459245" lon="12.552903075976463"><ele>154.0</ele><time>2026-05-01T07:49:00Z</time></trkpt><trkpt lat="43.81094384082439" lon="12.552772178007121"><ele>154.0</ele><time>2026-05-01T07:49:01Z</time></trkpt><trkpt lat="43.810850535147296" lon="12.552657371868484"><ele>154.0</ele><time>2026-05-01T07:49:02Z</time></trkpt><trkpt lat="43.8107498217456" lon="12.552554260840028"><ele>155.0</ele><time>2026-05-01T07:49:03Z</time></trkpt><trkpt lat="43.81065038476124" lon="12.552458491182694"><ele>156.0</ele><time>2026-05-01T07:49:04Z</time></trkpt><trkpt lat="43.81055932855959" lon="12.552375126155924"><ele>157.0</ele><time>2026-05-01T07:49:05Z</time></trkpt><trkpt lat="43.810482104611786" lon="12.552291913280753"><ele>158.0</ele><time>2026-05-01T07:49:06Z</time></trkpt><trkpt lat="43.81041575795273" lon="12.552201342597481"><ele>159.0</ele><time>2026-05-01T07:49:07Z</time></trkpt><trkpt lat="43.81035361244737" lon="12.552100694578465"><ele>160.8</ele><time>2026-05-01T07:49:08Z</time></trkpt><trkpt lat="43.810301672707325" lon="12.551980981483252"><ele>162.60000000000002</ele><time>2026-05-01T07:49:09Z</time></trkpt><trkpt lat="43.81025530818378" lon="12.551850867018148"><ele>164.4</ele><time>2026-05-01T07:49:10Z</time></trkpt><trkpt lat="43.81022095793872" lon="12.551703663697792"><ele>166.20000000000002</ele><time>2026-05-01T07:49:11Z</time></trkpt><trkpt lat="43.81019787160015" lon="12.55154733242645"><ele>168.0</ele><time>2026-05-01T07:49:12Z</time></trkpt><trkpt lat="43.810195975166394" lon="12.55138437048594"><ele>168.0</ele><time>2026-05-01T07:49:13Z</time></trkpt><trkpt lat="43.81020688964998" lon="12.55122203091012"><ele>168.0</ele><time>2026-05-01T07:49:14Z</time></trkpt><trkpt lat="43.81022541556605" lon="12.5510626540799"><ele>168.0</ele><time>2026-05-01T07:49:15Z</time></trkpt><trkpt lat="43.810239707110746" lon="12.550897723636933"><ele>168.0</ele><time>2026-05-01T07:49:16Z</time></trkpt><trkpt lat="43.81025137925948" lon="12.550731566211793"><ele>169.0</ele><time>2026-05-01T07:49:17Z</time></trkpt><trkpt lat="43.81025846152826" lon="12.55055308793836"><ele>170.0</ele><time>2026-05-01T07:49:18Z</time></trkpt><trkpt lat="43.81025556112034" lon="12.550370979720222"><ele>171.0</ele><time>2026-05-01T07:49:19Z</time></trkpt><trkpt lat="43.810251368954916" lon="12.550187090564604"><ele>172.0</ele><time>2026-05-01T07:49:20Z</time></trkpt><trkpt lat="43.81024502055836" lon="12.550002355589495"><ele>172.0</ele><time>2026-05-01T07:49:21Z</time></trkpt><trkpt lat="43.810239474566735" lon="12.54982643713606"><ele>172.0</ele><time>2026-05-01T07:49:22Z</time></trkpt><trkpt lat="43.8102345716971" lon="12.549650539433499"><ele>172.0</ele><time>2026-05-01T07:49:23Z</time></trkpt><trkpt lat="43.81023177871124" lon="12.549475302240197"><ele>172.0</ele><time>2026-05-01T07:49:24Z</time></trkpt><trkpt lat="43.8102184220535" lon="12.54928877310385"><ele>171.25</ele><time>2026-05-01T07:49:25Z</time></trkpt><trkpt lat="43.81021269781599" lon="12.54910249611752"><ele>170.5</ele><time>2026-05-01T07:49:26Z</time></trkpt><trkpt lat="43.81021026641613" lon="12.548919066950036"><ele>169.75</ele><time>2026-05-01T07:49:27Z</time></trkpt><trkpt lat="43.81022450843459" lon="12.548749243920827"><ele>169.0</ele><time>2026-05-01T07:49:28Z</time></trkpt><trkpt lat="43.810261414826826" lon="12.548582473110582"><ele>168.5</ele><time>2026-05-01T07:49:29Z</time></trkpt><trkpt lat="43.810300471697076" lon="12.5484149905447"><ele>168.0</ele><time>2026-05-01T07:49:30Z</time></trkpt><trkpt lat="43.81032357244161" lon="12.548252859791582"><ele>167.5</ele><time>2026-05-01T07:49:31Z</time></trkpt><trkpt lat="43.81034001488363" lon="12.548099884563346"><ele>167.0</ele><time>2026-05-01T07:49:32Z</time></trkpt><trkpt lat="43.81034654838876" lon="12.54794538984779"><ele>166.5</ele><time>2026-05-01T07:49:33Z</time></trkpt><trkpt lat="43.81034446285627" lon="12.54778509870899"><ele>166.0</ele><time>2026-05-01T07:49:34Z</time></trkpt><trkpt lat="43.81033082686362" lon="12.547619483789385"><ele>165.5</ele><time>2026-05-01T07:49:35Z</time></trkpt><trkpt lat="43.810312045696065" lon="12.547464677662752"><ele>165.0</ele><time>2026-05-01T07:49:36Z</time></trkpt><trkpt lat="43.8102956262346" lon="12.547308688641731"><ele>165.0</ele><time>2026-05-01T07:49:37Z</time></trkpt><trkpt lat="43.810276101256335" lon="12.547142826999233"><ele>165.0</ele><time>2026-05-01T07:49:38Z</time></trkpt><trkpt lat="43.81024630608418" lon="12.546971809973906"><ele>165.0</ele><time>2026-05-01T07:49:39Z</time></trkpt><trkpt lat="43.81020697871889" lon="12.54680002085414"><ele>165.0</ele><time>2026-05-01T07:49:40Z</time></trkpt><trkpt lat="43.81017061777502" lon="12.546622858345899"><ele>164.75</ele><time>2026-05-01T07:49:41Z</time></trkpt><trkpt lat="43.8101436745455" lon="12.54644104125461"><ele>164.5</ele><time>2026-05-01T07:49:42Z</time></trkpt><trkpt lat="43.81013671704622" lon="12.54625419443422"><ele>164.25</ele><time>2026-05-01T07:49:43Z</time></trkpt><trkpt lat="43.810150007214204" lon="12.546067292858764"><ele>164.0</ele><time>2026-05-01T07:49:44Z</time></trkpt><trkpt lat="43.81017987368915" lon="12.545880426241885"><ele>164.0</ele><time>2026-05-01T07:49:45Z</time></trkpt><trkpt lat="43.810218007949" lon="12.545694359478823"><ele>164.0</ele><time>2026-05-01T07:49:46Z</time></trkpt><trkpt lat="43.810266195423715" lon="12.545508966858021"><ele>164.0</ele><time>2026-05-01T07:49:47Z</time></trkpt><trkpt lat="43.81032003335763" lon="12.545324143321281"><ele>164.0</ele><time>2026-05-01T07:49:48Z</time></trkpt><trkpt lat="43.81037279973483" lon="12.545138971747706"><ele>163.75</ele><time>2026-05-01T07:49:49Z</time></trkpt><trkpt lat="43.81042572820226" lon="12.5449545898705"><ele>163.5</ele><time>2026-05-01T07:49:50Z</time></trkpt><trkpt lat="43.8104768385224" lon="12.544773034451428"><ele>163.25</ele><time>2026-05-01T07:49:51Z</time></trkpt><trkpt lat="43.81052872281876" lon="12.544588676463826"><ele>163.0</ele><time>2026-05-01T07:49:52Z</time></trkpt><trkpt lat="43.810582304170175" lon="12.544399196278325"><ele>161.5</ele><time>2026-05-01T07:49:53Z</time></trkpt><trkpt lat="43.81063068389933" lon="12.544216372863628"><ele>160.0</ele><time>2026-05-01T07:49:54Z</time></trkpt><trkpt lat="43.810676794805694" lon="12.544046096624106"><ele>158.5</ele><time>2026-05-01T07:49:55Z</time></trkpt><trkpt lat="43.81072389120363" lon="12.543879096183037"><ele>157.0</ele><time>2026-05-01T07:49:56Z</time></trkpt><trkpt lat="43.81077187729294" lon="12.543709008765868"><ele>157.75</ele><time>2026-05-01T07:49:57Z</time></trkpt><trkpt lat="43.810825065571876" lon="12.543535637245729"><ele>158.5</ele><time>2026-05-01T07:49:58Z</time></trkpt><trkpt lat="43.81088589062794" lon="12.543362184590812"><ele>159.25</ele><time>2026-05-01T07:49:59Z</time></trkpt><trkpt lat="43.81095626691586" lon="12.543198008857814"><ele>160.0</ele><time>2026-05-01T07:50:00Z</time></trkpt><trkpt lat="43.81103218372853" lon="12.543037670112668"><ele>160.0</ele><time>2026-05-01T07:50:01Z</time></trkpt><trkpt lat="43.811118693337086" lon="12.542885238343416"><ele>160.0</ele><time>2026-05-01T07:50:02Z</time></trkpt><trkpt lat="43.81121054584456" lon="12.542731374245196"><ele>160.0</ele><time>2026-05-01T07:50:03Z</time></trkpt><trkpt lat="43.81129421220306" lon="12.542590124839235"><ele>160.0</ele><time>2026-05-01T07:50:04Z</time></trkpt><trkpt lat="43.81136838347566" lon="12.542461127021815"><ele>158.75</ele><time>2026-05-01T07:50:05Z</time></trkpt><trkpt lat="43.81143970968875" lon="12.542340357039686"><ele>157.5</ele><time>2026-05-01T07:50:06Z</time></trkpt><trkpt lat="43.811514186809866" lon="12.542215354148043"><ele>156.25</ele><time>2026-05-01T07:50:07Z</time></trkpt><trkpt lat="43.81159079402064" lon="12.54208123628224"><ele>155.0</ele><time>2026-05-01T07:50:08Z</time></trkpt><trkpt lat="43.811669720009014" lon="12.54194122161849"><ele>154.0</ele><time>2026-05-01T07:50:09Z</time></trkpt><trkpt lat="43.8117500719132" lon="12.541794656343681"><ele>153.0</ele><time>2026-05-01T07:50:10Z</time></trkpt><trkpt lat="43.81182759730337" lon="12.541646765440893"><ele>152.0</ele><time>2026-05-01T07:50:11Z</time></trkpt><trkpt lat="43.811901339034065" lon="12.541491210412717"><ele>151.0</ele><time>2026-05-01T07:50:12Z</time></trkpt><trkpt lat="43.81196708883021" lon="12.54132437676309"><ele>151.75</ele><time>2026-05-01T07:50:13Z</time></trkpt><trkpt lat="43.812024550273236" lon="12.541148876051539"><ele>152.5</ele><time>2026-05-01T07:50:14Z</time></trkpt><trkpt lat="43.81207320462482" lon="12.54095862034786"><ele>153.25</ele><time>2026-05-01T07:50:15Z</time></trkpt><trkpt lat="43.812114191569655" lon="12.54075498361403"><ele>154.0</ele><time>2026-05-01T07:50:16Z</time></trkpt><trkpt lat="43.81215378231781" lon="12.540534412591658"><ele>153.0</ele><time>2026-05-01T07:50:17Z</time></trkpt><trkpt lat="43.81218832608689" lon="12.540312052109822"><ele>152.0</ele><time>2026-05-01T07:50:18Z</time></trkpt><trkpt lat="43.8122048174143" lon="12.540056215381368"><ele>151.0</ele><time>2026-05-01T07:50:19Z</time></trkpt><trkpt lat="43.812214167126584" lon="12.539736990708125"><ele>152.0</ele><time>2026-05-01T07:50:20Z</time></trkpt><trkpt lat="43.81222943664093" lon="12.53939623174482"><ele>153.0</ele><time>2026-05-01T07:50:21Z</time></trkpt><trkpt lat="43.81225032687766" lon="12.539021057483229"><ele>152.0</ele><time>2026-05-01T07:50:22Z</time></trkpt><trkpt lat="43.812266800622716" lon="12.538650265637381"><ele>151.0</ele><time>2026-05-01T07:50:23Z</time></trkpt><trkpt lat="43.812288445627175" lon="12.53828766266033"><ele>151.0</ele><time>2026-05-01T07:50:24Z</time></trkpt><trkpt lat="43.81230822201063" lon="12.537918928119831"><ele>151.0</ele><time>2026-05-01T07:50:25Z</time></trkpt><trkpt lat="43.81233544425013" lon="12.537542595880419"><ele>151.0</ele><time>2026-05-01T07:50:26Z</time></trkpt><trkpt lat="43.812362712715" lon="12.537144655221995"><ele>151.0</ele><time>2026-05-01T07:50:27Z</time></trkpt><trkpt lat="43.81238942146801" lon="12.536766216897968"><ele>151.0</ele><time>2026-05-01T07:50:28Z</time></trkpt><trkpt lat="43.81242109343929" lon="12.536407512672103"><ele>151.0</ele><time>2026-05-01T07:50:29Z</time></trkpt><trkpt lat="43.81244853436255" lon="12.536045620055935"><ele>151.0</ele><time>2026-05-01T07:50:30Z</time></trkpt><trkpt lat="43.81245097124763" lon="12.535679177882631"><ele>151.0</ele><time>2026-05-01T07:50:31Z</time></trkpt><trkpt lat="43.81242560500983" lon="12.535306701146428"><ele>152.0</ele><time>2026-05-01T07:50:32Z</time></trkpt><trkpt lat="43.812394960739404" lon="12.53494028259631"><ele>153.0</ele><time>2026-05-01T07:50:33Z</time></trkpt><trkpt lat="43.81235839175159" lon="12.53460411196684"><ele>153.5</ele><time>2026-05-01T07:50:34Z</time></trkpt><trkpt lat="43.81229620589571" lon="12.53427638282082"><ele>154.0</ele><time>2026-05-01T07:50:35Z</time></trkpt><trkpt lat="43.81221372161062" lon="12.5339378710569"><ele>157.5</ele><time>2026-05-01T07:50:36Z</time></trkpt><trkpt lat="43.81211753550434" lon="12.533592795204012"><ele>161.0</ele><time>2026-05-01T07:50:37Z</time></trkpt><trkpt lat="43.81201094726252" lon="12.53324685399025"><ele>161.0</ele><time>2026-05-01T07:50:38Z</time></trkpt><trkpt lat="43.81190911063459" lon="12.532907821319318"><ele>161.0</ele><time>2026-05-01T07:50:39Z</time></trkpt><trkpt lat="43.81180679161456" lon="12.532582351745768"><ele>161.0</ele><time>2026-05-01T07:50:40Z</time></trkpt><trkpt lat="43.81170373869894" lon="12.532250285521668"><ele>161.0</ele><time>2026-05-01T07:50:41Z</time></trkpt><trkpt lat="43.811601221755545" lon="12.531917560436275"><ele>163.5</ele><time>2026-05-01T07:50:42Z</time></trkpt><trkpt lat="43.81150172611214" lon="12.53158794957458"><ele>166.0</ele><time>2026-05-01T07:50:43Z</time></trkpt><trkpt lat="43.811401187145215" lon="12.531266883790627"><ele>168.0</ele><time>2026-05-01T07:50:44Z</time></trkpt><trkpt lat="43.81130683194963" lon="12.530956815001836"><ele>170.0</ele><time>2026-05-01T07:50:45Z</time></trkpt><trkpt lat="43.81122216279076" lon="12.530675323649636"><ele>170.0</ele><time>2026-05-01T07:50:46Z</time></trkpt><trkpt lat="43.81115591584912" lon="12.530449399432097"><ele>170.0</ele><time>2026-05-01T07:50:47Z</time></trkpt><trkpt lat="43.81110945954572" lon="12.53023138126097"><ele>170.0</ele><time>2026-05-01T07:50:48Z</time></trkpt><trkpt lat="43.81109371109936" lon="12.530017002406899"><ele>169.66666666666666</ele><time>2026-05-01T07:50:49Z</time></trkpt><trkpt lat="43.811117131315086" lon="12.52978575964065"><ele>169.33333333333334</ele><time>2026-05-01T07:50:50Z</time></trkpt><trkpt lat="43.811184801968494" lon="12.529558500110678"><ele>169.0</ele><time>2026-05-01T07:50:51Z</time></trkpt><trkpt lat="43.811275197261764" lon="12.529328669244059"><ele>168.66666666666669</ele><time>2026-05-01T07:50:52Z</time></trkpt><trkpt lat="43.81136796351017" lon="12.52908661956507"><ele>168.33333333333334</ele><time>2026-05-01T07:50:53Z</time></trkpt><trkpt lat="43.81146141175162" lon="12.528844497723984"><ele>168.0</ele><time>2026-05-01T07:50:54Z</time></trkpt><trkpt lat="43.81155162035192" lon="12.52862988519006"><ele>167.66666666666666</ele><time>2026-05-01T07:50:55Z</time></trkpt><trkpt lat="43.811644006293584" lon="12.528431400103434"><ele>167.33333333333331</ele><time>2026-05-01T07:50:56Z</time></trkpt><trkpt lat="43.81174448756488" lon="12.528245076167815"><ele>167.0</ele><time>2026-05-01T07:50:57Z</time></trkpt><trkpt lat="43.811840341178964" lon="12.528063998071229"><ele>166.75</ele><time>2026-05-01T07:50:58Z</time></trkpt><trkpt lat="43.811936055625786" lon="12.527902221139795"><ele>166.5</ele><time>2026-05-01T07:50:59Z</time></trkpt><trkpt lat="43.81202253410489" lon="12.527752627696396"><ele>166.25</ele><time>2026-05-01T07:51:00Z</time></trkpt><trkpt lat="43.812110725021064" lon="12.527598048498705"><ele>166.0</ele><time>2026-05-01T07:51:01Z</time></trkpt><trkpt lat="43.81221194134872" lon="12.527433861085788"><ele>165.33333333333334</ele><time>2026-05-01T07:51:02Z</time></trkpt><trkpt lat="43.812316620690915" lon="12.527256569995703"><ele>164.66666666666666</ele><time>2026-05-01T07:51:03Z</time></trkpt><trkpt lat="43.81242351710983" lon="12.527063309076016"><ele>164.0</ele><time>2026-05-01T07:51:04Z</time></trkpt><trkpt lat="43.81253184856475" lon="12.526872368605888"><ele>164.0</ele><time>2026-05-01T07:51:05Z</time></trkpt><trkpt lat="43.812644055815916" lon="12.526673081322864"><ele>164.0</ele><time>2026-05-01T07:51:06Z</time></trkpt><trkpt lat="43.812761412639766" lon="12.526465833596024"><ele>164.0</ele><time>2026-05-01T07:51:07Z</time></trkpt><trkpt lat="43.81288424666027" lon="12.526243013438554"><ele>166.0</ele><time>2026-05-01T07:51:08Z</time></trkpt><trkpt lat="43.81301537716873" lon="12.525996453801495"><ele>168.0</ele><time>2026-05-01T07:51:09Z</time></trkpt><trkpt lat="43.813157570026945" lon="12.52573829869267"><ele>168.0</ele><time>2026-05-01T07:51:10Z</time></trkpt><trkpt lat="43.813300264872545" lon="12.525492319848814"><ele>168.0</ele><time>2026-05-01T07:51:11Z</time></trkpt><trkpt lat="43.813440737775174" lon="12.525246180475746"><ele>169.5</ele><time>2026-05-01T07:51:12Z</time></trkpt><trkpt lat="43.81358660813433" lon="12.524997392639111"><ele>171.0</ele><time>2026-05-01T07:51:13Z</time></trkpt><trkpt lat="43.81372876871989" lon="12.5247370753001"><ele>169.0</ele><time>2026-05-01T07:51:14Z</time></trkpt><trkpt lat="43.81387310935837" lon="12.524474333200018"><ele>167.0</ele><time>2026-05-01T07:51:15Z</time></trkpt><trkpt lat="43.81402165537584" lon="12.524220151654285"><ele>167.0</ele><time>2026-05-01T07:51:16Z</time></trkpt><trkpt lat="43.81416223307016" lon="12.52396191684949"><ele>167.0</ele><time>2026-05-01T07:51:17Z</time></trkpt><trkpt lat="43.8142865800798" lon="12.523688914662426"><ele>172.0</ele><time>2026-05-01T07:51:18Z</time></trkpt><trkpt lat="43.81438877032196" lon="12.52340985396262"><ele>177.0</ele><time>2026-05-01T07:51:19Z</time></trkpt><trkpt lat="43.81445653826089" lon="12.523107247205154"><ele>178.0</ele><time>2026-05-01T07:51:20Z</time></trkpt><trkpt lat="43.81450727301172" lon="12.52279705818231"><ele>179.0</ele><time>2026-05-01T07:51:21Z</time></trkpt><trkpt lat="43.81452317287088" lon="12.522481874593351"><ele>179.0</ele><time>2026-05-01T07:51:22Z</time></trkpt><trkpt lat="43.81450829615024" lon="12.522167241295575"><ele>179.0</ele><time>2026-05-01T07:51:23Z</time></trkpt><trkpt lat="43.81446492440098" lon="12.521854474665929"><ele>179.5</ele><time>2026-05-01T07:51:24Z</time></trkpt><trkpt lat="43.81440032674325" lon="12.521548333810387"><ele>180.0</ele><time>2026-05-01T07:51:25Z</time></trkpt><trkpt lat="43.81433156974633" lon="12.521244013109497"><ele>174.0</ele><time>2026-05-01T07:51:26Z</time></trkpt><trkpt lat="43.814275468409285" lon="12.52093340948986"><ele>168.0</ele><time>2026-05-01T07:51:27Z</time></trkpt><trkpt lat="43.814237999511334" lon="12.520624489878514"><ele>169.33333333333334</ele><time>2026-05-01T07:51:28Z</time></trkpt><trkpt lat="43.814216322598675" lon="12.520334009550568"><ele>170.66666666666669</ele><time>2026-05-01T07:51:29Z</time></trkpt><trkpt lat="43.814214864949655" lon="12.52004783945536"><ele>172.0</ele><time>2026-05-01T07:51:30Z</time></trkpt><trkpt lat="43.81423444294217" lon="12.519755592267929"><ele>172.33333333333334</ele><time>2026-05-01T07:51:31Z</time></trkpt><trkpt lat="43.8142768615737" lon="12.519460479944366"><ele>172.66666666666666</ele><time>2026-05-01T07:51:32Z</time></trkpt><trkpt lat="43.81433342002191" lon="12.519168249813545"><ele>173.0</ele><time>2026-05-01T07:51:33Z</time></trkpt><trkpt lat="43.814400926688556" lon="12.518897335012943"><ele>177.33333333333331</ele><time>2026-05-01T07:51:34Z</time></trkpt><trkpt lat="43.814462779267785" lon="12.518654511238466"><ele>181.66666666666666</ele><time>2026-05-01T07:51:35Z</time></trkpt><trkpt lat="43.81449412014958" lon="12.5184026685942"><ele>186.0</ele><time>2026-05-01T07:51:36Z</time></trkpt><trkpt lat="43.81448032270965" lon="12.518124753038855"><ele>184.0</ele><time>2026-05-01T07:51:37Z</time></trkpt><trkpt lat="43.81442539863336" lon="12.517845226358231"><ele>182.0</ele><time>2026-05-01T07:51:38Z</time></trkpt><trkpt lat="43.814357785465965" lon="12.517570655074014"><ele>180.0</ele><time>2026-05-01T07:51:39Z</time></trkpt><trkpt lat="43.81429005869041" lon="12.517287536827626"><ele>178.66666666666666</ele><time>2026-05-01T07:51:40Z</time></trkpt><trkpt lat="43.814226513146394" lon="12.516993197828205"><ele>177.33333333333331</ele><time>2026-05-01T07:51:41Z</time></trkpt><trkpt lat="43.81415805206014" lon="12.516696477301217"><ele>176.0</ele><time>2026-05-01T07:51:42Z</time></trkpt><trkpt lat="43.814085651616836" lon="12.516401403689779"><ele>177.5</ele><time>2026-05-01T07:51:43Z</time></trkpt><trkpt lat="43.81401724818182" lon="12.516098926623872"><ele>179.0</ele><time>2026-05-01T07:51:44Z</time></trkpt><trkpt lat="43.81394904371092" lon="12.51578824179155"><ele>179.0</ele><time>2026-05-01T07:51:45Z</time></trkpt><trkpt lat="43.8138786655583" lon="12.515486630017934"><ele>179.0</ele><time>2026-05-01T07:51:46Z</time></trkpt><trkpt lat="43.813807845254466" lon="12.515183512425445"><ele>180.5</ele><time>2026-05-01T07:51:47Z</time></trkpt><trkpt lat="43.813735764900635" lon="12.51487868372058"><ele>182.0</ele><time>2026-05-01T07:51:48Z</time></trkpt><trkpt lat="43.81366215159596" lon="12.514574919615415"><ele>183.0</ele><time>2026-05-01T07:51:49Z</time></trkpt><trkpt lat="43.8135927399591" lon="12.51427182430933"><ele>184.0</ele><time>2026-05-01T07:51:50Z</time></trkpt><trkpt lat="43.813525270313335" lon="12.51397865751341"><ele>179.66666666666669</ele><time>2026-05-01T07:51:51Z</time></trkpt><trkpt lat="43.81345996818607" lon="12.51369158334778"><ele>175.33333333333334</ele><time>2026-05-01T07:51:52Z</time></trkpt><trkpt lat="43.81339519541532" lon="12.513398359375262"><ele>171.0</ele><time>2026-05-01T07:51:53Z</time></trkpt><trkpt lat="43.81333164730976" lon="12.513102763200335"><ele>172.33333333333334</ele><time>2026-05-01T07:51:54Z</time></trkpt><trkpt lat="43.81326847357523" lon="12.512819131359471"><ele>173.66666666666669</ele><time>2026-05-01T07:51:55Z</time></trkpt><trkpt lat="43.81320304562888" lon="12.512542823452723"><ele>175.0</ele><time>2026-05-01T07:51:56Z</time></trkpt><trkpt lat="43.81312234860518" lon="12.512275036781746"><ele>176.33333333333334</ele><time>2026-05-01T07:51:57Z</time></trkpt><trkpt lat="43.81301781647856" lon="12.51202826556313"><ele>177.66666666666666</ele><time>2026-05-01T07:51:58Z</time></trkpt><trkpt lat="43.81289216335621" lon="12.511809236541598"><ele>179.0</ele><time>2026-05-01T07:51:59Z</time></trkpt><trkpt lat="43.81275979105333" lon="12.511626187796441"><ele>176.0</ele><time>2026-05-01T07:52:00Z</time></trkpt><trkpt lat="43.81261552502939" lon="12.511474931627246"><ele>173.0</ele><time>2026-05-01T07:52:01Z</time></trkpt><trkpt lat="43.81245968488613" lon="12.511351942589764"><ele>170.0</ele><time>2026-05-01T07:52:02Z</time></trkpt><trkpt lat="43.812287046670576" lon="12.511258575093384"><ele>171.0</ele><time>2026-05-01T07:52:03Z</time></trkpt><trkpt lat="43.81210830182265" lon="12.511193786837536"><ele>172.0</ele><time>2026-05-01T07:52:04Z</time></trkpt><trkpt lat="43.811924979514416" lon="12.511141803961134"><ele>173.0</ele><time>2026-05-01T07:52:05Z</time></trkpt><trkpt lat="43.81174048176211" lon="12.51108377689238"><ele>173.33333333333331</ele><time>2026-05-01T07:52:06Z</time></trkpt><trkpt lat="43.811554593719855" lon="12.511025533808773"><ele>173.66666666666666</ele><time>2026-05-01T07:52:07Z</time></trkpt><trkpt lat="43.81136662591847" lon="12.510950837131599"><ele>174.0</ele><time>2026-05-01T07:52:08Z</time></trkpt><trkpt lat="43.811182602935354" lon="12.510855114526358"><ele>174.0</ele><time>2026-05-01T07:52:09Z</time></trkpt><trkpt lat="43.81100428744751" lon="12.510740824791466"><ele>174.0</ele><time>2026-05-01T07:52:10Z</time></trkpt><trkpt lat="43.810829327491064" lon="12.510609615963181"><ele>174.0</ele><time>2026-05-01T07:52:11Z</time></trkpt><trkpt lat="43.81065526847736" lon="12.510466492877844"><ele>174.66666666666666</ele><time>2026-05-01T07:52:12Z</time></trkpt><trkpt lat="43.81048131063935" lon="12.510316867522413"><ele>175.33333333333331</ele><time>2026-05-01T07:52:13Z</time></trkpt><trkpt lat="43.81030894945165" lon="12.510164392893568"><ele>176.0</ele><time>2026-05-01T07:52:14Z</time></trkpt><trkpt lat="43.810132760824665" lon="12.510008380962974"><ele>176.0</ele><time>2026-05-01T07:52:15Z</time></trkpt><trkpt lat="43.809955113892684" lon="12.50985119548163"><ele>176.0</ele><time>2026-05-01T07:52:16Z</time></trkpt><trkpt lat="43.80977961102227" lon="12.509699025654271"><ele>176.0</ele><time>2026-05-01T07:52:17Z</time></trkpt><trkpt lat="43.809611818455735" lon="12.509555164740641"><ele>175.66666666666666</ele><time>2026-05-01T07:52:18Z</time></trkpt><trkpt lat="43.80945271746065" lon="12.50941662527027"><ele>175.33333333333334</ele><time>2026-05-01T07:52:19Z</time></trkpt><trkpt lat="43.80929633621128" lon="12.50928013595768"><ele>175.0</ele><time>2026-05-01T07:52:20Z</time></trkpt><trkpt lat="43.80914097714779" lon="12.509139342073336"><ele>175.0</ele><time>2026-05-01T07:52:21Z</time></trkpt><trkpt lat="43.80900259007032" lon="12.508990094307945"><ele>175.0</ele><time>2026-05-01T07:52:22Z</time></trkpt><trkpt lat="43.8088883771223" lon="12.508814133159147"><ele>175.0</ele><time>2026-05-01T07:52:23Z</time></trkpt><trkpt lat="43.808798315254165" lon="12.50861111218756"><ele>179.0</ele><time>2026-05-01T07:52:24Z</time></trkpt><trkpt lat="43.8087231601306" lon="12.50840891797634"><ele>183.0</ele><time>2026-05-01T07:52:25Z</time></trkpt><trkpt lat="43.80868941538078" lon="12.508198277575904"><ele>187.0</ele><time>2026-05-01T07:52:26Z</time></trkpt><trkpt lat="43.80867894645369" lon="12.507982975954397"><ele>189.0</ele><time>2026-05-01T07:52:27Z</time></trkpt><trkpt lat="43.80868624852481" lon="12.507752692609133"><ele>191.0</ele><time>2026-05-01T07:52:28Z</time></trkpt><trkpt lat="43.80869435366599" lon="12.507511070165569"><ele>193.0</ele><time>2026-05-01T07:52:29Z</time></trkpt><trkpt lat="43.80869946962071" lon="12.507262386413652"><ele>192.66666666666666</ele><time>2026-05-01T07:52:30Z</time></trkpt><trkpt lat="43.80870550343311" lon="12.50700271923283"><ele>192.33333333333331</ele><time>2026-05-01T07:52:31Z</time></trkpt><trkpt lat="43.80871515271374" lon="12.50674120172039"><ele>192.0</ele><time>2026-05-01T07:52:32Z</time></trkpt><trkpt lat="43.80872476750239" lon="12.506476528323567"><ele>191.66666666666666</ele><time>2026-05-01T07:52:33Z</time></trkpt><trkpt lat="43.808730750748424" lon="12.506207225485804"><ele>191.33333333333331</ele><time>2026-05-01T07:52:34Z</time></trkpt><trkpt lat="43.808738156117265" lon="12.505935172339536"><ele>191.0</ele><time>2026-05-01T07:52:35Z</time></trkpt><trkpt lat="43.80874552594746" lon="12.505660171945728"><ele>192.33333333333331</ele><time>2026-05-01T07:52:36Z</time></trkpt><trkpt lat="43.80875195151794" lon="12.505382612096792"><ele>193.66666666666666</ele><time>2026-05-01T07:52:37Z</time></trkpt><trkpt lat="43.80876099318779" lon="12.505104973246102"><ele>195.0</ele><time>2026-05-01T07:52:38Z</time></trkpt><trkpt lat="43.80877329869722" lon="12.504828538622927"><ele>196.0</ele><time>2026-05-01T07:52:39Z</time></trkpt><trkpt lat="43.80878528349732" lon="12.504549996917774"><ele>197.0</ele><time>2026-05-01T07:52:40Z</time></trkpt><trkpt lat="43.80879419328336" lon="12.504271691528437"><ele>198.0</ele><time>2026-05-01T07:52:41Z</time></trkpt><trkpt lat="43.80880529330716" lon="12.503998049472596"><ele>198.0</ele><time>2026-05-01T07:52:42Z</time></trkpt><trkpt lat="43.808819111939115" lon="12.503740224763318"><ele>198.0</ele><time>2026-05-01T07:52:43Z</time></trkpt><trkpt lat="43.808827119782784" lon="12.5034951950636"><ele>198.0</ele><time>2026-05-01T07:52:44Z</time></trkpt><trkpt lat="43.80881665146149" lon="12.503264379982031"><ele>198.0</ele><time>2026-05-01T07:52:45Z</time></trkpt><trkpt lat="43.80877884475733" lon="12.503037689413233"><ele>198.0</ele><time>2026-05-01T07:52:46Z</time></trkpt><trkpt lat="43.80871355163862" lon="12.502825294458047"><ele>198.0</ele><time>2026-05-01T07:52:47Z</time></trkpt><trkpt lat="43.80861754240631" lon="12.502634974160975"><ele>199.33333333333331</ele><time>2026-05-01T07:52:48Z</time></trkpt><trkpt lat="43.808504091963215" lon="12.5024648322955"><ele>200.66666666666666</ele><time>2026-05-01T07:52:49Z</time></trkpt><trkpt lat="43.808384087630145" lon="12.502299915939476"><ele>202.0</ele><time>2026-05-01T07:52:50Z</time></trkpt><trkpt lat="43.808262112040936" lon="12.502125101566152"><ele>198.33333333333331</ele><time>2026-05-01T07:52:51Z</time></trkpt><trkpt lat="43.80813675764022" lon="12.501946271359778"><ele>194.66666666666666</ele><time>2026-05-01T07:52:52Z</time></trkpt><trkpt lat="43.808005574535905" lon="12.501766064952546"><ele>191.0</ele><time>2026-05-01T07:52:53Z</time></trkpt><trkpt lat="43.80787027054924" lon="12.501582702112822"><ele>191.0</ele><time>2026-05-01T07:52:54Z</time></trkpt><trkpt lat="43.807725886428145" lon="12.501406903231114"><ele>191.0</ele><time>2026-05-01T07:52:55Z</time></trkpt><trkpt lat="43.80757101845277" lon="12.501247942219576"><ele>191.0</ele><time>2026-05-01T07:52:56Z</time></trkpt><trkpt lat="43.807402431358156" lon="12.50111876693981"><ele>193.33333333333331</ele><time>2026-05-01T07:52:57Z</time></trkpt><trkpt lat="43.80722736618562" lon="12.501016879099144"><ele>195.66666666666666</ele><time>2026-05-01T07:52:58Z</time></trkpt><trkpt lat="43.80704343882524" lon="12.50094692856254"><ele>198.0</ele><time>2026-05-01T07:52:59Z</time></trkpt><trkpt lat="43.80685197433205" lon="12.500908007034136"><ele>195.33333333333334</ele><time>2026-05-01T07:53:00Z</time></trkpt><trkpt lat="43.80665928076406" lon="12.500884997880881"><ele>192.66666666666669</ele><time>2026-05-01T07:53:01Z</time></trkpt><trkpt lat="43.8064640538682" lon="12.500873360772243"><ele>190.0</ele><time>2026-05-01T07:53:02Z</time></trkpt><trkpt lat="43.80626842378047" lon="12.50086369722789"><ele>190.0</ele><time>2026-05-01T07:53:03Z</time></trkpt><trkpt lat="43.80607090619508" lon="12.500856414868286"><ele>190.0</ele><time>2026-05-01T07:53:04Z</time></trkpt><trkpt lat="43.80587267679879" lon="12.5008375435046"><ele>190.0</ele><time>2026-05-01T07:53:05Z</time></trkpt><trkpt lat="43.8056762699648" lon="12.50079713876792"><ele>188.66666666666669</ele><time>2026-05-01T07:53:06Z</time></trkpt><trkpt lat="43.8054800402386" lon="12.500736857356685"><ele>187.33333333333334</ele><time>2026-05-01T07:53:07Z</time></trkpt><trkpt lat="43.80528468654277" lon="12.500658555771947"><ele>186.0</ele><time>2026-05-01T07:53:08Z</time></trkpt><trkpt lat="43.805093164720994" lon="12.50057212939121"><ele>184.66666666666666</ele><time>2026-05-01T07:53:08.999Z</time></trkpt><trkpt lat="43.80490563865408" lon="12.500490307574907"><ele>183.33333333333331</ele><time>2026-05-01T07:53:09.999Z</time></trkpt><trkpt lat="43.804725174385986" lon="12.500413482261006"><ele>182.0</ele><time>2026-05-01T07:53:10.999Z</time></trkpt><trkpt lat="43.80454797430852" lon="12.500330414148277"><ele>184.33333333333331</ele><time>2026-05-01T07:53:11.999Z</time></trkpt><trkpt lat="43.80437605843883" lon="12.500229047849079"><ele>186.66666666666666</ele><time>2026-05-01T07:53:13Z</time></trkpt><trkpt lat="43.80421001350446" lon="12.50010804537524"><ele>189.0</ele><time>2026-05-01T07:53:14Z</time></trkpt><trkpt lat="43.80404811667886" lon="12.499970814253745"><ele>189.0</ele><time>2026-05-01T07:53:15Z</time></trkpt><trkpt lat="43.803888699489725" lon="12.499821446011998"><ele>189.0</ele><time>2026-05-01T07:53:16Z</time></trkpt><trkpt lat="43.80372632425395" lon="12.499672536869136"><ele>189.0</ele><time>2026-05-01T07:53:17Z</time></trkpt><trkpt lat="43.80356125363334" lon="12.499526875726213"><ele>190.66666666666669</ele><time>2026-05-01T07:53:18Z</time></trkpt><trkpt lat="43.80339083143054" lon="12.499378402927544"><ele>192.33333333333334</ele><time>2026-05-01T07:53:19Z</time></trkpt><trkpt lat="43.803215041277625" lon="12.499225624036756"><ele>194.0</ele><time>2026-05-01T07:53:20Z</time></trkpt><trkpt lat="43.8030328368864" lon="12.499066117533069"><ele>194.0</ele><time>2026-05-01T07:53:21Z</time></trkpt><trkpt lat="43.80284945436155" lon="12.49890532006233"><ele>194.0</ele><time>2026-05-01T07:53:22Z</time></trkpt><trkpt lat="43.80266446610811" lon="12.498743464264692"><ele>194.0</ele><time>2026-05-01T07:53:23Z</time></trkpt><trkpt lat="43.80247804863966" lon="12.498582695195658"><ele>193.66666666666669</ele><time>2026-05-01T07:53:24Z</time></trkpt><trkpt lat="43.80229190658517" lon="12.498423653578511"><ele>193.33333333333331</ele><time>2026-05-01T07:53:25Z</time></trkpt><trkpt lat="43.80210673967389" lon="12.498262221226854"><ele>193.0</ele><time>2026-05-01T07:53:26Z</time></trkpt><trkpt lat="43.80192168912196" lon="12.498092543052733"><ele>191.0</ele><time>2026-05-01T07:53:27Z</time></trkpt><trkpt lat="43.801733734224456" lon="12.497925286382035"><ele>189.0</ele><time>2026-05-01T07:53:28Z</time></trkpt><trkpt lat="43.801550124646916" lon="12.49776368689003"><ele>187.0</ele><time>2026-05-01T07:53:29Z</time></trkpt><trkpt lat="43.801376441997185" lon="12.497610959319733"><ele>187.33333333333334</ele><time>2026-05-01T07:53:30Z</time></trkpt><trkpt lat="43.8012268468337" lon="12.497479814787171"><ele>187.66666666666666</ele><time>2026-05-01T07:53:31Z</time></trkpt><trkpt lat="43.80108016257508" lon="12.497360064651968"><ele>188.0</ele><time>2026-05-01T07:53:32Z</time></trkpt><trkpt lat="43.80093327663989" lon="12.497242933633379"><ele>188.0</ele><time>2026-05-01T07:53:33Z</time></trkpt><trkpt lat="43.80077530497954" lon="12.497127722766788"><ele>188.0</ele><time>2026-05-01T07:53:34Z</time></trkpt><trkpt lat="43.80061858346846" lon="12.496996833923225"><ele>188.0</ele><time>2026-05-01T07:53:35Z</time></trkpt><trkpt lat="43.80046612753641" lon="12.49685146684474"><ele>190.0</ele><time>2026-05-01T07:53:36Z</time></trkpt><trkpt lat="43.80031057803021" lon="12.496700250111452"><ele>192.0</ele><time>2026-05-01T07:53:37Z</time></trkpt><trkpt lat="43.80014861953462" lon="12.49655224569098"><ele>194.0</ele><time>2026-05-01T07:53:38Z</time></trkpt><trkpt lat="43.79998217000325" lon="12.496402794942437"><ele>195.66666666666669</ele><time>2026-05-01T07:53:39Z</time></trkpt><trkpt lat="43.79981289499225" lon="12.49625145660317"><ele>197.33333333333331</ele><time>2026-05-01T07:53:40Z</time></trkpt><trkpt lat="43.79964234729428" lon="12.496100823916855"><ele>199.0</ele><time>2026-05-01T07:53:41Z</time></trkpt><trkpt lat="43.799472391106924" lon="12.495952980994375"><ele>198.33333333333331</ele><time>2026-05-01T07:53:42Z</time></trkpt><trkpt lat="43.79931174726633" lon="12.495814147092185"><ele>197.66666666666669</ele><time>2026-05-01T07:53:43Z</time></trkpt><trkpt lat="43.79915776493613" lon="12.495679395691043"><ele>197.0</ele><time>2026-05-01T07:53:44Z</time></trkpt><trkpt lat="43.799012209411266" lon="12.495549495913265"><ele>198.66666666666669</ele><time>2026-05-01T07:53:45Z</time></trkpt><trkpt lat="43.798877402340274" lon="12.495402408953918"><ele>200.33333333333331</ele><time>2026-05-01T07:53:46Z</time></trkpt><trkpt lat="43.79876119555049" lon="12.495225773066721"><ele>202.0</ele><time>2026-05-01T07:53:47Z</time></trkpt><trkpt lat="43.798671984259066" lon="12.495031853949996"><ele>202.0</ele><time>2026-05-01T07:53:48Z</time></trkpt><trkpt lat="43.798610656480356" lon="12.49482532850446"><ele>202.0</ele><time>2026-05-01T07:53:49Z</time></trkpt><trkpt lat="43.798565299064485" lon="12.494612166494878"><ele>202.0</ele><time>2026-05-01T07:53:50Z</time></trkpt><trkpt lat="43.7985217253254" lon="12.494417389872666"><ele>200.33333333333331</ele><time>2026-05-01T07:53:51Z</time></trkpt><trkpt lat="43.79845747885568" lon="12.494239662926185"><ele>198.66666666666669</ele><time>2026-05-01T07:53:52Z</time></trkpt><trkpt lat="43.79836824488338" lon="12.494069658676365"><ele>197.0</ele><time>2026-05-01T07:53:53Z</time></trkpt><trkpt lat="43.79825634010272" lon="12.493915437035813"><ele>197.0</ele><time>2026-05-01T07:53:54Z</time></trkpt><trkpt lat="43.79813062396162" lon="12.493780537182523"><ele>197.0</ele><time>2026-05-01T07:53:55Z</time></trkpt><trkpt lat="43.797991773291194" lon="12.493664784207686"><ele>197.0</ele><time>2026-05-01T07:53:56Z</time></trkpt><trkpt lat="43.79784234582648" lon="12.49357201378923"><ele>200.0</ele><time>2026-05-01T07:53:57Z</time></trkpt><trkpt lat="43.797686733071735" lon="12.493509066762943"><ele>203.0</ele><time>2026-05-01T07:53:58Z</time></trkpt><trkpt lat="43.79752469183869" lon="12.49348550339481"><ele>206.0</ele><time>2026-05-01T07:53:59Z</time></trkpt><trkpt lat="43.79736613403205" lon="12.493505285712748"><ele>206.0</ele><time>2026-05-01T07:54:00Z</time></trkpt><trkpt lat="43.797213603564344" lon="12.493551199559212"><ele>206.0</ele><time>2026-05-01T07:54:01Z</time></trkpt><trkpt lat="43.79707441214054" lon="12.493589738514679"><ele>206.0</ele><time>2026-05-01T07:54:02Z</time></trkpt><trkpt lat="43.79692709009168" lon="12.493570699890096"><ele>206.0</ele><time>2026-05-01T07:54:03Z</time></trkpt><trkpt lat="43.796774331362776" lon="12.493504028257371"><ele>206.66666666666669</ele><time>2026-05-01T07:54:04Z</time></trkpt><trkpt lat="43.79662058998498" lon="12.493415961156158"><ele>207.33333333333331</ele><time>2026-05-01T07:54:05Z</time></trkpt><trkpt lat="43.79646102317308" lon="12.493324672003379"><ele>208.0</ele><time>2026-05-01T07:54:06Z</time></trkpt><trkpt lat="43.796296698923065" lon="12.49323252679456"><ele>208.0</ele><time>2026-05-01T07:54:07Z</time></trkpt><trkpt lat="43.79612779857265" lon="12.493139543418172"><ele>208.0</ele><time>2026-05-01T07:54:08Z</time></trkpt><trkpt lat="43.79595137414876" lon="12.493052992557796"><ele>208.0</ele><time>2026-05-01T07:54:09Z</time></trkpt><trkpt lat="43.79577065141968" lon="12.492979411299734"><ele>207.66666666666666</ele><time>2026-05-01T07:54:10Z</time></trkpt><trkpt lat="43.79558296109143" lon="12.492928003826165"><ele>207.33333333333331</ele><time>2026-05-01T07:54:11Z</time></trkpt><trkpt lat="43.79539429586858" lon="12.492891788631395"><ele>207.0</ele><time>2026-05-01T07:54:12Z</time></trkpt><trkpt lat="43.79519887799076" lon="12.492855672336901"><ele>208.33333333333331</ele><time>2026-05-01T07:54:13Z</time></trkpt><trkpt lat="43.795000690309145" lon="12.492818081579397"><ele>209.66666666666666</ele><time>2026-05-01T07:54:14Z</time></trkpt><trkpt lat="43.79480081558494" lon="12.492780744549536"><ele>211.0</ele><time>2026-05-01T07:54:15Z</time></trkpt><trkpt lat="43.79459822473696" lon="12.492743128704292"><ele>211.0</ele><time>2026-05-01T07:54:16Z</time></trkpt><trkpt lat="43.79440005981674" lon="12.492708813050676"><ele>211.0</ele><time>2026-05-01T07:54:17Z</time></trkpt><trkpt lat="43.79420248049498" lon="12.492673504468835"><ele>211.0</ele><time>2026-05-01T07:54:18Z</time></trkpt><trkpt lat="43.79400326660373" lon="12.492634147266301"><ele>211.0</ele><time>2026-05-01T07:54:19Z</time></trkpt><trkpt lat="43.79380213071702" lon="12.492595461458714"><ele>211.0</ele><time>2026-05-01T07:54:20Z</time></trkpt><trkpt lat="43.79360075115267" lon="12.492561821598382"><ele>211.0</ele><time>2026-05-01T07:54:21Z</time></trkpt><trkpt lat="43.793398521122086" lon="12.492526329733705"><ele>212.33333333333331</ele><time>2026-05-01T07:54:22Z</time></trkpt><trkpt lat="43.79319647650196" lon="12.49249011562097"><ele>213.66666666666669</ele><time>2026-05-01T07:54:23Z</time></trkpt><trkpt lat="43.79298684577774" lon="12.492451349462788"><ele>215.0</ele><time>2026-05-01T07:54:24Z</time></trkpt><trkpt lat="43.79277436485664" lon="12.492416011291773"><ele>217.0</ele><time>2026-05-01T07:54:25Z</time></trkpt><trkpt lat="43.79255608007283" lon="12.492377041193075"><ele>219.0</ele><time>2026-05-01T07:54:26Z</time></trkpt><trkpt lat="43.792325851078715" lon="12.492336371668797"><ele>219.0</ele><time>2026-05-01T07:54:27Z</time></trkpt><trkpt lat="43.79210230535997" lon="12.492297653297866"><ele>219.0</ele><time>2026-05-01T07:54:28Z</time></trkpt><trkpt lat="43.79190883899556" lon="12.492264692278395"><ele>219.0</ele><time>2026-05-01T07:54:29Z</time></trkpt><trkpt lat="43.791730450361726" lon="12.492231900394644"><ele>219.33333333333331</ele><time>2026-05-01T07:54:30Z</time></trkpt><trkpt lat="43.791535791326424" lon="12.49219931460668"><ele>219.66666666666666</ele><time>2026-05-01T07:54:32Z</time></trkpt><trkpt lat="43.791374518471436" lon="12.49216790096917"><ele>220.0</ele><time>2026-05-01T07:54:33Z</time></trkpt><trkpt lat="43.79120851775692" lon="12.49213798733023"><ele>220.0</ele><time>2026-05-01T07:54:34Z</time></trkpt><trkpt lat="43.79103760875364" lon="12.49210942592769"><ele>220.0</ele><time>2026-05-01T07:54:35Z</time></trkpt><trkpt lat="43.790862123380606" lon="12.492077897036015"><ele>220.0</ele><time>2026-05-01T07:54:36Z</time></trkpt><trkpt lat="43.790681522358135" lon="12.492047855557898"><ele>220.0</ele><time>2026-05-01T07:54:37Z</time></trkpt><trkpt lat="43.790495685943114" lon="12.492011787386618"><ele>220.0</ele><time>2026-05-01T07:54:38Z</time></trkpt><trkpt lat="43.79030957199441" lon="12.491982681223424"><ele>220.0</ele><time>2026-05-01T07:54:39Z</time></trkpt><trkpt lat="43.79011941308084" lon="12.491944247508757"><ele>221.33333333333331</ele><time>2026-05-01T07:54:40Z</time></trkpt><trkpt lat="43.789929796078525" lon="12.491901049128241"><ele>222.66666666666669</ele><time>2026-05-01T07:54:41Z</time></trkpt><trkpt lat="43.789745710767065" lon="12.491867034104555"><ele>224.0</ele><time>2026-05-01T07:54:42Z</time></trkpt><trkpt lat="43.78956249508258" lon="12.49183627761887"><ele>224.0</ele><time>2026-05-01T07:54:43Z</time></trkpt><trkpt lat="43.78937631381179" lon="12.491797595968752"><ele>224.0</ele><time>2026-05-01T07:54:44Z</time></trkpt><trkpt lat="43.78919234297759" lon="12.491752981506748"><ele>224.0</ele><time>2026-05-01T07:54:45Z</time></trkpt><trkpt lat="43.789025991325175" lon="12.491701819721296"><ele>224.66666666666669</ele><time>2026-05-01T07:54:46Z</time></trkpt><trkpt lat="43.78887079641445" lon="12.491631812087322"><ele>225.33333333333331</ele><time>2026-05-01T07:54:47Z</time></trkpt><trkpt lat="43.78871832828844" lon="12.491545759890576"><ele>226.0</ele><time>2026-05-01T07:54:48Z</time></trkpt><trkpt lat="43.788559242427404" lon="12.491462426232056"><ele>226.0</ele><time>2026-05-01T07:54:49Z</time></trkpt><trkpt lat="43.78840032790828" lon="12.491379816949786"><ele>226.0</ele><time>2026-05-01T07:54:50Z</time></trkpt><trkpt lat="43.78825551290016" lon="12.491308434491494"><ele>226.0</ele><time>2026-05-01T07:54:51Z</time></trkpt><trkpt lat="43.78814290113993" lon="12.491247379403767"><ele>226.0</ele><time>2026-05-01T07:54:52Z</time></trkpt><trkpt lat="43.78804128099909" lon="12.491176779022428"><ele>226.0</ele><time>2026-05-01T07:54:53Z</time></trkpt><trkpt lat="43.78794999727936" lon="12.491098137048473"><ele>226.00000000000003</ele><time>2026-05-01T07:54:54Z</time></trkpt><trkpt lat="43.787891960549516" lon="12.491007246783713"><ele>226.00000000000003</ele><time>2026-05-01T07:54:55Z</time></trkpt><trkpt lat="43.78781837810927" lon="12.490925230229585"><ele>226.0</ele><time>2026-05-01T07:54:56Z</time></trkpt><trkpt lat="43.78775665423877" lon="12.490838035055024"><ele>226.0</ele><time>2026-05-01T07:54:57Z</time></trkpt><trkpt lat="43.787708746187434" lon="12.490734507832245"><ele>225.99999999999997</ele><time>2026-05-01T07:54:58Z</time></trkpt><trkpt lat="43.78767834251149" lon="12.490617203982158"><ele>226.0</ele><time>2026-05-01T07:54:59Z</time></trkpt><trkpt lat="43.787645183837554" lon="12.490498409905907"><ele>226.0</ele><time>2026-05-01T07:54:59.999Z</time></trkpt><trkpt lat="43.7876131875679" lon="12.490401048421713"><ele>226.0</ele><time>2026-05-01T07:55:00.999Z</time></trkpt><trkpt lat="43.787546185718654" lon="12.490327792535487"><ele>225.99999999999997</ele><time>2026-05-01T07:55:01.999Z</time></trkpt><trkpt lat="43.78746250694269" lon="12.490279795163795"><ele>226.0</ele><time>2026-05-01T07:55:02.999Z</time></trkpt><trkpt lat="43.7873611072726" lon="12.49024379071795"><ele>226.25</ele><time>2026-05-01T07:55:03.999Z</time></trkpt><trkpt lat="43.78724433724356" lon="12.490199754308412"><ele>226.5</ele><time>2026-05-01T07:55:04.999Z</time></trkpt><trkpt lat="43.78712120748589" lon="12.490143589820821"><ele>226.75</ele><time>2026-05-01T07:55:05.999Z</time></trkpt><trkpt lat="43.78698844850339" lon="12.490074984239914"><ele>227.0</ele><time>2026-05-01T07:55:06.999Z</time></trkpt><trkpt lat="43.786853637162224" lon="12.49000043125491"><ele>226.75</ele><time>2026-05-01T07:55:07.999Z</time></trkpt><trkpt lat="43.78672982528245" lon="12.489924279926731"><ele>226.5</ele><time>2026-05-01T07:55:08.999Z</time></trkpt><trkpt lat="43.7866138901591" lon="12.489852724924503"><ele>226.25</ele><time>2026-05-01T07:55:09.999Z</time></trkpt><trkpt lat="43.78650228957318" lon="12.489776370057019"><ele>226.0</ele><time>2026-05-01T07:55:10.999Z</time></trkpt><trkpt lat="43.786392744686104" lon="12.489681069204167"><ele>225.75</ele><time>2026-05-01T07:55:11.999Z</time></trkpt><trkpt lat="43.78629068217081" lon="12.489571291512863"><ele>225.5</ele><time>2026-05-01T07:55:12.999Z</time></trkpt><trkpt lat="43.786201957413894" lon="12.489459978893722"><ele>225.25</ele><time>2026-05-01T07:55:13.999Z</time></trkpt><trkpt lat="43.78612103066557" lon="12.48935540946212"><ele>225.0</ele><time>2026-05-01T07:55:14.999Z</time></trkpt><trkpt lat="43.786044319047406" lon="12.48926035208808"><ele>225.6</ele><time>2026-05-01T07:55:15.999Z</time></trkpt><trkpt lat="43.785970936390214" lon="12.489168803761384"><ele>226.2</ele><time>2026-05-01T07:55:16.999Z</time></trkpt><trkpt lat="43.78589778511534" lon="12.489074823730853"><ele>226.8</ele><time>2026-05-01T07:55:17.999Z</time></trkpt><trkpt lat="43.78582190475299" lon="12.48898162782098"><ele>227.4</ele><time>2026-05-01T07:55:19Z</time></trkpt><trkpt lat="43.78574513389597" lon="12.488886243855674"><ele>228.0</ele><time>2026-05-01T07:55:20Z</time></trkpt><trkpt lat="43.785668027290185" lon="12.488788914076336"><ele>228.0</ele><time>2026-05-01T07:55:21Z</time></trkpt><trkpt lat="43.78558784587294" lon="12.488688143273816"><ele>228.0</ele><time>2026-05-01T07:55:22Z</time></trkpt><trkpt lat="43.78550382024172" lon="12.488586296926707"><ele>228.0</ele><time>2026-05-01T07:55:23Z</time></trkpt><trkpt lat="43.785418003686296" lon="12.488481102521567"><ele>228.0</ele><time>2026-05-01T07:55:24Z</time></trkpt><trkpt lat="43.78533114724635" lon="12.488374214999746"><ele>228.0</ele><time>2026-05-01T07:55:25Z</time></trkpt><trkpt lat="43.785244694468005" lon="12.488269985856585"><ele>228.0</ele><time>2026-05-01T07:55:26Z</time></trkpt><trkpt lat="43.78515794856264" lon="12.488167015495824"><ele>228.0</ele><time>2026-05-01T07:55:27Z</time></trkpt><trkpt lat="43.78507278239543" lon="12.48806160735802"><ele>228.0</ele><time>2026-05-01T07:55:28Z</time></trkpt><trkpt lat="43.78498757688902" lon="12.487952963564902"><ele>229.2</ele><time>2026-05-01T07:55:29Z</time></trkpt><trkpt lat="43.784904340943484" lon="12.487848362026213"><ele>230.4</ele><time>2026-05-01T07:55:30Z</time></trkpt><trkpt lat="43.784821701041245" lon="12.487748603681801"><ele>231.59999999999997</ele><time>2026-05-01T07:55:31Z</time></trkpt><trkpt lat="43.78474414894752" lon="12.487656819916827"><ele>232.79999999999998</ele><time>2026-05-01T07:55:32Z</time></trkpt><trkpt lat="43.78467516485062" lon="12.487571381464848"><ele>234.0</ele><time>2026-05-01T07:55:33Z</time></trkpt><trkpt lat="43.78460887319061" lon="12.487486269843599"><ele>234.0</ele><time>2026-05-01T07:55:34Z</time></trkpt><trkpt lat="43.784542474205665" lon="12.487399863174286"><ele>233.99999999999997</ele><time>2026-05-01T07:55:35Z</time></trkpt><trkpt lat="43.78447178050863" lon="12.48732081324318"><ele>233.99999999999997</ele><time>2026-05-01T07:55:36Z</time></trkpt><trkpt lat="43.78440553514654" lon="12.487233952661438"><ele>234.0</ele><time>2026-05-01T07:55:37Z</time></trkpt><trkpt lat="43.78433702666284" lon="12.48714794435208"><ele>234.0</ele><time>2026-05-01T07:55:38Z</time></trkpt><trkpt lat="43.784267544605804" lon="12.487064548379516"><ele>234.39999999999998</ele><time>2026-05-01T07:55:39Z</time></trkpt><trkpt lat="43.784200194302045" lon="12.486980009845771"><ele>234.79999999999998</ele><time>2026-05-01T07:55:40Z</time></trkpt><trkpt lat="43.78413011636907" lon="12.48689287036267"><ele>235.20000000000002</ele><time>2026-05-01T07:55:41Z</time></trkpt><trkpt lat="43.78405798361156" lon="12.486800681219684"><ele>235.60000000000002</ele><time>2026-05-01T07:55:42Z</time></trkpt><trkpt lat="43.783978204512266" lon="12.486706097945838"><ele>236.0</ele><time>2026-05-01T07:55:43Z</time></trkpt><trkpt lat="43.78389919876826" lon="12.486605149488568"><ele>236.0</ele><time>2026-05-01T07:55:44Z</time></trkpt><trkpt lat="43.783814504913444" lon="12.486495560862654"><ele>236.0</ele><time>2026-05-01T07:55:45Z</time></trkpt><trkpt lat="43.783725130612474" lon="12.486384867986585"><ele>236.0</ele><time>2026-05-01T07:55:46Z</time></trkpt><trkpt lat="43.78363105078455" lon="12.486275414471237"><ele>236.0</ele><time>2026-05-01T07:55:47Z</time></trkpt><trkpt lat="43.78354028408843" lon="12.486162471764844"><ele>236.0</ele><time>2026-05-01T07:55:48Z</time></trkpt><trkpt lat="43.78345023116448" lon="12.486042655389857"><ele>236.0</ele><time>2026-05-01T07:55:49Z</time></trkpt><trkpt lat="43.78335365733103" lon="12.485930613081011"><ele>236.0</ele><time>2026-05-01T07:55:50Z</time></trkpt><trkpt lat="43.783258462507234" lon="12.48581101878663"><ele>236.0</ele><time>2026-05-01T07:55:51Z</time></trkpt><trkpt lat="43.78316512464251" lon="12.485691213260392"><ele>236.0</ele><time>2026-05-01T07:55:52Z</time></trkpt><trkpt lat="43.78307206149903" lon="12.485575116585045"><ele>236.0</ele><time>2026-05-01T07:55:53Z</time></trkpt><trkpt lat="43.782976752365784" lon="12.48545569821601"><ele>236.0</ele><time>2026-05-01T07:55:54Z</time></trkpt><trkpt lat="43.782880340922006" lon="12.485333809044198"><ele>236.0</ele><time>2026-05-01T07:55:55Z</time></trkpt><trkpt lat="43.78278093060766" lon="12.485212208516"><ele>236.25</ele><time>2026-05-01T07:55:56Z</time></trkpt><trkpt lat="43.78268215980167" lon="12.485086662923782"><ele>236.5</ele><time>2026-05-01T07:55:57Z</time></trkpt><trkpt lat="43.782581426380865" lon="12.484960529665965"><ele>236.75</ele><time>2026-05-01T07:55:58Z</time></trkpt><trkpt lat="43.782482906400325" lon="12.484834292468458"><ele>237.0</ele><time>2026-05-01T07:55:59Z</time></trkpt><trkpt lat="43.7823765094689" lon="12.48470800060205"><ele>237.5</ele><time>2026-05-01T07:56:00Z</time></trkpt><trkpt lat="43.78226527750564" lon="12.484586747889493"><ele>238.0</ele><time>2026-05-01T07:56:01Z</time></trkpt><trkpt lat="43.78214927319724" lon="12.484477342798"><ele>238.5</ele><time>2026-05-01T07:56:02Z</time></trkpt><trkpt lat="43.782032292176474" lon="12.484384838633076"><ele>239.0</ele><time>2026-05-01T07:56:03Z</time></trkpt><trkpt lat="43.78191327056932" lon="12.484295922101403"><ele>239.0</ele><time>2026-05-01T07:56:04Z</time></trkpt><trkpt lat="43.78179543581118" lon="12.484205039802761"><ele>239.0</ele><time>2026-05-01T07:56:05Z</time></trkpt><trkpt lat="43.78167707467393" lon="12.48411131779535"><ele>239.0</ele><time>2026-05-01T07:56:06Z</time></trkpt><trkpt lat="43.78156401286454" lon="12.484021818485374"><ele>239.0</ele><time>2026-05-01T07:56:07Z</time></trkpt><trkpt lat="43.78145685188755" lon="12.483939997647894"><ele>239.0</ele><time>2026-05-01T07:56:08Z</time></trkpt><trkpt lat="43.78135465983375" lon="12.48386380269601"><ele>238.99999999999997</ele><time>2026-05-01T07:56:09Z</time></trkpt><trkpt lat="43.781257646059245" lon="12.483788681055605"><ele>238.99999999999997</ele><time>2026-05-01T07:56:10Z</time></trkpt><trkpt lat="43.78116271243706" lon="12.483715543648872"><ele>239.0</ele><time>2026-05-01T07:56:11Z</time></trkpt><trkpt lat="43.7810676918287" lon="12.483640698094261"><ele>239.0</ele><time>2026-05-01T07:56:12Z</time></trkpt><trkpt lat="43.78097082260975" lon="12.483567951003453"><ele>238.79999999999998</ele><time>2026-05-01T07:56:13Z</time></trkpt><trkpt lat="43.78087158450492" lon="12.483494266915475"><ele>238.59999999999997</ele><time>2026-05-01T07:56:14Z</time></trkpt><trkpt lat="43.7807756583108" lon="12.483420253376337"><ele>238.4</ele><time>2026-05-01T07:56:15Z</time></trkpt><trkpt lat="43.78068493532721" lon="12.483351053998312"><ele>238.2</ele><time>2026-05-01T07:56:16Z</time></trkpt><trkpt lat="43.78059797827053" lon="12.48328338464779"><ele>238.0</ele><time>2026-05-01T07:56:17Z</time></trkpt><trkpt lat="43.78051374140692" lon="12.483221683192495"><ele>238.0</ele><time>2026-05-01T07:56:18Z</time></trkpt><trkpt lat="43.78044032980889" lon="12.483139347167826"><ele>238.0</ele><time>2026-05-01T07:56:19Z</time></trkpt><trkpt lat="43.78035833150544" lon="12.483056191182975"><ele>238.0</ele><time>2026-05-01T07:56:20Z</time></trkpt><trkpt lat="43.78027919460319" lon="12.48294824409837"><ele>238.0</ele><time>2026-05-01T07:56:21Z</time></trkpt><trkpt lat="43.780203267116335" lon="12.482828103157035"><ele>238.0</ele><time>2026-05-01T07:56:22Z</time></trkpt><trkpt lat="43.780122987170095" lon="12.48270361852183"><ele>237.75</ele><time>2026-05-01T07:56:23Z</time></trkpt><trkpt lat="43.78004679254663" lon="12.48256927597063"><ele>237.5</ele><time>2026-05-01T07:56:24Z</time></trkpt><trkpt lat="43.77996887702832" lon="12.482437444106177"><ele>237.25</ele><time>2026-05-01T07:56:25Z</time></trkpt><trkpt lat="43.779900182236624" lon="12.48230352074138"><ele>237.0</ele><time>2026-05-01T07:56:26Z</time></trkpt><trkpt lat="43.77983096858233" lon="12.482178378405928"><ele>239.0</ele><time>2026-05-01T07:56:27Z</time></trkpt><trkpt lat="43.779761040235286" lon="12.482050233395107"><ele>241.0</ele><time>2026-05-01T07:56:28Z</time></trkpt><trkpt lat="43.779692695198" lon="12.481919130419014"><ele>243.0</ele><time>2026-05-01T07:56:29Z</time></trkpt><trkpt lat="43.779614123393735" lon="12.48178984133011"><ele>245.0</ele><time>2026-05-01T07:56:30Z</time></trkpt><trkpt lat="43.779534111162974" lon="12.481648658112597"><ele>245.0</ele><time>2026-05-01T07:56:31Z</time></trkpt><trkpt lat="43.77945035590928" lon="12.481495410985625"><ele>245.0</ele><time>2026-05-01T07:56:32Z</time></trkpt><trkpt lat="43.779360077383124" lon="12.48133519571376"><ele>245.0</ele><time>2026-05-01T07:56:33Z</time></trkpt><trkpt lat="43.77927366828597" lon="12.481169812403408"><ele>245.0</ele><time>2026-05-01T07:56:34Z</time></trkpt><trkpt lat="43.77919188148595" lon="12.48101311548284"><ele>245.25</ele><time>2026-05-01T07:56:35Z</time></trkpt><trkpt lat="43.77911259542209" lon="12.480863631556968"><ele>245.5</ele><time>2026-05-01T07:56:36Z</time></trkpt><trkpt lat="43.77903126885291" lon="12.48071866967288"><ele>245.75</ele><time>2026-05-01T07:56:37Z</time></trkpt><trkpt lat="43.77894601972626" lon="12.480570984306553"><ele>246.0</ele><time>2026-05-01T07:56:38Z</time></trkpt><trkpt lat="43.77886746044085" lon="12.48042669287846"><ele>246.0</ele><time>2026-05-01T07:56:39Z</time></trkpt><trkpt lat="43.7787897141523" lon="12.48028131114101"><ele>246.0</ele><time>2026-05-01T07:56:40Z</time></trkpt><trkpt lat="43.77871757295134" lon="12.480147282005243"><ele>246.0</ele><time>2026-05-01T07:56:41Z</time></trkpt><trkpt lat="43.778657577412396" lon="12.480012328533716"><ele>246.0</ele><time>2026-05-01T07:56:42Z</time></trkpt><trkpt lat="43.778599650967635" lon="12.479878883424664"><ele>246.0</ele><time>2026-05-01T07:56:43Z</time></trkpt><trkpt lat="43.77855074121248" lon="12.479737065311472"><ele>246.0</ele><time>2026-05-01T07:56:44Z</time></trkpt><trkpt lat="43.7785168982236" lon="12.479583245560285"><ele>246.0</ele><time>2026-05-01T07:56:45Z</time></trkpt><trkpt lat="43.77849729797793" lon="12.479419585398851"><ele>246.0</ele><time>2026-05-01T07:56:46Z</time></trkpt><trkpt lat="43.77848442128805" lon="12.479265862516613"><ele>242.25</ele><time>2026-05-01T07:56:47Z</time></trkpt><trkpt lat="43.77847054272576" lon="12.479108105986718"><ele>238.5</ele><time>2026-05-01T07:56:48Z</time></trkpt><trkpt lat="43.778456158206225" lon="12.478941506107793"><ele>234.75</ele><time>2026-05-01T07:56:49Z</time></trkpt><trkpt lat="43.77844505667715" lon="12.47876778303081"><ele>231.0</ele><time>2026-05-01T07:56:50Z</time></trkpt><trkpt lat="43.7784409848271" lon="12.47858211199451"><ele>231.0</ele><time>2026-05-01T07:56:51Z</time></trkpt><trkpt lat="43.77845461564454" lon="12.478390214820651"><ele>231.0</ele><time>2026-05-01T07:56:51.999Z</time></trkpt><trkpt lat="43.77848293526648" lon="12.478208014274715"><ele>231.0</ele><time>2026-05-01T07:56:52.999Z</time></trkpt><trkpt lat="43.778527814219245" lon="12.478034753632208"><ele>231.0</ele><time>2026-05-01T07:56:53.999Z</time></trkpt><trkpt lat="43.77857795669325" lon="12.477871370160768"><ele>233.0</ele><time>2026-05-01T07:56:54.999Z</time></trkpt><trkpt lat="43.77864543794287" lon="12.4777116733137"><ele>235.0</ele><time>2026-05-01T07:56:55.999Z</time></trkpt><trkpt lat="43.77872878858557" lon="12.477559632679943"><ele>237.0</ele><time>2026-05-01T07:56:56.999Z</time></trkpt><trkpt lat="43.778808427948796" lon="12.47741011387293"><ele>239.0</ele><time>2026-05-01T07:56:57.999Z</time></trkpt><trkpt lat="43.77887838473859" lon="12.477273775863148"><ele>239.0</ele><time>2026-05-01T07:56:58.999Z</time></trkpt><trkpt lat="43.77894663173555" lon="12.477149447644843"><ele>238.99999999999997</ele><time>2026-05-01T07:56:59.999Z</time></trkpt><trkpt lat="43.779008955206244" lon="12.477014085430351"><ele>238.99999999999997</ele><time>2026-05-01T07:57:00.999Z</time></trkpt><trkpt lat="43.77906815904957" lon="12.47688499968226"><ele>239.0</ele><time>2026-05-01T07:57:01.999Z</time></trkpt><trkpt lat="43.77912349730602" lon="12.476766410508434"><ele>239.0</ele><time>2026-05-01T07:57:02.999Z</time></trkpt><trkpt lat="43.779170030309665" lon="12.476662895398595"><ele>238.16666666666669</ele><time>2026-05-01T07:57:03.999Z</time></trkpt><trkpt lat="43.779207207851904" lon="12.476571423546659"><ele>237.33333333333334</ele><time>2026-05-01T07:57:04.999Z</time></trkpt><trkpt lat="43.779253396280595" lon="12.476483322786294"><ele>236.5</ele><time>2026-05-01T07:57:05.999Z</time></trkpt><trkpt lat="43.77931379487921" lon="12.476422183106871"><ele>235.66666666666669</ele><time>2026-05-01T07:57:06.999Z</time></trkpt><trkpt lat="43.77938553816533" lon="12.476393771016804"><ele>234.83333333333334</ele><time>2026-05-01T07:57:07.999Z</time></trkpt><trkpt lat="43.77945640812728" lon="12.47633770214278"><ele>234.0</ele><time>2026-05-01T07:57:08.999Z</time></trkpt><trkpt lat="43.77956088329476" lon="12.476256249845433"><ele>230.33333333333331</ele><time>2026-05-01T07:57:09.999Z</time></trkpt><trkpt lat="43.77968850331532" lon="12.476164555848804"><ele>226.66666666666666</ele><time>2026-05-01T07:57:10.999Z</time></trkpt><trkpt lat="43.77984676691092" lon="12.47606396677908"><ele>223.0</ele><time>2026-05-01T07:57:11.999Z</time></trkpt><trkpt lat="43.78002993604955" lon="12.475953984998451"><ele>224.66666666666666</ele><time>2026-05-01T07:57:12.999Z</time></trkpt><trkpt lat="43.78021391232886" lon="12.47583926398504"><ele>226.33333333333331</ele><time>2026-05-01T07:57:13.999Z</time></trkpt><trkpt lat="43.78038747505817" lon="12.47573180535935"><ele>228.0</ele><time>2026-05-01T07:57:14.999Z</time></trkpt><trkpt lat="43.78057535154549" lon="12.475618795000628"><ele>228.0</ele><time>2026-05-01T07:57:15.999Z</time></trkpt><trkpt lat="43.78076872255809" lon="12.475501731223602"><ele>228.0</ele><time>2026-05-01T07:57:16.999Z</time></trkpt><trkpt lat="43.780964153148744" lon="12.475379909877741"><ele>228.0</ele><time>2026-05-01T07:57:17.999Z</time></trkpt><trkpt lat="43.78116055965389" lon="12.475251734199272"><ele>227.5</ele><time>2026-05-01T07:57:18.999Z</time></trkpt><trkpt lat="43.78135497800695" lon="12.475097293162424"><ele>227.0</ele><time>2026-05-01T07:57:19.999Z</time></trkpt><trkpt lat="43.781558601651334" lon="12.474897243307595"><ele>227.0</ele><time>2026-05-01T07:57:20.999Z</time></trkpt><trkpt lat="43.78177859557001" lon="12.474669583501457"><ele>227.0</ele><time>2026-05-01T07:57:21.999Z</time></trkpt><trkpt lat="43.78202326043797" lon="12.474430199890147"><ele>229.5</ele><time>2026-05-01T07:57:22.999Z</time></trkpt><trkpt lat="43.7822865248639" lon="12.474177401249749"><ele>232.0</ele><time>2026-05-01T07:57:23.999Z</time></trkpt><trkpt lat="43.782560647372506" lon="12.473913074442043"><ele>232.0</ele><time>2026-05-01T07:57:25Z</time></trkpt><trkpt lat="43.78282526984352" lon="12.473661723375187"><ele>232.0</ele><time>2026-05-01T07:57:26Z</time></trkpt><trkpt lat="43.78307852454045" lon="12.47341411904278"><ele>232.0</ele><time>2026-05-01T07:57:27Z</time></trkpt><trkpt lat="43.78331264713078" lon="12.473162899021286"><ele>232.0</ele><time>2026-05-01T07:57:28Z</time></trkpt><trkpt lat="43.78353362162912" lon="12.472931944789162"><ele>231.5</ele><time>2026-05-01T07:57:29Z</time></trkpt><trkpt lat="43.7837493288422" lon="12.472717963496853"><ele>231.0</ele><time>2026-05-01T07:57:30Z</time></trkpt><trkpt lat="43.783951208088254" lon="12.47251872710606"><ele>231.0</ele><time>2026-05-01T07:57:31Z</time></trkpt><trkpt lat="43.784139980124806" lon="12.472331911559852"><ele>231.0</ele><time>2026-05-01T07:57:32Z</time></trkpt><trkpt lat="43.78431014355493" lon="12.472166642635559"><ele>231.0</ele><time>2026-05-01T07:57:33Z</time></trkpt><trkpt lat="43.78447389828648" lon="12.472008907445641"><ele>231.33333333333331</ele><time>2026-05-01T07:57:34Z</time></trkpt><trkpt lat="43.78463355802674" lon="12.471857028746294"><ele>231.66666666666666</ele><time>2026-05-01T07:57:35Z</time></trkpt><trkpt lat="43.78479133076322" lon="12.471710641279397"><ele>232.0</ele><time>2026-05-01T07:57:36Z</time></trkpt><trkpt lat="43.78494879187523" lon="12.471557423497401"><ele>232.0</ele><time>2026-05-01T07:57:37Z</time></trkpt><trkpt lat="43.78509986904504" lon="12.471398402724663"><ele>232.0</ele><time>2026-05-01T07:57:38Z</time></trkpt><trkpt lat="43.785253939759556" lon="12.471242829211397"><ele>232.0</ele><time>2026-05-01T07:57:39Z</time></trkpt><trkpt lat="43.7854078172731" lon="12.47108727072955"><ele>235.0</ele><time>2026-05-01T07:57:40Z</time></trkpt><trkpt lat="43.78556186082539" lon="12.470937516250004"><ele>238.0</ele><time>2026-05-01T07:57:41Z</time></trkpt><trkpt lat="43.78570459019265" lon="12.470796158221592"><ele>241.0</ele><time>2026-05-01T07:57:42Z</time></trkpt><trkpt lat="43.78583362418975" lon="12.470659199174708"><ele>241.0</ele><time>2026-05-01T07:57:43Z</time></trkpt><trkpt lat="43.785956632169366" lon="12.47051571455209"><ele>241.0</ele><time>2026-05-01T07:57:44Z</time></trkpt><trkpt lat="43.786079165181704" lon="12.470351166892957"><ele>241.0</ele><time>2026-05-01T07:57:45Z</time></trkpt><trkpt lat="43.78619121860033" lon="12.470158540582888"><ele>243.33333333333331</ele><time>2026-05-01T07:57:46Z</time></trkpt><trkpt lat="43.78628735253865" lon="12.469944195704468"><ele>245.66666666666669</ele><time>2026-05-01T07:57:47Z</time></trkpt><trkpt lat="43.78637879576685" lon="12.469715180532605"><ele>248.0</ele><time>2026-05-01T07:57:48Z</time></trkpt><trkpt lat="43.78646540573416" lon="12.46948853526788"><ele>248.0</ele><time>2026-05-01T07:57:49Z</time></trkpt><trkpt lat="43.78655015447618" lon="12.469258009169693"><ele>248.0</ele><time>2026-05-01T07:57:50Z</time></trkpt><trkpt lat="43.78663906559143" lon="12.469024460718995"><ele>248.0</ele><time>2026-05-01T07:57:51Z</time></trkpt><trkpt lat="43.786726321244714" lon="12.468771669218633"><ele>250.0</ele><time>2026-05-01T07:57:52Z</time></trkpt><trkpt lat="43.786821743011735" lon="12.468511843639856"><ele>252.0</ele><time>2026-05-01T07:57:53Z</time></trkpt><trkpt lat="43.78693766374304" lon="12.468256208954076"><ele>254.0</ele><time>2026-05-01T07:57:54Z</time></trkpt><trkpt lat="43.78704696768535" lon="12.4679915821033"><ele>253.66666666666669</ele><time>2026-05-01T07:57:55Z</time></trkpt><trkpt lat="43.787150264007124" lon="12.467730204916556"><ele>253.33333333333331</ele><time>2026-05-01T07:57:56Z</time></trkpt><trkpt lat="43.787248385758886" lon="12.467465705164395"><ele>253.0</ele><time>2026-05-01T07:57:57Z</time></trkpt><trkpt lat="43.78735300930922" lon="12.46720104048835"><ele>252.33333333333331</ele><time>2026-05-01T07:57:58Z</time></trkpt><trkpt lat="43.78746326007201" lon="12.466938142201977"><ele>251.66666666666669</ele><time>2026-05-01T07:57:59Z</time></trkpt><trkpt lat="43.78757844275699" lon="12.46667834462547"><ele>251.0</ele><time>2026-05-01T07:58:00Z</time></trkpt><trkpt lat="43.78770293242449" lon="12.466417339633061"><ele>252.33333333333334</ele><time>2026-05-01T07:58:01Z</time></trkpt><trkpt lat="43.787834560836714" lon="12.466162711108485"><ele>253.66666666666669</ele><time>2026-05-01T07:58:02Z</time></trkpt><trkpt lat="43.787972506936235" lon="12.465919270506335"><ele>255.0</ele><time>2026-05-01T07:58:03Z</time></trkpt><trkpt lat="43.78809749962131" lon="12.46569015469701"><ele>255.0</ele><time>2026-05-01T07:58:04Z</time></trkpt><trkpt lat="43.788214229259374" lon="12.465475775492534"><ele>255.0</ele><time>2026-05-01T07:58:05Z</time></trkpt><trkpt lat="43.78832598254947" lon="12.465271843847814"><ele>255.0</ele><time>2026-05-01T07:58:06Z</time></trkpt><trkpt lat="43.78843186956754" lon="12.465079120722246"><ele>255.0</ele><time>2026-05-01T07:58:07Z</time></trkpt><trkpt lat="43.78852683538725" lon="12.46489196210323"><ele>255.0</ele><time>2026-05-01T07:58:08Z</time></trkpt><trkpt lat="43.788620765753805" lon="12.4647201702932"><ele>255.0</ele><time>2026-05-01T07:58:09Z</time></trkpt><trkpt lat="43.78871976365731" lon="12.464552195558644"><ele>254.66666666666669</ele><time>2026-05-01T07:58:10Z</time></trkpt><trkpt lat="43.788818639842354" lon="12.464374086437486"><ele>254.33333333333334</ele><time>2026-05-01T07:58:11Z</time></trkpt><trkpt lat="43.78891841656492" lon="12.464189231388142"><ele>254.0</ele><time>2026-05-01T07:58:12Z</time></trkpt><trkpt lat="43.78901888301737" lon="12.463997389163765"><ele>254.0</ele><time>2026-05-01T07:58:13Z</time></trkpt><trkpt lat="43.7891237753579" lon="12.463797040887577"><ele>254.0</ele><time>2026-05-01T07:58:14Z</time></trkpt><trkpt lat="43.78923453798786" lon="12.463589897495554"><ele>254.0</ele><time>2026-05-01T07:58:15Z</time></trkpt><trkpt lat="43.78935068518059" lon="12.463375483774932"><ele>257.6666666666667</ele><time>2026-05-01T07:58:16Z</time></trkpt><trkpt lat="43.789471679130585" lon="12.4631608343625"><ele>261.3333333333333</ele><time>2026-05-01T07:58:17Z</time></trkpt><trkpt lat="43.789588120411025" lon="12.46294062537178"><ele>265.0</ele><time>2026-05-01T07:58:18Z</time></trkpt><trkpt lat="43.78969131890576" lon="12.462703579756946"><ele>265.0</ele><time>2026-05-01T07:58:19Z</time></trkpt><trkpt lat="43.78977343269262" lon="12.462447169181248"><ele>265.0</ele><time>2026-05-01T07:58:20Z</time></trkpt><trkpt lat="43.78982838723485" lon="12.462170413665952"><ele>265.0</ele><time>2026-05-01T07:58:21Z</time></trkpt><trkpt lat="43.789861667232906" lon="12.461883643880347"><ele>264.66666666666663</ele><time>2026-05-01T07:58:22Z</time></trkpt><trkpt lat="43.78986891357905" lon="12.461591123466675"><ele>264.3333333333333</ele><time>2026-05-01T07:58:23Z</time></trkpt><trkpt lat="43.78984701017428" lon="12.461293215338687"><ele>264.0</ele><time>2026-05-01T07:58:24Z</time></trkpt><trkpt lat="43.78978807354947" lon="12.460994099796336"><ele>263.5</ele><time>2026-05-01T07:58:25Z</time></trkpt><trkpt lat="43.789698150785206" lon="12.460701736614672"><ele>263.0</ele><time>2026-05-01T07:58:26Z</time></trkpt><trkpt lat="43.78958664112252" lon="12.460422041057193"><ele>260.33333333333337</ele><time>2026-05-01T07:58:27Z</time></trkpt><trkpt lat="43.789477253016024" lon="12.460153136475931"><ele>257.6666666666667</ele><time>2026-05-01T07:58:28Z</time></trkpt><trkpt lat="43.78938794607174" lon="12.459896190108992"><ele>255.0</ele><time>2026-05-01T07:58:29Z</time></trkpt><trkpt lat="43.789320873557664" lon="12.459624760139993"><ele>256.3333333333333</ele><time>2026-05-01T07:58:30Z</time></trkpt><trkpt lat="43.789267102224095" lon="12.459335721734556"><ele>257.66666666666663</ele><time>2026-05-01T07:58:31Z</time></trkpt><trkpt lat="43.789248031570786" lon="12.45904085941451"><ele>259.0</ele><time>2026-05-01T07:58:32Z</time></trkpt><trkpt lat="43.7892565362074" lon="12.458738227598893"><ele>259.3333333333333</ele><time>2026-05-01T07:58:33Z</time></trkpt><trkpt lat="43.789289078455106" lon="12.458431072310223"><ele>259.6666666666667</ele><time>2026-05-01T07:58:34Z</time></trkpt><trkpt lat="43.78933739480486" lon="12.458135002996395"><ele>260.0</ele><time>2026-05-01T07:58:35Z</time></trkpt><trkpt lat="43.789376847557044" lon="12.457853658002314"><ele>267.6666666666667</ele><time>2026-05-01T07:58:36Z</time></trkpt><trkpt lat="43.78939979498987" lon="12.457569387309155"><ele>275.3333333333333</ele><time>2026-05-01T07:58:37Z</time></trkpt><trkpt lat="43.789403016047125" lon="12.457280000605534"><ele>283.0</ele><time>2026-05-01T07:58:38Z</time></trkpt><trkpt lat="43.789371231919525" lon="12.456986737728144"><ele>278.3333333333333</ele><time>2026-05-01T07:58:39Z</time></trkpt><trkpt lat="43.78931213849947" lon="12.456695337895852"><ele>273.6666666666667</ele><time>2026-05-01T07:58:40Z</time></trkpt><trkpt lat="43.78922806542836" lon="12.456414245464115"><ele>269.0</ele><time>2026-05-01T07:58:41Z</time></trkpt><trkpt lat="43.78913399797414" lon="12.456138429815681"><ele>269.0</ele><time>2026-05-01T07:58:42Z</time></trkpt><trkpt lat="43.78904512989197" lon="12.455880137283572"><ele>269.0</ele><time>2026-05-01T07:58:43Z</time></trkpt><trkpt lat="43.788962422792686" lon="12.4556352721098"><ele>269.0</ele><time>2026-05-01T07:58:44Z</time></trkpt><trkpt lat="43.788881747914324" lon="12.4553912317777"><ele>271.0</ele><time>2026-05-01T07:58:45Z</time></trkpt><trkpt lat="43.78880680549306" lon="12.455162786386968"><ele>273.0</ele><time>2026-05-01T07:58:46Z</time></trkpt><trkpt lat="43.78874738163537" lon="12.454942719557465"><ele>275.0</ele><time>2026-05-01T07:58:47Z</time></trkpt><trkpt lat="43.788706613483384" lon="12.454733455786906"><ele>274.6666666666667</ele><time>2026-05-01T07:58:48Z</time></trkpt><trkpt lat="43.788667493199526" lon="12.454501290889299"><ele>274.3333333333333</ele><time>2026-05-01T07:58:49Z</time></trkpt><trkpt lat="43.78864291591016" lon="12.454264033916953"><ele>274.0</ele><time>2026-05-01T07:58:50Z</time></trkpt><trkpt lat="43.78862828258221" lon="12.454030638493144"><ele>274.0</ele><time>2026-05-01T07:58:51Z</time></trkpt><trkpt lat="43.788623116841805" lon="12.453809374340102"><ele>274.0</ele><time>2026-05-01T07:58:52Z</time></trkpt><trkpt lat="43.78862215331857" lon="12.453606049780522"><ele>274.0</ele><time>2026-05-01T07:58:53Z</time></trkpt><trkpt lat="43.78861407381566" lon="12.45341284486587"><ele>274.0</ele><time>2026-05-01T07:58:54Z</time></trkpt><trkpt lat="43.788615897119946" lon="12.453232489654436"><ele>273.0</ele><time>2026-05-01T07:58:55Z</time></trkpt><trkpt lat="43.78862853180405" lon="12.453049446156705"><ele>272.0</ele><time>2026-05-01T07:58:56Z</time></trkpt><trkpt lat="43.78866044964717" lon="12.452866304793774"><ele>271.0</ele><time>2026-05-01T07:58:57Z</time></trkpt><trkpt lat="43.788717096947586" lon="12.452681704189565"><ele>270.0</ele><time>2026-05-01T07:58:57.999Z</time></trkpt><trkpt lat="43.78878449044362" lon="12.452525056891144"><ele>269.25</ele><time>2026-05-01T07:58:58.999Z</time></trkpt><trkpt lat="43.78886285437034" lon="12.452379336388283"><ele>268.5</ele><time>2026-05-01T07:58:59.999Z</time></trkpt><trkpt lat="43.7889592719413" lon="12.452253234554577"><ele>267.75</ele><time>2026-05-01T07:59:00.999Z</time></trkpt><trkpt lat="43.78906681562577" lon="12.452165283810006"><ele>267.0</ele><time>2026-05-01T07:59:01.999Z</time></trkpt><trkpt lat="43.7891912605249" lon="12.452117615549293"><ele>265.75</ele><time>2026-05-01T07:59:02.999Z</time></trkpt><trkpt lat="43.789320816324334" lon="12.452100254307286"><ele>264.5</ele><time>2026-05-01T07:59:03.999Z</time></trkpt><trkpt lat="43.78945528531361" lon="12.452103854367724"><ele>263.25</ele><time>2026-05-01T07:59:04.999Z</time></trkpt><trkpt lat="43.78958973455433" lon="12.452108590121657"><ele>262.0</ele><time>2026-05-01T07:59:05.999Z</time></trkpt><trkpt lat="43.78971880619214" lon="12.45211864397635"><ele>264.75</ele><time>2026-05-01T07:59:06.999Z</time></trkpt><trkpt lat="43.789849017245835" lon="12.452128748377145"><ele>267.5</ele><time>2026-05-01T07:59:07.999Z</time></trkpt><trkpt lat="43.789982197848154" lon="12.452129547700363"><ele>270.25</ele><time>2026-05-01T07:59:08.999Z</time></trkpt><trkpt lat="43.79012103286001" lon="12.4521335543426"><ele>273.0</ele><time>2026-05-01T07:59:09.999Z</time></trkpt><trkpt lat="43.79026068342892" lon="12.452139044163433"><ele>273.0</ele><time>2026-05-01T07:59:10.999Z</time></trkpt><trkpt lat="43.790402483282946" lon="12.452130306179022"><ele>273.0</ele><time>2026-05-01T07:59:11.999Z</time></trkpt><trkpt lat="43.79054114409605" lon="12.452095277605745"><ele>273.0</ele><time>2026-05-01T07:59:12.999Z</time></trkpt><trkpt lat="43.790673207924655" lon="12.452028415227119"><ele>273.0</ele><time>2026-05-01T07:59:13.999Z</time></trkpt><trkpt lat="43.79078918235258" lon="12.451912542201283"><ele>273.0</ele><time>2026-05-01T07:59:14.999Z</time></trkpt><trkpt lat="43.790887866247104" lon="12.45176380532758"><ele>273.0</ele><time>2026-05-01T07:59:15.999Z</time></trkpt><trkpt lat="43.79097598443922" lon="12.451566657346195"><ele>273.0</ele><time>2026-05-01T07:59:16.999Z</time></trkpt><trkpt lat="43.79107398021773" lon="12.451351427153766"><ele>278.6666666666667</ele><time>2026-05-01T07:59:17.999Z</time></trkpt><trkpt lat="43.79119845063424" lon="12.451139591291291"><ele>284.33333333333337</ele><time>2026-05-01T07:59:18.999Z</time></trkpt><trkpt lat="43.79132725286859" lon="12.450911975142311"><ele>290.0</ele><time>2026-05-01T07:59:19.999Z</time></trkpt><trkpt lat="43.79143227773538" lon="12.450678473259938"><ele>286.6666666666667</ele><time>2026-05-01T07:59:20.999Z</time></trkpt><trkpt lat="43.791525054288805" lon="12.450437154717786"><ele>283.3333333333333</ele><time>2026-05-01T07:59:21.999Z</time></trkpt><trkpt lat="43.79159840767835" lon="12.450186246921898"><ele>280.0</ele><time>2026-05-01T07:59:22.999Z</time></trkpt><trkpt lat="43.79168919720366" lon="12.449946849686263"><ele>280.0</ele><time>2026-05-01T07:59:23.999Z</time></trkpt><trkpt lat="43.791809838328135" lon="12.44972538618581"><ele>280.0</ele><time>2026-05-01T07:59:24.999Z</time></trkpt><trkpt lat="43.79193906105392" lon="12.449515450905752"><ele>280.0</ele><time>2026-05-01T07:59:25.999Z</time></trkpt><trkpt lat="43.79207939524982" lon="12.44932467664252"><ele>282.0</ele><time>2026-05-01T07:59:26.999Z</time></trkpt><trkpt lat="43.792237940981884" lon="12.449161745738927"><ele>284.0</ele><time>2026-05-01T07:59:27.999Z</time></trkpt><trkpt lat="43.792404429539836" lon="12.449017359088092"><ele>286.0</ele><time>2026-05-01T07:59:28.999Z</time></trkpt><trkpt lat="43.792583655907244" lon="12.448898867186404"><ele>283.3333333333333</ele><time>2026-05-01T07:59:29.999Z</time></trkpt><trkpt lat="43.79277375606612" lon="12.448804419605526"><ele>280.6666666666667</ele><time>2026-05-01T07:59:31Z</time></trkpt><trkpt lat="43.79297288628723" lon="12.448730411164036"><ele>278.0</ele><time>2026-05-01T07:59:32Z</time></trkpt><trkpt lat="43.793176344235256" lon="12.448671536182461"><ele>278.0</ele><time>2026-05-01T07:59:33Z</time></trkpt><trkpt lat="43.793381947764196" lon="12.448613092543832"><ele>278.0</ele><time>2026-05-01T07:59:34Z</time></trkpt><trkpt lat="43.79359029261705" lon="12.44855524367466"><ele>278.0</ele><time>2026-05-01T07:59:35Z</time></trkpt><trkpt lat="43.7938008277073" lon="12.448503459837275"><ele>280.0</ele><time>2026-05-01T07:59:36Z</time></trkpt><trkpt lat="43.794016230861914" lon="12.448459307557057"><ele>282.0</ele><time>2026-05-01T07:59:37Z</time></trkpt><trkpt lat="43.794232941918075" lon="12.448425268202833"><ele>284.0</ele><time>2026-05-01T07:59:38Z</time></trkpt><trkpt lat="43.794453888745466" lon="12.448401087875677"><ele>285.33333333333337</ele><time>2026-05-01T07:59:39Z</time></trkpt><trkpt lat="43.79467315439812" lon="12.448378655624172"><ele>286.6666666666667</ele><time>2026-05-01T07:59:40Z</time></trkpt><trkpt lat="43.79489263732252" lon="12.448350639922905"><ele>288.0</ele><time>2026-05-01T07:59:41Z</time></trkpt><trkpt lat="43.795113717396205" lon="12.448319180549026"><ele>289.6666666666667</ele><time>2026-05-01T07:59:42Z</time></trkpt><trkpt lat="43.795328644097225" lon="12.448281354023194"><ele>291.33333333333337</ele><time>2026-05-01T07:59:43Z</time></trkpt><trkpt lat="43.79555050531399" lon="12.4482565966832"><ele>293.0</ele><time>2026-05-01T07:59:44Z</time></trkpt><trkpt lat="43.795771300548786" lon="12.448232513814016"><ele>293.0</ele><time>2026-05-01T07:59:45Z</time></trkpt><trkpt lat="43.79599024104482" lon="12.448204798707192"><ele>293.0</ele><time>2026-05-01T07:59:46Z</time></trkpt><trkpt lat="43.79621223904433" lon="12.448174324057868"><ele>293.0</ele><time>2026-05-01T07:59:47Z</time></trkpt><trkpt lat="43.796434006369275" lon="12.44814502589832"><ele>293.0</ele><time>2026-05-01T07:59:48Z</time></trkpt><trkpt lat="43.79665429102407" lon="12.448103536831752"><ele>293.0</ele><time>2026-05-01T07:59:49Z</time></trkpt><trkpt lat="43.79687415373663" lon="12.448048595335717"><ele>293.0</ele><time>2026-05-01T07:59:50Z</time></trkpt><trkpt lat="43.79708584186892" lon="12.447942414631742"><ele>293.0</ele><time>2026-05-01T07:59:51Z</time></trkpt><trkpt lat="43.79729100403118" lon="12.447812032618714"><ele>293.0</ele><time>2026-05-01T07:59:52Z</time></trkpt><trkpt lat="43.797486549246976" lon="12.44767480746793"><ele>293.0</ele><time>2026-05-01T07:59:53Z</time></trkpt><trkpt lat="43.797669322225325" lon="12.447552276644704"><ele>294.33333333333337</ele><time>2026-05-01T07:59:54Z</time></trkpt><trkpt lat="43.797850127624734" lon="12.447450541062707"><ele>295.6666666666667</ele><time>2026-05-01T07:59:55Z</time></trkpt><trkpt lat="43.79803939244898" lon="12.447373130509574"><ele>297.0</ele><time>2026-05-01T07:59:56Z</time></trkpt><trkpt lat="43.79824064551323" lon="12.447341148450036"><ele>297.0</ele><time>2026-05-01T07:59:57Z</time></trkpt><trkpt lat="43.79844926903162" lon="12.447346837233733"><ele>297.0</ele><time>2026-05-01T07:59:58Z</time></trkpt><trkpt lat="43.79863705024597" lon="12.447375019244557"><ele>297.0</ele><time>2026-05-01T07:59:59Z</time></trkpt><trkpt lat="43.79880431014706" lon="12.447396505721981"><ele>296.5</ele><time>2026-05-01T08:00:00Z</time></trkpt><trkpt lat="43.79896207702549" lon="12.447407017768489"><ele>296.0</ele><time>2026-05-01T08:00:01Z</time></trkpt><trkpt lat="43.79910392875946" lon="12.447404249332385"><ele>295.5</ele><time>2026-05-01T08:00:02Z</time></trkpt><trkpt lat="43.79923345871958" lon="12.44738471391298"><ele>295.0</ele><time>2026-05-01T08:00:03Z</time></trkpt><trkpt lat="43.79935050457704" lon="12.447348250486897"><ele>296.0</ele><time>2026-05-01T08:00:04Z</time></trkpt><trkpt lat="43.79946657055701" lon="12.447298576385942"><ele>297.0</ele><time>2026-05-01T08:00:05Z</time></trkpt><trkpt lat="43.7995895647314" lon="12.447256312564805"><ele>298.0</ele><time>2026-05-01T08:00:06Z</time></trkpt><trkpt lat="43.79972259591708" lon="12.447215460221527"><ele>299.0</ele><time>2026-05-01T08:00:07Z</time></trkpt><trkpt lat="43.79986188493138" lon="12.447180710621307"><ele>299.0</ele><time>2026-05-01T08:00:08Z</time></trkpt><trkpt lat="43.799998721139644" lon="12.447166618171929"><ele>299.0</ele><time>2026-05-01T08:00:09Z</time></trkpt><trkpt lat="43.80012569588645" lon="12.447161559663039"><ele>299.0</ele><time>2026-05-01T08:00:10Z</time></trkpt><trkpt lat="43.80025147134027" lon="12.44715272406367"><ele>299.0</ele><time>2026-05-01T08:00:11Z</time></trkpt><trkpt lat="43.80036917479128" lon="12.447143528988576"><ele>299.2</ele><time>2026-05-01T08:00:12Z</time></trkpt><trkpt lat="43.80047643741356" lon="12.447137950700343"><ele>299.4</ele><time>2026-05-01T08:00:13Z</time></trkpt><trkpt lat="43.80057957806332" lon="12.447132044900826"><ele>299.6</ele><time>2026-05-01T08:00:14Z</time></trkpt><trkpt lat="43.800674995335925" lon="12.447124034351724"><ele>299.8</ele><time>2026-05-01T08:00:15Z</time></trkpt><trkpt lat="43.80076790943079" lon="12.447112721073806"><ele>300.0</ele><time>2026-05-01T08:00:16Z</time></trkpt><trkpt lat="43.80084917142089" lon="12.447084127513568"><ele>300.2857142857143</ele><time>2026-05-01T08:00:17Z</time></trkpt><trkpt lat="43.80092086501278" lon="12.447033933343617"><ele>300.57142857142856</ele><time>2026-05-01T08:00:18Z</time></trkpt><trkpt lat="43.8009820204702" lon="12.446971815994797"><ele>300.8571428571429</ele><time>2026-05-01T08:00:19Z</time></trkpt><trkpt lat="43.801032867821476" lon="12.446905189422765"><ele>301.1428571428571</ele><time>2026-05-01T08:00:20Z</time></trkpt><trkpt lat="43.80107020168724" lon="12.446819329887429"><ele>301.42857142857144</ele><time>2026-05-01T08:00:21Z</time></trkpt><trkpt lat="43.80109396951517" lon="12.446727570869108"><ele>301.7142857142857</ele><time>2026-05-01T08:00:22Z</time></trkpt><trkpt lat="43.8011038877662" lon="12.446633140290242"><ele>302.0</ele><time>2026-05-01T08:00:23Z</time></trkpt><trkpt lat="43.801104196519624" lon="12.446542445847546"><ele>302.0</ele><time>2026-05-01T08:00:24Z</time></trkpt><trkpt lat="43.80110229432437" lon="12.44645268444879"><ele>302.0</ele><time>2026-05-01T08:00:25Z</time></trkpt><trkpt lat="43.801095995007884" lon="12.446363102865144"><ele>302.0</ele><time>2026-05-01T08:00:26Z</time></trkpt><trkpt lat="43.80107957934747" lon="12.44627506092796"><ele>302.0</ele><time>2026-05-01T08:00:27Z</time></trkpt><trkpt lat="43.80106156066483" lon="12.446187557084832"><ele>302.0</ele><time>2026-05-01T08:00:28Z</time></trkpt><trkpt lat="43.80104101917588" lon="12.446027887292782"><ele>302.0</ele><time>2026-05-01T08:00:30Z</time></trkpt><trkpt lat="43.801050571750544" lon="12.445884370810687"><ele>301.0</ele><time>2026-05-01T08:00:32Z</time></trkpt><trkpt lat="43.801087397438216" lon="12.445773496306039"><ele>300.0</ele><time>2026-05-01T08:00:34Z</time></trkpt><trkpt lat="43.801135884193954" lon="12.445666497598191"><ele>299.0</ele><time>2026-05-01T08:00:36Z</time></trkpt><trkpt lat="43.80116474883639" lon="12.445487555258994"><ele>298.0</ele><time>2026-05-01T08:00:38Z</time></trkpt><trkpt lat="43.8012084726785" lon="12.44539289297946"><ele>297.0</ele><time>2026-05-01T08:00:39Z</time></trkpt><trkpt lat="43.80128172929787" lon="12.445314884392557"><ele>297.0</ele><time>2026-05-01T08:00:40Z</time></trkpt><trkpt lat="43.801366231355814" lon="12.445228871499795"><ele>297.0</ele><time>2026-05-01T08:00:41Z</time></trkpt><trkpt lat="43.801446682527356" lon="12.445146332545706"><ele>297.0</ele><time>2026-05-01T08:00:42Z</time></trkpt><trkpt lat="43.80152401467728" lon="12.445066526725208"><ele>297.0</ele><time>2026-05-01T08:00:43Z</time></trkpt><trkpt lat="43.801614327208426" lon="12.444972627695368"><ele>297.0</ele><time>2026-05-01T08:00:44Z</time></trkpt><trkpt lat="43.801709212728376" lon="12.444867275479558"><ele>297.0</ele><time>2026-05-01T08:00:45Z</time></trkpt><trkpt lat="43.80180590673811" lon="12.444755973729537"><ele>297.0</ele><time>2026-05-01T08:00:46Z</time></trkpt><trkpt lat="43.80190979859439" lon="12.444646857386461"><ele>297.0</ele><time>2026-05-01T08:00:47Z</time></trkpt><trkpt lat="43.80200761008341" lon="12.444540877157442"><ele>297.0</ele><time>2026-05-01T08:00:48Z</time></trkpt><trkpt lat="43.80209962791033" lon="12.444433475687172"><ele>299.25</ele><time>2026-05-01T08:00:49Z</time></trkpt><trkpt lat="43.80218709450836" lon="12.444319970742463"><ele>301.5</ele><time>2026-05-01T08:00:50Z</time></trkpt><trkpt lat="43.80225663636609" lon="12.444185066581918"><ele>303.75</ele><time>2026-05-01T08:00:51Z</time></trkpt><trkpt lat="43.802309913515266" lon="12.444034580316538"><ele>306.0</ele><time>2026-05-01T08:00:52Z</time></trkpt><trkpt lat="43.80235098735698" lon="12.443872864159918"><ele>306.0</ele><time>2026-05-01T08:00:53Z</time></trkpt><trkpt lat="43.802388931022364" lon="12.443710220491544"><ele>306.0</ele><time>2026-05-01T08:00:54Z</time></trkpt><trkpt lat="43.802426251511285" lon="12.443547224252343"><ele>306.0</ele><time>2026-05-01T08:00:55Z</time></trkpt><trkpt lat="43.80245900707953" lon="12.443382838012218"><ele>306.0</ele><time>2026-05-01T08:00:56Z</time></trkpt><trkpt lat="43.8024786674029" lon="12.44321762390488"><ele>306.0</ele><time>2026-05-01T08:00:57Z</time></trkpt><trkpt lat="43.80248061206431" lon="12.443056418101031"><ele>306.0</ele><time>2026-05-01T08:00:58Z</time></trkpt><trkpt lat="43.80246351540434" lon="12.442893870954324"><ele>306.0</ele><time>2026-05-01T08:00:59Z</time></trkpt><trkpt lat="43.802439810370736" lon="12.442730515967499"><ele>306.0</ele><time>2026-05-01T08:01:00Z</time></trkpt><trkpt lat="43.802414170719864" lon="12.442563311792"><ele>307.25</ele><time>2026-05-01T08:01:01Z</time></trkpt><trkpt lat="43.80238975937302" lon="12.442394419510368"><ele>308.5</ele><time>2026-05-01T08:01:02Z</time></trkpt><trkpt lat="43.80236681140917" lon="12.442225071035763"><ele>309.75</ele><time>2026-05-01T08:01:03Z</time></trkpt><trkpt lat="43.80234704925241" lon="12.442054556176158"><ele>311.0</ele><time>2026-05-01T08:01:04Z</time></trkpt><trkpt lat="43.80232793058954" lon="12.441893357406267"><ele>311.1666666666667</ele><time>2026-05-01T08:01:05Z</time></trkpt><trkpt lat="43.802315594114816" lon="12.441757300551346"><ele>311.33333333333337</ele><time>2026-05-01T08:01:06Z</time></trkpt><trkpt lat="43.80230984078885" lon="12.44163895655754"><ele>311.5</ele><time>2026-05-01T08:01:07Z</time></trkpt><trkpt lat="43.802303681229695" lon="12.441529035543098"><ele>311.6666666666667</ele><time>2026-05-01T08:01:08Z</time></trkpt><trkpt lat="43.80230678207251" lon="12.441419574009316"><ele>311.8333333333333</ele><time>2026-05-01T08:01:09Z</time></trkpt><trkpt lat="43.80233026521542" lon="12.441311686726776"><ele>312.0</ele><time>2026-05-01T08:01:10Z</time></trkpt><trkpt lat="43.80236923589777" lon="12.441210402417774"><ele>312.0</ele><time>2026-05-01T08:01:11Z</time></trkpt><trkpt lat="43.80241918923291" lon="12.441114450718999"><ele>312.0</ele><time>2026-05-01T08:01:12Z</time></trkpt><trkpt lat="43.80249066937643" lon="12.44103895902723"><ele>312.0</ele><time>2026-05-01T08:01:13Z</time></trkpt><trkpt lat="43.80257355765668" lon="12.440984032918399"><ele>312.0</ele><time>2026-05-01T08:01:14Z</time></trkpt><trkpt lat="43.80265998660833" lon="12.440943393487082"><ele>312.0</ele><time>2026-05-01T08:01:14.999Z</time></trkpt><trkpt lat="43.80275487756624" lon="12.44090945065442"><ele>313.6666666666667</ele><time>2026-05-01T08:01:15.999Z</time></trkpt><trkpt lat="43.80284607940212" lon="12.440865255505239"><ele>315.3333333333333</ele><time>2026-05-01T08:01:16.999Z</time></trkpt><trkpt lat="43.80293081370373" lon="12.440826162513906"><ele>317.0</ele><time>2026-05-01T08:01:17.999Z</time></trkpt><trkpt lat="43.80299784002253" lon="12.4407880634541"><ele>318.66666666666663</ele><time>2026-05-01T08:01:18.999Z</time></trkpt><trkpt lat="43.80309240953226" lon="12.440733954556249"><ele>320.3333333333333</ele><time>2026-05-01T08:01:20.999Z</time></trkpt><trkpt lat="43.803152246499685" lon="12.440702127454742"><ele>322.0</ele><time>2026-05-01T08:01:22.999Z</time></trkpt><trkpt lat="43.80321817946141" lon="12.440696154927991"><ele>322.0</ele><time>2026-05-01T08:01:24.999Z</time></trkpt><trkpt lat="43.803298648880144" lon="12.44065420930103"><ele>322.0</ele><time>2026-05-01T08:01:26.999Z</time></trkpt><trkpt lat="43.80333473259888" lon="12.440481572561934"><ele>322.0</ele><time>2026-05-01T08:01:28.999Z</time></trkpt><trkpt lat="43.80332382635538" lon="12.44038780256915"><ele>322.0</ele><time>2026-05-01T08:01:29.999Z</time></trkpt><trkpt lat="43.803296216500314" lon="12.44019646338326"><ele>322.0</ele><time>2026-05-01T08:01:31.999Z</time></trkpt><trkpt lat="43.80328353802457" lon="12.440074476724947"><ele>321.8333333333333</ele><time>2026-05-01T08:01:32.999Z</time></trkpt><trkpt lat="43.8032703931991" lon="12.439942913957282"><ele>321.66666666666663</ele><time>2026-05-01T08:01:33.999Z</time></trkpt><trkpt lat="43.80325770161071" lon="12.43980897821385"><ele>321.5</ele><time>2026-05-01T08:01:34.999Z</time></trkpt><trkpt lat="43.8032460458169" lon="12.439702175933503"><ele>321.3333333333333</ele><time>2026-05-01T08:01:35.999Z</time></trkpt><trkpt lat="43.80323915781246" lon="12.439607415059006"><ele>321.1666666666667</ele><time>2026-05-01T08:01:37Z</time></trkpt><trkpt lat="43.803230281426735" lon="12.43951718113654"><ele>321.0</ele><time>2026-05-01T08:01:38Z</time></trkpt><trkpt lat="43.80322245169552" lon="12.439424694044424"><ele>321.4</ele><time>2026-05-01T08:01:39Z</time></trkpt><trkpt lat="43.80321379928383" lon="12.43931672171459"><ele>321.8</ele><time>2026-05-01T08:01:40Z</time></trkpt><trkpt lat="43.80320529315321" lon="12.43919389418847"><ele>322.2</ele><time>2026-05-01T08:01:41Z</time></trkpt><trkpt lat="43.803191815850475" lon="12.439049257942914"><ele>322.59999999999997</ele><time>2026-05-01T08:01:42Z</time></trkpt><trkpt lat="43.803174865363076" lon="12.438887767934776"><ele>323.0</ele><time>2026-05-01T08:01:43Z</time></trkpt><trkpt lat="43.80315812179642" lon="12.438700422101231"><ele>323.25</ele><time>2026-05-01T08:01:44Z</time></trkpt><trkpt lat="43.80313771308096" lon="12.438503447995435"><ele>323.5</ele><time>2026-05-01T08:01:45Z</time></trkpt><trkpt lat="43.803115530740044" lon="12.438292079541421"><ele>323.75</ele><time>2026-05-01T08:01:46Z</time></trkpt><trkpt lat="43.80310190232915" lon="12.438092468579569"><ele>324.0</ele><time>2026-05-01T08:01:47Z</time></trkpt><trkpt lat="43.80308588185336" lon="12.437881845134202"><ele>325.6666666666667</ele><time>2026-05-01T08:01:48Z</time></trkpt><trkpt lat="43.803059580103515" lon="12.437666436676448"><ele>327.33333333333337</ele><time>2026-05-01T08:01:49Z</time></trkpt><trkpt lat="43.803035549073854" lon="12.437446769392547"><ele>329.0</ele><time>2026-05-01T08:01:50Z</time></trkpt><trkpt lat="43.803013708296845" lon="12.437223728310727"><ele>330.6666666666667</ele><time>2026-05-01T08:01:51Z</time></trkpt><trkpt lat="43.80299191833505" lon="12.437007129016164"><ele>332.3333333333333</ele><time>2026-05-01T08:01:52Z</time></trkpt><trkpt lat="43.80297360816646" lon="12.436791412396417"><ele>334.0</ele><time>2026-05-01T08:01:53Z</time></trkpt><trkpt lat="43.80295008574085" lon="12.436572704513303"><ele>334.0</ele><time>2026-05-01T08:01:54Z</time></trkpt><trkpt lat="43.802932494094186" lon="12.436360119858675"><ele>334.0</ele><time>2026-05-01T08:01:55Z</time></trkpt><trkpt lat="43.802926838297175" lon="12.436157695711763"><ele>334.0</ele><time>2026-05-01T08:01:56Z</time></trkpt><trkpt lat="43.80294758212846" lon="12.43595630387658"><ele>334.0</ele><time>2026-05-01T08:01:57Z</time></trkpt><trkpt lat="43.80298877733865" lon="12.43574487914684"><ele>334.0</ele><time>2026-05-01T08:01:58Z</time></trkpt><trkpt lat="43.80304609145209" lon="12.435530220137352"><ele>334.0</ele><time>2026-05-01T08:01:59Z</time></trkpt><trkpt lat="43.8030984252682" lon="12.43529833876328"><ele>334.0</ele><time>2026-05-01T08:02:00Z</time></trkpt><trkpt lat="43.80313911030379" lon="12.435053616741573"><ele>334.3333333333333</ele><time>2026-05-01T08:02:01Z</time></trkpt><trkpt lat="43.803177788836294" lon="12.434794909139608"><ele>334.6666666666667</ele><time>2026-05-01T08:02:02Z</time></trkpt><trkpt lat="43.80321489671404" lon="12.43454410739101"><ele>335.0</ele><time>2026-05-01T08:02:03Z</time></trkpt><trkpt lat="43.803247479785966" lon="12.434291648265763"><ele>335.0</ele><time>2026-05-01T08:02:04Z</time></trkpt><trkpt lat="43.80327025465741" lon="12.434029431632768"><ele>335.0</ele><time>2026-05-01T08:02:05Z</time></trkpt><trkpt lat="43.80328278337854" lon="12.433766470209966"><ele>335.0</ele><time>2026-05-01T08:02:06Z</time></trkpt><trkpt lat="43.803260138780615" lon="12.433496608197316"><ele>336.0</ele><time>2026-05-01T08:02:07Z</time></trkpt><trkpt lat="43.80318913780811" lon="12.433229659373273"><ele>337.0</ele><time>2026-05-01T08:02:08Z</time></trkpt><trkpt lat="43.80310107423652" lon="12.432971887034316"><ele>338.0</ele><time>2026-05-01T08:02:09Z</time></trkpt><trkpt lat="43.80302867876802" lon="12.432700863177798"><ele>338.33333333333337</ele><time>2026-05-01T08:02:10Z</time></trkpt><trkpt lat="43.8029556769977" lon="12.432426114298579"><ele>338.6666666666667</ele><time>2026-05-01T08:02:11Z</time></trkpt><trkpt lat="43.80288016588127" lon="12.432152153978201"><ele>339.0</ele><time>2026-05-01T08:02:12Z</time></trkpt><trkpt lat="43.80279417188541" lon="12.431886547898227"><ele>337.6666666666667</ele><time>2026-05-01T08:02:13Z</time></trkpt><trkpt lat="43.802702696241006" lon="12.431635834464856"><ele>336.33333333333337</ele><time>2026-05-01T08:02:14Z</time></trkpt><trkpt lat="43.80260976198615" lon="12.431400748186357"><ele>335.0</ele><time>2026-05-01T08:02:15Z</time></trkpt><trkpt lat="43.802518432315885" lon="12.431169149760116"><ele>333.33333333333337</ele><time>2026-05-01T08:02:16Z</time></trkpt><trkpt lat="43.802436585934174" lon="12.430951780232059"><ele>331.6666666666667</ele><time>2026-05-01T08:02:17Z</time></trkpt><trkpt lat="43.802373783597496" lon="12.43073736249766"><ele>330.0</ele><time>2026-05-01T08:02:18Z</time></trkpt><trkpt lat="43.80231051360571" lon="12.430509127188438"><ele>330.0</ele><time>2026-05-01T08:02:19Z</time></trkpt><trkpt lat="43.802278302054646" lon="12.430271308514232"><ele>330.0</ele><time>2026-05-01T08:02:20Z</time></trkpt><trkpt lat="43.80225678527066" lon="12.43002690024566"><ele>330.0</ele><time>2026-05-01T08:02:21Z</time></trkpt><trkpt lat="43.80224909393958" lon="12.429785572840888"><ele>331.0</ele><time>2026-05-01T08:02:22Z</time></trkpt><trkpt lat="43.80225499858317" lon="12.429543542382175"><ele>332.0</ele><time>2026-05-01T08:02:23Z</time></trkpt><trkpt lat="43.80227451487829" lon="12.429319551218658"><ele>333.0</ele><time>2026-05-01T08:02:24Z</time></trkpt><trkpt lat="43.80231580404628" lon="12.4291043985239"><ele>333.0</ele><time>2026-05-01T08:02:25Z</time></trkpt><trkpt lat="43.80237730871765" lon="12.428898263934864"><ele>333.0</ele><time>2026-05-01T08:02:26Z</time></trkpt><trkpt lat="43.802454904612155" lon="12.428711779192756"><ele>333.0</ele><time>2026-05-01T08:02:27Z</time></trkpt><trkpt lat="43.80252365634307" lon="12.428526563853243"><ele>334.25</ele><time>2026-05-01T08:02:28Z</time></trkpt><trkpt lat="43.80258089060286" lon="12.42833224382346"><ele>335.5</ele><time>2026-05-01T08:02:29Z</time></trkpt><trkpt lat="43.80262564629006" lon="12.428133293929573"><ele>336.75</ele><time>2026-05-01T08:02:30Z</time></trkpt><trkpt lat="43.802654585907604" lon="12.427949809304415"><ele>338.0</ele><time>2026-05-01T08:02:31Z</time></trkpt><trkpt lat="43.80265910208605" lon="12.427764779623116"><ele>339.0</ele><time>2026-05-01T08:02:32Z</time></trkpt><trkpt lat="43.802646935060125" lon="12.42757154636551"><ele>340.0</ele><time>2026-05-01T08:02:33Z</time></trkpt><trkpt lat="43.80262120577519" lon="12.427376114974734"><ele>341.0</ele><time>2026-05-01T08:02:34Z</time></trkpt><trkpt lat="43.80258930178868" lon="12.4271816179942"><ele>342.0</ele><time>2026-05-01T08:02:35Z</time></trkpt><trkpt lat="43.80255411320958" lon="12.426990389188276"><ele>343.0</ele><time>2026-05-01T08:02:36Z</time></trkpt><trkpt lat="43.802516714258026" lon="12.426800809837108"><ele>344.0</ele><time>2026-05-01T08:02:37Z</time></trkpt><trkpt lat="43.80248054230893" lon="12.426621138192134"><ele>345.0</ele><time>2026-05-01T08:02:38Z</time></trkpt><trkpt lat="43.80244785617448" lon="12.426457009641847"><ele>346.0</ele><time>2026-05-01T08:02:39Z</time></trkpt><trkpt lat="43.802413361821145" lon="12.426288904725252"><ele>347.0</ele><time>2026-05-01T08:02:40Z</time></trkpt><trkpt lat="43.80238026636205" lon="12.426115760203128"><ele>348.0</ele><time>2026-05-01T08:02:41Z</time></trkpt><trkpt lat="43.80234476050683" lon="12.425940282989465"><ele>349.0</ele><time>2026-05-01T08:02:42Z</time></trkpt><trkpt lat="43.802307828180005" lon="12.425762812910254"><ele>350.0</ele><time>2026-05-01T08:02:43Z</time></trkpt><trkpt lat="43.802269985663656" lon="12.425585735106992"><ele>352.0</ele><time>2026-05-01T08:02:44Z</time></trkpt><trkpt lat="43.80223741581597" lon="12.425411840754833"><ele>354.0</ele><time>2026-05-01T08:02:45Z</time></trkpt><trkpt lat="43.80220554537842" lon="12.425248837755355"><ele>356.0</ele><time>2026-05-01T08:02:46Z</time></trkpt><trkpt lat="43.80217939548483" lon="12.42509491998006"><ele>358.0</ele><time>2026-05-01T08:02:47Z</time></trkpt><trkpt lat="43.80215838832156" lon="12.424932961207517"><ele>358.0</ele><time>2026-05-01T08:02:48Z</time></trkpt><trkpt lat="43.80214717887897" lon="12.42475667098118"><ele>358.0</ele><time>2026-05-01T08:02:49Z</time></trkpt><trkpt lat="43.802146175323706" lon="12.42456673615513"><ele>358.0</ele><time>2026-05-01T08:02:50Z</time></trkpt><trkpt lat="43.802147664101646" lon="12.424373186691254"><ele>358.0</ele><time>2026-05-01T08:02:51Z</time></trkpt><trkpt lat="43.802145258594514" lon="12.424168180862035"><ele>361.25</ele><time>2026-05-01T08:02:52Z</time></trkpt><trkpt lat="43.80214258239205" lon="12.423964327081622"><ele>364.5</ele><time>2026-05-01T08:02:53Z</time></trkpt><trkpt lat="43.802130756840334" lon="12.423774476503432"><ele>367.75</ele><time>2026-05-01T08:02:54Z</time></trkpt><trkpt lat="43.8020953677051" lon="12.42358556278555"><ele>371.0</ele><time>2026-05-01T08:02:55Z</time></trkpt><trkpt lat="43.80205734341188" lon="12.42339924592137"><ele>374.0</ele><time>2026-05-01T08:02:56Z</time></trkpt><trkpt lat="43.802003195248794" lon="12.423212565018444"><ele>377.0</ele><time>2026-05-01T08:02:57Z</time></trkpt><trkpt lat="43.801942036086324" lon="12.423030020343157"><ele>380.0</ele><time>2026-05-01T08:02:58Z</time></trkpt><trkpt lat="43.80188203295664" lon="12.42284586032913"><ele>383.0</ele><time>2026-05-01T08:02:59Z</time></trkpt><trkpt lat="43.80182526942365" lon="12.422662309038806"><ele>376.5</ele><time>2026-05-01T08:03:00Z</time></trkpt><trkpt lat="43.80176867647105" lon="12.422477567711388"><ele>370.0</ele><time>2026-05-01T08:03:01Z</time></trkpt><trkpt lat="43.80172860816282" lon="12.422284733643822"><ele>363.5</ele><time>2026-05-01T08:03:02Z</time></trkpt><trkpt lat="43.80169623762005" lon="12.422090024069096"><ele>357.0</ele><time>2026-05-01T08:03:03Z</time></trkpt><trkpt lat="43.80165580716459" lon="12.421892065078325"><ele>357.0</ele><time>2026-05-01T08:03:04Z</time></trkpt><trkpt lat="43.80161767594284" lon="12.421692161540953"><ele>357.0</ele><time>2026-05-01T08:03:05Z</time></trkpt><trkpt lat="43.801576899167564" lon="12.42148909498602"><ele>357.0</ele><time>2026-05-01T08:03:06Z</time></trkpt><trkpt lat="43.80153822457904" lon="12.42129462544705"><ele>357.0</ele><time>2026-05-01T08:03:07Z</time></trkpt><trkpt lat="43.80150105882781" lon="12.421117800358612"><ele>359.0</ele><time>2026-05-01T08:03:08Z</time></trkpt><trkpt lat="43.80146432838078" lon="12.420957574314214"><ele>361.0</ele><time>2026-05-01T08:03:09Z</time></trkpt><trkpt lat="43.80144270710387" lon="12.420805349591962"><ele>363.0</ele><time>2026-05-01T08:03:10Z</time></trkpt><trkpt lat="43.8014248334302" lon="12.42063641214396"><ele>365.0</ele><time>2026-05-01T08:03:11Z</time></trkpt><trkpt lat="43.80141861830751" lon="12.420460179370219"><ele>366.25</ele><time>2026-05-01T08:03:12Z</time></trkpt><trkpt lat="43.80142042513144" lon="12.420279149390705"><ele>367.5</ele><time>2026-05-01T08:03:13Z</time></trkpt><trkpt lat="43.80143202361806" lon="12.420101056718096"><ele>368.75</ele><time>2026-05-01T08:03:14Z</time></trkpt><trkpt lat="43.801435069089926" lon="12.419920974777977"><ele>370.0</ele><time>2026-05-01T08:03:15Z</time></trkpt><trkpt lat="43.80143721480454" lon="12.419738929123177"><ele>369.25</ele><time>2026-05-01T08:03:16Z</time></trkpt><trkpt lat="43.801438627954255" lon="12.419554801276258"><ele>368.5</ele><time>2026-05-01T08:03:17Z</time></trkpt><trkpt lat="43.801445583030336" lon="12.419369708249965"><ele>367.75</ele><time>2026-05-01T08:03:18Z</time></trkpt><trkpt lat="43.80145628139656" lon="12.41918236451232"><ele>367.0</ele><time>2026-05-01T08:03:19Z</time></trkpt><trkpt lat="43.80146432480607" lon="12.418998549914427"><ele>367.0</ele><time>2026-05-01T08:03:20Z</time></trkpt><trkpt lat="43.80147217155748" lon="12.4188196524596"><ele>367.0</ele><time>2026-05-01T08:03:20.999Z</time></trkpt><trkpt lat="43.80147729011854" lon="12.418637233990458"><ele>367.0</ele><time>2026-05-01T08:03:21.999Z</time></trkpt><trkpt lat="43.80148146967364" lon="12.418450697288144"><ele>367.0</ele><time>2026-05-01T08:03:22.999Z</time></trkpt><trkpt lat="43.80148877171147" lon="12.418270198889731"><ele>366.5</ele><time>2026-05-01T08:03:23.999Z</time></trkpt><trkpt lat="43.80150785254584" lon="12.418095834171586"><ele>366.0</ele><time>2026-05-01T08:03:24.999Z</time></trkpt><trkpt lat="43.80154915029182" lon="12.417941122405082"><ele>365.5</ele><time>2026-05-01T08:03:25.999Z</time></trkpt><trkpt lat="43.80160950614681" lon="12.417805319870093"><ele>365.0</ele><time>2026-05-01T08:03:26.999Z</time></trkpt><trkpt lat="43.80168959958957" lon="12.417673032996053"><ele>364.0</ele><time>2026-05-01T08:03:27.999Z</time></trkpt><trkpt lat="43.8017830554768" lon="12.417550848315416"><ele>363.0</ele><time>2026-05-01T08:03:28.999Z</time></trkpt><trkpt lat="43.80189125260787" lon="12.417442503560508"><ele>362.0</ele><time>2026-05-01T08:03:29.999Z</time></trkpt><trkpt lat="43.80200713665451" lon="12.417351351003601"><ele>361.0</ele><time>2026-05-01T08:03:30.999Z</time></trkpt><trkpt lat="43.80212424909675" lon="12.41726328638137"><ele>361.0</ele><time>2026-05-01T08:03:31.999Z</time></trkpt><trkpt lat="43.802240967462566" lon="12.417170533938393"><ele>361.0</ele><time>2026-05-01T08:03:32.999Z</time></trkpt><trkpt lat="43.802358794048814" lon="12.417071563605823"><ele>361.0</ele><time>2026-05-01T08:03:33.999Z</time></trkpt><trkpt lat="43.802476138769535" lon="12.416973996602218"><ele>361.0</ele><time>2026-05-01T08:03:34.999Z</time></trkpt><trkpt lat="43.802592389999496" lon="12.4168771758451"><ele>364.5</ele><time>2026-05-01T08:03:35.999Z</time></trkpt><trkpt lat="43.80271152116312" lon="12.4167786315058"><ele>368.0</ele><time>2026-05-01T08:03:36.999Z</time></trkpt><trkpt lat="43.80282945668908" lon="12.416680747841657"><ele>371.5</ele><time>2026-05-01T08:03:37.999Z</time></trkpt><trkpt lat="43.80294606205303" lon="12.416586969205406"><ele>375.0</ele><time>2026-05-01T08:03:38.999Z</time></trkpt><trkpt lat="43.80305674950772" lon="12.416497895097917"><ele>375.0</ele><time>2026-05-01T08:03:39.999Z</time></trkpt><trkpt lat="43.803166099567825" lon="12.416412376701517"><ele>375.0</ele><time>2026-05-01T08:03:40.999Z</time></trkpt><trkpt lat="43.80326671957585" lon="12.416330176271908"><ele>375.0</ele><time>2026-05-01T08:03:41.999Z</time></trkpt><trkpt lat="43.803352350717084" lon="12.416240708340597"><ele>375.0</ele><time>2026-05-01T08:03:43Z</time></trkpt><trkpt lat="43.80342114307628" lon="12.41613056341142"><ele>373.2</ele><time>2026-05-01T08:03:44Z</time></trkpt><trkpt lat="43.803464551198545" lon="12.415996984180733"><ele>371.4</ele><time>2026-05-01T08:03:45Z</time></trkpt><trkpt lat="43.803474718984496" lon="12.41585378047102"><ele>369.6</ele><time>2026-05-01T08:03:46Z</time></trkpt><trkpt lat="43.80344948785917" lon="12.415706859280434"><ele>367.8</ele><time>2026-05-01T08:03:47Z</time></trkpt><trkpt lat="43.80338265614685" lon="12.41557417091756"><ele>366.0</ele><time>2026-05-01T08:03:48Z</time></trkpt><trkpt lat="43.803285569252935" lon="12.415473879453884"><ele>365.5</ele><time>2026-05-01T08:03:49Z</time></trkpt><trkpt lat="43.803182751721934" lon="12.415381446438904"><ele>365.0</ele><time>2026-05-01T08:03:50Z</time></trkpt><trkpt lat="43.803079838380725" lon="12.415279994210284"><ele>364.5</ele><time>2026-05-01T08:03:51Z</time></trkpt><trkpt lat="43.80298788649287" lon="12.415177638070018"><ele>364.0</ele><time>2026-05-01T08:03:52Z</time></trkpt><trkpt lat="43.802906340884896" lon="12.415094881758652"><ele>364.0</ele><time>2026-05-01T08:03:53Z</time></trkpt><trkpt lat="43.80282409822951" lon="12.415033597303909"><ele>364.0</ele><time>2026-05-01T08:03:54Z</time></trkpt><trkpt lat="43.80273739973572" lon="12.415015758356558"><ele>364.0</ele><time>2026-05-01T08:03:55Z</time></trkpt><trkpt lat="43.802649592306445" lon="12.415044370203509"><ele>364.0</ele><time>2026-05-01T08:03:56Z</time></trkpt><trkpt lat="43.80256031896799" lon="12.415098961288786"><ele>364.0</ele><time>2026-05-01T08:03:57Z</time></trkpt><trkpt lat="43.80247721306936" lon="12.415179127214389"><ele>363.79999999999995</ele><time>2026-05-01T08:03:58Z</time></trkpt><trkpt lat="43.80239443024428" lon="12.415279191319566"><ele>363.59999999999997</ele><time>2026-05-01T08:03:59Z</time></trkpt><trkpt lat="43.80230584471727" lon="12.41537327342196"><ele>363.4</ele><time>2026-05-01T08:04:00Z</time></trkpt><trkpt lat="43.80221682083736" lon="12.415453601322449"><ele>363.2</ele><time>2026-05-01T08:04:01Z</time></trkpt><trkpt lat="43.80212003576007" lon="12.415494106480006"><ele>363.0</ele><time>2026-05-01T08:04:02Z</time></trkpt><trkpt lat="43.802013346139006" lon="12.415505507051865"><ele>363.0</ele><time>2026-05-01T08:04:03Z</time></trkpt><trkpt lat="43.80190501530576" lon="12.415509593681728"><ele>363.0</ele><time>2026-05-01T08:04:04Z</time></trkpt><trkpt lat="43.80179524871362" lon="12.415514385946834"><ele>363.0</ele><time>2026-05-01T08:04:05Z</time></trkpt><trkpt lat="43.80168369751622" lon="12.41552373029807"><ele>363.0</ele><time>2026-05-01T08:04:06Z</time></trkpt><trkpt lat="43.801568746576145" lon="12.41553438539735"><ele>363.0</ele><time>2026-05-01T08:04:07Z</time></trkpt><trkpt lat="43.80145069917891" lon="12.415544235118096"><ele>365.0</ele><time>2026-05-01T08:04:08Z</time></trkpt><trkpt lat="43.80132154438357" lon="12.415577476535578"><ele>367.0</ele><time>2026-05-01T08:04:09Z</time></trkpt><trkpt lat="43.80116502440059" lon="12.415652276067348"><ele>369.0</ele><time>2026-05-01T08:04:10Z</time></trkpt><trkpt lat="43.80099985172979" lon="12.415759782999459"><ele>371.25</ele><time>2026-05-01T08:04:11Z</time></trkpt><trkpt lat="43.80085501440404" lon="12.415866834942463"><ele>373.5</ele><time>2026-05-01T08:04:12Z</time></trkpt><trkpt lat="43.800736996708764" lon="12.415959494915473"><ele>375.75</ele><time>2026-05-01T08:04:13Z</time></trkpt><trkpt lat="43.800617521943025" lon="12.4160059128868"><ele>378.0</ele><time>2026-05-01T08:04:14Z</time></trkpt><trkpt lat="43.80048987096826" lon="12.41595510369235"><ele>378.0</ele><time>2026-05-01T08:04:15Z</time></trkpt><trkpt lat="43.80037802637387" lon="12.415858996878622"><ele>378.0</ele><time>2026-05-01T08:04:16Z</time></trkpt><trkpt lat="43.800319585086875" lon="12.41568588324215"><ele>378.0</ele><time>2026-05-01T08:04:17Z</time></trkpt><trkpt lat="43.80031213029075" lon="12.415499658704949"><ele>378.0</ele><time>2026-05-01T08:04:18Z</time></trkpt><trkpt lat="43.800374098312695" lon="12.415306255485648"><ele>381.0</ele><time>2026-05-01T08:04:19Z</time></trkpt><trkpt lat="43.800461449930204" lon="12.41510635067761"><ele>384.0</ele><time>2026-05-01T08:04:20Z</time></trkpt><trkpt lat="43.80055323962073" lon="12.41488976852732"><ele>387.0</ele><time>2026-05-01T08:04:21Z</time></trkpt><trkpt lat="43.80064625326414" lon="12.414660265784894"><ele>388.66666666666663</ele><time>2026-05-01T08:04:22Z</time></trkpt><trkpt lat="43.80073557072957" lon="12.414435006832742"><ele>390.3333333333333</ele><time>2026-05-01T08:04:23Z</time></trkpt><trkpt lat="43.80083272548842" lon="12.4142001983857"><ele>392.0</ele><time>2026-05-01T08:04:24Z</time></trkpt><trkpt lat="43.8009359928898" lon="12.413953546469251"><ele>393.0</ele><time>2026-05-01T08:04:25Z</time></trkpt><trkpt lat="43.80104496646285" lon="12.41369248727039"><ele>394.0</ele><time>2026-05-01T08:04:26Z</time></trkpt><trkpt lat="43.80115170303738" lon="12.41343764812173"><ele>395.0</ele><time>2026-05-01T08:04:27Z</time></trkpt><trkpt lat="43.801253587881796" lon="12.413193928006326"><ele>397.0</ele><time>2026-05-01T08:04:28Z</time></trkpt><trkpt lat="43.80135714357194" lon="12.412943844701301"><ele>399.0</ele><time>2026-05-01T08:04:29Z</time></trkpt><trkpt lat="43.801460192298954" lon="12.412688438244613"><ele>401.0</ele><time>2026-05-01T08:04:30Z</time></trkpt><trkpt lat="43.801562685082466" lon="12.412422664993652"><ele>401.0</ele><time>2026-05-01T08:04:31Z</time></trkpt><trkpt lat="43.80166849321707" lon="12.412162448601604"><ele>401.0</ele><time>2026-05-01T08:04:32Z</time></trkpt><trkpt lat="43.80177296948999" lon="12.41190509142813"><ele>401.0</ele><time>2026-05-01T08:04:33Z</time></trkpt><trkpt lat="43.80187894371777" lon="12.411649069808144"><ele>399.66666666666663</ele><time>2026-05-01T08:04:34Z</time></trkpt><trkpt lat="43.80198287004619" lon="12.411399069405059"><ele>398.33333333333337</ele><time>2026-05-01T08:04:35Z</time></trkpt><trkpt lat="43.80208250071995" lon="12.411161834617824"><ele>397.0</ele><time>2026-05-01T08:04:36Z</time></trkpt><trkpt lat="43.8021818688557" lon="12.410916138022598"><ele>400.6666666666667</ele><time>2026-05-01T08:04:37Z</time></trkpt><trkpt lat="43.80228273252957" lon="12.410680712208238"><ele>404.33333333333337</ele><time>2026-05-01T08:04:38Z</time></trkpt><trkpt lat="43.80238048475004" lon="12.410458060263112"><ele>408.0</ele><time>2026-05-01T08:04:39Z</time></trkpt><trkpt lat="43.80247249277502" lon="12.410250543198169"><ele>410.0</ele><time>2026-05-01T08:04:40Z</time></trkpt><trkpt lat="43.80254400672362" lon="12.41006387091862"><ele>412.0</ele><time>2026-05-01T08:04:41Z</time></trkpt><trkpt lat="43.80257406532876" lon="12.409885647193963"><ele>414.0</ele><time>2026-05-01T08:04:42Z</time></trkpt><trkpt lat="43.802586422755496" lon="12.409671935961"><ele>416.0</ele><time>2026-05-01T08:04:43Z</time></trkpt><trkpt lat="43.802563300490306" lon="12.409458535256753"><ele>417.0</ele><time>2026-05-01T08:04:44Z</time></trkpt><trkpt lat="43.80249608875443" lon="12.409251484740537"><ele>418.0</ele><time>2026-05-01T08:04:45Z</time></trkpt><trkpt lat="43.802402145695076" lon="12.409057222773269"><ele>419.0</ele><time>2026-05-01T08:04:46Z</time></trkpt><trkpt lat="43.802286651035146" lon="12.40886941339676"><ele>419.3333333333333</ele><time>2026-05-01T08:04:47Z</time></trkpt><trkpt lat="43.80216379574068" lon="12.408681614511469"><ele>419.66666666666663</ele><time>2026-05-01T08:04:48Z</time></trkpt><trkpt lat="43.802045106735264" lon="12.40848929824972"><ele>420.0</ele><time>2026-05-01T08:04:49Z</time></trkpt><trkpt lat="43.80192301342293" lon="12.408291561298938"><ele>423.66666666666663</ele><time>2026-05-01T08:04:50Z</time></trkpt><trkpt lat="43.801806487552916" lon="12.40809233041429"><ele>427.3333333333333</ele><time>2026-05-01T08:04:51Z</time></trkpt><trkpt lat="43.80168441595339" lon="12.4078848305553"><ele>431.0</ele><time>2026-05-01T08:04:52Z</time></trkpt><trkpt lat="43.80156714551259" lon="12.40766750695675"><ele>432.0</ele><time>2026-05-01T08:04:53Z</time></trkpt><trkpt lat="43.80146710344838" lon="12.407442248558084"><ele>433.0</ele><time>2026-05-01T08:04:54Z</time></trkpt><trkpt lat="43.801380686569345" lon="12.407209503793549"><ele>434.0</ele><time>2026-05-01T08:04:55Z</time></trkpt><trkpt lat="43.80129853049279" lon="12.406967125432542"><ele>434.66666666666663</ele><time>2026-05-01T08:04:56Z</time></trkpt><trkpt lat="43.80123149586349" lon="12.406722800546223"><ele>435.33333333333337</ele><time>2026-05-01T08:04:57Z</time></trkpt><trkpt lat="43.80117677710447" lon="12.406469197524178"><ele>436.0</ele><time>2026-05-01T08:04:58Z</time></trkpt><trkpt lat="43.80113727136096" lon="12.40620676738795"><ele>438.6666666666667</ele><time>2026-05-01T08:04:59Z</time></trkpt><trkpt lat="43.801113029167354" lon="12.405939641730003"><ele>441.33333333333337</ele><time>2026-05-01T08:05:00Z</time></trkpt><trkpt lat="43.80110249657074" lon="12.405671382258104"><ele>444.0</ele><time>2026-05-01T08:05:01Z</time></trkpt><trkpt lat="43.801105235182966" lon="12.405395565034134"><ele>445.66666666666663</ele><time>2026-05-01T08:05:02Z</time></trkpt><trkpt lat="43.801127568660384" lon="12.40513067711155"><ele>447.3333333333333</ele><time>2026-05-01T08:05:03Z</time></trkpt><trkpt lat="43.801163283047835" lon="12.404866542187097"><ele>449.0</ele><time>2026-05-01T08:05:04Z</time></trkpt><trkpt lat="43.80121212517474" lon="12.40460900485954"><ele>449.3333333333333</ele><time>2026-05-01T08:05:05Z</time></trkpt><trkpt lat="43.80127633746358" lon="12.404358074797935"><ele>449.66666666666663</ele><time>2026-05-01T08:05:06Z</time></trkpt><trkpt lat="43.801347463733244" lon="12.404111763858708"><ele>450.0</ele><time>2026-05-01T08:05:07Z</time></trkpt><trkpt lat="43.801429880929085" lon="12.403872995636648"><ele>450.0</ele><time>2026-05-01T08:05:08Z</time></trkpt><trkpt lat="43.801523916975896" lon="12.403637598845933"><ele>450.0</ele><time>2026-05-01T08:05:09Z</time></trkpt><trkpt lat="43.801624804382314" lon="12.403406401921824"><ele>450.0</ele><time>2026-05-01T08:05:10Z</time></trkpt><trkpt lat="43.80172818491385" lon="12.403172470447924"><ele>450.0</ele><time>2026-05-01T08:05:11Z</time></trkpt><trkpt lat="43.801829939067424" lon="12.402931829020957"><ele>450.0</ele><time>2026-05-01T08:05:12Z</time></trkpt><trkpt lat="43.80193375068229" lon="12.402686268914449"><ele>450.0</ele><time>2026-05-01T08:05:12.999Z</time></trkpt><trkpt lat="43.80203808548774" lon="12.402437746721361"><ele>451.0</ele><time>2026-05-01T08:05:13.999Z</time></trkpt><trkpt lat="43.802145992698456" lon="12.402185089705961"><ele>452.0</ele><time>2026-05-01T08:05:14.999Z</time></trkpt><trkpt lat="43.802254212514285" lon="12.401933601726853"><ele>453.0</ele><time>2026-05-01T08:05:15.999Z</time></trkpt><trkpt lat="43.80236052002428" lon="12.401687215224637"><ele>453.0</ele><time>2026-05-01T08:05:16.999Z</time></trkpt><trkpt lat="43.80246547930318" lon="12.401434156559501"><ele>453.0</ele><time>2026-05-01T08:05:17.999Z</time></trkpt><trkpt lat="43.802574795602595" lon="12.401176569137512"><ele>453.0</ele><time>2026-05-01T08:05:18.999Z</time></trkpt><trkpt lat="43.8026841283063" lon="12.400918393973953"><ele>453.0</ele><time>2026-05-01T08:05:19.999Z</time></trkpt><trkpt lat="43.80279223999163" lon="12.400662679770718"><ele>453.0</ele><time>2026-05-01T08:05:20.999Z</time></trkpt><trkpt lat="43.80290030005066" lon="12.400405493008163"><ele>453.0</ele><time>2026-05-01T08:05:21.999Z</time></trkpt><trkpt lat="43.80301198141567" lon="12.400149362475686"><ele>454.0</ele><time>2026-05-01T08:05:22.999Z</time></trkpt><trkpt lat="43.80312473810919" lon="12.399891957571768"><ele>455.0</ele><time>2026-05-01T08:05:23.999Z</time></trkpt><trkpt lat="43.80323807861777" lon="12.399644236193794"><ele>456.0</ele><time>2026-05-01T08:05:24.999Z</time></trkpt><trkpt lat="43.803346660076045" lon="12.399397029293983"><ele>457.0</ele><time>2026-05-01T08:05:25.999Z</time></trkpt><trkpt lat="43.80345712921475" lon="12.39914930395929"><ele>458.0</ele><time>2026-05-01T08:05:26.999Z</time></trkpt><trkpt lat="43.80356459580875" lon="12.398903251024675"><ele>459.0</ele><time>2026-05-01T08:05:27.999Z</time></trkpt><trkpt lat="43.80366923530132" lon="12.398655452164382"><ele>458.66666666666663</ele><time>2026-05-01T08:05:28.999Z</time></trkpt><trkpt lat="43.803773793273415" lon="12.398416811495903"><ele>458.3333333333333</ele><time>2026-05-01T08:05:29.999Z</time></trkpt><trkpt lat="43.80385841608239" lon="12.398181549656227"><ele>458.0</ele><time>2026-05-01T08:05:30.999Z</time></trkpt><trkpt lat="43.803917807863336" lon="12.397932346423197"><ele>458.0</ele><time>2026-05-01T08:05:31.999Z</time></trkpt><trkpt lat="43.803945559831945" lon="12.397650284842342"><ele>458.0</ele><time>2026-05-01T08:05:32.999Z</time></trkpt><trkpt lat="43.80395450443199" lon="12.397369794539237"><ele>458.0</ele><time>2026-05-01T08:05:33.999Z</time></trkpt><trkpt lat="43.80395878710087" lon="12.397091389810052"><ele>460.3333333333333</ele><time>2026-05-01T08:05:34.999Z</time></trkpt><trkpt lat="43.80398139872342" lon="12.396801935393878"><ele>462.66666666666663</ele><time>2026-05-01T08:05:35.999Z</time></trkpt><trkpt lat="43.80400559759211" lon="12.39651453633598"><ele>465.0</ele><time>2026-05-01T08:05:36.999Z</time></trkpt><trkpt lat="43.804025805164805" lon="12.396236638853898"><ele>466.66666666666663</ele><time>2026-05-01T08:05:37.999Z</time></trkpt><trkpt lat="43.80404393537087" lon="12.395948818874702"><ele>468.3333333333333</ele><time>2026-05-01T08:05:38.999Z</time></trkpt><trkpt lat="43.80406158148839" lon="12.395667327404675"><ele>470.0</ele><time>2026-05-01T08:05:39.999Z</time></trkpt><trkpt lat="43.8040933652106" lon="12.395400591532182"><ele>471.3333333333333</ele><time>2026-05-01T08:05:40.999Z</time></trkpt><trkpt lat="43.80410176082541" lon="12.395117631141852"><ele>472.66666666666663</ele><time>2026-05-01T08:05:41.999Z</time></trkpt><trkpt lat="43.80411851380638" lon="12.394854056834053"><ele>474.0</ele><time>2026-05-01T08:05:42.999Z</time></trkpt><trkpt lat="43.80413893348784" lon="12.39461422618561"><ele>476.33333333333337</ele><time>2026-05-01T08:05:43.999Z</time></trkpt><trkpt lat="43.80415701650874" lon="12.394385239482915"><ele>478.6666666666667</ele><time>2026-05-01T08:05:44.999Z</time></trkpt><trkpt lat="43.80416843078969" lon="12.39415646858176"><ele>481.0</ele><time>2026-05-01T08:05:45.999Z</time></trkpt><trkpt lat="43.804151530045885" lon="12.393918084431059"><ele>483.33333333333337</ele><time>2026-05-01T08:05:46.999Z</time></trkpt><trkpt lat="43.804095633074986" lon="12.393694897909144"><ele>485.66666666666663</ele><time>2026-05-01T08:05:47.999Z</time></trkpt><trkpt lat="43.80400385497539" lon="12.393484597789094"><ele>488.0</ele><time>2026-05-01T08:05:49Z</time></trkpt><trkpt lat="43.80389163669543" lon="12.393276379505188"><ele>488.0</ele><time>2026-05-01T08:05:50Z</time></trkpt><trkpt lat="43.80377862323416" lon="12.393060755705548"><ele>488.0</ele><time>2026-05-01T08:05:51Z</time></trkpt><trkpt lat="43.80366754140223" lon="12.392828988826386"><ele>488.0</ele><time>2026-05-01T08:05:52Z</time></trkpt><trkpt lat="43.80355287454513" lon="12.39259746924374"><ele>489.66666666666663</ele><time>2026-05-01T08:05:53Z</time></trkpt><trkpt lat="43.803436634495974" lon="12.392364138132937"><ele>491.33333333333337</ele><time>2026-05-01T08:05:54Z</time></trkpt><trkpt lat="43.80331927913496" lon="12.392132611514757"><ele>493.0</ele><time>2026-05-01T08:05:55Z</time></trkpt><trkpt lat="43.80320061998311" lon="12.391901784832532"><ele>494.6666666666667</ele><time>2026-05-01T08:05:56Z</time></trkpt><trkpt lat="43.80308414338387" lon="12.39167364607317"><ele>496.33333333333337</ele><time>2026-05-01T08:05:57Z</time></trkpt><trkpt lat="43.802968404314264" lon="12.391445806609036"><ele>498.0</ele><time>2026-05-01T08:05:58Z</time></trkpt><trkpt lat="43.80285420220535" lon="12.391218587605719"><ele>499.0</ele><time>2026-05-01T08:05:59Z</time></trkpt><trkpt lat="43.80274318896775" lon="12.390999446784075"><ele>500.0</ele><time>2026-05-01T08:06:00Z</time></trkpt><trkpt lat="43.80263753856236" lon="12.390781903683088"><ele>501.0</ele><time>2026-05-01T08:06:01Z</time></trkpt><trkpt lat="43.802550639061835" lon="12.390560391195153"><ele>502.0</ele><time>2026-05-01T08:06:02Z</time></trkpt><trkpt lat="43.802470484479564" lon="12.390335740375376"><ele>503.0</ele><time>2026-05-01T08:06:03Z</time></trkpt><trkpt lat="43.802318395918014" lon="12.38988281247215"><ele>504.0</ele><time>2026-05-01T08:06:04Z</time></trkpt><trkpt lat="43.802234630540376" lon="12.389600182942813"><ele>505.0</ele><time>2026-05-01T08:06:05Z</time></trkpt><trkpt lat="43.802148284641305" lon="12.389319212668388"><ele>506.0</ele><time>2026-05-01T08:06:06Z</time></trkpt><trkpt lat="43.802060744833234" lon="12.389039061771632"><ele>507.3333333333333</ele><time>2026-05-01T08:06:07Z</time></trkpt><trkpt lat="43.80197116229363" lon="12.388759833596309"><ele>508.66666666666663</ele><time>2026-05-01T08:06:08Z</time></trkpt><trkpt lat="43.80188371672187" lon="12.388485087479935"><ele>510.0</ele><time>2026-05-01T08:06:09Z</time></trkpt><trkpt lat="43.80179960348251" lon="12.388226049380394"><ele>511.33333333333337</ele><time>2026-05-01T08:06:10Z</time></trkpt><trkpt lat="43.80172727796795" lon="12.387993178906585"><ele>512.6666666666667</ele><time>2026-05-01T08:06:11Z</time></trkpt><trkpt lat="43.80166110229559" lon="12.387769638616941"><ele>514.0</ele><time>2026-05-01T08:06:12Z</time></trkpt><trkpt lat="43.801609897812114" lon="12.387562004709444"><ele>514.0</ele><time>2026-05-01T08:06:13Z</time></trkpt><trkpt lat="43.80160274955412" lon="12.387356858984463"><ele>514.0</ele><time>2026-05-01T08:06:14Z</time></trkpt><trkpt lat="43.80164338168022" lon="12.387144630151809"><ele>514.0</ele><time>2026-05-01T08:06:15Z</time></trkpt><trkpt lat="43.80172631996822" lon="12.386941882162896"><ele>517.0</ele><time>2026-05-01T08:06:16Z</time></trkpt><trkpt lat="43.80183527496076" lon="12.386747873592727"><ele>520.0</ele><time>2026-05-01T08:06:17Z</time></trkpt><trkpt lat="43.80194689534555" lon="12.386556288672981"><ele>523.0</ele><time>2026-05-01T08:06:18Z</time></trkpt><trkpt lat="43.802053647918875" lon="12.386355768240845"><ele>523.6666666666667</ele><time>2026-05-01T08:06:19Z</time></trkpt><trkpt lat="43.80216044927254" lon="12.386142345016463"><ele>524.3333333333334</ele><time>2026-05-01T08:06:20Z</time></trkpt><trkpt lat="43.80226882807341" lon="12.385923910009227"><ele>525.0</ele><time>2026-05-01T08:06:21Z</time></trkpt><trkpt lat="43.80237687386974" lon="12.385697933732374"><ele>525.3333333333334</ele><time>2026-05-01T08:06:22Z</time></trkpt><trkpt lat="43.80248824946007" lon="12.38546449346172"><ele>525.6666666666667</ele><time>2026-05-01T08:06:23Z</time></trkpt><trkpt lat="43.80260065450563" lon="12.385233872616311"><ele>526.0</ele><time>2026-05-01T08:06:24Z</time></trkpt><trkpt lat="43.80271490545212" lon="12.385007389734092"><ele>528.3333333333334</ele><time>2026-05-01T08:06:25Z</time></trkpt><trkpt lat="43.802827941119034" lon="12.384778278756034"><ele>530.6666666666666</ele><time>2026-05-01T08:06:26Z</time></trkpt><trkpt lat="43.80293213559447" lon="12.384564391787082"><ele>533.0</ele><time>2026-05-01T08:06:27Z</time></trkpt><trkpt lat="43.8030203139161" lon="12.384375668677814"><ele>533.6666666666666</ele><time>2026-05-01T08:06:28Z</time></trkpt><trkpt lat="43.80310805761077" lon="12.384187236917885"><ele>534.3333333333334</ele><time>2026-05-01T08:06:29Z</time></trkpt><trkpt lat="43.8031980180662" lon="12.384009494694439"><ele>535.0</ele><time>2026-05-01T08:06:30Z</time></trkpt><trkpt lat="43.80327816032159" lon="12.383835068392365"><ele>536.6666666666667</ele><time>2026-05-01T08:06:31Z</time></trkpt><trkpt lat="43.80334229300751" lon="12.38364152546323"><ele>538.3333333333334</ele><time>2026-05-01T08:06:32Z</time></trkpt><trkpt lat="43.80335846943546" lon="12.383424202891556"><ele>540.0</ele><time>2026-05-01T08:06:33Z</time></trkpt><trkpt lat="43.80332360125461" lon="12.383203336027615"><ele>542.3333333333334</ele><time>2026-05-01T08:06:34Z</time></trkpt><trkpt lat="43.80327849471454" lon="12.382971797288707"><ele>544.6666666666667</ele><time>2026-05-01T08:06:35Z</time></trkpt><trkpt lat="43.80324289922566" lon="12.382735623049356"><ele>547.0</ele><time>2026-05-01T08:06:36Z</time></trkpt><trkpt lat="43.80321362770528" lon="12.382499968821731"><ele>547.0</ele><time>2026-05-01T08:06:37Z</time></trkpt><trkpt lat="43.80318578317258" lon="12.382268495224078"><ele>547.0</ele><time>2026-05-01T08:06:38Z</time></trkpt><trkpt lat="43.80314530637494" lon="12.38204371065011"><ele>547.0</ele><time>2026-05-01T08:06:39Z</time></trkpt><trkpt lat="43.80311096867418" lon="12.381813717529509"><ele>547.0</ele><time>2026-05-01T08:06:40Z</time></trkpt><trkpt lat="43.80307919233688" lon="12.381556498109406"><ele>547.0</ele><time>2026-05-01T08:06:41Z</time></trkpt><trkpt lat="43.80305109279038" lon="12.38127693157112"><ele>547.0</ele><time>2026-05-01T08:06:42Z</time></trkpt><trkpt lat="43.803032157375874" lon="12.38095042831759"><ele>549.0</ele><time>2026-05-01T08:06:43Z</time></trkpt><trkpt lat="43.80302246313097" lon="12.380652606784992"><ele>551.0</ele><time>2026-05-01T08:06:44Z</time></trkpt><trkpt lat="43.803007981719226" lon="12.380368778236841"><ele>553.0</ele><time>2026-05-01T08:06:45Z</time></trkpt><trkpt lat="43.80299275958785" lon="12.380086097849459"><ele>553.6666666666667</ele><time>2026-05-01T08:06:46Z</time></trkpt><trkpt lat="43.80298766535481" lon="12.379805399415329"><ele>554.3333333333334</ele><time>2026-05-01T08:06:47Z</time></trkpt><trkpt lat="43.802976269482265" lon="12.379531495476652"><ele>555.0</ele><time>2026-05-01T08:06:48Z</time></trkpt><trkpt lat="43.802961981772505" lon="12.379256704721099"><ele>557.0</ele><time>2026-05-01T08:06:49Z</time></trkpt><trkpt lat="43.80294674762604" lon="12.37899166300636"><ele>559.0</ele><time>2026-05-01T08:06:50Z</time></trkpt><trkpt lat="43.802930167501074" lon="12.378733622536123"><ele>561.0</ele><time>2026-05-01T08:06:51Z</time></trkpt><trkpt lat="43.80291482350799" lon="12.378479512032213"><ele>564.3333333333334</ele><time>2026-05-01T08:06:52Z</time></trkpt><trkpt lat="43.80290634974649" lon="12.378227134490837"><ele>567.6666666666667</ele><time>2026-05-01T08:06:53Z</time></trkpt><trkpt lat="43.80292062953622" lon="12.378001548617958"><ele>571.0</ele><time>2026-05-01T08:06:54Z</time></trkpt><trkpt lat="43.802955503409855" lon="12.377798705096945"><ele>573.3333333333334</ele><time>2026-05-01T08:06:55Z</time></trkpt><trkpt lat="43.80301281421244" lon="12.377601386462015"><ele>575.6666666666666</ele><time>2026-05-01T08:06:56Z</time></trkpt><trkpt lat="43.803094245358345" lon="12.377416927845005"><ele>578.0</ele><time>2026-05-01T08:06:57Z</time></trkpt><trkpt lat="43.80318801014106" lon="12.377227569448916"><ele>579.6666666666666</ele><time>2026-05-01T08:06:58Z</time></trkpt><trkpt lat="43.80330454118843" lon="12.377054355240833"><ele>581.3333333333334</ele><time>2026-05-01T08:06:59Z</time></trkpt><trkpt lat="43.80344034052675" lon="12.376908320474218"><ele>583.0</ele><time>2026-05-01T08:07:00Z</time></trkpt><trkpt lat="43.803571932252574" lon="12.376795048102872"><ele>584.0</ele><time>2026-05-01T08:07:01Z</time></trkpt><trkpt lat="43.803688911590456" lon="12.376708745557854"><ele>585.0</ele><time>2026-05-01T08:07:02Z</time></trkpt><trkpt lat="43.80378723049269" lon="12.376634873342692"><ele>586.0</ele><time>2026-05-01T08:07:03Z</time></trkpt><trkpt lat="43.80387792614625" lon="12.376583294894882"><ele>587.0</ele><time>2026-05-01T08:07:04Z</time></trkpt><trkpt lat="43.80396038016634" lon="12.376556150066065"><ele>588.0</ele><time>2026-05-01T08:07:05Z</time></trkpt><trkpt lat="43.80404603516036" lon="12.376564473978773"><ele>588.0</ele><time>2026-05-01T08:07:06Z</time></trkpt><trkpt lat="43.804117043841266" lon="12.376594536460061"><ele>588.0</ele><time>2026-05-01T08:07:07Z</time></trkpt><trkpt lat="43.804187297405676" lon="12.376569126770919"><ele>588.0</ele><time>2026-05-01T08:07:08Z</time></trkpt><trkpt lat="43.80424859693563" lon="12.376487411253756"><ele>588.0</ele><time>2026-05-01T08:07:09Z</time></trkpt><trkpt lat="43.804281609242416" lon="12.376352869410058"><ele>588.0</ele><time>2026-05-01T08:07:10Z</time></trkpt><trkpt lat="43.804316310933366" lon="12.37619206174764"><ele>589.5</ele><time>2026-05-01T08:07:11Z</time></trkpt><trkpt lat="43.80437960219503" lon="12.376049825504008"><ele>591.0</ele><time>2026-05-01T08:07:12Z</time></trkpt><trkpt lat="43.80448203346594" lon="12.37591121357661"><ele>592.5</ele><time>2026-05-01T08:07:13Z</time></trkpt><trkpt lat="43.80459519690472" lon="12.3757869366467"><ele>594.0</ele><time>2026-05-01T08:07:14Z</time></trkpt><trkpt lat="43.804708116472035" lon="12.375681080005535"><ele>594.0</ele><time>2026-05-01T08:07:15Z</time></trkpt><trkpt lat="43.80482234030942" lon="12.375572925730411"><ele>594.0</ele><time>2026-05-01T08:07:16Z</time></trkpt><trkpt lat="43.804938368578505" lon="12.375460269650176"><ele>594.0</ele><time>2026-05-01T08:07:17Z</time></trkpt><trkpt lat="43.80504657432505" lon="12.375333481851696"><ele>594.0</ele><time>2026-05-01T08:07:18Z</time></trkpt><trkpt lat="43.80514357710523" lon="12.375184435729244"><ele>594.6666666666666</ele><time>2026-05-01T08:07:19Z</time></trkpt><trkpt lat="43.80521849111362" lon="12.375004870821353"><ele>595.3333333333333</ele><time>2026-05-01T08:07:20Z</time></trkpt><trkpt lat="43.805283436021064" lon="12.37480907117985"><ele>596.0</ele><time>2026-05-01T08:07:21Z</time></trkpt><trkpt lat="43.80535366071936" lon="12.374614830769062"><ele>596.0</ele><time>2026-05-01T08:07:22Z</time></trkpt><trkpt lat="43.80542490845885" lon="12.374420341661756"><ele>596.0</ele><time>2026-05-01T08:07:23Z</time></trkpt><trkpt lat="43.80549626147963" lon="12.374225723929229"><ele>596.0</ele><time>2026-05-01T08:07:24Z</time></trkpt><trkpt lat="43.805566890717095" lon="12.374034729621467"><ele>599.25</ele><time>2026-05-01T08:07:25Z</time></trkpt><trkpt lat="43.80563657607763" lon="12.373849036765726"><ele>602.5</ele><time>2026-05-01T08:07:26Z</time></trkpt><trkpt lat="43.80569999567306" lon="12.373663805364412"><ele>605.75</ele><time>2026-05-01T08:07:27Z</time></trkpt><trkpt lat="43.80576460732084" lon="12.373485524665192"><ele>609.0</ele><time>2026-05-01T08:07:28Z</time></trkpt><trkpt lat="43.805825477644944" lon="12.373312410701445"><ele>609.0</ele><time>2026-05-01T08:07:29Z</time></trkpt><trkpt lat="43.80588235758497" lon="12.373147912742008"><ele>609.0</ele><time>2026-05-01T08:07:30Z</time></trkpt><trkpt lat="43.80592710906135" lon="12.37298812569737"><ele>609.0</ele><time>2026-05-01T08:07:31Z</time></trkpt><trkpt lat="43.80596493906598" lon="12.37278562130814"><ele>609.0</ele><time>2026-05-01T08:07:32Z</time></trkpt><trkpt lat="43.806013075551604" lon="12.372568205163526"><ele>609.6666666666666</ele><time>2026-05-01T08:07:33Z</time></trkpt><trkpt lat="43.80606889067628" lon="12.37233930215051"><ele>610.3333333333333</ele><time>2026-05-01T08:07:34Z</time></trkpt><trkpt lat="43.806117808677214" lon="12.372099999438777"><ele>611.0</ele><time>2026-05-01T08:07:35Z</time></trkpt><trkpt lat="43.806167057332644" lon="12.371855115163909"><ele>613.3333333333333</ele><time>2026-05-01T08:07:36Z</time></trkpt><trkpt lat="43.80621355808499" lon="12.37160131872333"><ele>615.6666666666666</ele><time>2026-05-01T08:07:36.999Z</time></trkpt><trkpt lat="43.80626168059919" lon="12.371349419529631"><ele>618.0</ele><time>2026-05-01T08:07:37.999Z</time></trkpt><trkpt lat="43.806307490297186" lon="12.371102786597822"><ele>620.25</ele><time>2026-05-01T08:07:38.999Z</time></trkpt><trkpt lat="43.80635011471931" lon="12.370892609431584"><ele>622.5</ele><time>2026-05-01T08:07:39.999Z</time></trkpt><trkpt lat="43.806387109169755" lon="12.370696268577278"><ele>624.75</ele><time>2026-05-01T08:07:40.999Z</time></trkpt><trkpt lat="43.806402528341934" lon="12.370496689084627"><ele>627.0</ele><time>2026-05-01T08:07:41.999Z</time></trkpt><trkpt lat="43.80639163407924" lon="12.370292645028023"><ele>629.0</ele><time>2026-05-01T08:07:42.999Z</time></trkpt><trkpt lat="43.80633618734561" lon="12.370090171570071"><ele>631.0</ele><time>2026-05-01T08:07:43.999Z</time></trkpt><trkpt lat="43.806261260664236" lon="12.369900341959676"><ele>633.0</ele><time>2026-05-01T08:07:44.999Z</time></trkpt><trkpt lat="43.80615214807534" lon="12.369733383462883"><ele>634.3333333333334</ele><time>2026-05-01T08:07:45.999Z</time></trkpt><trkpt lat="43.80602888960385" lon="12.369575089847817"><ele>635.6666666666667</ele><time>2026-05-01T08:07:46.999Z</time></trkpt><trkpt lat="43.805889591922046" lon="12.369418333307538"><ele>637.0</ele><time>2026-05-01T08:07:47.999Z</time></trkpt><trkpt lat="43.80574721693415" lon="12.369252097289577"><ele>637.0</ele><time>2026-05-01T08:07:48.999Z</time></trkpt><trkpt lat="43.80560296012793" lon="12.369069173264688"><ele>637.0</ele><time>2026-05-01T08:07:49.999Z</time></trkpt><trkpt lat="43.80545628585164" lon="12.368887309737392"><ele>637.0</ele><time>2026-05-01T08:07:50.999Z</time></trkpt><trkpt lat="43.805313633539036" lon="12.36870670351012"><ele>637.3333333333334</ele><time>2026-05-01T08:07:51.999Z</time></trkpt><trkpt lat="43.80516541607541" lon="12.368524743448724"><ele>637.6666666666666</ele><time>2026-05-01T08:07:52.999Z</time></trkpt><trkpt lat="43.80501227083756" lon="12.36833884303759"><ele>638.0</ele><time>2026-05-01T08:07:53.999Z</time></trkpt><trkpt lat="43.80485861857241" lon="12.368149096625917"><ele>641.6666666666666</ele><time>2026-05-01T08:07:55Z</time></trkpt><trkpt lat="43.80470563294663" lon="12.367953454927179"><ele>645.3333333333334</ele><time>2026-05-01T08:07:56Z</time></trkpt><trkpt lat="43.804549229851695" lon="12.367767084548321"><ele>649.0</ele><time>2026-05-01T08:07:57Z</time></trkpt><trkpt lat="43.80440307795846" lon="12.367587375477502"><ele>649.3333333333334</ele><time>2026-05-01T08:07:58Z</time></trkpt><trkpt lat="43.804271827873116" lon="12.36742871570555"><ele>649.6666666666666</ele><time>2026-05-01T08:07:59Z</time></trkpt><trkpt lat="43.80415128571386" lon="12.367278144368871"><ele>650.0</ele><time>2026-05-01T08:08:00Z</time></trkpt><trkpt lat="43.80403204067052" lon="12.36713151440072"><ele>652.3333333333333</ele><time>2026-05-01T08:08:01Z</time></trkpt><trkpt lat="43.80391697103811" lon="12.366987522296395"><ele>654.6666666666666</ele><time>2026-05-01T08:08:02Z</time></trkpt><trkpt lat="43.80380771495774" lon="12.366848169918715"><ele>657.0</ele><time>2026-05-01T08:08:03Z</time></trkpt><trkpt lat="43.80369931515286" lon="12.366708735820907"><ele>657.0</ele><time>2026-05-01T08:08:04Z</time></trkpt><trkpt lat="43.803595376253675" lon="12.366557902046052"><ele>657.0</ele><time>2026-05-01T08:08:05Z</time></trkpt><trkpt lat="43.80349238878815" lon="12.366393688571542"><ele>657.0</ele><time>2026-05-01T08:08:06Z</time></trkpt><trkpt lat="43.80338981152693" lon="12.366221028200133"><ele>659.25</ele><time>2026-05-01T08:08:07Z</time></trkpt><trkpt lat="43.803289998433" lon="12.366047616386082"><ele>661.5</ele><time>2026-05-01T08:08:08Z</time></trkpt><trkpt lat="43.80320002085235" lon="12.365896040234196"><ele>663.75</ele><time>2026-05-01T08:08:09Z</time></trkpt><trkpt lat="43.80312413295076" lon="12.36577688128103"><ele>666.0</ele><time>2026-05-01T08:08:10Z</time></trkpt><trkpt lat="43.803057380449616" lon="12.36566606808574"><ele>666.0</ele><time>2026-05-01T08:08:11Z</time></trkpt><trkpt lat="43.802994199993364" lon="12.3655454472626"><ele>666.0</ele><time>2026-05-01T08:08:12Z</time></trkpt><trkpt lat="43.80292604310869" lon="12.36541155244174"><ele>666.0</ele><time>2026-05-01T08:08:13Z</time></trkpt><trkpt lat="43.80284143275088" lon="12.365276248405527"><ele>666.0</ele><time>2026-05-01T08:08:14Z</time></trkpt><trkpt lat="43.802738766426195" lon="12.36513835420523"><ele>668.0</ele><time>2026-05-01T08:08:15Z</time></trkpt><trkpt lat="43.8026294738449" lon="12.364993670688694"><ele>670.0</ele><time>2026-05-01T08:08:16Z</time></trkpt><trkpt lat="43.80251368507601" lon="12.364842095631351"><ele>672.0</ele><time>2026-05-01T08:08:17Z</time></trkpt><trkpt lat="43.80238348027269" lon="12.364692958101852"><ele>674.6666666666666</ele><time>2026-05-01T08:08:18Z</time></trkpt><trkpt lat="43.80225414946052" lon="12.364537332193715"><ele>677.3333333333333</ele><time>2026-05-01T08:08:19Z</time></trkpt><trkpt lat="43.802132189864274" lon="12.364362849035608"><ele>680.0</ele><time>2026-05-01T08:08:20Z</time></trkpt><trkpt lat="43.80202243542457" lon="12.364168973293829"><ele>680.0</ele><time>2026-05-01T08:08:21Z</time></trkpt><trkpt lat="43.801940221836084" lon="12.363955873530623"><ele>680.0</ele><time>2026-05-01T08:08:22Z</time></trkpt><trkpt lat="43.80186638179998" lon="12.363759553978527"><ele>680.0</ele><time>2026-05-01T08:08:23Z</time></trkpt><trkpt lat="43.801800986928434" lon="12.363582020801239"><ele>681.5</ele><time>2026-05-01T08:08:24Z</time></trkpt><trkpt lat="43.801721031790585" lon="12.363422751479378"><ele>683.0</ele><time>2026-05-01T08:08:25Z</time></trkpt><trkpt lat="43.801607505173976" lon="12.363290088002255"><ele>684.5</ele><time>2026-05-01T08:08:26Z</time></trkpt><trkpt lat="43.80146542380723" lon="12.363185372596051"><ele>686.0</ele><time>2026-05-01T08:08:27Z</time></trkpt><trkpt lat="43.80129972354797" lon="12.363107746531316"><ele>687.6666666666666</ele><time>2026-05-01T08:08:28Z</time></trkpt><trkpt lat="43.801129769883374" lon="12.363015656146517"><ele>689.3333333333334</ele><time>2026-05-01T08:08:29Z</time></trkpt><trkpt lat="43.80096885543197" lon="12.362922235703879"><ele>691.0</ele><time>2026-05-01T08:08:30Z</time></trkpt><trkpt lat="43.800803303411946" lon="12.362829985350395"><ele>691.0</ele><time>2026-05-01T08:08:31Z</time></trkpt><trkpt lat="43.80063871711493" lon="12.362739139873462"><ele>691.0</ele><time>2026-05-01T08:08:32Z</time></trkpt><trkpt lat="43.80046602107842" lon="12.362648576306919"><ele>691.0</ele><time>2026-05-01T08:08:33Z</time></trkpt><trkpt lat="43.80029846240942" lon="12.362549114691948"><ele>692.0</ele><time>2026-05-01T08:08:34Z</time></trkpt><trkpt lat="43.800132218652195" lon="12.362446632107238"><ele>693.0</ele><time>2026-05-01T08:08:35Z</time></trkpt><trkpt lat="43.79996291689301" lon="12.36235031501979"><ele>694.0</ele><time>2026-05-01T08:08:36Z</time></trkpt><trkpt lat="43.7998055839198" lon="12.362253936717778"><ele>695.5</ele><time>2026-05-01T08:08:37Z</time></trkpt><trkpt lat="43.799671444555855" lon="12.36217196096932"><ele>697.0</ele><time>2026-05-01T08:08:38Z</time></trkpt><trkpt lat="43.79955086190248" lon="12.362123427086566"><ele>698.5</ele><time>2026-05-01T08:08:39Z</time></trkpt><trkpt lat="43.79943426945435" lon="12.362141429272734"><ele>700.0</ele><time>2026-05-01T08:08:40Z</time></trkpt><trkpt lat="43.79931619434388" lon="12.362218411174773"><ele>700.75</ele><time>2026-05-01T08:08:41Z</time></trkpt><trkpt lat="43.79922162029289" lon="12.362357930872546"><ele>701.5</ele><time>2026-05-01T08:08:42Z</time></trkpt><trkpt lat="43.79914661301484" lon="12.362543592881183"><ele>702.25</ele><time>2026-05-01T08:08:43Z</time></trkpt><trkpt lat="43.79906689674424" lon="12.362718799194285"><ele>703.0</ele><time>2026-05-01T08:08:44Z</time></trkpt><trkpt lat="43.79896820969503" lon="12.362880475018486"><ele>703.0</ele><time>2026-05-01T08:08:45Z</time></trkpt><trkpt lat="43.79883639916266" lon="12.363012410069581"><ele>703.0</ele><time>2026-05-01T08:08:46Z</time></trkpt><trkpt lat="43.798697399999966" lon="12.363114173552667"><ele>703.0</ele><time>2026-05-01T08:08:47Z</time></trkpt><trkpt lat="43.798568812057994" lon="12.363188027980682"><ele>705.25</ele><time>2026-05-01T08:08:48Z</time></trkpt><trkpt lat="43.79843904126849" lon="12.363230944072514"><ele>707.5</ele><time>2026-05-01T08:08:49Z</time></trkpt><trkpt lat="43.79828422121197" lon="12.363221797540263"><ele>709.75</ele><time>2026-05-01T08:08:50Z</time></trkpt><trkpt lat="43.7981272814549" lon="12.363221047936895"><ele>712.0</ele><time>2026-05-01T08:08:51Z</time></trkpt><trkpt lat="43.79797386166999" lon="12.363276963773929"><ele>712.0</ele><time>2026-05-01T08:08:52Z</time></trkpt><trkpt lat="43.79782730471831" lon="12.363384198343567"><ele>712.0</ele><time>2026-05-01T08:08:53Z</time></trkpt><trkpt lat="43.7976711800111" lon="12.363451870123441"><ele>712.0</ele><time>2026-05-01T08:08:54Z</time></trkpt><trkpt lat="43.79752844524339" lon="12.363517632868234"><ele>712.5</ele><time>2026-05-01T08:08:55Z</time></trkpt><trkpt lat="43.79740422131157" lon="12.36359605594183"><ele>713.0</ele><time>2026-05-01T08:08:56Z</time></trkpt><trkpt lat="43.7973015483503" lon="12.36370449607678"><ele>713.5</ele><time>2026-05-01T08:08:57Z</time></trkpt><trkpt lat="43.79721868351218" lon="12.363847844613657"><ele>714.0</ele><time>2026-05-01T08:08:58Z</time></trkpt><trkpt lat="43.79715591509846" lon="12.364031461731512"><ele>714.0</ele><time>2026-05-01T08:08:59Z</time></trkpt><trkpt lat="43.79712271561053" lon="12.36423106268442"><ele>714.0</ele><time>2026-05-01T08:09:00Z</time></trkpt><trkpt lat="43.797130574393165" lon="12.364441179895351"><ele>714.0</ele><time>2026-05-01T08:09:01Z</time></trkpt><trkpt lat="43.79716504291826" lon="12.36464558829225"><ele>714.25</ele><time>2026-05-01T08:09:02Z</time></trkpt><trkpt lat="43.797193503803705" lon="12.364824537086127"><ele>714.5</ele><time>2026-05-01T08:09:03Z</time></trkpt><trkpt lat="43.79717880351107" lon="12.365004365948066"><ele>714.75</ele><time>2026-05-01T08:09:04Z</time></trkpt><trkpt lat="43.79712903518531" lon="12.365193351530042"><ele>715.0</ele><time>2026-05-01T08:09:05Z</time></trkpt><trkpt lat="43.79706384934591" lon="12.365389278460205"><ele>714.25</ele><time>2026-05-01T08:09:06Z</time></trkpt><trkpt lat="43.797003536006876" lon="12.365588429791291"><ele>713.5</ele><time>2026-05-01T08:09:07Z</time></trkpt><trkpt lat="43.79695332501111" lon="12.365775145540342"><ele>712.75</ele><time>2026-05-01T08:09:08Z</time></trkpt><trkpt lat="43.79690433332667" lon="12.365948069532655"><ele>712.0</ele><time>2026-05-01T08:09:09Z</time></trkpt><trkpt lat="43.796852506281944" lon="12.366110702772096"><ele>714.0</ele><time>2026-05-01T08:09:10Z</time></trkpt><trkpt lat="43.7967918910448" lon="12.366253987802464"><ele>716.0</ele><time>2026-05-01T08:09:11Z</time></trkpt><trkpt lat="43.79671131600819" lon="12.366356493710036"><ele>718.0</ele><time>2026-05-01T08:09:12Z</time></trkpt><trkpt lat="43.79661843378635" lon="12.36640404426406"><ele>720.0</ele><time>2026-05-01T08:09:13Z</time></trkpt><trkpt lat="43.79652904327567" lon="12.366384097336988"><ele>722.0</ele><time>2026-05-01T08:09:14Z</time></trkpt><trkpt lat="43.79644762518417" lon="12.366327848446968"><ele>723.0</ele><time>2026-05-01T08:09:15Z</time></trkpt><trkpt lat="43.79637303134743" lon="12.366243191224756"><ele>724.0</ele><time>2026-05-01T08:09:16Z</time></trkpt><trkpt lat="43.79630825726761" lon="12.366138339854261"><ele>725.0</ele><time>2026-05-01T08:09:17Z</time></trkpt><trkpt lat="43.79623840733914" lon="12.366026799895925"><ele>726.0</ele><time>2026-05-01T08:09:18Z</time></trkpt><trkpt lat="43.796154554261975" lon="12.36592099328482"><ele>727.0</ele><time>2026-05-01T08:09:19Z</time></trkpt><trkpt lat="43.796064056324475" lon="12.365804694667771"><ele>727.25</ele><time>2026-05-01T08:09:20Z</time></trkpt><trkpt lat="43.79596963275215" lon="12.365682007745232"><ele>727.5</ele><time>2026-05-01T08:09:21Z</time></trkpt><trkpt lat="43.795865159147546" lon="12.365565856029475"><ele>727.75</ele><time>2026-05-01T08:09:22Z</time></trkpt><trkpt lat="43.79575183624193" lon="12.3654715701999"><ele>728.0</ele><time>2026-05-01T08:09:23Z</time></trkpt><trkpt lat="43.7956290686611" lon="12.36539882357273"><ele>728.75</ele><time>2026-05-01T08:09:24Z</time></trkpt><trkpt lat="43.79550482538474" lon="12.365334596326111"><ele>729.5</ele><time>2026-05-01T08:09:25Z</time></trkpt><trkpt lat="43.7953679863936" lon="12.365278631878768"><ele>730.25</ele><time>2026-05-01T08:09:26Z</time></trkpt><trkpt lat="43.79523156990931" lon="12.365203310587148"><ele>731.0</ele><time>2026-05-01T08:09:27Z</time></trkpt><trkpt lat="43.79507970975511" lon="12.365122244558219"><ele>731.0</ele><time>2026-05-01T08:09:28Z</time></trkpt><trkpt lat="43.79490644962023" lon="12.365044188202434"><ele>731.0</ele><time>2026-05-01T08:09:29Z</time></trkpt><trkpt lat="43.79472930463444" lon="12.3649687340277"><ele>731.0</ele><time>2026-05-01T08:09:30Z</time></trkpt><trkpt lat="43.7945508219421" lon="12.364903048129747"><ele>731.0</ele><time>2026-05-01T08:09:31Z</time></trkpt><trkpt lat="43.794360146952" lon="12.36486716867536"><ele>731.0</ele><time>2026-05-01T08:09:32Z</time></trkpt><trkpt lat="43.79416350028609" lon="12.364861842026748"><ele>731.0</ele><time>2026-05-01T08:09:33Z</time></trkpt><trkpt lat="43.79396670228734" lon="12.36488742268159"><ele>730.3333333333333</ele><time>2026-05-01T08:09:34Z</time></trkpt><trkpt lat="43.79377467739675" lon="12.36495664663285"><ele>729.6666666666666</ele><time>2026-05-01T08:09:34.999Z</time></trkpt><trkpt lat="43.793585001995005" lon="12.365045987152094"><ele>729.0</ele><time>2026-05-01T08:09:35.999Z</time></trkpt><trkpt lat="43.79339964759329" lon="12.365126991169998"><ele>731.6666666666666</ele><time>2026-05-01T08:09:36.999Z</time></trkpt><trkpt lat="43.793229069873284" lon="12.365192946334924"><ele>734.3333333333333</ele><time>2026-05-01T08:09:37.999Z</time></trkpt><trkpt lat="43.79307569907315" lon="12.365257278882007"><ele>737.0</ele><time>2026-05-01T08:09:38.999Z</time></trkpt><trkpt lat="43.792924180967944" lon="12.365357468065001"><ele>737.0</ele><time>2026-05-01T08:09:39.999Z</time></trkpt><trkpt lat="43.79279327704532" lon="12.365512988988442"><ele>737.0</ele><time>2026-05-01T08:09:40.999Z</time></trkpt><trkpt lat="43.79268683069919" lon="12.365708810856137"><ele>737.0</ele><time>2026-05-01T08:09:41.999Z</time></trkpt><trkpt lat="43.792582118767406" lon="12.365907612101685"><ele>737.25</ele><time>2026-05-01T08:09:42.999Z</time></trkpt><trkpt lat="43.792478591200904" lon="12.366099393564886"><ele>737.5</ele><time>2026-05-01T08:09:43.999Z</time></trkpt><trkpt lat="43.79238915663832" lon="12.366264163981864"><ele>737.75</ele><time>2026-05-01T08:09:44.999Z</time></trkpt><trkpt lat="43.792310042963194" lon="12.366389219452914"><ele>738.0</ele><time>2026-05-01T08:09:45.999Z</time></trkpt><trkpt lat="43.79220930316274" lon="12.36648155286242"><ele>738.0</ele><time>2026-05-01T08:09:46.999Z</time></trkpt><trkpt lat="43.792080492321574" lon="12.366498729558002"><ele>738.0</ele><time>2026-05-01T08:09:47.999Z</time></trkpt><trkpt lat="43.79196532980726" lon="12.366448051849456"><ele>738.0</ele><time>2026-05-01T08:09:48.999Z</time></trkpt><trkpt lat="43.79188457453995" lon="12.36632599635688"><ele>738.0</ele><time>2026-05-01T08:09:49.999Z</time></trkpt><trkpt lat="43.791869011931" lon="12.366165685360887"><ele>740.0</ele><time>2026-05-01T08:09:50.999Z</time></trkpt><trkpt lat="43.79188918218455" lon="12.366000411475497"><ele>742.0</ele><time>2026-05-01T08:09:51.999Z</time></trkpt><trkpt lat="43.79191084834508" lon="12.36581435116365"><ele>744.0</ele><time>2026-05-01T08:09:52.999Z</time></trkpt><trkpt lat="43.79193801347306" lon="12.36561307754429"><ele>746.0</ele><time>2026-05-01T08:09:53.999Z</time></trkpt><trkpt lat="43.79195995441797" lon="12.365394676161005"><ele>747.6666666666666</ele><time>2026-05-01T08:09:54.999Z</time></trkpt><trkpt lat="43.791979888058265" lon="12.365182153617754"><ele>749.3333333333334</ele><time>2026-05-01T08:09:55.999Z</time></trkpt><trkpt lat="43.792000565731286" lon="12.364967638466183"><ele>751.0</ele><time>2026-05-01T08:09:56.999Z</time></trkpt><trkpt lat="43.792022659663466" lon="12.364746273738714"><ele>751.0</ele><time>2026-05-01T08:09:57.999Z</time></trkpt><trkpt lat="43.79204017121134" lon="12.364523179846037"><ele>751.0</ele><time>2026-05-01T08:09:58.999Z</time></trkpt><trkpt lat="43.79205604054257" lon="12.364311461410127"><ele>751.0</ele><time>2026-05-01T08:09:59.999Z</time></trkpt><trkpt lat="43.792062887719545" lon="12.364103859151303"><ele>751.0</ele><time>2026-05-01T08:10:01Z</time></trkpt><trkpt lat="43.792040660666174" lon="12.363888888395163"><ele>751.0</ele><time>2026-05-01T08:10:02Z</time></trkpt><trkpt lat="43.79198528317621" lon="12.363685269192917"><ele>751.0</ele><time>2026-05-01T08:10:03Z</time></trkpt><trkpt lat="43.7918951945852" lon="12.36350135963042"><ele>749.3333333333334</ele><time>2026-05-01T08:10:04Z</time></trkpt><trkpt lat="43.79178177734714" lon="12.363331035914147"><ele>747.6666666666666</ele><time>2026-05-01T08:10:05Z</time></trkpt><trkpt lat="43.7916626101579" lon="12.363159887636979"><ele>746.0</ele><time>2026-05-01T08:10:06Z</time></trkpt><trkpt lat="43.79153888896245" lon="12.36298471697001"><ele>746.0</ele><time>2026-05-01T08:10:07Z</time></trkpt><trkpt lat="43.791418681172054" lon="12.362807804963918"><ele>746.0</ele><time>2026-05-01T08:10:08Z</time></trkpt><trkpt lat="43.79131068319176" lon="12.362632837413798"><ele>746.0</ele><time>2026-05-01T08:10:09Z</time></trkpt><trkpt lat="43.79120245292962" lon="12.362460096153297"><ele>746.0</ele><time>2026-05-01T08:10:10Z</time></trkpt><trkpt lat="43.79108868447636" lon="12.362281467899189"><ele>746.0</ele><time>2026-05-01T08:10:11Z</time></trkpt><trkpt lat="43.790974102100556" lon="12.362102806000202"><ele>746.0</ele><time>2026-05-01T08:10:12Z</time></trkpt><trkpt lat="43.790861583814205" lon="12.361934884304404"><ele>742.3333333333333</ele><time>2026-05-01T08:10:13Z</time></trkpt><trkpt lat="43.790745918418416" lon="12.361785357917803"><ele>738.6666666666666</ele><time>2026-05-01T08:10:14Z</time></trkpt><trkpt lat="43.790614124093125" lon="12.361667343685417"><ele>735.0</ele><time>2026-05-01T08:10:15Z</time></trkpt><trkpt lat="43.7904704972372" lon="12.36159711474467"><ele>735.0</ele><time>2026-05-01T08:10:16Z</time></trkpt><trkpt lat="43.79030729304819" lon="12.36156415324511"><ele>735.0</ele><time>2026-05-01T08:10:17Z</time></trkpt><trkpt lat="43.790140341630995" lon="12.361555561422673"><ele>735.0</ele><time>2026-05-01T08:10:18Z</time></trkpt><trkpt lat="43.78997895881283" lon="12.361548676616788"><ele>732.0</ele><time>2026-05-01T08:10:19Z</time></trkpt><trkpt lat="43.78982497127505" lon="12.361553684463244"><ele>729.0</ele><time>2026-05-01T08:10:20Z</time></trkpt><trkpt lat="43.78967645034633" lon="12.361556741273517"><ele>726.0</ele><time>2026-05-01T08:10:21Z</time></trkpt><trkpt lat="43.78954723431135" lon="12.361547019958142"><ele>723.0</ele><time>2026-05-01T08:10:22Z</time></trkpt><trkpt lat="43.78943581555518" lon="12.361528597461533"><ele>724.4</ele><time>2026-05-01T08:10:23Z</time></trkpt><trkpt lat="43.78933851749822" lon="12.36147111051126"><ele>725.8</ele><time>2026-05-01T08:10:24Z</time></trkpt><trkpt lat="43.78927861361489" lon="12.361347814162222"><ele>727.2</ele><time>2026-05-01T08:10:25Z</time></trkpt><trkpt lat="43.78927843992378" lon="12.361201494625893"><ele>728.6</ele><time>2026-05-01T08:10:26Z</time></trkpt><trkpt lat="43.78932832853098" lon="12.361060016243258"><ele>730.0</ele><time>2026-05-01T08:10:27Z</time></trkpt><trkpt lat="43.7893929137062" lon="12.36091211973401"><ele>730.0</ele><time>2026-05-01T08:10:28Z</time></trkpt><trkpt lat="43.78945638620438" lon="12.36074631237491"><ele>730.0</ele><time>2026-05-01T08:10:29Z</time></trkpt><trkpt lat="43.78951842023499" lon="12.360570278850041"><ele>730.0</ele><time>2026-05-01T08:10:30Z</time></trkpt><trkpt lat="43.78958036204799" lon="12.360404860348995"><ele>730.0</ele><time>2026-05-01T08:10:31Z</time></trkpt><trkpt lat="43.789646019393146" lon="12.360233476547572"><ele>728.75</ele><time>2026-05-01T08:10:32Z</time></trkpt><trkpt lat="43.78971370573415" lon="12.360062962912256"><ele>727.5</ele><time>2026-05-01T08:10:33Z</time></trkpt><trkpt lat="43.78976689429804" lon="12.359881235931223"><ele>726.25</ele><time>2026-05-01T08:10:34Z</time></trkpt><trkpt lat="43.78979689295203" lon="12.359688895502225"><ele>725.0</ele><time>2026-05-01T08:10:35Z</time></trkpt><trkpt lat="43.78979842632829" lon="12.359487945040229"><ele>725.0</ele><time>2026-05-01T08:10:36Z</time></trkpt><trkpt lat="43.789777864391745" lon="12.359289932986547"><ele>725.0</ele><time>2026-05-01T08:10:37Z</time></trkpt><trkpt lat="43.78971882794483" lon="12.359101445178664"><ele>725.0</ele><time>2026-05-01T08:10:38Z</time></trkpt><trkpt lat="43.78963170253765" lon="12.358925566238891"><ele>725.0</ele><time>2026-05-01T08:10:39Z</time></trkpt><trkpt lat="43.78952959346443" lon="12.358758378082634"><ele>727.6666666666666</ele><time>2026-05-01T08:10:40Z</time></trkpt><trkpt lat="43.78941575372522" lon="12.358596587956328"><ele>730.3333333333334</ele><time>2026-05-01T08:10:41Z</time></trkpt><trkpt lat="43.78929552930697" lon="12.358434988151263"><ele>733.0</ele><time>2026-05-01T08:10:42Z</time></trkpt><trkpt lat="43.78917414444856" lon="12.358277442004589"><ele>730.6666666666667</ele><time>2026-05-01T08:10:43Z</time></trkpt><trkpt lat="43.78904516289249" lon="12.358146053875448"><ele>728.3333333333334</ele><time>2026-05-01T08:10:44Z</time></trkpt><trkpt lat="43.78890762413453" lon="12.35804765696255"><ele>726.0</ele><time>2026-05-01T08:10:45Z</time></trkpt><trkpt lat="43.78875580092443" lon="12.357977631804449"><ele>726.0</ele><time>2026-05-01T08:10:46Z</time></trkpt><trkpt lat="43.78859925349049" lon="12.357930418408719"><ele>726.0</ele><time>2026-05-01T08:10:47Z</time></trkpt><trkpt lat="43.788432031350816" lon="12.357887984189475"><ele>726.0</ele><time>2026-05-01T08:10:48Z</time></trkpt><trkpt lat="43.7882700591985" lon="12.357835521816366"><ele>722.0</ele><time>2026-05-01T08:10:49Z</time></trkpt><trkpt lat="43.78812263771435" lon="12.3577465253286"><ele>718.0</ele><time>2026-05-01T08:10:50Z</time></trkpt><trkpt lat="43.78799791474115" lon="12.357623859191476"><ele>714.0</ele><time>2026-05-01T08:10:51Z</time></trkpt><trkpt lat="43.78789953046515" lon="12.35747362612713"><ele>714.0</ele><time>2026-05-01T08:10:52Z</time></trkpt><trkpt lat="43.78782421305425" lon="12.3573000145804"><ele>714.0</ele><time>2026-05-01T08:10:53Z</time></trkpt><trkpt lat="43.78776254015514" lon="12.357110623499924"><ele>714.0</ele><time>2026-05-01T08:10:54Z</time></trkpt><trkpt lat="43.78769913240544" lon="12.356911725932335"><ele>711.75</ele><time>2026-05-01T08:10:55Z</time></trkpt><trkpt lat="43.787644518637975" lon="12.356724827512082"><ele>709.5</ele><time>2026-05-01T08:10:56Z</time></trkpt><trkpt lat="43.78758914484799" lon="12.356545823932171"><ele>707.25</ele><time>2026-05-01T08:10:57Z</time></trkpt><trkpt lat="43.78754290709935" lon="12.356375448453726"><ele>705.0</ele><time>2026-05-01T08:10:58Z</time></trkpt><trkpt lat="43.7875055568799" lon="12.356204350301127"><ele>705.0</ele><time>2026-05-01T08:10:59Z</time></trkpt><trkpt lat="43.78748339776628" lon="12.356031008151016"><ele>705.0</ele><time>2026-05-01T08:11:00Z</time></trkpt><trkpt lat="43.7874643144001" lon="12.355855810630048"><ele>705.0</ele><time>2026-05-01T08:11:01Z</time></trkpt><trkpt lat="43.78745455914853" lon="12.355677812078365"><ele>705.0</ele><time>2026-05-01T08:11:02Z</time></trkpt><trkpt lat="43.787455099274574" lon="12.355500249098844"><ele>705.25</ele><time>2026-05-01T08:11:03Z</time></trkpt><trkpt lat="43.78745598587459" lon="12.355333497109811"><ele>705.5</ele><time>2026-05-01T08:11:04Z</time></trkpt><trkpt lat="43.7874503980074" lon="12.355169993097222"><ele>705.75</ele><time>2026-05-01T08:11:05Z</time></trkpt><trkpt lat="43.78744573525119" lon="12.355003117450494"><ele>706.0</ele><time>2026-05-01T08:11:06Z</time></trkpt><trkpt lat="43.787442642080585" lon="12.354832301074266"><ele>706.75</ele><time>2026-05-01T08:11:07Z</time></trkpt><trkpt lat="43.787435775930255" lon="12.354662814850284"><ele>707.5</ele><time>2026-05-01T08:11:08Z</time></trkpt><trkpt lat="43.78742749898349" lon="12.354499960108965"><ele>708.25</ele><time>2026-05-01T08:11:09Z</time></trkpt><trkpt lat="43.78740811498732" lon="12.354343954671114"><ele>709.0</ele><time>2026-05-01T08:11:10Z</time></trkpt><trkpt lat="43.78736938886449" lon="12.354189969165807"><ele>709.0</ele><time>2026-05-01T08:11:11Z</time></trkpt><trkpt lat="43.78730139327532" lon="12.354034160611425"><ele>709.0</ele><time>2026-05-01T08:11:12Z</time></trkpt><trkpt lat="43.78722930321552" lon="12.353866643072763"><ele>709.0</ele><time>2026-05-01T08:11:13Z</time></trkpt><trkpt lat="43.787173204955394" lon="12.353711143414534"><ele>709.0</ele><time>2026-05-01T08:11:14Z</time></trkpt><trkpt lat="43.78711930785756" lon="12.353553501932216"><ele>710.75</ele><time>2026-05-01T08:11:15Z</time></trkpt><trkpt lat="43.7870617140588" lon="12.353394456775149"><ele>712.5</ele><time>2026-05-01T08:11:16Z</time></trkpt><trkpt lat="43.78700623077303" lon="12.353237618607778"><ele>714.25</ele><time>2026-05-01T08:11:17Z</time></trkpt><trkpt lat="43.78695280280937" lon="12.353084201437282"><ele>716.0</ele><time>2026-05-01T08:11:18Z</time></trkpt><trkpt lat="43.78690084219798" lon="12.352940434008152"><ele>716.5</ele><time>2026-05-01T08:11:19Z</time></trkpt><trkpt lat="43.786852722729876" lon="12.352797052856847"><ele>717.0</ele><time>2026-05-01T08:11:20Z</time></trkpt><trkpt lat="43.786800829810076" lon="12.352652049320142"><ele>717.5</ele><time>2026-05-01T08:11:21Z</time></trkpt><trkpt lat="43.78674218664655" lon="12.352494802543914"><ele>718.0</ele><time>2026-05-01T08:11:22Z</time></trkpt><trkpt lat="43.78667573613397" lon="12.352320517544696"><ele>713.0</ele><time>2026-05-01T08:11:23Z</time></trkpt><trkpt lat="43.78661974538439" lon="12.352157003658803"><ele>708.0</ele><time>2026-05-01T08:11:24Z</time></trkpt><trkpt lat="43.78657252696381" lon="12.352000706706503"><ele>703.0</ele><time>2026-05-01T08:11:25Z</time></trkpt><trkpt lat="43.7865300140781" lon="12.351864447809003"><ele>698.0</ele><time>2026-05-01T08:11:26Z</time></trkpt><trkpt lat="43.78648925411596" lon="12.3517347169008"><ele>698.0</ele><time>2026-05-01T08:11:27Z</time></trkpt><trkpt lat="43.78645698802464" lon="12.351614108395516"><ele>698.0</ele><time>2026-05-01T08:11:28Z</time></trkpt><trkpt lat="43.78644749404728" lon="12.351487344079647"><ele>698.0</ele><time>2026-05-01T08:11:29Z</time></trkpt><trkpt lat="43.78644821319048" lon="12.351374704883902"><ele>698.0</ele><time>2026-05-01T08:11:30Z</time></trkpt><trkpt lat="43.786446882179895" lon="12.35127587944621"><ele>698.0</ele><time>2026-05-01T08:11:31Z</time></trkpt><trkpt lat="43.78642490840531" lon="12.351181369727255"><ele>698.0</ele><time>2026-05-01T08:11:32Z</time></trkpt><trkpt lat="43.786359116447834" lon="12.351115799808504"><ele>698.0</ele><time>2026-05-01T08:11:33Z</time></trkpt><trkpt lat="43.78629689360779" lon="12.351024050488087"><ele>698.0</ele><time>2026-05-01T08:11:34Z</time></trkpt><trkpt lat="43.78625804223081" lon="12.3508971328863"><ele>698.0</ele><time>2026-05-01T08:11:35Z</time></trkpt><trkpt lat="43.786230287137045" lon="12.350768275300332"><ele>698.0</ele><time>2026-05-01T08:11:36Z</time></trkpt><trkpt lat="43.78619262187289" lon="12.350629238860936"><ele>698.0</ele><time>2026-05-01T08:11:37Z</time></trkpt><trkpt lat="43.78615427395253" lon="12.350480676308411"><ele>698.75</ele><time>2026-05-01T08:11:38Z</time></trkpt><trkpt lat="43.786115049782595" lon="12.350317344872284"><ele>699.5</ele><time>2026-05-01T08:11:39Z</time></trkpt><trkpt lat="43.786075838900956" lon="12.350152622287311"><ele>700.25</ele><time>2026-05-01T08:11:40Z</time></trkpt><trkpt lat="43.78603422174714" lon="12.349991021532317"><ele>701.0</ele><time>2026-05-01T08:11:40.999Z</time></trkpt><trkpt lat="43.78598987035113" lon="12.349821842845346"><ele>699.0</ele><time>2026-05-01T08:11:41.999Z</time></trkpt><trkpt lat="43.78594903171206" lon="12.349652149643932"><ele>697.0</ele><time>2026-05-01T08:11:42.999Z</time></trkpt><trkpt lat="43.7859056535185" lon="12.349473883210488"><ele>695.0</ele><time>2026-05-01T08:11:43.999Z</time></trkpt><trkpt lat="43.78586208965448" lon="12.349298458629665"><ele>693.0</ele><time>2026-05-01T08:11:44.999Z</time></trkpt><trkpt lat="43.78581510297836" lon="12.349128736084698"><ele>693.0</ele><time>2026-05-01T08:11:45.999Z</time></trkpt><trkpt lat="43.78575761703779" lon="12.348968057809115"><ele>693.0</ele><time>2026-05-01T08:11:46.999Z</time></trkpt><trkpt lat="43.78567211405227" lon="12.348812024559992"><ele>693.0</ele><time>2026-05-01T08:11:47.999Z</time></trkpt><trkpt lat="43.785548798434725" lon="12.348669987296415"><ele>693.0</ele><time>2026-05-01T08:11:48.999Z</time></trkpt><trkpt lat="43.785389407114465" lon="12.348528256441895"><ele>695.0</ele><time>2026-05-01T08:11:49.999Z</time></trkpt><trkpt lat="43.78520461591185" lon="12.348366607886993"><ele>697.0</ele><time>2026-05-01T08:11:50.999Z</time></trkpt><trkpt lat="43.78501209781894" lon="12.348180128837873"><ele>696.0</ele><time>2026-05-01T08:11:51.999Z</time></trkpt><trkpt lat="43.78481402136114" lon="12.3479797590305"><ele>695.0</ele><time>2026-05-01T08:11:52.999Z</time></trkpt><trkpt lat="43.784623593374434" lon="12.347799650225031"><ele>695.0</ele><time>2026-05-01T08:11:53.999Z</time></trkpt><trkpt lat="43.784432665484566" lon="12.347612406745174"><ele>695.0</ele><time>2026-05-01T08:11:54.999Z</time></trkpt><trkpt lat="43.78424040373489" lon="12.347431582307385"><ele>694.5</ele><time>2026-05-01T08:11:55.999Z</time></trkpt><trkpt lat="43.7840492022505" lon="12.34725246796471"><ele>694.0</ele><time>2026-05-01T08:11:56.999Z</time></trkpt><trkpt lat="43.783857656166006" lon="12.347073197587395"><ele>694.0</ele><time>2026-05-01T08:11:57.999Z</time></trkpt><trkpt lat="43.783664797994945" lon="12.34689671199972"><ele>694.0</ele><time>2026-05-01T08:11:58.999Z</time></trkpt><trkpt lat="43.78347217067317" lon="12.346715506257611"><ele>695.5</ele><time>2026-05-01T08:11:59.999Z</time></trkpt><trkpt lat="43.78328187465256" lon="12.34653423200499"><ele>697.0</ele><time>2026-05-01T08:12:00.999Z</time></trkpt><trkpt lat="43.783099639236774" lon="12.3463585897531"><ele>697.0</ele><time>2026-05-01T08:12:01.999Z</time></trkpt><trkpt lat="43.78292123147628" lon="12.346189828449052"><ele>697.0</ele><time>2026-05-01T08:12:02.999Z</time></trkpt><trkpt lat="43.782745998400365" lon="12.346028888405925"><ele>697.0</ele><time>2026-05-01T08:12:03.999Z</time></trkpt><trkpt lat="43.782581226906245" lon="12.34588318251799"><ele>698.0</ele><time>2026-05-01T08:12:04.999Z</time></trkpt><trkpt lat="43.78243338942245" lon="12.345741958429718"><ele>699.0</ele><time>2026-05-01T08:12:05.999Z</time></trkpt><trkpt lat="43.78230308774952" lon="12.34558873054506"><ele>700.0</ele><time>2026-05-01T08:12:07Z</time></trkpt><trkpt lat="43.7821926419241" lon="12.34541644993886"><ele>700.0</ele><time>2026-05-01T08:12:08Z</time></trkpt><trkpt lat="43.7820998075069" lon="12.345236458963512"><ele>700.0</ele><time>2026-05-01T08:12:09Z</time></trkpt><trkpt lat="43.78202816431807" lon="12.345029564159157"><ele>700.0</ele><time>2026-05-01T08:12:10Z</time></trkpt><trkpt lat="43.78197707636207" lon="12.344804366965459"><ele>700.6666666666667</ele><time>2026-05-01T08:12:11Z</time></trkpt><trkpt lat="43.78193509759787" lon="12.34456976539403"><ele>701.3333333333334</ele><time>2026-05-01T08:12:12Z</time></trkpt><trkpt lat="43.78189949543503" lon="12.344332239630461"><ele>702.0</ele><time>2026-05-01T08:12:13Z</time></trkpt><trkpt lat="43.78186277706826" lon="12.34409419388801"><ele>700.6666666666666</ele><time>2026-05-01T08:12:14Z</time></trkpt><trkpt lat="43.78181507789715" lon="12.343854402904526"><ele>699.3333333333333</ele><time>2026-05-01T08:12:15Z</time></trkpt><trkpt lat="43.78174970048729" lon="12.34362180153404"><ele>698.0</ele><time>2026-05-01T08:12:16Z</time></trkpt><trkpt lat="43.781678113296245" lon="12.343390848784056"><ele>698.0</ele><time>2026-05-01T08:12:17Z</time></trkpt><trkpt lat="43.781603996494454" lon="12.343159224502024"><ele>698.0</ele><time>2026-05-01T08:12:18Z</time></trkpt><trkpt lat="43.78152980150514" lon="12.3429319364432"><ele>698.0</ele><time>2026-05-01T08:12:19Z</time></trkpt><trkpt lat="43.781461504466975" lon="12.342704284548802"><ele>702.0</ele><time>2026-05-01T08:12:20Z</time></trkpt><trkpt lat="43.78139509250862" lon="12.34248656961153"><ele>706.0</ele><time>2026-05-01T08:12:21Z</time></trkpt><trkpt lat="43.78132735143307" lon="12.342275147423543"><ele>710.0</ele><time>2026-05-01T08:12:22Z</time></trkpt><trkpt lat="43.78126179534363" lon="12.342070369589276"><ele>711.0</ele><time>2026-05-01T08:12:23Z</time></trkpt><trkpt lat="43.78120010665748" lon="12.341873307697574"><ele>712.0</ele><time>2026-05-01T08:12:24Z</time></trkpt><trkpt lat="43.78114005119832" lon="12.34167890830397"><ele>713.0</ele><time>2026-05-01T08:12:25Z</time></trkpt><trkpt lat="43.78108125551977" lon="12.341490720503069"><ele>713.3333333333333</ele><time>2026-05-01T08:12:26Z</time></trkpt><trkpt lat="43.781020916481175" lon="12.341302609364467"><ele>713.6666666666666</ele><time>2026-05-01T08:12:27Z</time></trkpt><trkpt lat="43.78096164144514" lon="12.341112594828704"><ele>714.0</ele><time>2026-05-01T08:12:28Z</time></trkpt><trkpt lat="43.7809048052995" lon="12.340915092853818"><ele>714.0</ele><time>2026-05-01T08:12:29Z</time></trkpt><trkpt lat="43.780848249746334" lon="12.340712268219615"><ele>714.0</ele><time>2026-05-01T08:12:30Z</time></trkpt><trkpt lat="43.78078684873765" lon="12.340503254218392"><ele>714.0</ele><time>2026-05-01T08:12:31Z</time></trkpt><trkpt lat="43.780723217025" lon="12.340293680543658"><ele>715.3333333333334</ele><time>2026-05-01T08:12:32Z</time></trkpt><trkpt lat="43.7806555268186" lon="12.34008134309706"><ele>716.6666666666667</ele><time>2026-05-01T08:12:33Z</time></trkpt><trkpt lat="43.78059160039197" lon="12.339866836590131"><ele>718.0</ele><time>2026-05-01T08:12:34Z</time></trkpt><trkpt lat="43.78052518774594" lon="12.339649005155394"><ele>719.3333333333334</ele><time>2026-05-01T08:12:35Z</time></trkpt><trkpt lat="43.780458510486405" lon="12.33942906279892"><ele>720.6666666666666</ele><time>2026-05-01T08:12:36Z</time></trkpt><trkpt lat="43.780389579068135" lon="12.339208259495747"><ele>722.0</ele><time>2026-05-01T08:12:37Z</time></trkpt><trkpt lat="43.7803209511304" lon="12.338980199920197"><ele>723.3333333333333</ele><time>2026-05-01T08:12:38Z</time></trkpt><trkpt lat="43.780251789312054" lon="12.3387577339398"><ele>724.6666666666666</ele><time>2026-05-01T08:12:39Z</time></trkpt><trkpt lat="43.78018217393871" lon="12.338535597330267"><ele>726.0</ele><time>2026-05-01T08:12:40Z</time></trkpt><trkpt lat="43.78011387118242" lon="12.338327281029645"><ele>725.75</ele><time>2026-05-01T08:12:41Z</time></trkpt><trkpt lat="43.78004417301999" lon="12.338140977102073"><ele>725.5</ele><time>2026-05-01T08:12:42Z</time></trkpt><trkpt lat="43.77997204197125" lon="12.337980736135167"><ele>725.25</ele><time>2026-05-01T08:12:43Z</time></trkpt><trkpt lat="43.779896336060865" lon="12.337856321792852"><ele>725.0</ele><time>2026-05-01T08:12:44Z</time></trkpt><trkpt lat="43.77982207253157" lon="12.337762073349621"><ele>725.0</ele><time>2026-05-01T08:12:45Z</time></trkpt><trkpt lat="43.779751525411825" lon="12.337696379429445"><ele>725.0</ele><time>2026-05-01T08:12:46Z</time></trkpt><trkpt lat="43.77967656196172" lon="12.337582415215198"><ele>725.0</ele><time>2026-05-01T08:12:48Z</time></trkpt><trkpt lat="43.77970343674653" lon="12.337426833730193"><ele>725.0</ele><time>2026-05-01T08:12:50Z</time></trkpt><trkpt lat="43.77974878718614" lon="12.337345123017663"><ele>725.0</ele><time>2026-05-01T08:12:51Z</time></trkpt><trkpt lat="43.779787704043144" lon="12.337248386066221"><ele>726.8</ele><time>2026-05-01T08:12:52Z</time></trkpt><trkpt lat="43.779830912902" lon="12.33714601386865"><ele>728.6</ele><time>2026-05-01T08:12:53Z</time></trkpt><trkpt lat="43.77988628852615" lon="12.337043530983358"><ele>730.4000000000001</ele><time>2026-05-01T08:12:54Z</time></trkpt><trkpt lat="43.779948051897804" lon="12.336931718707419"><ele>732.2</ele><time>2026-05-01T08:12:55Z</time></trkpt><trkpt lat="43.78001503925458" lon="12.336804819289503"><ele>734.0</ele><time>2026-05-01T08:12:56Z</time></trkpt><trkpt lat="43.7800824526151" lon="12.33667241577084"><ele>734.0</ele><time>2026-05-01T08:12:57Z</time></trkpt><trkpt lat="43.78014290810579" lon="12.33653866207207"><ele>734.0</ele><time>2026-05-01T08:12:58Z</time></trkpt><trkpt lat="43.78020557560515" lon="12.336414848009303"><ele>734.0</ele><time>2026-05-01T08:12:59Z</time></trkpt><trkpt lat="43.78025850029486" lon="12.336297368031858"><ele>734.0</ele><time>2026-05-01T08:13:00Z</time></trkpt><trkpt lat="43.78031121441034" lon="12.336185818906971"><ele>734.0</ele><time>2026-05-01T08:13:01Z</time></trkpt><trkpt lat="43.78036335492148" lon="12.336093493656971"><ele>735.8571428571428</ele><time>2026-05-01T08:13:02Z</time></trkpt><trkpt lat="43.78041254077581" lon="12.336012335068546"><ele>737.7142857142858</ele><time>2026-05-01T08:13:03Z</time></trkpt><trkpt lat="43.78045604726973" lon="12.33593461957766"><ele>739.5714285714286</ele><time>2026-05-01T08:13:04Z</time></trkpt><trkpt lat="43.78050687688718" lon="12.335865777968388"><ele>741.4285714285713</ele><time>2026-05-01T08:13:05Z</time></trkpt><trkpt lat="43.78055558952311" lon="12.335798349150679"><ele>743.2857142857142</ele><time>2026-05-01T08:13:06Z</time></trkpt><trkpt lat="43.78060030817783" lon="12.33571448732946"><ele>745.1428571428571</ele><time>2026-05-01T08:13:08Z</time></trkpt><trkpt lat="43.78068313549483" lon="12.335722241804756"><ele>747.0</ele><time>2026-05-01T08:13:12Z</time></trkpt><trkpt lat="43.780747349181595" lon="12.335844783877018"><ele>747.0</ele><time>2026-05-01T08:13:14Z</time></trkpt><trkpt lat="43.78082830580017" lon="12.335968386426142"><ele>747.0</ele><time>2026-05-01T08:13:16Z</time></trkpt><trkpt lat="43.780880215195694" lon="12.3360508132613"><ele>747.0</ele><time>2026-05-01T08:13:17Z</time></trkpt><trkpt lat="43.78092847159976" lon="12.336145985465416"><ele>747.0</ele><time>2026-05-01T08:13:18Z</time></trkpt><trkpt lat="43.780980971991845" lon="12.336234002201715"><ele>747.0</ele><time>2026-05-01T08:13:19Z</time></trkpt><trkpt lat="43.78102146834333" lon="12.3363096113984"><ele>747.0</ele><time>2026-05-01T08:13:20Z</time></trkpt><trkpt lat="43.78111737113706" lon="12.336415104552014"><ele>747.6666666666666</ele><time>2026-05-01T08:13:22Z</time></trkpt><trkpt lat="43.781175399349024" lon="12.33645775603764"><ele>748.3333333333334</ele><time>2026-05-01T08:13:23Z</time></trkpt><trkpt lat="43.78124183758545" lon="12.336505030602039"><ele>749.0</ele><time>2026-05-01T08:13:24Z</time></trkpt><trkpt lat="43.78131719157293" lon="12.336533485935075"><ele>749.6666666666667</ele><time>2026-05-01T08:13:25Z</time></trkpt><trkpt lat="43.781385258997155" lon="12.336560997699904"><ele>750.3333333333334</ele><time>2026-05-01T08:13:26Z</time></trkpt><trkpt lat="43.78148804679767" lon="12.336601342311752"><ele>751.0</ele><time>2026-05-01T08:13:28Z</time></trkpt><trkpt lat="43.78156544256472" lon="12.336609073121007"><ele>751.0</ele><time>2026-05-01T08:13:30Z</time></trkpt><trkpt lat="43.78162604668352" lon="12.33655930773471"><ele>751.0</ele><time>2026-05-01T08:13:33Z</time></trkpt><trkpt lat="43.78160772786144" lon="12.336467707891751"><ele>751.0</ele><time>2026-05-01T08:13:35Z</time></trkpt><trkpt lat="43.78155679664194" lon="12.33635264462969"><ele>751.0</ele><time>2026-05-01T08:13:37Z</time></trkpt><trkpt lat="43.7815210467304" lon="12.336278406571148"><ele>751.0</ele><time>2026-05-01T08:13:38Z</time></trkpt><trkpt lat="43.78147789093434" lon="12.33620053375272"><ele>751.0</ele><time>2026-05-01T08:13:39Z</time></trkpt><trkpt lat="43.7814013461216" lon="12.336049722930078"><ele>751.5</ele><time>2026-05-01T08:13:41Z</time></trkpt><trkpt lat="43.78135709206679" lon="12.335957071966073"><ele>752.0</ele><time>2026-05-01T08:13:42Z</time></trkpt><trkpt lat="43.78131322827489" lon="12.335864452897395"><ele>752.5</ele><time>2026-05-01T08:13:43Z</time></trkpt><trkpt lat="43.78127227329192" lon="12.33578212025084"><ele>753.0</ele><time>2026-05-01T08:13:44Z</time></trkpt><trkpt lat="43.78122856215434" lon="12.335697781638888"><ele>753.5</ele><time>2026-05-01T08:13:45Z</time></trkpt><trkpt lat="43.78118587156974" lon="12.335607755195921"><ele>754.0</ele><time>2026-05-01T08:13:46Z</time></trkpt><trkpt lat="43.78113372779144" lon="12.335512388159154"><ele>754.6</ele><time>2026-05-01T08:13:47Z</time></trkpt><trkpt lat="43.781074906892364" lon="12.335411264669615"><ele>755.2</ele><time>2026-05-01T08:13:48Z</time></trkpt><trkpt lat="43.78101609234486" lon="12.335299111157005"><ele>755.8000000000001</ele><time>2026-05-01T08:13:49Z</time></trkpt><trkpt lat="43.78095270307259" lon="12.335176948704246"><ele>756.4000000000001</ele><time>2026-05-01T08:13:50Z</time></trkpt><trkpt lat="43.78089360530841" lon="12.335045377084203"><ele>757.0</ele><time>2026-05-01T08:13:51Z</time></trkpt><trkpt lat="43.78083673728785" lon="12.334912055008846"><ele>757.5</ele><time>2026-05-01T08:13:52Z</time></trkpt><trkpt lat="43.78077142116528" lon="12.334773562479597"><ele>758.0</ele><time>2026-05-01T08:13:53Z</time></trkpt><trkpt lat="43.78070604007386" lon="12.334625681643644"><ele>758.5</ele><time>2026-05-01T08:13:54Z</time></trkpt><trkpt lat="43.78063452083859" lon="12.33447379376038"><ele>759.0</ele><time>2026-05-01T08:13:55Z</time></trkpt><trkpt lat="43.78055987489549" lon="12.334319960432142"><ele>759.0</ele><time>2026-05-01T08:13:55.999Z</time></trkpt><trkpt lat="43.78048559108408" lon="12.334160774202207"><ele>759.0</ele><time>2026-05-01T08:13:56.999Z</time></trkpt><trkpt lat="43.7804089848438" lon="12.333997236678378"><ele>759.0</ele><time>2026-05-01T08:13:57.999Z</time></trkpt><trkpt lat="43.78032952667081" lon="12.333843524728001"><ele>759.0</ele><time>2026-05-01T08:13:58.999Z</time></trkpt><trkpt lat="43.7802551786404" lon="12.333694854753567"><ele>758.25</ele><time>2026-05-01T08:13:59.999Z</time></trkpt><trkpt lat="43.78018456581391" lon="12.33355072959494"><ele>757.5</ele><time>2026-05-01T08:14:00.999Z</time></trkpt><trkpt lat="43.78012602810039" lon="12.333397581877517"><ele>756.75</ele><time>2026-05-01T08:14:01.999Z</time></trkpt><trkpt lat="43.78008881535688" lon="12.333232426191262"><ele>756.0</ele><time>2026-05-01T08:14:02.999Z</time></trkpt><trkpt lat="43.7800757222345" lon="12.333056838221824"><ele>757.0</ele><time>2026-05-01T08:14:03.999Z</time></trkpt><trkpt lat="43.78007517854334" lon="12.332883477717896"><ele>758.0</ele><time>2026-05-01T08:14:04.999Z</time></trkpt><trkpt lat="43.78009347478511" lon="12.332707225036923"><ele>759.0</ele><time>2026-05-01T08:14:05.999Z</time></trkpt><trkpt lat="43.78012665434543" lon="12.332534625449878"><ele>760.0</ele><time>2026-05-01T08:14:06.999Z</time></trkpt><trkpt lat="43.780168022463464" lon="12.33235179614411"><ele>763.0</ele><time>2026-05-01T08:14:07.999Z</time></trkpt><trkpt lat="43.78020658137517" lon="12.332168175531182"><ele>766.0</ele><time>2026-05-01T08:14:08.999Z</time></trkpt><trkpt lat="43.78024662495089" lon="12.331986891567903"><ele>769.0</ele><time>2026-05-01T08:14:09.999Z</time></trkpt><trkpt lat="43.780286358782" lon="12.331804804957638"><ele>772.0</ele><time>2026-05-01T08:14:10.999Z</time></trkpt><trkpt lat="43.780328403156766" lon="12.33162251335072"><ele>772.0</ele><time>2026-05-01T08:14:11.999Z</time></trkpt><trkpt lat="43.78036510538137" lon="12.331449456126585"><ele>772.0</ele><time>2026-05-01T08:14:13Z</time></trkpt><trkpt lat="43.780402318509985" lon="12.331288634331099"><ele>772.0</ele><time>2026-05-01T08:14:14Z</time></trkpt><trkpt lat="43.78043963470046" lon="12.331120779399747"><ele>772.0</ele><time>2026-05-01T08:14:15Z</time></trkpt><trkpt lat="43.78048912713875" lon="12.330959905932422"><ele>772.25</ele><time>2026-05-01T08:14:16Z</time></trkpt><trkpt lat="43.78053690725876" lon="12.330785168818773"><ele>772.5</ele><time>2026-05-01T08:14:17Z</time></trkpt><trkpt lat="43.78058297555226" lon="12.330597049958328"><ele>772.75</ele><time>2026-05-01T08:14:18Z</time></trkpt><trkpt lat="43.78063145469506" lon="12.33041112714818"><ele>773.0</ele><time>2026-05-01T08:14:19Z</time></trkpt><trkpt lat="43.780676814621614" lon="12.330224113498597"><ele>775.0</ele><time>2026-05-01T08:14:20Z</time></trkpt><trkpt lat="43.780712980010975" lon="12.330045303731064"><ele>777.0</ele><time>2026-05-01T08:14:21Z</time></trkpt><trkpt lat="43.78072453456852" lon="12.32987997166044"><ele>779.0</ele><time>2026-05-01T08:14:22Z</time></trkpt><trkpt lat="43.78070435059471" lon="12.329728831344752"><ele>781.0</ele><time>2026-05-01T08:14:23Z</time></trkpt><trkpt lat="43.7806437281756" lon="12.329590582000836"><ele>783.5</ele><time>2026-05-01T08:14:24Z</time></trkpt><trkpt lat="43.78055075668684" lon="12.329492033505376"><ele>786.0</ele><time>2026-05-01T08:14:25Z</time></trkpt><trkpt lat="43.78042832196544" lon="12.329455009339759"><ele>788.5</ele><time>2026-05-01T08:14:26Z</time></trkpt><trkpt lat="43.78030631026401" lon="12.329420036142983"><ele>791.0</ele><time>2026-05-01T08:14:27Z</time></trkpt><trkpt lat="43.78018816602595" lon="12.32936589111085"><ele>787.5</ele><time>2026-05-01T08:14:28Z</time></trkpt><trkpt lat="43.78007544411498" lon="12.329282216424899"><ele>784.0</ele><time>2026-05-01T08:14:29Z</time></trkpt><trkpt lat="43.77996349030471" lon="12.329189161324242"><ele>780.5</ele><time>2026-05-01T08:14:30Z</time></trkpt><trkpt lat="43.77985199239969" lon="12.329093779654377"><ele>777.0</ele><time>2026-05-01T08:14:31Z</time></trkpt><trkpt lat="43.77975271462504" lon="12.328990626915738"><ele>780.0</ele><time>2026-05-01T08:14:32Z</time></trkpt><trkpt lat="43.77966874437148" lon="12.32886926515808"><ele>783.0</ele><time>2026-05-01T08:14:33Z</time></trkpt><trkpt lat="43.77961635815339" lon="12.328722492345491"><ele>786.0</ele><time>2026-05-01T08:14:34Z</time></trkpt><trkpt lat="43.779602540557065" lon="12.32855839850094"><ele>789.0</ele><time>2026-05-01T08:14:35Z</time></trkpt><trkpt lat="43.779610359060634" lon="12.328368094227574"><ele>789.0</ele><time>2026-05-01T08:14:36Z</time></trkpt><trkpt lat="43.77960937686966" lon="12.328185760216176"><ele>789.0</ele><time>2026-05-01T08:14:37Z</time></trkpt><trkpt lat="43.77961325786603" lon="12.328003656902244"><ele>789.0</ele><time>2026-05-01T08:14:38Z</time></trkpt><trkpt lat="43.77961108008036" lon="12.327822980705166"><ele>789.0</ele><time>2026-05-01T08:14:39Z</time></trkpt><trkpt lat="43.77958576961368" lon="12.327641104155562"><ele>790.75</ele><time>2026-05-01T08:14:40Z</time></trkpt><trkpt lat="43.7795312327319" lon="12.327476654276083"><ele>792.5</ele><time>2026-05-01T08:14:41Z</time></trkpt><trkpt lat="43.779440168616574" lon="12.327340740722134"><ele>794.25</ele><time>2026-05-01T08:14:42Z</time></trkpt><trkpt lat="43.77933908404873" lon="12.327214077997015"><ele>796.0</ele><time>2026-05-01T08:14:43Z</time></trkpt><trkpt lat="43.779262253773" lon="12.327053924800722"><ele>796.0</ele><time>2026-05-01T08:14:44Z</time></trkpt><trkpt lat="43.779203525373084" lon="12.32687602345668"><ele>796.0</ele><time>2026-05-01T08:14:45Z</time></trkpt><trkpt lat="43.77915810611623" lon="12.326709994700622"><ele>796.0</ele><time>2026-05-01T08:14:46Z</time></trkpt><trkpt lat="43.779140904283125" lon="12.326558732147605"><ele>796.0</ele><time>2026-05-01T08:14:47Z</time></trkpt><trkpt lat="43.77916575052234" lon="12.32641973904537"><ele>797.25</ele><time>2026-05-01T08:14:48Z</time></trkpt><trkpt lat="43.779240351062526" lon="12.326301865893404"><ele>798.5</ele><time>2026-05-01T08:14:49Z</time></trkpt><trkpt lat="43.77932555359951" lon="12.32618511787857"><ele>799.75</ele><time>2026-05-01T08:14:50Z</time></trkpt><trkpt lat="43.77941753169178" lon="12.326069829763952"><ele>801.0</ele><time>2026-05-01T08:14:51Z</time></trkpt><trkpt lat="43.77950614392939" lon="12.325954600638507"><ele>803.5</ele><time>2026-05-01T08:14:52Z</time></trkpt><trkpt lat="43.77959482673278" lon="12.325828326196596"><ele>806.0</ele><time>2026-05-01T08:14:53Z</time></trkpt><trkpt lat="43.779684396310664" lon="12.325696923404168"><ele>808.5</ele><time>2026-05-01T08:14:54Z</time></trkpt><trkpt lat="43.779776060349235" lon="12.325560313094272"><ele>811.0</ele><time>2026-05-01T08:14:55Z</time></trkpt><trkpt lat="43.77987104368135" lon="12.325424876570477"><ele>811.75</ele><time>2026-05-01T08:14:56Z</time></trkpt><trkpt lat="43.7799714916583" lon="12.325289596296178"><ele>812.5</ele><time>2026-05-01T08:14:57Z</time></trkpt><trkpt lat="43.7800764550483" lon="12.325151920895683"><ele>813.25</ele><time>2026-05-01T08:14:58Z</time></trkpt><trkpt lat="43.78017942944392" lon="12.325003678770917"><ele>814.0</ele><time>2026-05-01T08:14:59Z</time></trkpt><trkpt lat="43.7802827207904" lon="12.324861912753509"><ele>816.0</ele><time>2026-05-01T08:15:00Z</time></trkpt><trkpt lat="43.780379076747" lon="12.324729394652527"><ele>818.0</ele><time>2026-05-01T08:15:01Z</time></trkpt><trkpt lat="43.78045432042995" lon="12.324617332590893"><ele>820.0</ele><time>2026-05-01T08:15:02Z</time></trkpt><trkpt lat="43.78050437034515" lon="12.32446484599625"><ele>822.0</ele><time>2026-05-01T08:15:03Z</time></trkpt><trkpt lat="43.780534158870076" lon="12.324293378533282"><ele>822.0</ele><time>2026-05-01T08:15:04Z</time></trkpt><trkpt lat="43.780543561070054" lon="12.324103878010861"><ele>822.0</ele><time>2026-05-01T08:15:05Z</time></trkpt><trkpt lat="43.780545747767185" lon="12.323904253933932"><ele>822.0</ele><time>2026-05-01T08:15:06Z</time></trkpt><trkpt lat="43.78054527673696" lon="12.32370581026659"><ele>822.0</ele><time>2026-05-01T08:15:07Z</time></trkpt><trkpt lat="43.78053670904571" lon="12.323500546374014"><ele>823.3333333333333</ele><time>2026-05-01T08:15:08Z</time></trkpt><trkpt lat="43.780514517023775" lon="12.323290903720377"><ele>824.6666666666666</ele><time>2026-05-01T08:15:09Z</time></trkpt><trkpt lat="43.78048281996255" lon="12.323076644718167"><ele>826.0</ele><time>2026-05-01T08:15:10Z</time></trkpt><trkpt lat="43.78044720752857" lon="12.322858979076317"><ele>827.3333333333333</ele><time>2026-05-01T08:15:11Z</time></trkpt><trkpt lat="43.7804098282533" lon="12.322640426037728"><ele>828.6666666666667</ele><time>2026-05-01T08:15:12Z</time></trkpt><trkpt lat="43.78037284479554" lon="12.322419247473855"><ele>830.0</ele><time>2026-05-01T08:15:13Z</time></trkpt><trkpt lat="43.780338751160045" lon="12.322209783009335"><ele>831.4</ele><time>2026-05-01T08:15:14Z</time></trkpt><trkpt lat="43.780308348901826" lon="12.322020374344266"><ele>832.8</ele><time>2026-05-01T08:15:15Z</time></trkpt><trkpt lat="43.780280322899074" lon="12.321857841749457"><ele>834.2</ele><time>2026-05-01T08:15:16Z</time></trkpt><trkpt lat="43.78025725703709" lon="12.32172728791646"><ele>835.6</ele><time>2026-05-01T08:15:17Z</time></trkpt><trkpt lat="43.78023429420133" lon="12.321608298665517"><ele>837.0</ele><time>2026-05-01T08:15:18Z</time></trkpt><trkpt lat="43.780209013227235" lon="12.321469069295677"><ele>836.5</ele><time>2026-05-01T08:15:19Z</time></trkpt><trkpt lat="43.78018169275327" lon="12.321314248691966"><ele>836.0</ele><time>2026-05-01T08:15:20Z</time></trkpt><trkpt lat="43.780159288343825" lon="12.32115579125807"><ele>835.5</ele><time>2026-05-01T08:15:21Z</time></trkpt><trkpt lat="43.78013141892309" lon="12.320998716975138"><ele>835.0</ele><time>2026-05-01T08:15:22Z</time></trkpt><trkpt lat="43.78009234984568" lon="12.320841022619017"><ele>835.0</ele><time>2026-05-01T08:15:23Z</time></trkpt><trkpt lat="43.780045559761646" lon="12.320678396204254"><ele>835.0</ele><time>2026-05-01T08:15:24Z</time></trkpt><trkpt lat="43.77999603005328" lon="12.320510011072862"><ele>835.0</ele><time>2026-05-01T08:15:25Z</time></trkpt><trkpt lat="43.77994669410188" lon="12.320333045485873"><ele>835.0</ele><time>2026-05-01T08:15:26Z</time></trkpt><trkpt lat="43.779901993972004" lon="12.320153508725618"><ele>836.0</ele><time>2026-05-01T08:15:27Z</time></trkpt><trkpt lat="43.77986918474459" lon="12.319981552115994"><ele>837.0</ele><time>2026-05-01T08:15:28Z</time></trkpt><trkpt lat="43.77985787381012" lon="12.319786516760823"><ele>838.0</ele><time>2026-05-01T08:15:29Z</time></trkpt><trkpt lat="43.77986784429529" lon="12.319579186798347"><ele>839.0</ele><time>2026-05-01T08:15:30Z</time></trkpt><trkpt lat="43.779875286118866" lon="12.31936509441238"><ele>839.6666666666667</ele><time>2026-05-01T08:15:31Z</time></trkpt><trkpt lat="43.77987997656555" lon="12.319147562289773"><ele>840.3333333333333</ele><time>2026-05-01T08:15:32Z</time></trkpt><trkpt lat="43.77988732297364" lon="12.31892498640207"><ele>841.0</ele><time>2026-05-01T08:15:33Z</time></trkpt><trkpt lat="43.77989695332909" lon="12.318698787926456"><ele>842.6666666666666</ele><time>2026-05-01T08:15:34Z</time></trkpt><trkpt lat="43.779912453441064" lon="12.318466228184944"><ele>844.3333333333333</ele><time>2026-05-01T08:15:35Z</time></trkpt><trkpt lat="43.7799320693518" lon="12.318241806326721"><ele>846.0</ele><time>2026-05-01T08:15:36Z</time></trkpt><trkpt lat="43.7799490620361" lon="12.318017481728647"><ele>848.0</ele><time>2026-05-01T08:15:37Z</time></trkpt><trkpt lat="43.779957805177624" lon="12.317800066532529"><ele>850.0</ele><time>2026-05-01T08:15:38Z</time></trkpt><trkpt lat="43.77994259793391" lon="12.317582155006065"><ele>852.0</ele><time>2026-05-01T08:15:39Z</time></trkpt><trkpt lat="43.77989322525886" lon="12.31737729493068"><ele>854.6666666666667</ele><time>2026-05-01T08:15:40Z</time></trkpt><trkpt lat="43.77981954205081" lon="12.317188454760672"><ele>857.3333333333334</ele><time>2026-05-01T08:15:41Z</time></trkpt><trkpt lat="43.77972618538613" lon="12.317021547176354"><ele>860.0</ele><time>2026-05-01T08:15:42Z</time></trkpt><trkpt lat="43.77962519223544" lon="12.316856462486127"><ele>860.0</ele><time>2026-05-01T08:15:43Z</time></trkpt><trkpt lat="43.77953053512132" lon="12.316684780664808"><ele>860.0</ele><time>2026-05-01T08:15:44Z</time></trkpt><trkpt lat="43.77944594939569" lon="12.31650178117772"><ele>860.0</ele><time>2026-05-01T08:15:45Z</time></trkpt><trkpt lat="43.77938336604079" lon="12.316305213806563"><ele>862.0</ele><time>2026-05-01T08:15:46Z</time></trkpt><trkpt lat="43.77936328530847" lon="12.316094939428561"><ele>864.0</ele><time>2026-05-01T08:15:47Z</time></trkpt><trkpt lat="43.77937883552611" lon="12.315882098631143"><ele>866.0</ele><time>2026-05-01T08:15:48Z</time></trkpt><trkpt lat="43.77941944785732" lon="12.315683175284645"><ele>866.5</ele><time>2026-05-01T08:15:49Z</time></trkpt><trkpt lat="43.77948728664608" lon="12.315501391494907"><ele>867.0</ele><time>2026-05-01T08:15:50Z</time></trkpt><trkpt lat="43.77958189790168" lon="12.315350437791691"><ele>867.5</ele><time>2026-05-01T08:15:51Z</time></trkpt><trkpt lat="43.77966858127017" lon="12.315192374666495"><ele>868.0</ele><time>2026-05-01T08:15:52Z</time></trkpt><trkpt lat="43.77972727285841" lon="12.315012450461602"><ele>868.0</ele><time>2026-05-01T08:15:53Z</time></trkpt><trkpt lat="43.77976527018164" lon="12.314817902485048"><ele>868.0</ele><time>2026-05-01T08:15:54Z</time></trkpt><trkpt lat="43.77978682279893" lon="12.314616379393952"><ele>868.0</ele><time>2026-05-01T08:15:55Z</time></trkpt><trkpt lat="43.77979165546001" lon="12.31441695366456"><ele>868.0</ele><time>2026-05-01T08:15:56Z</time></trkpt><trkpt lat="43.77978266905648" lon="12.314236390960339"><ele>869.25</ele><time>2026-05-01T08:15:56.999Z</time></trkpt><trkpt lat="43.77973995309723" lon="12.314068002962108"><ele>870.5</ele><time>2026-05-01T08:15:57.999Z</time></trkpt><trkpt lat="43.77965363843392" lon="12.313932157002531"><ele>871.75</ele><time>2026-05-01T08:15:58.999Z</time></trkpt><trkpt lat="43.77954935766287" lon="12.313815441777457"><ele>873.0</ele><time>2026-05-01T08:15:59.999Z</time></trkpt><trkpt lat="43.779422530971885" lon="12.31373150174861"><ele>873.0</ele><time>2026-05-01T08:16:00.999Z</time></trkpt><trkpt lat="43.77929630588003" lon="12.313622899650541"><ele>873.0</ele><time>2026-05-01T08:16:01.999Z</time></trkpt><trkpt lat="43.77916950866491" lon="12.313509531519646"><ele>873.0</ele><time>2026-05-01T08:16:02.999Z</time></trkpt><trkpt lat="43.77903230427906" lon="12.313411062504457"><ele>873.0</ele><time>2026-05-01T08:16:03.999Z</time></trkpt><trkpt lat="43.77888327845444" lon="12.313342064331373"><ele>873.0</ele><time>2026-05-01T08:16:04.999Z</time></trkpt><trkpt lat="43.77872515023301" lon="12.313298054170204"><ele>873.0</ele><time>2026-05-01T08:16:05.999Z</time></trkpt><trkpt lat="43.77856803508872" lon="12.313257391174059"><ele>873.0</ele><time>2026-05-01T08:16:06.999Z</time></trkpt><trkpt lat="43.77841208638823" lon="12.313210084007498"><ele>873.0</ele><time>2026-05-01T08:16:07.999Z</time></trkpt><trkpt lat="43.77827094705083" lon="12.3131493649465"><ele>873.0</ele><time>2026-05-01T08:16:08.999Z</time></trkpt><trkpt lat="43.77814625701769" lon="12.313062992611751"><ele>873.0</ele><time>2026-05-01T08:16:09.999Z</time></trkpt><trkpt lat="43.77804265538463" lon="12.312922850158735"><ele>874.75</ele><time>2026-05-01T08:16:10.999Z</time></trkpt><trkpt lat="43.77797707181634" lon="12.31274452206983"><ele>876.5</ele><time>2026-05-01T08:16:11.999Z</time></trkpt><trkpt lat="43.77795947388044" lon="12.312543466599038"><ele>878.25</ele><time>2026-05-01T08:16:12.999Z</time></trkpt><trkpt lat="43.77796743327742" lon="12.312348707300158"><ele>880.0</ele><time>2026-05-01T08:16:13.999Z</time></trkpt><trkpt lat="43.77797996295136" lon="12.312155028540689"><ele>881.75</ele><time>2026-05-01T08:16:14.999Z</time></trkpt><trkpt lat="43.777992573794734" lon="12.31196610051859"><ele>883.5</ele><time>2026-05-01T08:16:15.999Z</time></trkpt><trkpt lat="43.77802587607809" lon="12.311778614696204"><ele>885.25</ele><time>2026-05-01T08:16:16.999Z</time></trkpt><trkpt lat="43.77806987323523" lon="12.311593656431882"><ele>887.0</ele><time>2026-05-01T08:16:17.999Z</time></trkpt><trkpt lat="43.77811296503658" lon="12.311403784463035"><ele>888.75</ele><time>2026-05-01T08:16:19Z</time></trkpt><trkpt lat="43.77815398361735" lon="12.31121019889082"><ele>890.5</ele><time>2026-05-01T08:16:20Z</time></trkpt><trkpt lat="43.77819525911779" lon="12.311016469169273"><ele>892.25</ele><time>2026-05-01T08:16:21Z</time></trkpt><trkpt lat="43.77824422653215" lon="12.310823475444847"><ele>894.0</ele><time>2026-05-01T08:16:22Z</time></trkpt><trkpt lat="43.77830216254157" lon="12.310631689530567"><ele>895.6666666666667</ele><time>2026-05-01T08:16:23Z</time></trkpt><trkpt lat="43.77837012527555" lon="12.310441909533173"><ele>897.3333333333334</ele><time>2026-05-01T08:16:24Z</time></trkpt><trkpt lat="43.778455079448726" lon="12.310265022092453"><ele>899.0</ele><time>2026-05-01T08:16:25Z</time></trkpt><trkpt lat="43.77854084344452" lon="12.310091043192424"><ele>900.6666666666667</ele><time>2026-05-01T08:16:26Z</time></trkpt><trkpt lat="43.77862005316535" lon="12.309912062547976"><ele>902.3333333333333</ele><time>2026-05-01T08:16:27Z</time></trkpt><trkpt lat="43.77870180829301" lon="12.309735523974949"><ele>904.0</ele><time>2026-05-01T08:16:28Z</time></trkpt><trkpt lat="43.778802446203144" lon="12.309579136904336"><ele>905.0</ele><time>2026-05-01T08:16:29Z</time></trkpt><trkpt lat="43.77892575876848" lon="12.309457063860657"><ele>906.0</ele><time>2026-05-01T08:16:30Z</time></trkpt><trkpt lat="43.779063809340386" lon="12.309357267524247"><ele>907.0</ele><time>2026-05-01T08:16:31Z</time></trkpt><trkpt lat="43.779209766258234" lon="12.309271740358636"><ele>909.0</ele><time>2026-05-01T08:16:32Z</time></trkpt><trkpt lat="43.77935341895576" lon="12.309180688409626"><ele>911.0</ele><time>2026-05-01T08:16:33Z</time></trkpt><trkpt lat="43.77949678733959" lon="12.309084578416092"><ele>913.0</ele><time>2026-05-01T08:16:34Z</time></trkpt><trkpt lat="43.77963661643381" lon="12.308990010878484"><ele>913.75</ele><time>2026-05-01T08:16:35Z</time></trkpt><trkpt lat="43.77977467849684" lon="12.308895617229586"><ele>914.5</ele><time>2026-05-01T08:16:36Z</time></trkpt><trkpt lat="43.77990171630418" lon="12.308796562381552"><ele>915.25</ele><time>2026-05-01T08:16:37Z</time></trkpt><trkpt lat="43.78000731104311" lon="12.308671970750112"><ele>916.0</ele><time>2026-05-01T08:16:38Z</time></trkpt><trkpt lat="43.78008786029942" lon="12.308526148498718"><ele>916.0</ele><time>2026-05-01T08:16:39Z</time></trkpt><trkpt lat="43.78014381795164" lon="12.308360917509914"><ele>916.0</ele><time>2026-05-01T08:16:40Z</time></trkpt><trkpt lat="43.78019152495643" lon="12.308192848823083"><ele>916.0</ele><time>2026-05-01T08:16:41Z</time></trkpt><trkpt lat="43.78022454827454" lon="12.308011826738161"><ele>916.0</ele><time>2026-05-01T08:16:42Z</time></trkpt><trkpt lat="43.78025313614512" lon="12.307824896826906"><ele>918.75</ele><time>2026-05-01T08:16:43Z</time></trkpt><trkpt lat="43.78028533749695" lon="12.307643064982566"><ele>921.5</ele><time>2026-05-01T08:16:44Z</time></trkpt><trkpt lat="43.78031928804721" lon="12.307457725793242"><ele>924.25</ele><time>2026-05-01T08:16:45Z</time></trkpt><trkpt lat="43.780351783655746" lon="12.307272686172707"><ele>927.0</ele><time>2026-05-01T08:16:46Z</time></trkpt><trkpt lat="43.7803835627244" lon="12.307082931703789"><ele>928.5</ele><time>2026-05-01T08:16:47Z</time></trkpt><trkpt lat="43.78041633557065" lon="12.306890777123488"><ele>930.0</ele><time>2026-05-01T08:16:48Z</time></trkpt><trkpt lat="43.78044953975774" lon="12.30670112420783"><ele>931.5</ele><time>2026-05-01T08:16:49Z</time></trkpt><trkpt lat="43.7804835724506" lon="12.306514989944013"><ele>933.0</ele><time>2026-05-01T08:16:50Z</time></trkpt><trkpt lat="43.78051677590133" lon="12.306329914750803"><ele>933.75</ele><time>2026-05-01T08:16:51Z</time></trkpt><trkpt lat="43.7805500912087" lon="12.306148664426084"><ele>934.5</ele><time>2026-05-01T08:16:52Z</time></trkpt><trkpt lat="43.78058303097405" lon="12.305972553565491"><ele>935.25</ele><time>2026-05-01T08:16:53Z</time></trkpt><trkpt lat="43.780613385953096" lon="12.305801672810805"><ele>936.0</ele><time>2026-05-01T08:16:54Z</time></trkpt><trkpt lat="43.78064238587884" lon="12.305632835267224"><ele>937.25</ele><time>2026-05-01T08:16:55Z</time></trkpt><trkpt lat="43.78067323463105" lon="12.305469190430058"><ele>938.5</ele><time>2026-05-01T08:16:56Z</time></trkpt><trkpt lat="43.78070041959913" lon="12.305309665655297"><ele>939.75</ele><time>2026-05-01T08:16:57Z</time></trkpt><trkpt lat="43.78072786733879" lon="12.305148221243087"><ele>941.0</ele><time>2026-05-01T08:16:58Z</time></trkpt><trkpt lat="43.78075838328905" lon="12.304992528942897"><ele>941.0</ele><time>2026-05-01T08:16:59Z</time></trkpt><trkpt lat="43.780787761548474" lon="12.304837663418164"><ele>941.0</ele><time>2026-05-01T08:17:00Z</time></trkpt><trkpt lat="43.7808092115017" lon="12.304681461278783"><ele>941.0</ele><time>2026-05-01T08:17:01Z</time></trkpt><trkpt lat="43.78081674662186" lon="12.304521352640167"><ele>941.0</ele><time>2026-05-01T08:17:02Z</time></trkpt><trkpt lat="43.7808103949743" lon="12.304360160878128"><ele>941.75</ele><time>2026-05-01T08:17:03Z</time></trkpt><trkpt lat="43.78078826957499" lon="12.304202403542321"><ele>942.5</ele><time>2026-05-01T08:17:04Z</time></trkpt><trkpt lat="43.78074186197512" lon="12.304045685413504"><ele>943.25</ele><time>2026-05-01T08:17:05Z</time></trkpt><trkpt lat="43.78068177127897" lon="12.303889195531491"><ele>944.0</ele><time>2026-05-01T08:17:06Z</time></trkpt><trkpt lat="43.780630732610895" lon="12.303722328445584"><ele>945.75</ele><time>2026-05-01T08:17:07Z</time></trkpt><trkpt lat="43.78059424181858" lon="12.303568922570465"><ele>947.5</ele><time>2026-05-01T08:17:08Z</time></trkpt><trkpt lat="43.78055511051833" lon="12.303410891729593"><ele>949.25</ele><time>2026-05-01T08:17:09Z</time></trkpt><trkpt lat="43.78051614654138" lon="12.303249345696624"><ele>951.0</ele><time>2026-05-01T08:17:10Z</time></trkpt><trkpt lat="43.78047798919583" lon="12.303085377439338"><ele>952.25</ele><time>2026-05-01T08:17:11Z</time></trkpt><trkpt lat="43.78044887474437" lon="12.302910556291703"><ele>953.5</ele><time>2026-05-01T08:17:12Z</time></trkpt><trkpt lat="43.78044203609306" lon="12.30273754534655"><ele>954.75</ele><time>2026-05-01T08:17:13Z</time></trkpt><trkpt lat="43.78046888054496" lon="12.302567431139149"><ele>956.0</ele><time>2026-05-01T08:17:14Z</time></trkpt><trkpt lat="43.78051310368571" lon="12.302408770103392"><ele>956.0</ele><time>2026-05-01T08:17:15Z</time></trkpt><trkpt lat="43.78058005818553" lon="12.302279177323314"><ele>955.9999999999999</ele><time>2026-05-01T08:17:16Z</time></trkpt><trkpt lat="43.78066183405087" lon="12.302199073492853"><ele>955.9999999999999</ele><time>2026-05-01T08:17:17Z</time></trkpt><trkpt lat="43.78074994157378" lon="12.302157373948296"><ele>956.0</ele><time>2026-05-01T08:17:18Z</time></trkpt><trkpt lat="43.78083344538301" lon="12.30214388840276"><ele>956.0</ele><time>2026-05-01T08:17:19Z</time></trkpt><trkpt lat="43.78092143396052" lon="12.302160422571328"><ele>955.8</ele><time>2026-05-01T08:17:20Z</time></trkpt><trkpt lat="43.78101466913355" lon="12.30220942432811"><ele>955.5999999999999</ele><time>2026-05-01T08:17:21Z</time></trkpt><trkpt lat="43.781103168405984" lon="12.30228558647873"><ele>955.4</ele><time>2026-05-01T08:17:22Z</time></trkpt><trkpt lat="43.78119262536832" lon="12.302366397383464"><ele>955.2</ele><time>2026-05-01T08:17:23Z</time></trkpt><trkpt lat="43.781286265553" lon="12.302428764616181"><ele>955.0</ele><time>2026-05-01T08:17:24Z</time></trkpt><trkpt lat="43.78139026396276" lon="12.302459995874434"><ele>957.0</ele><time>2026-05-01T08:17:25Z</time></trkpt><trkpt lat="43.78150124264781" lon="12.302433329646098"><ele>959.0</ele><time>2026-05-01T08:17:26Z</time></trkpt><trkpt lat="43.781608072966364" lon="12.302357349909043"><ele>961.0</ele><time>2026-05-01T08:17:27Z</time></trkpt><trkpt lat="43.78170272328533" lon="12.302249410680613"><ele>963.0</ele><time>2026-05-01T08:17:28Z</time></trkpt><trkpt lat="43.78181415007571" lon="12.30215050806097"><ele>964.75</ele><time>2026-05-01T08:17:29Z</time></trkpt><trkpt lat="43.78192537909962" lon="12.302048930832665"><ele>966.5</ele><time>2026-05-01T08:17:30Z</time></trkpt><trkpt lat="43.782034340319576" lon="12.301943152330024"><ele>968.25</ele><time>2026-05-01T08:17:31Z</time></trkpt><trkpt lat="43.78214313651282" lon="12.301841141693243"><ele>970.0</ele><time>2026-05-01T08:17:32Z</time></trkpt><trkpt lat="43.78225430246072" lon="12.301765235506203"><ele>970.0</ele><time>2026-05-01T08:17:33Z</time></trkpt><trkpt lat="43.782361574807574" lon="12.301737241651608"><ele>970.0</ele><time>2026-05-01T08:17:34Z</time></trkpt><trkpt lat="43.782471039113624" lon="12.301744546907592"><ele>970.0</ele><time>2026-05-01T08:17:35Z</time></trkpt><trkpt lat="43.782577296204394" lon="12.30178713630201"><ele>970.0</ele><time>2026-05-01T08:17:36Z</time></trkpt><trkpt lat="43.78267520740831" lon="12.301848378227474"><ele>970.0</ele><time>2026-05-01T08:17:37Z</time></trkpt><trkpt lat="43.78277761030066" lon="12.30192352996423"><ele>972.0</ele><time>2026-05-01T08:17:38Z</time></trkpt><trkpt lat="43.78287980042113" lon="12.302002026711577"><ele>974.0</ele><time>2026-05-01T08:17:39Z</time></trkpt><trkpt lat="43.782983533780104" lon="12.302095765669648"><ele>976.0</ele><time>2026-05-01T08:17:40Z</time></trkpt><trkpt lat="43.78308925258137" lon="12.302191371260633"><ele>978.0</ele><time>2026-05-01T08:17:41Z</time></trkpt><trkpt lat="43.7832004679558" lon="12.30228854763404"><ele>978.0</ele><time>2026-05-01T08:17:42Z</time></trkpt><trkpt lat="43.78331649246412" lon="12.30238710316183"><ele>978.0</ele><time>2026-05-01T08:17:43Z</time></trkpt><trkpt lat="43.783431134502294" lon="12.302483126217307"><ele>978.0</ele><time>2026-05-01T08:17:44Z</time></trkpt><trkpt lat="43.78355016894372" lon="12.302576305048806"><ele>978.0</ele><time>2026-05-01T08:17:45Z</time></trkpt><trkpt lat="43.783666862158135" lon="12.302666063532804"><ele>979.4</ele><time>2026-05-01T08:17:46Z</time></trkpt><trkpt lat="43.783778163401905" lon="12.302743350497822"><ele>980.8</ele><time>2026-05-01T08:17:47Z</time></trkpt><trkpt lat="43.78388046229113" lon="12.302799737202587"><ele>982.2</ele><time>2026-05-01T08:17:48Z</time></trkpt><trkpt lat="43.783986185147995" lon="12.302829769911392"><ele>983.6</ele><time>2026-05-01T08:17:49Z</time></trkpt><trkpt lat="43.78408762084599" lon="12.30281041649109"><ele>985.0</ele><time>2026-05-01T08:17:50Z</time></trkpt><trkpt lat="43.78418316538287" lon="12.302736760003551"><ele>985.0</ele><time>2026-05-01T08:17:51Z</time></trkpt><trkpt lat="43.78427324662674" lon="12.30264058006759"><ele>985.0</ele><time>2026-05-01T08:17:52Z</time></trkpt><trkpt lat="43.78437690667116" lon="12.302543746247638"><ele>985.0</ele><time>2026-05-01T08:17:53Z</time></trkpt><trkpt lat="43.78448536340568" lon="12.30244546138404"><ele>985.0</ele><time>2026-05-01T08:17:54Z</time></trkpt><trkpt lat="43.78460121694951" lon="12.302343520971183"><ele>987.25</ele><time>2026-05-01T08:17:55Z</time></trkpt><trkpt lat="43.78471854694783" lon="12.302246167332497"><ele>989.5</ele><time>2026-05-01T08:17:56Z</time></trkpt><trkpt lat="43.784836493932374" lon="12.302158369731163"><ele>991.75</ele><time>2026-05-01T08:17:57Z</time></trkpt><trkpt lat="43.78494566156925" lon="12.302076443891293"><ele>994.0</ele><time>2026-05-01T08:17:58Z</time></trkpt><trkpt lat="43.78503897513346" lon="12.302004638914461"><ele>994.0</ele><time>2026-05-01T08:17:58.999Z</time></trkpt><trkpt lat="43.78511657314327" lon="12.301921608087904"><ele>994.0000000000001</ele><time>2026-05-01T08:17:59.999Z</time></trkpt><trkpt lat="43.78518962556839" lon="12.301848050269456"><ele>994.0000000000001</ele><time>2026-05-01T08:18:00.999Z</time></trkpt><trkpt lat="43.78525952661291" lon="12.301753063642616"><ele>994.0</ele><time>2026-05-01T08:18:01.999Z</time></trkpt><trkpt lat="43.785318940290274" lon="12.301646528313146"><ele>994.0</ele><time>2026-05-01T08:18:02.999Z</time></trkpt><trkpt lat="43.78536039965428" lon="12.301526551603073"><ele>997.0</ele><time>2026-05-01T08:18:03.999Z</time></trkpt><trkpt lat="43.78538822895138" lon="12.301395353417782"><ele>1000.0000000000001</ele><time>2026-05-01T08:18:04.999Z</time></trkpt><trkpt lat="43.785412290483784" lon="12.301263130140464"><ele>1003.0000000000001</ele><time>2026-05-01T08:18:05.999Z</time></trkpt><trkpt lat="43.78543735317161" lon="12.3011302473097"><ele>1006.0</ele><time>2026-05-01T08:18:06.999Z</time></trkpt><trkpt lat="43.78544573234192" lon="12.300984854258768"><ele>1009.0</ele><time>2026-05-01T08:18:07.999Z</time></trkpt><trkpt lat="43.78542908194735" lon="12.300836395315342"><ele>1009.0</ele><time>2026-05-01T08:18:08.999Z</time></trkpt><trkpt lat="43.78539506330183" lon="12.300683440176"><ele>1009.0</ele><time>2026-05-01T08:18:09.999Z</time></trkpt><trkpt lat="43.78536394039588" lon="12.30053601725861"><ele>1009.0</ele><time>2026-05-01T08:18:10.999Z</time></trkpt><trkpt lat="43.78534452976394" lon="12.300376320372568"><ele>1009.0</ele><time>2026-05-01T08:18:11.999Z</time></trkpt><trkpt lat="43.785337777545564" lon="12.300222892862976"><ele>1009.6</ele><time>2026-05-01T08:18:12.999Z</time></trkpt><trkpt lat="43.785339666454384" lon="12.300071253461606"><ele>1010.2</ele><time>2026-05-01T08:18:13.999Z</time></trkpt><trkpt lat="43.78535386013322" lon="12.299932622421961"><ele>1010.8000000000001</ele><time>2026-05-01T08:18:14.999Z</time></trkpt><trkpt lat="43.7853777523454" lon="12.299802036408945"><ele>1011.4000000000001</ele><time>2026-05-01T08:18:15.999Z</time></trkpt><trkpt lat="43.78540272965594" lon="12.299675295465175"><ele>1012.0</ele><time>2026-05-01T08:18:16.999Z</time></trkpt><trkpt lat="43.78542317604779" lon="12.299548693901526"><ele>1011.9999999999999</ele><time>2026-05-01T08:18:17.999Z</time></trkpt><trkpt lat="43.78544809312445" lon="12.299426922740901"><ele>1012.0</ele><time>2026-05-01T08:18:18.999Z</time></trkpt><trkpt lat="43.78547730200711" lon="12.299320489409729"><ele>1012.0</ele><time>2026-05-01T08:18:19.999Z</time></trkpt><trkpt lat="43.78550795640012" lon="12.299232212561073"><ele>1012.0</ele><time>2026-05-01T08:18:20.999Z</time></trkpt><trkpt lat="43.78557518319748" lon="12.299111044681705"><ele>1011.9999999999999</ele><time>2026-05-01T08:18:22.999Z</time></trkpt><trkpt lat="43.785612244953306" lon="12.299021749403629"><ele>1012.0</ele><time>2026-05-01T08:18:25Z</time></trkpt><trkpt lat="43.785668203456105" lon="12.298932739051494"><ele>1011.3333333333333</ele><time>2026-05-01T08:18:28Z</time></trkpt><trkpt lat="43.78572562983079" lon="12.298850858684732"><ele>1010.6666666666666</ele><time>2026-05-01T08:18:31Z</time></trkpt><trkpt lat="43.785769048860956" lon="12.298753580755214"><ele>1010.0</ele><time>2026-05-01T08:18:34Z</time></trkpt><trkpt lat="43.78580299937515" lon="12.298669093064921"><ele>1009.3333333333333</ele><time>2026-05-01T08:18:37Z</time></trkpt><trkpt lat="43.785831214603675" lon="12.298655645511923"><ele>1008.6666666666666</ele><time>2026-05-01T08:26:40.999Z</time></trkpt><trkpt lat="43.78588025562427" lon="12.298559541293315"><ele>1008.0</ele><time>2026-05-01T08:26:42.999Z</time></trkpt><trkpt lat="43.785955216004794" lon="12.298405640502404"><ele>1008.0</ele><time>2026-05-01T08:26:44.999Z</time></trkpt><trkpt lat="43.78599672965939" lon="12.298332343793302"><ele>1008.0</ele><time>2026-05-01T08:26:45.999Z</time></trkpt><trkpt lat="43.78604175189858" lon="12.298256818772003"><ele>1008.0</ele><time>2026-05-01T08:26:46.999Z</time></trkpt><trkpt lat="43.78609168230579" lon="12.298170810151188"><ele>1008.0</ele><time>2026-05-01T08:26:47.999Z</time></trkpt><trkpt lat="43.78615173191307" lon="12.298083154422839"><ele>1008.0</ele><time>2026-05-01T08:26:49.001Z</time></trkpt><trkpt lat="43.78622265467782" lon="12.29799200351183"><ele>1008.0</ele><time>2026-05-01T08:26:50.001Z</time></trkpt><trkpt lat="43.78630575480441" lon="12.297913372928685"><ele>1007.0</ele><time>2026-05-01T08:26:51.001Z</time></trkpt><trkpt lat="43.78640656582195" lon="12.29784516384988"><ele>1006.0</ele><time>2026-05-01T08:26:52.001Z</time></trkpt><trkpt lat="43.786505713854645" lon="12.297755595179577"><ele>1005.0</ele><time>2026-05-01T08:26:53.001Z</time></trkpt><trkpt lat="43.78660188734773" lon="12.297674850350472"><ele>1004.0</ele><time>2026-05-01T08:26:54.001Z</time></trkpt><trkpt lat="43.78669939453779" lon="12.2975752775533"><ele>1004.0</ele><time>2026-05-01T08:26:55.001Z</time></trkpt><trkpt lat="43.786801894085016" lon="12.297472132352592"><ele>1004.0</ele><time>2026-05-01T08:26:56.001Z</time></trkpt><trkpt lat="43.78689963156021" lon="12.29735866952102"><ele>1004.0</ele><time>2026-05-01T08:26:57.001Z</time></trkpt><trkpt lat="43.78699981816467" lon="12.297235910152436"><ele>1004.0</ele><time>2026-05-01T08:26:58.001Z</time></trkpt><trkpt lat="43.78709851661332" lon="12.297106396988184"><ele>1004.0</ele><time>2026-05-01T08:26:59.001Z</time></trkpt><trkpt lat="43.78719320266965" lon="12.296956291169856"><ele>1004.0</ele><time>2026-05-01T08:27:00.001Z</time></trkpt><trkpt lat="43.78729212626046" lon="12.296818633351874"><ele>1004.0</ele><time>2026-05-01T08:27:01.001Z</time></trkpt><trkpt lat="43.78739236488296" lon="12.29667886344742"><ele>1004.0</ele><time>2026-05-01T08:27:02.001Z</time></trkpt><trkpt lat="43.78748872268967" lon="12.296535109200258"><ele>1002.5</ele><time>2026-05-01T08:27:03.001Z</time></trkpt><trkpt lat="43.7875830331733" lon="12.296397453733283"><ele>1001.0</ele><time>2026-05-01T08:27:04.001Z</time></trkpt><trkpt lat="43.787671067460806" lon="12.296270770318758"><ele>999.5</ele><time>2026-05-01T08:27:05.001Z</time></trkpt><trkpt lat="43.78775142364256" lon="12.296162120197645"><ele>998.0</ele><time>2026-05-01T08:27:06.001Z</time></trkpt><trkpt lat="43.78783447602501" lon="12.29607531186335"><ele>998.0</ele><time>2026-05-01T08:27:07.001Z</time></trkpt><trkpt lat="43.78792573719201" lon="12.296048026169084"><ele>998.0</ele><time>2026-05-01T08:27:08Z</time></trkpt><trkpt lat="43.788015602125576" lon="12.296070599916467"><ele>998.0</ele><time>2026-05-01T08:27:09Z</time></trkpt><trkpt lat="43.788106314663075" lon="12.296114800692399"><ele>998.0</ele><time>2026-05-01T08:27:10Z</time></trkpt><trkpt lat="43.78819997598042" lon="12.296155833031866"><ele>998.0</ele><time>2026-05-01T08:27:11Z</time></trkpt><trkpt lat="43.7882980058606" lon="12.29617207231454"><ele>998.0</ele><time>2026-05-01T08:27:12Z</time></trkpt><trkpt lat="43.78838207151934" lon="12.296136518026158"><ele>998.0</ele><time>2026-05-01T08:27:13Z</time></trkpt><trkpt lat="43.788443398806805" lon="12.296053662605354"><ele>998.0</ele><time>2026-05-01T08:27:14Z</time></trkpt><trkpt lat="43.78847207970109" lon="12.295925987105718"><ele>998.0</ele><time>2026-05-01T08:27:15Z</time></trkpt><trkpt lat="43.788479751892616" lon="12.29578848168502"><ele>998.0</ele><time>2026-05-01T08:27:16Z</time></trkpt><trkpt lat="43.788469015715386" lon="12.295642159470063"><ele>996.5999999999999</ele><time>2026-05-01T08:27:17Z</time></trkpt><trkpt lat="43.788452857090796" lon="12.29549290966211"><ele>995.1999999999999</ele><time>2026-05-01T08:27:18Z</time></trkpt><trkpt lat="43.78845226799091" lon="12.295340543505537"><ele>993.8</ele><time>2026-05-01T08:27:19Z</time></trkpt><trkpt lat="43.78847692844686" lon="12.295192231558616"><ele>992.4</ele><time>2026-05-01T08:27:20Z</time></trkpt><trkpt lat="43.78853934239007" lon="12.295066812255174"><ele>991.0</ele><time>2026-05-01T08:27:21Z</time></trkpt><trkpt lat="43.788628819783355" lon="12.294978490718515"><ele>989.5999999999999</ele><time>2026-05-01T08:27:22Z</time></trkpt><trkpt lat="43.78871774822006" lon="12.29496408143903"><ele>988.1999999999999</ele><time>2026-05-01T08:27:23Z</time></trkpt><trkpt lat="43.788802225498806" lon="12.295025325664446"><ele>986.8000000000001</ele><time>2026-05-01T08:27:24Z</time></trkpt><trkpt lat="43.78884721188548" lon="12.295144528761648"><ele>985.4000000000001</ele><time>2026-05-01T08:27:25Z</time></trkpt><trkpt lat="43.78887029970222" lon="12.295280904425745"><ele>984.0</ele><time>2026-05-01T08:27:26Z</time></trkpt><trkpt lat="43.7889037609707" lon="12.29543828246791"><ele>985.0</ele><time>2026-05-01T08:27:27Z</time></trkpt><trkpt lat="43.78893689216784" lon="12.295595009661612"><ele>986.0</ele><time>2026-05-01T08:27:28Z</time></trkpt><trkpt lat="43.78896719476597" lon="12.29576223359902"><ele>987.0</ele><time>2026-05-01T08:27:29Z</time></trkpt><trkpt lat="43.78899190364945" lon="12.295933399899031"><ele>988.0</ele><time>2026-05-01T08:27:30Z</time></trkpt><trkpt lat="43.789014011655745" lon="12.296095352383146"><ele>988.0</ele><time>2026-05-01T08:27:31Z</time></trkpt><trkpt lat="43.78905928874106" lon="12.296247710375008"><ele>988.0</ele><time>2026-05-01T08:27:32Z</time></trkpt><trkpt lat="43.78913200985265" lon="12.296375602205892"><ele>988.0</ele><time>2026-05-01T08:27:33Z</time></trkpt><trkpt lat="43.789226692975596" lon="12.296471159634544"><ele>988.0</ele><time>2026-05-01T08:27:34Z</time></trkpt><trkpt lat="43.78933220276734" lon="12.296519650428728"><ele>987.0</ele><time>2026-05-01T08:27:35Z</time></trkpt><trkpt lat="43.78944669197228" lon="12.296526407188193"><ele>986.0</ele><time>2026-05-01T08:27:36Z</time></trkpt><trkpt lat="43.78955671156653" lon="12.296496110658586"><ele>985.0</ele><time>2026-05-01T08:27:37Z</time></trkpt><trkpt lat="43.78966831891586" lon="12.296479846582676"><ele>984.0</ele><time>2026-05-01T08:27:38Z</time></trkpt><trkpt lat="43.78979390050902" lon="12.29650489913934"><ele>984.0</ele><time>2026-05-01T08:27:39Z</time></trkpt><trkpt lat="43.789918124313196" lon="12.296563840598607"><ele>984.0</ele><time>2026-05-01T08:27:40Z</time></trkpt><trkpt lat="43.790045443494265" lon="12.296637123508589"><ele>984.0</ele><time>2026-05-01T08:27:41Z</time></trkpt><trkpt lat="43.79017458053939" lon="12.296720235460969"><ele>984.0</ele><time>2026-05-01T08:27:42Z</time></trkpt><trkpt lat="43.79030601974207" lon="12.296796507101114"><ele>981.25</ele><time>2026-05-01T08:27:43Z</time></trkpt><trkpt lat="43.79043705205262" lon="12.29686447740304"><ele>978.5</ele><time>2026-05-01T08:27:44Z</time></trkpt><trkpt lat="43.79057771164725" lon="12.296923303039069"><ele>975.75</ele><time>2026-05-01T08:27:45Z</time></trkpt><trkpt lat="43.79072428484831" lon="12.29696638256155"><ele>973.0</ele><time>2026-05-01T08:27:46Z</time></trkpt><trkpt lat="43.790878244202574" lon="12.296998182073448"><ele>970.75</ele><time>2026-05-01T08:27:47Z</time></trkpt><trkpt lat="43.791032831044795" lon="12.297029393696457"><ele>968.5</ele><time>2026-05-01T08:27:48Z</time></trkpt><trkpt lat="43.79117668192621" lon="12.297062352085494"><ele>966.25</ele><time>2026-05-01T08:27:49Z</time></trkpt><trkpt lat="43.791310157594374" lon="12.29710075436099"><ele>964.0</ele><time>2026-05-01T08:27:50Z</time></trkpt><trkpt lat="43.79143544245019" lon="12.297165496239487"><ele>965.25</ele><time>2026-05-01T08:27:51Z</time></trkpt><trkpt lat="43.79155272082916" lon="12.297271457088529"><ele>966.5</ele><time>2026-05-01T08:27:52Z</time></trkpt><trkpt lat="43.791660154020626" lon="12.297404372119221"><ele>967.75</ele><time>2026-05-01T08:27:53Z</time></trkpt><trkpt lat="43.7917508465255" lon="12.297544629339182"><ele>969.0</ele><time>2026-05-01T08:27:54Z</time></trkpt><trkpt lat="43.7918418665817" lon="12.297675160117384"><ele>969.0</ele><time>2026-05-01T08:27:55Z</time></trkpt><trkpt lat="43.79194733574553" lon="12.297776925532494"><ele>969.0</ele><time>2026-05-01T08:27:56Z</time></trkpt><trkpt lat="43.79206934153648" lon="12.297834041905354"><ele>969.0</ele><time>2026-05-01T08:27:57Z</time></trkpt><trkpt lat="43.79220585834287" lon="12.297848296592527"><ele>969.0</ele><time>2026-05-01T08:27:58Z</time></trkpt><trkpt lat="43.79234929701836" lon="12.297846523467655"><ele>969.0</ele><time>2026-05-01T08:27:59Z</time></trkpt><trkpt lat="43.79249734045194" lon="12.297839282517417"><ele>969.0</ele><time>2026-05-01T08:28:00Z</time></trkpt><trkpt lat="43.792645514729145" lon="12.297812864766685"><ele>969.0</ele><time>2026-05-01T08:28:01Z</time></trkpt><trkpt lat="43.792792588906714" lon="12.297754812476152"><ele>970.5</ele><time>2026-05-01T08:28:02Z</time></trkpt><trkpt lat="43.79292980659724" lon="12.297668594610649"><ele>972.0</ele><time>2026-05-01T08:28:03Z</time></trkpt><trkpt lat="43.79304946651803" lon="12.297561451842645"><ele>973.5</ele><time>2026-05-01T08:28:04Z</time></trkpt><trkpt lat="43.793156654056226" lon="12.297434444012477"><ele>975.0</ele><time>2026-05-01T08:28:04.999Z</time></trkpt><trkpt lat="43.79323969315929" lon="12.297279328225118"><ele>971.5</ele><time>2026-05-01T08:28:05.999Z</time></trkpt><trkpt lat="43.79328008667882" lon="12.297091237335888"><ele>968.0</ele><time>2026-05-01T08:28:06.999Z</time></trkpt><trkpt lat="43.793299686392075" lon="12.296898672884074"><ele>964.5</ele><time>2026-05-01T08:28:07.999Z</time></trkpt><trkpt lat="43.79332411522433" lon="12.296711809272734"><ele>961.0</ele><time>2026-05-01T08:28:08.999Z</time></trkpt><trkpt lat="43.79336859525976" lon="12.29652162367578"><ele>960.0</ele><time>2026-05-01T08:28:09.999Z</time></trkpt><trkpt lat="43.79344025176863" lon="12.296339707907538"><ele>959.0</ele><time>2026-05-01T08:28:10.999Z</time></trkpt><trkpt lat="43.79353147175199" lon="12.296170132541326"><ele>958.0</ele><time>2026-05-01T08:28:11.999Z</time></trkpt><trkpt lat="43.7936334997828" lon="12.296006235102665"><ele>958.0</ele><time>2026-05-01T08:28:12.999Z</time></trkpt><trkpt lat="43.79374163801745" lon="12.295851906336484"><ele>958.0</ele><time>2026-05-01T08:28:13.999Z</time></trkpt><trkpt lat="43.79384039542642" lon="12.29570463279661"><ele>958.0</ele><time>2026-05-01T08:28:14.999Z</time></trkpt><trkpt lat="43.793936867139756" lon="12.295572601991697"><ele>958.0</ele><time>2026-05-01T08:28:15.999Z</time></trkpt><trkpt lat="43.79404879478127" lon="12.295482015133093"><ele>954.75</ele><time>2026-05-01T08:28:16.999Z</time></trkpt><trkpt lat="43.79417669094822" lon="12.295442298398527"><ele>951.5</ele><time>2026-05-01T08:28:17.999Z</time></trkpt><trkpt lat="43.79430687887584" lon="12.295448017155838"><ele>948.25</ele><time>2026-05-01T08:28:18.999Z</time></trkpt><trkpt lat="43.79443164827749" lon="12.295478171020171"><ele>945.0</ele><time>2026-05-01T08:28:19.999Z</time></trkpt><trkpt lat="43.79455454986274" lon="12.295507978374015"><ele>942.75</ele><time>2026-05-01T08:28:20.999Z</time></trkpt><trkpt lat="43.79467770461081" lon="12.295499739831836"><ele>940.5</ele><time>2026-05-01T08:28:21.999Z</time></trkpt><trkpt lat="43.79479692515261" lon="12.295438044253887"><ele>938.25</ele><time>2026-05-01T08:28:22.999Z</time></trkpt><trkpt lat="43.794907249873326" lon="12.29533453051157"><ele>936.0</ele><time>2026-05-01T08:28:23.999Z</time></trkpt><trkpt lat="43.79501953967607" lon="12.295214909838982"><ele>936.0</ele><time>2026-05-01T08:28:24.999Z</time></trkpt><trkpt lat="43.795131198931045" lon="12.2951008998134"><ele>935.9999999999999</ele><time>2026-05-01T08:28:25.999Z</time></trkpt><trkpt lat="43.795236415814884" lon="12.295022540438998"><ele>935.9999999999999</ele><time>2026-05-01T08:28:26.999Z</time></trkpt><trkpt lat="43.79532553969985" lon="12.294973452153407"><ele>936.0</ele><time>2026-05-01T08:28:27.999Z</time></trkpt><trkpt lat="43.795408738699514" lon="12.29496136077531"><ele>936.0</ele><time>2026-05-01T08:28:28.999Z</time></trkpt><trkpt lat="43.79548541601894" lon="12.295003425554961"><ele>934.5999999999999</ele><time>2026-05-01T08:28:29.999Z</time></trkpt><trkpt lat="43.79556842309288" lon="12.295087741001831"><ele>933.1999999999999</ele><time>2026-05-01T08:28:30.999Z</time></trkpt><trkpt lat="43.79566581019041" lon="12.295150391031823"><ele>931.8000000000001</ele><time>2026-05-01T08:28:31.999Z</time></trkpt><trkpt lat="43.795773450270026" lon="12.295187772106"><ele>930.4000000000001</ele><time>2026-05-01T08:28:32.999Z</time></trkpt><trkpt lat="43.79588451215965" lon="12.29521044012266"><ele>929.0</ele><time>2026-05-01T08:28:33.999Z</time></trkpt><trkpt lat="43.79599054702092" lon="12.295243146654634"><ele>928.0</ele><time>2026-05-01T08:28:34.999Z</time></trkpt><trkpt lat="43.79607296987012" lon="12.295308241519951"><ele>927.0000000000001</ele><time>2026-05-01T08:28:35.999Z</time></trkpt><trkpt lat="43.79612299275576" lon="12.29542869107651"><ele>926.0000000000001</ele><time>2026-05-01T08:28:36.999Z</time></trkpt><trkpt lat="43.796146844727886" lon="12.295570733570113"><ele>925.0</ele><time>2026-05-01T08:28:37.999Z</time></trkpt><trkpt lat="43.796165860037064" lon="12.295719330943543"><ele>924.0</ele><time>2026-05-01T08:28:38.999Z</time></trkpt><trkpt lat="43.79621518396609" lon="12.295852036917678"><ele>924.0</ele><time>2026-05-01T08:28:39.999Z</time></trkpt><trkpt lat="43.7962909901664" lon="12.295979394976005"><ele>924.0</ele><time>2026-05-01T08:28:40.999Z</time></trkpt><trkpt lat="43.79637578649169" lon="12.296102691436884"><ele>924.0</ele><time>2026-05-01T08:28:41.999Z</time></trkpt><trkpt lat="43.79644647371377" lon="12.296245934322005"><ele>924.0</ele><time>2026-05-01T08:28:42.999Z</time></trkpt><trkpt lat="43.79650967664488" lon="12.296390707293117"><ele>924.6</ele><time>2026-05-01T08:28:43.999Z</time></trkpt><trkpt lat="43.79656939852376" lon="12.296521885277132"><ele>925.2</ele><time>2026-05-01T08:28:44.999Z</time></trkpt><trkpt lat="43.796644339623796" lon="12.296629391955845"><ele>925.8000000000001</ele><time>2026-05-01T08:28:45.999Z</time></trkpt><trkpt lat="43.79674275466204" lon="12.296693487069524"><ele>926.4000000000001</ele><time>2026-05-01T08:28:46.999Z</time></trkpt><trkpt lat="43.79685210991025" lon="12.296688574219692"><ele>927.0</ele><time>2026-05-01T08:28:47.999Z</time></trkpt><trkpt lat="43.796960232533834" lon="12.296668961774643"><ele>927.0</ele><time>2026-05-01T08:28:48.999Z</time></trkpt><trkpt lat="43.79706355221338" lon="12.296686715382718"><ele>927.0</ele><time>2026-05-01T08:28:49.999Z</time></trkpt><trkpt lat="43.797160249328044" lon="12.296763122914484"><ele>927.0</ele><time>2026-05-01T08:28:50.999Z</time></trkpt><trkpt lat="43.79723427228455" lon="12.296838448325923"><ele>927.0</ele><time>2026-05-01T08:28:51.999Z</time></trkpt><trkpt lat="43.79732089538892" lon="12.2969186067948"><ele>927.0</ele><time>2026-05-01T08:28:52.999Z</time></trkpt><trkpt lat="43.7973979042165" lon="12.29698296692019"><ele>927.0</ele><time>2026-05-01T08:28:53.999Z</time></trkpt><trkpt lat="43.79746946141022" lon="12.297032660703337"><ele>927.0</ele><time>2026-05-01T08:28:55Z</time></trkpt><trkpt lat="43.79754150358029" lon="12.297041615796246"><ele>927.0</ele><time>2026-05-01T08:28:56Z</time></trkpt><trkpt lat="43.79761621283609" lon="12.297001736292348"><ele>927.0</ele><time>2026-05-01T08:28:57Z</time></trkpt><trkpt lat="43.797683499074154" lon="12.296929507059401"><ele>927.0</ele><time>2026-05-01T08:28:58Z</time></trkpt><trkpt lat="43.79774974235114" lon="12.296862651227562"><ele>927.0</ele><time>2026-05-01T08:28:59Z</time></trkpt><trkpt lat="43.797821248163416" lon="12.296812875003457"><ele>927.8333333333334</ele><time>2026-05-01T08:29:00Z</time></trkpt><trkpt lat="43.79790177099504" lon="12.296780159708373"><ele>928.6666666666667</ele><time>2026-05-01T08:29:01Z</time></trkpt><trkpt lat="43.79798581184209" lon="12.29676985995257"><ele>929.5</ele><time>2026-05-01T08:29:02Z</time></trkpt><trkpt lat="43.79807444171517" lon="12.296790018593022"><ele>930.3333333333334</ele><time>2026-05-01T08:29:03Z</time></trkpt><trkpt lat="43.79816082707412" lon="12.296822347912903"><ele>931.1666666666667</ele><time>2026-05-01T08:29:04Z</time></trkpt><trkpt lat="43.798249196340876" lon="12.296858885706436"><ele>932.0</ele><time>2026-05-01T08:29:05Z</time></trkpt><trkpt lat="43.798338200751765" lon="12.296889878499373"><ele>932.0</ele><time>2026-05-01T08:29:06Z</time></trkpt><trkpt lat="43.798427275774166" lon="12.296883637956169"><ele>932.0</ele><time>2026-05-01T08:29:07Z</time></trkpt><trkpt lat="43.7985129131794" lon="12.29682154615277"><ele>932.0</ele><time>2026-05-01T08:29:08Z</time></trkpt><trkpt lat="43.79858532438493" lon="12.296727759767501"><ele>932.0</ele><time>2026-05-01T08:29:09Z</time></trkpt><trkpt lat="43.79863930473402" lon="12.29658923971539"><ele>932.0</ele><time>2026-05-01T08:29:10Z</time></trkpt><trkpt lat="43.798681789868894" lon="12.296433568534862"><ele>935.5</ele><time>2026-05-01T08:29:11Z</time></trkpt><trkpt lat="43.798714334153296" lon="12.296262969263008"><ele>939.0</ele><time>2026-05-01T08:29:12Z</time></trkpt><trkpt lat="43.79873417629654" lon="12.29608230112539"><ele>942.5</ele><time>2026-05-01T08:29:13Z</time></trkpt><trkpt lat="43.798725993365196" lon="12.2958881777496"><ele>946.0</ele><time>2026-05-01T08:29:14Z</time></trkpt><trkpt lat="43.79870932389696" lon="12.295709343422567"><ele>943.4</ele><time>2026-05-01T08:29:15Z</time></trkpt><trkpt lat="43.79868503339167" lon="12.295551721430074"><ele>940.8</ele><time>2026-05-01T08:29:16Z</time></trkpt><trkpt lat="43.798633317310056" lon="12.29540351314409"><ele>938.1999999999999</ele><time>2026-05-01T08:29:17Z</time></trkpt><trkpt lat="43.798590403970096" lon="12.295271530425863"><ele>935.5999999999999</ele><time>2026-05-01T08:29:18Z</time></trkpt><trkpt lat="43.7985834605293" lon="12.295123902461476"><ele>933.0</ele><time>2026-05-01T08:29:19Z</time></trkpt><trkpt lat="43.798632763570204" lon="12.294989236680168"><ele>933.0</ele><time>2026-05-01T08:29:20Z</time></trkpt><trkpt lat="43.798719452313875" lon="12.294879680790437"><ele>933.0</ele><time>2026-05-01T08:29:21Z</time></trkpt><trkpt lat="43.79880875918442" lon="12.294755684348628"><ele>933.0</ele><time>2026-05-01T08:29:22Z</time></trkpt><trkpt lat="43.798896324248545" lon="12.29463898851469"><ele>933.0</ele><time>2026-05-01T08:29:23Z</time></trkpt><trkpt lat="43.79896168908814" lon="12.294496497262385"><ele>929.5</ele><time>2026-05-01T08:29:24Z</time></trkpt><trkpt lat="43.798993074801345" lon="12.294321941869315"><ele>926.0</ele><time>2026-05-01T08:29:25Z</time></trkpt><trkpt lat="43.79901185018612" lon="12.294136332173268"><ele>922.5</ele><time>2026-05-01T08:29:26Z</time></trkpt><trkpt lat="43.79904108026445" lon="12.293951935698951"><ele>919.0</ele><time>2026-05-01T08:29:27Z</time></trkpt><trkpt lat="43.79906940788023" lon="12.293774886338712"><ele>918.5</ele><time>2026-05-01T08:29:28Z</time></trkpt><trkpt lat="43.79908182696245" lon="12.29360991112295"><ele>918.0</ele><time>2026-05-01T08:29:29Z</time></trkpt><trkpt lat="43.79905457841469" lon="12.293457681513004"><ele>917.5</ele><time>2026-05-01T08:29:30Z</time></trkpt><trkpt lat="43.79898272257081" lon="12.293327620019937"><ele>917.0</ele><time>2026-05-01T08:29:31Z</time></trkpt><trkpt lat="43.79889327680869" lon="12.293214616268619"><ele>917.25</ele><time>2026-05-01T08:29:32Z</time></trkpt><trkpt lat="43.798819685375356" lon="12.29307311292422"><ele>917.5</ele><time>2026-05-01T08:29:33Z</time></trkpt><trkpt lat="43.79877587054259" lon="12.292904209163419"><ele>917.75</ele><time>2026-05-01T08:29:34Z</time></trkpt><trkpt lat="43.79875835253593" lon="12.292726004534787"><ele>918.0</ele><time>2026-05-01T08:29:35Z</time></trkpt><trkpt lat="43.798760618743216" lon="12.292560649347763"><ele>918.0</ele><time>2026-05-01T08:29:36Z</time></trkpt><trkpt lat="43.79877648193061" lon="12.292410090028541"><ele>918.0</ele><time>2026-05-01T08:29:37Z</time></trkpt><trkpt lat="43.798803309629896" lon="12.29228002457572"><ele>918.0</ele><time>2026-05-01T08:29:38Z</time></trkpt><trkpt lat="43.79883190027801" lon="12.292161681154893"><ele>918.0</ele><time>2026-05-01T08:29:39Z</time></trkpt><trkpt lat="43.79883905219675" lon="12.292059727040087"><ele>918.0</ele><time>2026-05-01T08:29:40Z</time></trkpt><trkpt lat="43.79881400573732" lon="12.29197682498997"><ele>918.0</ele><time>2026-05-01T08:29:41Z</time></trkpt><trkpt lat="43.79875750434941" lon="12.291925462319709"><ele>918.0</ele><time>2026-05-01T08:29:42Z</time></trkpt><trkpt lat="43.79864013894349" lon="12.291992509367763"><ele>918.0</ele><time>2026-05-01T08:29:44Z</time></trkpt><trkpt lat="43.798600177226426" lon="12.292091827182585"><ele>918.0</ele><time>2026-05-01T08:29:45Z</time></trkpt><trkpt lat="43.79856202211722" lon="12.292205751215914"><ele>918.0</ele><time>2026-05-01T08:29:46Z</time></trkpt><trkpt lat="43.79851366794974" lon="12.292322353338609"><ele>918.0</ele><time>2026-05-01T08:29:47Z</time></trkpt><trkpt lat="43.798450322754135" lon="12.292432037497411"><ele>913.6666666666666</ele><time>2026-05-01T08:29:48Z</time></trkpt><trkpt lat="43.7983817579948" lon="12.292519602817423"><ele>909.3333333333333</ele><time>2026-05-01T08:29:49Z</time></trkpt><trkpt lat="43.7983164073862" lon="12.292593983529342"><ele>905.0</ele><time>2026-05-01T08:29:50Z</time></trkpt><trkpt lat="43.79825414323561" lon="12.292667171364519"><ele>900.6666666666666</ele><time>2026-05-01T08:29:51Z</time></trkpt><trkpt lat="43.798191396252435" lon="12.292724788194105"><ele>896.3333333333333</ele><time>2026-05-01T08:29:51.999Z</time></trkpt><trkpt lat="43.79813363429549" lon="12.292774373565917"><ele>892.0</ele><time>2026-05-01T08:29:52.999Z</time></trkpt><trkpt lat="43.79802506926546" lon="12.292815921455038"><ele>891.9999999999999</ele><time>2026-05-01T08:29:54.999Z</time></trkpt><trkpt lat="43.79797074590988" lon="12.292769857316229"><ele>892.0</ele><time>2026-05-01T08:29:55.999Z</time></trkpt><trkpt lat="43.79794286828299" lon="12.292681655518194"><ele>892.0</ele><time>2026-05-01T08:29:56.999Z</time></trkpt><trkpt lat="43.79794902346039" lon="12.292580497489782"><ele>892.0</ele><time>2026-05-01T08:29:57.999Z</time></trkpt><trkpt lat="43.797986249871215" lon="12.292476988229582"><ele>891.9999999999999</ele><time>2026-05-01T08:29:58.999Z</time></trkpt><trkpt lat="43.798051729649046" lon="12.29238429566015"><ele>892.0</ele><time>2026-05-01T08:29:59.999Z</time></trkpt><trkpt lat="43.79811249314659" lon="12.29229464714001"><ele>891.4999999999999</ele><time>2026-05-01T08:30:00.999Z</time></trkpt><trkpt lat="43.798164690888946" lon="12.29220869662679"><ele>891.0</ele><time>2026-05-01T08:30:01.999Z</time></trkpt><trkpt lat="43.798211454369145" lon="12.292121675925499"><ele>890.5</ele><time>2026-05-01T08:30:02.999Z</time></trkpt><trkpt lat="43.798250852186136" lon="12.29202382616381"><ele>890.0</ele><time>2026-05-01T08:30:03.999Z</time></trkpt><trkpt lat="43.79827346661561" lon="12.291912282885736"><ele>889.4999999999999</ele><time>2026-05-01T08:30:04.999Z</time></trkpt><trkpt lat="43.79828372347994" lon="12.291787547732259"><ele>889.0</ele><time>2026-05-01T08:30:05.999Z</time></trkpt><trkpt lat="43.79827607454253" lon="12.291642241440321"><ele>889.0</ele><time>2026-05-01T08:30:06.999Z</time></trkpt><trkpt lat="43.79826550223938" lon="12.29149450605245"><ele>889.0000000000001</ele><time>2026-05-01T08:30:07.999Z</time></trkpt><trkpt lat="43.79825053177212" lon="12.29134521422971"><ele>889.0000000000001</ele><time>2026-05-01T08:30:08.999Z</time></trkpt><trkpt lat="43.79822460203511" lon="12.291202160949373"><ele>889.0</ele><time>2026-05-01T08:30:09.999Z</time></trkpt><trkpt lat="43.798185905513385" lon="12.291071609183476"><ele>889.0</ele><time>2026-05-01T08:30:10.999Z</time></trkpt><trkpt lat="43.79813945968243" lon="12.290954489657333"><ele>887.8333333333333</ele><time>2026-05-01T08:30:11.999Z</time></trkpt><trkpt lat="43.798100991563565" lon="12.290845471599775"><ele>886.6666666666666</ele><time>2026-05-01T08:30:12.999Z</time></trkpt><trkpt lat="43.79807326594067" lon="12.290742801957999"><ele>885.5</ele><time>2026-05-01T08:30:13.999Z</time></trkpt><trkpt lat="43.798074130296854" lon="12.290630270314114"><ele>884.3333333333333</ele><time>2026-05-01T08:30:14.999Z</time></trkpt><trkpt lat="43.79812112132317" lon="12.290525782450178"><ele>883.1666666666666</ele><time>2026-05-01T08:30:15.999Z</time></trkpt><trkpt lat="43.79819892929399" lon="12.29045102233262"><ele>882.0</ele><time>2026-05-01T08:30:16.999Z</time></trkpt><trkpt lat="43.79828330255398" lon="12.29038773678099"><ele>884.2</ele><time>2026-05-01T08:30:17.999Z</time></trkpt><trkpt lat="43.79836534003905" lon="12.290323509904024"><ele>886.4000000000001</ele><time>2026-05-01T08:30:18.999Z</time></trkpt><trkpt lat="43.79843001590303" lon="12.290232860503233"><ele>888.5999999999999</ele><time>2026-05-01T08:30:19.999Z</time></trkpt><trkpt lat="43.798469932948876" lon="12.290110811798556"><ele>890.8</ele><time>2026-05-01T08:30:20.999Z</time></trkpt><trkpt lat="43.79849508789654" lon="12.289978897482053"><ele>893.0</ele><time>2026-05-01T08:30:21.999Z</time></trkpt><trkpt lat="43.79850834409834" lon="12.289841252509108"><ele>890.2</ele><time>2026-05-01T08:30:22.999Z</time></trkpt><trkpt lat="43.79850313047491" lon="12.289700291586831"><ele>887.4</ele><time>2026-05-01T08:30:23.999Z</time></trkpt><trkpt lat="43.798493907869016" lon="12.28956272182195"><ele>884.6000000000001</ele><time>2026-05-01T08:30:24.999Z</time></trkpt><trkpt lat="43.798485469843015" lon="12.289427265791911"><ele>881.8000000000001</ele><time>2026-05-01T08:30:25.999Z</time></trkpt><trkpt lat="43.798487806255814" lon="12.289293103979608"><ele>879.0</ele><time>2026-05-01T08:30:26.999Z</time></trkpt><trkpt lat="43.79852384749778" lon="12.289168606095288"><ele>879.0</ele><time>2026-05-01T08:30:27.999Z</time></trkpt><trkpt lat="43.79858629732336" lon="12.28906902249437"><ele>879.0000000000001</ele><time>2026-05-01T08:30:28.999Z</time></trkpt><trkpt lat="43.798658472468354" lon="12.288989548303709"><ele>879.0000000000001</ele><time>2026-05-01T08:30:29.999Z</time></trkpt><trkpt lat="43.79873124832982" lon="12.288918304968227"><ele>879.0</ele><time>2026-05-01T08:30:30.999Z</time></trkpt><trkpt lat="43.7987958292093" lon="12.288836753502302"><ele>879.0</ele><time>2026-05-01T08:30:31.999Z</time></trkpt><trkpt lat="43.79884798708027" lon="12.288737843408256"><ele>876.2</ele><time>2026-05-01T08:30:32.999Z</time></trkpt><trkpt lat="43.79887780353764" lon="12.28860634331301"><ele>873.4000000000001</ele><time>2026-05-01T08:30:33.999Z</time></trkpt><trkpt lat="43.79888369979233" lon="12.288467989657061"><ele>870.6</ele><time>2026-05-01T08:30:34.999Z</time></trkpt><trkpt lat="43.79886830185888" lon="12.288326863345654"><ele>867.8</ele><time>2026-05-01T08:30:35.999Z</time></trkpt><trkpt lat="43.79884853625143" lon="12.288193511848117"><ele>865.0</ele><time>2026-05-01T08:30:36.999Z</time></trkpt><trkpt lat="43.79883035101329" lon="12.288062608654945"><ele>860.4999999999999</ele><time>2026-05-01T08:30:37.999Z</time></trkpt><trkpt lat="43.79882118606871" lon="12.287934129760014"><ele>856.0</ele><time>2026-05-01T08:30:38.999Z</time></trkpt><trkpt lat="43.79882925377847" lon="12.287817806309139"><ele>851.5</ele><time>2026-05-01T08:30:39.999Z</time></trkpt><trkpt lat="43.798846987770204" lon="12.28772010005449"><ele>847.0</ele><time>2026-05-01T08:30:40.999Z</time></trkpt><trkpt lat="43.79888255953404" lon="12.287643706703506"><ele>842.4999999999999</ele><time>2026-05-01T08:30:41.999Z</time></trkpt><trkpt lat="43.798942837933375" lon="12.287597441081292"><ele>838.0</ele><time>2026-05-01T08:30:42.999Z</time></trkpt><trkpt lat="43.79902607371795" lon="12.28759323253455"><ele>838.0</ele><time>2026-05-01T08:30:43.999Z</time></trkpt><trkpt lat="43.79911990270353" lon="12.287603704823521"><ele>838.0</ele><time>2026-05-01T08:30:44.999Z</time></trkpt><trkpt lat="43.799214637229554" lon="12.287603533502054"><ele>838.0</ele><time>2026-05-01T08:30:45.999Z</time></trkpt><trkpt lat="43.79931477217505" lon="12.287621014098935"><ele>838.0</ele><time>2026-05-01T08:30:46.999Z</time></trkpt><trkpt lat="43.79942052226139" lon="12.2876523327009"><ele>838.0</ele><time>2026-05-01T08:30:47.999Z</time></trkpt><trkpt lat="43.79952944197566" lon="12.287694907242576"><ele>836.2</ele><time>2026-05-01T08:30:48.999Z</time></trkpt><trkpt lat="43.79963263886883" lon="12.287742343654827"><ele>834.4</ele><time>2026-05-01T08:30:49.999Z</time></trkpt><trkpt lat="43.799727453396784" lon="12.287782638995937"><ele>832.6</ele><time>2026-05-01T08:30:50.999Z</time></trkpt><trkpt lat="43.799825022140986" lon="12.287815049494185"><ele>830.8000000000001</ele><time>2026-05-01T08:30:51.999Z</time></trkpt><trkpt lat="43.799928790379816" lon="12.287843363577585"><ele>829.0</ele><time>2026-05-01T08:30:52.999Z</time></trkpt><trkpt lat="43.80003210152698" lon="12.287859085570211"><ele>829.0</ele><time>2026-05-01T08:30:53.999Z</time></trkpt><trkpt lat="43.800135651682766" lon="12.287862502582517"><ele>829.0</ele><time>2026-05-01T08:30:54.999Z</time></trkpt><trkpt lat="43.800240124563025" lon="12.287848727563054"><ele>829.0</ele><time>2026-05-01T08:30:55.999Z</time></trkpt><trkpt lat="43.80034179929535" lon="12.287828426355688"><ele>829.0</ele><time>2026-05-01T08:30:56.999Z</time></trkpt><trkpt lat="43.80044013381387" lon="12.287813717973261"><ele>829.0</ele><time>2026-05-01T08:30:57.999Z</time></trkpt><trkpt lat="43.80053659056261" lon="12.287835202748207"><ele>825.6</ele><time>2026-05-01T08:30:58.999Z</time></trkpt><trkpt lat="43.80062259395233" lon="12.287900354581671"><ele>822.2</ele><time>2026-05-01T08:30:59.998Z</time></trkpt><trkpt lat="43.80071381422392" lon="12.287930875022811"><ele>818.8000000000001</ele><time>2026-05-01T08:31:01Z</time></trkpt><trkpt lat="43.800809018142594" lon="12.287936702983663"><ele>815.4000000000001</ele><time>2026-05-01T08:31:02Z</time></trkpt><trkpt lat="43.80089399505258" lon="12.287918004783435"><ele>812.0</ele><time>2026-05-01T08:31:03Z</time></trkpt><trkpt lat="43.80097101880654" lon="12.287879705299007"><ele>812.7142857142857</ele><time>2026-05-01T08:31:04Z</time></trkpt><trkpt lat="43.80103762320486" lon="12.287824813069772"><ele>813.4285714285714</ele><time>2026-05-01T08:31:05Z</time></trkpt><trkpt lat="43.8011071010944" lon="12.287784705823372"><ele>814.1428571428571</ele><time>2026-05-01T08:31:06Z</time></trkpt><trkpt lat="43.801177555968316" lon="12.287781569509908"><ele>814.8571428571429</ele><time>2026-05-01T08:31:07Z</time></trkpt><trkpt lat="43.801240476522764" lon="12.287807555524399"><ele>815.5714285714286</ele><time>2026-05-01T08:31:08Z</time></trkpt><trkpt lat="43.801287881189104" lon="12.287886529812345"><ele>816.2857142857142</ele><time>2026-05-01T08:31:09Z</time></trkpt><trkpt lat="43.801307615058484" lon="12.288002209965791"><ele>817.0</ele><time>2026-05-01T08:31:10Z</time></trkpt><trkpt lat="43.80134659200355" lon="12.28810057139849"><ele>817.0</ele><time>2026-05-01T08:31:11Z</time></trkpt><trkpt lat="43.80137745623571" lon="12.288223994490291"><ele>817.0</ele><time>2026-05-01T08:31:12Z</time></trkpt><trkpt lat="43.80141381709233" lon="12.288349359915241"><ele>817.0</ele><time>2026-05-01T08:31:13Z</time></trkpt><trkpt lat="43.80144874629337" lon="12.288467293301983"><ele>817.0</ele><time>2026-05-01T08:31:14Z</time></trkpt><trkpt lat="43.80148771628434" lon="12.288577157206925"><ele>817.0</ele><time>2026-05-01T08:31:15Z</time></trkpt><trkpt lat="43.80153116833397" lon="12.288675228500292"><ele>816.9999999999999</ele><time>2026-05-01T08:31:16Z</time></trkpt><trkpt lat="43.801584728945336" lon="12.288753121160333"><ele>817.0</ele><time>2026-05-01T08:31:17Z</time></trkpt><trkpt lat="43.80164748036211" lon="12.288820686298992"><ele>817.0</ele><time>2026-05-01T08:31:18Z</time></trkpt><trkpt lat="43.80171632423475" lon="12.28887486454729"><ele>817.0</ele><time>2026-05-01T08:31:19Z</time></trkpt><trkpt lat="43.80178252502174" lon="12.288927771688872"><ele>816.9999999999999</ele><time>2026-05-01T08:31:20Z</time></trkpt><trkpt lat="43.80185750871825" lon="12.28896127066271"><ele>817.0</ele><time>2026-05-01T08:31:21Z</time></trkpt><trkpt lat="43.80193633377286" lon="12.28897325002312"><ele>817.9999999999999</ele><time>2026-05-01T08:31:22Z</time></trkpt><trkpt lat="43.802014259294495" lon="12.288960873993673"><ele>819.0</ele><time>2026-05-01T08:31:23Z</time></trkpt><trkpt lat="43.80208951120316" lon="12.288915819791628"><ele>820.0</ele><time>2026-05-01T08:31:24Z</time></trkpt><trkpt lat="43.80216438070347" lon="12.28885205540462"><ele>821.0</ele><time>2026-05-01T08:31:25Z</time></trkpt><trkpt lat="43.80222913299104" lon="12.288773610571674"><ele>821.9999999999999</ele><time>2026-05-01T08:31:26Z</time></trkpt><trkpt lat="43.802287208184964" lon="12.288696416191977"><ele>823.0</ele><time>2026-05-01T08:31:27Z</time></trkpt><trkpt lat="43.8023435888215" lon="12.288642997976119"><ele>818.4999999999999</ele><time>2026-05-01T08:31:28Z</time></trkpt><trkpt lat="43.802404805201476" lon="12.288610255997417"><ele>814.0</ele><time>2026-05-01T08:31:29Z</time></trkpt><trkpt lat="43.80247021819274" lon="12.288609979875389"><ele>809.5</ele><time>2026-05-01T08:31:30Z</time></trkpt><trkpt lat="43.80253340649143" lon="12.28867508999408"><ele>805.0</ele><time>2026-05-01T08:31:31Z</time></trkpt><trkpt lat="43.80258558478976" lon="12.28877058311033"><ele>800.4999999999999</ele><time>2026-05-01T08:31:32Z</time></trkpt><trkpt lat="43.8026463328176" lon="12.288873782285108"><ele>796.0</ele><time>2026-05-01T08:31:33Z</time></trkpt><trkpt lat="43.80272053663123" lon="12.288996622296462"><ele>795.5</ele><time>2026-05-01T08:31:34Z</time></trkpt><trkpt lat="43.80279528097298" lon="12.289113091385667"><ele>795.0</ele><time>2026-05-01T08:31:35Z</time></trkpt><trkpt lat="43.80289653747712" lon="12.289214125967069"><ele>794.5</ele><time>2026-05-01T08:31:36Z</time></trkpt><trkpt lat="43.8030120507955" lon="12.28929593768746"><ele>794.0</ele><time>2026-05-01T08:31:37Z</time></trkpt><trkpt lat="43.80312144558586" lon="12.289393046138771"><ele>794.0</ele><time>2026-05-01T08:31:38Z</time></trkpt><trkpt lat="43.80320538743403" lon="12.289518502385697"><ele>794.0</ele><time>2026-05-01T08:31:39Z</time></trkpt><trkpt lat="43.80327935713635" lon="12.289656307681511"><ele>794.0</ele><time>2026-05-01T08:31:40Z</time></trkpt><trkpt lat="43.803363569202894" lon="12.289794951503133"><ele>794.0</ele><time>2026-05-01T08:31:41Z</time></trkpt><trkpt lat="43.803469278150985" lon="12.289911650748873"><ele>792.25</ele><time>2026-05-01T08:31:42Z</time></trkpt><trkpt lat="43.803590666197245" lon="12.290004365120028"><ele>790.5</ele><time>2026-05-01T08:31:43Z</time></trkpt><trkpt lat="43.80371139939042" lon="12.29009471606709"><ele>788.75</ele><time>2026-05-01T08:31:44Z</time></trkpt><trkpt lat="43.80384359936677" lon="12.290183233529813"><ele>787.0</ele><time>2026-05-01T08:31:45Z</time></trkpt><trkpt lat="43.803979425434235" lon="12.290265979787389"><ele>787.0</ele><time>2026-05-01T08:31:46Z</time></trkpt><trkpt lat="43.80412118809801" lon="12.290346249146378"><ele>787.0</ele><time>2026-05-01T08:31:47Z</time></trkpt><trkpt lat="43.80426337953972" lon="12.290413895337139"><ele>787.0</ele><time>2026-05-01T08:31:48Z</time></trkpt><trkpt lat="43.80440748644864" lon="12.290460947404268"><ele>785.75</ele><time>2026-05-01T08:31:49Z</time></trkpt><trkpt lat="43.80455479833539" lon="12.290492229305135"><ele>784.5</ele><time>2026-05-01T08:31:49.999Z</time></trkpt><trkpt lat="43.80469921407246" lon="12.290508296805513"><ele>783.25</ele><time>2026-05-01T08:31:50.999Z</time></trkpt><trkpt lat="43.80483284205138" lon="12.290527207331133"><ele>782.0</ele><time>2026-05-01T08:31:51.999Z</time></trkpt><trkpt lat="43.80496192209089" lon="12.290539187706763"><ele>782.0</ele><time>2026-05-01T08:31:52.999Z</time></trkpt><trkpt lat="43.80508554838882" lon="12.290510549819563"><ele>782.0</ele><time>2026-05-01T08:31:53.999Z</time></trkpt><trkpt lat="43.80519899740366" lon="12.290403633118256"><ele>782.0</ele><time>2026-05-01T08:31:54.999Z</time></trkpt><trkpt lat="43.80529499016153" lon="12.290282633668186"><ele>782.0</ele><time>2026-05-01T08:31:55.999Z</time></trkpt><trkpt lat="43.80537405758569" lon="12.29014205420004"><ele>783.0</ele><time>2026-05-01T08:31:56.999Z</time></trkpt><trkpt lat="43.805420144401936" lon="12.28996996955589"><ele>784.0</ele><time>2026-05-01T08:31:57.999Z</time></trkpt><trkpt lat="43.805442618658184" lon="12.289789830558119"><ele>785.0</ele><time>2026-05-01T08:31:58.999Z</time></trkpt><trkpt lat="43.805469418685014" lon="12.289622946445604"><ele>786.0</ele><time>2026-05-01T08:31:59.999Z</time></trkpt><trkpt lat="43.80551556444184" lon="12.289452781486096"><ele>783.0</ele><time>2026-05-01T08:32:00.999Z</time></trkpt><trkpt lat="43.80557069302147" lon="12.289303281101786"><ele>780.0</ele><time>2026-05-01T08:32:01.999Z</time></trkpt><trkpt lat="43.805645193435126" lon="12.289178301476095"><ele>777.0</ele><time>2026-05-01T08:32:02.999Z</time></trkpt><trkpt lat="43.8057383317311" lon="12.289092975196011"><ele>774.0</ele><time>2026-05-01T08:32:03.999Z</time></trkpt><trkpt lat="43.80583691683868" lon="12.28909606140213"><ele>771.0</ele><time>2026-05-01T08:32:04.999Z</time></trkpt><trkpt lat="43.80591274101612" lon="12.28916104719386"><ele>771.0</ele><time>2026-05-01T08:32:05.999Z</time></trkpt><trkpt lat="43.80597176387155" lon="12.289263955091116"><ele>771.0</ele><time>2026-05-01T08:32:06.999Z</time></trkpt><trkpt lat="43.80603431226373" lon="12.28937923099959"><ele>771.0</ele><time>2026-05-01T08:32:07.999Z</time></trkpt><trkpt lat="43.806089856405855" lon="12.289510370975197"><ele>771.0</ele><time>2026-05-01T08:32:08.999Z</time></trkpt><trkpt lat="43.80614380997978" lon="12.28963027870319"><ele>771.0</ele><time>2026-05-01T08:32:09.999Z</time></trkpt><trkpt lat="43.80621958812991" lon="12.289715674987306"><ele>769.0</ele><time>2026-05-01T08:32:10.999Z</time></trkpt><trkpt lat="43.8063053407299" lon="12.289755533850773"><ele>767.0</ele><time>2026-05-01T08:32:11.999Z</time></trkpt><trkpt lat="43.806401945893796" lon="12.289732614358092"><ele>765.0</ele><time>2026-05-01T08:32:12.999Z</time></trkpt><trkpt lat="43.8064934646345" lon="12.289655614248948"><ele>763.0</ele><time>2026-05-01T08:32:13.999Z</time></trkpt><trkpt lat="43.80658685014212" lon="12.289559239497045"><ele>761.0</ele><time>2026-05-01T08:32:14.999Z</time></trkpt><trkpt lat="43.80669548196912" lon="12.289471671091395"><ele>761.0</ele><time>2026-05-01T08:32:15.999Z</time></trkpt><trkpt lat="43.80680366130634" lon="12.289376212336073"><ele>761.0</ele><time>2026-05-01T08:32:16.999Z</time></trkpt><trkpt lat="43.806910146241826" lon="12.2892860099321"><ele>761.0</ele><time>2026-05-01T08:32:17.999Z</time></trkpt><trkpt lat="43.80702196237789" lon="12.289208825774164"><ele>761.0</ele><time>2026-05-01T08:32:18.999Z</time></trkpt><trkpt lat="43.80713521449297" lon="12.289159038235217"><ele>760.5</ele><time>2026-05-01T08:32:19.999Z</time></trkpt><trkpt lat="43.80725350496441" lon="12.289139986135297"><ele>760.0</ele><time>2026-05-01T08:32:20.999Z</time></trkpt><trkpt lat="43.807375231672964" lon="12.289134639286866"><ele>759.5</ele><time>2026-05-01T08:32:21.999Z</time></trkpt><trkpt lat="43.80749397733351" lon="12.289137338351843"><ele>759.0</ele><time>2026-05-01T08:32:22.999Z</time></trkpt><trkpt lat="43.80761386830423" lon="12.28915539720055"><ele>757.0</ele><time>2026-05-01T08:32:23.999Z</time></trkpt><trkpt lat="43.80773690893497" lon="12.289186457302941"><ele>755.0</ele><time>2026-05-01T08:32:24.999Z</time></trkpt><trkpt lat="43.80786395361008" lon="12.28923480114654"><ele>753.0</ele><time>2026-05-01T08:32:25.999Z</time></trkpt><trkpt lat="43.80799256428284" lon="12.289294159499395"><ele>751.0</ele><time>2026-05-01T08:32:26.999Z</time></trkpt><trkpt lat="43.80811766182153" lon="12.289337542738394"><ele>751.0</ele><time>2026-05-01T08:32:27.999Z</time></trkpt><trkpt lat="43.80824771951575" lon="12.289350910084769"><ele>751.0</ele><time>2026-05-01T08:32:28.999Z</time></trkpt><trkpt lat="43.808367613663826" lon="12.289338602058939"><ele>751.0</ele><time>2026-05-01T08:32:29.999Z</time></trkpt><trkpt lat="43.808474716172896" lon="12.289287206684511"><ele>751.0</ele><time>2026-05-01T08:32:30.999Z</time></trkpt><trkpt lat="43.80856166265703" lon="12.289187957160044"><ele>747.75</ele><time>2026-05-01T08:32:31.999Z</time></trkpt><trkpt lat="43.80862194206605" lon="12.289048425501477"><ele>744.5</ele><time>2026-05-01T08:32:32.999Z</time></trkpt><trkpt lat="43.80866430612104" lon="12.288890633777946"><ele>741.25</ele><time>2026-05-01T08:32:33.999Z</time></trkpt><trkpt lat="43.80871604190848" lon="12.288731873378628"><ele>738.0</ele><time>2026-05-01T08:32:34.999Z</time></trkpt><trkpt lat="43.8087701210153" lon="12.288573840706452"><ele>738.0</ele><time>2026-05-01T08:32:35.999Z</time></trkpt><trkpt lat="43.80885223389769" lon="12.288431632953639"><ele>738.0</ele><time>2026-05-01T08:32:36.999Z</time></trkpt><trkpt lat="43.80895482777054" lon="12.288309073804998"><ele>738.0</ele><time>2026-05-01T08:32:37.999Z</time></trkpt><trkpt lat="43.809069420472035" lon="12.288204671271124"><ele>738.0</ele><time>2026-05-01T08:32:38.999Z</time></trkpt><trkpt lat="43.809182115856025" lon="12.288098740486165"><ele>737.5</ele><time>2026-05-01T08:32:39.999Z</time></trkpt><trkpt lat="43.809272008591066" lon="12.287970114221718"><ele>737.0</ele><time>2026-05-01T08:32:40.999Z</time></trkpt><trkpt lat="43.80932952495305" lon="12.287801877474239"><ele>736.5</ele><time>2026-05-01T08:32:41.999Z</time></trkpt><trkpt lat="43.809369497520386" lon="12.287618000259778"><ele>736.0</ele><time>2026-05-01T08:32:42.999Z</time></trkpt><trkpt lat="43.80942125874295" lon="12.287439449519802"><ele>737.75</ele><time>2026-05-01T08:32:43.999Z</time></trkpt><trkpt lat="43.809482878050844" lon="12.28726790290399"><ele>739.5</ele><time>2026-05-01T08:32:44.999Z</time></trkpt><trkpt lat="43.80955266139513" lon="12.287109567647697"><ele>741.25</ele><time>2026-05-01T08:32:45.999Z</time></trkpt><trkpt lat="43.80961484440088" lon="12.28695692261288"><ele>743.0</ele><time>2026-05-01T08:32:46.999Z</time></trkpt><trkpt lat="43.80965728046238" lon="12.286800534694851"><ele>743.0</ele><time>2026-05-01T08:32:47.999Z</time></trkpt><trkpt lat="43.80967450471173" lon="12.286635866528403"><ele>743.0</ele><time>2026-05-01T08:32:48.999Z</time></trkpt><trkpt lat="43.809672594798975" lon="12.286463568899643"><ele>743.0</ele><time>2026-05-01T08:32:49.999Z</time></trkpt><trkpt lat="43.809683003404814" lon="12.286296034804437"><ele>743.0</ele><time>2026-05-01T08:32:50.999Z</time></trkpt><trkpt lat="43.80971505755885" lon="12.286127752822535"><ele>741.5</ele><time>2026-05-01T08:32:51.999Z</time></trkpt><trkpt lat="43.80978168340618" lon="12.285965532259782"><ele>740.0</ele><time>2026-05-01T08:32:52.999Z</time></trkpt><trkpt lat="43.80984665140964" lon="12.285807874072907"><ele>738.5</ele><time>2026-05-01T08:32:53.999Z</time></trkpt><trkpt lat="43.809906312109256" lon="12.285651957656187"><ele>737.0</ele><time>2026-05-01T08:32:54.999Z</time></trkpt><trkpt lat="43.80995113386671" lon="12.285517720470263"><ele>735.6</ele><time>2026-05-01T08:32:55.999Z</time></trkpt><trkpt lat="43.80999503501161" lon="12.285401962270704"><ele>734.2</ele><time>2026-05-01T08:32:56.998Z</time></trkpt><trkpt lat="43.81005294043643" lon="12.285305962538672"><ele>732.8</ele><time>2026-05-01T08:32:57.998Z</time></trkpt><trkpt lat="43.810129386127215" lon="12.285234499136575"><ele>731.4</ele><time>2026-05-01T08:32:58.998Z</time></trkpt><trkpt lat="43.810216033567144" lon="12.285168849020579"><ele>730.0</ele><time>2026-05-01T08:32:59.998Z</time></trkpt><trkpt lat="43.8103149408525" lon="12.28510595027573"><ele>730.0</ele><time>2026-05-01T08:33:00.998Z</time></trkpt><trkpt lat="43.810410171699196" lon="12.285046822988363"><ele>730.0</ele><time>2026-05-01T08:33:01.998Z</time></trkpt><trkpt lat="43.81051078643028" lon="12.28499105944496"><ele>730.0</ele><time>2026-05-01T08:33:02.998Z</time></trkpt><trkpt lat="43.81060743987091" lon="12.284922790329261"><ele>730.0</ele><time>2026-05-01T08:33:03.998Z</time></trkpt><trkpt lat="43.81070903239512" lon="12.284833967785612"><ele>730.0</ele><time>2026-05-01T08:33:04.998Z</time></trkpt><trkpt lat="43.81081484702105" lon="12.284713511569208"><ele>727.5</ele><time>2026-05-01T08:33:05.998Z</time></trkpt><trkpt lat="43.81092529201123" lon="12.28458452184034"><ele>725.0</ele><time>2026-05-01T08:33:07Z</time></trkpt><trkpt lat="43.81103079401507" lon="12.284465813859901"><ele>722.5</ele><time>2026-05-01T08:33:08Z</time></trkpt><trkpt lat="43.811136549079826" lon="12.284358139746034"><ele>720.0</ele><time>2026-05-01T08:33:09Z</time></trkpt><trkpt lat="43.81124560816305" lon="12.284252405103576"><ele>720.0</ele><time>2026-05-01T08:33:10Z</time></trkpt><trkpt lat="43.81135037480859" lon="12.284134119623861"><ele>720.0</ele><time>2026-05-01T08:33:11Z</time></trkpt><trkpt lat="43.81144286805366" lon="12.28398513528273"><ele>720.0</ele><time>2026-05-01T08:33:12Z</time></trkpt><trkpt lat="43.81151752133845" lon="12.283810282373848"><ele>720.0</ele><time>2026-05-01T08:33:13Z</time></trkpt><trkpt lat="43.811599281419426" lon="12.28363994260108"><ele>718.25</ele><time>2026-05-01T08:33:14Z</time></trkpt><trkpt lat="43.81168405193691" lon="12.28347664880547"><ele>716.5</ele><time>2026-05-01T08:33:15Z</time></trkpt><trkpt lat="43.81175110953722" lon="12.283307890221115"><ele>714.75</ele><time>2026-05-01T08:33:16Z</time></trkpt><trkpt lat="43.81180241475376" lon="12.283134568514878"><ele>713.0</ele><time>2026-05-01T08:33:17Z</time></trkpt><trkpt lat="43.811845737935045" lon="12.282967773857589"><ele>713.0</ele><time>2026-05-01T08:33:18Z</time></trkpt><trkpt lat="43.81188204868972" lon="12.282801144602306"><ele>713.0</ele><time>2026-05-01T08:33:19Z</time></trkpt><trkpt lat="43.811925066091334" lon="12.282649070502421"><ele>713.0</ele><time>2026-05-01T08:33:20Z</time></trkpt><trkpt lat="43.811995968738906" lon="12.282524227258474"><ele>713.0</ele><time>2026-05-01T08:33:21Z</time></trkpt><trkpt lat="43.81209282064267" lon="12.282433376899336"><ele>713.0</ele><time>2026-05-01T08:33:22Z</time></trkpt><trkpt lat="43.81221341110298" lon="12.282346788565048"><ele>713.0</ele><time>2026-05-01T08:33:23Z</time></trkpt><trkpt lat="43.81234066769443" lon="12.28226391836685"><ele>713.0</ele><time>2026-05-01T08:33:24Z</time></trkpt><trkpt lat="43.81247010436677" lon="12.282193260126352"><ele>713.0</ele><time>2026-05-01T08:33:25Z</time></trkpt><trkpt lat="43.812595368577924" lon="12.282116319731523"><ele>709.25</ele><time>2026-05-01T08:33:26Z</time></trkpt><trkpt lat="43.81271917854595" lon="12.28201935312173"><ele>705.5</ele><time>2026-05-01T08:33:27Z</time></trkpt><trkpt lat="43.81283266352261" lon="12.281915092670012"><ele>701.75</ele><time>2026-05-01T08:33:28Z</time></trkpt><trkpt lat="43.81293002299484" lon="12.281793518911131"><ele>698.0</ele><time>2026-05-01T08:33:29Z</time></trkpt><trkpt lat="43.813022494152854" lon="12.281694826956034"><ele>698.0</ele><time>2026-05-01T08:33:30Z</time></trkpt><trkpt lat="43.813137718792426" lon="12.281649788899681"><ele>698.0</ele><time>2026-05-01T08:33:31Z</time></trkpt><trkpt lat="43.81326574772314" lon="12.28164444636223"><ele>698.0</ele><time>2026-05-01T08:33:32Z</time></trkpt><trkpt lat="43.81339156810619" lon="12.281612829522869"><ele>698.0</ele><time>2026-05-01T08:33:33Z</time></trkpt><trkpt lat="43.813520495409975" lon="12.281563653044087"><ele>697.5</ele><time>2026-05-01T08:33:34Z</time></trkpt><trkpt lat="43.81365729370665" lon="12.281500451623751"><ele>697.0</ele><time>2026-05-01T08:33:35Z</time></trkpt><trkpt lat="43.81379978091346" lon="12.281430871417705"><ele>696.5</ele><time>2026-05-01T08:33:36Z</time></trkpt><trkpt lat="43.81394080509812" lon="12.28137060936254"><ele>696.0</ele><time>2026-05-01T08:33:37Z</time></trkpt><trkpt lat="43.81408381075505" lon="12.281318184981995"><ele>689.5</ele><time>2026-05-01T08:33:38Z</time></trkpt><trkpt lat="43.814221481622916" lon="12.281272927406421"><ele>683.0</ele><time>2026-05-01T08:33:39Z</time></trkpt><trkpt lat="43.81434985732968" lon="12.281228135881378"><ele>676.5</ele><time>2026-05-01T08:33:40Z</time></trkpt><trkpt lat="43.81447149044663" lon="12.281182350626558"><ele>670.0</ele><time>2026-05-01T08:33:41Z</time></trkpt><trkpt lat="43.8145770032274" lon="12.281136513584753"><ele>669.4</ele><time>2026-05-01T08:33:42Z</time></trkpt><trkpt lat="43.814671268555614" lon="12.281102483455044"><ele>668.8</ele><time>2026-05-01T08:33:43Z</time></trkpt><trkpt lat="43.81475650968697" lon="12.281103541168257"><ele>668.2</ele><time>2026-05-01T08:33:44Z</time></trkpt><trkpt lat="43.8148238126739" lon="12.281172341705952"><ele>667.6</ele><time>2026-05-01T08:33:45Z</time></trkpt><trkpt lat="43.814870933424594" lon="12.281285297376124"><ele>667.0</ele><time>2026-05-01T08:33:46Z</time></trkpt><trkpt lat="43.81489546828975" lon="12.28142229457373"><ele>667.6666666666667</ele><time>2026-05-01T08:33:47Z</time></trkpt><trkpt lat="43.81491363630339" lon="12.281551667064646"><ele>668.3333333333334</ele><time>2026-05-01T08:33:48Z</time></trkpt><trkpt lat="43.814931805878565" lon="12.2816654258958"><ele>669.0</ele><time>2026-05-01T08:33:49Z</time></trkpt><trkpt lat="43.81497280310799" lon="12.28175015314116"><ele>669.6666666666666</ele><time>2026-05-01T08:33:50Z</time></trkpt><trkpt lat="43.81504193822805" lon="12.2817851058429"><ele>670.3333333333333</ele><time>2026-05-01T08:33:51Z</time></trkpt><trkpt lat="43.815108523771755" lon="12.281736089080088"><ele>671.0</ele><time>2026-05-01T08:33:52Z</time></trkpt><trkpt lat="43.815147725679594" lon="12.281633610261055"><ele>671.0</ele><time>2026-05-01T08:33:53Z</time></trkpt><trkpt lat="43.815147512314184" lon="12.281502416595501"><ele>671.0</ele><time>2026-05-01T08:33:54Z</time></trkpt><trkpt lat="43.81513943174352" lon="12.281360687541637"><ele>671.0</ele><time>2026-05-01T08:33:54.999Z</time></trkpt><trkpt lat="43.81514205898472" lon="12.28120096844912"><ele>671.0</ele><time>2026-05-01T08:33:55.999Z</time></trkpt><trkpt lat="43.81514834705132" lon="12.281028940367925"><ele>671.0</ele><time>2026-05-01T08:33:56.999Z</time></trkpt><trkpt lat="43.81515570599077" lon="12.28086166388056"><ele>667.5999999999999</ele><time>2026-05-01T08:33:57.999Z</time></trkpt><trkpt lat="43.815183024912436" lon="12.280705979881631"><ele>664.2</ele><time>2026-05-01T08:33:58.999Z</time></trkpt><trkpt lat="43.81523512282678" lon="12.280568563835024"><ele>660.8</ele><time>2026-05-01T08:33:59.999Z</time></trkpt><trkpt lat="43.81530670489713" lon="12.28045240243349"><ele>657.4000000000001</ele><time>2026-05-01T08:34:00.999Z</time></trkpt><trkpt lat="43.81538907755641" lon="12.280375545732264"><ele>654.0</ele><time>2026-05-01T08:34:01.999Z</time></trkpt><trkpt lat="43.815490295548905" lon="12.280356460301237"><ele>653.6</ele><time>2026-05-01T08:34:02.999Z</time></trkpt><trkpt lat="43.81559572572402" lon="12.280383391064433"><ele>653.2</ele><time>2026-05-01T08:34:03.999Z</time></trkpt><trkpt lat="43.81569468405911" lon="12.28043563266274"><ele>652.8000000000001</ele><time>2026-05-01T08:34:04.999Z</time></trkpt><trkpt lat="43.81577858102415" lon="12.280483343277453"><ele>652.4000000000001</ele><time>2026-05-01T08:34:05.999Z</time></trkpt><trkpt lat="43.8158590690332" lon="12.280503683414949"><ele>652.0</ele><time>2026-05-01T08:34:06.999Z</time></trkpt><trkpt lat="43.815938402354824" lon="12.280464549544348"><ele>649.4</ele><time>2026-05-01T08:34:07.999Z</time></trkpt><trkpt lat="43.81600212613159" lon="12.280364487310488"><ele>646.8000000000001</ele><time>2026-05-01T08:34:08.999Z</time></trkpt><trkpt lat="43.816065073425875" lon="12.28023528640757"><ele>644.2</ele><time>2026-05-01T08:34:09.999Z</time></trkpt><trkpt lat="43.81612741142372" lon="12.280090862024782"><ele>641.6</ele><time>2026-05-01T08:34:10.999Z</time></trkpt><trkpt lat="43.81617203175338" lon="12.27993823050357"><ele>639.0</ele><time>2026-05-01T08:34:11.999Z</time></trkpt><trkpt lat="43.81620062688288" lon="12.27978806105291"><ele>639.4</ele><time>2026-05-01T08:34:12.999Z</time></trkpt><trkpt lat="43.81621600809853" lon="12.279647680415895"><ele>639.8</ele><time>2026-05-01T08:34:13.999Z</time></trkpt><trkpt lat="43.816193377955855" lon="12.279525917321186"><ele>640.1999999999999</ele><time>2026-05-01T08:34:14.999Z</time></trkpt><trkpt lat="43.816133205143686" lon="12.27943917121803"><ele>640.5999999999999</ele><time>2026-05-01T08:34:15.999Z</time></trkpt><trkpt lat="43.81604714098916" lon="12.279422771980448"><ele>641.0</ele><time>2026-05-01T08:34:16.999Z</time></trkpt><trkpt lat="43.81595704395595" lon="12.27946359621794"><ele>641.0</ele><time>2026-05-01T08:34:17.999Z</time></trkpt><trkpt lat="43.815872739559914" lon="12.279502385413013"><ele>641.0</ele><time>2026-05-01T08:34:18.999Z</time></trkpt><trkpt lat="43.81577586894672" lon="12.27951501370752"><ele>641.0</ele><time>2026-05-01T08:34:19.999Z</time></trkpt><trkpt lat="43.815664858125146" lon="12.279482581149075"><ele>641.0</ele><time>2026-05-01T08:34:20.999Z</time></trkpt><trkpt lat="43.815557600546896" lon="12.279441441288153"><ele>641.0</ele><time>2026-05-01T08:34:21.999Z</time></trkpt><trkpt lat="43.81545214657256" lon="12.279402906069802"><ele>641.0</ele><time>2026-05-01T08:34:22.999Z</time></trkpt><trkpt lat="43.81535786787969" lon="12.279353425922999"><ele>641.0</ele><time>2026-05-01T08:34:23.999Z</time></trkpt><trkpt lat="43.81527387634253" lon="12.27928416457777"><ele>641.0</ele><time>2026-05-01T08:34:24.999Z</time></trkpt><trkpt lat="43.81522450947974" lon="12.27918427122591"><ele>641.0</ele><time>2026-05-01T08:34:25.999Z</time></trkpt><trkpt lat="43.81521945241829" lon="12.27907277920725"><ele>641.0</ele><time>2026-05-01T08:34:26.999Z</time></trkpt><trkpt lat="43.815280759245674" lon="12.278985319290637"><ele>641.0</ele><time>2026-05-01T08:34:27.999Z</time></trkpt><trkpt lat="43.81536821287607" lon="12.278938665797487"><ele>641.0</ele><time>2026-05-01T08:34:28.999Z</time></trkpt><trkpt lat="43.81546234642062" lon="12.278909525499287"><ele>641.0</ele><time>2026-05-01T08:34:29.999Z</time></trkpt><trkpt lat="43.81555929423145" lon="12.278859067348419"><ele>641.0</ele><time>2026-05-01T08:34:30.999Z</time></trkpt><trkpt lat="43.81566008464435" lon="12.278793362054694"><ele>641.0</ele><time>2026-05-01T08:34:31.999Z</time></trkpt><trkpt lat="43.81574990873525" lon="12.278717279953188"><ele>638.0</ele><time>2026-05-01T08:34:32.999Z</time></trkpt><trkpt lat="43.815832502653436" lon="12.278630177134994"><ele>635.0</ele><time>2026-05-01T08:34:33.999Z</time></trkpt><trkpt lat="43.815900116871724" lon="12.278511023392719"><ele>632.0</ele><time>2026-05-01T08:34:34.999Z</time></trkpt><trkpt lat="43.81597262437861" lon="12.278383034910286"><ele>629.0</ele><time>2026-05-01T08:34:35.999Z</time></trkpt><trkpt lat="43.81605124179037" lon="12.278247454387872"><ele>628.75</ele><time>2026-05-01T08:34:36.999Z</time></trkpt><trkpt lat="43.81613154258615" lon="12.278104449747152"><ele>628.5</ele><time>2026-05-01T08:34:37.999Z</time></trkpt><trkpt lat="43.81620810118578" lon="12.277964818813281"><ele>628.25</ele><time>2026-05-01T08:34:38.999Z</time></trkpt><trkpt lat="43.816284643164536" lon="12.277823353640075"><ele>628.0</ele><time>2026-05-01T08:34:39.999Z</time></trkpt><trkpt lat="43.816361055337566" lon="12.277680572981792"><ele>626.25</ele><time>2026-05-01T08:34:40.999Z</time></trkpt><trkpt lat="43.81644619982952" lon="12.27753903717803"><ele>624.5</ele><time>2026-05-01T08:34:41.999Z</time></trkpt><trkpt lat="43.816531201049806" lon="12.277389572642088"><ele>622.75</ele><time>2026-05-01T08:34:42.999Z</time></trkpt><trkpt lat="43.816618902745454" lon="12.277237788763522"><ele>621.0</ele><time>2026-05-01T08:34:43.999Z</time></trkpt><trkpt lat="43.81671423529116" lon="12.277087301124268"><ele>619.5</ele><time>2026-05-01T08:34:44.999Z</time></trkpt><trkpt lat="43.81681347962143" lon="12.276935503185635"><ele>618.0</ele><time>2026-05-01T08:34:45.999Z</time></trkpt><trkpt lat="43.8169158993385" lon="12.276787223805584"><ele>616.5</ele><time>2026-05-01T08:34:46.999Z</time></trkpt><trkpt lat="43.81702151543887" lon="12.276646229936564"><ele>615.0</ele><time>2026-05-01T08:34:47.999Z</time></trkpt><trkpt lat="43.81713058927801" lon="12.276508848510675"><ele>614.25</ele><time>2026-05-01T08:34:48.999Z</time></trkpt><trkpt lat="43.817240085763714" lon="12.276370285309847"><ele>613.5</ele><time>2026-05-01T08:34:49.999Z</time></trkpt><trkpt lat="43.817350126667485" lon="12.276231620947819"><ele>612.75</ele><time>2026-05-01T08:34:50.999Z</time></trkpt><trkpt lat="43.81746013794039" lon="12.276091818304568"><ele>612.0</ele><time>2026-05-01T08:34:51.999Z</time></trkpt><trkpt lat="43.81757123074033" lon="12.275951392316767"><ele>612.0</ele><time>2026-05-01T08:34:52.999Z</time></trkpt><trkpt lat="43.81768382215356" lon="12.275811759245855"><ele>612.0</ele><time>2026-05-01T08:34:53.999Z</time></trkpt><trkpt lat="43.8177925245598" lon="12.275675796589075"><ele>612.0</ele><time>2026-05-01T08:34:54.999Z</time></trkpt><trkpt lat="43.81790321791776" lon="12.275537617679134"><ele>612.0</ele><time>2026-05-01T08:34:55.999Z</time></trkpt><trkpt lat="43.81801478657989" lon="12.275397710863215"><ele>611.0</ele><time>2026-05-01T08:34:56.999Z</time></trkpt><trkpt lat="43.818124559317134" lon="12.275265728442616"><ele>610.0</ele><time>2026-05-01T08:34:57.999Z</time></trkpt><trkpt lat="43.81822988316983" lon="12.275136793885967"><ele>609.0</ele><time>2026-05-01T08:34:58.999Z</time></trkpt><trkpt lat="43.81832794866574" lon="12.275011760407502"><ele>608.0</ele><time>2026-05-01T08:34:59.999Z</time></trkpt><trkpt lat="43.81841010702402" lon="12.274875178015638"><ele>606.75</ele><time>2026-05-01T08:35:00.999Z</time></trkpt><trkpt lat="43.818463996272875" lon="12.274712466465687"><ele>605.5</ele><time>2026-05-01T08:35:01.999Z</time></trkpt><trkpt lat="43.818480477838946" lon="12.27453239356066"><ele>604.25</ele><time>2026-05-01T08:35:02.998Z</time></trkpt><trkpt lat="43.81847151520893" lon="12.274350402975042"><ele>603.0</ele><time>2026-05-01T08:35:03.998Z</time></trkpt><trkpt lat="43.8184602480268" lon="12.274167032940762"><ele>603.0</ele><time>2026-05-01T08:35:04.998Z</time></trkpt><trkpt lat="43.818468065829585" lon="12.273972503216658"><ele>603.0</ele><time>2026-05-01T08:35:05.998Z</time></trkpt><trkpt lat="43.818492204240194" lon="12.273772833737135"><ele>603.0</ele><time>2026-05-01T08:35:06.998Z</time></trkpt><trkpt lat="43.81853005947693" lon="12.273569024641485"><ele>603.0</ele><time>2026-05-01T08:35:07.998Z</time></trkpt><trkpt lat="43.8185781482972" lon="12.27336200117974"><ele>604.0</ele><time>2026-05-01T08:35:08.998Z</time></trkpt><trkpt lat="43.81862695326614" lon="12.273151831708605"><ele>605.0</ele><time>2026-05-01T08:35:09.998Z</time></trkpt><trkpt lat="43.81867763395621" lon="12.272938269952364"><ele>606.0</ele><time>2026-05-01T08:35:10.998Z</time></trkpt><trkpt lat="43.81872337276009" lon="12.27272635509672"><ele>606.0</ele><time>2026-05-01T08:35:11.998Z</time></trkpt><trkpt lat="43.81876356780948" lon="12.27252013284245"><ele>606.0</ele><time>2026-05-01T08:35:13Z</time></trkpt><trkpt lat="43.81879357932237" lon="12.272316612229167"><ele>606.0</ele><time>2026-05-01T08:35:14Z</time></trkpt><trkpt lat="43.8188109167725" lon="12.27211337989324"><ele>604.0</ele><time>2026-05-01T08:35:15Z</time></trkpt><trkpt lat="43.81880007743972" lon="12.271909399767713"><ele>602.0</ele><time>2026-05-01T08:35:16Z</time></trkpt><trkpt lat="43.81875675113026" lon="12.271704763835501"><ele>600.0</ele><time>2026-05-01T08:35:17Z</time></trkpt><trkpt lat="43.81870630153341" lon="12.271499732311044"><ele>597.3333333333334</ele><time>2026-05-01T08:35:18Z</time></trkpt><trkpt lat="43.818659360826075" lon="12.271290213954721"><ele>594.6666666666667</ele><time>2026-05-01T08:35:19Z</time></trkpt><trkpt lat="43.818616801655764" lon="12.271087370095975"><ele>592.0</ele><time>2026-05-01T08:35:20Z</time></trkpt><trkpt lat="43.818574734089346" lon="12.270891731901385"><ele>592.0</ele><time>2026-05-01T08:35:21Z</time></trkpt><trkpt lat="43.81853122794183" lon="12.270703655362265"><ele>592.0</ele><time>2026-05-01T08:35:22Z</time></trkpt><trkpt lat="43.818485256741376" lon="12.270520933447118"><ele>592.0</ele><time>2026-05-01T08:35:23Z</time></trkpt><trkpt lat="43.81844420596878" lon="12.27033764230162"><ele>592.0</ele><time>2026-05-01T08:35:24Z</time></trkpt><trkpt lat="43.8184048129179" lon="12.27015593227397"><ele>590.75</ele><time>2026-05-01T08:35:25Z</time></trkpt><trkpt lat="43.818364543231894" lon="12.269976935501338"><ele>589.5</ele><time>2026-05-01T08:35:26Z</time></trkpt><trkpt lat="43.818325987363956" lon="12.269801140869864"><ele>588.25</ele><time>2026-05-01T08:35:27Z</time></trkpt><trkpt lat="43.81828958758718" lon="12.269631117714916"><ele>587.0</ele><time>2026-05-01T08:35:28Z</time></trkpt><trkpt lat="43.81825255069805" lon="12.269465341591273"><ele>586.75</ele><time>2026-05-01T08:35:29Z</time></trkpt><trkpt lat="43.818220600977966" lon="12.269298265155074"><ele>586.5</ele><time>2026-05-01T08:35:30Z</time></trkpt><trkpt lat="43.81818520544484" lon="12.269135095508139"><ele>586.25</ele><time>2026-05-01T08:35:31Z</time></trkpt><trkpt lat="43.8181515347141" lon="12.268972070741734"><ele>586.0</ele><time>2026-05-01T08:35:32Z</time></trkpt><trkpt lat="43.81812259020028" lon="12.268807382668532"><ele>584.5</ele><time>2026-05-01T08:35:33Z</time></trkpt><trkpt lat="43.81809405610129" lon="12.268641534953938"><ele>583.0</ele><time>2026-05-01T08:35:34Z</time></trkpt><trkpt lat="43.818060941875615" lon="12.268481810620417"><ele>581.5</ele><time>2026-05-01T08:35:35Z</time></trkpt><trkpt lat="43.81803479907398" lon="12.26832419177325"><ele>580.0</ele><time>2026-05-01T08:35:36Z</time></trkpt><trkpt lat="43.81802610670094" lon="12.268164797418258"><ele>578.5</ele><time>2026-05-01T08:35:37Z</time></trkpt><trkpt lat="43.81803277777361" lon="12.268003141947402"><ele>577.0</ele><time>2026-05-01T08:35:38Z</time></trkpt><trkpt lat="43.81805791415404" lon="12.267839523408513"><ele>575.5</ele><time>2026-05-01T08:35:39Z</time></trkpt><trkpt lat="43.81807657274574" lon="12.267678019123238"><ele>574.0</ele><time>2026-05-01T08:35:40Z</time></trkpt><trkpt lat="43.81809072693944" lon="12.267536175811053"><ele>574.0</ele><time>2026-05-01T08:35:41Z</time></trkpt><trkpt lat="43.818113678778516" lon="12.26741460899875"><ele>574.0</ele><time>2026-05-01T08:35:42Z</time></trkpt><trkpt lat="43.81816665063334" lon="12.267319133576255"><ele>574.0</ele><time>2026-05-01T08:35:43Z</time></trkpt><trkpt lat="43.818235566796716" lon="12.267238874649696"><ele>574.0</ele><time>2026-05-01T08:35:44Z</time></trkpt><trkpt lat="43.81831871114327" lon="12.267179127791739"><ele>574.0</ele><time>2026-05-01T08:35:45Z</time></trkpt><trkpt lat="43.81840055206437" lon="12.267115840381656"><ele>572.6666666666667</ele><time>2026-05-01T08:35:46Z</time></trkpt><trkpt lat="43.81848190074501" lon="12.267055824498977"><ele>571.3333333333334</ele><time>2026-05-01T08:35:47Z</time></trkpt><trkpt lat="43.81856025906337" lon="12.266997059650272"><ele>570.0</ele><time>2026-05-01T08:35:48Z</time></trkpt><trkpt lat="43.81863250449148" lon="12.266954800386705"><ele>568.6666666666666</ele><time>2026-05-01T08:35:49Z</time></trkpt><trkpt lat="43.81869761591148" lon="12.266915005937001"><ele>567.3333333333333</ele><time>2026-05-01T08:35:50Z</time></trkpt><trkpt lat="43.81878292909627" lon="12.266826724883565"><ele>566.0</ele><time>2026-05-01T08:35:52Z</time></trkpt><trkpt lat="43.818754121175225" lon="12.266694808273801"><ele>566.0</ele><time>2026-05-01T08:35:55Z</time></trkpt><trkpt lat="43.81865923285675" lon="12.266616988527767"><ele>566.0</ele><time>2026-05-01T08:35:57Z</time></trkpt><trkpt lat="43.81859891031534" lon="12.266573988158001"><ele>566.0</ele><time>2026-05-01T08:35:58Z</time></trkpt><trkpt lat="43.81853323554688" lon="12.266527196036904"><ele>566.0</ele><time>2026-05-01T08:35:58.999Z</time></trkpt><trkpt lat="43.81846565216206" lon="12.26647890633873"><ele>566.0</ele><time>2026-05-01T08:35:59.999Z</time></trkpt><trkpt lat="43.81839571356981" lon="12.266426380837446"><ele>566.0</ele><time>2026-05-01T08:36:00.999Z</time></trkpt><trkpt lat="43.81832656467457" lon="12.266364645017802"><ele>564.4</ele><time>2026-05-01T08:36:01.999Z</time></trkpt><trkpt lat="43.818260179828776" lon="12.266290425336775"><ele>562.8</ele><time>2026-05-01T08:36:02.999Z</time></trkpt><trkpt lat="43.818199924363974" lon="12.266194392540395"><ele>561.1999999999999</ele><time>2026-05-01T08:36:03.999Z</time></trkpt><trkpt lat="43.818145744373" lon="12.266084768438654"><ele>559.6</ele><time>2026-05-01T08:36:04.999Z</time></trkpt><trkpt lat="43.81809431628252" lon="12.265966262511085"><ele>558.0</ele><time>2026-05-01T08:36:05.999Z</time></trkpt><trkpt lat="43.81803122321512" lon="12.265857457174471"><ele>558.0</ele><time>2026-05-01T08:36:06.999Z</time></trkpt><trkpt lat="43.817970927276505" lon="12.265739324145873"><ele>558.0</ele><time>2026-05-01T08:36:07.999Z</time></trkpt><trkpt lat="43.817909479834945" lon="12.265615048428064"><ele>558.0</ele><time>2026-05-01T08:36:08.999Z</time></trkpt><trkpt lat="43.817849750550714" lon="12.265491528826054"><ele>558.0</ele><time>2026-05-01T08:36:09.999Z</time></trkpt><trkpt lat="43.81779583646934" lon="12.265363756132766"><ele>558.0</ele><time>2026-05-01T08:36:10.999Z</time></trkpt><trkpt lat="43.81774507339044" lon="12.26523785113245"><ele>558.1999999999999</ele><time>2026-05-01T08:36:11.999Z</time></trkpt><trkpt lat="43.817704139569514" lon="12.265110847125559"><ele>558.4</ele><time>2026-05-01T08:36:12.999Z</time></trkpt><trkpt lat="43.81767287464734" lon="12.264986321993138"><ele>558.5999999999999</ele><time>2026-05-01T08:36:13.999Z</time></trkpt><trkpt lat="43.817650193873625" lon="12.264859796446126"><ele>558.8</ele><time>2026-05-01T08:36:14.999Z</time></trkpt><trkpt lat="43.817631351477985" lon="12.26472491482972"><ele>559.0</ele><time>2026-05-01T08:36:15.999Z</time></trkpt><trkpt lat="43.817614856668925" lon="12.264577417753914"><ele>558.8</ele><time>2026-05-01T08:36:16.999Z</time></trkpt><trkpt lat="43.817598546768544" lon="12.264437123774643"><ele>558.5999999999999</ele><time>2026-05-01T08:36:17.999Z</time></trkpt><trkpt lat="43.81758440262181" lon="12.264300882903056"><ele>558.4</ele><time>2026-05-01T08:36:18.999Z</time></trkpt><trkpt lat="43.81758176607564" lon="12.264154912472657"><ele>558.1999999999999</ele><time>2026-05-01T08:36:19.999Z</time></trkpt><trkpt lat="43.81759358905072" lon="12.263998539338296"><ele>558.0</ele><time>2026-05-01T08:36:20.999Z</time></trkpt><trkpt lat="43.81761952863185" lon="12.263837044014261"><ele>552.5</ele><time>2026-05-01T08:36:21.999Z</time></trkpt><trkpt lat="43.81765801281523" lon="12.263681748916007"><ele>547.0</ele><time>2026-05-01T08:36:22.999Z</time></trkpt><trkpt lat="43.81769707098859" lon="12.263543329502433"><ele>541.5</ele><time>2026-05-01T08:36:23.999Z</time></trkpt><trkpt lat="43.81773142600139" lon="12.263394201971467"><ele>536.0</ele><time>2026-05-01T08:36:24.999Z</time></trkpt><trkpt lat="43.81776086766177" lon="12.263230726318985"><ele>535.0</ele><time>2026-05-01T08:36:25.999Z</time></trkpt><trkpt lat="43.81777181881602" lon="12.263057155000247"><ele>534.0</ele><time>2026-05-01T08:36:26.999Z</time></trkpt><trkpt lat="43.81775052184326" lon="12.262881204167504"><ele>533.0</ele><time>2026-05-01T08:36:27.999Z</time></trkpt><trkpt lat="43.817717079881746" lon="12.262707375882385"><ele>532.0</ele><time>2026-05-01T08:36:28.999Z</time></trkpt><trkpt lat="43.81768665711099" lon="12.26252796439297"><ele>532.0</ele><time>2026-05-01T08:36:29.999Z</time></trkpt><trkpt lat="43.81765693009775" lon="12.26235047451594"><ele>532.0</ele><time>2026-05-01T08:36:30.999Z</time></trkpt><trkpt lat="43.81762295710992" lon="12.262178621717437"><ele>532.0</ele><time>2026-05-01T08:36:31.999Z</time></trkpt><trkpt lat="43.81757366016987" lon="12.262008590742672"><ele>532.0</ele><time>2026-05-01T08:36:32.999Z</time></trkpt><trkpt lat="43.817506557215474" lon="12.261846427105688"><ele>532.75</ele><time>2026-05-01T08:36:33.999Z</time></trkpt><trkpt lat="43.81742314247177" lon="12.261701293453505"><ele>533.5</ele><time>2026-05-01T08:36:34.999Z</time></trkpt><trkpt lat="43.817320039354506" lon="12.261576851793023"><ele>534.25</ele><time>2026-05-01T08:36:35.999Z</time></trkpt><trkpt lat="43.81720973101007" lon="12.261471465547118"><ele>535.0</ele><time>2026-05-01T08:36:36.999Z</time></trkpt><trkpt lat="43.81709821838247" lon="12.26137872098783"><ele>531.0</ele><time>2026-05-01T08:36:37.999Z</time></trkpt><trkpt lat="43.81698908768992" lon="12.261293663366802"><ele>527.0</ele><time>2026-05-01T08:36:38.999Z</time></trkpt><trkpt lat="43.81687881194735" lon="12.261227640893969"><ele>523.0</ele><time>2026-05-01T08:36:39.999Z</time></trkpt><trkpt lat="43.8167597399538" lon="12.261185186386486"><ele>519.0</ele><time>2026-05-01T08:36:40.999Z</time></trkpt><trkpt lat="43.8166356107101" lon="12.261160393802138"><ele>519.0</ele><time>2026-05-01T08:36:41.999Z</time></trkpt><trkpt lat="43.81650629372316" lon="12.261131989981507"><ele>519.0</ele><time>2026-05-01T08:36:42.999Z</time></trkpt><trkpt lat="43.81637544643995" lon="12.261100349614532"><ele>519.0</ele><time>2026-05-01T08:36:43.999Z</time></trkpt><trkpt lat="43.81624413555668" lon="12.26106268188762"><ele>519.0</ele><time>2026-05-01T08:36:44.999Z</time></trkpt><trkpt lat="43.816115287831686" lon="12.261023329352746"><ele>519.0</ele><time>2026-05-01T08:36:45.999Z</time></trkpt><trkpt lat="43.81599123548255" lon="12.26099948038259"><ele>519.0</ele><time>2026-05-01T08:36:46.999Z</time></trkpt><trkpt lat="43.815861797457394" lon="12.26101102490649"><ele>519.0</ele><time>2026-05-01T08:36:47.999Z</time></trkpt><trkpt lat="43.815733124140756" lon="12.261070017592473"><ele>519.0</ele><time>2026-05-01T08:36:48.999Z</time></trkpt><trkpt lat="43.81560481602777" lon="12.261146096943813"><ele>518.75</ele><time>2026-05-01T08:36:49.999Z</time></trkpt><trkpt lat="43.81548301724407" lon="12.261238181341335"><ele>518.5</ele><time>2026-05-01T08:36:50.999Z</time></trkpt><trkpt lat="43.81536472158354" lon="12.261337786221427"><ele>518.25</ele><time>2026-05-01T08:36:51.999Z</time></trkpt><trkpt lat="43.815249302481625" lon="12.261437965951012"><ele>518.0</ele><time>2026-05-01T08:36:52.999Z</time></trkpt><trkpt lat="43.81513899820486" lon="12.261530132389865"><ele>520.0</ele><time>2026-05-01T08:36:53.999Z</time></trkpt><trkpt lat="43.8150225320639" lon="12.261608513155522"><ele>522.0</ele><time>2026-05-01T08:36:54.999Z</time></trkpt><trkpt lat="43.81489398806784" lon="12.261671560311326"><ele>524.0</ele><time>2026-05-01T08:36:55.999Z</time></trkpt><trkpt lat="43.8147646870724" lon="12.261727100205714"><ele>526.0</ele><time>2026-05-01T08:36:56.999Z</time></trkpt><trkpt lat="43.8146372843798" lon="12.261778259172948"><ele>526.0</ele><time>2026-05-01T08:36:57.999Z</time></trkpt><trkpt lat="43.81451138986821" lon="12.261825165509649"><ele>526.0</ele><time>2026-05-01T08:36:58.999Z</time></trkpt><trkpt lat="43.814401006201095" lon="12.261864071983249"><ele>526.0</ele><time>2026-05-01T08:36:59.999Z</time></trkpt><trkpt lat="43.81430598404588" lon="12.261885014165815"><ele>526.0</ele><time>2026-05-01T08:37:00.999Z</time></trkpt><trkpt lat="43.814219128725064" lon="12.261872948419205"><ele>526.0</ele><time>2026-05-01T08:37:01.999Z</time></trkpt><trkpt lat="43.814139890476476" lon="12.261831248670266"><ele>523.0</ele><time>2026-05-01T08:37:02.999Z</time></trkpt><trkpt lat="43.81409109879954" lon="12.261735701607272"><ele>520.0</ele><time>2026-05-01T08:37:03.999Z</time></trkpt><trkpt lat="43.814093331141386" lon="12.261606612342632"><ele>517.0</ele><time>2026-05-01T08:37:04.999Z</time></trkpt><trkpt lat="43.81414395111359" lon="12.261471363958462"><ele>514.0</ele><time>2026-05-01T08:37:05.999Z</time></trkpt><trkpt lat="43.814211826830274" lon="12.261337353917893"><ele>511.0</ele><time>2026-05-01T08:37:06.998Z</time></trkpt><trkpt lat="43.81427785355126" lon="12.26118780228175"><ele>511.0</ele><time>2026-05-01T08:37:07.998Z</time></trkpt><trkpt lat="43.814346148051776" lon="12.261031697816716"><ele>511.0</ele><time>2026-05-01T08:37:08.998Z</time></trkpt><trkpt lat="43.81442116096841" lon="12.26086107859051"><ele>511.0</ele><time>2026-05-01T08:37:09.998Z</time></trkpt><trkpt lat="43.81450183217309" lon="12.260688176094233"><ele>511.0</ele><time>2026-05-01T08:37:10.998Z</time></trkpt><trkpt lat="43.81458530589853" lon="12.260518672828809"><ele>508.25</ele><time>2026-05-01T08:37:11.998Z</time></trkpt><trkpt lat="43.81468186825494" lon="12.260356879963195"><ele>505.5</ele><time>2026-05-01T08:37:12.998Z</time></trkpt><trkpt lat="43.81478901059988" lon="12.260219605477946"><ele>502.75</ele><time>2026-05-01T08:37:13.998Z</time></trkpt><trkpt lat="43.81489993626931" lon="12.260097142341934"><ele>500.0</ele><time>2026-05-01T08:37:14.998Z</time></trkpt><trkpt lat="43.81500396207851" lon="12.25997245383844"><ele>500.0</ele><time>2026-05-01T08:37:15.998Z</time></trkpt><trkpt lat="43.8151037923677" lon="12.259847458760406"><ele>500.0</ele><time>2026-05-01T08:37:16.998Z</time></trkpt><trkpt lat="43.8151853514578" lon="12.25971110727643"><ele>500.0</ele><time>2026-05-01T08:37:17.998Z</time></trkpt><trkpt lat="43.815231495394286" lon="12.259551412749842"><ele>500.0</ele><time>2026-05-01T08:37:19Z</time></trkpt><trkpt lat="43.81524341410577" lon="12.259383245839986"><ele>497.25</ele><time>2026-05-01T08:37:20Z</time></trkpt><trkpt lat="43.815226361264756" lon="12.259214868900001"><ele>494.5</ele><time>2026-05-01T08:37:21Z</time></trkpt><trkpt lat="43.815169437139645" lon="12.259065673268916"><ele>491.75</ele><time>2026-05-01T08:37:22Z</time></trkpt><trkpt lat="43.81507276860258" lon="12.258954710044316"><ele>489.0</ele><time>2026-05-01T08:37:23Z</time></trkpt><trkpt lat="43.81496152356721" lon="12.25887913472614"><ele>487.2</ele><time>2026-05-01T08:37:24Z</time></trkpt><trkpt lat="43.81485502011424" lon="12.258804254873763"><ele>485.4</ele><time>2026-05-01T08:37:25Z</time></trkpt><trkpt lat="43.81476459732693" lon="12.2587273443071"><ele>483.6</ele><time>2026-05-01T08:37:26Z</time></trkpt><trkpt lat="43.81470765342395" lon="12.258648289031463"><ele>481.8</ele><time>2026-05-01T08:37:27Z</time></trkpt><trkpt lat="43.81467992411911" lon="12.258547013170789"><ele>480.0</ele><time>2026-05-01T08:37:28Z</time></trkpt><trkpt lat="43.814702590354756" lon="12.258442515594217"><ele>480.0</ele><time>2026-05-01T08:37:29Z</time></trkpt><trkpt lat="43.81477064287276" lon="12.258370467765783"><ele>480.0</ele><time>2026-05-01T08:37:30Z</time></trkpt><trkpt lat="43.814870452080314" lon="12.258345738742548"><ele>480.0</ele><time>2026-05-01T08:37:31Z</time></trkpt><trkpt lat="43.81497949310959" lon="12.258339333721977"><ele>480.0</ele><time>2026-05-01T08:37:32Z</time></trkpt><trkpt lat="43.81509796767212" lon="12.258333857311534"><ele>480.0</ele><time>2026-05-01T08:37:33Z</time></trkpt><trkpt lat="43.81522703834689" lon="12.258324612082117"><ele>479.25</ele><time>2026-05-01T08:37:34Z</time></trkpt><trkpt lat="43.8153596434938" lon="12.25833389441652"><ele>478.5</ele><time>2026-05-01T08:37:35Z</time></trkpt><trkpt lat="43.81549587950314" lon="12.258362497208372"><ele>477.75</ele><time>2026-05-01T08:37:36Z</time></trkpt><trkpt lat="43.81563198621701" lon="12.258403709219944"><ele>477.0</ele><time>2026-05-01T08:37:37Z</time></trkpt><trkpt lat="43.81577008437221" lon="12.258455239787516"><ele>477.0</ele><time>2026-05-01T08:37:38Z</time></trkpt><trkpt lat="43.815903922810556" lon="12.258503921363332"><ele>477.0</ele><time>2026-05-01T08:37:39Z</time></trkpt><trkpt lat="43.81603296326122" lon="12.258538938149625"><ele>477.0</ele><time>2026-05-01T08:37:40Z</time></trkpt><trkpt lat="43.81616015057774" lon="12.25854554310778"><ele>477.0</ele><time>2026-05-01T08:37:41Z</time></trkpt><trkpt lat="43.816288085279766" lon="12.258515878599114"><ele>476.5</ele><time>2026-05-01T08:37:42Z</time></trkpt><trkpt lat="43.81641268106163" lon="12.258451004773397"><ele>476.0</ele><time>2026-05-01T08:37:43Z</time></trkpt><trkpt lat="43.81653537496993" lon="12.258354623118244"><ele>475.5</ele><time>2026-05-01T08:37:44Z</time></trkpt><trkpt lat="43.816653631850635" lon="12.258243305107547"><ele>475.0</ele><time>2026-05-01T08:37:45Z</time></trkpt><trkpt lat="43.81676425438188" lon="12.258119791177466"><ele>475.0</ele><time>2026-05-01T08:37:46Z</time></trkpt><trkpt lat="43.8168645244787" lon="12.257979235486948"><ele>475.0</ele><time>2026-05-01T08:37:47Z</time></trkpt><trkpt lat="43.81694856646807" lon="12.257821481121363"><ele>475.0</ele><time>2026-05-01T08:37:48Z</time></trkpt><trkpt lat="43.81701715870284" lon="12.257659651416647"><ele>475.0</ele><time>2026-05-01T08:37:49Z</time></trkpt><trkpt lat="43.817079825121176" lon="12.25750400463614"><ele>475.0</ele><time>2026-05-01T08:37:50Z</time></trkpt><trkpt lat="43.81713331112877" lon="12.257343994853551"><ele>475.0</ele><time>2026-05-01T08:37:51Z</time></trkpt><trkpt lat="43.81717514932658" lon="12.257174250129603"><ele>475.0</ele><time>2026-05-01T08:37:52Z</time></trkpt><trkpt lat="43.81720419305907" lon="12.256994233719094"><ele>475.0</ele><time>2026-05-01T08:37:53Z</time></trkpt><trkpt lat="43.8172383187995" lon="12.256813059960203"><ele>472.5</ele><time>2026-05-01T08:37:54Z</time></trkpt><trkpt lat="43.81729368967748" lon="12.256638640758226"><ele>470.0</ele><time>2026-05-01T08:37:55Z</time></trkpt><trkpt lat="43.81736780096492" lon="12.256479217778965"><ele>467.5</ele><time>2026-05-01T08:37:56Z</time></trkpt><trkpt lat="43.817440307192285" lon="12.256329971869674"><ele>465.0</ele><time>2026-05-01T08:37:57Z</time></trkpt><trkpt lat="43.81751069419089" lon="12.256192892366174"><ele>462.25</ele><time>2026-05-01T08:37:58Z</time></trkpt><trkpt lat="43.81759204479982" lon="12.256091514263943"><ele>459.5</ele><time>2026-05-01T08:37:59Z</time></trkpt><trkpt lat="43.817699956504775" lon="12.256040275441517"><ele>456.75</ele><time>2026-05-01T08:38:00Z</time></trkpt><trkpt lat="43.81782234700609" lon="12.256042527332859"><ele>454.0</ele><time>2026-05-01T08:38:01Z</time></trkpt><trkpt lat="43.81795092060886" lon="12.256067327889001"><ele>453.75</ele><time>2026-05-01T08:38:01.999Z</time></trkpt><trkpt lat="43.81808005804112" lon="12.256077283876404"><ele>453.5</ele><time>2026-05-01T08:38:02.999Z</time></trkpt><trkpt lat="43.818214137118645" lon="12.25605633478403"><ele>453.25</ele><time>2026-05-01T08:38:03.999Z</time></trkpt><trkpt lat="43.81835162495281" lon="12.256014675502144"><ele>453.0</ele><time>2026-05-01T08:38:04.999Z</time></trkpt><trkpt lat="43.81848859595547" lon="12.255961012172495"><ele>453.0</ele><time>2026-05-01T08:38:05.999Z</time></trkpt><trkpt lat="43.81862547079191" lon="12.255911882670858"><ele>453.0</ele><time>2026-05-01T08:38:06.999Z</time></trkpt><trkpt lat="43.818759663325864" lon="12.255864516934595"><ele>453.0</ele><time>2026-05-01T08:38:07.999Z</time></trkpt><trkpt lat="43.818885067095145" lon="12.255801626084725"><ele>453.0</ele><time>2026-05-01T08:38:08.999Z</time></trkpt><trkpt lat="43.81899955104203" lon="12.255713995372115"><ele>451.75</ele><time>2026-05-01T08:38:09.999Z</time></trkpt><trkpt lat="43.81910901406148" lon="12.255597316633281"><ele>450.5</ele><time>2026-05-01T08:38:10.999Z</time></trkpt><trkpt lat="43.81920521975057" lon="12.25546221531084"><ele>449.25</ele><time>2026-05-01T08:38:11.999Z</time></trkpt><trkpt lat="43.819292195773485" lon="12.255324033346946"><ele>448.0</ele><time>2026-05-01T08:38:12.999Z</time></trkpt><trkpt lat="43.81937157041779" lon="12.255185585738598"><ele>448.0</ele><time>2026-05-01T08:38:13.999Z</time></trkpt><trkpt lat="43.81943274190756" lon="12.255033734307228"><ele>448.0</ele><time>2026-05-01T08:38:14.999Z</time></trkpt><trkpt lat="43.819463402368854" lon="12.25487074437428"><ele>448.0</ele><time>2026-05-01T08:38:15.999Z</time></trkpt><trkpt lat="43.819461275090504" lon="12.254702181386225"><ele>448.0</ele><time>2026-05-01T08:38:16.999Z</time></trkpt><trkpt lat="43.81945093929751" lon="12.2545395834882"><ele>445.5</ele><time>2026-05-01T08:38:17.999Z</time></trkpt><trkpt lat="43.81944546765069" lon="12.254379516431664"><ele>443.0</ele><time>2026-05-01T08:38:18.999Z</time></trkpt><trkpt lat="43.819453601447904" lon="12.254216353530207"><ele>440.5</ele><time>2026-05-01T08:38:19.999Z</time></trkpt><trkpt lat="43.81948722566285" lon="12.254044455308943"><ele>438.0</ele><time>2026-05-01T08:38:20.999Z</time></trkpt><trkpt lat="43.81955012248125" lon="12.253883272466851"><ele>435.75</ele><time>2026-05-01T08:38:21.999Z</time></trkpt><trkpt lat="43.81964661777195" lon="12.253757983838081"><ele>433.5</ele><time>2026-05-01T08:38:22.999Z</time></trkpt><trkpt lat="43.81976342970201" lon="12.253670453383634"><ele>431.25</ele><time>2026-05-01T08:38:23.999Z</time></trkpt><trkpt lat="43.81988057113859" lon="12.253596797454263"><ele>429.0</ele><time>2026-05-01T08:38:24.999Z</time></trkpt><trkpt lat="43.8199875730609" lon="12.25351043139911"><ele>429.0</ele><time>2026-05-01T08:38:25.999Z</time></trkpt><trkpt lat="43.82007518673448" lon="12.253388761136577"><ele>429.0</ele><time>2026-05-01T08:38:26.999Z</time></trkpt><trkpt lat="43.82014951893751" lon="12.253237133353615"><ele>429.0</ele><time>2026-05-01T08:38:27.999Z</time></trkpt><trkpt lat="43.82021282141381" lon="12.253059574524686"><ele>429.0</ele><time>2026-05-01T08:38:28.999Z</time></trkpt><trkpt lat="43.82027345606404" lon="12.252877043181115"><ele>428.0</ele><time>2026-05-01T08:38:29.999Z</time></trkpt><trkpt lat="43.82033632142653" lon="12.252686649211125"><ele>427.0</ele><time>2026-05-01T08:38:30.999Z</time></trkpt><trkpt lat="43.82039952706434" lon="12.25249320413644"><ele>426.0</ele><time>2026-05-01T08:38:31.999Z</time></trkpt><trkpt lat="43.82046628861" lon="12.252294377289601"><ele>422.33333333333337</ele><time>2026-05-01T08:38:32.999Z</time></trkpt><trkpt lat="43.82053600147024" lon="12.252095582812881"><ele>418.6666666666667</ele><time>2026-05-01T08:38:33.999Z</time></trkpt><trkpt lat="43.82060437031969" lon="12.251894665335257"><ele>415.0</ele><time>2026-05-01T08:38:34.999Z</time></trkpt><trkpt lat="43.82066898536261" lon="12.251701339376943"><ele>415.0</ele><time>2026-05-01T08:38:35.999Z</time></trkpt><trkpt lat="43.82072957040178" lon="12.25151724676396"><ele>415.0</ele><time>2026-05-01T08:38:36.999Z</time></trkpt><trkpt lat="43.82078863234685" lon="12.251350164172672"><ele>415.0</ele><time>2026-05-01T08:38:37.999Z</time></trkpt><trkpt lat="43.82083125280871" lon="12.251204498626636"><ele>415.0</ele><time>2026-05-01T08:38:38.999Z</time></trkpt><trkpt lat="43.82083940647826" lon="12.251070744501252"><ele>413.4</ele><time>2026-05-01T08:38:39.999Z</time></trkpt><trkpt lat="43.820802609759426" lon="12.250961024465452"><ele>411.8</ele><time>2026-05-01T08:38:40.999Z</time></trkpt><trkpt lat="43.82072628529419" lon="12.250897879952191"><ele>410.20000000000005</ele><time>2026-05-01T08:38:41.999Z</time></trkpt><trkpt lat="43.82063459838097" lon="12.25088987260864"><ele>408.6</ele><time>2026-05-01T08:38:42.999Z</time></trkpt><trkpt lat="43.82054271732126" lon="12.250924386196218"><ele>407.0</ele><time>2026-05-01T08:38:43.999Z</time></trkpt><trkpt lat="43.820458567758756" lon="12.251011397265914"><ele>407.0</ele><time>2026-05-01T08:38:44.999Z</time></trkpt><trkpt lat="43.820379854609975" lon="12.251125065468758"><ele>407.0</ele><time>2026-05-01T08:38:45.999Z</time></trkpt><trkpt lat="43.82029982208265" lon="12.251247624025563"><ele>407.0</ele><time>2026-05-01T08:38:46.999Z</time></trkpt><trkpt lat="43.820210492373086" lon="12.25137252483217"><ele>407.0</ele><time>2026-05-01T08:38:47.999Z</time></trkpt><trkpt lat="43.82011977781406" lon="12.251501330386478"><ele>408.0</ele><time>2026-05-01T08:38:48.999Z</time></trkpt><trkpt lat="43.820025253236345" lon="12.251625449666049"><ele>409.0</ele><time>2026-05-01T08:38:49.999Z</time></trkpt><trkpt lat="43.81992504688568" lon="12.251741124135512"><ele>410.0</ele><time>2026-05-01T08:38:50.999Z</time></trkpt><trkpt lat="43.8198230699641" lon="12.251840239737364"><ele>411.0</ele><time>2026-05-01T08:38:51.999Z</time></trkpt><trkpt lat="43.819712336780235" lon="12.25191801522992"><ele>411.0</ele><time>2026-05-01T08:38:52.999Z</time></trkpt><trkpt lat="43.819589069673924" lon="12.251970931578196"><ele>411.0</ele><time>2026-05-01T08:38:53.999Z</time></trkpt><trkpt lat="43.81946255875981" lon="12.251992912116508"><ele>411.0</ele><time>2026-05-01T08:38:54.999Z</time></trkpt><trkpt lat="43.81934010912715" lon="12.251979018671555"><ele>411.0</ele><time>2026-05-01T08:38:55.999Z</time></trkpt><trkpt lat="43.819220380377075" lon="12.251937882853085"><ele>409.25</ele><time>2026-05-01T08:38:56.999Z</time></trkpt><trkpt lat="43.81910453715735" lon="12.251913077552137"><ele>407.5</ele><time>2026-05-01T08:38:57.999Z</time></trkpt><trkpt lat="43.81899098438728" lon="12.251927253854689"><ele>405.75</ele><time>2026-05-01T08:38:58.999Z</time></trkpt><trkpt lat="43.81887796529913" lon="12.251981052606073"><ele>404.0</ele><time>2026-05-01T08:38:59.999Z</time></trkpt><trkpt lat="43.81877379976406" lon="12.252078672168174"><ele>404.0</ele><time>2026-05-01T08:39:00.999Z</time></trkpt><trkpt lat="43.818671898612976" lon="12.252191325963814"><ele>404.0</ele><time>2026-05-01T08:39:01.999Z</time></trkpt><trkpt lat="43.81857818928491" lon="12.252302586403271"><ele>404.0</ele><time>2026-05-01T08:39:02.999Z</time></trkpt><trkpt lat="43.81848437026461" lon="12.252395322872209"><ele>404.0</ele><time>2026-05-01T08:39:03.999Z</time></trkpt><trkpt lat="43.81839435590484" lon="12.252445687769471"><ele>404.2</ele><time>2026-05-01T08:39:04.999Z</time></trkpt><trkpt lat="43.818302460216074" lon="12.25244420637444"><ele>404.4</ele><time>2026-05-01T08:39:05.999Z</time></trkpt><trkpt lat="43.81821854513094" lon="12.252383983526856"><ele>404.6</ele><time>2026-05-01T08:39:06.999Z</time></trkpt><trkpt lat="43.81816665480851" lon="12.252275555680674"><ele>404.8</ele><time>2026-05-01T08:39:07.999Z</time></trkpt><trkpt lat="43.81815672957009" lon="12.252145413901962"><ele>405.0</ele><time>2026-05-01T08:39:08.999Z</time></trkpt><trkpt lat="43.81819425650148" lon="12.252006385183881"><ele>402.5</ele><time>2026-05-01T08:39:09.999Z</time></trkpt><trkpt lat="43.81826192636302" lon="12.251882426546173"><ele>400.0</ele><time>2026-05-01T08:39:10.999Z</time></trkpt><trkpt lat="43.81833732879064" lon="12.251757366697694"><ele>397.5</ele><time>2026-05-01T08:39:11.999Z</time></trkpt><trkpt lat="43.81840736033009" lon="12.25163335804463"><ele>395.0</ele><time>2026-05-01T08:39:12.998Z</time></trkpt><trkpt lat="43.81848102050547" lon="12.251503220631353"><ele>394.75</ele><time>2026-05-01T08:39:13.998Z</time></trkpt><trkpt lat="43.818555594543305" lon="12.251367819831541"><ele>394.5</ele><time>2026-05-01T08:39:14.998Z</time></trkpt><trkpt lat="43.81862834841903" lon="12.251225392037018"><ele>394.25</ele><time>2026-05-01T08:39:15.998Z</time></trkpt><trkpt lat="43.818703703058766" lon="12.251075924257444"><ele>394.0</ele><time>2026-05-01T08:39:16.998Z</time></trkpt><trkpt lat="43.81878297598685" lon="12.250921703801968"><ele>394.0</ele><time>2026-05-01T08:39:17.998Z</time></trkpt><trkpt lat="43.818865701731845" lon="12.250769197422759"><ele>394.0</ele><time>2026-05-01T08:39:18.998Z</time></trkpt><trkpt lat="43.818948698399936" lon="12.250622228289807"><ele>394.0</ele><time>2026-05-01T08:39:19.998Z</time></trkpt><trkpt lat="43.81903590364391" lon="12.250472533870006"><ele>394.0</ele><time>2026-05-01T08:39:20.998Z</time></trkpt><trkpt lat="43.81911630544409" lon="12.250317213354563"><ele>392.25</ele><time>2026-05-01T08:39:21.998Z</time></trkpt><trkpt lat="43.81918501978753" lon="12.250155346361106"><ele>390.5</ele><time>2026-05-01T08:39:22.998Z</time></trkpt><trkpt lat="43.81924354019277" lon="12.249989926071164"><ele>388.75</ele><time>2026-05-01T08:39:23.998Z</time></trkpt><trkpt lat="43.81929806515336" lon="12.249821728226825"><ele>387.0</ele><time>2026-05-01T08:39:25Z</time></trkpt><trkpt lat="43.81935354156857" lon="12.2496542665738"><ele>386.25</ele><time>2026-05-01T08:39:26Z</time></trkpt><trkpt lat="43.81940628068762" lon="12.24948640338944"><ele>385.5</ele><time>2026-05-01T08:39:27Z</time></trkpt><trkpt lat="43.81945972648168" lon="12.249319644606855"><ele>384.75</ele><time>2026-05-01T08:39:28Z</time></trkpt><trkpt lat="43.819517709718674" lon="12.24915308407249"><ele>384.0</ele><time>2026-05-01T08:39:29Z</time></trkpt><trkpt lat="43.81958325018141" lon="12.248991252729146"><ele>381.25</ele><time>2026-05-01T08:39:30Z</time></trkpt><trkpt lat="43.819656041629955" lon="12.24883646937794"><ele>378.5</ele><time>2026-05-01T08:39:31Z</time></trkpt><trkpt lat="43.81972946233857" lon="12.248697182568185"><ele>375.75</ele><time>2026-05-01T08:39:32Z</time></trkpt><trkpt lat="43.81980133554365" lon="12.248572803866487"><ele>373.0</ele><time>2026-05-01T08:39:33Z</time></trkpt><trkpt lat="43.81987214046702" lon="12.24846248563996"><ele>373.0</ele><time>2026-05-01T08:39:34Z</time></trkpt><trkpt lat="43.81993534478693" lon="12.248362174031111"><ele>373.0</ele><time>2026-05-01T08:39:35Z</time></trkpt><trkpt lat="43.819987706851734" lon="12.248279081757767"><ele>373.0</ele><time>2026-05-01T08:39:36Z</time></trkpt><trkpt lat="43.82003048582518" lon="12.248212613867135"><ele>373.0</ele><time>2026-05-01T08:39:37Z</time></trkpt><trkpt lat="43.82007951388307" lon="12.248132505393054"><ele>373.0</ele><time>2026-05-01T08:39:39Z</time></trkpt><trkpt lat="43.82006922257026" lon="12.24800245926156"><ele>373.0</ele><time>2026-05-01T08:39:42Z</time></trkpt><trkpt lat="43.820015543341405" lon="12.247932645374618"><ele>371.4</ele><time>2026-05-01T08:39:43Z</time></trkpt><trkpt lat="43.81993896761605" lon="12.247819356607948"><ele>369.79999999999995</ele><time>2026-05-01T08:39:45Z</time></trkpt><trkpt lat="43.819889650249806" lon="12.24773359727448"><ele>368.2</ele><time>2026-05-01T08:39:46Z</time></trkpt><trkpt lat="43.819837191584526" lon="12.247629293077308"><ele>366.6</ele><time>2026-05-01T08:39:47Z</time></trkpt><trkpt lat="43.8197809874468" lon="12.247511971597397"><ele>365.0</ele><time>2026-05-01T08:39:48Z</time></trkpt><trkpt lat="43.81972143022749" lon="12.247393729293611"><ele>364.0</ele><time>2026-05-01T08:39:49Z</time></trkpt><trkpt lat="43.81965656533794" lon="12.247267184674168"><ele>363.0</ele><time>2026-05-01T08:39:50Z</time></trkpt><trkpt lat="43.81958950521836" lon="12.247140104735603"><ele>362.0</ele><time>2026-05-01T08:39:51Z</time></trkpt><trkpt lat="43.819520150948456" lon="12.247003320212807"><ele>361.0</ele><time>2026-05-01T08:39:52Z</time></trkpt><trkpt lat="43.81944645127718" lon="12.246856466546843"><ele>361.0</ele><time>2026-05-01T08:39:53Z</time></trkpt><trkpt lat="43.81937038917051" lon="12.246699113130731"><ele>361.0</ele><time>2026-05-01T08:39:54Z</time></trkpt><trkpt lat="43.81928907226396" lon="12.246531395271212"><ele>361.0</ele><time>2026-05-01T08:39:55Z</time></trkpt><trkpt lat="43.819202421556035" lon="12.2463623598229"><ele>361.0</ele><time>2026-05-01T08:39:56Z</time></trkpt><trkpt lat="43.81911163675518" lon="12.246192623824568"><ele>363.3333333333333</ele><time>2026-05-01T08:39:57Z</time></trkpt><trkpt lat="43.81902113175712" lon="12.246017153828362"><ele>365.6666666666667</ele><time>2026-05-01T08:39:58Z</time></trkpt><trkpt lat="43.818933514498326" lon="12.245833952584874"><ele>368.0</ele><time>2026-05-01T08:39:59Z</time></trkpt><trkpt lat="43.81884610579405" lon="12.24564641767584"><ele>366.6666666666667</ele><time>2026-05-01T08:40:00Z</time></trkpt><trkpt lat="43.818751695612676" lon="12.24546734427452"><ele>365.3333333333333</ele><time>2026-05-01T08:40:01Z</time></trkpt><trkpt lat="43.81864779501667" lon="12.24529587087367"><ele>364.0</ele><time>2026-05-01T08:40:02Z</time></trkpt><trkpt lat="43.81853409439067" lon="12.245137113323578"><ele>364.66666666666663</ele><time>2026-05-01T08:40:03Z</time></trkpt><trkpt lat="43.81841477403212" lon="12.244985844479832"><ele>365.3333333333333</ele><time>2026-05-01T08:40:04Z</time></trkpt><trkpt lat="43.81828687346082" lon="12.244851578212725"><ele>366.0</ele><time>2026-05-01T08:40:05Z</time></trkpt><trkpt lat="43.81815161365219" lon="12.244728747753063"><ele>366.0</ele><time>2026-05-01T08:40:06Z</time></trkpt><trkpt lat="43.818009627089474" lon="12.244619240706074"><ele>366.0</ele><time>2026-05-01T08:40:06.999Z</time></trkpt><trkpt lat="43.817864028164365" lon="12.244515486994025"><ele>366.0</ele><time>2026-05-01T08:40:07.999Z</time></trkpt><trkpt lat="43.81771619453535" lon="12.244415632227017"><ele>368.3333333333333</ele><time>2026-05-01T08:40:08.999Z</time></trkpt><trkpt lat="43.817566453882385" lon="12.244318588007182"><ele>370.66666666666663</ele><time>2026-05-01T08:40:09.999Z</time></trkpt><trkpt lat="43.817415363544626" lon="12.244221834166606"><ele>373.0</ele><time>2026-05-01T08:40:10.999Z</time></trkpt><trkpt lat="43.81726255385249" lon="12.244123841503598"><ele>373.0</ele><time>2026-05-01T08:40:11.999Z</time></trkpt><trkpt lat="43.81710824518678" lon="12.24402434971973"><ele>373.0</ele><time>2026-05-01T08:40:12.999Z</time></trkpt><trkpt lat="43.81695628436738" lon="12.243927289772525"><ele>373.0</ele><time>2026-05-01T08:40:13.999Z</time></trkpt><trkpt lat="43.81680259817084" lon="12.24383221329313"><ele>374.0</ele><time>2026-05-01T08:40:14.999Z</time></trkpt><trkpt lat="43.81664899884394" lon="12.243736798770211"><ele>375.0</ele><time>2026-05-01T08:40:15.999Z</time></trkpt><trkpt lat="43.816495867851486" lon="12.24363958976144"><ele>376.0</ele><time>2026-05-01T08:40:16.999Z</time></trkpt><trkpt lat="43.81634354331508" lon="12.243543474875896"><ele>376.0</ele><time>2026-05-01T08:40:17.999Z</time></trkpt><trkpt lat="43.816193206342724" lon="12.24344892047366"><ele>376.0</ele><time>2026-05-01T08:40:18.999Z</time></trkpt><trkpt lat="43.816045817991736" lon="12.243353200091036"><ele>376.0</ele><time>2026-05-01T08:40:19.999Z</time></trkpt><trkpt lat="43.81590036369173" lon="12.243257507528352"><ele>375.3333333333333</ele><time>2026-05-01T08:40:20.999Z</time></trkpt><trkpt lat="43.8157567292028" lon="12.2431652832568"><ele>374.6666666666667</ele><time>2026-05-01T08:40:21.999Z</time></trkpt><trkpt lat="43.81561463631592" lon="12.243077730657141"><ele>374.0</ele><time>2026-05-01T08:40:22.999Z</time></trkpt><trkpt lat="43.81547361715494" lon="12.242991733883898"><ele>374.0</ele><time>2026-05-01T08:40:23.999Z</time></trkpt><trkpt lat="43.8153375052225" lon="12.242904658053288"><ele>374.0</ele><time>2026-05-01T08:40:24.999Z</time></trkpt><trkpt lat="43.81520241485151" lon="12.24281613055192"><ele>374.0</ele><time>2026-05-01T08:40:25.999Z</time></trkpt><trkpt lat="43.815066956795874" lon="12.242726276015174"><ele>376.6666666666667</ele><time>2026-05-01T08:40:26.999Z</time></trkpt><trkpt lat="43.81492991379077" lon="12.24263910387943"><ele>379.3333333333333</ele><time>2026-05-01T08:40:27.999Z</time></trkpt><trkpt lat="43.81479171528214" lon="12.24255270306137"><ele>382.0</ele><time>2026-05-01T08:40:28.999Z</time></trkpt><trkpt lat="43.81465296113659" lon="12.242464771164839"><ele>382.0</ele><time>2026-05-01T08:40:29.999Z</time></trkpt><trkpt lat="43.81451285604078" lon="12.242377217116607"><ele>382.0</ele><time>2026-05-01T08:40:30.999Z</time></trkpt><trkpt lat="43.81437106190258" lon="12.242288829990366"><ele>382.0</ele><time>2026-05-01T08:40:31.999Z</time></trkpt><trkpt lat="43.814228472076266" lon="12.242199417936956"><ele>381.5</ele><time>2026-05-01T08:40:32.999Z</time></trkpt><trkpt lat="43.814088976994675" lon="12.242114053110516"><ele>381.0</ele><time>2026-05-01T08:40:33.999Z</time></trkpt><trkpt lat="43.8139600432429" lon="12.242032096011862"><ele>380.5</ele><time>2026-05-01T08:40:34.999Z</time></trkpt><trkpt lat="43.81383415701205" lon="12.241951770988052"><ele>380.0</ele><time>2026-05-01T08:40:35.999Z</time></trkpt><trkpt lat="43.81371067753158" lon="12.241878269525213"><ele>380.0</ele><time>2026-05-01T08:40:36.999Z</time></trkpt><trkpt lat="43.81357871750225" lon="12.241815359582763"><ele>380.0</ele><time>2026-05-01T08:40:37.999Z</time></trkpt><trkpt lat="43.81345018809229" lon="12.241785624608278"><ele>380.0</ele><time>2026-05-01T08:40:38.999Z</time></trkpt><trkpt lat="43.8133133553736" lon="12.241790580729129"><ele>380.0</ele><time>2026-05-01T08:40:39.999Z</time></trkpt><trkpt lat="43.81318048158491" lon="12.241814852944321"><ele>381.5</ele><time>2026-05-01T08:40:40.999Z</time></trkpt><trkpt lat="43.81305067174021" lon="12.241858172739487"><ele>383.0</ele><time>2026-05-01T08:40:41.999Z</time></trkpt><trkpt lat="43.81292393380544" lon="12.241917766975043"><ele>384.5</ele><time>2026-05-01T08:40:42.999Z</time></trkpt><trkpt lat="43.81280352962155" lon="12.24199930386582"><ele>386.0</ele><time>2026-05-01T08:40:43.999Z</time></trkpt><trkpt lat="43.81269036510248" lon="12.242090317142447"><ele>387.0</ele><time>2026-05-01T08:40:44.999Z</time></trkpt><trkpt lat="43.81258990963166" lon="12.242178530883317"><ele>388.0</ele><time>2026-05-01T08:40:45.999Z</time></trkpt><trkpt lat="43.81248799203678" lon="12.242255105136568"><ele>389.0</ele><time>2026-05-01T08:40:46.999Z</time></trkpt><trkpt lat="43.812378186719705" lon="12.242311739287265"><ele>390.0</ele><time>2026-05-01T08:40:47.999Z</time></trkpt><trkpt lat="43.812264170043484" lon="12.242355875944153"><ele>389.5</ele><time>2026-05-01T08:40:48.999Z</time></trkpt><trkpt lat="43.81214913684035" lon="12.242390367475839"><ele>389.0</ele><time>2026-05-01T08:40:49.999Z</time></trkpt><trkpt lat="43.81203213511439" lon="12.242396938315798"><ele>388.5</ele><time>2026-05-01T08:40:50.999Z</time></trkpt><trkpt lat="43.81191466869334" lon="12.242380998180787"><ele>388.0</ele><time>2026-05-01T08:40:51.999Z</time></trkpt><trkpt lat="43.81179809963868" lon="12.242340670000296"><ele>387.5</ele><time>2026-05-01T08:40:52.999Z</time></trkpt><trkpt lat="43.81168078144502" lon="12.242287961239416"><ele>387.0</ele><time>2026-05-01T08:40:53.999Z</time></trkpt><trkpt lat="43.81155805226855" lon="12.242236047912115"><ele>386.5</ele><time>2026-05-01T08:40:54.999Z</time></trkpt><trkpt lat="43.81143006125146" lon="12.242180495774985"><ele>386.0</ele><time>2026-05-01T08:40:55.999Z</time></trkpt><trkpt lat="43.81129862905522" lon="12.24211725880249"><ele>386.0</ele><time>2026-05-01T08:40:56.999Z</time></trkpt><trkpt lat="43.81116133092261" lon="12.24205245767798"><ele>386.0</ele><time>2026-05-01T08:40:57.999Z</time></trkpt><trkpt lat="43.81101903012201" lon="12.241988618683571"><ele>386.0</ele><time>2026-05-01T08:40:58.999Z</time></trkpt><trkpt lat="43.8108778154279" lon="12.241924899866358"><ele>386.0</ele><time>2026-05-01T08:40:59.999Z</time></trkpt><trkpt lat="43.81073577917769" lon="12.2418612663322"><ele>386.25</ele><time>2026-05-01T08:41:00.999Z</time></trkpt><trkpt lat="43.81059097550149" lon="12.241801473032186"><ele>386.5</ele><time>2026-05-01T08:41:01.999Z</time></trkpt><trkpt lat="43.81045185880369" lon="12.241740013358132"><ele>386.75</ele><time>2026-05-01T08:41:02.999Z</time></trkpt><trkpt lat="43.810317741922226" lon="12.241678996859344"><ele>387.0</ele><time>2026-05-01T08:41:03.999Z</time></trkpt><trkpt lat="43.81018675077561" lon="12.241616419131772"><ele>387.0</ele><time>2026-05-01T08:41:04.999Z</time></trkpt><trkpt lat="43.81005284595703" lon="12.241553051880588"><ele>387.0</ele><time>2026-05-01T08:41:05.999Z</time></trkpt><trkpt lat="43.809918591887126" lon="12.24148790740221"><ele>387.0</ele><time>2026-05-01T08:41:06.999Z</time></trkpt><trkpt lat="43.80978355038266" lon="12.241422580123547"><ele>387.0</ele><time>2026-05-01T08:41:07.999Z</time></trkpt><trkpt lat="43.80964816346764" lon="12.241360579086209"><ele>387.0</ele><time>2026-05-01T08:41:08.999Z</time></trkpt><trkpt lat="43.80952252837176" lon="12.24129294632647"><ele>387.0</ele><time>2026-05-01T08:41:09.999Z</time></trkpt><trkpt lat="43.80940776708272" lon="12.241206517189159"><ele>387.0</ele><time>2026-05-01T08:41:10.999Z</time></trkpt><trkpt lat="43.80930909855147" lon="12.241104634966046"><ele>387.0</ele><time>2026-05-01T08:41:11.999Z</time></trkpt><trkpt lat="43.80921981665798" lon="12.24099383669818"><ele>388.75</ele><time>2026-05-01T08:41:12.999Z</time></trkpt><trkpt lat="43.80913726950519" lon="12.240868058335181"><ele>390.5</ele><time>2026-05-01T08:41:13.999Z</time></trkpt><trkpt lat="43.80906668474888" lon="12.240725541844581"><ele>392.25</ele><time>2026-05-01T08:41:14.999Z</time></trkpt><trkpt lat="43.8090102413516" lon="12.240572280496552"><ele>394.0</ele><time>2026-05-01T08:41:15.999Z</time></trkpt><trkpt lat="43.8089699310748" lon="12.240418975708861"><ele>394.0</ele><time>2026-05-01T08:41:16.999Z</time></trkpt><trkpt lat="43.808934921616675" lon="12.240265094113543"><ele>394.0</ele><time>2026-05-01T08:41:17.999Z</time></trkpt><trkpt lat="43.80891073567645" lon="12.240100698414249"><ele>394.0</ele><time>2026-05-01T08:41:18.999Z</time></trkpt><trkpt lat="43.808912041557555" lon="12.239928792000013"><ele>394.0</ele><time>2026-05-01T08:41:19.999Z</time></trkpt><trkpt lat="43.80892112952421" lon="12.239761730608054"><ele>395.25</ele><time>2026-05-01T08:41:20.999Z</time></trkpt><trkpt lat="43.80893543301051" lon="12.23959145162873"><ele>396.5</ele><time>2026-05-01T08:41:21.998Z</time></trkpt><trkpt lat="43.80896434100391" lon="12.239424217413356"><ele>397.75</ele><time>2026-05-01T08:41:22.998Z</time></trkpt><trkpt lat="43.809004123829496" lon="12.239262787500781"><ele>399.0</ele><time>2026-05-01T08:41:23.998Z</time></trkpt><trkpt lat="43.80905623662865" lon="12.239105351391599"><ele>398.75</ele><time>2026-05-01T08:41:24.998Z</time></trkpt><trkpt lat="43.809119785092115" lon="12.238957796532668"><ele>398.5</ele><time>2026-05-01T08:41:25.998Z</time></trkpt><trkpt lat="43.80919269567878" lon="12.238820065368518"><ele>398.25</ele><time>2026-05-01T08:41:26.998Z</time></trkpt><trkpt lat="43.8092793699068" lon="12.238696827134874"><ele>398.0</ele><time>2026-05-01T08:41:27.998Z</time></trkpt><trkpt lat="43.809376018066" lon="12.238584318670187"><ele>398.0</ele><time>2026-05-01T08:41:28.998Z</time></trkpt><trkpt lat="43.809477700349866" lon="12.23847706825597"><ele>398.0</ele><time>2026-05-01T08:41:29.998Z</time></trkpt><trkpt lat="43.80958246830168" lon="12.23836786427369"><ele>398.0</ele><time>2026-05-01T08:41:31Z</time></trkpt><trkpt lat="43.80969740028919" lon="12.238268106400227"><ele>398.0</ele><time>2026-05-01T08:41:32Z</time></trkpt><trkpt lat="43.8098146641667" lon="12.238170507090368"><ele>396.5</ele><time>2026-05-01T08:41:33Z</time></trkpt><trkpt lat="43.80993350895993" lon="12.238077190082825"><ele>395.0</ele><time>2026-05-01T08:41:34Z</time></trkpt><trkpt lat="43.810047477991844" lon="12.237989672178852"><ele>393.5</ele><time>2026-05-01T08:41:35Z</time></trkpt><trkpt lat="43.81015566388937" lon="12.237905228434489"><ele>392.0</ele><time>2026-05-01T08:41:36Z</time></trkpt><trkpt lat="43.810256094741646" lon="12.237820486027848"><ele>392.0</ele><time>2026-05-01T08:41:37Z</time></trkpt><trkpt lat="43.81034231502614" lon="12.237725216856504"><ele>392.0</ele><time>2026-05-01T08:41:38Z</time></trkpt><trkpt lat="43.8104128087565" lon="12.237607297795334"><ele>392.0</ele><time>2026-05-01T08:41:39Z</time></trkpt><trkpt lat="43.81046426851263" lon="12.237469087753263"><ele>392.0</ele><time>2026-05-01T08:41:40Z</time></trkpt><trkpt lat="43.81048730190516" lon="12.237320259564104"><ele>392.0</ele><time>2026-05-01T08:41:41Z</time></trkpt><trkpt lat="43.810474150009014" lon="12.23717188161249"><ele>390.8</ele><time>2026-05-01T08:41:42Z</time></trkpt><trkpt lat="43.810427859322466" lon="12.237033636806844"><ele>389.6</ele><time>2026-05-01T08:41:43Z</time></trkpt><trkpt lat="43.81035957372744" lon="12.236910860138654"><ele>388.40000000000003</ele><time>2026-05-01T08:41:44Z</time></trkpt><trkpt lat="43.8102789661743" lon="12.236803856691417"><ele>387.20000000000005</ele><time>2026-05-01T08:41:45Z</time></trkpt><trkpt lat="43.810186512166226" lon="12.236712323059479"><ele>386.0</ele><time>2026-05-01T08:41:46Z</time></trkpt><trkpt lat="43.810081562489025" lon="12.236639603464942"><ele>388.0</ele><time>2026-05-01T08:41:47Z</time></trkpt><trkpt lat="43.80997375264566" lon="12.236570536279174"><ele>390.0</ele><time>2026-05-01T08:41:48Z</time></trkpt><trkpt lat="43.809871333539036" lon="12.236494056923457"><ele>392.0</ele><time>2026-05-01T08:41:49Z</time></trkpt><trkpt lat="43.80978365161501" lon="12.236413213679063"><ele>394.0</ele><time>2026-05-01T08:41:50Z</time></trkpt><trkpt lat="43.80970730410184" lon="12.236319667376563"><ele>396.0</ele><time>2026-05-01T08:41:51Z</time></trkpt><trkpt lat="43.80964147549624" lon="12.23620508115052"><ele>396.0</ele><time>2026-05-01T08:41:52Z</time></trkpt><trkpt lat="43.80959140049234" lon="12.236066588580297"><ele>396.0</ele><time>2026-05-01T08:41:53Z</time></trkpt><trkpt lat="43.809554201060294" lon="12.235915286605316"><ele>396.0</ele><time>2026-05-01T08:41:54Z</time></trkpt><trkpt lat="43.80953045703066" lon="12.235753217784548"><ele>396.0</ele><time>2026-05-01T08:41:55Z</time></trkpt><trkpt lat="43.80952043248281" lon="12.235584278643497"><ele>396.75</ele><time>2026-05-01T08:41:56Z</time></trkpt><trkpt lat="43.80952064168676" lon="12.23540816855141"><ele>397.5</ele><time>2026-05-01T08:41:57Z</time></trkpt><trkpt lat="43.809523997842426" lon="12.235225007922857"><ele>398.25</ele><time>2026-05-01T08:41:58Z</time></trkpt><trkpt lat="43.809522578762554" lon="12.235036728458601"><ele>399.0</ele><time>2026-05-01T08:41:59Z</time></trkpt><trkpt lat="43.80952219865671" lon="12.234849521018193"><ele>398.25</ele><time>2026-05-01T08:42:00Z</time></trkpt><trkpt lat="43.8095268451516" lon="12.234660214290562"><ele>397.5</ele><time>2026-05-01T08:42:01Z</time></trkpt><trkpt lat="43.809527303376754" lon="12.234470516140886"><ele>396.75</ele><time>2026-05-01T08:42:02Z</time></trkpt><trkpt lat="43.80952817555346" lon="12.234298832579594"><ele>396.0</ele><time>2026-05-01T08:42:03Z</time></trkpt><trkpt lat="43.80952193444014" lon="12.234143706465133"><ele>396.0</ele><time>2026-05-01T08:42:04Z</time></trkpt><trkpt lat="43.80949677718566" lon="12.233990955738156"><ele>396.0</ele><time>2026-05-01T08:42:05Z</time></trkpt><trkpt lat="43.8094545959713" lon="12.233839061345748"><ele>396.0</ele><time>2026-05-01T08:42:06Z</time></trkpt><trkpt lat="43.80939206184595" lon="12.23370518426625"><ele>396.0</ele><time>2026-05-01T08:42:07Z</time></trkpt><trkpt lat="43.809317670511874" lon="12.233596097222147"><ele>399.6</ele><time>2026-05-01T08:42:08Z</time></trkpt><trkpt lat="43.809247661362456" lon="12.233493397980164"><ele>403.20000000000005</ele><time>2026-05-01T08:42:09Z</time></trkpt><trkpt lat="43.8091824798299" lon="12.233391255382873"><ele>406.79999999999995</ele><time>2026-05-01T08:42:10Z</time></trkpt><trkpt lat="43.8091273410158" lon="12.233277149460914"><ele>410.4</ele><time>2026-05-01T08:42:11Z</time></trkpt><trkpt lat="43.809081936206" lon="12.233148202390318"><ele>414.0</ele><time>2026-05-01T08:42:12Z</time></trkpt><trkpt lat="43.809038167480736" lon="12.233010298268102"><ele>414.0</ele><time>2026-05-01T08:42:13Z</time></trkpt><trkpt lat="43.80900647512091" lon="12.232859395194103"><ele>414.0</ele><time>2026-05-01T08:42:13.999Z</time></trkpt><trkpt lat="43.80899551315671" lon="12.23269740246748"><ele>414.0</ele><time>2026-05-01T08:42:14.999Z</time></trkpt><trkpt lat="43.809001982210205" lon="12.232527550858604"><ele>414.0</ele><time>2026-05-01T08:42:15.999Z</time></trkpt><trkpt lat="43.80903082884415" lon="12.232356120739077"><ele>415.75</ele><time>2026-05-01T08:42:16.999Z</time></trkpt><trkpt lat="43.809060720864565" lon="12.232175648579009"><ele>417.5</ele><time>2026-05-01T08:42:17.999Z</time></trkpt><trkpt lat="43.80909072342857" lon="12.231991134763353"><ele>419.25</ele><time>2026-05-01T08:42:18.999Z</time></trkpt><trkpt lat="43.80912020292733" lon="12.231805555895061"><ele>421.0</ele><time>2026-05-01T08:42:19.999Z</time></trkpt><trkpt lat="43.80914602500919" lon="12.231616981133351"><ele>424.0</ele><time>2026-05-01T08:42:20.999Z</time></trkpt><trkpt lat="43.809166118607344" lon="12.231427810167364"><ele>427.0</ele><time>2026-05-01T08:42:21.999Z</time></trkpt><trkpt lat="43.809189662602066" lon="12.231236404540617"><ele>430.0</ele><time>2026-05-01T08:42:22.999Z</time></trkpt><trkpt lat="43.80921601328199" lon="12.231042949162891"><ele>433.0</ele><time>2026-05-01T08:42:23.999Z</time></trkpt><trkpt lat="43.809252054825784" lon="12.230851469707948"><ele>433.0</ele><time>2026-05-01T08:42:24.999Z</time></trkpt><trkpt lat="43.8092992788986" lon="12.230666715558012"><ele>433.0</ele><time>2026-05-01T08:42:25.999Z</time></trkpt><trkpt lat="43.80935488158408" lon="12.230498569381787"><ele>433.0</ele><time>2026-05-01T08:42:26.999Z</time></trkpt><trkpt lat="43.809418718088956" lon="12.23033515679626"><ele>433.0</ele><time>2026-05-01T08:42:27.999Z</time></trkpt><trkpt lat="43.80948225958432" lon="12.230175141264082"><ele>423.0</ele><time>2026-05-01T08:42:28.999Z</time></trkpt><trkpt lat="43.80953333570135" lon="12.23002540534047"><ele>413.0</ele><time>2026-05-01T08:42:29.999Z</time></trkpt><trkpt lat="43.809561544633745" lon="12.229865331017995"><ele>403.0</ele><time>2026-05-01T08:42:30.999Z</time></trkpt><trkpt lat="43.80957076692686" lon="12.229700386323538"><ele>393.0</ele><time>2026-05-01T08:42:31.999Z</time></trkpt><trkpt lat="43.809564967930356" lon="12.229535813806455"><ele>393.0</ele><time>2026-05-01T08:42:32.999Z</time></trkpt><trkpt lat="43.80956179209525" lon="12.229384760520759"><ele>393.0</ele><time>2026-05-01T08:42:33.999Z</time></trkpt><trkpt lat="43.80955143170262" lon="12.229241259127265"><ele>393.0</ele><time>2026-05-01T08:42:34.999Z</time></trkpt><trkpt lat="43.80952082070993" lon="12.229094713965532"><ele>393.0</ele><time>2026-05-01T08:42:35.999Z</time></trkpt><trkpt lat="43.80944889371968" lon="12.228955349312402"><ele>393.0</ele><time>2026-05-01T08:42:36.999Z</time></trkpt><trkpt lat="43.80934965575147" lon="12.22881196723469"><ele>399.25</ele><time>2026-05-01T08:42:37.999Z</time></trkpt><trkpt lat="43.80924547289763" lon="12.228667885985574"><ele>405.5</ele><time>2026-05-01T08:42:38.999Z</time></trkpt><trkpt lat="43.80916149536581" lon="12.228531548726297"><ele>411.75</ele><time>2026-05-01T08:42:39.999Z</time></trkpt><trkpt lat="43.80907715736038" lon="12.228397865403448"><ele>418.0</ele><time>2026-05-01T08:42:40.999Z</time></trkpt><trkpt lat="43.80898950739833" lon="12.22826956280106"><ele>418.0</ele><time>2026-05-01T08:42:41.999Z</time></trkpt><trkpt lat="43.80891110629514" lon="12.228151044843782"><ele>418.0</ele><time>2026-05-01T08:42:42.999Z</time></trkpt><trkpt lat="43.80883268970964" lon="12.228032255848753"><ele>418.0</ele><time>2026-05-01T08:42:43.999Z</time></trkpt><trkpt lat="43.8087506690365" lon="12.227909624554652"><ele>418.0</ele><time>2026-05-01T08:42:44.999Z</time></trkpt><trkpt lat="43.808664151602514" lon="12.227787288929349"><ele>416.0</ele><time>2026-05-01T08:42:45.999Z</time></trkpt><trkpt lat="43.80857546992401" lon="12.227656513480683"><ele>414.0</ele><time>2026-05-01T08:42:46.999Z</time></trkpt><trkpt lat="43.808481389423804" lon="12.227529231572007"><ele>412.0</ele><time>2026-05-01T08:42:47.999Z</time></trkpt><trkpt lat="43.80838543788477" lon="12.227406812810818"><ele>410.0</ele><time>2026-05-01T08:42:48.999Z</time></trkpt><trkpt lat="43.808279391101934" lon="12.227289463978755"><ele>410.0</ele><time>2026-05-01T08:42:49.999Z</time></trkpt><trkpt lat="43.80817635815689" lon="12.227168518991391"><ele>410.0</ele><time>2026-05-01T08:42:50.999Z</time></trkpt><trkpt lat="43.8080616769287" lon="12.22707100014524"><ele>410.0</ele><time>2026-05-01T08:42:51.999Z</time></trkpt><trkpt lat="43.807938753258554" lon="12.226990823863762"><ele>410.0</ele><time>2026-05-01T08:42:52.999Z</time></trkpt><trkpt lat="43.80781065182074" lon="12.226925667018312"><ele>410.0</ele><time>2026-05-01T08:42:53.999Z</time></trkpt><trkpt lat="43.80768594745195" lon="12.22685840165408"><ele>410.0</ele><time>2026-05-01T08:42:54.999Z</time></trkpt><trkpt lat="43.80757077828265" lon="12.226794722464701"><ele>410.0</ele><time>2026-05-01T08:42:55.999Z</time></trkpt><trkpt lat="43.807459934787246" lon="12.226729369434146"><ele>410.0</ele><time>2026-05-01T08:42:56.999Z</time></trkpt><trkpt lat="43.80735785671619" lon="12.22667668434029"><ele>413.6</ele><time>2026-05-01T08:42:57.999Z</time></trkpt><trkpt lat="43.807261069452146" lon="12.226629363067795"><ele>417.2</ele><time>2026-05-01T08:42:58.999Z</time></trkpt><trkpt lat="43.80716074546351" lon="12.22659720790875"><ele>420.79999999999995</ele><time>2026-05-01T08:42:59.999Z</time></trkpt><trkpt lat="43.807050850751594" lon="12.226594024461312"><ele>424.4</ele><time>2026-05-01T08:43:00.999Z</time></trkpt><trkpt lat="43.80693516490397" lon="12.226629120032133"><ele>428.0</ele><time>2026-05-01T08:43:01.999Z</time></trkpt><trkpt lat="43.806820988762006" lon="12.226678918954702"><ele>428.25</ele><time>2026-05-01T08:43:02.999Z</time></trkpt><trkpt lat="43.80670683830733" lon="12.226741194104576"><ele>428.5</ele><time>2026-05-01T08:43:03.999Z</time></trkpt><trkpt lat="43.80659395382888" lon="12.226816891446617"><ele>428.75</ele><time>2026-05-01T08:43:04.999Z</time></trkpt><trkpt lat="43.806480291965585" lon="12.226893690668215"><ele>429.0</ele><time>2026-05-01T08:43:05.999Z</time></trkpt><trkpt lat="43.80636649016082" lon="12.226963859026865"><ele>429.0</ele><time>2026-05-01T08:43:06.999Z</time></trkpt><trkpt lat="43.80625197542695" lon="12.227024830715822"><ele>429.0</ele><time>2026-05-01T08:43:07.999Z</time></trkpt><trkpt lat="43.806137531616024" lon="12.227075430371999"><ele>429.0</ele><time>2026-05-01T08:43:08.999Z</time></trkpt><trkpt lat="43.80601731011879" lon="12.22711210660546"><ele>429.0</ele><time>2026-05-01T08:43:09.999Z</time></trkpt><trkpt lat="43.805900455204494" lon="12.227147279164033"><ele>429.79999999999995</ele><time>2026-05-01T08:43:10.999Z</time></trkpt><trkpt lat="43.80578748130455" lon="12.227181122326423"><ele>430.59999999999997</ele><time>2026-05-01T08:43:11.999Z</time></trkpt><trkpt lat="43.80568683746287" lon="12.22720724335599"><ele>431.4</ele><time>2026-05-01T08:43:12.999Z</time></trkpt><trkpt lat="43.80559828202595" lon="12.227225160349054"><ele>432.2</ele><time>2026-05-01T08:43:13.999Z</time></trkpt><trkpt lat="43.80551572667757" lon="12.227230224966021"><ele>433.0</ele><time>2026-05-01T08:43:14.999Z</time></trkpt><trkpt lat="43.8054382983834" lon="12.227206214260848"><ele>433.00000000000006</ele><time>2026-05-01T08:43:15.999Z</time></trkpt><trkpt lat="43.805373371719945" lon="12.227159990488232"><ele>433.0</ele><time>2026-05-01T08:43:16.999Z</time></trkpt><trkpt lat="43.80532444087181" lon="12.22708687633704"><ele>433.0</ele><time>2026-05-01T08:43:17.999Z</time></trkpt><trkpt lat="43.80530709531856" lon="12.226967495683832"><ele>433.0</ele><time>2026-05-01T08:43:18.999Z</time></trkpt><trkpt lat="43.80531976984857" lon="12.22684282597483"><ele>433.00000000000006</ele><time>2026-05-01T08:43:19.999Z</time></trkpt><trkpt lat="43.80534803147429" lon="12.22672721116829"><ele>433.0</ele><time>2026-05-01T08:43:20.999Z</time></trkpt><trkpt lat="43.805380745263946" lon="12.226612392507434"><ele>433.0</ele><time>2026-05-01T08:43:21.999Z</time></trkpt><trkpt lat="43.80541388295549" lon="12.2264876718272"><ele>432.99999999999994</ele><time>2026-05-01T08:43:22.999Z</time></trkpt><trkpt lat="43.80544271678276" lon="12.226363220772603"><ele>432.99999999999994</ele><time>2026-05-01T08:43:23.999Z</time></trkpt><trkpt lat="43.805473071954054" lon="12.22623463593023"><ele>433.0</ele><time>2026-05-01T08:43:24.999Z</time></trkpt><trkpt lat="43.80549119045761" lon="12.226117159643554"><ele>433.0</ele><time>2026-05-01T08:43:25.999Z</time></trkpt><trkpt lat="43.80551115159954" lon="12.225995971532345"><ele>431.2</ele><time>2026-05-01T08:43:26.999Z</time></trkpt><trkpt lat="43.80551268132099" lon="12.225870567133391"><ele>429.4</ele><time>2026-05-01T08:43:27.999Z</time></trkpt><trkpt lat="43.80548135259664" lon="12.225749675981824"><ele>427.59999999999997</ele><time>2026-05-01T08:43:28.999Z</time></trkpt><trkpt lat="43.805419120555044" lon="12.22565316184356"><ele>425.79999999999995</ele><time>2026-05-01T08:43:29.999Z</time></trkpt><trkpt lat="43.805329604575526" lon="12.225587197404344"><ele>424.0</ele><time>2026-05-01T08:43:30.999Z</time></trkpt><trkpt lat="43.80523459799379" lon="12.22552445648215"><ele>425.0</ele><time>2026-05-01T08:43:31.999Z</time></trkpt><trkpt lat="43.80513879937642" lon="12.225454201581144"><ele>426.0</ele><time>2026-05-01T08:43:32.998Z</time></trkpt><trkpt lat="43.80504324037392" lon="12.225370150941641"><ele>427.0</ele><time>2026-05-01T08:43:33.998Z</time></trkpt><trkpt lat="43.80495070332027" lon="12.225277663165393"><ele>428.0</ele><time>2026-05-01T08:43:34.998Z</time></trkpt><trkpt lat="43.804863320784605" lon="12.22518844277128"><ele>429.0</ele><time>2026-05-01T08:43:35.998Z</time></trkpt><trkpt lat="43.80478897293452" lon="12.225109035556036"><ele>429.0</ele><time>2026-05-01T08:43:37Z</time></trkpt><trkpt lat="43.804726683438986" lon="12.225033024980723"><ele>429.0</ele><time>2026-05-01T08:43:38Z</time></trkpt><trkpt lat="43.80466796102094" lon="12.224967846292316"><ele>429.0</ele><time>2026-05-01T08:43:39Z</time></trkpt><trkpt lat="43.804606193221495" lon="12.2249222415459"><ele>429.0</ele><time>2026-05-01T08:43:40Z</time></trkpt><trkpt lat="43.80453727630388" lon="12.224892257256386"><ele>429.0</ele><time>2026-05-01T08:43:41Z</time></trkpt><trkpt lat="43.80445357669323" lon="12.224902460050856"><ele>429.0</ele><time>2026-05-01T08:43:42Z</time></trkpt><trkpt lat="43.80436209517244" lon="12.224951336466807"><ele>432.0</ele><time>2026-05-01T08:43:43Z</time></trkpt><trkpt lat="43.80427368282182" lon="12.225014844083534"><ele>435.0</ele><time>2026-05-01T08:43:44Z</time></trkpt><trkpt lat="43.804179928298225" lon="12.225084022680765"><ele>438.0</ele><time>2026-05-01T08:43:45Z</time></trkpt><trkpt lat="43.804081108436094" lon="12.225142874653091"><ele>441.0</ele><time>2026-05-01T08:43:46Z</time></trkpt><trkpt lat="43.803973026068235" lon="12.225179379982965"><ele>444.0</ele><time>2026-05-01T08:43:47Z</time></trkpt><trkpt lat="43.80386049965597" lon="12.225205144632248"><ele>444.0</ele><time>2026-05-01T08:43:48Z</time></trkpt><trkpt lat="43.80374956078283" lon="12.225235710978598"><ele>444.0</ele><time>2026-05-01T08:43:49Z</time></trkpt><trkpt lat="43.8036491659748" lon="12.225269202573715"><ele>444.0</ele><time>2026-05-01T08:43:50Z</time></trkpt><trkpt lat="43.803558572569905" lon="12.225305252091246"><ele>444.0</ele><time>2026-05-01T08:43:51Z</time></trkpt><trkpt lat="43.80347378834845" lon="12.225333919368017"><ele>444.0</ele><time>2026-05-01T08:43:52Z</time></trkpt><trkpt lat="43.80339591220373" lon="12.22536160997261"><ele>443.5</ele><time>2026-05-01T08:43:53Z</time></trkpt><trkpt lat="43.80331199526245" lon="12.225376326330755"><ele>443.0</ele><time>2026-05-01T08:43:54Z</time></trkpt><trkpt lat="43.803226717713926" lon="12.225349050699114"><ele>442.5</ele><time>2026-05-01T08:43:55Z</time></trkpt><trkpt lat="43.803150521871046" lon="12.225296007316127"><ele>442.0</ele><time>2026-05-01T08:43:56Z</time></trkpt><trkpt lat="43.8030834890849" lon="12.225210337523476"><ele>441.5</ele><time>2026-05-01T08:43:57Z</time></trkpt><trkpt lat="43.80303000762456" lon="12.225095317184046"><ele>441.0</ele><time>2026-05-01T08:43:58Z</time></trkpt><trkpt lat="43.802984769743134" lon="12.224965524658142"><ele>441.0</ele><time>2026-05-01T08:43:59Z</time></trkpt><trkpt lat="43.80293787466125" lon="12.224830294247917"><ele>441.0</ele><time>2026-05-01T08:44:00Z</time></trkpt><trkpt lat="43.80289109921094" lon="12.224690708795428"><ele>441.0</ele><time>2026-05-01T08:44:01Z</time></trkpt><trkpt lat="43.8028471004676" lon="12.22455340055513"><ele>441.0</ele><time>2026-05-01T08:44:02Z</time></trkpt><trkpt lat="43.80280944274081" lon="12.22442434064072"><ele>441.0</ele><time>2026-05-01T08:44:03Z</time></trkpt><trkpt lat="43.80278500688704" lon="12.224293320369892"><ele>438.0</ele><time>2026-05-01T08:44:04Z</time></trkpt><trkpt lat="43.80278623367372" lon="12.22416036070539"><ele>435.0</ele><time>2026-05-01T08:44:05Z</time></trkpt><trkpt lat="43.8028052694499" lon="12.224035151834288"><ele>432.0</ele><time>2026-05-01T08:44:06Z</time></trkpt><trkpt lat="43.80284675742622" lon="12.22392041248034"><ele>429.0</ele><time>2026-05-01T08:44:07Z</time></trkpt><trkpt lat="43.802889932238045" lon="12.223807180829589"><ele>426.0</ele><time>2026-05-01T08:44:08Z</time></trkpt><trkpt lat="43.80293162866409" lon="12.223688509382647"><ele>425.6</ele><time>2026-05-01T08:44:09Z</time></trkpt><trkpt lat="43.80297858351049" lon="12.2235666805887"><ele>425.20000000000005</ele><time>2026-05-01T08:44:10Z</time></trkpt><trkpt lat="43.80301922135367" lon="12.22343161583535"><ele>424.79999999999995</ele><time>2026-05-01T08:44:11Z</time></trkpt><trkpt lat="43.80306098247942" lon="12.223288264705234"><ele>424.4</ele><time>2026-05-01T08:44:12Z</time></trkpt><trkpt lat="43.80309042291276" lon="12.223136356265972"><ele>424.0</ele><time>2026-05-01T08:44:13Z</time></trkpt><trkpt lat="43.803106898966796" lon="12.222990143709398"><ele>422.75</ele><time>2026-05-01T08:44:14Z</time></trkpt><trkpt lat="43.80310457221709" lon="12.222837366709967"><ele>421.5</ele><time>2026-05-01T08:44:14.999Z</time></trkpt><trkpt lat="43.8030646510823" lon="12.222689533521937"><ele>420.25</ele><time>2026-05-01T08:44:15.999Z</time></trkpt><trkpt lat="43.802999553382755" lon="12.222556398526564"><ele>419.0</ele><time>2026-05-01T08:44:16.999Z</time></trkpt><trkpt lat="43.80292052968342" lon="12.222440638259936"><ele>419.0</ele><time>2026-05-01T08:44:17.999Z</time></trkpt><trkpt lat="43.80284583027488" lon="12.22232610334876"><ele>419.0</ele><time>2026-05-01T08:44:18.999Z</time></trkpt><trkpt lat="43.802772221874584" lon="12.222220185909707"><ele>419.0</ele><time>2026-05-01T08:44:19.999Z</time></trkpt><trkpt lat="43.80270163799955" lon="12.222132425127846"><ele>419.0</ele><time>2026-05-01T08:44:20.999Z</time></trkpt><trkpt lat="43.80263365730508" lon="12.222049753874913"><ele>419.0</ele><time>2026-05-01T08:44:21.999Z</time></trkpt><trkpt lat="43.80256708049049" lon="12.221964211907428"><ele>420.79999999999995</ele><time>2026-05-01T08:44:22.999Z</time></trkpt><trkpt lat="43.802507339254625" lon="12.221863237510373"><ele>422.59999999999997</ele><time>2026-05-01T08:44:23.999Z</time></trkpt><trkpt lat="43.802462685375495" lon="12.221747751890824"><ele>424.4</ele><time>2026-05-01T08:44:24.999Z</time></trkpt><trkpt lat="43.80243253045518" lon="12.221617024637728"><ele>426.2</ele><time>2026-05-01T08:44:25.999Z</time></trkpt><trkpt lat="43.80240423299511" lon="12.221477263404351"><ele>428.0</ele><time>2026-05-01T08:44:26.999Z</time></trkpt><trkpt lat="43.80237110588" lon="12.221331256224447"><ele>428.0</ele><time>2026-05-01T08:44:27.999Z</time></trkpt><trkpt lat="43.80233170187438" lon="12.221183308063376"><ele>428.0</ele><time>2026-05-01T08:44:28.999Z</time></trkpt><trkpt lat="43.80228844931553" lon="12.221033536376082"><ele>428.0</ele><time>2026-05-01T08:44:29.999Z</time></trkpt><trkpt lat="43.802242791651274" lon="12.220879589813059"><ele>428.0</ele><time>2026-05-01T08:44:30.999Z</time></trkpt><trkpt lat="43.80219658716955" lon="12.220726180531464"><ele>424.79999999999995</ele><time>2026-05-01T08:44:31.999Z</time></trkpt><trkpt lat="43.80215133694488" lon="12.220588054247493"><ele>421.59999999999997</ele><time>2026-05-01T08:44:32.999Z</time></trkpt><trkpt lat="43.80210244603888" lon="12.22046477558085"><ele>418.4</ele><time>2026-05-01T08:44:33.999Z</time></trkpt><trkpt lat="43.80205143473632" lon="12.220349008439817"><ele>415.20000000000005</ele><time>2026-05-01T08:44:34.999Z</time></trkpt><trkpt lat="43.80199600999682" lon="12.220231386509568"><ele>412.0</ele><time>2026-05-01T08:44:35.999Z</time></trkpt><trkpt lat="43.801932911031464" lon="12.220117254385528"><ele>412.0</ele><time>2026-05-01T08:44:36.999Z</time></trkpt><trkpt lat="43.80187146891108" lon="12.220009649481565"><ele>412.0</ele><time>2026-05-01T08:44:37.999Z</time></trkpt><trkpt lat="43.801817782886474" lon="12.21989940651189"><ele>412.0</ele><time>2026-05-01T08:44:38.999Z</time></trkpt><trkpt lat="43.80177686910727" lon="12.219786986948643"><ele>412.0</ele><time>2026-05-01T08:44:39.999Z</time></trkpt><trkpt lat="43.801737926243625" lon="12.219681965802991"><ele>412.0</ele><time>2026-05-01T08:44:40.999Z</time></trkpt><trkpt lat="43.801680789122095" lon="12.21959143136579"><ele>416.0</ele><time>2026-05-01T08:44:41.999Z</time></trkpt><trkpt lat="43.801608182196865" lon="12.219516966120535"><ele>420.0</ele><time>2026-05-01T08:44:42.999Z</time></trkpt><trkpt lat="43.80152040640973" lon="12.219468117488578"><ele>424.00000000000006</ele><time>2026-05-01T08:44:43.999Z</time></trkpt><trkpt lat="43.801425886974364" lon="12.219454664755055"><ele>428.0</ele><time>2026-05-01T08:44:44.999Z</time></trkpt><trkpt lat="43.80133141201182" lon="12.21946166869402"><ele>432.0</ele><time>2026-05-01T08:44:45.999Z</time></trkpt><trkpt lat="43.8012384896886" lon="12.219464735064497"><ele>432.0</ele><time>2026-05-01T08:44:46.999Z</time></trkpt><trkpt lat="43.80115225559535" lon="12.219460250095592"><ele>432.0</ele><time>2026-05-01T08:44:47.999Z</time></trkpt><trkpt lat="43.80107434845503" lon="12.219440101167304"><ele>432.0</ele><time>2026-05-01T08:44:48.999Z</time></trkpt><trkpt lat="43.80100362455138" lon="12.219381138831814"><ele>432.0</ele><time>2026-05-01T08:44:49.999Z</time></trkpt><trkpt lat="43.80094683912336" lon="12.219292926728459"><ele>432.0</ele><time>2026-05-01T08:44:50.999Z</time></trkpt><trkpt lat="43.80090845595923" lon="12.219178849051694"><ele>432.0</ele><time>2026-05-01T08:44:51.999Z</time></trkpt><trkpt lat="43.8008992993698" lon="12.219044441881278"><ele>434.20000000000005</ele><time>2026-05-01T08:44:52.999Z</time></trkpt><trkpt lat="43.800912936412374" lon="12.218900727382328"><ele>436.40000000000003</ele><time>2026-05-01T08:44:53.999Z</time></trkpt><trkpt lat="43.80093704856825" lon="12.218763730386424"><ele>438.59999999999997</ele><time>2026-05-01T08:44:54.999Z</time></trkpt><trkpt lat="43.80095511099153" lon="12.218622922816266"><ele>440.79999999999995</ele><time>2026-05-01T08:44:55.999Z</time></trkpt><trkpt lat="43.80095911351923" lon="12.218473529383237"><ele>443.0</ele><time>2026-05-01T08:44:56.999Z</time></trkpt><trkpt lat="43.8009361531725" lon="12.218316456423741"><ele>443.0</ele><time>2026-05-01T08:44:57.999Z</time></trkpt><trkpt lat="43.800887869737956" lon="12.218162734241798"><ele>443.0</ele><time>2026-05-01T08:44:58.999Z</time></trkpt><trkpt lat="43.800822490093154" lon="12.218023776153556"><ele>443.0</ele><time>2026-05-01T08:44:59.999Z</time></trkpt><trkpt lat="43.800734544509346" lon="12.217878679481725"><ele>443.0</ele><time>2026-05-01T08:45:00.999Z</time></trkpt><trkpt lat="43.80059799699393" lon="12.217708365703414"><ele>435.3333333333333</ele><time>2026-05-01T08:45:01.999Z</time></trkpt><trkpt lat="43.800443932987925" lon="12.217524606544439"><ele>427.66666666666663</ele><time>2026-05-01T08:45:02.999Z</time></trkpt><trkpt lat="43.80030750584933" lon="12.217357919043861"><ele>420.0</ele><time>2026-05-01T08:45:03.999Z</time></trkpt><trkpt lat="43.80019445500737" lon="12.217179948167887"><ele>424.66666666666663</ele><time>2026-05-01T08:45:04.999Z</time></trkpt><trkpt lat="43.80010858211896" lon="12.216985396740661"><ele>429.3333333333333</ele><time>2026-05-01T08:45:05.999Z</time></trkpt><trkpt lat="43.80001899769339" lon="12.2168160163325"><ele>434.0</ele><time>2026-05-01T08:45:06.999Z</time></trkpt><trkpt lat="43.799902427855685" lon="12.216693733528395"><ele>434.0</ele><time>2026-05-01T08:45:07.999Z</time></trkpt><trkpt lat="43.79975291811907" lon="12.216605904947558"><ele>434.0</ele><time>2026-05-01T08:45:08.999Z</time></trkpt><trkpt lat="43.79959953465734" lon="12.216549042032423"><ele>434.0</ele><time>2026-05-01T08:45:09.999Z</time></trkpt><trkpt lat="43.7994396959654" lon="12.216513008225908"><ele>433.75</ele><time>2026-05-01T08:45:10.999Z</time></trkpt><trkpt lat="43.799286544624465" lon="12.216477671437907"><ele>433.5</ele><time>2026-05-01T08:45:11.999Z</time></trkpt><trkpt lat="43.79915241476567" lon="12.216432717182904"><ele>433.25</ele><time>2026-05-01T08:45:12.999Z</time></trkpt><trkpt lat="43.799031275075514" lon="12.216347969596677"><ele>433.0</ele><time>2026-05-01T08:45:13.999Z</time></trkpt><trkpt lat="43.79894710974442" lon="12.21621869029134"><ele>433.0</ele><time>2026-05-01T08:45:14.999Z</time></trkpt><trkpt lat="43.79891393665812" lon="12.216052784554181"><ele>433.0</ele><time>2026-05-01T08:45:15.999Z</time></trkpt><trkpt lat="43.79892996285801" lon="12.215877275396311"><ele>433.0</ele><time>2026-05-01T08:45:16.999Z</time></trkpt><trkpt lat="43.79893467958138" lon="12.215712336762751"><ele>433.0</ele><time>2026-05-01T08:45:17.999Z</time></trkpt><trkpt lat="43.79889243759935" lon="12.215552709377631"><ele>429.25</ele><time>2026-05-01T08:45:18.999Z</time></trkpt><trkpt lat="43.79880307222859" lon="12.215409213000092"><ele>425.5</ele><time>2026-05-01T08:45:19.999Z</time></trkpt><trkpt lat="43.798708771531174" lon="12.215273452095143"><ele>421.75</ele><time>2026-05-01T08:45:20.999Z</time></trkpt><trkpt lat="43.798606537600904" lon="12.215134911839252"><ele>418.0</ele><time>2026-05-01T08:45:21.999Z</time></trkpt><trkpt lat="43.798516782501856" lon="12.21499313717326"><ele>422.5</ele><time>2026-05-01T08:45:22.999Z</time></trkpt><trkpt lat="43.79843039254262" lon="12.214860587088532"><ele>427.0</ele><time>2026-05-01T08:45:23.999Z</time></trkpt><trkpt lat="43.79835591684656" lon="12.214722738180864"><ele>431.5</ele><time>2026-05-01T08:45:24.999Z</time></trkpt><trkpt lat="43.79828995061595" lon="12.214584850844853"><ele>436.0</ele><time>2026-05-01T08:45:25.999Z</time></trkpt><trkpt lat="43.79823500022989" lon="12.214445346865315"><ele>436.0</ele><time>2026-05-01T08:45:26.999Z</time></trkpt><trkpt lat="43.79818472175568" lon="12.214295367694165"><ele>436.0</ele><time>2026-05-01T08:45:27.999Z</time></trkpt><trkpt lat="43.798136041963375" lon="12.214136019294141"><ele>436.0</ele><time>2026-05-01T08:45:28.999Z</time></trkpt><trkpt lat="43.79809079184601" lon="12.213967609285701"><ele>436.0</ele><time>2026-05-01T08:45:29.999Z</time></trkpt><trkpt lat="43.798045346812806" lon="12.213800596088568"><ele>432.75</ele><time>2026-05-01T08:45:30.999Z</time></trkpt><trkpt lat="43.797984070419105" lon="12.213647318182872"><ele>429.5</ele><time>2026-05-01T08:45:31.999Z</time></trkpt><trkpt lat="43.797899528683445" lon="12.213517969526613"><ele>426.25</ele><time>2026-05-01T08:45:32.999Z</time></trkpt><trkpt lat="43.797800896933424" lon="12.213426372982978"><ele>423.0</ele><time>2026-05-01T08:45:33.999Z</time></trkpt><trkpt lat="43.79769638688826" lon="12.21335084429176"><ele>425.0</ele><time>2026-05-01T08:45:34.999Z</time></trkpt><trkpt lat="43.79759026876484" lon="12.21327277089489"><ele>427.0</ele><time>2026-05-01T08:45:35.999Z</time></trkpt><trkpt lat="43.797497673218" lon="12.213176008680515"><ele>429.0</ele><time>2026-05-01T08:45:36.999Z</time></trkpt><trkpt lat="43.79741461442743" lon="12.213063352540559"><ele>431.0</ele><time>2026-05-01T08:45:37.999Z</time></trkpt><trkpt lat="43.79734234730159" lon="12.21294352165893"><ele>431.0</ele><time>2026-05-01T08:45:38.999Z</time></trkpt><trkpt lat="43.79727168309856" lon="12.212816919284666"><ele>431.0</ele><time>2026-05-01T08:45:39.998Z</time></trkpt><trkpt lat="43.797205148456925" lon="12.212681084249954"><ele>431.0</ele><time>2026-05-01T08:45:40.998Z</time></trkpt><trkpt lat="43.7971362265008" lon="12.212552071481001"><ele>431.0</ele><time>2026-05-01T08:45:41.998Z</time></trkpt><trkpt lat="43.797060562383336" lon="12.212429083746102"><ele>430.4</ele><time>2026-05-01T08:45:43Z</time></trkpt><trkpt lat="43.796978800225645" lon="12.21231748859747"><ele>429.8</ele><time>2026-05-01T08:45:44Z</time></trkpt><trkpt lat="43.79689824583616" lon="12.212219504722846"><ele>429.19999999999993</ele><time>2026-05-01T08:45:45Z</time></trkpt><trkpt lat="43.796816490971274" lon="12.212125704173866"><ele>428.59999999999997</ele><time>2026-05-01T08:45:46Z</time></trkpt><trkpt lat="43.79673357799037" lon="12.212029111947771"><ele>428.0</ele><time>2026-05-01T08:45:47Z</time></trkpt><trkpt lat="43.79664551791172" lon="12.21193434068454"><ele>428.0</ele><time>2026-05-01T08:45:48Z</time></trkpt><trkpt lat="43.79655408787091" lon="12.2118451650999"><ele>428.0</ele><time>2026-05-01T08:45:49Z</time></trkpt><trkpt lat="43.79645909460742" lon="12.211761189999107"><ele>428.0</ele><time>2026-05-01T08:45:50Z</time></trkpt><trkpt lat="43.79636220467906" lon="12.211681844822172"><ele>428.0</ele><time>2026-05-01T08:45:51Z</time></trkpt><trkpt lat="43.79626423038963" lon="12.211604267371438"><ele>428.0</ele><time>2026-05-01T08:45:52Z</time></trkpt><trkpt lat="43.79616666529728" lon="12.211533223009834"><ele>427.99999999999994</ele><time>2026-05-01T08:45:53Z</time></trkpt><trkpt lat="43.79606888827159" lon="12.211462230446678"><ele>427.99999999999994</ele><time>2026-05-01T08:45:54Z</time></trkpt><trkpt lat="43.795970639620585" lon="12.211392569052675"><ele>428.0</ele><time>2026-05-01T08:45:55Z</time></trkpt><trkpt lat="43.79587073761637" lon="12.211323486587562"><ele>428.0</ele><time>2026-05-01T08:45:56Z</time></trkpt><trkpt lat="43.79576858335904" lon="12.211255851238281"><ele>426.5</ele><time>2026-05-01T08:45:57Z</time></trkpt><trkpt lat="43.795664034996776" lon="12.211191291230973"><ele>425.0</ele><time>2026-05-01T08:45:58Z</time></trkpt><trkpt lat="43.79555551957099" lon="12.211135878964607"><ele>423.5</ele><time>2026-05-01T08:45:59Z</time></trkpt><trkpt lat="43.795443552804535" lon="12.211089536376525"><ele>422.0</ele><time>2026-05-01T08:46:00Z</time></trkpt><trkpt lat="43.79532794573511" lon="12.211054527927786"><ele>422.0</ele><time>2026-05-01T08:46:01Z</time></trkpt><trkpt lat="43.795217658215165" lon="12.211006282723156"><ele>422.0</ele><time>2026-05-01T08:46:02Z</time></trkpt><trkpt lat="43.79511136665784" lon="12.210959859682262"><ele>422.0</ele><time>2026-05-01T08:46:03Z</time></trkpt><trkpt lat="43.79500589056835" lon="12.210923006105634"><ele>422.0</ele><time>2026-05-01T08:46:04Z</time></trkpt><trkpt lat="43.79489961659842" lon="12.21089538698298"><ele>422.0</ele><time>2026-05-01T08:46:05Z</time></trkpt><trkpt lat="43.79479013346138" lon="12.210879300705626"><ele>423.20000000000005</ele><time>2026-05-01T08:46:06Z</time></trkpt><trkpt lat="43.794685032056755" lon="12.210879836021068"><ele>424.4</ele><time>2026-05-01T08:46:07Z</time></trkpt><trkpt lat="43.79458584942451" lon="12.210891504938612"><ele>425.59999999999997</ele><time>2026-05-01T08:46:08Z</time></trkpt><trkpt lat="43.79448633934964" lon="12.210909966635278"><ele>426.79999999999995</ele><time>2026-05-01T08:46:09Z</time></trkpt><trkpt lat="43.79438226027542" lon="12.21093929073165"><ele>428.0</ele><time>2026-05-01T08:46:10Z</time></trkpt><trkpt lat="43.794264024254794" lon="12.210990321660116"><ele>428.0</ele><time>2026-05-01T08:46:11Z</time></trkpt><trkpt lat="43.79411986399092" lon="12.211076210963512"><ele>428.0</ele><time>2026-05-01T08:46:12Z</time></trkpt><trkpt lat="43.793955638300325" lon="12.211177051690587"><ele>428.0</ele><time>2026-05-01T08:46:13Z</time></trkpt><trkpt lat="43.79376346130784" lon="12.211294492089724"><ele>428.0</ele><time>2026-05-01T08:46:14Z</time></trkpt><trkpt lat="43.793580902866616" lon="12.211401534903239"><ele>428.0</ele><time>2026-05-01T08:46:15Z</time></trkpt><trkpt lat="43.79339846934608" lon="12.211506728159454"><ele>428.0</ele><time>2026-05-01T08:46:16Z</time></trkpt><trkpt lat="43.79321457895858" lon="12.211607266297735"><ele>431.0</ele><time>2026-05-01T08:46:17Z</time></trkpt><trkpt lat="43.793041266518294" lon="12.211695135124202"><ele>434.0</ele><time>2026-05-01T08:46:18Z</time></trkpt><trkpt lat="43.792876113874385" lon="12.211777328123828"><ele>437.0</ele><time>2026-05-01T08:46:19Z</time></trkpt><trkpt lat="43.792718684274554" lon="12.211848501854037"><ele>434.0</ele><time>2026-05-01T08:46:20Z</time></trkpt><trkpt lat="43.792567647731794" lon="12.21190174028502"><ele>431.0</ele><time>2026-05-01T08:46:21Z</time></trkpt><trkpt lat="43.7924217077715" lon="12.211930301800487"><ele>428.0</ele><time>2026-05-01T08:46:22Z</time></trkpt><trkpt lat="43.79228529688064" lon="12.2119441344162"><ele>425.0</ele><time>2026-05-01T08:46:23Z</time></trkpt><trkpt lat="43.79215337091868" lon="12.211962191426387"><ele>425.0</ele><time>2026-05-01T08:46:24Z</time></trkpt><trkpt lat="43.792027529717735" lon="12.211962464644483"><ele>425.0</ele><time>2026-05-01T08:46:25Z</time></trkpt><trkpt lat="43.79190814012839" lon="12.211921583657006"><ele>425.0</ele><time>2026-05-01T08:46:26Z</time></trkpt><trkpt lat="43.791790557153995" lon="12.211824071886697"><ele>425.0</ele><time>2026-05-01T08:46:26.999Z</time></trkpt><trkpt lat="43.791704559033576" lon="12.21170093094646"><ele>426.5</ele><time>2026-05-01T08:46:27.999Z</time></trkpt><trkpt lat="43.79167003409617" lon="12.211544208306368"><ele>428.0</ele><time>2026-05-01T08:46:28.999Z</time></trkpt><trkpt lat="43.791677126266194" lon="12.211355733296038"><ele>429.5</ele><time>2026-05-01T08:46:29.999Z</time></trkpt><trkpt lat="43.791683179069054" lon="12.21115453581494"><ele>431.0</ele><time>2026-05-01T08:46:30.999Z</time></trkpt><trkpt lat="43.791689839562544" lon="12.210940991426499"><ele>431.0</ele><time>2026-05-01T08:46:31.999Z</time></trkpt><trkpt lat="43.79169751863183" lon="12.210735150649093"><ele>431.0</ele><time>2026-05-01T08:46:32.999Z</time></trkpt><trkpt lat="43.79170969953636" lon="12.210517873789836"><ele>431.0</ele><time>2026-05-01T08:46:33.999Z</time></trkpt><trkpt lat="43.79171619916688" lon="12.210307244080441"><ele>431.0</ele><time>2026-05-01T08:46:34.999Z</time></trkpt><trkpt lat="43.791715313246634" lon="12.21011931734876"><ele>431.0</ele><time>2026-05-01T08:46:35.999Z</time></trkpt><trkpt lat="43.791682183381404" lon="12.209957264471422"><ele>431.0</ele><time>2026-05-01T08:46:36.999Z</time></trkpt><trkpt lat="43.79160114496163" lon="12.2098065925035"><ele>431.0</ele><time>2026-05-01T08:46:37.999Z</time></trkpt><trkpt lat="43.79147921751414" lon="12.20969227648778"><ele>426.3333333333333</ele><time>2026-05-01T08:46:38.999Z</time></trkpt><trkpt lat="43.791333483391156" lon="12.209622201958975"><ele>421.66666666666663</ele><time>2026-05-01T08:46:39.999Z</time></trkpt><trkpt lat="43.79117473685076" lon="12.209575676160084"><ele>417.0</ele><time>2026-05-01T08:46:40.999Z</time></trkpt><trkpt lat="43.7910182190823" lon="12.20955476444642"><ele>419.33333333333337</ele><time>2026-05-01T08:46:41.999Z</time></trkpt><trkpt lat="43.790852103595945" lon="12.209538063926617"><ele>421.6666666666667</ele><time>2026-05-01T08:46:42.999Z</time></trkpt><trkpt lat="43.79067800606002" lon="12.209518751244556"><ele>424.0</ele><time>2026-05-01T08:46:43.999Z</time></trkpt><trkpt lat="43.79049894972304" lon="12.20950456120568"><ele>424.0</ele><time>2026-05-01T08:46:44.999Z</time></trkpt><trkpt lat="43.79031688124862" lon="12.209497081209431"><ele>424.0</ele><time>2026-05-01T08:46:45.999Z</time></trkpt><trkpt lat="43.790135449991986" lon="12.209509613697309"><ele>424.0</ele><time>2026-05-01T08:46:46.999Z</time></trkpt><trkpt lat="43.789958642878396" lon="12.20953548780955"><ele>424.0</ele><time>2026-05-01T08:46:47.999Z</time></trkpt><trkpt lat="43.78977794173553" lon="12.20957404451945"><ele>424.0</ele><time>2026-05-01T08:46:48.999Z</time></trkpt><trkpt lat="43.789600449150754" lon="12.209624125573797"><ele>424.0</ele><time>2026-05-01T08:46:49.999Z</time></trkpt><trkpt lat="43.78942662223509" lon="12.209677038371723"><ele>422.33333333333337</ele><time>2026-05-01T08:46:50.999Z</time></trkpt><trkpt lat="43.78925390570316" lon="12.209758185676023"><ele>420.66666666666663</ele><time>2026-05-01T08:46:51.999Z</time></trkpt><trkpt lat="43.78908987210232" lon="12.209878281644505"><ele>419.0</ele><time>2026-05-01T08:46:52.999Z</time></trkpt><trkpt lat="43.78893660133313" lon="12.21002368284664"><ele>420.66666666666663</ele><time>2026-05-01T08:46:53.999Z</time></trkpt><trkpt lat="43.78878683584593" lon="12.210173691532638"><ele>422.33333333333337</ele><time>2026-05-01T08:46:54.999Z</time></trkpt><trkpt lat="43.78864339454429" lon="12.21030937842003"><ele>424.0</ele><time>2026-05-01T08:46:55.999Z</time></trkpt><trkpt lat="43.78849745689631" lon="12.21041299851781"><ele>424.0</ele><time>2026-05-01T08:46:56.999Z</time></trkpt><trkpt lat="43.78834115625849" lon="12.210472554503516"><ele>424.0</ele><time>2026-05-01T08:46:57.999Z</time></trkpt><trkpt lat="43.788173547634685" lon="12.210478029104529"><ele>424.0</ele><time>2026-05-01T08:46:58.999Z</time></trkpt><trkpt lat="43.7880071533515" lon="12.210429026868573"><ele>424.0</ele><time>2026-05-01T08:46:59.999Z</time></trkpt><trkpt lat="43.787849185234094" lon="12.210334184613567"><ele>424.0</ele><time>2026-05-01T08:47:00.999Z</time></trkpt><trkpt lat="43.787700312851385" lon="12.210214559293211"><ele>424.0</ele><time>2026-05-01T08:47:01.999Z</time></trkpt><trkpt lat="43.78756003884147" lon="12.210095684554958"><ele>424.5</ele><time>2026-05-01T08:47:02.999Z</time></trkpt><trkpt lat="43.7874296299588" lon="12.209976020431691"><ele>425.0</ele><time>2026-05-01T08:47:03.999Z</time></trkpt><trkpt lat="43.78730914748332" lon="12.209855582933395"><ele>425.5</ele><time>2026-05-01T08:47:04.999Z</time></trkpt><trkpt lat="43.78717703339145" lon="12.20978213916026"><ele>426.0</ele><time>2026-05-01T08:47:05.999Z</time></trkpt><trkpt lat="43.78702004450578" lon="12.20976443177323"><ele>427.33333333333337</ele><time>2026-05-01T08:47:06.999Z</time></trkpt><trkpt lat="43.786857458320554" lon="12.209803901640749"><ele>428.6666666666667</ele><time>2026-05-01T08:47:07.999Z</time></trkpt><trkpt lat="43.786699305871764" lon="12.209878971818709"><ele>430.0</ele><time>2026-05-01T08:47:08.999Z</time></trkpt><trkpt lat="43.7865406115617" lon="12.209954187255624"><ele>430.0</ele><time>2026-05-01T08:47:09.999Z</time></trkpt><trkpt lat="43.786396079793654" lon="12.210023479732833"><ele>430.0</ele><time>2026-05-01T08:47:10.999Z</time></trkpt><trkpt lat="43.78625561841662" lon="12.210070683820144"><ele>430.0</ele><time>2026-05-01T08:47:11.999Z</time></trkpt><trkpt lat="43.786111409728136" lon="12.21006947859969"><ele>430.0</ele><time>2026-05-01T08:47:12.999Z</time></trkpt><trkpt lat="43.785958827367416" lon="12.210006415670325"><ele>428.6666666666667</ele><time>2026-05-01T08:47:13.999Z</time></trkpt><trkpt lat="43.785796276733116" lon="12.209953834635462"><ele>427.33333333333337</ele><time>2026-05-01T08:47:14.999Z</time></trkpt><trkpt lat="43.78562341046681" lon="12.209937314858719"><ele>426.0</ele><time>2026-05-01T08:47:15.999Z</time></trkpt><trkpt lat="43.785457271335005" lon="12.209937786046783"><ele>426.0</ele><time>2026-05-01T08:47:16.999Z</time></trkpt><trkpt lat="43.78530640973158" lon="12.209945628653108"><ele>426.0</ele><time>2026-05-01T08:47:17.999Z</time></trkpt><trkpt lat="43.78517319411722" lon="12.209982621569695"><ele>426.0</ele><time>2026-05-01T08:47:18.999Z</time></trkpt><trkpt lat="43.78505191578846" lon="12.21006836810678"><ele>426.0</ele><time>2026-05-01T08:47:19.999Z</time></trkpt><trkpt lat="43.78496073297383" lon="12.210229198238409"><ele>426.0</ele><time>2026-05-01T08:47:20.999Z</time></trkpt><trkpt lat="43.78489491019613" lon="12.210428211346438"><ele>426.0</ele><time>2026-05-01T08:47:21.999Z</time></trkpt><trkpt lat="43.784856930425036" lon="12.21063881536283"><ele>426.0</ele><time>2026-05-01T08:47:22.999Z</time></trkpt><trkpt lat="43.784801527095304" lon="12.210812978386913"><ele>426.0</ele><time>2026-05-01T08:47:23.999Z</time></trkpt><trkpt lat="43.784715650201264" lon="12.210950715891343"><ele>426.0</ele><time>2026-05-01T08:47:24.999Z</time></trkpt><trkpt lat="43.784584964930886" lon="12.211032440951191"><ele>426.0</ele><time>2026-05-01T08:47:25.999Z</time></trkpt><trkpt lat="43.78443877634389" lon="12.211079714593232"><ele>426.0</ele><time>2026-05-01T08:47:26.999Z</time></trkpt><trkpt lat="43.78428946032035" lon="12.211098091438032"><ele>424.33333333333337</ele><time>2026-05-01T08:47:27.999Z</time></trkpt><trkpt lat="43.78413387925931" lon="12.211070180258034"><ele>422.6666666666667</ele><time>2026-05-01T08:47:28.999Z</time></trkpt><trkpt lat="43.78398049446067" lon="12.211015438467399"><ele>421.0</ele><time>2026-05-01T08:47:29.999Z</time></trkpt><trkpt lat="43.783821685866506" lon="12.210954858644142"><ele>421.0</ele><time>2026-05-01T08:47:30.999Z</time></trkpt><trkpt lat="43.78366297559866" lon="12.21089082861455"><ele>421.0</ele><time>2026-05-01T08:47:31.999Z</time></trkpt><trkpt lat="43.78350236316935" lon="12.210826738271791"><ele>421.0</ele><time>2026-05-01T08:47:32.999Z</time></trkpt><trkpt lat="43.78333695363848" lon="12.21075730273578"><ele>422.33333333333337</ele><time>2026-05-01T08:47:33.999Z</time></trkpt><trkpt lat="43.78317507484625" lon="12.210681652627496"><ele>423.66666666666663</ele><time>2026-05-01T08:47:34.999Z</time></trkpt><trkpt lat="43.78302041316696" lon="12.210613512605049"><ele>425.0</ele><time>2026-05-01T08:47:35.999Z</time></trkpt><trkpt lat="43.782868559745005" lon="12.210565824184645"><ele>420.66666666666663</ele><time>2026-05-01T08:47:36.999Z</time></trkpt><trkpt lat="43.78271381677612" lon="12.21055029806715"><ele>416.33333333333337</ele><time>2026-05-01T08:47:37.999Z</time></trkpt><trkpt lat="43.78255895068426" lon="12.210530421950835"><ele>412.0</ele><time>2026-05-01T08:47:38.999Z</time></trkpt><trkpt lat="43.78239884893029" lon="12.210500624015804"><ele>412.0</ele><time>2026-05-01T08:47:39.999Z</time></trkpt><trkpt lat="43.782242869115564" lon="12.210478042218488"><ele>412.0</ele><time>2026-05-01T08:47:40.999Z</time></trkpt><trkpt lat="43.78209776842153" lon="12.21046335107561"><ele>412.0</ele><time>2026-05-01T08:47:41.999Z</time></trkpt><trkpt lat="43.78196195031793" lon="12.210421463120996"><ele>412.0</ele><time>2026-05-01T08:47:42.999Z</time></trkpt><trkpt lat="43.781854373557024" lon="12.2103291869579"><ele>412.0</ele><time>2026-05-01T08:47:43.999Z</time></trkpt><trkpt lat="43.78177302559724" lon="12.210201389484705"><ele>412.0</ele><time>2026-05-01T08:47:44.999Z</time></trkpt><trkpt lat="43.78173771243522" lon="12.210008758605852"><ele>412.0</ele><time>2026-05-01T08:47:45.999Z</time></trkpt><trkpt lat="43.7817085759468" lon="12.209809158611892"><ele>412.0</ele><time>2026-05-01T08:47:46.999Z</time></trkpt><trkpt lat="43.78168291403036" lon="12.209596225414952"><ele>412.0</ele><time>2026-05-01T08:47:47.999Z</time></trkpt><trkpt lat="43.78164858973925" lon="12.20937592121322"><ele>412.0</ele><time>2026-05-01T08:47:49Z</time></trkpt><trkpt lat="43.78161056207498" lon="12.209139705243484"><ele>412.0</ele><time>2026-05-01T08:47:50Z</time></trkpt><trkpt lat="43.78158103744603" lon="12.208903818017024"><ele>412.33333333333337</ele><time>2026-05-01T08:47:51Z</time></trkpt><trkpt lat="43.7815513427955" lon="12.20868829147659"><ele>412.66666666666663</ele><time>2026-05-01T08:47:52Z</time></trkpt><trkpt lat="43.78149778483353" lon="12.208472931732075"><ele>413.0</ele><time>2026-05-01T08:47:53Z</time></trkpt><trkpt lat="43.78141367666731" lon="12.208268586359608"><ele>410.3333333333333</ele><time>2026-05-01T08:47:54Z</time></trkpt><trkpt lat="43.78130344416064" lon="12.20808360805184"><ele>407.66666666666663</ele><time>2026-05-01T08:47:55Z</time></trkpt><trkpt lat="43.781186576276625" lon="12.207897605413821"><ele>405.0</ele><time>2026-05-01T08:47:56Z</time></trkpt><trkpt lat="43.78107408252216" lon="12.20770215891204"><ele>409.0</ele><time>2026-05-01T08:47:57Z</time></trkpt><trkpt lat="43.780961144686145" lon="12.207518924496139"><ele>413.0</ele><time>2026-05-01T08:47:58Z</time></trkpt><trkpt lat="43.78084781715846" lon="12.207351552871092"><ele>417.0</ele><time>2026-05-01T08:47:59Z</time></trkpt><trkpt lat="43.78074943571267" lon="12.207194407740243"><ele>417.0</ele><time>2026-05-01T08:48:00Z</time></trkpt><trkpt lat="43.78066309258234" lon="12.207037648449518"><ele>417.0</ele><time>2026-05-01T08:48:01Z</time></trkpt><trkpt lat="43.78058615520297" lon="12.206881444434863"><ele>417.0</ele><time>2026-05-01T08:48:02Z</time></trkpt><trkpt lat="43.78052042449002" lon="12.206742382115202"><ele>417.0</ele><time>2026-05-01T08:48:03Z</time></trkpt><trkpt lat="43.780455837837316" lon="12.206615556772157"><ele>415.5</ele><time>2026-05-01T08:48:04Z</time></trkpt><trkpt lat="43.78038215498549" lon="12.206484360155232"><ele>414.0</ele><time>2026-05-01T08:48:05Z</time></trkpt><trkpt lat="43.780309765567395" lon="12.206345794372657"><ele>412.5</ele><time>2026-05-01T08:48:06Z</time></trkpt><trkpt lat="43.780244548724504" lon="12.206186110665437"><ele>411.0</ele><time>2026-05-01T08:48:07Z</time></trkpt><trkpt lat="43.780191357298825" lon="12.206010869738844"><ele>412.75</ele><time>2026-05-01T08:48:08Z</time></trkpt><trkpt lat="43.780162628570885" lon="12.205820769277528"><ele>414.5</ele><time>2026-05-01T08:48:09Z</time></trkpt><trkpt lat="43.78014361788112" lon="12.205637617808996"><ele>416.25</ele><time>2026-05-01T08:48:10Z</time></trkpt><trkpt lat="43.780113897606526" lon="12.205475090970653"><ele>418.0</ele><time>2026-05-01T08:48:11Z</time></trkpt><trkpt lat="43.780054373849495" lon="12.205339941762542"><ele>418.0</ele><time>2026-05-01T08:48:12Z</time></trkpt><trkpt lat="43.77995234085179" lon="12.205245090681787"><ele>418.0</ele><time>2026-05-01T08:48:13Z</time></trkpt><trkpt lat="43.779829482525514" lon="12.205169419651181"><ele>418.0</ele><time>2026-05-01T08:48:14Z</time></trkpt><trkpt lat="43.779702926574515" lon="12.205096185597993"><ele>418.0</ele><time>2026-05-01T08:48:15Z</time></trkpt><trkpt lat="43.77957976498533" lon="12.20502461328999"><ele>418.0</ele><time>2026-05-01T08:48:16Z</time></trkpt><trkpt lat="43.77945955648125" lon="12.204957138748016"><ele>418.0</ele><time>2026-05-01T08:48:17Z</time></trkpt><trkpt lat="43.77932808613453" lon="12.20491959907161"><ele>418.0</ele><time>2026-05-01T08:48:18Z</time></trkpt><trkpt lat="43.779188806087774" lon="12.204928470088172"><ele>418.0</ele><time>2026-05-01T08:48:19Z</time></trkpt><trkpt lat="43.7790484378307" lon="12.204960932949108"><ele>421.25</ele><time>2026-05-01T08:48:20Z</time></trkpt><trkpt lat="43.778906344608316" lon="12.205001086285716"><ele>424.5</ele><time>2026-05-01T08:48:21Z</time></trkpt><trkpt lat="43.778763917716894" lon="12.20504725005115"><ele>427.75</ele><time>2026-05-01T08:48:22Z</time></trkpt><trkpt lat="43.77861601021502" lon="12.20506220149113"><ele>431.0</ele><time>2026-05-01T08:48:23Z</time></trkpt><trkpt lat="43.77847100248899" lon="12.205016831775692"><ele>432.0</ele><time>2026-05-01T08:48:24Z</time></trkpt><trkpt lat="43.7783362819039" lon="12.2049487919514"><ele>433.0</ele><time>2026-05-01T08:48:25Z</time></trkpt><trkpt lat="43.778217981712224" lon="12.204874323339045"><ele>434.0</ele><time>2026-05-01T08:48:26Z</time></trkpt><trkpt lat="43.7780987844739" lon="12.20479394056462"><ele>435.0</ele><time>2026-05-01T08:48:27Z</time></trkpt><trkpt lat="43.777977076234684" lon="12.204710272348134"><ele>433.33333333333337</ele><time>2026-05-01T08:48:28Z</time></trkpt><trkpt lat="43.77784876553307" lon="12.20461891629478"><ele>431.6666666666667</ele><time>2026-05-01T08:48:29Z</time></trkpt><trkpt lat="43.77771274448094" lon="12.204518098703236"><ele>430.0</ele><time>2026-05-01T08:48:30Z</time></trkpt><trkpt lat="43.777570650561806" lon="12.204410644664769"><ele>430.0</ele><time>2026-05-01T08:48:31Z</time></trkpt><trkpt lat="43.777428228641334" lon="12.204306076689502"><ele>430.0</ele><time>2026-05-01T08:48:32Z</time></trkpt><trkpt lat="43.77730079297952" lon="12.204214383054985"><ele>430.0</ele><time>2026-05-01T08:48:33Z</time></trkpt><trkpt lat="43.77719229473139" lon="12.20413443858756"><ele>430.0</ele><time>2026-05-01T08:48:34Z</time></trkpt><trkpt lat="43.777114468709264" lon="12.204072331307982"><ele>430.00000000000006</ele><time>2026-05-01T08:48:35Z</time></trkpt><trkpt lat="43.77704880649622" lon="12.204025916148545"><ele>430.0</ele><time>2026-05-01T08:48:36Z</time></trkpt><trkpt lat="43.776981112470615" lon="12.203973260302122"><ele>430.0</ele><time>2026-05-01T08:48:37Z</time></trkpt><trkpt lat="43.77690712219795" lon="12.203922126132804"><ele>430.0</ele><time>2026-05-01T08:48:38Z</time></trkpt><trkpt lat="43.77682997384736" lon="12.203863524882673"><ele>430.00000000000006</ele><time>2026-05-01T08:48:39Z</time></trkpt><trkpt lat="43.776750079368746" lon="12.20380062338949"><ele>430.0</ele><time>2026-05-01T08:48:39.999Z</time></trkpt><trkpt lat="43.77666457371328" lon="12.203736345732727"><ele>429.4</ele><time>2026-05-01T08:48:40.999Z</time></trkpt><trkpt lat="43.77657681218093" lon="12.203668180779223"><ele>428.8</ele><time>2026-05-01T08:48:41.999Z</time></trkpt><trkpt lat="43.77648688290179" lon="12.203593279291557"><ele>428.20000000000005</ele><time>2026-05-01T08:48:42.999Z</time></trkpt><trkpt lat="43.77639498646205" lon="12.203515516092935"><ele>427.6</ele><time>2026-05-01T08:48:43.999Z</time></trkpt><trkpt lat="43.77629857699142" lon="12.203437672969578"><ele>427.0</ele><time>2026-05-01T08:48:44.999Z</time></trkpt><trkpt lat="43.77619822181853" lon="12.20336369512112"><ele>427.0</ele><time>2026-05-01T08:48:45.999Z</time></trkpt><trkpt lat="43.77609135086636" lon="12.203293026495274"><ele>427.0</ele><time>2026-05-01T08:48:46.999Z</time></trkpt><trkpt lat="43.77598446078519" lon="12.203205888088906"><ele>427.0</ele><time>2026-05-01T08:48:47.999Z</time></trkpt><trkpt lat="43.7758766671219" lon="12.203115411206712"><ele>427.0</ele><time>2026-05-01T08:48:48.999Z</time></trkpt><trkpt lat="43.7757670650163" lon="12.203021046842675"><ele>426.0</ele><time>2026-05-01T08:48:49.999Z</time></trkpt><trkpt lat="43.77565406474238" lon="12.202938179868742"><ele>425.0</ele><time>2026-05-01T08:48:50.999Z</time></trkpt><trkpt lat="43.77554277633061" lon="12.202851425253039"><ele>424.0</ele><time>2026-05-01T08:48:51.999Z</time></trkpt><trkpt lat="43.77543739764147" lon="12.202753638675933"><ele>423.0</ele><time>2026-05-01T08:48:52.999Z</time></trkpt><trkpt lat="43.77533838023906" lon="12.20264291508722"><ele>423.0</ele><time>2026-05-01T08:48:53.999Z</time></trkpt><trkpt lat="43.775246786703036" lon="12.202521127013785"><ele>423.0</ele><time>2026-05-01T08:48:54.999Z</time></trkpt><trkpt lat="43.77515277483981" lon="12.202400673759833"><ele>423.0</ele><time>2026-05-01T08:48:55.999Z</time></trkpt><trkpt lat="43.775048769789265" lon="12.202292420247383"><ele>423.0</ele><time>2026-05-01T08:48:56.999Z</time></trkpt><trkpt lat="43.77493986896622" lon="12.202195385626421"><ele>424.25</ele><time>2026-05-01T08:48:57.999Z</time></trkpt><trkpt lat="43.774822170045816" lon="12.202118453715709"><ele>425.5</ele><time>2026-05-01T08:48:58.999Z</time></trkpt><trkpt lat="43.7746970241183" lon="12.202076084097959"><ele>426.75</ele><time>2026-05-01T08:48:59.999Z</time></trkpt><trkpt lat="43.774567331316305" lon="12.20204078363932"><ele>428.0</ele><time>2026-05-01T08:49:00.999Z</time></trkpt><trkpt lat="43.774428887257876" lon="12.202014564136697"><ele>428.5</ele><time>2026-05-01T08:49:01.999Z</time></trkpt><trkpt lat="43.774287309294365" lon="12.201988236870655"><ele>429.0</ele><time>2026-05-01T08:49:02.999Z</time></trkpt><trkpt lat="43.77414963454297" lon="12.201928766442526"><ele>429.5</ele><time>2026-05-01T08:49:03.999Z</time></trkpt><trkpt lat="43.774025158964754" lon="12.201833861399914"><ele>430.0</ele><time>2026-05-01T08:49:04.999Z</time></trkpt><trkpt lat="43.77389811692425" lon="12.201732261228681"><ele>430.0</ele><time>2026-05-01T08:49:05.999Z</time></trkpt><trkpt lat="43.7737617863785" lon="12.201638042839617"><ele>430.0</ele><time>2026-05-01T08:49:06.999Z</time></trkpt><trkpt lat="43.773619254843666" lon="12.201549787962248"><ele>430.0</ele><time>2026-05-01T08:49:07.999Z</time></trkpt><trkpt lat="43.77346485600747" lon="12.201477638997199"><ele>427.33333333333337</ele><time>2026-05-01T08:49:08.999Z</time></trkpt><trkpt lat="43.77330192640216" lon="12.201425051795466"><ele>424.66666666666663</ele><time>2026-05-01T08:49:09.999Z</time></trkpt><trkpt lat="43.773139347805746" lon="12.201373858493191"><ele>422.0</ele><time>2026-05-01T08:49:10.999Z</time></trkpt><trkpt lat="43.772976422298015" lon="12.201325664128623"><ele>422.0</ele><time>2026-05-01T08:49:11.999Z</time></trkpt><trkpt lat="43.77280917586342" lon="12.201306727163692"><ele>422.0</ele><time>2026-05-01T08:49:12.999Z</time></trkpt><trkpt lat="43.772642238927375" lon="12.201324664536008"><ele>422.0</ele><time>2026-05-01T08:49:13.999Z</time></trkpt><trkpt lat="43.77248892626046" lon="12.201357166825849"><ele>423.3333333333333</ele><time>2026-05-01T08:49:14.999Z</time></trkpt><trkpt lat="43.77233906188494" lon="12.20138209945714"><ele>424.66666666666663</ele><time>2026-05-01T08:49:15.999Z</time></trkpt><trkpt lat="43.772186479291854" lon="12.201392324248939"><ele>426.0</ele><time>2026-05-01T08:49:16.999Z</time></trkpt><trkpt lat="43.77203532951722" lon="12.201387605115212"><ele>426.0</ele><time>2026-05-01T08:49:17.999Z</time></trkpt><trkpt lat="43.7718949745309" lon="12.20135813547267"><ele>426.0</ele><time>2026-05-01T08:49:18.999Z</time></trkpt><trkpt lat="43.77175836809619" lon="12.201299435127098"><ele>426.0</ele><time>2026-05-01T08:49:19.999Z</time></trkpt><trkpt lat="43.77162524631089" lon="12.201220030342267"><ele>426.0</ele><time>2026-05-01T08:49:20.999Z</time></trkpt><trkpt lat="43.77149518510134" lon="12.20111869120074"><ele>426.0</ele><time>2026-05-01T08:49:21.999Z</time></trkpt><trkpt lat="43.771363802104695" lon="12.20101053215883"><ele>426.0</ele><time>2026-05-01T08:49:22.999Z</time></trkpt><trkpt lat="43.771232850246676" lon="12.200900856518032"><ele>426.0</ele><time>2026-05-01T08:49:23.999Z</time></trkpt><trkpt lat="43.771110363549234" lon="12.20079008805872"><ele>424.75</ele><time>2026-05-01T08:49:24.999Z</time></trkpt><trkpt lat="43.77098589146947" lon="12.20069595539478"><ele>423.5</ele><time>2026-05-01T08:49:25.999Z</time></trkpt><trkpt lat="43.77084810224444" lon="12.20064395418962"><ele>422.25</ele><time>2026-05-01T08:49:26.999Z</time></trkpt><trkpt lat="43.77070132342697" lon="12.20061748193168"><ele>421.0</ele><time>2026-05-01T08:49:27.999Z</time></trkpt><trkpt lat="43.77054937689195" lon="12.200614008473327"><ele>421.0</ele><time>2026-05-01T08:49:28.999Z</time></trkpt><trkpt lat="43.77039323572591" lon="12.200627468761185"><ele>421.0</ele><time>2026-05-01T08:49:29.999Z</time></trkpt><trkpt lat="43.77023927011432" lon="12.200641876794029"><ele>421.0</ele><time>2026-05-01T08:49:30.999Z</time></trkpt><trkpt lat="43.770087073838354" lon="12.200657649240382"><ele>425.0</ele><time>2026-05-01T08:49:31.999Z</time></trkpt><trkpt lat="43.76993759268396" lon="12.200679501063636"><ele>429.0</ele><time>2026-05-01T08:49:32.999Z</time></trkpt><trkpt lat="43.76980051775623" lon="12.200704053157429"><ele>433.0</ele><time>2026-05-01T08:49:33.999Z</time></trkpt><trkpt lat="43.76966623012437" lon="12.20072254032972"><ele>437.0</ele><time>2026-05-01T08:49:34.999Z</time></trkpt><trkpt lat="43.769534581940064" lon="12.20071444916619"><ele>437.0</ele><time>2026-05-01T08:49:35.999Z</time></trkpt><trkpt lat="43.76940534038079" lon="12.200667570983201"><ele>437.0</ele><time>2026-05-01T08:49:36.999Z</time></trkpt><trkpt lat="43.76927759950438" lon="12.200596953660062"><ele>437.0</ele><time>2026-05-01T08:49:37.999Z</time></trkpt><trkpt lat="43.76915533949325" lon="12.200502803776521"><ele>437.0</ele><time>2026-05-01T08:49:38.999Z</time></trkpt><trkpt lat="43.76903162619448" lon="12.200404548598131"><ele>433.66666666666663</ele><time>2026-05-01T08:49:39.999Z</time></trkpt><trkpt lat="43.76890177367764" lon="12.200315396649104"><ele>430.33333333333337</ele><time>2026-05-01T08:49:40.999Z</time></trkpt><trkpt lat="43.768762692804046" lon="12.200236677304407"><ele>427.0</ele><time>2026-05-01T08:49:41.999Z</time></trkpt><trkpt lat="43.7686144756954" lon="12.20017474683765"><ele>429.33333333333337</ele><time>2026-05-01T08:49:42.999Z</time></trkpt><trkpt lat="43.76845868708977" lon="12.200129283301774"><ele>431.66666666666663</ele><time>2026-05-01T08:49:43.999Z</time></trkpt><trkpt lat="43.76830142084063" lon="12.20009433291107"><ele>434.0</ele><time>2026-05-01T08:49:44.999Z</time></trkpt><trkpt lat="43.76814590773186" lon="12.200078190960708"><ele>434.0</ele><time>2026-05-01T08:49:45.999Z</time></trkpt><trkpt lat="43.7679872168024" lon="12.200102218482677"><ele>434.0</ele><time>2026-05-01T08:49:46.999Z</time></trkpt><trkpt lat="43.76782790733649" lon="12.200167582464697"><ele>434.0</ele><time>2026-05-01T08:49:47.999Z</time></trkpt><trkpt lat="43.76767366498291" lon="12.200250636402362"><ele>433.5</ele><time>2026-05-01T08:49:48.999Z</time></trkpt><trkpt lat="43.767527496720916" lon="12.200328838688874"><ele>433.0</ele><time>2026-05-01T08:49:49.999Z</time></trkpt><trkpt lat="43.76738624688645" lon="12.200384849745218"><ele>432.5</ele><time>2026-05-01T08:49:50.999Z</time></trkpt><trkpt lat="43.7672493510908" lon="12.200423215020388"><ele>432.0</ele><time>2026-05-01T08:49:51.999Z</time></trkpt><trkpt lat="43.76711675155008" lon="12.200450232354815"><ele>432.0</ele><time>2026-05-01T08:49:52.999Z</time></trkpt><trkpt lat="43.766988041704835" lon="12.200464007293355"><ele>432.0</ele><time>2026-05-01T08:49:53.999Z</time></trkpt><trkpt lat="43.76685760677907" lon="12.200455255579541"><ele>432.0</ele><time>2026-05-01T08:49:55Z</time></trkpt><trkpt lat="43.76674180357319" lon="12.200438265832009"><ele>432.0</ele><time>2026-05-01T08:49:56Z</time></trkpt><trkpt lat="43.766641299998824" lon="12.200421573109946"><ele>431.8333333333333</ele><time>2026-05-01T08:49:57Z</time></trkpt><trkpt lat="43.76655671627697" lon="12.200393746683593"><ele>431.66666666666663</ele><time>2026-05-01T08:49:58Z</time></trkpt><trkpt lat="43.766474748862336" lon="12.200370281525847"><ele>431.5</ele><time>2026-05-01T08:49:59Z</time></trkpt><trkpt lat="43.76639042865255" lon="12.200349504998046"><ele>431.3333333333333</ele><time>2026-05-01T08:50:00Z</time></trkpt><trkpt lat="43.766304431681206" lon="12.200307541199402"><ele>431.16666666666663</ele><time>2026-05-01T08:50:01Z</time></trkpt><trkpt lat="43.76622073159267" lon="12.200233720876534"><ele>431.0</ele><time>2026-05-01T08:50:02Z</time></trkpt><trkpt lat="43.76614863692991" lon="12.20011557271415"><ele>431.0</ele><time>2026-05-01T08:50:03Z</time></trkpt><trkpt lat="43.766084517408885" lon="12.199992404143698"><ele>431.0</ele><time>2026-05-01T08:50:04Z</time></trkpt><trkpt lat="43.76602317965838" lon="12.199855209325992"><ele>431.0</ele><time>2026-05-01T08:50:05Z</time></trkpt><trkpt lat="43.76595429459508" lon="12.19971895946243"><ele>431.0</ele><time>2026-05-01T08:50:06Z</time></trkpt><trkpt lat="43.76588077760537" lon="12.199577486966527"><ele>431.25</ele><time>2026-05-01T08:50:07Z</time></trkpt><trkpt lat="43.76581012797594" lon="12.199433865169304"><ele>431.5</ele><time>2026-05-01T08:50:08Z</time></trkpt><trkpt lat="43.76574801973859" lon="12.199301244187462"><ele>431.75</ele><time>2026-05-01T08:50:09Z</time></trkpt><trkpt lat="43.76568623051681" lon="12.19917877768603"><ele>432.0</ele><time>2026-05-01T08:50:10Z</time></trkpt><trkpt lat="43.76561989379862" lon="12.199063681417877"><ele>431.40000000000003</ele><time>2026-05-01T08:50:11Z</time></trkpt><trkpt lat="43.76553986913476" lon="12.198961757444685"><ele>430.80000000000007</ele><time>2026-05-01T08:50:12Z</time></trkpt><trkpt lat="43.76544640330854" lon="12.198886368695643"><ele>430.2</ele><time>2026-05-01T08:50:13Z</time></trkpt><trkpt lat="43.76534556429381" lon="12.198821969458063"><ele>429.6</ele><time>2026-05-01T08:50:14Z</time></trkpt><trkpt lat="43.76523744316217" lon="12.198773938320501"><ele>429.0</ele><time>2026-05-01T08:50:15Z</time></trkpt><trkpt lat="43.765129110210594" lon="12.198734316114951"><ele>431.0</ele><time>2026-05-01T08:50:16Z</time></trkpt><trkpt lat="43.765023538932" lon="12.198688926266586"><ele>433.0</ele><time>2026-05-01T08:50:17Z</time></trkpt><trkpt lat="43.76491875266448" lon="12.19864234487856"><ele>435.0</ele><time>2026-05-01T08:50:18Z</time></trkpt><trkpt lat="43.764809276573146" lon="12.198599094476052"><ele>437.0</ele><time>2026-05-01T08:50:19Z</time></trkpt><trkpt lat="43.76469793880636" lon="12.198547672361654"><ele>437.0</ele><time>2026-05-01T08:50:20Z</time></trkpt><trkpt lat="43.76458293170428" lon="12.198491834570262"><ele>437.0</ele><time>2026-05-01T08:50:21Z</time></trkpt><trkpt lat="43.76446525586079" lon="12.19844178183305"><ele>437.0</ele><time>2026-05-01T08:50:22Z</time></trkpt><trkpt lat="43.76434690088857" lon="12.198398967849604"><ele>437.0</ele><time>2026-05-01T08:50:23Z</time></trkpt><trkpt lat="43.76422639368078" lon="12.198375166310843"><ele>438.75</ele><time>2026-05-01T08:50:24Z</time></trkpt><trkpt lat="43.764101356939086" lon="12.19838311405896"><ele>440.5</ele><time>2026-05-01T08:50:25Z</time></trkpt><trkpt lat="43.76397892057734" lon="12.198416848519654"><ele>442.25</ele><time>2026-05-01T08:50:26Z</time></trkpt><trkpt lat="43.763863000973245" lon="12.198492904288829"><ele>444.0</ele><time>2026-05-01T08:50:27Z</time></trkpt><trkpt lat="43.76375940511752" lon="12.19858886121261"><ele>444.0</ele><time>2026-05-01T08:50:28Z</time></trkpt><trkpt lat="43.763659730951055" lon="12.198712756036889"><ele>444.0</ele><time>2026-05-01T08:50:29Z</time></trkpt><trkpt lat="43.76355293741407" lon="12.198835121234845"><ele>444.0</ele><time>2026-05-01T08:50:30Z</time></trkpt><trkpt lat="43.76344673955932" lon="12.198960972232772"><ele>444.0</ele><time>2026-05-01T08:50:31Z</time></trkpt><trkpt lat="43.76333876274555" lon="12.199088706181412"><ele>445.0</ele><time>2026-05-01T08:50:32Z</time></trkpt><trkpt lat="43.76322578983269" lon="12.199209041654656"><ele>446.0</ele><time>2026-05-01T08:50:33Z</time></trkpt><trkpt lat="43.76310767570563" lon="12.199321340525252"><ele>447.0</ele><time>2026-05-01T08:50:34Z</time></trkpt><trkpt lat="43.76297624878855" lon="12.199410795501448"><ele>448.0</ele><time>2026-05-01T08:50:35Z</time></trkpt><trkpt lat="43.76283654639132" lon="12.199474129350607"><ele>447.5</ele><time>2026-05-01T08:50:36Z</time></trkpt><trkpt lat="43.762689580384254" lon="12.199517251271192"><ele>447.0</ele><time>2026-05-01T08:50:37Z</time></trkpt><trkpt lat="43.762542353669936" lon="12.19954215939612"><ele>446.5</ele><time>2026-05-01T08:50:38Z</time></trkpt><trkpt lat="43.76239635391218" lon="12.199553735959245"><ele>446.0</ele><time>2026-05-01T08:50:39Z</time></trkpt><trkpt lat="43.76224760987491" lon="12.199531377980168"><ele>446.0</ele><time>2026-05-01T08:50:40Z</time></trkpt><trkpt lat="43.76210249955941" lon="12.199496187443845"><ele>446.0</ele><time>2026-05-01T08:50:41Z</time></trkpt><trkpt lat="43.7619569318951" lon="12.199469168734582"><ele>446.0</ele><time>2026-05-01T08:50:42Z</time></trkpt><trkpt lat="43.76181273134356" lon="12.199459907602195"><ele>446.0</ele><time>2026-05-01T08:50:43Z</time></trkpt><trkpt lat="43.76166676665142" lon="12.199484527720761"><ele>445.0</ele><time>2026-05-01T08:50:44Z</time></trkpt><trkpt lat="43.76152451020473" lon="12.199552667395505"><ele>444.0</ele><time>2026-05-01T08:50:45Z</time></trkpt><trkpt lat="43.76138897364932" lon="12.199653908735064"><ele>443.0</ele><time>2026-05-01T08:50:46Z</time></trkpt><trkpt lat="43.76127295874814" lon="12.199789508050639"><ele>446.75</ele><time>2026-05-01T08:50:47Z</time></trkpt><trkpt lat="43.76116670414177" lon="12.199933536058351"><ele>450.5</ele><time>2026-05-01T08:50:48Z</time></trkpt><trkpt lat="43.76104005476548" lon="12.200037080402916"><ele>454.25</ele><time>2026-05-01T08:50:49Z</time></trkpt><trkpt lat="43.76089590537852" lon="12.200103687661937"><ele>458.0</ele><time>2026-05-01T08:50:50Z</time></trkpt><trkpt lat="43.760742408271625" lon="12.200132765147403"><ele>458.0</ele><time>2026-05-01T08:50:51Z</time></trkpt><trkpt lat="43.760585463834545" lon="12.200129145842848"><ele>458.0</ele><time>2026-05-01T08:50:51.999Z</time></trkpt><trkpt lat="43.760426635575996" lon="12.200102504423457"><ele>458.0</ele><time>2026-05-01T08:50:52.999Z</time></trkpt><trkpt lat="43.760269637746994" lon="12.200071714672594"><ele>459.5</ele><time>2026-05-01T08:50:53.999Z</time></trkpt><trkpt lat="43.7601234723301" lon="12.200053330140227"><ele>461.0</ele><time>2026-05-01T08:50:54.999Z</time></trkpt><trkpt lat="43.75997499022114" lon="12.200025453586548"><ele>462.5</ele><time>2026-05-01T08:50:55.999Z</time></trkpt><trkpt lat="43.759828488946845" lon="12.19998879326216"><ele>464.0</ele><time>2026-05-01T08:50:56.999Z</time></trkpt><trkpt lat="43.759682638265076" lon="12.19994778796892"><ele>464.0</ele><time>2026-05-01T08:50:57.999Z</time></trkpt><trkpt lat="43.75954083386978" lon="12.199884335406024"><ele>464.0</ele><time>2026-05-01T08:50:58.999Z</time></trkpt><trkpt lat="43.75940348660141" lon="12.199795759792393"><ele>464.0</ele><time>2026-05-01T08:50:59.999Z</time></trkpt><trkpt lat="43.75926971010044" lon="12.19969610489324"><ele>463.66666666666663</ele><time>2026-05-01T08:51:00.999Z</time></trkpt><trkpt lat="43.75914356044247" lon="12.199573600982957"><ele>463.33333333333337</ele><time>2026-05-01T08:51:01.999Z</time></trkpt><trkpt lat="43.7590287301414" lon="12.199423700409309"><ele>463.0</ele><time>2026-05-01T08:51:02.999Z</time></trkpt><trkpt lat="43.75892268532495" lon="12.199251647115496"><ele>463.0</ele><time>2026-05-01T08:51:03.999Z</time></trkpt><trkpt lat="43.75882072667769" lon="12.199067873799123"><ele>463.0</ele><time>2026-05-01T08:51:04.999Z</time></trkpt><trkpt lat="43.758716567019675" lon="12.198884950619133"><ele>463.0</ele><time>2026-05-01T08:51:05.999Z</time></trkpt><trkpt lat="43.75861683788523" lon="12.198696723315903"><ele>466.0</ele><time>2026-05-01T08:51:06.999Z</time></trkpt><trkpt lat="43.75851673276752" lon="12.198506383632001"><ele>469.0</ele><time>2026-05-01T08:51:07.999Z</time></trkpt><trkpt lat="43.758413645741534" lon="12.198315571759922"><ele>472.0</ele><time>2026-05-01T08:51:08.999Z</time></trkpt><trkpt lat="43.75830755041995" lon="12.198124878782808"><ele>472.0</ele><time>2026-05-01T08:51:09.999Z</time></trkpt><trkpt lat="43.758200376697296" lon="12.197932843523972"><ele>472.0</ele><time>2026-05-01T08:51:10.999Z</time></trkpt><trkpt lat="43.75809946141967" lon="12.19774671903552"><ele>472.0</ele><time>2026-05-01T08:51:11.999Z</time></trkpt><trkpt lat="43.758002111260424" lon="12.197575677671868"><ele>472.0</ele><time>2026-05-01T08:51:12.999Z</time></trkpt><trkpt lat="43.757886747560754" lon="12.197419646034142"><ele>472.0</ele><time>2026-05-01T08:51:13.999Z</time></trkpt><trkpt lat="43.75774546239506" lon="12.19730457268796"><ele>472.0</ele><time>2026-05-01T08:51:14.999Z</time></trkpt><trkpt lat="43.75758937042926" lon="12.197232763282331"><ele>475.0</ele><time>2026-05-01T08:51:15.999Z</time></trkpt><trkpt lat="43.757439315703216" lon="12.197161499425128"><ele>478.0</ele><time>2026-05-01T08:51:16.999Z</time></trkpt><trkpt lat="43.75731143802697" lon="12.19703144999285"><ele>481.0</ele><time>2026-05-01T08:51:17.999Z</time></trkpt><trkpt lat="43.757211336281834" lon="12.196857880063494"><ele>481.0</ele><time>2026-05-01T08:51:18.999Z</time></trkpt><trkpt lat="43.757133885305294" lon="12.196664963160142"><ele>481.0</ele><time>2026-05-01T08:51:19.999Z</time></trkpt><trkpt lat="43.75707978368379" lon="12.196450413886232"><ele>481.0</ele><time>2026-05-01T08:51:20.999Z</time></trkpt><trkpt lat="43.75702002452827" lon="12.19624238773724"><ele>478.33333333333337</ele><time>2026-05-01T08:51:21.999Z</time></trkpt><trkpt lat="43.756960434236525" lon="12.19603737094445"><ele>475.66666666666663</ele><time>2026-05-01T08:51:22.999Z</time></trkpt><trkpt lat="43.756890254192015" lon="12.195862568560226"><ele>473.0</ele><time>2026-05-01T08:51:23.999Z</time></trkpt><trkpt lat="43.75679218986837" lon="12.19571014367151"><ele>470.0</ele><time>2026-05-01T08:51:24.999Z</time></trkpt><trkpt lat="43.75667399190093" lon="12.195594744032844"><ele>467.0</ele><time>2026-05-01T08:51:25.999Z</time></trkpt><trkpt lat="43.7565305256943" lon="12.19554455956181"><ele>464.0</ele><time>2026-05-01T08:51:26.999Z</time></trkpt><trkpt lat="43.75637159276959" lon="12.195567449876107"><ele>464.0</ele><time>2026-05-01T08:51:27.999Z</time></trkpt><trkpt lat="43.756227317443816" lon="12.195628834015064"><ele>464.0</ele><time>2026-05-01T08:51:28.999Z</time></trkpt><trkpt lat="43.75609663602229" lon="12.195761395607882"><ele>464.0</ele><time>2026-05-01T08:51:29.999Z</time></trkpt><trkpt lat="43.75598114931243" lon="12.19591165846744"><ele>469.66666666666663</ele><time>2026-05-01T08:51:30.999Z</time></trkpt><trkpt lat="43.75586278088833" lon="12.19607877918062"><ele>475.33333333333337</ele><time>2026-05-01T08:51:31.999Z</time></trkpt><trkpt lat="43.75573867891411" lon="12.196245370254116"><ele>481.0</ele><time>2026-05-01T08:51:32.999Z</time></trkpt><trkpt lat="43.755622896182864" lon="12.1964108962739"><ele>487.75</ele><time>2026-05-01T08:51:33.999Z</time></trkpt><trkpt lat="43.75551764998786" lon="12.196564901752604"><ele>494.5</ele><time>2026-05-01T08:51:34.999Z</time></trkpt><trkpt lat="43.75541599387322" lon="12.196705000408354"><ele>501.25</ele><time>2026-05-01T08:51:35.999Z</time></trkpt><trkpt lat="43.75531712845017" lon="12.196835343035596"><ele>508.0</ele><time>2026-05-01T08:51:36.999Z</time></trkpt><trkpt lat="43.75521766118523" lon="12.196962005520332"><ele>503.0</ele><time>2026-05-01T08:51:37.999Z</time></trkpt><trkpt lat="43.755107760944675" lon="12.197088072352436"><ele>498.0</ele><time>2026-05-01T08:51:38.999Z</time></trkpt><trkpt lat="43.754987924571154" lon="12.197202442241524"><ele>493.0</ele><time>2026-05-01T08:51:39.999Z</time></trkpt><trkpt lat="43.75485117707223" lon="12.19727811157253"><ele>488.0</ele><time>2026-05-01T08:51:40.999Z</time></trkpt><trkpt lat="43.75470589129281" lon="12.197311889712138"><ele>488.0</ele><time>2026-05-01T08:51:41.999Z</time></trkpt><trkpt lat="43.75455833890439" lon="12.19730051806179"><ele>488.0</ele><time>2026-05-01T08:51:42.999Z</time></trkpt><trkpt lat="43.754411729735764" lon="12.197263714559721"><ele>488.0</ele><time>2026-05-01T08:51:43.999Z</time></trkpt><trkpt lat="43.754268743319294" lon="12.197200649815123"><ele>488.0</ele><time>2026-05-01T08:51:44.999Z</time></trkpt><trkpt lat="43.754133124395516" lon="12.197128069697944"><ele>485.75</ele><time>2026-05-01T08:51:45.999Z</time></trkpt><trkpt lat="43.75399025265314" lon="12.19707522564924"><ele>483.5</ele><time>2026-05-01T08:51:46.999Z</time></trkpt><trkpt lat="43.75384161905907" lon="12.197058008329732"><ele>481.25</ele><time>2026-05-01T08:51:47.999Z</time></trkpt><trkpt lat="43.753692817761014" lon="12.197065264964568"><ele>479.0</ele><time>2026-05-01T08:51:48.999Z</time></trkpt><trkpt lat="43.75354235556375" lon="12.197109693534268"><ele>477.66666666666663</ele><time>2026-05-01T08:51:49.999Z</time></trkpt><trkpt lat="43.753398791863496" lon="12.197192764792462"><ele>476.33333333333337</ele><time>2026-05-01T08:51:50.999Z</time></trkpt><trkpt lat="43.75326142113863" lon="12.197303081597202"><ele>475.0</ele><time>2026-05-01T08:51:51.999Z</time></trkpt><trkpt lat="43.753136005506704" lon="12.197435384371834"><ele>483.33333333333337</ele><time>2026-05-01T08:51:52.999Z</time></trkpt><trkpt lat="43.75302181088672" lon="12.19758081788912"><ele>491.66666666666663</ele><time>2026-05-01T08:51:53.999Z</time></trkpt><trkpt lat="43.75290622224546" lon="12.19771988840403"><ele>500.0</ele><time>2026-05-01T08:51:54.999Z</time></trkpt><trkpt lat="43.752780950596026" lon="12.197834406948525"><ele>497.0</ele><time>2026-05-01T08:51:55.999Z</time></trkpt><trkpt lat="43.75263779782898" lon="12.197896537819911"><ele>494.0</ele><time>2026-05-01T08:51:56.999Z</time></trkpt><trkpt lat="43.75249068633593" lon="12.197930481716543"><ele>491.0</ele><time>2026-05-01T08:51:57.999Z</time></trkpt><trkpt lat="43.752339144361436" lon="12.197943734007271"><ele>491.0</ele><time>2026-05-01T08:51:58.999Z</time></trkpt><trkpt lat="43.75218773235274" lon="12.197912737671913"><ele>491.0</ele><time>2026-05-01T08:51:59.999Z</time></trkpt><trkpt lat="43.75203895753182" lon="12.197868170515706"><ele>491.0</ele><time>2026-05-01T08:52:01Z</time></trkpt><trkpt lat="43.751886897041516" lon="12.19784650243281"><ele>489.66666666666663</ele><time>2026-05-01T08:52:02Z</time></trkpt><trkpt lat="43.75173169736012" lon="12.197857882657077"><ele>488.33333333333337</ele><time>2026-05-01T08:52:03Z</time></trkpt><trkpt lat="43.75157930158052" lon="12.197899573267131"><ele>487.0</ele><time>2026-05-01T08:52:04Z</time></trkpt><trkpt lat="43.751431535626466" lon="12.197970907648841"><ele>487.0</ele><time>2026-05-01T08:52:05Z</time></trkpt><trkpt lat="43.75129265321951" lon="12.198078828076097"><ele>487.0</ele><time>2026-05-01T08:52:06Z</time></trkpt><trkpt lat="43.75116596863105" lon="12.198220620401047"><ele>487.0</ele><time>2026-05-01T08:52:07Z</time></trkpt><trkpt lat="43.75104717501847" lon="12.198378067286539"><ele>487.0</ele><time>2026-05-01T08:52:08Z</time></trkpt><trkpt lat="43.75093837007253" lon="12.198539661607187"><ele>487.0</ele><time>2026-05-01T08:52:09Z</time></trkpt><trkpt lat="43.75084394767175" lon="12.198691672739306"><ele>487.0</ele><time>2026-05-01T08:52:10Z</time></trkpt><trkpt lat="43.75074684287282" lon="12.198817877694768"><ele>487.0</ele><time>2026-05-01T08:52:11Z</time></trkpt><trkpt lat="43.750634591145754" lon="12.198899358589902"><ele>487.0</ele><time>2026-05-01T08:52:12Z</time></trkpt><trkpt lat="43.75051217237666" lon="12.198948766210085"><ele>487.0</ele><time>2026-05-01T08:52:13Z</time></trkpt><trkpt lat="43.75039220754586" lon="12.199001149767566"><ele>487.0</ele><time>2026-05-01T08:52:14Z</time></trkpt><trkpt lat="43.750269027801785" lon="12.199053182807912"><ele>487.0</ele><time>2026-05-01T08:52:15Z</time></trkpt><trkpt lat="43.750143186237466" lon="12.199098113083599"><ele>489.75</ele><time>2026-05-01T08:52:16Z</time></trkpt><trkpt lat="43.75001516979149" lon="12.199139118213528"><ele>492.5</ele><time>2026-05-01T08:52:17Z</time></trkpt><trkpt lat="43.74988343686349" lon="12.1991674586509"><ele>495.25</ele><time>2026-05-01T08:52:18Z</time></trkpt><trkpt lat="43.749754828476654" lon="12.19918334189568"><ele>498.0</ele><time>2026-05-01T08:52:19Z</time></trkpt><trkpt lat="43.749637908532186" lon="12.199198524347455"><ele>498.0</ele><time>2026-05-01T08:52:20Z</time></trkpt><trkpt lat="43.74952662426949" lon="12.199212330450424"><ele>498.0</ele><time>2026-05-01T08:52:21Z</time></trkpt><trkpt lat="43.74940994333692" lon="12.19922703717768"><ele>498.0</ele><time>2026-05-01T08:52:22Z</time></trkpt><trkpt lat="43.749287033782515" lon="12.199239003703648"><ele>498.0</ele><time>2026-05-01T08:52:23Z</time></trkpt><trkpt lat="43.74915835217825" lon="12.19923999455745"><ele>499.0</ele><time>2026-05-01T08:52:24Z</time></trkpt><trkpt lat="43.749024269338754" lon="12.199226058761047"><ele>500.0</ele><time>2026-05-01T08:52:25Z</time></trkpt><trkpt lat="43.74889247496894" lon="12.19919601548178"><ele>501.0</ele><time>2026-05-01T08:52:26Z</time></trkpt><trkpt lat="43.748769007434134" lon="12.199158458764703"><ele>502.0</ele><time>2026-05-01T08:52:27Z</time></trkpt><trkpt lat="43.7486521742868" lon="12.199102644221874"><ele>498.5</ele><time>2026-05-01T08:52:28Z</time></trkpt><trkpt lat="43.74853257437902" lon="12.199023355418712"><ele>495.0</ele><time>2026-05-01T08:52:29Z</time></trkpt><trkpt lat="43.748425472067396" lon="12.198911523383565"><ele>491.5</ele><time>2026-05-01T08:52:30Z</time></trkpt><trkpt lat="43.748335398639526" lon="12.19876146330942"><ele>488.0</ele><time>2026-05-01T08:52:31Z</time></trkpt><trkpt lat="43.748244809564945" lon="12.198601913898274"><ele>488.0</ele><time>2026-05-01T08:52:32Z</time></trkpt><trkpt lat="43.748149703982456" lon="12.198445242800506"><ele>488.0</ele><time>2026-05-01T08:52:33Z</time></trkpt><trkpt lat="43.74804790219569" lon="12.19830518111291"><ele>488.0</ele><time>2026-05-01T08:52:34Z</time></trkpt><trkpt lat="43.747946320281194" lon="12.198177319496539"><ele>488.0</ele><time>2026-05-01T08:52:35Z</time></trkpt><trkpt lat="43.74783518019308" lon="12.198077370215643"><ele>485.5</ele><time>2026-05-01T08:52:36Z</time></trkpt><trkpt lat="43.74770705603903" lon="12.198011529327063"><ele>483.0</ele><time>2026-05-01T08:52:37Z</time></trkpt><trkpt lat="43.74757415623006" lon="12.19795635371216"><ele>480.5</ele><time>2026-05-01T08:52:38Z</time></trkpt><trkpt lat="43.747436118674585" lon="12.197903864112549"><ele>478.0</ele><time>2026-05-01T08:52:39Z</time></trkpt><trkpt lat="43.747292881652186" lon="12.19785271095408"><ele>478.0</ele><time>2026-05-01T08:52:40Z</time></trkpt><trkpt lat="43.747159532667624" lon="12.197814028991322"><ele>478.0</ele><time>2026-05-01T08:52:41Z</time></trkpt><trkpt lat="43.74702741093146" lon="12.197804324034346"><ele>478.0</ele><time>2026-05-01T08:52:42Z</time></trkpt><trkpt lat="43.74688807546973" lon="12.197847766582505"><ele>478.0</ele><time>2026-05-01T08:52:43Z</time></trkpt><trkpt lat="43.74674810260251" lon="12.197927885236336"><ele>478.0</ele><time>2026-05-01T08:52:44Z</time></trkpt><trkpt lat="43.74660625684847" lon="12.198014129912258"><ele>478.0</ele><time>2026-05-01T08:52:45Z</time></trkpt><trkpt lat="43.746461852835324" lon="12.198106584096196"><ele>478.0</ele><time>2026-05-01T08:52:46Z</time></trkpt><trkpt lat="43.7463138078787" lon="12.198201649194983"><ele>479.6666666666667</ele><time>2026-05-01T08:52:47Z</time></trkpt><trkpt lat="43.746163337512904" lon="12.19829737917389"><ele>481.33333333333337</ele><time>2026-05-01T08:52:48Z</time></trkpt><trkpt lat="43.74601253637546" lon="12.198402913576963"><ele>483.0</ele><time>2026-05-01T08:52:49Z</time></trkpt><trkpt lat="43.74586777179076" lon="12.198527123944244"><ele>483.0</ele><time>2026-05-01T08:52:50Z</time></trkpt><trkpt lat="43.7457324112216" lon="12.19867583108634"><ele>483.0</ele><time>2026-05-01T08:52:51Z</time></trkpt><trkpt lat="43.74560463338197" lon="12.19884548208948"><ele>483.0</ele><time>2026-05-01T08:52:52Z</time></trkpt><trkpt lat="43.74547522317549" lon="12.199017790264625"><ele>482.33333333333337</ele><time>2026-05-01T08:52:53Z</time></trkpt><trkpt lat="43.74534545084987" lon="12.199191724341624"><ele>481.6666666666667</ele><time>2026-05-01T08:52:54Z</time></trkpt><trkpt lat="43.74521600195287" lon="12.199369164480808"><ele>481.0</ele><time>2026-05-01T08:52:55Z</time></trkpt><trkpt lat="43.745086797394436" lon="12.199549147822363"><ele>481.0</ele><time>2026-05-01T08:52:56Z</time></trkpt><trkpt lat="43.74496354599657" lon="12.199739100389099"><ele>481.0</ele><time>2026-05-01T08:52:57Z</time></trkpt><trkpt lat="43.7448418083081" lon="12.199930318853843"><ele>481.0</ele><time>2026-05-01T08:52:58Z</time></trkpt><trkpt lat="43.744729001916745" lon="12.200131921264598"><ele>485.33333333333337</ele><time>2026-05-01T08:52:59Z</time></trkpt><trkpt lat="43.74463747381902" lon="12.200348690712916"><ele>489.66666666666663</ele><time>2026-05-01T08:53:00Z</time></trkpt><trkpt lat="43.744560233134074" lon="12.20057537361832"><ele>494.0</ele><time>2026-05-01T08:53:01Z</time></trkpt><trkpt lat="43.74449257079687" lon="12.200804484233919"><ele>489.66666666666663</ele><time>2026-05-01T08:53:01.999Z</time></trkpt><trkpt lat="43.74441797301" lon="12.201012264978353"><ele>485.33333333333337</ele><time>2026-05-01T08:53:02.999Z</time></trkpt><trkpt lat="43.74432006966158" lon="12.201181025928983"><ele>481.0</ele><time>2026-05-01T08:53:03.999Z</time></trkpt><trkpt lat="43.74421515624854" lon="12.20133464523208"><ele>481.0</ele><time>2026-05-01T08:53:04.999Z</time></trkpt><trkpt lat="43.74411420653577" lon="12.201487532760332"><ele>481.0</ele><time>2026-05-01T08:53:05.999Z</time></trkpt><trkpt lat="43.7440152468036" lon="12.201617958783096"><ele>481.0</ele><time>2026-05-01T08:53:06.999Z</time></trkpt><trkpt lat="43.74392429193868" lon="12.20173883732452"><ele>481.0</ele><time>2026-05-01T08:53:07.999Z</time></trkpt><trkpt lat="43.74384303183689" lon="12.2018491438302"><ele>481.75</ele><time>2026-05-01T08:53:08.999Z</time></trkpt><trkpt lat="43.7437551296115" lon="12.201937892604017"><ele>482.5</ele><time>2026-05-01T08:53:09.999Z</time></trkpt><trkpt lat="43.74365300331615" lon="12.201997956171033"><ele>483.25</ele><time>2026-05-01T08:53:10.999Z</time></trkpt><trkpt lat="43.743539815704004" lon="12.202026526363404"><ele>484.0</ele><time>2026-05-01T08:53:11.999Z</time></trkpt><trkpt lat="43.7434171232834" lon="12.202034733033939"><ele>484.0</ele><time>2026-05-01T08:53:12.999Z</time></trkpt><trkpt lat="43.74328803576527" lon="12.20203122102435"><ele>484.0</ele><time>2026-05-01T08:53:13.999Z</time></trkpt><trkpt lat="43.74315805691656" lon="12.202026033764115"><ele>484.0</ele><time>2026-05-01T08:53:14.999Z</time></trkpt><trkpt lat="43.74302621488562" lon="12.202011220867536"><ele>484.0</ele><time>2026-05-01T08:53:15.999Z</time></trkpt><trkpt lat="43.74289215077998" lon="12.201999709459018"><ele>484.0</ele><time>2026-05-01T08:53:16.999Z</time></trkpt><trkpt lat="43.742756278921824" lon="12.201978900586457"><ele>484.0</ele><time>2026-05-01T08:53:17.999Z</time></trkpt><trkpt lat="43.742626524871966" lon="12.201923752624392"><ele>484.0</ele><time>2026-05-01T08:53:18.999Z</time></trkpt><trkpt lat="43.742499275163254" lon="12.20184811516631"><ele>484.0</ele><time>2026-05-01T08:53:19.999Z</time></trkpt><trkpt lat="43.742379501902825" lon="12.20179314129505"><ele>485.0</ele><time>2026-05-01T08:53:20.999Z</time></trkpt><trkpt lat="43.74226294410383" lon="12.201795309610178"><ele>486.0</ele><time>2026-05-01T08:53:21.999Z</time></trkpt><trkpt lat="43.74215076140051" lon="12.20186876187822"><ele>487.0</ele><time>2026-05-01T08:53:22.999Z</time></trkpt><trkpt lat="43.742065720333976" lon="12.202007626220635"><ele>488.0</ele><time>2026-05-01T08:53:23.999Z</time></trkpt><trkpt lat="43.74203039129825" lon="12.202205430939438"><ele>491.0</ele><time>2026-05-01T08:53:24.999Z</time></trkpt><trkpt lat="43.74200911165256" lon="12.202398884470083"><ele>494.0</ele><time>2026-05-01T08:53:25.999Z</time></trkpt><trkpt lat="43.74196298448809" lon="12.202565422526115"><ele>497.0</ele><time>2026-05-01T08:53:26.999Z</time></trkpt><trkpt lat="43.741913859851266" lon="12.202702072082209"><ele>500.0</ele><time>2026-05-01T08:53:27.999Z</time></trkpt><trkpt lat="43.74183389269776" lon="12.202782956324523"><ele>500.0</ele><time>2026-05-01T08:53:28.999Z</time></trkpt><trkpt lat="43.741743665032466" lon="12.202806598388053"><ele>500.0</ele><time>2026-05-01T08:53:29.999Z</time></trkpt><trkpt lat="43.741641184609634" lon="12.202765017666351"><ele>500.0</ele><time>2026-05-01T08:53:30.999Z</time></trkpt><trkpt lat="43.741534041773235" lon="12.202693379958482"><ele>500.0</ele><time>2026-05-01T08:53:31.999Z</time></trkpt><trkpt lat="43.741434550131856" lon="12.202580172052384"><ele>500.0</ele><time>2026-05-01T08:53:32.999Z</time></trkpt><trkpt lat="43.74135811062426" lon="12.202432180150387"><ele>497.25</ele><time>2026-05-01T08:53:33.999Z</time></trkpt><trkpt lat="43.74130801606364" lon="12.202258838602067"><ele>494.5</ele><time>2026-05-01T08:53:34.999Z</time></trkpt><trkpt lat="43.74127893702748" lon="12.202078998976878"><ele>491.75</ele><time>2026-05-01T08:53:35.999Z</time></trkpt><trkpt lat="43.74125759077221" lon="12.201896463809431"><ele>489.0</ele><time>2026-05-01T08:53:36.999Z</time></trkpt><trkpt lat="43.74122740000593" lon="12.201723658515569"><ele>489.0</ele><time>2026-05-01T08:53:37.999Z</time></trkpt><trkpt lat="43.741150968704844" lon="12.201588670766366"><ele>489.0</ele><time>2026-05-01T08:53:38.999Z</time></trkpt><trkpt lat="43.7410358520016" lon="12.201507336749835"><ele>489.0</ele><time>2026-05-01T08:53:39.999Z</time></trkpt><trkpt lat="43.740902616161065" lon="12.201493664458033"><ele>489.0</ele><time>2026-05-01T08:53:40.999Z</time></trkpt><trkpt lat="43.740769424705" lon="12.201511376890542"><ele>495.33333333333337</ele><time>2026-05-01T08:53:41.999Z</time></trkpt><trkpt lat="43.740624282158606" lon="12.201538325335228"><ele>501.6666666666667</ele><time>2026-05-01T08:53:42.999Z</time></trkpt><trkpt lat="43.74047037511182" lon="12.201555740206212"><ele>508.0</ele><time>2026-05-01T08:53:43.999Z</time></trkpt><trkpt lat="43.74031317371782" lon="12.20156984307539"><ele>511.0</ele><time>2026-05-01T08:53:44.999Z</time></trkpt><trkpt lat="43.74015566308587" lon="12.201592003511845"><ele>514.0</ele><time>2026-05-01T08:53:45.999Z</time></trkpt><trkpt lat="43.74000041696275" lon="12.201627224105506"><ele>517.0</ele><time>2026-05-01T08:53:46.999Z</time></trkpt><trkpt lat="43.73984642667966" lon="12.2016635325805"><ele>517.0</ele><time>2026-05-01T08:53:47.999Z</time></trkpt><trkpt lat="43.73968897043622" lon="12.201698342726074"><ele>517.0</ele><time>2026-05-01T08:53:48.999Z</time></trkpt><trkpt lat="43.7395300948223" lon="12.201725885814545"><ele>517.0</ele><time>2026-05-01T08:53:49.999Z</time></trkpt><trkpt lat="43.739373402825805" lon="12.201752926614809"><ele>519.5</ele><time>2026-05-01T08:53:50.999Z</time></trkpt><trkpt lat="43.739231100486634" lon="12.201780730495623"><ele>522.0</ele><time>2026-05-01T08:53:51.999Z</time></trkpt><trkpt lat="43.73909935188279" lon="12.201794800156149"><ele>524.5</ele><time>2026-05-01T08:53:52.999Z</time></trkpt><trkpt lat="43.738972421845595" lon="12.201767666124638"><ele>527.0</ele><time>2026-05-01T08:53:53.999Z</time></trkpt><trkpt lat="43.73886687110528" lon="12.201678901744835"><ele>527.0</ele><time>2026-05-01T08:53:54.999Z</time></trkpt><trkpt lat="43.738802977500285" lon="12.201534940110779"><ele>527.0</ele><time>2026-05-01T08:53:55.999Z</time></trkpt><trkpt lat="43.73878453141735" lon="12.201359400915486"><ele>527.0</ele><time>2026-05-01T08:53:56.999Z</time></trkpt><trkpt lat="43.73876697003803" lon="12.201179386346308"><ele>527.0</ele><time>2026-05-01T08:53:57.999Z</time></trkpt><trkpt lat="43.73872984010765" lon="12.200995541276985"><ele>518.3333333333333</ele><time>2026-05-01T08:53:58.999Z</time></trkpt><trkpt lat="43.73865843424193" lon="12.20081829224363"><ele>509.66666666666663</ele><time>2026-05-01T08:53:59.999Z</time></trkpt><trkpt lat="43.738547097729835" lon="12.200665114977916"><ele>501.0</ele><time>2026-05-01T08:54:00.999Z</time></trkpt><trkpt lat="43.73841203900414" lon="12.200552695325097"><ele>498.25</ele><time>2026-05-01T08:54:01.999Z</time></trkpt><trkpt lat="43.738275893953315" lon="12.20048471195214"><ele>495.5</ele><time>2026-05-01T08:54:02.999Z</time></trkpt><trkpt lat="43.73814258412772" lon="12.200470173388188"><ele>492.75</ele><time>2026-05-01T08:54:03.999Z</time></trkpt><trkpt lat="43.73802572236095" lon="12.200532910003986"><ele>490.0</ele><time>2026-05-01T08:54:04.999Z</time></trkpt><trkpt lat="43.73792513623666" lon="12.200664536877145"><ele>497.5</ele><time>2026-05-01T08:54:05.999Z</time></trkpt><trkpt lat="43.73782783487858" lon="12.200809732398266"><ele>505.0</ele><time>2026-05-01T08:54:07Z</time></trkpt><trkpt lat="43.73771500902215" lon="12.200936646472554"><ele>512.5</ele><time>2026-05-01T08:54:08Z</time></trkpt><trkpt lat="43.7375823628915" lon="12.201029231156767"><ele>520.0</ele><time>2026-05-01T08:54:09Z</time></trkpt><trkpt lat="43.737444898282504" lon="12.201118855922607"><ele>520.0</ele><time>2026-05-01T08:54:10Z</time></trkpt><trkpt lat="43.73730942132592" lon="12.201213836241681"><ele>520.0</ele><time>2026-05-01T08:54:11Z</time></trkpt><trkpt lat="43.737172758169564" lon="12.201303951799654"><ele>520.0</ele><time>2026-05-01T08:54:12Z</time></trkpt><trkpt lat="43.737034864768354" lon="12.201395966431894"><ele>520.0</ele><time>2026-05-01T08:54:13Z</time></trkpt><trkpt lat="43.736893412697036" lon="12.201490566959691"><ele>520.0</ele><time>2026-05-01T08:54:14Z</time></trkpt><trkpt lat="43.73674768496175" lon="12.201566285317787"><ele>520.0</ele><time>2026-05-01T08:54:15Z</time></trkpt><trkpt lat="43.736596839151474" lon="12.201622169580357"><ele>525.0</ele><time>2026-05-01T08:54:16Z</time></trkpt><trkpt lat="43.73645483036261" lon="12.201666524922723"><ele>530.0</ele><time>2026-05-01T08:54:17Z</time></trkpt><trkpt lat="43.736325882686145" lon="12.201694862481109"><ele>535.0</ele><time>2026-05-01T08:54:18Z</time></trkpt><trkpt lat="43.73620573555596" lon="12.201697028706478"><ele>540.0</ele><time>2026-05-01T08:54:19Z</time></trkpt><trkpt lat="43.73609533782447" lon="12.201661151750148"><ele>540.25</ele><time>2026-05-01T08:54:20Z</time></trkpt><trkpt lat="43.7359886491806" lon="12.201585797676723"><ele>540.5</ele><time>2026-05-01T08:54:21Z</time></trkpt><trkpt lat="43.73590213850507" lon="12.201466987163268"><ele>540.75</ele><time>2026-05-01T08:54:22Z</time></trkpt><trkpt lat="43.73585589725236" lon="12.20130407637797"><ele>541.0</ele><time>2026-05-01T08:54:23Z</time></trkpt><trkpt lat="43.735854742171334" lon="12.20112891007462"><ele>539.75</ele><time>2026-05-01T08:54:24Z</time></trkpt><trkpt lat="43.73586825166969" lon="12.200941351776072"><ele>538.5</ele><time>2026-05-01T08:54:25Z</time></trkpt><trkpt lat="43.73584521016984" lon="12.20076396353613"><ele>537.25</ele><time>2026-05-01T08:54:26Z</time></trkpt><trkpt lat="43.735780057358696" lon="12.200596963976798"><ele>536.0</ele><time>2026-05-01T08:54:27Z</time></trkpt><trkpt lat="43.735694086457684" lon="12.20045666031327"><ele>537.5</ele><time>2026-05-01T08:54:28Z</time></trkpt><trkpt lat="43.73558384773261" lon="12.200349258955669"><ele>539.0</ele><time>2026-05-01T08:54:29Z</time></trkpt><trkpt lat="43.73545222474749" lon="12.200264417273646"><ele>540.5</ele><time>2026-05-01T08:54:30Z</time></trkpt><trkpt lat="43.73531767863194" lon="12.200167599655341"><ele>542.0</ele><time>2026-05-01T08:54:31Z</time></trkpt><trkpt lat="43.73517994600019" lon="12.200061918631029"><ele>542.0</ele><time>2026-05-01T08:54:32Z</time></trkpt><trkpt lat="43.73503981995796" lon="12.19995194491324"><ele>542.0</ele><time>2026-05-01T08:54:33Z</time></trkpt><trkpt lat="43.73490114730498" lon="12.199833694665786"><ele>542.0</ele><time>2026-05-01T08:54:34Z</time></trkpt><trkpt lat="43.73475675093267" lon="12.19972452145631"><ele>536.0</ele><time>2026-05-01T08:54:35Z</time></trkpt><trkpt lat="43.73459935535853" lon="12.199641648534698"><ele>530.0</ele><time>2026-05-01T08:54:36Z</time></trkpt><trkpt lat="43.73442955411623" lon="12.19959516412195"><ele>524.0</ele><time>2026-05-01T08:54:37Z</time></trkpt><trkpt lat="43.734255852751346" lon="12.199575593860166"><ele>524.0</ele><time>2026-05-01T08:54:38Z</time></trkpt><trkpt lat="43.73408133735827" lon="12.199574667275716"><ele>524.0</ele><time>2026-05-01T08:54:39Z</time></trkpt><trkpt lat="43.73391077590636" lon="12.19956930825638"><ele>524.0</ele><time>2026-05-01T08:54:40Z</time></trkpt><trkpt lat="43.73374389385272" lon="12.199514051376676"><ele>524.0</ele><time>2026-05-01T08:54:41Z</time></trkpt><trkpt lat="43.73358727213179" lon="12.199415903319744"><ele>524.0</ele><time>2026-05-01T08:54:42Z</time></trkpt><trkpt lat="43.73343870520765" lon="12.199304471477125"><ele>524.0</ele><time>2026-05-01T08:54:43Z</time></trkpt><trkpt lat="43.73329867475387" lon="12.199193531762438"><ele>529.6666666666666</ele><time>2026-05-01T08:54:44Z</time></trkpt><trkpt lat="43.73316195533451" lon="12.199097416256077"><ele>535.3333333333334</ele><time>2026-05-01T08:54:45Z</time></trkpt><trkpt lat="43.73302331284874" lon="12.199017728579635"><ele>541.0</ele><time>2026-05-01T08:54:46Z</time></trkpt><trkpt lat="43.73287560023949" lon="12.198974311626737"><ele>543.3333333333334</ele><time>2026-05-01T08:54:47Z</time></trkpt><trkpt lat="43.732723771589924" lon="12.198988559935438"><ele>545.6666666666666</ele><time>2026-05-01T08:54:48Z</time></trkpt><trkpt lat="43.73257580083132" lon="12.199044267429684"><ele>548.0</ele><time>2026-05-01T08:54:49Z</time></trkpt><trkpt lat="43.73243224333996" lon="12.19911026013002"><ele>548.0</ele><time>2026-05-01T08:54:50Z</time></trkpt><trkpt lat="43.732299166772435" lon="12.199145953073215"><ele>548.0</ele><time>2026-05-01T08:54:51Z</time></trkpt><trkpt lat="43.73217175098203" lon="12.199116446249471"><ele>548.0</ele><time>2026-05-01T08:54:52Z</time></trkpt><trkpt lat="43.73204905789733" lon="12.199020920043207"><ele>548.0</ele><time>2026-05-01T08:54:53Z</time></trkpt><trkpt lat="43.731936986524275" lon="12.198896551221287"><ele>545.0</ele><time>2026-05-01T08:54:54Z</time></trkpt><trkpt lat="43.73185047799172" lon="12.198748483900813"><ele>542.0</ele><time>2026-05-01T08:54:55Z</time></trkpt><trkpt lat="43.7317743017938" lon="12.198615573065245"><ele>539.0</ele><time>2026-05-01T08:54:56Z</time></trkpt><trkpt lat="43.73167546529257" lon="12.198528069156643"><ele>536.0</ele><time>2026-05-01T08:54:57Z</time></trkpt><trkpt lat="43.73155192015902" lon="12.198498476483294"><ele>536.0</ele><time>2026-05-01T08:54:58Z</time></trkpt><trkpt lat="43.731412713210766" lon="12.198507216551663"><ele>536.0</ele><time>2026-05-01T08:54:59Z</time></trkpt><trkpt lat="43.73126825211342" lon="12.19854318361057"><ele>536.0</ele><time>2026-05-01T08:55:00Z</time></trkpt><trkpt lat="43.73112483470072" lon="12.198585106423135"><ele>536.0</ele><time>2026-05-01T08:55:01Z</time></trkpt><trkpt lat="43.73097912886094" lon="12.198636068363873"><ele>537.3333333333333</ele><time>2026-05-01T08:55:02Z</time></trkpt><trkpt lat="43.73082877891911" lon="12.19865665431624"><ele>538.6666666666666</ele><time>2026-05-01T08:55:03Z</time></trkpt><trkpt lat="43.73067999245318" lon="12.198622213223448"><ele>540.0</ele><time>2026-05-01T08:55:04Z</time></trkpt><trkpt lat="43.73053572314131" lon="12.198549523451646"><ele>540.0</ele><time>2026-05-01T08:55:05Z</time></trkpt><trkpt lat="43.730396689161196" lon="12.198448416653704"><ele>540.0</ele><time>2026-05-01T08:55:06Z</time></trkpt><trkpt lat="43.730255774975404" lon="12.198355869077373"><ele>540.0</ele><time>2026-05-01T08:55:07Z</time></trkpt><trkpt lat="43.730112572682486" lon="12.198266073147114"><ele>539.75</ele><time>2026-05-01T08:55:08Z</time></trkpt><trkpt lat="43.72997968542564" lon="12.198176538917188"><ele>539.5</ele><time>2026-05-01T08:55:09Z</time></trkpt><trkpt lat="43.72986437715181" lon="12.19806310509547"><ele>539.25</ele><time>2026-05-01T08:55:10Z</time></trkpt><trkpt lat="43.72977435584321" lon="12.1979215939328"><ele>539.0</ele><time>2026-05-01T08:55:10.999Z</time></trkpt><trkpt lat="43.72970754843737" lon="12.197761186344536"><ele>539.0</ele><time>2026-05-01T08:55:11.999Z</time></trkpt><trkpt lat="43.72964085082181" lon="12.197591001463989"><ele>539.0</ele><time>2026-05-01T08:55:12.999Z</time></trkpt><trkpt lat="43.729544776020504" lon="12.197436328039903"><ele>539.0</ele><time>2026-05-01T08:55:13.999Z</time></trkpt><trkpt lat="43.729431741436116" lon="12.197299698469733"><ele>539.0</ele><time>2026-05-01T08:55:14.999Z</time></trkpt><trkpt lat="43.72931211042183" lon="12.197170641389402"><ele>541.0</ele><time>2026-05-01T08:55:15.999Z</time></trkpt><trkpt lat="43.72919150907885" lon="12.197040323817944"><ele>543.0</ele><time>2026-05-01T08:55:16.999Z</time></trkpt><trkpt lat="43.729068884637336" lon="12.196911225310743"><ele>545.0</ele><time>2026-05-01T08:55:17.999Z</time></trkpt><trkpt lat="43.72893709270114" lon="12.1967918351344"><ele>545.0</ele><time>2026-05-01T08:55:18.999Z</time></trkpt><trkpt lat="43.72879283918093" lon="12.196695866072345"><ele>545.0</ele><time>2026-05-01T08:55:19.999Z</time></trkpt><trkpt lat="43.728639602875255" lon="12.196623467979911"><ele>545.0</ele><time>2026-05-01T08:55:20.999Z</time></trkpt><trkpt lat="43.72848207408259" lon="12.19657107031054"><ele>543.0</ele><time>2026-05-01T08:55:21.999Z</time></trkpt><trkpt lat="43.72832243300151" lon="12.196534729469901"><ele>541.0</ele><time>2026-05-01T08:55:22.999Z</time></trkpt><trkpt lat="43.72816379377239" lon="12.196487497967654"><ele>539.0</ele><time>2026-05-01T08:55:23.999Z</time></trkpt><trkpt lat="43.72801175094153" lon="12.196415928026937"><ele>539.0</ele><time>2026-05-01T08:55:24.999Z</time></trkpt><trkpt lat="43.72786238625554" lon="12.196334135008218"><ele>539.0</ele><time>2026-05-01T08:55:25.999Z</time></trkpt><trkpt lat="43.7277171530582" lon="12.196240419365182"><ele>539.0</ele><time>2026-05-01T08:55:26.999Z</time></trkpt><trkpt lat="43.727571762850886" lon="12.196142052482385"><ele>544.6666666666666</ele><time>2026-05-01T08:55:27.999Z</time></trkpt><trkpt lat="43.72742554368546" lon="12.196041727838056"><ele>550.3333333333334</ele><time>2026-05-01T08:55:28.999Z</time></trkpt><trkpt lat="43.72727950556589" lon="12.195942979383386"><ele>556.0</ele><time>2026-05-01T08:55:29.999Z</time></trkpt><trkpt lat="43.72713129531641" lon="12.19584494166416"><ele>556.0</ele><time>2026-05-01T08:55:30.999Z</time></trkpt><trkpt lat="43.72698092275705" lon="12.195755700935669"><ele>556.0</ele><time>2026-05-01T08:55:31.999Z</time></trkpt><trkpt lat="43.726828823271795" lon="12.19567491766252"><ele>556.0</ele><time>2026-05-01T08:55:32.999Z</time></trkpt><trkpt lat="43.72667667163701" lon="12.19559720239891"><ele>560.0</ele><time>2026-05-01T08:55:33.999Z</time></trkpt><trkpt lat="43.72652595116424" lon="12.195521986500056"><ele>564.0</ele><time>2026-05-01T08:55:34.999Z</time></trkpt><trkpt lat="43.7263749336593" lon="12.195446359411493"><ele>568.0</ele><time>2026-05-01T08:55:35.999Z</time></trkpt><trkpt lat="43.726222537770205" lon="12.195362357657167"><ele>568.0</ele><time>2026-05-01T08:55:36.999Z</time></trkpt><trkpt lat="43.72607098500379" lon="12.195268674371642"><ele>568.0</ele><time>2026-05-01T08:55:37.999Z</time></trkpt><trkpt lat="43.72592307166569" lon="12.195155496553419"><ele>568.0</ele><time>2026-05-01T08:55:38.999Z</time></trkpt><trkpt lat="43.725789955958994" lon="12.195007058003815"><ele>565.3333333333334</ele><time>2026-05-01T08:55:39.999Z</time></trkpt><trkpt lat="43.725671853296674" lon="12.194836557569598"><ele>562.6666666666666</ele><time>2026-05-01T08:55:40.999Z</time></trkpt><trkpt lat="43.72556703834125" lon="12.194644451282496"><ele>560.0</ele><time>2026-05-01T08:55:41.999Z</time></trkpt><trkpt lat="43.72547869615492" lon="12.194456348690478"><ele>560.0</ele><time>2026-05-01T08:55:42.999Z</time></trkpt><trkpt lat="43.72539396746706" lon="12.194282810292671"><ele>560.0</ele><time>2026-05-01T08:55:43.999Z</time></trkpt><trkpt lat="43.7253204851372" lon="12.194131201257589"><ele>560.0</ele><time>2026-05-01T08:55:44.999Z</time></trkpt><trkpt lat="43.725243615687184" lon="12.194007804382947"><ele>560.0</ele><time>2026-05-01T08:55:45.999Z</time></trkpt><trkpt lat="43.72514618580218" lon="12.193925162888695"><ele>558.75</ele><time>2026-05-01T08:55:46.999Z</time></trkpt><trkpt lat="43.725037905559574" lon="12.193888119390968"><ele>557.5</ele><time>2026-05-01T08:55:47.999Z</time></trkpt><trkpt lat="43.72492192949958" lon="12.193930324145407"><ele>556.25</ele><time>2026-05-01T08:55:48.999Z</time></trkpt><trkpt lat="43.724831157843695" lon="12.194035826778924"><ele>555.0</ele><time>2026-05-01T08:55:49.999Z</time></trkpt><trkpt lat="43.72477652432321" lon="12.194195796244989"><ele>555.0</ele><time>2026-05-01T08:55:50.999Z</time></trkpt><trkpt lat="43.72472138135714" lon="12.1943634125653"><ele>555.0</ele><time>2026-05-01T08:55:51.999Z</time></trkpt><trkpt lat="43.72462615000732" lon="12.194509294332024"><ele>555.0</ele><time>2026-05-01T08:55:52.999Z</time></trkpt><trkpt lat="43.724500633611804" lon="12.19462500538938"><ele>555.0</ele><time>2026-05-01T08:55:53.999Z</time></trkpt><trkpt lat="43.72436035662923" lon="12.194719439783634"><ele>556.0</ele><time>2026-05-01T08:55:54.999Z</time></trkpt><trkpt lat="43.72420738769439" lon="12.194792282137838"><ele>557.0</ele><time>2026-05-01T08:55:55.999Z</time></trkpt><trkpt lat="43.72405268897245" lon="12.19485150969232"><ele>558.0</ele><time>2026-05-01T08:55:56.999Z</time></trkpt><trkpt lat="43.72390274955785" lon="12.19490266509653"><ele>558.0</ele><time>2026-05-01T08:55:57.999Z</time></trkpt><trkpt lat="43.72375164538474" lon="12.194948071405886"><ele>558.0</ele><time>2026-05-01T08:55:58.999Z</time></trkpt><trkpt lat="43.72359478750981" lon="12.194975993366958"><ele>558.0</ele><time>2026-05-01T08:55:59.999Z</time></trkpt><trkpt lat="43.72343279706182" lon="12.194959904533995"><ele>555.0</ele><time>2026-05-01T08:56:00.999Z</time></trkpt><trkpt lat="43.723274306997766" lon="12.194903241406417"><ele>552.0</ele><time>2026-05-01T08:56:01.999Z</time></trkpt><trkpt lat="43.7231281652175" lon="12.194840154761431"><ele>549.0</ele><time>2026-05-01T08:56:02.999Z</time></trkpt><trkpt lat="43.72298704226311" lon="12.19479139220147"><ele>549.25</ele><time>2026-05-01T08:56:03.999Z</time></trkpt><trkpt lat="43.72284562895557" lon="12.19474844867956"><ele>549.5</ele><time>2026-05-01T08:56:04.999Z</time></trkpt><trkpt lat="43.722707487999145" lon="12.194685634882404"><ele>549.75</ele><time>2026-05-01T08:56:05.999Z</time></trkpt><trkpt lat="43.7225863308806" lon="12.19457063816411"><ele>550.0</ele><time>2026-05-01T08:56:06.999Z</time></trkpt><trkpt lat="43.722499539284144" lon="12.194414544093995"><ele>550.0</ele><time>2026-05-01T08:56:07.999Z</time></trkpt><trkpt lat="43.72242309826983" lon="12.194271905714604"><ele>550.0</ele><time>2026-05-01T08:56:08.999Z</time></trkpt><trkpt lat="43.72232785122018" lon="12.194151808155599"><ele>550.0</ele><time>2026-05-01T08:56:09.999Z</time></trkpt><trkpt lat="43.72221491316293" lon="12.194068291726778"><ele>550.0</ele><time>2026-05-01T08:56:10.999Z</time></trkpt><trkpt lat="43.72208953351942" lon="12.194029411961498"><ele>550.0</ele><time>2026-05-01T08:56:11.999Z</time></trkpt><trkpt lat="43.721956949826556" lon="12.194034233510264"><ele>550.0</ele><time>2026-05-01T08:56:13Z</time></trkpt><trkpt lat="43.72182633952009" lon="12.194049028893508"><ele>550.0</ele><time>2026-05-01T08:56:14Z</time></trkpt><trkpt lat="43.721702692226245" lon="12.194060424131116"><ele>550.0</ele><time>2026-05-01T08:56:15Z</time></trkpt><trkpt lat="43.72157930612487" lon="12.194068243814618"><ele>551.25</ele><time>2026-05-01T08:56:16Z</time></trkpt><trkpt lat="43.721457874010326" lon="12.19407234649812"><ele>552.5</ele><time>2026-05-01T08:56:17Z</time></trkpt><trkpt lat="43.72133922408249" lon="12.194076064770082"><ele>553.75</ele><time>2026-05-01T08:56:18Z</time></trkpt><trkpt lat="43.72122242628016" lon="12.194079665000185"><ele>555.0</ele><time>2026-05-01T08:56:19Z</time></trkpt><trkpt lat="43.72110637254951" lon="12.194086695199294"><ele>555.5</ele><time>2026-05-01T08:56:20Z</time></trkpt><trkpt lat="43.72098702327491" lon="12.194099150233829"><ele>556.0</ele><time>2026-05-01T08:56:21Z</time></trkpt><trkpt lat="43.720865503828826" lon="12.194115822770902"><ele>556.5</ele><time>2026-05-01T08:56:22Z</time></trkpt><trkpt lat="43.72074340510412" lon="12.194145188293916"><ele>557.0</ele><time>2026-05-01T08:56:23Z</time></trkpt><trkpt lat="43.72062418059188" lon="12.194198423270892"><ele>557.0</ele><time>2026-05-01T08:56:24Z</time></trkpt><trkpt lat="43.7205087195777" lon="12.19427402937172"><ele>557.0</ele><time>2026-05-01T08:56:25Z</time></trkpt><trkpt lat="43.72039214554177" lon="12.194353427289569"><ele>557.0</ele><time>2026-05-01T08:56:26Z</time></trkpt><trkpt lat="43.72027497067172" lon="12.194434503944546"><ele>557.0</ele><time>2026-05-01T08:56:27Z</time></trkpt><trkpt lat="43.72015629562" lon="12.194514253521097"><ele>556.0</ele><time>2026-05-01T08:56:28Z</time></trkpt><trkpt lat="43.72003713467324" lon="12.194592690551776"><ele>555.0</ele><time>2026-05-01T08:56:29Z</time></trkpt><trkpt lat="43.719914197760424" lon="12.194667254531748"><ele>554.0</ele><time>2026-05-01T08:56:30Z</time></trkpt><trkpt lat="43.71979072236094" lon="12.19472791575213"><ele>553.0</ele><time>2026-05-01T08:56:31Z</time></trkpt><trkpt lat="43.719667249315904" lon="12.19478632757589"><ele>554.5</ele><time>2026-05-01T08:56:32Z</time></trkpt><trkpt lat="43.719543331810954" lon="12.194846803887442"><ele>556.0</ele><time>2026-05-01T08:56:33Z</time></trkpt><trkpt lat="43.71941881155575" lon="12.194904234269593"><ele>557.5</ele><time>2026-05-01T08:56:34Z</time></trkpt><trkpt lat="43.71929070521111" lon="12.194957871580119"><ele>559.0</ele><time>2026-05-01T08:56:35Z</time></trkpt><trkpt lat="43.71916114618885" lon="12.1950126645027"><ele>559.0</ele><time>2026-05-01T08:56:36Z</time></trkpt><trkpt lat="43.719030237555124" lon="12.19506631219949"><ele>559.0</ele><time>2026-05-01T08:56:37Z</time></trkpt><trkpt lat="43.71889740816744" lon="12.195118514764179"><ele>559.0</ele><time>2026-05-01T08:56:38Z</time></trkpt><trkpt lat="43.71876860406504" lon="12.195169695771051"><ele>559.0</ele><time>2026-05-01T08:56:39Z</time></trkpt><trkpt lat="43.71863951500028" lon="12.195219521653508"><ele>557.75</ele><time>2026-05-01T08:56:40Z</time></trkpt><trkpt lat="43.71851330415892" lon="12.195273734435206"><ele>556.5</ele><time>2026-05-01T08:56:41Z</time></trkpt><trkpt lat="43.71838696189881" lon="12.19532874689681"><ele>555.25</ele><time>2026-05-01T08:56:42Z</time></trkpt><trkpt lat="43.71826155777927" lon="12.195382439341248"><ele>554.0</ele><time>2026-05-01T08:56:43Z</time></trkpt><trkpt lat="43.7181382632671" lon="12.195435348771188"><ele>554.0</ele><time>2026-05-01T08:56:44Z</time></trkpt><trkpt lat="43.718012999995814" lon="12.195484738089142"><ele>554.0</ele><time>2026-05-01T08:56:45Z</time></trkpt><trkpt lat="43.71788941568965" lon="12.195532498421333"><ele>554.0</ele><time>2026-05-01T08:56:46Z</time></trkpt><trkpt lat="43.71776813480595" lon="12.195581526547285"><ele>554.0</ele><time>2026-05-01T08:56:47Z</time></trkpt><trkpt lat="43.71764735519871" lon="12.195629873478405"><ele>555.25</ele><time>2026-05-01T08:56:48Z</time></trkpt><trkpt lat="43.71752745840214" lon="12.195678642829742"><ele>556.5</ele><time>2026-05-01T08:56:49Z</time></trkpt><trkpt lat="43.71740808989736" lon="12.195726321194003"><ele>557.75</ele><time>2026-05-01T08:56:50Z</time></trkpt><trkpt lat="43.71729219795197" lon="12.195773401935885"><ele>559.0</ele><time>2026-05-01T08:56:51Z</time></trkpt><trkpt lat="43.717176674334155" lon="12.195820355605454"><ele>559.0</ele><time>2026-05-01T08:56:52Z</time></trkpt><trkpt lat="43.717060006343715" lon="12.195868814030996"><ele>559.0</ele><time>2026-05-01T08:56:53Z</time></trkpt><trkpt lat="43.716946945878" lon="12.195914341617726"><ele>559.0</ele><time>2026-05-01T08:56:54Z</time></trkpt><trkpt lat="43.71684365216819" lon="12.195958136826546"><ele>559.0</ele><time>2026-05-01T08:56:55Z</time></trkpt><trkpt lat="43.716745676001686" lon="12.195996126376901"><ele>559.0</ele><time>2026-05-01T08:56:56Z</time></trkpt><trkpt lat="43.71665523072787" lon="12.196035017253767"><ele>558.0</ele><time>2026-05-01T08:56:57Z</time></trkpt><trkpt lat="43.7165765414385" lon="12.196072878415974"><ele>557.0</ele><time>2026-05-01T08:56:58Z</time></trkpt><trkpt lat="43.71650600226529" lon="12.196108432128108"><ele>556.0</ele><time>2026-05-01T08:56:59Z</time></trkpt><trkpt lat="43.7164135927243" lon="12.196165247846224"><ele>555.0</ele><time>2026-05-01T08:57:01Z</time></trkpt><trkpt lat="43.716357156008335" lon="12.196206489396777"><ele>554.0</ele><time>2026-05-01T08:57:03Z</time></trkpt><trkpt lat="43.71629245223051" lon="12.196296448471847"><ele>553.0</ele><time>2026-05-01T08:58:35Z</time></trkpt><trkpt lat="43.716172149095186" lon="12.196361930631419"><ele>553.0</ele><time>2026-05-01T08:58:37Z</time></trkpt><trkpt lat="43.716114210837574" lon="12.196399954432383"><ele>553.0</ele><time>2026-05-01T08:58:38Z</time></trkpt><trkpt lat="43.7160524896268" lon="12.19644107554577"><ele>553.0</ele><time>2026-05-01T08:58:39Z</time></trkpt><trkpt lat="43.71597976883772" lon="12.196484110072031"><ele>553.0</ele><time>2026-05-01T08:58:40Z</time></trkpt><trkpt lat="43.715894729485754" lon="12.196535889413461"><ele>553.0</ele><time>2026-05-01T08:58:41Z</time></trkpt><trkpt lat="43.71579562478153" lon="12.19657892071478"><ele>553.0</ele><time>2026-05-01T08:58:42Z</time></trkpt><trkpt lat="43.71569495625821" lon="12.196601548700283"><ele>552.25</ele><time>2026-05-01T08:58:43Z</time></trkpt><trkpt lat="43.71557985203517" lon="12.19661564171634"><ele>551.5</ele><time>2026-05-01T08:58:44Z</time></trkpt><trkpt lat="43.71545370722229" lon="12.196614104407749"><ele>550.75</ele><time>2026-05-01T08:58:45Z</time></trkpt><trkpt lat="43.71532683187951" lon="12.196591120445524"><ele>550.0</ele><time>2026-05-01T08:58:46Z</time></trkpt><trkpt lat="43.715200054684466" lon="12.196551887504237"><ele>545.5</ele><time>2026-05-01T08:58:47Z</time></trkpt><trkpt lat="43.715069176632085" lon="12.19648835677664"><ele>541.0</ele><time>2026-05-01T08:58:48Z</time></trkpt><trkpt lat="43.71493871009964" lon="12.196402407565227"><ele>536.5</ele><time>2026-05-01T08:58:49Z</time></trkpt><trkpt lat="43.71482059886844" lon="12.196288811096444"><ele>532.0</ele><time>2026-05-01T08:58:50Z</time></trkpt><trkpt lat="43.71470560051527" lon="12.196145305623517"><ele>532.0</ele><time>2026-05-01T08:58:51Z</time></trkpt><trkpt lat="43.7145957361596" lon="12.19598636944005"><ele>532.0</ele><time>2026-05-01T08:58:52Z</time></trkpt><trkpt lat="43.7144797536137" lon="12.195833051506309"><ele>532.0</ele><time>2026-05-01T08:58:53Z</time></trkpt><trkpt lat="43.714365778847856" lon="12.19568781923328"><ele>532.6666666666667</ele><time>2026-05-01T08:58:54Z</time></trkpt><trkpt lat="43.7142485964924" lon="12.195537534142455"><ele>533.3333333333334</ele><time>2026-05-01T08:58:55Z</time></trkpt><trkpt lat="43.71413244310753" lon="12.195384269154308"><ele>534.0</ele><time>2026-05-01T08:58:56Z</time></trkpt><trkpt lat="43.71401229350303" lon="12.1952310503376"><ele>534.0</ele><time>2026-05-01T08:58:57Z</time></trkpt><trkpt lat="43.71389232961822" lon="12.195074073625735"><ele>534.0</ele><time>2026-05-01T08:58:58Z</time></trkpt><trkpt lat="43.713773789650354" lon="12.194912425460274"><ele>534.0</ele><time>2026-05-01T08:58:59Z</time></trkpt><trkpt lat="43.713653344082836" lon="12.194752959660091"><ele>541.3333333333334</ele><time>2026-05-01T08:59:00Z</time></trkpt><trkpt lat="43.71353608443429" lon="12.19460112358174"><ele>548.6666666666667</ele><time>2026-05-01T08:59:01Z</time></trkpt><trkpt lat="43.71342343496695" lon="12.194447707752355"><ele>556.0</ele><time>2026-05-01T08:59:02Z</time></trkpt><trkpt lat="43.7133121376864" lon="12.194295480094741"><ele>556.0</ele><time>2026-05-01T08:59:03Z</time></trkpt><trkpt lat="43.71319862525976" lon="12.19413950368494"><ele>556.0</ele><time>2026-05-01T08:59:04Z</time></trkpt><trkpt lat="43.71308448361407" lon="12.193981678713412"><ele>556.0</ele><time>2026-05-01T08:59:05Z</time></trkpt><trkpt lat="43.71296813203191" lon="12.193825736370552"><ele>556.6666666666667</ele><time>2026-05-01T08:59:06Z</time></trkpt><trkpt lat="43.71284846845118" lon="12.193662622488892"><ele>557.3333333333334</ele><time>2026-05-01T08:59:07Z</time></trkpt><trkpt lat="43.712733296428944" lon="12.193492363769828"><ele>558.0</ele><time>2026-05-01T08:59:08Z</time></trkpt><trkpt lat="43.71262254080019" lon="12.193321663696443"><ele>563.6666666666666</ele><time>2026-05-01T08:59:09Z</time></trkpt><trkpt lat="43.71251420736156" lon="12.193150842991281"><ele>569.3333333333333</ele><time>2026-05-01T08:59:10Z</time></trkpt><trkpt lat="43.7124081391358" lon="12.192979955193302"><ele>575.0</ele><time>2026-05-01T08:59:11Z</time></trkpt><trkpt lat="43.712300879380095" lon="12.192812317104185"><ele>575.0</ele><time>2026-05-01T08:59:12Z</time></trkpt><trkpt lat="43.712182093825255" lon="12.192655140880802"><ele>575.0</ele><time>2026-05-01T08:59:13Z</time></trkpt><trkpt lat="43.712063673639264" lon="12.192517720001812"><ele>575.0</ele><time>2026-05-01T08:59:14Z</time></trkpt><trkpt lat="43.711941808577755" lon="12.192391518112531"><ele>580.3333333333333</ele><time>2026-05-01T08:59:15Z</time></trkpt><trkpt lat="43.71179936012939" lon="12.19229651132366"><ele>585.6666666666666</ele><time>2026-05-01T08:59:16Z</time></trkpt><trkpt lat="43.711647258374576" lon="12.19222672370367"><ele>591.0</ele><time>2026-05-01T08:59:17Z</time></trkpt><trkpt lat="43.71149116679036" lon="12.19220007827828"><ele>591.0</ele><time>2026-05-01T08:59:18Z</time></trkpt><trkpt lat="43.711332072897385" lon="12.192220535155359"><ele>591.0</ele><time>2026-05-01T08:59:19Z</time></trkpt><trkpt lat="43.711174045581274" lon="12.192272599039468"><ele>591.0</ele><time>2026-05-01T08:59:20Z</time></trkpt><trkpt lat="43.71101768933258" lon="12.192344785170475"><ele>591.0</ele><time>2026-05-01T08:59:21Z</time></trkpt><trkpt lat="43.71086331506167" lon="12.192425078235422"><ele>591.0</ele><time>2026-05-01T08:59:22Z</time></trkpt><trkpt lat="43.7107146873493" lon="12.192520651231483"><ele>591.0</ele><time>2026-05-01T08:59:23Z</time></trkpt><trkpt lat="43.710569482065196" lon="12.192630925127116"><ele>591.0</ele><time>2026-05-01T08:59:24Z</time></trkpt><trkpt lat="43.71042753557195" lon="12.192752090218079"><ele>591.0</ele><time>2026-05-01T08:59:25Z</time></trkpt><trkpt lat="43.71029382864678" lon="12.192893756440796"><ele>591.0</ele><time>2026-05-01T08:59:26Z</time></trkpt><trkpt lat="43.71017783439719" lon="12.193066465356813"><ele>594.0</ele><time>2026-05-01T08:59:27Z</time></trkpt><trkpt lat="43.71008009036376" lon="12.193264103186031"><ele>597.0</ele><time>2026-05-01T08:59:28Z</time></trkpt><trkpt lat="43.70999289389841" lon="12.193474308051284"><ele>600.0</ele><time>2026-05-01T08:59:28.999Z</time></trkpt><trkpt lat="43.70991462236844" lon="12.193694380251284"><ele>600.0</ele><time>2026-05-01T08:59:29.999Z</time></trkpt><trkpt lat="43.70984621866346" lon="12.193921259237422"><ele>600.0</ele><time>2026-05-01T08:59:30.999Z</time></trkpt><trkpt lat="43.70977803155939" lon="12.194146416911211"><ele>600.0</ele><time>2026-05-01T08:59:31.999Z</time></trkpt><trkpt lat="43.709708309766015" lon="12.194363004112098"><ele>598.0</ele><time>2026-05-01T08:59:32.999Z</time></trkpt><trkpt lat="43.70963587415331" lon="12.194575159739312"><ele>596.0</ele><time>2026-05-01T08:59:33.999Z</time></trkpt><trkpt lat="43.70955325883324" lon="12.194778521501265"><ele>594.0</ele><time>2026-05-01T08:59:34.999Z</time></trkpt><trkpt lat="43.70945421012665" lon="12.194968695813538"><ele>599.3333333333334</ele><time>2026-05-01T08:59:35.999Z</time></trkpt><trkpt lat="43.70933642025508" lon="12.195141194808523"><ele>604.6666666666667</ele><time>2026-05-01T08:59:36.999Z</time></trkpt><trkpt lat="43.7092006000171" lon="12.19528965889713"><ele>610.0</ele><time>2026-05-01T08:59:37.999Z</time></trkpt><trkpt lat="43.70905131890171" lon="12.195412022235969"><ele>610.0</ele><time>2026-05-01T08:59:38.999Z</time></trkpt><trkpt lat="43.70889125781217" lon="12.195506149200485"><ele>610.0</ele><time>2026-05-01T08:59:39.999Z</time></trkpt><trkpt lat="43.70872305335448" lon="12.195564558042694"><ele>610.0</ele><time>2026-05-01T08:59:40.999Z</time></trkpt><trkpt lat="43.70855188446072" lon="12.195592651266235"><ele>612.6666666666667</ele><time>2026-05-01T08:59:41.999Z</time></trkpt><trkpt lat="43.70837823199532" lon="12.195600876878382"><ele>615.3333333333334</ele><time>2026-05-01T08:59:42.999Z</time></trkpt><trkpt lat="43.708206478499946" lon="12.195578888146393"><ele>618.0</ele><time>2026-05-01T08:59:43.999Z</time></trkpt><trkpt lat="43.70803880568529" lon="12.19552577863548"><ele>618.0</ele><time>2026-05-01T08:59:44.999Z</time></trkpt><trkpt lat="43.7078788079203" lon="12.19544280494618"><ele>618.0</ele><time>2026-05-01T08:59:45.999Z</time></trkpt><trkpt lat="43.70772795373117" lon="12.195330660102842"><ele>618.0</ele><time>2026-05-01T08:59:46.999Z</time></trkpt><trkpt lat="43.70758887577138" lon="12.19519157330235"><ele>620.0</ele><time>2026-05-01T08:59:47.999Z</time></trkpt><trkpt lat="43.707453068590155" lon="12.19504859459926"><ele>622.0</ele><time>2026-05-01T08:59:48.999Z</time></trkpt><trkpt lat="43.7073145583385" lon="12.194912064815554"><ele>624.0</ele><time>2026-05-01T08:59:49.999Z</time></trkpt><trkpt lat="43.707174955411354" lon="12.194776852940086"><ele>626.3333333333334</ele><time>2026-05-01T08:59:50.999Z</time></trkpt><trkpt lat="43.70703477400462" lon="12.19463992269974"><ele>628.6666666666667</ele><time>2026-05-01T08:59:51.999Z</time></trkpt><trkpt lat="43.70689329988758" lon="12.194498588841837"><ele>631.0</ele><time>2026-05-01T08:59:52.999Z</time></trkpt><trkpt lat="43.70674970322463" lon="12.194355933103772"><ele>631.0</ele><time>2026-05-01T08:59:53.999Z</time></trkpt><trkpt lat="43.7066066629447" lon="12.194213528758993"><ele>631.0</ele><time>2026-05-01T08:59:54.999Z</time></trkpt><trkpt lat="43.706465483348886" lon="12.19407489561986"><ele>631.0</ele><time>2026-05-01T08:59:55.999Z</time></trkpt><trkpt lat="43.70632680133568" lon="12.193935580615358"><ele>634.6666666666667</ele><time>2026-05-01T08:59:56.999Z</time></trkpt><trkpt lat="43.706190087366636" lon="12.193797315033903"><ele>638.3333333333334</ele><time>2026-05-01T08:59:57.999Z</time></trkpt><trkpt lat="43.70605284526224" lon="12.193663529408214"><ele>642.0</ele><time>2026-05-01T08:59:58.999Z</time></trkpt><trkpt lat="43.705908404078166" lon="12.193547946578844"><ele>642.0</ele><time>2026-05-01T08:59:59.999Z</time></trkpt><trkpt lat="43.70575440731326" lon="12.193464482323849"><ele>642.0</ele><time>2026-05-01T09:00:00.999Z</time></trkpt><trkpt lat="43.705592551996645" lon="12.193416615955497"><ele>642.0</ele><time>2026-05-01T09:00:01.999Z</time></trkpt><trkpt lat="43.705427273004865" lon="12.193400924339157"><ele>642.0</ele><time>2026-05-01T09:00:02.999Z</time></trkpt><trkpt lat="43.70526303930668" lon="12.19340400610268"><ele>642.0</ele><time>2026-05-01T09:00:03.999Z</time></trkpt><trkpt lat="43.7050990152675" lon="12.193399007076025"><ele>642.0</ele><time>2026-05-01T09:00:04.999Z</time></trkpt><trkpt lat="43.70493737874457" lon="12.193392915192678"><ele>642.75</ele><time>2026-05-01T09:00:05.999Z</time></trkpt><trkpt lat="43.70478901077497" lon="12.193382049045942"><ele>643.5</ele><time>2026-05-01T09:00:06.999Z</time></trkpt><trkpt lat="43.70465400526439" lon="12.19337025160768"><ele>644.25</ele><time>2026-05-01T09:00:07.999Z</time></trkpt><trkpt lat="43.70453120202715" lon="12.193341236781416"><ele>645.0</ele><time>2026-05-01T09:00:08.999Z</time></trkpt><trkpt lat="43.704416737422655" lon="12.193253746287459"><ele>646.5</ele><time>2026-05-01T09:00:09.999Z</time></trkpt><trkpt lat="43.704330877959876" lon="12.19309830451992"><ele>648.0</ele><time>2026-05-01T09:00:10.999Z</time></trkpt><trkpt lat="43.70428296569656" lon="12.192905787290853"><ele>649.5</ele><time>2026-05-01T09:00:11.999Z</time></trkpt><trkpt lat="43.70428651047752" lon="12.192702368337484"><ele>651.0</ele><time>2026-05-01T09:00:12.999Z</time></trkpt><trkpt lat="43.70435207314776" lon="12.192521655490552"><ele>652.25</ele><time>2026-05-01T09:00:13.999Z</time></trkpt><trkpt lat="43.70446159717906" lon="12.192373781421946"><ele>653.5</ele><time>2026-05-01T09:00:14.999Z</time></trkpt><trkpt lat="43.70459220647092" lon="12.192294426227573"><ele>654.75</ele><time>2026-05-01T09:00:15.999Z</time></trkpt><trkpt lat="43.70471866235241" lon="12.19225601616891"><ele>656.0</ele><time>2026-05-01T09:00:16.999Z</time></trkpt><trkpt lat="43.70483393333733" lon="12.192223068493371"><ele>657.25</ele><time>2026-05-01T09:00:17.999Z</time></trkpt><trkpt lat="43.70494897504052" lon="12.192191214877958"><ele>658.5</ele><time>2026-05-01T09:00:18.999Z</time></trkpt><trkpt lat="43.70506048336405" lon="12.192151851527122"><ele>659.75</ele><time>2026-05-01T09:00:19.999Z</time></trkpt><trkpt lat="43.70517353828442" lon="12.192107115540804"><ele>661.0</ele><time>2026-05-01T09:00:20.999Z</time></trkpt><trkpt lat="43.70529500550911" lon="12.192076763662566"><ele>661.0</ele><time>2026-05-01T09:00:21.999Z</time></trkpt><trkpt lat="43.70542032458496" lon="12.192041158119627"><ele>661.0</ele><time>2026-05-01T09:00:22.999Z</time></trkpt><trkpt lat="43.7055489714904" lon="12.192002511564558"><ele>661.0</ele><time>2026-05-01T09:00:23.999Z</time></trkpt><trkpt lat="43.70567167648895" lon="12.191956043964554"><ele>661.0</ele><time>2026-05-01T09:00:25Z</time></trkpt><trkpt lat="43.70577726767718" lon="12.191876012170392"><ele>661.0</ele><time>2026-05-01T09:00:26Z</time></trkpt><trkpt lat="43.70586429579143" lon="12.191757972364321"><ele>661.0</ele><time>2026-05-01T09:00:27Z</time></trkpt><trkpt lat="43.70592177182611" lon="12.191616354527296"><ele>661.0</ele><time>2026-05-01T09:00:28Z</time></trkpt><trkpt lat="43.70594622218065" lon="12.191458064319992"><ele>661.0</ele><time>2026-05-01T09:00:29Z</time></trkpt><trkpt lat="43.70592648324823" lon="12.191298684880193"><ele>664.75</ele><time>2026-05-01T09:00:30Z</time></trkpt><trkpt lat="43.70588312986293" lon="12.191147183559272"><ele>668.5</ele><time>2026-05-01T09:00:31Z</time></trkpt><trkpt lat="43.70581904906458" lon="12.191010119853622"><ele>672.25</ele><time>2026-05-01T09:00:32Z</time></trkpt><trkpt lat="43.70572263177075" lon="12.190911185286506"><ele>676.0</ele><time>2026-05-01T09:00:33Z</time></trkpt><trkpt lat="43.7056011909643" lon="12.190865970309428"><ele>676.0</ele><time>2026-05-01T09:00:34Z</time></trkpt><trkpt lat="43.70547273641157" lon="12.19086739222306"><ele>676.0</ele><time>2026-05-01T09:00:35Z</time></trkpt><trkpt lat="43.70534107143558" lon="12.190887980598118"><ele>676.0</ele><time>2026-05-01T09:00:36Z</time></trkpt><trkpt lat="43.705206627320194" lon="12.190902120856942"><ele>676.0</ele><time>2026-05-01T09:00:37Z</time></trkpt><trkpt lat="43.70506833552985" lon="12.190915741676193"><ele>676.0</ele><time>2026-05-01T09:00:38Z</time></trkpt><trkpt lat="43.70492956784958" lon="12.19093039984981"><ele>676.0</ele><time>2026-05-01T09:00:39Z</time></trkpt><trkpt lat="43.70478986946354" lon="12.190941040619379"><ele>676.0</ele><time>2026-05-01T09:00:40Z</time></trkpt><trkpt lat="43.704654029589975" lon="12.190937557755758"><ele>676.0</ele><time>2026-05-01T09:00:41Z</time></trkpt><trkpt lat="43.7045228435494" lon="12.190916708385778"><ele>675.75</ele><time>2026-05-01T09:00:42Z</time></trkpt><trkpt lat="43.70439357131786" lon="12.190874166308904"><ele>675.5</ele><time>2026-05-01T09:00:43Z</time></trkpt><trkpt lat="43.70426934738164" lon="12.190809453316218"><ele>675.25</ele><time>2026-05-01T09:00:44Z</time></trkpt><trkpt lat="43.70414630270642" lon="12.190755822780487"><ele>675.0</ele><time>2026-05-01T09:00:45Z</time></trkpt><trkpt lat="43.70403006128462" lon="12.190715217665288"><ele>677.75</ele><time>2026-05-01T09:00:46Z</time></trkpt><trkpt lat="43.703916101733604" lon="12.190661414672531"><ele>680.5</ele><time>2026-05-01T09:00:47Z</time></trkpt><trkpt lat="43.70380052398635" lon="12.190605726374015"><ele>683.25</ele><time>2026-05-01T09:00:48Z</time></trkpt><trkpt lat="43.70368329796462" lon="12.190551293816068"><ele>686.0</ele><time>2026-05-01T09:00:49Z</time></trkpt><trkpt lat="43.70357004885225" lon="12.190491363936868"><ele>686.0</ele><time>2026-05-01T09:00:50Z</time></trkpt><trkpt lat="43.70345827035862" lon="12.190432656895906"><ele>686.0</ele><time>2026-05-01T09:00:51Z</time></trkpt><trkpt lat="43.7033512518851" lon="12.190367898212362"><ele>686.0</ele><time>2026-05-01T09:00:52Z</time></trkpt><trkpt lat="43.70324854353925" lon="12.190290684077196"><ele>686.0</ele><time>2026-05-01T09:00:53Z</time></trkpt><trkpt lat="43.70315686578669" lon="12.190192679494473"><ele>686.0</ele><time>2026-05-01T09:00:54Z</time></trkpt><trkpt lat="43.703079243098806" lon="12.19007034178748"><ele>686.0</ele><time>2026-05-01T09:00:55Z</time></trkpt><trkpt lat="43.70301178216095" lon="12.18993085491375"><ele>686.0</ele><time>2026-05-01T09:00:56Z</time></trkpt><trkpt lat="43.702959260258524" lon="12.189774485253741"><ele>686.0</ele><time>2026-05-01T09:00:57Z</time></trkpt><trkpt lat="43.7029298591717" lon="12.189598710535503"><ele>686.75</ele><time>2026-05-01T09:00:58Z</time></trkpt><trkpt lat="43.702920496219946" lon="12.189415515847097"><ele>687.5</ele><time>2026-05-01T09:00:59Z</time></trkpt><trkpt lat="43.70293298471395" lon="12.189229690777031"><ele>688.25</ele><time>2026-05-01T09:01:00Z</time></trkpt><trkpt lat="43.702962650504396" lon="12.18904879032776"><ele>689.0</ele><time>2026-05-01T09:01:01Z</time></trkpt><trkpt lat="43.70301537884406" lon="12.18888114180918"><ele>689.0</ele><time>2026-05-01T09:01:02Z</time></trkpt><trkpt lat="43.703098319950946" lon="12.188736640791703"><ele>689.0</ele><time>2026-05-01T09:01:03Z</time></trkpt><trkpt lat="43.70320064598076" lon="12.18861983616798"><ele>689.0</ele><time>2026-05-01T09:01:04Z</time></trkpt><trkpt lat="43.70331083844086" lon="12.188515422594927"><ele>689.0</ele><time>2026-05-01T09:01:05Z</time></trkpt><trkpt lat="43.70341750598188" lon="12.188400637221651"><ele>689.0</ele><time>2026-05-01T09:01:06Z</time></trkpt><trkpt lat="43.70352692350389" lon="12.188278519282973"><ele>689.0</ele><time>2026-05-01T09:01:07Z</time></trkpt><trkpt lat="43.703645478404525" lon="12.188150473106521"><ele>689.0</ele><time>2026-05-01T09:01:08Z</time></trkpt><trkpt lat="43.70377188822282" lon="12.188018380553467"><ele>689.0</ele><time>2026-05-01T09:01:09Z</time></trkpt><trkpt lat="43.70390640777957" lon="12.187867486261672"><ele>690.0</ele><time>2026-05-01T09:01:10Z</time></trkpt><trkpt lat="43.70404755504914" lon="12.1877075862656"><ele>691.0</ele><time>2026-05-01T09:01:11Z</time></trkpt><trkpt lat="43.704199257056736" lon="12.187548875679706"><ele>692.0</ele><time>2026-05-01T09:01:12Z</time></trkpt><trkpt lat="43.70434109672407" lon="12.187394150673969"><ele>692.0</ele><time>2026-05-01T09:01:13Z</time></trkpt><trkpt lat="43.70448868230594" lon="12.187230856779106"><ele>692.0</ele><time>2026-05-01T09:01:14Z</time></trkpt><trkpt lat="43.70464255052299" lon="12.187065522856912"><ele>692.0</ele><time>2026-05-01T09:01:15Z</time></trkpt><trkpt lat="43.70480331907133" lon="12.186899841318544"><ele>692.0</ele><time>2026-05-01T09:01:16Z</time></trkpt><trkpt lat="43.704967924263656" lon="12.18673594321922"><ele>692.0</ele><time>2026-05-01T09:01:17Z</time></trkpt><trkpt lat="43.70512436364211" lon="12.1865646665313"><ele>692.0</ele><time>2026-05-01T09:01:18Z</time></trkpt><trkpt lat="43.70526164981468" lon="12.186392724315006"><ele>694.3333333333333</ele><time>2026-05-01T09:01:19Z</time></trkpt><trkpt lat="43.70539012637759" lon="12.18622186296394"><ele>696.6666666666666</ele><time>2026-05-01T09:01:20Z</time></trkpt><trkpt lat="43.7055174387105" lon="12.186053572238476"><ele>699.0</ele><time>2026-05-01T09:01:21Z</time></trkpt><trkpt lat="43.705636195531625" lon="12.185893800604218"><ele>699.0</ele><time>2026-05-01T09:01:22Z</time></trkpt><trkpt lat="43.705747623668294" lon="12.185734441843213"><ele>699.0</ele><time>2026-05-01T09:01:23Z</time></trkpt><trkpt lat="43.70586038437833" lon="12.185578854253775"><ele>699.0</ele><time>2026-05-01T09:01:24Z</time></trkpt><trkpt lat="43.70597159776653" lon="12.185427593182974"><ele>699.0</ele><time>2026-05-01T09:01:25Z</time></trkpt><trkpt lat="43.706081493943564" lon="12.185278749263354"><ele>699.0</ele><time>2026-05-01T09:01:26Z</time></trkpt><trkpt lat="43.706193027001625" lon="12.185130183322414"><ele>699.0</ele><time>2026-05-01T09:01:27Z</time></trkpt><trkpt lat="43.70630571689975" lon="12.184982874337441"><ele>697.5</ele><time>2026-05-01T09:01:28Z</time></trkpt><trkpt lat="43.70641740178544" lon="12.18484279425505"><ele>696.0</ele><time>2026-05-01T09:01:28.999Z</time></trkpt><trkpt lat="43.706521466747645" lon="12.18470488414607"><ele>694.5</ele><time>2026-05-01T09:01:29.999Z</time></trkpt><trkpt lat="43.70662375397411" lon="12.184566941774166"><ele>693.0</ele><time>2026-05-01T09:01:30.999Z</time></trkpt><trkpt lat="43.70673461243097" lon="12.184439475144675"><ele>693.0</ele><time>2026-05-01T09:01:31.999Z</time></trkpt><trkpt lat="43.70685971725884" lon="12.18434446641697"><ele>693.0</ele><time>2026-05-01T09:01:32.999Z</time></trkpt><trkpt lat="43.706998913404114" lon="12.184285910016177"><ele>693.0</ele><time>2026-05-01T09:01:33.999Z</time></trkpt><trkpt lat="43.70714488674834" lon="12.184253016863975"><ele>693.0</ele><time>2026-05-01T09:01:34.999Z</time></trkpt><trkpt lat="43.70729570500528" lon="12.18424980111104"><ele>692.6666666666666</ele><time>2026-05-01T09:01:35.999Z</time></trkpt><trkpt lat="43.70745193970881" lon="12.18426363679862"><ele>692.3333333333333</ele><time>2026-05-01T09:01:36.999Z</time></trkpt><trkpt lat="43.707610755690496" lon="12.184288037700256"><ele>692.0</ele><time>2026-05-01T09:01:37.999Z</time></trkpt><trkpt lat="43.70777033273584" lon="12.184309702394609"><ele>692.0</ele><time>2026-05-01T09:01:38.999Z</time></trkpt><trkpt lat="43.70792869388032" lon="12.184326769193497"><ele>692.0</ele><time>2026-05-01T09:01:39.999Z</time></trkpt><trkpt lat="43.708080876385274" lon="12.184330380262514"><ele>692.0</ele><time>2026-05-01T09:01:40.999Z</time></trkpt><trkpt lat="43.70823371728399" lon="12.184301148159971"><ele>692.0</ele><time>2026-05-01T09:01:41.999Z</time></trkpt><trkpt lat="43.70838218161045" lon="12.184238445294033"><ele>692.0</ele><time>2026-05-01T09:01:42.999Z</time></trkpt><trkpt lat="43.70852110002702" lon="12.184146748434465"><ele>692.0</ele><time>2026-05-01T09:01:43.999Z</time></trkpt><trkpt lat="43.70864853097504" lon="12.184022789247145"><ele>693.6666666666666</ele><time>2026-05-01T09:01:44.999Z</time></trkpt><trkpt lat="43.708757735720525" lon="12.183867331314627"><ele>695.3333333333334</ele><time>2026-05-01T09:01:45.999Z</time></trkpt><trkpt lat="43.708854404786585" lon="12.183693959962211"><ele>697.0</ele><time>2026-05-01T09:01:46.999Z</time></trkpt><trkpt lat="43.70894369936438" lon="12.183511282166638"><ele>697.0</ele><time>2026-05-01T09:01:47.999Z</time></trkpt><trkpt lat="43.7090338824854" lon="12.183330514956127"><ele>697.0</ele><time>2026-05-01T09:01:48.999Z</time></trkpt><trkpt lat="43.709124700044505" lon="12.183149716641893"><ele>697.0</ele><time>2026-05-01T09:01:49.999Z</time></trkpt><trkpt lat="43.70921185220868" lon="12.182974754470765"><ele>696.0</ele><time>2026-05-01T09:01:50.999Z</time></trkpt><trkpt lat="43.709294259601215" lon="12.182802157596536"><ele>695.0</ele><time>2026-05-01T09:01:51.999Z</time></trkpt><trkpt lat="43.70936890681941" lon="12.182628179281856"><ele>694.0</ele><time>2026-05-01T09:01:52.999Z</time></trkpt><trkpt lat="43.70943364372672" lon="12.182458055980206"><ele>693.0</ele><time>2026-05-01T09:01:53.999Z</time></trkpt><trkpt lat="43.70948663374671" lon="12.182300885892218"><ele>696.0</ele><time>2026-05-01T09:01:54.999Z</time></trkpt><trkpt lat="43.709531902116694" lon="12.182157761897653"><ele>699.0</ele><time>2026-05-01T09:01:55.999Z</time></trkpt><trkpt lat="43.709579867538146" lon="12.182017511752676"><ele>702.0</ele><time>2026-05-01T09:01:56.999Z</time></trkpt><trkpt lat="43.709625771941226" lon="12.181879096739392"><ele>705.0</ele><time>2026-05-01T09:01:57.999Z</time></trkpt><trkpt lat="43.70967154181975" lon="12.181739890698749"><ele>708.0</ele><time>2026-05-01T09:01:58.999Z</time></trkpt><trkpt lat="43.70971761342828" lon="12.181607361726996"><ele>708.5999999999999</ele><time>2026-05-01T09:01:59.999Z</time></trkpt><trkpt lat="43.70976097751128" lon="12.181482147515766"><ele>709.1999999999999</ele><time>2026-05-01T09:02:00.999Z</time></trkpt><trkpt lat="43.70980586480451" lon="12.181355091395314"><ele>709.8</ele><time>2026-05-01T09:02:01.999Z</time></trkpt><trkpt lat="43.70985400141699" lon="12.181217637649963"><ele>710.4</ele><time>2026-05-01T09:02:02.999Z</time></trkpt><trkpt lat="43.70989958954944" lon="12.181072353796084"><ele>711.0</ele><time>2026-05-01T09:02:03.999Z</time></trkpt><trkpt lat="43.70995047865756" lon="12.180920876546544"><ele>711.0</ele><time>2026-05-01T09:02:04.999Z</time></trkpt><trkpt lat="43.71000914230858" lon="12.180754354617381"><ele>711.0</ele><time>2026-05-01T09:02:05.999Z</time></trkpt><trkpt lat="43.71007069240941" lon="12.180580203175168"><ele>711.0</ele><time>2026-05-01T09:02:06.999Z</time></trkpt><trkpt lat="43.7101348844128" lon="12.18039351241204"><ele>711.0</ele><time>2026-05-01T09:02:07.999Z</time></trkpt><trkpt lat="43.71019614836654" lon="12.18020277024255"><ele>715.0</ele><time>2026-05-01T09:02:08.999Z</time></trkpt><trkpt lat="43.71024642619097" lon="12.180011476097805"><ele>719.0</ele><time>2026-05-01T09:02:09.999Z</time></trkpt><trkpt lat="43.71027640882241" lon="12.17980228818759"><ele>723.0</ele><time>2026-05-01T09:02:10.999Z</time></trkpt><trkpt lat="43.71028135620388" lon="12.179582458741983"><ele>722.3333333333334</ele><time>2026-05-01T09:02:11.999Z</time></trkpt><trkpt lat="43.71026554628357" lon="12.179362729616154"><ele>721.6666666666667</ele><time>2026-05-01T09:02:12.999Z</time></trkpt><trkpt lat="43.71024055059687" lon="12.179139336185706"><ele>721.0</ele><time>2026-05-01T09:02:13.999Z</time></trkpt><trkpt lat="43.71021955929995" lon="12.178912482588409"><ele>721.0</ele><time>2026-05-01T09:02:14.999Z</time></trkpt><trkpt lat="43.710199254395405" lon="12.178683949538705"><ele>721.0</ele><time>2026-05-01T09:02:15.999Z</time></trkpt><trkpt lat="43.71019011943379" lon="12.178459841762301"><ele>721.0</ele><time>2026-05-01T09:02:16.999Z</time></trkpt><trkpt lat="43.71019925934314" lon="12.1782350002169"><ele>721.3333333333334</ele><time>2026-05-01T09:02:17.999Z</time></trkpt><trkpt lat="43.710233210952666" lon="12.178014451338882"><ele>721.6666666666666</ele><time>2026-05-01T09:02:18.999Z</time></trkpt><trkpt lat="43.710289993947995" lon="12.177800363894153"><ele>722.0</ele><time>2026-05-01T09:02:19.999Z</time></trkpt><trkpt lat="43.710371101396966" lon="12.177598978467506"><ele>729.3333333333333</ele><time>2026-05-01T09:02:20.999Z</time></trkpt><trkpt lat="43.71046185765719" lon="12.177402998806024"><ele>736.6666666666666</ele><time>2026-05-01T09:02:21.999Z</time></trkpt><trkpt lat="43.71054670639722" lon="12.17720364910593"><ele>744.0</ele><time>2026-05-01T09:02:22.999Z</time></trkpt><trkpt lat="43.7106156665735" lon="12.176996430154361"><ele>745.3333333333334</ele><time>2026-05-01T09:02:23.999Z</time></trkpt><trkpt lat="43.71066918555002" lon="12.176777814732466"><ele>746.6666666666667</ele><time>2026-05-01T09:02:24.999Z</time></trkpt><trkpt lat="43.71069846809818" lon="12.176553931876104"><ele>748.0</ele><time>2026-05-01T09:02:25.999Z</time></trkpt><trkpt lat="43.71070363514444" lon="12.176320693104962"><ele>751.3333333333334</ele><time>2026-05-01T09:02:26.999Z</time></trkpt><trkpt lat="43.710690302252246" lon="12.17608093441484"><ele>754.6666666666666</ele><time>2026-05-01T09:02:27.999Z</time></trkpt><trkpt lat="43.710669906367485" lon="12.17583335548931"><ele>758.0</ele><time>2026-05-01T09:02:28.999Z</time></trkpt><trkpt lat="43.71064838433909" lon="12.175583896598242"><ele>759.6666666666666</ele><time>2026-05-01T09:02:29.999Z</time></trkpt><trkpt lat="43.71063204604451" lon="12.175332856706943"><ele>761.3333333333334</ele><time>2026-05-01T09:02:31Z</time></trkpt><trkpt lat="43.71060971338147" lon="12.175078250180311"><ele>763.0</ele><time>2026-05-01T09:02:32Z</time></trkpt><trkpt lat="43.71057989421836" lon="12.17482149508852"><ele>764.3333333333334</ele><time>2026-05-01T09:02:33Z</time></trkpt><trkpt lat="43.710551670768844" lon="12.174567131959149"><ele>765.6666666666666</ele><time>2026-05-01T09:02:34Z</time></trkpt><trkpt lat="43.71052822967947" lon="12.174305903728696"><ele>767.0</ele><time>2026-05-01T09:02:35Z</time></trkpt><trkpt lat="43.71050881176101" lon="12.17404976522203"><ele>772.6666666666666</ele><time>2026-05-01T09:02:36Z</time></trkpt><trkpt lat="43.71047824019635" lon="12.173801278370012"><ele>778.3333333333333</ele><time>2026-05-01T09:02:37Z</time></trkpt><trkpt lat="43.71041377471056" lon="12.173577366026105"><ele>784.0</ele><time>2026-05-01T09:02:38Z</time></trkpt><trkpt lat="43.710324648194096" lon="12.17337569627911"><ele>778.3333333333333</ele><time>2026-05-01T09:02:39Z</time></trkpt><trkpt lat="43.710228580925666" lon="12.17319677205696"><ele>772.6666666666666</ele><time>2026-05-01T09:02:40Z</time></trkpt><trkpt lat="43.71014788029688" lon="12.173020507847198"><ele>767.0</ele><time>2026-05-01T09:02:41Z</time></trkpt><trkpt lat="43.71009308958008" lon="12.172823530466912"><ele>767.0</ele><time>2026-05-01T09:02:42Z</time></trkpt><trkpt lat="43.710069495350496" lon="12.172611564900683"><ele>767.0</ele><time>2026-05-01T09:02:43Z</time></trkpt><trkpt lat="43.71006229781799" lon="12.172395301794356"><ele>767.0</ele><time>2026-05-01T09:02:44Z</time></trkpt><trkpt lat="43.71008928851175" lon="12.172174028962223"><ele>768.6666666666666</ele><time>2026-05-01T09:02:45Z</time></trkpt><trkpt lat="43.710143806518374" lon="12.171957101250229"><ele>770.3333333333333</ele><time>2026-05-01T09:02:46Z</time></trkpt><trkpt lat="43.71020937227634" lon="12.171742361860796"><ele>772.0</ele><time>2026-05-01T09:02:47Z</time></trkpt><trkpt lat="43.71027490107956" lon="12.171526881694843"><ele>779.6666666666666</ele><time>2026-05-01T09:02:48Z</time></trkpt><trkpt lat="43.710329355613425" lon="12.171302101500412"><ele>787.3333333333333</ele><time>2026-05-01T09:02:49Z</time></trkpt><trkpt lat="43.71036492430223" lon="12.171067144003164"><ele>795.0</ele><time>2026-05-01T09:02:50Z</time></trkpt><trkpt lat="43.710375004228815" lon="12.17082629731121"><ele>798.0</ele><time>2026-05-01T09:02:51Z</time></trkpt><trkpt lat="43.71035981405227" lon="12.170581043120125"><ele>801.0</ele><time>2026-05-01T09:02:52Z</time></trkpt><trkpt lat="43.710329539854385" lon="12.17031511087917"><ele>804.0</ele><time>2026-05-01T09:02:53Z</time></trkpt><trkpt lat="43.71029319325176" lon="12.170017313166582"><ele>803.0</ele><time>2026-05-01T09:02:54.021Z</time></trkpt><trkpt lat="43.71025723067708" lon="12.169704860176326"><ele>802.0</ele><time>2026-05-01T09:02:55.021Z</time></trkpt><trkpt lat="43.71022093945933" lon="12.169424173507362"><ele>801.0</ele><time>2026-05-01T09:02:56.021Z</time></trkpt><trkpt lat="43.71018454029307" lon="12.169153044865014"><ele>795.0</ele><time>2026-05-01T09:02:57.02Z</time></trkpt><trkpt lat="43.7101559015398" lon="12.16846648604811"><ele>795.0</ele><time>2026-05-01T09:03:00Z</time></trkpt><trkpt lat="43.71014499506607" lon="12.168167584323372"><ele>795.0</ele><time>2026-05-01T09:03:01Z</time></trkpt><trkpt lat="43.710178539102984" lon="12.167932780563543"><ele>795.0</ele><time>2026-05-01T09:03:02Z</time></trkpt><trkpt lat="43.71024404567915" lon="12.167714724337191"><ele>795.0</ele><time>2026-05-01T09:03:03Z</time></trkpt><trkpt lat="43.7103324022495" lon="12.167499243951516"><ele>795.0</ele><time>2026-05-01T09:03:04Z</time></trkpt><trkpt lat="43.710435083495135" lon="12.167289435125515"><ele>795.0</ele><time>2026-05-01T09:03:05Z</time></trkpt><trkpt lat="43.71054096022431" lon="12.167079466320907"><ele>792.0</ele><time>2026-05-01T09:03:06Z</time></trkpt><trkpt lat="43.710640413867836" lon="12.16685759880392"><ele>789.0</ele><time>2026-05-01T09:03:07Z</time></trkpt><trkpt lat="43.71073222496613" lon="12.166628429417926"><ele>786.0</ele><time>2026-05-01T09:03:08Z</time></trkpt><trkpt lat="43.71082099930936" lon="12.166398024575694"><ele>786.3333333333333</ele><time>2026-05-01T09:03:09Z</time></trkpt><trkpt lat="43.71090846234706" lon="12.166163769395686"><ele>786.6666666666666</ele><time>2026-05-01T09:03:10Z</time></trkpt><trkpt lat="43.71099590074742" lon="12.165924375494015"><ele>787.0</ele><time>2026-05-01T09:03:11Z</time></trkpt><trkpt lat="43.71108482324452" lon="12.165687200003177"><ele>787.0</ele><time>2026-05-01T09:03:12Z</time></trkpt><trkpt lat="43.71117154278954" lon="12.16545991050574"><ele>787.0</ele><time>2026-05-01T09:03:13Z</time></trkpt><trkpt lat="43.71125634668006" lon="12.165247337961008"><ele>787.0</ele><time>2026-05-01T09:03:14Z</time></trkpt><trkpt lat="43.711348248210065" lon="12.165030883929854"><ele>784.3333333333333</ele><time>2026-05-01T09:03:15Z</time></trkpt><trkpt lat="43.71144570835473" lon="12.164810113968334"><ele>781.6666666666667</ele><time>2026-05-01T09:03:16Z</time></trkpt><trkpt lat="43.711542960968636" lon="12.164590839346785"><ele>779.0</ele><time>2026-05-01T09:03:17Z</time></trkpt><trkpt lat="43.71163806586322" lon="12.164373664423538"><ele>779.0</ele><time>2026-05-01T09:03:18Z</time></trkpt><trkpt lat="43.71172514933183" lon="12.164169712054408"><ele>779.0</ele><time>2026-05-01T09:03:19Z</time></trkpt><trkpt lat="43.71181364141411" lon="12.163968089342578"><ele>779.0</ele><time>2026-05-01T09:03:20Z</time></trkpt><trkpt lat="43.711913317964445" lon="12.163779596960048"><ele>780.3333333333334</ele><time>2026-05-01T09:03:21Z</time></trkpt><trkpt lat="43.71203108801127" lon="12.163624046762209"><ele>781.6666666666667</ele><time>2026-05-01T09:03:22Z</time></trkpt><trkpt lat="43.71215688273588" lon="12.163501964457469"><ele>783.0</ele><time>2026-05-01T09:03:23Z</time></trkpt><trkpt lat="43.71227300912555" lon="12.163380509713189"><ele>783.0</ele><time>2026-05-01T09:03:24Z</time></trkpt><trkpt lat="43.71236834597299" lon="12.163237336770035"><ele>783.0</ele><time>2026-05-01T09:03:24.999Z</time></trkpt><trkpt lat="43.71243593477883" lon="12.163071097423229"><ele>783.0</ele><time>2026-05-01T09:03:25.999Z</time></trkpt><trkpt lat="43.712467273218785" lon="12.162884721363007"><ele>783.0</ele><time>2026-05-01T09:03:26.999Z</time></trkpt><trkpt lat="43.7124576165437" lon="12.162687444470897"><ele>782.5</ele><time>2026-05-01T09:03:27.999Z</time></trkpt><trkpt lat="43.712405109207864" lon="12.16249888238917"><ele>782.0</ele><time>2026-05-01T09:03:28.999Z</time></trkpt><trkpt lat="43.71233158281506" lon="12.16231873227455"><ele>781.5</ele><time>2026-05-01T09:03:29.999Z</time></trkpt><trkpt lat="43.71224678986744" lon="12.162152227787383"><ele>781.0</ele><time>2026-05-01T09:03:30.999Z</time></trkpt><trkpt lat="43.71215719050774" lon="12.162009402969046"><ele>781.0</ele><time>2026-05-01T09:03:31.999Z</time></trkpt><trkpt lat="43.712044238269996" lon="12.161907203932126"><ele>781.0</ele><time>2026-05-01T09:03:32.999Z</time></trkpt><trkpt lat="43.71191431526934" lon="12.161856859540437"><ele>781.0</ele><time>2026-05-01T09:03:33.999Z</time></trkpt><trkpt lat="43.71177429517527" lon="12.161848660456444"><ele>781.0</ele><time>2026-05-01T09:03:34.999Z</time></trkpt><trkpt lat="43.711637624695" lon="12.161859122964389"><ele>781.0</ele><time>2026-05-01T09:03:35.999Z</time></trkpt><trkpt lat="43.711504416239364" lon="12.161868210973383"><ele>781.0</ele><time>2026-05-01T09:03:36.999Z</time></trkpt><trkpt lat="43.71138082250095" lon="12.161852241389145"><ele>781.0</ele><time>2026-05-01T09:03:37.999Z</time></trkpt><trkpt lat="43.711267941935276" lon="12.161779407183117"><ele>781.0</ele><time>2026-05-01T09:03:38.999Z</time></trkpt><trkpt lat="43.71116785781965" lon="12.16165611714383"><ele>780.0</ele><time>2026-05-01T09:03:39.999Z</time></trkpt><trkpt lat="43.71107849874065" lon="12.161513998249234"><ele>779.0</ele><time>2026-05-01T09:03:40.999Z</time></trkpt><trkpt lat="43.7110019910889" lon="12.161352097151125"><ele>778.0</ele><time>2026-05-01T09:03:41.999Z</time></trkpt><trkpt lat="43.71094094441507" lon="12.161181572339903"><ele>777.0</ele><time>2026-05-01T09:03:42.999Z</time></trkpt><trkpt lat="43.71088485314959" lon="12.161019127351821"><ele>777.0</ele><time>2026-05-01T09:03:43.999Z</time></trkpt><trkpt lat="43.71082418943087" lon="12.16085621606584"><ele>777.0</ele><time>2026-05-01T09:03:44.999Z</time></trkpt><trkpt lat="43.71074825966759" lon="12.160713671509479"><ele>777.0</ele><time>2026-05-01T09:03:45.999Z</time></trkpt><trkpt lat="43.710651225259554" lon="12.160602003581646"><ele>777.0</ele><time>2026-05-01T09:03:46.999Z</time></trkpt><trkpt lat="43.71053969909918" lon="12.160532873707904"><ele>778.5</ele><time>2026-05-01T09:03:47.999Z</time></trkpt><trkpt lat="43.71042395522504" lon="12.160499333870787"><ele>780.0</ele><time>2026-05-01T09:03:48.999Z</time></trkpt><trkpt lat="43.71030523011564" lon="12.160495552459375"><ele>781.5</ele><time>2026-05-01T09:03:49.999Z</time></trkpt><trkpt lat="43.710190281438905" lon="12.160486308584268"><ele>783.0</ele><time>2026-05-01T09:03:50.999Z</time></trkpt><trkpt lat="43.71007309572632" lon="12.16044422639623"><ele>783.0</ele><time>2026-05-01T09:03:51.999Z</time></trkpt><trkpt lat="43.70996260559042" lon="12.160365629762003"><ele>783.0</ele><time>2026-05-01T09:03:52.999Z</time></trkpt><trkpt lat="43.70984853353916" lon="12.160281343152565"><ele>783.0</ele><time>2026-05-01T09:03:53.999Z</time></trkpt><trkpt lat="43.709736025763114" lon="12.160197210815944"><ele>783.0</ele><time>2026-05-01T09:03:54.999Z</time></trkpt><trkpt lat="43.70963494595852" lon="12.160106387309808"><ele>783.0</ele><time>2026-05-01T09:03:55.999Z</time></trkpt><trkpt lat="43.70955302355171" lon="12.159988441766316"><ele>783.0</ele><time>2026-05-01T09:03:56.999Z</time></trkpt><trkpt lat="43.70950295929525" lon="12.159846621563265"><ele>783.0</ele><time>2026-05-01T09:03:57.999Z</time></trkpt><trkpt lat="43.709485700255634" lon="12.159689556638849"><ele>783.0</ele><time>2026-05-01T09:03:58.999Z</time></trkpt><trkpt lat="43.70949323207699" lon="12.15952622055669"><ele>784.75</ele><time>2026-05-01T09:03:59.999Z</time></trkpt><trkpt lat="43.70950492782193" lon="12.15935992661725"><ele>786.5</ele><time>2026-05-01T09:04:00.999Z</time></trkpt><trkpt lat="43.70951331030288" lon="12.159187527668426"><ele>788.25</ele><time>2026-05-01T09:04:01.999Z</time></trkpt><trkpt lat="43.70952260664628" lon="12.15901090931628"><ele>790.0</ele><time>2026-05-01T09:04:02.999Z</time></trkpt><trkpt lat="43.70953328592567" lon="12.15882837229073"><ele>791.25</ele><time>2026-05-01T09:04:03.999Z</time></trkpt><trkpt lat="43.70954010039792" lon="12.158643835731786"><ele>792.5</ele><time>2026-05-01T09:04:04.999Z</time></trkpt><trkpt lat="43.70954601055113" lon="12.158461055791292"><ele>793.75</ele><time>2026-05-01T09:04:05.999Z</time></trkpt><trkpt lat="43.709550408833" lon="12.158279028965875"><ele>795.0</ele><time>2026-05-01T09:04:06.999Z</time></trkpt><trkpt lat="43.709557994991975" lon="12.158097149414548"><ele>797.0</ele><time>2026-05-01T09:04:07.999Z</time></trkpt><trkpt lat="43.7095737363503" lon="12.157920054248514"><ele>799.0</ele><time>2026-05-01T09:04:08.999Z</time></trkpt><trkpt lat="43.70959927848008" lon="12.15774896100074"><ele>801.0</ele><time>2026-05-01T09:04:09.999Z</time></trkpt><trkpt lat="43.70962956883331" lon="12.157583342376043"><ele>803.0</ele><time>2026-05-01T09:04:10.999Z</time></trkpt><trkpt lat="43.709653529958196" lon="12.157416816312894"><ele>804.0</ele><time>2026-05-01T09:04:11.999Z</time></trkpt><trkpt lat="43.70966164684964" lon="12.157248390932809"><ele>805.0</ele><time>2026-05-01T09:04:12.999Z</time></trkpt><trkpt lat="43.70965155013484" lon="12.157074014552217"><ele>806.0</ele><time>2026-05-01T09:04:13.999Z</time></trkpt><trkpt lat="43.7096128506976" lon="12.156901715845219"><ele>807.0</ele><time>2026-05-01T09:04:14.999Z</time></trkpt><trkpt lat="43.709561109017805" lon="12.156731610801804"><ele>807.0</ele><time>2026-05-01T09:04:15.999Z</time></trkpt><trkpt lat="43.7095090482128" lon="12.15655509773528"><ele>807.0</ele><time>2026-05-01T09:04:16.999Z</time></trkpt><trkpt lat="43.7094621500898" lon="12.156372503288724"><ele>807.0</ele><time>2026-05-01T09:04:17.999Z</time></trkpt><trkpt lat="43.709420666768445" lon="12.156179215813905"><ele>807.0</ele><time>2026-05-01T09:04:18.999Z</time></trkpt><trkpt lat="43.70938550205371" lon="12.155980684533448"><ele>801.6666666666667</ele><time>2026-05-01T09:04:19.999Z</time></trkpt><trkpt lat="43.7093499081787" lon="12.155774960990545"><ele>796.3333333333334</ele><time>2026-05-01T09:04:20.999Z</time></trkpt><trkpt lat="43.709310681014834" lon="12.155568386979144"><ele>791.0</ele><time>2026-05-01T09:04:21.999Z</time></trkpt><trkpt lat="43.709270415927094" lon="12.155358130002588"><ele>791.0</ele><time>2026-05-01T09:04:22.999Z</time></trkpt><trkpt lat="43.70923103101533" lon="12.15514528278461"><ele>791.0</ele><time>2026-05-01T09:04:23.999Z</time></trkpt><trkpt lat="43.70919379615638" lon="12.154928216490628"><ele>791.0</ele><time>2026-05-01T09:04:24.999Z</time></trkpt><trkpt lat="43.70915678348652" lon="12.154709941130552"><ele>793.25</ele><time>2026-05-01T09:04:25.999Z</time></trkpt><trkpt lat="43.7091122725485" lon="12.154502205969926"><ele>795.5</ele><time>2026-05-01T09:04:26.999Z</time></trkpt><trkpt lat="43.70905023700014" lon="12.154317767379078"><ele>797.75</ele><time>2026-05-01T09:04:27.999Z</time></trkpt><trkpt lat="43.70896418685287" lon="12.154161796599393"><ele>800.0</ele><time>2026-05-01T09:04:28.999Z</time></trkpt><trkpt lat="43.70886581287643" lon="12.154023065483738"><ele>801.75</ele><time>2026-05-01T09:04:29.999Z</time></trkpt><trkpt lat="43.708771605068215" lon="12.153892932320664"><ele>803.5</ele><time>2026-05-01T09:04:30.999Z</time></trkpt><trkpt lat="43.7086956926136" lon="12.153763345748946"><ele>805.25</ele><time>2026-05-01T09:04:31.999Z</time></trkpt><trkpt lat="43.70864650500775" lon="12.153624469247701"><ele>807.0</ele><time>2026-05-01T09:04:32.999Z</time></trkpt><trkpt lat="43.70863828939384" lon="12.153467748311245"><ele>807.0</ele><time>2026-05-01T09:04:33.999Z</time></trkpt><trkpt lat="43.70867752452359" lon="12.153317505064047"><ele>807.0</ele><time>2026-05-01T09:04:34.999Z</time></trkpt><trkpt lat="43.70875220006759" lon="12.153185989094798"><ele>807.0</ele><time>2026-05-01T09:04:35.999Z</time></trkpt><trkpt lat="43.70882907202004" lon="12.153060961340676"><ele>807.0</ele><time>2026-05-01T09:04:37Z</time></trkpt><trkpt lat="43.70888304522262" lon="12.15291442082352"><ele>807.0</ele><time>2026-05-01T09:04:38Z</time></trkpt><trkpt lat="43.7089058078162" lon="12.152747342660959"><ele>807.0</ele><time>2026-05-01T09:04:39Z</time></trkpt><trkpt lat="43.70890098288809" lon="12.152567552544188"><ele>807.0</ele><time>2026-05-01T09:04:40Z</time></trkpt><trkpt lat="43.708891174271734" lon="12.152389268467006"><ele>807.0</ele><time>2026-05-01T09:04:41Z</time></trkpt><trkpt lat="43.708874622375426" lon="12.15221253649236"><ele>809.0</ele><time>2026-05-01T09:04:42Z</time></trkpt><trkpt lat="43.70885987711832" lon="12.15203838043211"><ele>811.0</ele><time>2026-05-01T09:04:43Z</time></trkpt><trkpt lat="43.70884006729198" lon="12.151880824651546"><ele>813.0</ele><time>2026-05-01T09:04:44Z</time></trkpt><trkpt lat="43.70878608658307" lon="12.151742305021669"><ele>815.0</ele><time>2026-05-01T09:04:45Z</time></trkpt><trkpt lat="43.70870654972622" lon="12.151618083049229"><ele>814.75</ele><time>2026-05-01T09:04:46Z</time></trkpt><trkpt lat="43.70860348784666" lon="12.15151992732033"><ele>814.5</ele><time>2026-05-01T09:04:47Z</time></trkpt><trkpt lat="43.7084850235349" lon="12.151444006436238"><ele>814.25</ele><time>2026-05-01T09:04:48Z</time></trkpt><trkpt lat="43.70836204438834" lon="12.151374306140074"><ele>814.0</ele><time>2026-05-01T09:04:49Z</time></trkpt><trkpt lat="43.70823442069755" lon="12.151324408858013"><ele>814.0</ele><time>2026-05-01T09:04:50Z</time></trkpt><trkpt lat="43.70809888174334" lon="12.151328945441456"><ele>814.0</ele><time>2026-05-01T09:04:51Z</time></trkpt><trkpt lat="43.7079697309547" lon="12.15137607953871"><ele>814.0</ele><time>2026-05-01T09:04:52Z</time></trkpt><trkpt lat="43.70785887333862" lon="12.151414410491228"><ele>814.0</ele><time>2026-05-01T09:04:53Z</time></trkpt><trkpt lat="43.70775055662471" lon="12.15141222192281"><ele>811.0</ele><time>2026-05-01T09:04:54Z</time></trkpt><trkpt lat="43.70764235818076" lon="12.151362709623093"><ele>808.0</ele><time>2026-05-01T09:04:55Z</time></trkpt><trkpt lat="43.707540280296215" lon="12.151280824976642"><ele>805.0</ele><time>2026-05-01T09:04:56Z</time></trkpt><trkpt lat="43.707469432452235" lon="12.151149923960931"><ele>802.0</ele><time>2026-05-01T09:04:57Z</time></trkpt><trkpt lat="43.70742263350323" lon="12.15099772693443"><ele>802.0</ele><time>2026-05-01T09:04:58Z</time></trkpt><trkpt lat="43.70738376337872" lon="12.15084172411554"><ele>802.0</ele><time>2026-05-01T09:04:59Z</time></trkpt><trkpt lat="43.70735778876141" lon="12.15067684304559"><ele>802.0</ele><time>2026-05-01T09:05:00Z</time></trkpt><trkpt lat="43.707338238982814" lon="12.150508339999568"><ele>802.0</ele><time>2026-05-01T09:05:01Z</time></trkpt><trkpt lat="43.707305201775675" lon="12.150345861064803"><ele>804.5</ele><time>2026-05-01T09:05:02Z</time></trkpt><trkpt lat="43.707249828561025" lon="12.15020220969328"><ele>807.0</ele><time>2026-05-01T09:05:03Z</time></trkpt><trkpt lat="43.70717089231008" lon="12.150073361079416"><ele>809.5</ele><time>2026-05-01T09:05:04Z</time></trkpt><trkpt lat="43.70707253194316" lon="12.149969233952085"><ele>812.0</ele><time>2026-05-01T09:05:05Z</time></trkpt><trkpt lat="43.70696014432284" lon="12.149897938798762"><ele>812.0</ele><time>2026-05-01T09:05:06Z</time></trkpt><trkpt lat="43.70684696549712" lon="12.14987623225804"><ele>812.0</ele><time>2026-05-01T09:05:07Z</time></trkpt><trkpt lat="43.70673332186865" lon="12.149901005050184"><ele>812.0</ele><time>2026-05-01T09:05:08Z</time></trkpt><trkpt lat="43.70663106522973" lon="12.149965564048074"><ele>812.0</ele><time>2026-05-01T09:05:09Z</time></trkpt><trkpt lat="43.70654595096148" lon="12.150062864401365"><ele>812.0</ele><time>2026-05-01T09:05:10Z</time></trkpt><trkpt lat="43.70647387683604" lon="12.150170239591219"><ele>812.0</ele><time>2026-05-01T09:05:11Z</time></trkpt><trkpt lat="43.70641159668939" lon="12.150276166916342"><ele>812.0</ele><time>2026-05-01T09:05:12Z</time></trkpt><trkpt lat="43.7063404792159" lon="12.150372269725622"><ele>812.0</ele><time>2026-05-01T09:05:13Z</time></trkpt><trkpt lat="43.70624488322879" lon="12.150438081293053"><ele>812.0</ele><time>2026-05-01T09:05:14Z</time></trkpt><trkpt lat="43.706134825482536" lon="12.150444666163533"><ele>812.75</ele><time>2026-05-01T09:05:15Z</time></trkpt><trkpt lat="43.7060327468659" lon="12.150383988698254"><ele>813.5</ele><time>2026-05-01T09:05:16Z</time></trkpt><trkpt lat="43.70594572617196" lon="12.150286290425962"><ele>814.25</ele><time>2026-05-01T09:05:17Z</time></trkpt><trkpt lat="43.70585536874804" lon="12.150188072940866"><ele>815.0</ele><time>2026-05-01T09:05:18Z</time></trkpt><trkpt lat="43.70576249906708" lon="12.150084214990784"><ele>815.0</ele><time>2026-05-01T09:05:19Z</time></trkpt><trkpt lat="43.705658680543515" lon="12.149987779623839"><ele>815.0</ele><time>2026-05-01T09:05:20Z</time></trkpt><trkpt lat="43.70553590474771" lon="12.14992480876651"><ele>815.0</ele><time>2026-05-01T09:05:21Z</time></trkpt><trkpt lat="43.70540773490599" lon="12.149887697913526"><ele>815.0</ele><time>2026-05-01T09:05:22Z</time></trkpt><trkpt lat="43.70528154353229" lon="12.149844038286743"><ele>813.0</ele><time>2026-05-01T09:05:22.999Z</time></trkpt><trkpt lat="43.70516628141676" lon="12.149775140002161"><ele>811.0</ele><time>2026-05-01T09:05:23.999Z</time></trkpt><trkpt lat="43.70508585569877" lon="12.149674916393147"><ele>809.0</ele><time>2026-05-01T09:05:24.999Z</time></trkpt><trkpt lat="43.70505964333041" lon="12.149544037055335"><ele>807.0</ele><time>2026-05-01T09:05:25.999Z</time></trkpt><trkpt lat="43.705085458305824" lon="12.149413879533114"><ele>805.0</ele><time>2026-05-01T09:05:26.999Z</time></trkpt><trkpt lat="43.70514430464134" lon="12.149315986254802"><ele>805.0</ele><time>2026-05-01T09:05:27.999Z</time></trkpt><trkpt lat="43.70522055114315" lon="12.149246038457296"><ele>805.0</ele><time>2026-05-01T09:05:28.999Z</time></trkpt><trkpt lat="43.70528972502415" lon="12.149172057019783"><ele>805.0</ele><time>2026-05-01T09:05:29.999Z</time></trkpt><trkpt lat="43.7053654867203" lon="12.149095677065251"><ele>805.0</ele><time>2026-05-01T09:05:30.999Z</time></trkpt><trkpt lat="43.705440388690604" lon="12.149010062137325"><ele>805.0</ele><time>2026-05-01T09:05:31.999Z</time></trkpt><trkpt lat="43.705505596590854" lon="12.148895301067459"><ele>810.0</ele><time>2026-05-01T09:05:32.999Z</time></trkpt><trkpt lat="43.70554767839943" lon="12.148751734724241"><ele>815.0</ele><time>2026-05-01T09:05:33.999Z</time></trkpt><trkpt lat="43.7055626359523" lon="12.148591079452894"><ele>820.0</ele><time>2026-05-01T09:05:34.999Z</time></trkpt><trkpt lat="43.70554785463271" lon="12.14842710512686"><ele>825.0</ele><time>2026-05-01T09:05:35.999Z</time></trkpt><trkpt lat="43.70548736922602" lon="12.14828201027223"><ele>822.75</ele><time>2026-05-01T09:05:36.999Z</time></trkpt><trkpt lat="43.705390368580545" lon="12.14817016785562"><ele>820.5</ele><time>2026-05-01T09:05:37.999Z</time></trkpt><trkpt lat="43.7052875037231" lon="12.14807328946434"><ele>818.25</ele><time>2026-05-01T09:05:38.999Z</time></trkpt><trkpt lat="43.70520271282031" lon="12.147952493222645"><ele>816.0</ele><time>2026-05-01T09:05:39.999Z</time></trkpt><trkpt lat="43.70517168993441" lon="12.147801700102454"><ele>816.0</ele><time>2026-05-01T09:05:40.999Z</time></trkpt><trkpt lat="43.7051737221254" lon="12.147648459001754"><ele>816.0</ele><time>2026-05-01T09:05:41.999Z</time></trkpt><trkpt lat="43.7051900604433" lon="12.147496551283705"><ele>816.0</ele><time>2026-05-01T09:05:42.999Z</time></trkpt><trkpt lat="43.70519801649657" lon="12.147344402029075"><ele>816.0</ele><time>2026-05-01T09:05:43.999Z</time></trkpt><trkpt lat="43.7051729000862" lon="12.147193666619852"><ele>816.0</ele><time>2026-05-01T09:05:44.999Z</time></trkpt><trkpt lat="43.705123945288456" lon="12.147045222926437"><ele>818.75</ele><time>2026-05-01T09:05:45.999Z</time></trkpt><trkpt lat="43.705060858012764" lon="12.14690164294129"><ele>821.5</ele><time>2026-05-01T09:05:46.999Z</time></trkpt><trkpt lat="43.70498668377243" lon="12.146756654661452"><ele>824.25</ele><time>2026-05-01T09:05:47.999Z</time></trkpt><trkpt lat="43.70491098781947" lon="12.146607096023308"><ele>827.0</ele><time>2026-05-01T09:05:48.999Z</time></trkpt><trkpt lat="43.70483535594272" lon="12.146453412342334"><ele>829.75</ele><time>2026-05-01T09:05:49.999Z</time></trkpt><trkpt lat="43.704783761074545" lon="12.14627886343034"><ele>832.5</ele><time>2026-05-01T09:05:50.999Z</time></trkpt><trkpt lat="43.704764429342" lon="12.14608715057598"><ele>835.25</ele><time>2026-05-01T09:05:51.999Z</time></trkpt><trkpt lat="43.70476649923958" lon="12.145892800623944"><ele>838.0</ele><time>2026-05-01T09:05:52.999Z</time></trkpt><trkpt lat="43.70477177967289" lon="12.145699469527537"><ele>839.5</ele><time>2026-05-01T09:05:53.999Z</time></trkpt><trkpt lat="43.704772795252005" lon="12.145502641576945"><ele>841.0</ele><time>2026-05-01T09:05:54.999Z</time></trkpt><trkpt lat="43.70477440068321" lon="12.145303309980047"><ele>842.5</ele><time>2026-05-01T09:05:55.999Z</time></trkpt><trkpt lat="43.704777385109594" lon="12.145102676843969"><ele>844.0</ele><time>2026-05-01T09:05:56.999Z</time></trkpt><trkpt lat="43.70477783654279" lon="12.144899972733791"><ele>844.25</ele><time>2026-05-01T09:05:57.999Z</time></trkpt><trkpt lat="43.70478065471421" lon="12.144697927465483"><ele>844.5</ele><time>2026-05-01T09:05:58.999Z</time></trkpt><trkpt lat="43.7047894509823" lon="12.144507820553788"><ele>844.75</ele><time>2026-05-01T09:05:59.999Z</time></trkpt><trkpt lat="43.704798796037444" lon="12.14433837012465"><ele>845.0</ele><time>2026-05-01T09:06:00.999Z</time></trkpt><trkpt lat="43.704802985686854" lon="12.144179508735975"><ele>847.0</ele><time>2026-05-01T09:06:01.999Z</time></trkpt><trkpt lat="43.704783150294055" lon="12.144022814121813"><ele>849.0</ele><time>2026-05-01T09:06:02.999Z</time></trkpt><trkpt lat="43.704728749361124" lon="12.143872602172191"><ele>851.0</ele><time>2026-05-01T09:06:03.999Z</time></trkpt><trkpt lat="43.704638012175586" lon="12.1437495475996"><ele>853.0</ele><time>2026-05-01T09:06:04.999Z</time></trkpt><trkpt lat="43.704519711983956" lon="12.143660018806633"><ele>846.0</ele><time>2026-05-01T09:06:05.999Z</time></trkpt><trkpt lat="43.704395461209224" lon="12.143575085194884"><ele>839.0</ele><time>2026-05-01T09:06:06.999Z</time></trkpt><trkpt lat="43.70428634853829" lon="12.143489120626775"><ele>832.0</ele><time>2026-05-01T09:06:07.999Z</time></trkpt><trkpt lat="43.704222339237695" lon="12.143364231317792"><ele>825.0</ele><time>2026-05-01T09:06:08.999Z</time></trkpt><trkpt lat="43.704214112170234" lon="12.14320076338345"><ele>823.75</ele><time>2026-05-01T09:06:09.999Z</time></trkpt><trkpt lat="43.70426219285321" lon="12.143034148209704"><ele>822.5</ele><time>2026-05-01T09:06:10.999Z</time></trkpt><trkpt lat="43.70433399311687" lon="12.142886551144382"><ele>821.25</ele><time>2026-05-01T09:06:11.999Z</time></trkpt><trkpt lat="43.70439994537293" lon="12.142732414036148"><ele>820.0</ele><time>2026-05-01T09:06:12.999Z</time></trkpt><trkpt lat="43.70447149833587" lon="12.142585502690807"><ele>826.2</ele><time>2026-05-01T09:06:13.999Z</time></trkpt><trkpt lat="43.704557154904435" lon="12.142472012988277"><ele>832.4</ele><time>2026-05-01T09:06:14.999Z</time></trkpt><trkpt lat="43.70463949904145" lon="12.142377289270529"><ele>838.5999999999999</ele><time>2026-05-01T09:06:15.999Z</time></trkpt><trkpt lat="43.704702910811555" lon="12.14227775513545"><ele>844.8</ele><time>2026-05-01T09:06:16.999Z</time></trkpt><trkpt lat="43.70473776994396" lon="12.142149275908295"><ele>851.0</ele><time>2026-05-01T09:06:17.999Z</time></trkpt><trkpt lat="43.70474130137472" lon="12.142006777295045"><ele>851.0</ele><time>2026-05-01T09:06:18.999Z</time></trkpt><trkpt lat="43.70470058389779" lon="12.141867314919347"><ele>851.0</ele><time>2026-05-01T09:06:19.999Z</time></trkpt><trkpt lat="43.70463123641818" lon="12.14173481495225"><ele>851.0</ele><time>2026-05-01T09:06:20.999Z</time></trkpt><trkpt lat="43.70455172912532" lon="12.141608169578483"><ele>851.0</ele><time>2026-05-01T09:06:21.999Z</time></trkpt><trkpt lat="43.704462679696086" lon="12.141484048525884"><ele>847.5</ele><time>2026-05-01T09:06:22.999Z</time></trkpt><trkpt lat="43.70436287197683" lon="12.141366887303239"><ele>844.0</ele><time>2026-05-01T09:06:23.999Z</time></trkpt><trkpt lat="43.70425372385229" lon="12.141258772733893"><ele>840.5</ele><time>2026-05-01T09:06:24.999Z</time></trkpt><trkpt lat="43.70414562258394" lon="12.141150167050068"><ele>837.0</ele><time>2026-05-01T09:06:25.999Z</time></trkpt><trkpt lat="43.70405719865954" lon="12.141014384102677"><ele>837.0</ele><time>2026-05-01T09:06:26.999Z</time></trkpt><trkpt lat="43.704004988692645" lon="12.140840987372048"><ele>837.0</ele><time>2026-05-01T09:06:27.999Z</time></trkpt><trkpt lat="43.70399136153243" lon="12.14065887787613"><ele>837.0</ele><time>2026-05-01T09:06:28.999Z</time></trkpt><trkpt lat="43.70402381197339" lon="12.140490870835041"><ele>837.0</ele><time>2026-05-01T09:06:29.999Z</time></trkpt><trkpt lat="43.70410548270575" lon="12.14035750235547"><ele>834.75</ele><time>2026-05-01T09:06:30.999Z</time></trkpt><trkpt lat="43.70422919160475" lon="12.140283430348541"><ele>832.5</ele><time>2026-05-01T09:06:31.999Z</time></trkpt><trkpt lat="43.70434149255825" lon="12.140211839270496"><ele>830.25</ele><time>2026-05-01T09:06:32.999Z</time></trkpt><trkpt lat="43.704457657264776" lon="12.140148462107337"><ele>828.0</ele><time>2026-05-01T09:06:33.999Z</time></trkpt><trkpt lat="43.704581154215795" lon="12.140112405982578"><ele>832.75</ele><time>2026-05-01T09:06:34.999Z</time></trkpt><trkpt lat="43.7046995250978" lon="12.14010129209737"><ele>837.5</ele><time>2026-05-01T09:06:35.999Z</time></trkpt><trkpt lat="43.70480885476088" lon="12.140084923402098"><ele>842.25</ele><time>2026-05-01T09:06:36.999Z</time></trkpt><trkpt lat="43.70491803343631" lon="12.140039222432877"><ele>847.0</ele><time>2026-05-01T09:06:37.999Z</time></trkpt><trkpt lat="43.70502222555364" lon="12.139962326029215"><ele>845.8</ele><time>2026-05-01T09:06:38.999Z</time></trkpt><trkpt lat="43.70512091228448" lon="12.139874828816605"><ele>844.6</ele><time>2026-05-01T09:06:39.999Z</time></trkpt><trkpt lat="43.70520481215534" lon="12.139785886218695"><ele>843.4</ele><time>2026-05-01T09:06:40.999Z</time></trkpt><trkpt lat="43.70526106966099" lon="12.139672217173484"><ele>842.1999999999999</ele><time>2026-05-01T09:06:41.999Z</time></trkpt><trkpt lat="43.70528519019901" lon="12.13954287583636"><ele>841.0</ele><time>2026-05-01T09:06:42.999Z</time></trkpt><trkpt lat="43.70527190539732" lon="12.13940720003474"><ele>841.0</ele><time>2026-05-01T09:06:43.999Z</time></trkpt><trkpt lat="43.70521873951983" lon="12.139279152804475"><ele>841.0</ele><time>2026-05-01T09:06:44.999Z</time></trkpt><trkpt lat="43.705131046847505" lon="12.139179190149218"><ele>841.0</ele><time>2026-05-01T09:06:45.999Z</time></trkpt><trkpt lat="43.70503354087113" lon="12.139079596406583"><ele>841.0</ele><time>2026-05-01T09:06:46.999Z</time></trkpt><trkpt lat="43.70494011653616" lon="12.138970683678062"><ele>842.75</ele><time>2026-05-01T09:06:47.999Z</time></trkpt><trkpt lat="43.704842410215086" lon="12.138860529810998"><ele>844.5</ele><time>2026-05-01T09:06:48.999Z</time></trkpt><trkpt lat="43.70474797780196" lon="12.138746397060231"><ele>846.25</ele><time>2026-05-01T09:06:49.999Z</time></trkpt><trkpt lat="43.7046389227602" lon="12.138663339597844"><ele>848.0</ele><time>2026-05-01T09:06:50.999Z</time></trkpt><trkpt lat="43.704517672662405" lon="12.13861508645461"><ele>844.5999999999999</ele><time>2026-05-01T09:06:51.999Z</time></trkpt><trkpt lat="43.70440191032601" lon="12.13859618773081"><ele>841.1999999999999</ele><time>2026-05-01T09:06:52.999Z</time></trkpt><trkpt lat="43.70429724075955" lon="12.138592034581276"><ele>837.8</ele><time>2026-05-01T09:06:53.999Z</time></trkpt><trkpt lat="43.70419890704128" lon="12.138583487636195"><ele>834.4</ele><time>2026-05-01T09:06:54.999Z</time></trkpt><trkpt lat="43.704106391122465" lon="12.138578902684639"><ele>831.0</ele><time>2026-05-01T09:06:56Z</time></trkpt><trkpt lat="43.70401976032602" lon="12.138576222708222"><ele>831.0</ele><time>2026-05-01T09:06:57Z</time></trkpt><trkpt lat="43.703930039607286" lon="12.138577440570078"><ele>831.0</ele><time>2026-05-01T09:06:58Z</time></trkpt><trkpt lat="43.70383974979397" lon="12.138576796759713"><ele>831.0</ele><time>2026-05-01T09:06:59Z</time></trkpt><trkpt lat="43.70375019375541" lon="12.138571775895617"><ele>831.0</ele><time>2026-05-01T09:07:00Z</time></trkpt><trkpt lat="43.703660123267895" lon="12.138566577276462"><ele>831.0</ele><time>2026-05-01T09:07:01Z</time></trkpt><trkpt lat="43.703567940037026" lon="12.138564987976299"><ele>831.8</ele><time>2026-05-01T09:07:02Z</time></trkpt><trkpt lat="43.703478043197165" lon="12.13856859414084"><ele>832.5999999999999</ele><time>2026-05-01T09:07:03Z</time></trkpt><trkpt lat="43.703386756094915" lon="12.13856827524661"><ele>833.4</ele><time>2026-05-01T09:07:04Z</time></trkpt><trkpt lat="43.703294539709" lon="12.13856782603843"><ele>834.2</ele><time>2026-05-01T09:07:05Z</time></trkpt><trkpt lat="43.70320392895572" lon="12.138581210976506"><ele>835.0</ele><time>2026-05-01T09:07:06Z</time></trkpt><trkpt lat="43.703104505664186" lon="12.138595720683718"><ele>835.0</ele><time>2026-05-01T09:07:07Z</time></trkpt><trkpt lat="43.70300544458342" lon="12.13862888883814"><ele>835.0</ele><time>2026-05-01T09:07:08Z</time></trkpt><trkpt lat="43.70289304620231" lon="12.138646646115097"><ele>835.0</ele><time>2026-05-01T09:07:09Z</time></trkpt><trkpt lat="43.702771560182754" lon="12.138633653345066"><ele>835.0</ele><time>2026-05-01T09:07:10Z</time></trkpt><trkpt lat="43.70264740980865" lon="12.138622167415955"><ele>836.5</ele><time>2026-05-01T09:07:11Z</time></trkpt><trkpt lat="43.702524909278154" lon="12.138608459880162"><ele>838.0</ele><time>2026-05-01T09:07:12Z</time></trkpt><trkpt lat="43.702396794585965" lon="12.138594780757124"><ele>839.5</ele><time>2026-05-01T09:07:13Z</time></trkpt><trkpt lat="43.70225826024698" lon="12.138587700055211"><ele>841.0</ele><time>2026-05-01T09:07:14Z</time></trkpt><trkpt lat="43.70211067126843" lon="12.138590810854147"><ele>841.0</ele><time>2026-05-01T09:07:15Z</time></trkpt><trkpt lat="43.701955373580546" lon="12.138601183084209"><ele>841.0</ele><time>2026-05-01T09:07:16Z</time></trkpt><trkpt lat="43.70179117358173" lon="12.138606702126292"><ele>841.0</ele><time>2026-05-01T09:07:17Z</time></trkpt><trkpt lat="43.70162753507373" lon="12.138622074016636"><ele>839.6666666666666</ele><time>2026-05-01T09:07:18Z</time></trkpt><trkpt lat="43.701463626227955" lon="12.138637191039585"><ele>838.3333333333333</ele><time>2026-05-01T09:07:19Z</time></trkpt><trkpt lat="43.70129780981724" lon="12.138650649420637"><ele>837.0</ele><time>2026-05-01T09:07:20Z</time></trkpt><trkpt lat="43.701134457469735" lon="12.13866154729991"><ele>835.3333333333333</ele><time>2026-05-01T09:07:21Z</time></trkpt><trkpt lat="43.700981794862656" lon="12.138673158719302"><ele>833.6666666666666</ele><time>2026-05-01T09:07:22Z</time></trkpt><trkpt lat="43.70082617615298" lon="12.138684636312565"><ele>832.0</ele><time>2026-05-01T09:07:23Z</time></trkpt><trkpt lat="43.70067160488555" lon="12.13869974069547"><ele>832.0</ele><time>2026-05-01T09:07:24Z</time></trkpt><trkpt lat="43.70052367246008" lon="12.13871137697053"><ele>832.0</ele><time>2026-05-01T09:07:24.999Z</time></trkpt><trkpt lat="43.70037040188033" lon="12.138718800571745"><ele>832.0</ele><time>2026-05-01T09:07:25.999Z</time></trkpt><trkpt lat="43.70021341605422" lon="12.138716485532905"><ele>833.3333333333333</ele><time>2026-05-01T09:07:26.999Z</time></trkpt><trkpt lat="43.70005371334835" lon="12.138706346772926"><ele>834.6666666666667</ele><time>2026-05-01T09:07:27.999Z</time></trkpt><trkpt lat="43.69989307460808" lon="12.138690387149845"><ele>836.0</ele><time>2026-05-01T09:07:28.999Z</time></trkpt><trkpt lat="43.69973303559159" lon="12.138677549782516"><ele>836.0</ele><time>2026-05-01T09:07:29.999Z</time></trkpt><trkpt lat="43.699572202533695" lon="12.138683092201212"><ele>836.0</ele><time>2026-05-01T09:07:30.999Z</time></trkpt><trkpt lat="43.69941479238" lon="12.138709296118716"><ele>836.0</ele><time>2026-05-01T09:07:31.999Z</time></trkpt><trkpt lat="43.699271161033025" lon="12.138735139339639"><ele>836.25</ele><time>2026-05-01T09:07:32.999Z</time></trkpt><trkpt lat="43.69913660690159" lon="12.13872148944729"><ele>836.5</ele><time>2026-05-01T09:07:33.999Z</time></trkpt><trkpt lat="43.69901903079773" lon="12.138650132954167"><ele>836.75</ele><time>2026-05-01T09:07:34.999Z</time></trkpt><trkpt lat="43.69892043045937" lon="12.138523382895064"><ele>837.0</ele><time>2026-05-01T09:07:35.999Z</time></trkpt><trkpt lat="43.69885236926346" lon="12.138359637042667"><ele>837.25</ele><time>2026-05-01T09:07:36.999Z</time></trkpt><trkpt lat="43.69881807391099" lon="12.138167203091117"><ele>837.5</ele><time>2026-05-01T09:07:37.999Z</time></trkpt><trkpt lat="43.69880900736646" lon="12.137963860922534"><ele>837.75</ele><time>2026-05-01T09:07:38.999Z</time></trkpt><trkpt lat="43.698775450303025" lon="12.137763137464699"><ele>838.0</ele><time>2026-05-01T09:07:39.999Z</time></trkpt><trkpt lat="43.69870816967412" lon="12.137569368717367"><ele>834.3333333333333</ele><time>2026-05-01T09:07:40.999Z</time></trkpt><trkpt lat="43.698625360138024" lon="12.137383211324565"><ele>830.6666666666667</ele><time>2026-05-01T09:07:41.999Z</time></trkpt><trkpt lat="43.69852830516447" lon="12.137214916555067"><ele>827.0</ele><time>2026-05-01T09:07:42.999Z</time></trkpt><trkpt lat="43.69842359517614" lon="12.13707705978596"><ele>827.0</ele><time>2026-05-01T09:07:43.999Z</time></trkpt><trkpt lat="43.69829681633718" lon="12.136975496384672"><ele>827.0</ele><time>2026-05-01T09:07:44.999Z</time></trkpt><trkpt lat="43.698149248143714" lon="12.136907169406573"><ele>827.0</ele><time>2026-05-01T09:07:45.999Z</time></trkpt><trkpt lat="43.697995682575076" lon="12.136867688745557"><ele>827.0</ele><time>2026-05-01T09:07:46.999Z</time></trkpt><trkpt lat="43.69783647473594" lon="12.136859524474424"><ele>827.0</ele><time>2026-05-01T09:07:47.999Z</time></trkpt><trkpt lat="43.69767246428027" lon="12.136874448910689"><ele>827.0</ele><time>2026-05-01T09:07:48.999Z</time></trkpt><trkpt lat="43.69750694092787" lon="12.136899270614721"><ele>829.0</ele><time>2026-05-01T09:07:49.999Z</time></trkpt><trkpt lat="43.69733967416227" lon="12.136928024100888"><ele>831.0</ele><time>2026-05-01T09:07:50.999Z</time></trkpt><trkpt lat="43.69718487225008" lon="12.13695878201071"><ele>833.0</ele><time>2026-05-01T09:07:51.999Z</time></trkpt><trkpt lat="43.69704272649394" lon="12.136971207197938"><ele>835.3333333333334</ele><time>2026-05-01T09:07:52.999Z</time></trkpt><trkpt lat="43.69689813865186" lon="12.136935935167518"><ele>837.6666666666667</ele><time>2026-05-01T09:07:53.999Z</time></trkpt><trkpt lat="43.696754063302635" lon="12.136851380314184"><ele>840.0</ele><time>2026-05-01T09:07:54.999Z</time></trkpt><trkpt lat="43.69661119463898" lon="12.136747419504275"><ele>840.0</ele><time>2026-05-01T09:07:55.999Z</time></trkpt><trkpt lat="43.69646220726754" lon="12.136655431320914"><ele>840.0</ele><time>2026-05-01T09:07:56.999Z</time></trkpt><trkpt lat="43.69630007788015" lon="12.13659261921033"><ele>840.0</ele><time>2026-05-01T09:07:57.999Z</time></trkpt><trkpt lat="43.69613259676384" lon="12.13655807916956"><ele>839.0</ele><time>2026-05-01T09:07:58.999Z</time></trkpt><trkpt lat="43.695962562350914" lon="12.136535244657516"><ele>838.0</ele><time>2026-05-01T09:07:59.999Z</time></trkpt><trkpt lat="43.695789080302944" lon="12.136511499808122"><ele>837.0</ele><time>2026-05-01T09:08:00.999Z</time></trkpt><trkpt lat="43.69561780617848" lon="12.13647829425276"><ele>837.0</ele><time>2026-05-01T09:08:01.999Z</time></trkpt><trkpt lat="43.69544492366178" lon="12.136447622522653"><ele>837.0</ele><time>2026-05-01T09:08:02.999Z</time></trkpt><trkpt lat="43.695270898826614" lon="12.136419196425537"><ele>837.0</ele><time>2026-05-01T09:08:03.999Z</time></trkpt><trkpt lat="43.69510536855057" lon="12.13638651804138"><ele>839.6666666666667</ele><time>2026-05-01T09:08:04.999Z</time></trkpt><trkpt lat="43.69495146376273" lon="12.13633333316822"><ele>842.3333333333334</ele><time>2026-05-01T09:08:05.999Z</time></trkpt><trkpt lat="43.694806069050976" lon="12.136240711241435"><ele>845.0</ele><time>2026-05-01T09:08:06.999Z</time></trkpt><trkpt lat="43.69467555554054" lon="12.136112024196807"><ele>845.0</ele><time>2026-05-01T09:08:07.999Z</time></trkpt><trkpt lat="43.69454595988954" lon="12.135988803480348"><ele>845.0</ele><time>2026-05-01T09:08:08.999Z</time></trkpt><trkpt lat="43.69440336123104" lon="12.135904850354825"><ele>845.0</ele><time>2026-05-01T09:08:09.999Z</time></trkpt><trkpt lat="43.694250540436926" lon="12.135878032334045"><ele>844.0</ele><time>2026-05-01T09:08:10.999Z</time></trkpt><trkpt lat="43.694097211294775" lon="12.135887698285206"><ele>843.0</ele><time>2026-05-01T09:08:11.999Z</time></trkpt><trkpt lat="43.693959482429655" lon="12.135888908090791"><ele>842.0</ele><time>2026-05-01T09:08:12.999Z</time></trkpt><trkpt lat="43.69383683425097" lon="12.135820166830177"><ele>841.0</ele><time>2026-05-01T09:08:13.999Z</time></trkpt><trkpt lat="43.69373968356763" lon="12.1356841461133"><ele>841.0</ele><time>2026-05-01T09:08:14.999Z</time></trkpt><trkpt lat="43.69367072179677" lon="12.135517144498866"><ele>841.0</ele><time>2026-05-01T09:08:15.999Z</time></trkpt><trkpt lat="43.69357914346962" lon="12.135374622315405"><ele>841.0</ele><time>2026-05-01T09:08:16.999Z</time></trkpt><trkpt lat="43.69344273653667" lon="12.135294418654611"><ele>841.0</ele><time>2026-05-01T09:08:17.999Z</time></trkpt><trkpt lat="43.6932922655795" lon="12.135264897845666"><ele>846.6666666666666</ele><time>2026-05-01T09:08:18.999Z</time></trkpt><trkpt lat="43.69314788923212" lon="12.135197744573913"><ele>852.3333333333333</ele><time>2026-05-01T09:08:19.999Z</time></trkpt><trkpt lat="43.693005264306855" lon="12.135100105193048"><ele>858.0</ele><time>2026-05-01T09:08:20.999Z</time></trkpt><trkpt lat="43.69286669176468" lon="12.135002192633785"><ele>860.0</ele><time>2026-05-01T09:08:21.999Z</time></trkpt><trkpt lat="43.69272867691363" lon="12.134914150707163"><ele>862.0</ele><time>2026-05-01T09:08:22.999Z</time></trkpt><trkpt lat="43.69259800747805" lon="12.134840200286655"><ele>864.0</ele><time>2026-05-01T09:08:23.999Z</time></trkpt><trkpt lat="43.69247710814381" lon="12.134769515581741"><ele>866.0</ele><time>2026-05-01T09:08:24.999Z</time></trkpt><trkpt lat="43.69236557868925" lon="12.134683045847549"><ele>866.0</ele><time>2026-05-01T09:08:25.999Z</time></trkpt><trkpt lat="43.69227736651605" lon="12.134557089933791"><ele>866.0</ele><time>2026-05-01T09:08:26.999Z</time></trkpt><trkpt lat="43.69222089171055" lon="12.13440625347881"><ele>866.0</ele><time>2026-05-01T09:08:27.999Z</time></trkpt><trkpt lat="43.69217773984695" lon="12.134256133686176"><ele>866.0</ele><time>2026-05-01T09:08:28.999Z</time></trkpt><trkpt lat="43.69213200108409" lon="12.134107743750354"><ele>867.0</ele><time>2026-05-01T09:08:29.999Z</time></trkpt><trkpt lat="43.69207781982545" lon="12.133973293108852"><ele>868.0</ele><time>2026-05-01T09:08:30.999Z</time></trkpt><trkpt lat="43.692019264096075" lon="12.133845463868232"><ele>869.0</ele><time>2026-05-01T09:08:31.999Z</time></trkpt><trkpt lat="43.691959258772044" lon="12.13371156302774"><ele>870.0</ele><time>2026-05-01T09:08:32.999Z</time></trkpt><trkpt lat="43.69189630807149" lon="12.133571985834617"><ele>870.0</ele><time>2026-05-01T09:08:33.999Z</time></trkpt><trkpt lat="43.69183202395325" lon="12.13341695508096"><ele>870.0</ele><time>2026-05-01T09:08:34.999Z</time></trkpt><trkpt lat="43.69177295165884" lon="12.133242266506265"><ele>870.0</ele><time>2026-05-01T09:08:35.999Z</time></trkpt><trkpt lat="43.691720225344895" lon="12.133050914914978"><ele>870.0</ele><time>2026-05-01T09:08:36.999Z</time></trkpt><trkpt lat="43.6916742399094" lon="12.132845777990715"><ele>869.0</ele><time>2026-05-01T09:08:37.999Z</time></trkpt><trkpt lat="43.69162641823282" lon="12.1326349688608"><ele>868.0</ele><time>2026-05-01T09:08:38.999Z</time></trkpt><trkpt lat="43.691574355899355" lon="12.132418898653961"><ele>867.0</ele><time>2026-05-01T09:08:39.999Z</time></trkpt><trkpt lat="43.69152374454864" lon="12.132197314753467"><ele>867.0</ele><time>2026-05-01T09:08:40.999Z</time></trkpt><trkpt lat="43.69146617909278" lon="12.131977173677496"><ele>867.0</ele><time>2026-05-01T09:08:41.999Z</time></trkpt><trkpt lat="43.6914162328815" lon="12.131754119982135"><ele>867.0</ele><time>2026-05-01T09:08:42.999Z</time></trkpt><trkpt lat="43.69137192789796" lon="12.131526573587422"><ele>865.6666666666667</ele><time>2026-05-01T09:08:43.999Z</time></trkpt><trkpt lat="43.69132295051306" lon="12.13130794605362"><ele>864.3333333333334</ele><time>2026-05-01T09:08:44.999Z</time></trkpt><trkpt lat="43.691254976459" lon="12.131102104664688"><ele>863.0</ele><time>2026-05-01T09:08:45.999Z</time></trkpt><trkpt lat="43.6911656650241" lon="12.130923439812085"><ele>869.0</ele><time>2026-05-01T09:08:46.999Z</time></trkpt><trkpt lat="43.691064796582516" lon="12.130780394145972"><ele>875.0</ele><time>2026-05-01T09:08:47.999Z</time></trkpt><trkpt lat="43.69097264204389" lon="12.130650109840355"><ele>881.0</ele><time>2026-05-01T09:08:48.999Z</time></trkpt><trkpt lat="43.69091208444532" lon="12.130498284482393"><ele>887.0</ele><time>2026-05-01T09:08:49.999Z</time></trkpt><trkpt lat="43.69089344549283" lon="12.130325097087608"><ele>887.0</ele><time>2026-05-01T09:08:50.999Z</time></trkpt><trkpt lat="43.69090379096686" lon="12.130150728506974"><ele>887.0</ele><time>2026-05-01T09:08:51.999Z</time></trkpt><trkpt lat="43.690922946017515" lon="12.129972728319864"><ele>887.0</ele><time>2026-05-01T09:08:52.999Z</time></trkpt><trkpt lat="43.690940778580654" lon="12.129791564581017"><ele>887.0</ele><time>2026-05-01T09:08:53.999Z</time></trkpt><trkpt lat="43.69094559512769" lon="12.129618168801889"><ele>885.25</ele><time>2026-05-01T09:08:54.999Z</time></trkpt><trkpt lat="43.69092251807411" lon="12.129455323376625"><ele>883.5</ele><time>2026-05-01T09:08:55.999Z</time></trkpt><trkpt lat="43.690859775412434" lon="12.129304419187589"><ele>881.75</ele><time>2026-05-01T09:08:56.999Z</time></trkpt><trkpt lat="43.69075018384024" lon="12.12919685307077"><ele>880.0</ele><time>2026-05-01T09:08:57.999Z</time></trkpt><trkpt lat="43.690616074529366" lon="12.129128116998588"><ele>880.0</ele><time>2026-05-01T09:08:58.999Z</time></trkpt><trkpt lat="43.69047447334811" lon="12.129067961894767"><ele>880.0</ele><time>2026-05-01T09:08:59.999Z</time></trkpt><trkpt lat="43.69031830018502" lon="12.129023022733863"><ele>880.0</ele><time>2026-05-01T09:09:01Z</time></trkpt><trkpt lat="43.690162519227385" lon="12.128989997296873"><ele>878.6666666666666</ele><time>2026-05-01T09:09:02Z</time></trkpt><trkpt lat="43.69000294093178" lon="12.128964029290735"><ele>877.3333333333333</ele><time>2026-05-01T09:09:03Z</time></trkpt><trkpt lat="43.68984288266838" lon="12.128924741894144"><ele>876.0</ele><time>2026-05-01T09:09:04Z</time></trkpt><trkpt lat="43.68968503334377" lon="12.128872768173151"><ele>876.0</ele><time>2026-05-01T09:09:05Z</time></trkpt><trkpt lat="43.68953162629888" lon="12.128797719957067"><ele>876.0</ele><time>2026-05-01T09:09:06Z</time></trkpt><trkpt lat="43.68938462083476" lon="12.128707506533537"><ele>876.0</ele><time>2026-05-01T09:09:07Z</time></trkpt><trkpt lat="43.68924646826481" lon="12.12861401435963"><ele>876.0</ele><time>2026-05-01T09:09:08Z</time></trkpt><trkpt lat="43.68911676835304" lon="12.128515238835602"><ele>876.0</ele><time>2026-05-01T09:09:09Z</time></trkpt><trkpt lat="43.6890064590088" lon="12.128383847592493"><ele>876.0</ele><time>2026-05-01T09:09:10Z</time></trkpt><trkpt lat="43.68890980576993" lon="12.128235577406016"><ele>876.0</ele><time>2026-05-01T09:09:11Z</time></trkpt><trkpt lat="43.68882645900398" lon="12.128078646710899"><ele>876.0</ele><time>2026-05-01T09:09:12Z</time></trkpt><trkpt lat="43.68874087214312" lon="12.127933978915262"><ele>876.0</ele><time>2026-05-01T09:09:13Z</time></trkpt><trkpt lat="43.68863188451368" lon="12.127820806620983"><ele>876.0</ele><time>2026-05-01T09:09:14Z</time></trkpt><trkpt lat="43.68850124512175" lon="12.127767097742373"><ele>876.0</ele><time>2026-05-01T09:09:15Z</time></trkpt><trkpt lat="43.688364557518184" lon="12.127744928281476"><ele>882.25</ele><time>2026-05-01T09:09:16Z</time></trkpt><trkpt lat="43.688232755932596" lon="12.127724863846534"><ele>888.5</ele><time>2026-05-01T09:09:17Z</time></trkpt><trkpt lat="43.68810472694459" lon="12.127706371239118"><ele>894.75</ele><time>2026-05-01T09:09:18Z</time></trkpt><trkpt lat="43.687982491998184" lon="12.127673682239898"><ele>901.0</ele><time>2026-05-01T09:09:19Z</time></trkpt><trkpt lat="43.68787537508224" lon="12.127606853674537"><ele>901.0</ele><time>2026-05-01T09:09:20Z</time></trkpt><trkpt lat="43.687786114937275" lon="12.127496888921337"><ele>901.0</ele><time>2026-05-01T09:09:21Z</time></trkpt><trkpt lat="43.68771081329904" lon="12.127362583202462"><ele>901.0</ele><time>2026-05-01T09:09:22Z</time></trkpt><trkpt lat="43.68762889366686" lon="12.127230743000823"><ele>901.0</ele><time>2026-05-01T09:09:23Z</time></trkpt><trkpt lat="43.68753346357526" lon="12.127105231905913"><ele>902.25</ele><time>2026-05-01T09:09:24Z</time></trkpt><trkpt lat="43.68742806884847" lon="12.126985298512563"><ele>903.5</ele><time>2026-05-01T09:09:25Z</time></trkpt><trkpt lat="43.687317030576885" lon="12.126869820060328"><ele>904.75</ele><time>2026-05-01T09:09:26Z</time></trkpt><trkpt lat="43.6871969650848" lon="12.126766366220943"><ele>906.0</ele><time>2026-05-01T09:09:27Z</time></trkpt><trkpt lat="43.687064023046794" lon="12.126682777152913"><ele>906.0</ele><time>2026-05-01T09:09:28Z</time></trkpt><trkpt lat="43.68692568592448" lon="12.12660141254619"><ele>906.0</ele><time>2026-05-01T09:09:29Z</time></trkpt><trkpt lat="43.686786720643994" lon="12.126501878698217"><ele>906.0</ele><time>2026-05-01T09:09:30Z</time></trkpt><trkpt lat="43.68665456504455" lon="12.1263785564193"><ele>906.0</ele><time>2026-05-01T09:09:31Z</time></trkpt><trkpt lat="43.68653362281481" lon="12.126232532177326"><ele>906.0</ele><time>2026-05-01T09:09:32Z</time></trkpt><trkpt lat="43.686423243071374" lon="12.126072897737"><ele>906.0</ele><time>2026-05-01T09:09:33Z</time></trkpt><trkpt lat="43.68631719279791" lon="12.125912882464624"><ele>906.0</ele><time>2026-05-01T09:09:34Z</time></trkpt><trkpt lat="43.68621031980296" lon="12.125753259857172"><ele>906.0</ele><time>2026-05-01T09:09:35Z</time></trkpt><trkpt lat="43.68609857120268" lon="12.12560124674511"><ele>906.0</ele><time>2026-05-01T09:09:36Z</time></trkpt><trkpt lat="43.68598905566776" lon="12.125445387788771"><ele>914.3333333333333</ele><time>2026-05-01T09:09:37Z</time></trkpt><trkpt lat="43.68588985369477" lon="12.125280118528007"><ele>922.6666666666666</ele><time>2026-05-01T09:09:38Z</time></trkpt><trkpt lat="43.68578597810501" lon="12.12512100618506"><ele>931.0</ele><time>2026-05-01T09:09:39Z</time></trkpt><trkpt lat="43.68570016947617" lon="12.124939638542376"><ele>927.5</ele><time>2026-05-01T09:09:40Z</time></trkpt><trkpt lat="43.685625015841076" lon="12.124754472722977"><ele>924.0</ele><time>2026-05-01T09:09:41Z</time></trkpt><trkpt lat="43.68558027459729" lon="12.12455316801704"><ele>920.5</ele><time>2026-05-01T09:09:42Z</time></trkpt><trkpt lat="43.685545992743585" lon="12.124365862994491"><ele>917.0</ele><time>2026-05-01T09:09:43Z</time></trkpt><trkpt lat="43.68548564863827" lon="12.124194071483627"><ele>916.75</ele><time>2026-05-01T09:09:44Z</time></trkpt><trkpt lat="43.685385777106845" lon="12.124046688874197"><ele>916.5</ele><time>2026-05-01T09:09:44.999Z</time></trkpt><trkpt lat="43.68526629095347" lon="12.123926780193468"><ele>916.25</ele><time>2026-05-01T09:09:45.999Z</time></trkpt><trkpt lat="43.68513744717528" lon="12.123829635802648"><ele>916.0</ele><time>2026-05-01T09:09:46.999Z</time></trkpt><trkpt lat="43.685025316785286" lon="12.123700739704203"><ele>921.0</ele><time>2026-05-01T09:09:47.999Z</time></trkpt><trkpt lat="43.684952609920124" lon="12.12352252359759"><ele>926.0</ele><time>2026-05-01T09:09:48.999Z</time></trkpt><trkpt lat="43.68490858666526" lon="12.12332287854915"><ele>931.0</ele><time>2026-05-01T09:09:49.999Z</time></trkpt><trkpt lat="43.684888518706174" lon="12.123113746814251"><ele>931.25</ele><time>2026-05-01T09:09:50.999Z</time></trkpt><trkpt lat="43.68486949770186" lon="12.122907638300962"><ele>931.5</ele><time>2026-05-01T09:09:51.999Z</time></trkpt><trkpt lat="43.68483816402287" lon="12.122711632854664"><ele>931.75</ele><time>2026-05-01T09:09:52.999Z</time></trkpt><trkpt lat="43.68480621125852" lon="12.122521130043296"><ele>932.0</ele><time>2026-05-01T09:09:53.999Z</time></trkpt><trkpt lat="43.68478073394814" lon="12.122327440551391"><ele>932.5</ele><time>2026-05-01T09:09:54.999Z</time></trkpt><trkpt lat="43.684765012976456" lon="12.122133128147023"><ele>933.0</ele><time>2026-05-01T09:09:55.999Z</time></trkpt><trkpt lat="43.684780210024" lon="12.121935215001763"><ele>933.5</ele><time>2026-05-01T09:09:56.999Z</time></trkpt><trkpt lat="43.684808305378496" lon="12.121739851730409"><ele>934.0</ele><time>2026-05-01T09:09:57.999Z</time></trkpt><trkpt lat="43.68485589209281" lon="12.121548246007775"><ele>936.25</ele><time>2026-05-01T09:09:58.999Z</time></trkpt><trkpt lat="43.684905939997755" lon="12.121362815516159"><ele>938.5</ele><time>2026-05-01T09:09:59.999Z</time></trkpt><trkpt lat="43.684933506060254" lon="12.121171403646558"><ele>940.75</ele><time>2026-05-01T09:10:00.999Z</time></trkpt><trkpt lat="43.68493066710904" lon="12.120977169189157"><ele>943.0</ele><time>2026-05-01T09:10:01.999Z</time></trkpt><trkpt lat="43.684893514514506" lon="12.12080383022199"><ele>945.0</ele><time>2026-05-01T09:10:02.999Z</time></trkpt><trkpt lat="43.68482668098409" lon="12.120643701798851"><ele>947.0</ele><time>2026-05-01T09:10:03.999Z</time></trkpt><trkpt lat="43.684725678631764" lon="12.120521739155798"><ele>949.0</ele><time>2026-05-01T09:10:04.999Z</time></trkpt><trkpt lat="43.68460608231488" lon="12.120442162191873"><ele>951.0</ele><time>2026-05-01T09:10:05.999Z</time></trkpt><trkpt lat="43.68447722913944" lon="12.12040795508023"><ele>951.5</ele><time>2026-05-01T09:10:06.999Z</time></trkpt><trkpt lat="43.68435143250696" lon="12.120402188766636"><ele>952.0</ele><time>2026-05-01T09:10:07.999Z</time></trkpt><trkpt lat="43.684228522646045" lon="12.120423092303323"><ele>952.5</ele><time>2026-05-01T09:10:08.999Z</time></trkpt><trkpt lat="43.68410591060014" lon="12.120438344443468"><ele>953.0</ele><time>2026-05-01T09:10:09.999Z</time></trkpt><trkpt lat="43.68398434468428" lon="12.120449121023503"><ele>953.0</ele><time>2026-05-01T09:10:10.999Z</time></trkpt><trkpt lat="43.683868170898386" lon="12.120448905298831"><ele>953.0</ele><time>2026-05-01T09:10:11.999Z</time></trkpt><trkpt lat="43.683761984995826" lon="12.120397978950086"><ele>953.0</ele><time>2026-05-01T09:10:12.999Z</time></trkpt><trkpt lat="43.68367691293658" lon="12.12029828462257"><ele>953.0</ele><time>2026-05-01T09:10:13.999Z</time></trkpt><trkpt lat="43.68363524622117" lon="12.120152243099952"><ele>953.0</ele><time>2026-05-01T09:10:14.999Z</time></trkpt><trkpt lat="43.68365317010722" lon="12.119995038818026"><ele>953.0</ele><time>2026-05-01T09:10:15.999Z</time></trkpt><trkpt lat="43.68371604348304" lon="12.119862372410072"><ele>953.0</ele><time>2026-05-01T09:10:16.999Z</time></trkpt><trkpt lat="43.6837632526811" lon="12.119731077809623"><ele>953.0</ele><time>2026-05-01T09:10:17.999Z</time></trkpt><trkpt lat="43.68378227988623" lon="12.119592081900773"><ele>953.0</ele><time>2026-05-01T09:10:18.999Z</time></trkpt><trkpt lat="43.683780160313155" lon="12.119441791325865"><ele>954.25</ele><time>2026-05-01T09:10:19.999Z</time></trkpt><trkpt lat="43.68376111528812" lon="12.119287086571283"><ele>955.5</ele><time>2026-05-01T09:10:20.999Z</time></trkpt><trkpt lat="43.683722341060445" lon="12.119134363705646"><ele>956.75</ele><time>2026-05-01T09:10:21.999Z</time></trkpt><trkpt lat="43.683667851024445" lon="12.118982712921376"><ele>958.0</ele><time>2026-05-01T09:10:22.999Z</time></trkpt><trkpt lat="43.68360737528253" lon="12.118826803898369"><ele>961.75</ele><time>2026-05-01T09:10:23.999Z</time></trkpt><trkpt lat="43.6835441804959" lon="12.11866965303142"><ele>965.5</ele><time>2026-05-01T09:10:24.999Z</time></trkpt><trkpt lat="43.68347249626325" lon="12.11851429220979"><ele>969.25</ele><time>2026-05-01T09:10:25.999Z</time></trkpt><trkpt lat="43.683392675061235" lon="12.11836300800593"><ele>973.0</ele><time>2026-05-01T09:10:26.999Z</time></trkpt><trkpt lat="43.68331081167466" lon="12.118208665122596"><ele>973.25</ele><time>2026-05-01T09:10:27.999Z</time></trkpt><trkpt lat="43.68322374091544" lon="12.118058580105473"><ele>973.5</ele><time>2026-05-01T09:10:28.999Z</time></trkpt><trkpt lat="43.683129902304294" lon="12.11791561595429"><ele>973.75</ele><time>2026-05-01T09:10:29.999Z</time></trkpt><trkpt lat="43.68303716174462" lon="12.11777196732323"><ele>974.0</ele><time>2026-05-01T09:10:30.999Z</time></trkpt><trkpt lat="43.68295990312311" lon="12.117607882095845"><ele>974.0</ele><time>2026-05-01T09:10:31.999Z</time></trkpt><trkpt lat="43.682907632084174" lon="12.117423001956784"><ele>974.0</ele><time>2026-05-01T09:10:32.999Z</time></trkpt><trkpt lat="43.68286176558882" lon="12.117243043237258"><ele>974.0</ele><time>2026-05-01T09:10:33.999Z</time></trkpt><trkpt lat="43.68282530112844" lon="12.117081077686596"><ele>974.0</ele><time>2026-05-01T09:10:34.999Z</time></trkpt><trkpt lat="43.682789482373366" lon="12.1169358937513"><ele>975.1666666666667</ele><time>2026-05-01T09:10:35.999Z</time></trkpt><trkpt lat="43.6827599297828" lon="12.11680442841373"><ele>976.3333333333334</ele><time>2026-05-01T09:10:36.999Z</time></trkpt><trkpt lat="43.68272665799346" lon="12.11668744036513"><ele>977.5</ele><time>2026-05-01T09:10:37.999Z</time></trkpt><trkpt lat="43.68270053503868" lon="12.116580573048624"><ele>978.6666666666667</ele><time>2026-05-01T09:10:38.999Z</time></trkpt><trkpt lat="43.68266697331423" lon="12.116488221698512"><ele>979.8333333333334</ele><time>2026-05-01T09:10:39.999Z</time></trkpt><trkpt lat="43.682623597216335" lon="12.116414140656058"><ele>981.0</ele><time>2026-05-01T09:10:40.999Z</time></trkpt><trkpt lat="43.68257326274082" lon="12.116355481779488"><ele>981.0</ele><time>2026-05-01T09:10:41.999Z</time></trkpt><trkpt lat="43.682467534846445" lon="12.116308343117145"><ele>981.0</ele><time>2026-05-01T09:10:43.999Z</time></trkpt><trkpt lat="43.682382722747" lon="12.116311676577876"><ele>981.0</ele><time>2026-05-01T09:10:45.999Z</time></trkpt><trkpt lat="43.68232067244217" lon="12.116284334676367"><ele>981.0</ele><time>2026-05-01T09:10:55Z</time></trkpt><trkpt lat="43.68225214559701" lon="12.116315428195202"><ele>981.0</ele><time>2026-05-01T09:10:58Z</time></trkpt></trkseg><trkseg><trkpt lat="43.68212387871943" lon="12.11635921468521"><ele>981.0</ele><time>2026-05-01T10:04:36.998Z</time></trkpt><trkpt lat="43.68206151676575" lon="12.116373045773635"><ele>981.0</ele><time>2026-05-01T10:04:37.998Z</time></trkpt><trkpt lat="43.68198372598727" lon="12.116381853703778"><ele>981.0</ele><time>2026-05-01T10:04:38.998Z</time></trkpt><trkpt lat="43.68191109803082" lon="12.116380531771783"><ele>981.0</ele><time>2026-05-01T10:04:39.997Z</time></trkpt><trkpt lat="43.68184664896789" lon="12.116386956527045"><ele>981.0</ele><time>2026-05-01T10:04:40.997Z</time></trkpt><trkpt lat="43.68177521480572" lon="12.116401078620243"><ele>981.0</ele><time>2026-05-01T10:04:41.997Z</time></trkpt><trkpt lat="43.681680366258824" lon="12.116414113782339"><ele>981.0</ele><time>2026-05-01T10:04:42.997Z</time></trkpt><trkpt lat="43.68158490021061" lon="12.11642222322554"><ele>978.75</ele><time>2026-05-01T10:04:43.997Z</time></trkpt><trkpt lat="43.68147210323371" lon="12.116431849336244"><ele>976.5</ele><time>2026-05-01T10:04:44.997Z</time></trkpt><trkpt lat="43.681345605972815" lon="12.11644443076768"><ele>974.25</ele><time>2026-05-01T10:04:45.997Z</time></trkpt><trkpt lat="43.681218594987584" lon="12.116465630565202"><ele>972.0</ele><time>2026-05-01T10:04:46.997Z</time></trkpt><trkpt lat="43.68108795710913" lon="12.11648714148051"><ele>970.75</ele><time>2026-05-01T10:04:47.997Z</time></trkpt><trkpt lat="43.680948366991515" lon="12.116494529662113"><ele>969.5</ele><time>2026-05-01T10:04:48.997Z</time></trkpt><trkpt lat="43.680801678119856" lon="12.116474709979286"><ele>968.25</ele><time>2026-05-01T10:04:49.997Z</time></trkpt><trkpt lat="43.68064999901823" lon="12.11641084655983"><ele>967.0</ele><time>2026-05-01T10:04:50.997Z</time></trkpt><trkpt lat="43.680512154382996" lon="12.116328295001159"><ele>967.0</ele><time>2026-05-01T10:04:51.997Z</time></trkpt><trkpt lat="43.68036842505856" lon="12.116233784533145"><ele>967.0</ele><time>2026-05-01T10:04:52.997Z</time></trkpt><trkpt lat="43.680219624472564" lon="12.116146767873639"><ele>967.0</ele><time>2026-05-01T10:04:53.997Z</time></trkpt><trkpt lat="43.68006289037966" lon="12.116069432951116"><ele>967.6666666666666</ele><time>2026-05-01T10:04:54.997Z</time></trkpt><trkpt lat="43.67990342078145" lon="12.115998778384869"><ele>968.3333333333333</ele><time>2026-05-01T10:04:55.997Z</time></trkpt><trkpt lat="43.67974882564649" lon="12.115967720094208"><ele>969.0</ele><time>2026-05-01T10:04:56.997Z</time></trkpt><trkpt lat="43.679592337221216" lon="12.116001279010806"><ele>969.0</ele><time>2026-05-01T10:04:57.997Z</time></trkpt><trkpt lat="43.679439282103374" lon="12.116087477473284"><ele>969.0</ele><time>2026-05-01T10:04:58.997Z</time></trkpt><trkpt lat="43.679291728115516" lon="12.116196460437545"><ele>969.0</ele><time>2026-05-01T10:04:59.997Z</time></trkpt><trkpt lat="43.67914672478575" lon="12.11632724577987"><ele>967.5</ele><time>2026-05-01T10:05:00.997Z</time></trkpt><trkpt lat="43.67900570436908" lon="12.11645495279019"><ele>966.0</ele><time>2026-05-01T10:05:01.997Z</time></trkpt><trkpt lat="43.67887786718891" lon="12.116556838779045"><ele>964.5</ele><time>2026-05-01T10:05:02.997Z</time></trkpt><trkpt lat="43.67875882334949" lon="12.116604612264494"><ele>963.0</ele><time>2026-05-01T10:05:03.997Z</time></trkpt><trkpt lat="43.67861847152937" lon="12.116572562300163"><ele>963.6666666666667</ele><time>2026-05-01T10:05:04.997Z</time></trkpt><trkpt lat="43.678481676622" lon="12.116470727433253"><ele>964.3333333333334</ele><time>2026-05-01T10:05:05.997Z</time></trkpt><trkpt lat="43.67834856456448" lon="12.116343083929497"><ele>965.0</ele><time>2026-05-01T10:05:06.997Z</time></trkpt><trkpt lat="43.678200571324766" lon="12.116242689111004"><ele>965.0</ele><time>2026-05-01T10:05:07.997Z</time></trkpt><trkpt lat="43.678028245094936" lon="12.116198413626154"><ele>965.0</ele><time>2026-05-01T10:05:08.997Z</time></trkpt><trkpt lat="43.67784908638212" lon="12.116176674847868"><ele>965.0</ele><time>2026-05-01T10:05:09.997Z</time></trkpt><trkpt lat="43.67767095612264" lon="12.116148826722975"><ele>962.6666666666667</ele><time>2026-05-01T10:05:10.997Z</time></trkpt><trkpt lat="43.6774898224611" lon="12.11611012151172"><ele>960.3333333333333</ele><time>2026-05-01T10:05:11.997Z</time></trkpt><trkpt lat="43.67730084084462" lon="12.116083745058253"><ele>958.0</ele><time>2026-05-01T10:05:12.997Z</time></trkpt><trkpt lat="43.67710975482267" lon="12.116091348093432"><ele>957.0</ele><time>2026-05-01T10:05:13.997Z</time></trkpt><trkpt lat="43.6769128520007" lon="12.116118809911727"><ele>956.0</ele><time>2026-05-01T10:05:14.997Z</time></trkpt><trkpt lat="43.67671683159796" lon="12.116140864642901"><ele>955.0</ele><time>2026-05-01T10:05:15.997Z</time></trkpt><trkpt lat="43.6765233217825" lon="12.116160581110977"><ele>955.0</ele><time>2026-05-01T10:05:16.997Z</time></trkpt><trkpt lat="43.67634260384697" lon="12.116174058273216"><ele>955.0</ele><time>2026-05-01T10:05:17.996Z</time></trkpt><trkpt lat="43.67617391759362" lon="12.116191957371456"><ele>955.0</ele><time>2026-05-01T10:05:18.996Z</time></trkpt><trkpt lat="43.67601086321785" lon="12.11624777882664"><ele>953.3333333333333</ele><time>2026-05-01T10:05:19.998Z</time></trkpt><trkpt lat="43.67585058919821" lon="12.116350772920205"><ele>951.6666666666667</ele><time>2026-05-01T10:05:20.999Z</time></trkpt><trkpt lat="43.67570442404041" lon="12.116491116074807"><ele>950.0</ele><time>2026-05-01T10:05:21.999Z</time></trkpt><trkpt lat="43.67557762041393" lon="12.116628702775873"><ele>951.0</ele><time>2026-05-01T10:05:22.999Z</time></trkpt><trkpt lat="43.675445588890135" lon="12.11671989943983"><ele>952.0</ele><time>2026-05-01T10:05:23.999Z</time></trkpt><trkpt lat="43.6753008717606" lon="12.116751748292558"><ele>953.0</ele><time>2026-05-01T10:05:24.999Z</time></trkpt><trkpt lat="43.675134351613956" lon="12.11671902662878"><ele>953.0</ele><time>2026-05-01T10:05:25.999Z</time></trkpt><trkpt lat="43.67496520697269" lon="12.116630995238783"><ele>953.0</ele><time>2026-05-01T10:05:26.999Z</time></trkpt><trkpt lat="43.67479518111779" lon="12.116535917790623"><ele>953.0</ele><time>2026-05-01T10:05:27.999Z</time></trkpt><trkpt lat="43.67461968336171" lon="12.116463026480634"><ele>950.6666666666667</ele><time>2026-05-01T10:05:28.999Z</time></trkpt><trkpt lat="43.674446731791335" lon="12.11639808890052"><ele>948.3333333333333</ele><time>2026-05-01T10:05:29.999Z</time></trkpt><trkpt lat="43.67426763050532" lon="12.116320306968584"><ele>946.0</ele><time>2026-05-01T10:05:30.999Z</time></trkpt><trkpt lat="43.674087851124646" lon="12.116260463000941"><ele>945.0</ele><time>2026-05-01T10:05:31.999Z</time></trkpt><trkpt lat="43.673900805214885" lon="12.116251368726637"><ele>944.0</ele><time>2026-05-01T10:05:32.999Z</time></trkpt><trkpt lat="43.673708204760985" lon="12.116296097691318"><ele>943.0</ele><time>2026-05-01T10:05:33.999Z</time></trkpt><trkpt lat="43.67352234959257" lon="12.116380192298719"><ele>941.6666666666666</ele><time>2026-05-01T10:05:34.999Z</time></trkpt><trkpt lat="43.67335560810032" lon="12.116469442259252"><ele>940.3333333333333</ele><time>2026-05-01T10:05:35.999Z</time></trkpt><trkpt lat="43.67318909803841" lon="12.116508862697478"><ele>939.0</ele><time>2026-05-01T10:05:36.999Z</time></trkpt><trkpt lat="43.67302703333509" lon="12.116484345152216"><ele>939.0</ele><time>2026-05-01T10:05:37.999Z</time></trkpt><trkpt lat="43.67287147973453" lon="12.116388952562696"><ele>939.0</ele><time>2026-05-01T10:05:38.999Z</time></trkpt><trkpt lat="43.672715941218115" lon="12.116253444550567"><ele>939.0</ele><time>2026-05-01T10:05:39.999Z</time></trkpt><trkpt lat="43.672554276081236" lon="12.11612377707633"><ele>939.6666666666667</ele><time>2026-05-01T10:05:40.999Z</time></trkpt><trkpt lat="43.67239748681881" lon="12.115982588055205"><ele>940.3333333333334</ele><time>2026-05-01T10:05:41.999Z</time></trkpt><trkpt lat="43.67228634102866" lon="12.115794221231035"><ele>941.0</ele><time>2026-05-01T10:05:42.999Z</time></trkpt><trkpt lat="43.67220187042653" lon="12.115615335663563"><ele>938.75</ele><time>2026-05-01T10:05:43.999Z</time></trkpt><trkpt lat="43.672111119296154" lon="12.115477199801829"><ele>936.5</ele><time>2026-05-01T10:05:44.999Z</time></trkpt><trkpt lat="43.67198352352255" lon="12.115395962911823"><ele>934.25</ele><time>2026-05-01T10:05:45.999Z</time></trkpt><trkpt lat="43.67183285515692" lon="12.115390316053857"><ele>932.0</ele><time>2026-05-01T10:05:46.999Z</time></trkpt><trkpt lat="43.67167666422753" lon="12.115457447690568"><ele>929.6666666666667</ele><time>2026-05-01T10:05:47.999Z</time></trkpt><trkpt lat="43.671523708991465" lon="12.115564758768212"><ele>927.3333333333333</ele><time>2026-05-01T10:05:48.999Z</time></trkpt><trkpt lat="43.67138233795814" lon="12.11569667229596"><ele>925.0</ele><time>2026-05-01T10:05:49.999Z</time></trkpt><trkpt lat="43.67124731249997" lon="12.115824472037275"><ele>928.0</ele><time>2026-05-01T10:05:50.999Z</time></trkpt><trkpt lat="43.67112892483317" lon="12.115941235765648"><ele>931.0</ele><time>2026-05-01T10:05:51.999Z</time></trkpt><trkpt lat="43.67101284852591" lon="12.11602512678944"><ele>934.0</ele><time>2026-05-01T10:05:52.999Z</time></trkpt><trkpt lat="43.670897683245066" lon="12.116039401994728"><ele>937.0</ele><time>2026-05-01T10:05:53.999Z</time></trkpt><trkpt lat="43.67079294182704" lon="12.115975095271"><ele>937.0</ele><time>2026-05-01T10:05:54.999Z</time></trkpt><trkpt lat="43.67073354685003" lon="12.11582639717445"><ele>937.0</ele><time>2026-05-01T10:05:55.999Z</time></trkpt><trkpt lat="43.67072123829252" lon="12.115642942109377"><ele>937.0</ele><time>2026-05-01T10:05:56.999Z</time></trkpt><trkpt lat="43.67071752494788" lon="12.115456794488225"><ele>937.0</ele><time>2026-05-01T10:05:57.999Z</time></trkpt><trkpt lat="43.67068752730577" lon="12.11527382212427"><ele>933.75</ele><time>2026-05-01T10:05:58.999Z</time></trkpt><trkpt lat="43.67062687682853" lon="12.115114388408783"><ele>930.5</ele><time>2026-05-01T10:05:59.999Z</time></trkpt><trkpt lat="43.67053356174932" lon="12.115000600943999"><ele>927.25</ele><time>2026-05-01T10:06:00.999Z</time></trkpt><trkpt lat="43.670414080073805" lon="12.11495037607919"><ele>924.0</ele><time>2026-05-01T10:06:01.999Z</time></trkpt><trkpt lat="43.670288278922335" lon="12.11497930074403"><ele>924.25</ele><time>2026-05-01T10:06:02.999Z</time></trkpt><trkpt lat="43.670164502421265" lon="12.115083999649853"><ele>924.5</ele><time>2026-05-01T10:06:03.999Z</time></trkpt><trkpt lat="43.67003989953344" lon="12.115202727284846"><ele>924.75</ele><time>2026-05-01T10:06:04.999Z</time></trkpt><trkpt lat="43.66989317505919" lon="12.115222634764384"><ele>925.0</ele><time>2026-05-01T10:06:05.999Z</time></trkpt><trkpt lat="43.66974923539841" lon="12.115166370831863"><ele>925.0</ele><time>2026-05-01T10:06:06.999Z</time></trkpt><trkpt lat="43.66961408305813" lon="12.115046121189302"><ele>925.0</ele><time>2026-05-01T10:06:07.999Z</time></trkpt><trkpt lat="43.669500073764" lon="12.114903129298453"><ele>925.0</ele><time>2026-05-01T10:06:08.999Z</time></trkpt><trkpt lat="43.66939817094844" lon="12.114779793927594"><ele>921.75</ele><time>2026-05-01T10:06:09.999Z</time></trkpt><trkpt lat="43.66928984489586" lon="12.114716012763251"><ele>918.5</ele><time>2026-05-01T10:06:10.999Z</time></trkpt><trkpt lat="43.66916840827129" lon="12.11471446026819"><ele>915.25</ele><time>2026-05-01T10:06:11.999Z</time></trkpt><trkpt lat="43.6690332058486" lon="12.11477371782109"><ele>912.0</ele><time>2026-05-01T10:06:12.999Z</time></trkpt><trkpt lat="43.668894989719995" lon="12.114847464965832"><ele>912.0</ele><time>2026-05-01T10:06:13.999Z</time></trkpt><trkpt lat="43.668747406312924" lon="12.114873158867532"><ele>912.0</ele><time>2026-05-01T10:06:14.999Z</time></trkpt><trkpt lat="43.66860052408304" lon="12.114853780154295"><ele>912.0</ele><time>2026-05-01T10:06:15.999Z</time></trkpt><trkpt lat="43.66845720601185" lon="12.114790437560309"><ele>912.0</ele><time>2026-05-01T10:06:16.999Z</time></trkpt><trkpt lat="43.66831400288025" lon="12.114699820169346"><ele>910.0</ele><time>2026-05-01T10:06:17.999Z</time></trkpt><trkpt lat="43.66818383379703" lon="12.11460437617449"><ele>908.0</ele><time>2026-05-01T10:06:18.999Z</time></trkpt><trkpt lat="43.6680595869313" lon="12.114540240612712"><ele>906.0</ele><time>2026-05-01T10:06:19.999Z</time></trkpt><trkpt lat="43.667924735126704" lon="12.114544150867477"><ele>904.0</ele><time>2026-05-01T10:06:20.999Z</time></trkpt><trkpt lat="43.667792316359254" lon="12.11462482574847"><ele>905.5</ele><time>2026-05-01T10:06:21.999Z</time></trkpt><trkpt lat="43.66767594186666" lon="12.114719876094039"><ele>907.0</ele><time>2026-05-01T10:06:22.999Z</time></trkpt><trkpt lat="43.66755083019484" lon="12.11472850638774"><ele>908.5</ele><time>2026-05-01T10:06:23.999Z</time></trkpt><trkpt lat="43.667423957825044" lon="12.114644166857644"><ele>910.0</ele><time>2026-05-01T10:06:24.999Z</time></trkpt><trkpt lat="43.667313643248306" lon="12.11449250665126"><ele>910.0</ele><time>2026-05-01T10:06:25.999Z</time></trkpt><trkpt lat="43.667220696706785" lon="12.114316652854468"><ele>910.0</ele><time>2026-05-01T10:06:26.999Z</time></trkpt><trkpt lat="43.66711132117275" lon="12.114151648009669"><ele>910.0</ele><time>2026-05-01T10:06:27.999Z</time></trkpt><trkpt lat="43.66699291306543" lon="12.113994940736069"><ele>910.3333333333333</ele><time>2026-05-01T10:06:28.999Z</time></trkpt><trkpt lat="43.66688347725268" lon="12.113831156322815"><ele>910.6666666666667</ele><time>2026-05-01T10:06:29.999Z</time></trkpt><trkpt lat="43.666777544949575" lon="12.113661478770144"><ele>911.0</ele><time>2026-05-01T10:06:30.999Z</time></trkpt><trkpt lat="43.66668831263223" lon="12.11347884677702"><ele>911.0</ele><time>2026-05-01T10:06:31.999Z</time></trkpt><trkpt lat="43.666616971908226" lon="12.113280033346784"><ele>911.0</ele><time>2026-05-01T10:06:32.999Z</time></trkpt><trkpt lat="43.66657895319732" lon="12.113058949225056"><ele>911.0</ele><time>2026-05-01T10:06:33.999Z</time></trkpt><trkpt lat="43.666566661167124" lon="12.112818853409754"><ele>910.0</ele><time>2026-05-01T10:06:34.999Z</time></trkpt><trkpt lat="43.66656419030887" lon="12.112575364712264"><ele>909.0</ele><time>2026-05-01T10:06:35.999Z</time></trkpt><trkpt lat="43.66656464817706" lon="12.112330483856939"><ele>908.0</ele><time>2026-05-01T10:06:36.999Z</time></trkpt><trkpt lat="43.666572958056086" lon="12.112081680734217"><ele>908.0</ele><time>2026-05-01T10:06:37.999Z</time></trkpt><trkpt lat="43.66661242329096" lon="12.111839138468836"><ele>908.0</ele><time>2026-05-01T10:06:38.998Z</time></trkpt><trkpt lat="43.6666659212059" lon="12.111610398861412"><ele>908.0</ele><time>2026-05-01T10:06:39.998Z</time></trkpt><trkpt lat="43.66670602296268" lon="12.111393925357204"><ele>907.3333333333334</ele><time>2026-05-01T10:06:40.998Z</time></trkpt><trkpt lat="43.666728617656446" lon="12.11118264074495"><ele>906.6666666666667</ele><time>2026-05-01T10:06:41.998Z</time></trkpt><trkpt lat="43.66672334692541" lon="12.110972299901313"><ele>906.0</ele><time>2026-05-01T10:06:42.998Z</time></trkpt><trkpt lat="43.66667588959888" lon="12.11075349124061"><ele>902.6666666666667</ele><time>2026-05-01T10:06:43.998Z</time></trkpt><trkpt lat="43.66659129747891" lon="12.110538597516944"><ele>899.3333333333334</ele><time>2026-05-01T10:06:44.998Z</time></trkpt><trkpt lat="43.66648366924707" lon="12.110329175969468"><ele>896.0</ele><time>2026-05-01T10:06:45.998Z</time></trkpt><trkpt lat="43.66638583855267" lon="12.110112795082147"><ele>890.0</ele><time>2026-05-01T10:06:46.998Z</time></trkpt><trkpt lat="43.666310449651874" lon="12.109898466672695"><ele>884.0</ele><time>2026-05-01T10:06:47.998Z</time></trkpt><trkpt lat="43.66624837903485" lon="12.109708458695946"><ele>878.0</ele><time>2026-05-01T10:06:48.998Z</time></trkpt><trkpt lat="43.66617660833371" lon="12.109543786514298"><ele>884.6666666666667</ele><time>2026-05-01T10:06:49.998Z</time></trkpt><trkpt lat="43.66607869420199" lon="12.109409534263971"><ele>891.3333333333333</ele><time>2026-05-01T10:06:50.998Z</time></trkpt><trkpt lat="43.66594170137007" lon="12.10931467288272"><ele>898.0</ele><time>2026-05-01T10:06:51.998Z</time></trkpt><trkpt lat="43.665777483446824" lon="12.109249719355779"><ele>898.0</ele><time>2026-05-01T10:06:52.998Z</time></trkpt><trkpt lat="43.66561072565711" lon="12.109174208991579"><ele>898.0</ele><time>2026-05-01T10:06:53.998Z</time></trkpt><trkpt lat="43.665449936499854" lon="12.109077267018142"><ele>898.0</ele><time>2026-05-01T10:06:54.998Z</time></trkpt><trkpt lat="43.6652991604102" lon="12.108954901281194"><ele>896.3333333333333</ele><time>2026-05-01T10:06:55.998Z</time></trkpt><trkpt lat="43.66516802589032" lon="12.108806851871119"><ele>894.6666666666667</ele><time>2026-05-01T10:06:56.998Z</time></trkpt><trkpt lat="43.66504956497137" lon="12.1086286121982"><ele>893.0</ele><time>2026-05-01T10:06:57.998Z</time></trkpt><trkpt lat="43.664938345643186" lon="12.108429035480937"><ele>886.3333333333334</ele><time>2026-05-01T10:06:58.998Z</time></trkpt><trkpt lat="43.66481337970297" lon="12.10823596156984"><ele>879.6666666666667</ele><time>2026-05-01T10:06:59.998Z</time></trkpt><trkpt lat="43.66466830958886" lon="12.108054828166136"><ele>873.0</ele><time>2026-05-01T10:07:00.998Z</time></trkpt><trkpt lat="43.664513145010716" lon="12.107880613937164"><ele>874.3333333333333</ele><time>2026-05-01T10:07:01.998Z</time></trkpt><trkpt lat="43.66435496979167" lon="12.107715364033174"><ele>875.6666666666666</ele><time>2026-05-01T10:07:02.998Z</time></trkpt><trkpt lat="43.6642079451052" lon="12.107553408635921"><ele>877.0</ele><time>2026-05-01T10:07:03.998Z</time></trkpt><trkpt lat="43.66406905353892" lon="12.107386990076959"><ele>877.0</ele><time>2026-05-01T10:07:04.998Z</time></trkpt><trkpt lat="43.66394370039456" lon="12.1072061246482"><ele>877.0</ele><time>2026-05-01T10:07:05.998Z</time></trkpt><trkpt lat="43.66382472633227" lon="12.107013557286916"><ele>877.0</ele><time>2026-05-01T10:07:06.998Z</time></trkpt><trkpt lat="43.66370666228362" lon="12.106814806397445"><ele>877.6666666666666</ele><time>2026-05-01T10:07:07.998Z</time></trkpt><trkpt lat="43.663596387332575" lon="12.106613208845205"><ele>878.3333333333333</ele><time>2026-05-01T10:07:08.998Z</time></trkpt><trkpt lat="43.66348927892152" lon="12.106421128504017"><ele>879.0</ele><time>2026-05-01T10:07:09.998Z</time></trkpt><trkpt lat="43.66338722736899" lon="12.106241066623713"><ele>879.0</ele><time>2026-05-01T10:07:10.998Z</time></trkpt><trkpt lat="43.66328675415043" lon="12.106069364923984"><ele>879.0</ele><time>2026-05-01T10:07:11.998Z</time></trkpt><trkpt lat="43.66319152489498" lon="12.105903139005717"><ele>879.0</ele><time>2026-05-01T10:07:12.998Z</time></trkpt><trkpt lat="43.66311035047179" lon="12.105730714384409"><ele>877.0</ele><time>2026-05-01T10:07:13.998Z</time></trkpt><trkpt lat="43.663063113996934" lon="12.105536982864837"><ele>875.0</ele><time>2026-05-01T10:07:14.998Z</time></trkpt><trkpt lat="43.66305293030689" lon="12.105339316640238"><ele>873.0</ele><time>2026-05-01T10:07:15.998Z</time></trkpt><trkpt lat="43.66305405225008" lon="12.1051594272144"><ele>871.0</ele><time>2026-05-01T10:07:16.998Z</time></trkpt><trkpt lat="43.66302383721034" lon="12.10498817637206"><ele>870.8</ele><time>2026-05-01T10:07:17.998Z</time></trkpt><trkpt lat="43.6629496671081" lon="12.104849888297244"><ele>870.5999999999999</ele><time>2026-05-01T10:07:18.998Z</time></trkpt><trkpt lat="43.66285531005883" lon="12.10476210596378"><ele>870.4</ele><time>2026-05-01T10:07:19.998Z</time></trkpt><trkpt lat="43.662768530487924" lon="12.104741746600542"><ele>870.2</ele><time>2026-05-01T10:07:20.998Z</time></trkpt><trkpt lat="43.662696015980586" lon="12.104741027253555"><ele>870.0</ele><time>2026-05-01T10:07:21.998Z</time></trkpt><trkpt lat="43.66263239388846" lon="12.104746846942538"><ele>870.6</ele><time>2026-05-01T10:07:22.998Z</time></trkpt><trkpt lat="43.66252325375546" lon="12.104794899683112"><ele>871.2</ele><time>2026-05-01T10:07:24.998Z</time></trkpt><trkpt lat="43.66244846370897" lon="12.104841217021592"><ele>871.8</ele><time>2026-05-01T10:07:26.999Z</time></trkpt><trkpt lat="43.66238977812216" lon="12.104908738096453"><ele>872.4</ele><time>2026-05-01T10:07:28.999Z</time></trkpt><trkpt lat="43.662332305820996" lon="12.1049900246066"><ele>873.0</ele><time>2026-05-01T10:07:30.999Z</time></trkpt><trkpt lat="43.662275763694545" lon="12.10510281971424"><ele>873.0</ele><time>2026-05-01T10:07:32.999Z</time></trkpt><trkpt lat="43.6622429202571" lon="12.105179271625037"><ele>873.0</ele><time>2026-05-01T10:07:33.999Z</time></trkpt><trkpt lat="43.662205817771486" lon="12.105263394564611"><ele>873.0</ele><time>2026-05-01T10:07:34.999Z</time></trkpt><trkpt lat="43.66216637636672" lon="12.105357454480696"><ele>873.0</ele><time>2026-05-01T10:07:35.999Z</time></trkpt><trkpt lat="43.6621227881117" lon="12.105461986346802"><ele>873.0</ele><time>2026-05-01T10:07:36.999Z</time></trkpt><trkpt lat="43.66207135510024" lon="12.105571387096855"><ele>873.0</ele><time>2026-05-01T10:07:37.999Z</time></trkpt><trkpt lat="43.66201330551193" lon="12.105688550956815"><ele>875.0</ele><time>2026-05-01T10:07:39Z</time></trkpt><trkpt lat="43.661955997784524" lon="12.105817410671227"><ele>877.0</ele><time>2026-05-01T10:07:40Z</time></trkpt><trkpt lat="43.6618876134472" lon="12.105943305516583"><ele>879.0</ele><time>2026-05-01T10:07:41Z</time></trkpt><trkpt lat="43.66180535662506" lon="12.106055838787976"><ele>881.0</ele><time>2026-05-01T10:07:42Z</time></trkpt><trkpt lat="43.66170952630127" lon="12.106152880723497"><ele>876.25</ele><time>2026-05-01T10:07:43Z</time></trkpt><trkpt lat="43.66160194522922" lon="12.10623175924163"><ele>871.5</ele><time>2026-05-01T10:07:44Z</time></trkpt><trkpt lat="43.66148455920715" lon="12.106292487667783"><ele>866.75</ele><time>2026-05-01T10:07:45Z</time></trkpt><trkpt lat="43.66135909577583" lon="12.106338667608949"><ele>862.0</ele><time>2026-05-01T10:07:46Z</time></trkpt><trkpt lat="43.661229082839085" lon="12.10636887672471"><ele>858.5</ele><time>2026-05-01T10:07:46.999Z</time></trkpt><trkpt lat="43.6610979092726" lon="12.10638963052872"><ele>855.0</ele><time>2026-05-01T10:07:47.999Z</time></trkpt><trkpt lat="43.660965906956015" lon="12.106400509339188"><ele>851.5</ele><time>2026-05-01T10:07:48.999Z</time></trkpt><trkpt lat="43.66083594656769" lon="12.10641057883299"><ele>848.0</ele><time>2026-05-01T10:07:49.999Z</time></trkpt><trkpt lat="43.660707717380674" lon="12.106427647245527"><ele>848.0</ele><time>2026-05-01T10:07:50.999Z</time></trkpt><trkpt lat="43.660578850232866" lon="12.106444410352704"><ele>848.0</ele><time>2026-05-01T10:07:51.999Z</time></trkpt><trkpt lat="43.66045121592116" lon="12.106463388187017"><ele>848.0</ele><time>2026-05-01T10:07:52.999Z</time></trkpt><trkpt lat="43.66032613911837" lon="12.10649648646544"><ele>848.0</ele><time>2026-05-01T10:07:53.999Z</time></trkpt><trkpt lat="43.66020508736881" lon="12.106546390124034"><ele>850.25</ele><time>2026-05-01T10:07:54.999Z</time></trkpt><trkpt lat="43.660088241475385" lon="12.106629602755717"><ele>852.5</ele><time>2026-05-01T10:07:55.999Z</time></trkpt><trkpt lat="43.6599706137857" lon="12.106722745115045"><ele>854.75</ele><time>2026-05-01T10:07:56.999Z</time></trkpt><trkpt lat="43.659851773465086" lon="12.106812148877097"><ele>857.0</ele><time>2026-05-01T10:07:57.999Z</time></trkpt><trkpt lat="43.65972784233089" lon="12.106896143864718"><ele>857.0</ele><time>2026-05-01T10:07:58.999Z</time></trkpt><trkpt lat="43.65960277792434" lon="12.106978210582625"><ele>857.0</ele><time>2026-05-01T10:07:59.999Z</time></trkpt><trkpt lat="43.659461491517774" lon="12.107022441130349"><ele>857.0</ele><time>2026-05-01T10:08:00.999Z</time></trkpt><trkpt lat="43.65930793532792" lon="12.107034388805468"><ele>857.0</ele><time>2026-05-01T10:08:01.999Z</time></trkpt><trkpt lat="43.65915208429578" lon="12.107025774714685"><ele>855.3333333333334</ele><time>2026-05-01T10:08:02.999Z</time></trkpt><trkpt lat="43.6589961125784" lon="12.10700934543378"><ele>853.6666666666667</ele><time>2026-05-01T10:08:03.999Z</time></trkpt><trkpt lat="43.65884189773253" lon="12.106976174351084"><ele>852.0</ele><time>2026-05-01T10:08:04.999Z</time></trkpt><trkpt lat="43.658694352838666" lon="12.106927180924119"><ele>850.75</ele><time>2026-05-01T10:08:05.999Z</time></trkpt><trkpt lat="43.65855510119397" lon="12.106877638912216"><ele>849.5</ele><time>2026-05-01T10:08:06.999Z</time></trkpt><trkpt lat="43.65842223874978" lon="12.106836223541805"><ele>848.25</ele><time>2026-05-01T10:08:07.999Z</time></trkpt><trkpt lat="43.658298864419024" lon="12.106808999816105"><ele>847.0</ele><time>2026-05-01T10:08:08.999Z</time></trkpt><trkpt lat="43.658182914073635" lon="12.106820508652511"><ele>847.0</ele><time>2026-05-01T10:08:09.999Z</time></trkpt><trkpt lat="43.65808610483443" lon="12.10690538642608"><ele>847.0</ele><time>2026-05-01T10:08:10.999Z</time></trkpt><trkpt lat="43.65802007199644" lon="12.107051502914096"><ele>847.0</ele><time>2026-05-01T10:08:11.999Z</time></trkpt><trkpt lat="43.65799959144601" lon="12.107236943351593"><ele>847.0</ele><time>2026-05-01T10:08:12.999Z</time></trkpt><trkpt lat="43.65800255835811" lon="12.10742799297835"><ele>848.0</ele><time>2026-05-01T10:08:13.999Z</time></trkpt><trkpt lat="43.65800171789444" lon="12.107627986755073"><ele>849.0</ele><time>2026-05-01T10:08:14.999Z</time></trkpt><trkpt lat="43.6579989506347" lon="12.10783669565195"><ele>850.0</ele><time>2026-05-01T10:08:15.999Z</time></trkpt><trkpt lat="43.65799028831855" lon="12.108053061222694"><ele>850.3333333333333</ele><time>2026-05-01T10:08:16.999Z</time></trkpt><trkpt lat="43.657974072646205" lon="12.108275522036466"><ele>850.6666666666667</ele><time>2026-05-01T10:08:17.999Z</time></trkpt><trkpt lat="43.65796616801391" lon="12.108503552933751"><ele>851.0</ele><time>2026-05-01T10:08:18.999Z</time></trkpt><trkpt lat="43.65795868189923" lon="12.108721170408554"><ele>851.0</ele><time>2026-05-01T10:08:19.999Z</time></trkpt><trkpt lat="43.6579569041899" lon="12.10891942523082"><ele>851.0</ele><time>2026-05-01T10:08:20.999Z</time></trkpt><trkpt lat="43.65794924089578" lon="12.109104359836369"><ele>851.0</ele><time>2026-05-01T10:08:21.999Z</time></trkpt><trkpt lat="43.657916118020616" lon="12.109282142368999"><ele>851.0</ele><time>2026-05-01T10:08:22.999Z</time></trkpt><trkpt lat="43.657852235198405" lon="12.109453264698796"><ele>845.6666666666667</ele><time>2026-05-01T10:08:23.999Z</time></trkpt><trkpt lat="43.65774547357277" lon="12.109592154166561"><ele>840.3333333333333</ele><time>2026-05-01T10:08:24.999Z</time></trkpt><trkpt lat="43.657608379162305" lon="12.109692724779983"><ele>835.0</ele><time>2026-05-01T10:08:25.999Z</time></trkpt><trkpt lat="43.65745395658637" lon="12.109761218976779"><ele>835.0</ele><time>2026-05-01T10:08:26.999Z</time></trkpt><trkpt lat="43.65729587500361" lon="12.10980792751152"><ele>835.0</ele><time>2026-05-01T10:08:27.999Z</time></trkpt><trkpt lat="43.65715079899415" lon="12.10985207398582"><ele>835.0</ele><time>2026-05-01T10:08:28.999Z</time></trkpt><trkpt lat="43.65702276601386" lon="12.109901316187958"><ele>835.0</ele><time>2026-05-01T10:08:29.999Z</time></trkpt><trkpt lat="43.656913467240244" lon="12.109983832137312"><ele>833.5</ele><time>2026-05-01T10:08:30.999Z</time></trkpt><trkpt lat="43.656833734460115" lon="12.110111443913837"><ele>832.0</ele><time>2026-05-01T10:08:31.999Z</time></trkpt><trkpt lat="43.65679245918814" lon="12.110269452007286"><ele>830.5</ele><time>2026-05-01T10:08:32.999Z</time></trkpt><trkpt lat="43.656800632301135" lon="12.11044786749532"><ele>829.0</ele><time>2026-05-01T10:08:33.999Z</time></trkpt><trkpt lat="43.65686578398962" lon="12.110620838957527"><ele>832.0</ele><time>2026-05-01T10:08:34.999Z</time></trkpt><trkpt lat="43.65695503624564" lon="12.110781066805941"><ele>835.0</ele><time>2026-05-01T10:08:35.999Z</time></trkpt><trkpt lat="43.65703417432727" lon="12.110959340984133"><ele>838.0</ele><time>2026-05-01T10:08:36.999Z</time></trkpt><trkpt lat="43.65707023944783" lon="12.111178960700679"><ele>838.0</ele><time>2026-05-01T10:08:37.999Z</time></trkpt><trkpt lat="43.65708567904168" lon="12.11140216632146"><ele>838.0</ele><time>2026-05-01T10:08:38.999Z</time></trkpt><trkpt lat="43.657099441644675" lon="12.11162905398864"><ele>838.0</ele><time>2026-05-01T10:08:39.999Z</time></trkpt><trkpt lat="43.65711093028664" lon="12.111860742252116"><ele>836.3333333333333</ele><time>2026-05-01T10:08:40.999Z</time></trkpt><trkpt lat="43.65711776275805" lon="12.112096487267095"><ele>834.6666666666667</ele><time>2026-05-01T10:08:41.999Z</time></trkpt><trkpt lat="43.657108584101714" lon="12.11233858611889"><ele>833.0</ele><time>2026-05-01T10:08:42.999Z</time></trkpt><trkpt lat="43.65707869564562" lon="12.11258475829758"><ele>832.3333333333334</ele><time>2026-05-01T10:08:43.999Z</time></trkpt><trkpt lat="43.65704522536784" lon="12.112816089997313"><ele>831.6666666666667</ele><time>2026-05-01T10:08:44.999Z</time></trkpt><trkpt lat="43.65701238966658" lon="12.113027494097008"><ele>831.0</ele><time>2026-05-01T10:08:45.999Z</time></trkpt><trkpt lat="43.656971012883204" lon="12.11322016570262"><ele>828.0</ele><time>2026-05-01T10:08:46.999Z</time></trkpt><trkpt lat="43.65689971589849" lon="12.113385016958281"><ele>825.0</ele><time>2026-05-01T10:08:47.999Z</time></trkpt><trkpt lat="43.65679188787989" lon="12.113512769266856"><ele>822.0</ele><time>2026-05-01T10:08:48.999Z</time></trkpt><trkpt lat="43.65665137552267" lon="12.113582021737475"><ele>819.0</ele><time>2026-05-01T10:08:49.999Z</time></trkpt><trkpt lat="43.6564949725806" lon="12.113595842728607"><ele>819.0</ele><time>2026-05-01T10:08:50.999Z</time></trkpt><trkpt lat="43.65633313783873" lon="12.113620497249778"><ele>819.0</ele><time>2026-05-01T10:08:51.999Z</time></trkpt><trkpt lat="43.656167905349385" lon="12.113665500188178"><ele>819.0</ele><time>2026-05-01T10:08:52.998Z</time></trkpt><trkpt lat="43.65599405182913" lon="12.113709355151471"><ele>814.6666666666667</ele><time>2026-05-01T10:08:53.998Z</time></trkpt><trkpt lat="43.655813146903704" lon="12.113753435087895"><ele>810.3333333333334</ele><time>2026-05-01T10:08:54.998Z</time></trkpt><trkpt lat="43.65562682121155" lon="12.113799391826863"><ele>806.0</ele><time>2026-05-01T10:08:55.998Z</time></trkpt><trkpt lat="43.65544181764556" lon="12.113850057999153"><ele>803.3333333333334</ele><time>2026-05-01T10:08:56.998Z</time></trkpt><trkpt lat="43.65526805219933" lon="12.113894107118417"><ele>800.6666666666667</ele><time>2026-05-01T10:08:57.998Z</time></trkpt><trkpt lat="43.655104174195415" lon="12.113929869687361"><ele>798.0</ele><time>2026-05-01T10:08:58.998Z</time></trkpt><trkpt lat="43.65494585177317" lon="12.113961187158337"><ele>798.0</ele><time>2026-05-01T10:08:59.998Z</time></trkpt><trkpt lat="43.65479663338923" lon="12.113987728664592"><ele>798.0</ele><time>2026-05-01T10:09:00.998Z</time></trkpt><trkpt lat="43.654658071114355" lon="12.114038817636446"><ele>798.0</ele><time>2026-05-01T10:09:01.998Z</time></trkpt><trkpt lat="43.654534525153025" lon="12.11414459936662"><ele>798.0</ele><time>2026-05-01T10:09:02.998Z</time></trkpt><trkpt lat="43.65443659604919" lon="12.11431251507525"><ele>797.3333333333333</ele><time>2026-05-01T10:09:03.998Z</time></trkpt><trkpt lat="43.65436736225421" lon="12.114511346156627"><ele>796.6666666666666</ele><time>2026-05-01T10:09:04.998Z</time></trkpt><trkpt lat="43.65430330471393" lon="12.114703741160541"><ele>796.0</ele><time>2026-05-01T10:09:05.998Z</time></trkpt><trkpt lat="43.65423642992648" lon="12.114879234749159"><ele>796.75</ele><time>2026-05-01T10:09:06.998Z</time></trkpt><trkpt lat="43.654184479799994" lon="12.115046156216007"><ele>797.5</ele><time>2026-05-01T10:09:07.998Z</time></trkpt><trkpt lat="43.65412600986466" lon="12.115191120169063"><ele>798.25</ele><time>2026-05-01T10:09:08.998Z</time></trkpt><trkpt lat="43.65404449326734" lon="12.115283686557646"><ele>799.0</ele><time>2026-05-01T10:09:09.998Z</time></trkpt><trkpt lat="43.65393786661392" lon="12.11531918378153"><ele>799.0</ele><time>2026-05-01T10:09:10.998Z</time></trkpt><trkpt lat="43.65382586410692" lon="12.115291172150824"><ele>799.0</ele><time>2026-05-01T10:09:11.998Z</time></trkpt><trkpt lat="43.65373803101513" lon="12.115179890715615"><ele>799.0</ele><time>2026-05-01T10:09:12.998Z</time></trkpt><trkpt lat="43.653702268785416" lon="12.115007879252525"><ele>799.0</ele><time>2026-05-01T10:09:13.998Z</time></trkpt><trkpt lat="43.6537205435605" lon="12.114806177927196"><ele>798.25</ele><time>2026-05-01T10:09:14.998Z</time></trkpt><trkpt lat="43.65374814805512" lon="12.114603073411741"><ele>797.5</ele><time>2026-05-01T10:09:15.998Z</time></trkpt><trkpt lat="43.653762664279846" lon="12.114410153576818"><ele>796.75</ele><time>2026-05-01T10:09:16.998Z</time></trkpt><trkpt lat="43.653765582963594" lon="12.11420630579175"><ele>796.0</ele><time>2026-05-01T10:09:17.998Z</time></trkpt><trkpt lat="43.65373341216916" lon="12.11399219554083"><ele>794.0</ele><time>2026-05-01T10:09:18.998Z</time></trkpt><trkpt lat="43.653671728088845" lon="12.113775717532429"><ele>792.0</ele><time>2026-05-01T10:09:19.998Z</time></trkpt><trkpt lat="43.653600851207784" lon="12.113554260202843"><ele>790.0</ele><time>2026-05-01T10:09:20.998Z</time></trkpt><trkpt lat="43.653519655155584" lon="12.113333358065379"><ele>786.6666666666666</ele><time>2026-05-01T10:09:21.998Z</time></trkpt><trkpt lat="43.6534379085642" lon="12.11310941629771"><ele>783.3333333333333</ele><time>2026-05-01T10:09:22.998Z</time></trkpt><trkpt lat="43.653362778173204" lon="12.11287835662353"><ele>780.0</ele><time>2026-05-01T10:09:23.998Z</time></trkpt><trkpt lat="43.65328659931534" lon="12.112649026880433"><ele>780.0</ele><time>2026-05-01T10:09:24.998Z</time></trkpt><trkpt lat="43.653212440898145" lon="12.11241812444912"><ele>780.0</ele><time>2026-05-01T10:09:25.998Z</time></trkpt><trkpt lat="43.65313918115811" lon="12.112186717696089"><ele>780.0</ele><time>2026-05-01T10:09:26.998Z</time></trkpt><trkpt lat="43.65306657830642" lon="12.111964246584117"><ele>779.6666666666667</ele><time>2026-05-01T10:09:27.998Z</time></trkpt><trkpt lat="43.6529966009066" lon="12.111751610088264"><ele>779.3333333333334</ele><time>2026-05-01T10:09:28.998Z</time></trkpt><trkpt lat="43.652929769818606" lon="12.111547763343868"><ele>779.0</ele><time>2026-05-01T10:09:29.998Z</time></trkpt><trkpt lat="43.65286140722433" lon="12.111352804053272"><ele>779.5</ele><time>2026-05-01T10:09:30.998Z</time></trkpt><trkpt lat="43.65279467879528" lon="12.111163380936766"><ele>780.0</ele><time>2026-05-01T10:09:31.999Z</time></trkpt><trkpt lat="43.65271854032108" lon="12.110992013477127"><ele>780.5</ele><time>2026-05-01T10:09:32.999Z</time></trkpt><trkpt lat="43.652599531257835" lon="12.110866062546496"><ele>781.0</ele><time>2026-05-01T10:09:33.999Z</time></trkpt><trkpt lat="43.65245204111205" lon="12.110784096124904"><ele>779.0</ele><time>2026-05-01T10:09:34.999Z</time></trkpt><trkpt lat="43.6523027008825" lon="12.110710063364719"><ele>777.0</ele><time>2026-05-01T10:09:35.999Z</time></trkpt><trkpt lat="43.65216250738886" lon="12.110634849787413"><ele>775.0</ele><time>2026-05-01T10:09:36.999Z</time></trkpt><trkpt lat="43.652034617335424" lon="12.110536815727029"><ele>769.6666666666666</ele><time>2026-05-01T10:09:37.999Z</time></trkpt><trkpt lat="43.65193350364953" lon="12.11039395435734"><ele>764.3333333333333</ele><time>2026-05-01T10:09:38.999Z</time></trkpt><trkpt lat="43.65187631893962" lon="12.110195216158218"><ele>759.0</ele><time>2026-05-01T10:09:39.999Z</time></trkpt><trkpt lat="43.651858984239354" lon="12.109977205491084"><ele>760.0</ele><time>2026-05-01T10:09:40.999Z</time></trkpt><trkpt lat="43.651844245446696" lon="12.109781048257616"><ele>761.0</ele><time>2026-05-01T10:09:42Z</time></trkpt><trkpt lat="43.65179617066834" lon="12.109613301580795"><ele>762.0</ele><time>2026-05-01T10:09:43Z</time></trkpt><trkpt lat="43.651698793894745" lon="12.109486128263985"><ele>763.0</ele><time>2026-05-01T10:09:44Z</time></trkpt><trkpt lat="43.65155860777526" lon="12.109405769268278"><ele>763.0</ele><time>2026-05-01T10:09:45Z</time></trkpt><trkpt lat="43.65139798510617" lon="12.109370997369929"><ele>763.0</ele><time>2026-05-01T10:09:46Z</time></trkpt><trkpt lat="43.65123346323084" lon="12.109340605022833"><ele>763.0</ele><time>2026-05-01T10:09:47Z</time></trkpt><trkpt lat="43.65107892943414" lon="12.109299231939792"><ele>760.0</ele><time>2026-05-01T10:09:48Z</time></trkpt><trkpt lat="43.65094185415598" lon="12.109269636912737"><ele>757.0</ele><time>2026-05-01T10:09:49Z</time></trkpt><trkpt lat="43.65081519613415" lon="12.10922224080276"><ele>754.0</ele><time>2026-05-01T10:09:50Z</time></trkpt><trkpt lat="43.650709720355415" lon="12.109127239933649"><ele>751.0</ele><time>2026-05-01T10:09:51Z</time></trkpt><trkpt lat="43.6506599894889" lon="12.108982418748717"><ele>750.25</ele><time>2026-05-01T10:09:52Z</time></trkpt><trkpt lat="43.65067854236951" lon="12.108822274737113"><ele>749.5</ele><time>2026-05-01T10:09:53Z</time></trkpt><trkpt lat="43.65076422409031" lon="12.108683504959062"><ele>748.75</ele><time>2026-05-01T10:09:54Z</time></trkpt><trkpt lat="43.650892139494594" lon="12.108554815490013"><ele>748.0</ele><time>2026-05-01T10:09:54.999Z</time></trkpt><trkpt lat="43.651017027499336" lon="12.108402440990984"><ele>748.3333333333334</ele><time>2026-05-01T10:09:55.999Z</time></trkpt><trkpt lat="43.65113861745942" lon="12.108247524250702"><ele>748.6666666666666</ele><time>2026-05-01T10:09:56.999Z</time></trkpt><trkpt lat="43.65126571332232" lon="12.108084430612992"><ele>749.0</ele><time>2026-05-01T10:09:57.999Z</time></trkpt><trkpt lat="43.6513930109358" lon="12.10790839931565"><ele>749.0</ele><time>2026-05-01T10:09:58.999Z</time></trkpt><trkpt lat="43.65151794613538" lon="12.10774417673891"><ele>749.0</ele><time>2026-05-01T10:09:59.999Z</time></trkpt><trkpt lat="43.65163403495546" lon="12.107599772913241"><ele>749.0</ele><time>2026-05-01T10:10:00.999Z</time></trkpt><trkpt lat="43.65173270954973" lon="12.107471778275857"><ele>748.0</ele><time>2026-05-01T10:10:01.999Z</time></trkpt><trkpt lat="43.65180986938925" lon="12.107327242797814"><ele>747.0</ele><time>2026-05-01T10:10:02.999Z</time></trkpt><trkpt lat="43.651860505431195" lon="12.107163961271166"><ele>746.0</ele><time>2026-05-01T10:10:03.999Z</time></trkpt><trkpt lat="43.651876462530836" lon="12.10696894866319"><ele>745.0</ele><time>2026-05-01T10:10:04.999Z</time></trkpt><trkpt lat="43.651856912178644" lon="12.106765121027122"><ele>745.0</ele><time>2026-05-01T10:10:05.999Z</time></trkpt><trkpt lat="43.65182545657717" lon="12.10657849269565"><ele>745.0</ele><time>2026-05-01T10:10:06.999Z</time></trkpt><trkpt lat="43.65180448983609" lon="12.10638886138167"><ele>745.0</ele><time>2026-05-01T10:10:07.999Z</time></trkpt><trkpt lat="43.65178021462931" lon="12.106188008216558"><ele>745.0</ele><time>2026-05-01T10:10:08.999Z</time></trkpt><trkpt lat="43.65170753510781" lon="12.106001712461648"><ele>744.3333333333334</ele><time>2026-05-01T10:10:09.999Z</time></trkpt><trkpt lat="43.651584198046336" lon="12.105848159590526"><ele>743.6666666666666</ele><time>2026-05-01T10:10:10.999Z</time></trkpt><trkpt lat="43.65145306254262" lon="12.105710546281246"><ele>743.0</ele><time>2026-05-01T10:10:11.999Z</time></trkpt><trkpt lat="43.65134521093483" lon="12.105565028391027"><ele>743.0</ele><time>2026-05-01T10:10:12.999Z</time></trkpt><trkpt lat="43.651265248920105" lon="12.105389551800322"><ele>743.0</ele><time>2026-05-01T10:10:13.999Z</time></trkpt><trkpt lat="43.65121085577482" lon="12.105185336517401"><ele>743.0</ele><time>2026-05-01T10:10:14.999Z</time></trkpt><trkpt lat="43.65117599905784" lon="12.104963517396572"><ele>743.0</ele><time>2026-05-01T10:10:15.999Z</time></trkpt><trkpt lat="43.65115524223097" lon="12.10472964565816"><ele>743.0</ele><time>2026-05-01T10:10:16.999Z</time></trkpt><trkpt lat="43.65114818895955" lon="12.104495025135309"><ele>743.0</ele><time>2026-05-01T10:10:17.999Z</time></trkpt><trkpt lat="43.65114999281006" lon="12.104271727024257"><ele>743.0</ele><time>2026-05-01T10:10:18.999Z</time></trkpt><trkpt lat="43.651143283479406" lon="12.104063522858286"><ele>743.0</ele><time>2026-05-01T10:10:19.999Z</time></trkpt><trkpt lat="43.6510910621728" lon="12.103864798916897"><ele>743.0</ele><time>2026-05-01T10:10:20.999Z</time></trkpt><trkpt lat="43.65099507663144" lon="12.103675277400008"><ele>738.6666666666666</ele><time>2026-05-01T10:10:21.999Z</time></trkpt><trkpt lat="43.6508727129867" lon="12.103508562983446"><ele>734.3333333333334</ele><time>2026-05-01T10:10:22.999Z</time></trkpt><trkpt lat="43.650720285496405" lon="12.103389251069594"><ele>730.0</ele><time>2026-05-01T10:10:23.999Z</time></trkpt><trkpt lat="43.65056917748811" lon="12.10327619685721"><ele>730.3333333333334</ele><time>2026-05-01T10:10:24.999Z</time></trkpt><trkpt lat="43.650427078482366" lon="12.1031686712925"><ele>730.6666666666666</ele><time>2026-05-01T10:10:25.999Z</time></trkpt><trkpt lat="43.650293135949816" lon="12.103064879378051"><ele>731.0</ele><time>2026-05-01T10:10:26.999Z</time></trkpt><trkpt lat="43.65017822329894" lon="12.102944282254022"><ele>727.75</ele><time>2026-05-01T10:10:27.999Z</time></trkpt><trkpt lat="43.65009023608897" lon="12.102795253013412"><ele>724.5</ele><time>2026-05-01T10:10:28.999Z</time></trkpt><trkpt lat="43.65003829168764" lon="12.102614245851113"><ele>721.25</ele><time>2026-05-01T10:10:29.999Z</time></trkpt><trkpt lat="43.650036256677204" lon="12.102409347171232"><ele>718.0</ele><time>2026-05-01T10:10:30.999Z</time></trkpt><trkpt lat="43.650081410038716" lon="12.102205152062385"><ele>716.6666666666667</ele><time>2026-05-01T10:10:31.999Z</time></trkpt><trkpt lat="43.650157748087" lon="12.102012525570998"><ele>715.3333333333334</ele><time>2026-05-01T10:10:32.999Z</time></trkpt><trkpt lat="43.650247215633115" lon="12.101835081896468"><ele>714.0</ele><time>2026-05-01T10:10:33.999Z</time></trkpt><trkpt lat="43.650308407586" lon="12.101654967673365"><ele>715.3333333333334</ele><time>2026-05-01T10:10:34.999Z</time></trkpt><trkpt lat="43.650331417879976" lon="12.101456937110283"><ele>716.6666666666667</ele><time>2026-05-01T10:10:35.999Z</time></trkpt><trkpt lat="43.65032810397994" lon="12.101241755981702"><ele>718.0</ele><time>2026-05-01T10:10:36.999Z</time></trkpt><trkpt lat="43.65031053703044" lon="12.101015950983419"><ele>718.0</ele><time>2026-05-01T10:10:37.999Z</time></trkpt><trkpt lat="43.6502933329631" lon="12.10077811707555"><ele>718.0</ele><time>2026-05-01T10:10:38.999Z</time></trkpt><trkpt lat="43.65028165463738" lon="12.100540543720271"><ele>718.0</ele><time>2026-05-01T10:10:39.999Z</time></trkpt><trkpt lat="43.65027088699129" lon="12.100317976443893"><ele>717.0</ele><time>2026-05-01T10:10:40.999Z</time></trkpt><trkpt lat="43.65026028450499" lon="12.100098099784475"><ele>716.0</ele><time>2026-05-01T10:10:41.999Z</time></trkpt><trkpt lat="43.65024676096364" lon="12.099871980411608"><ele>715.0</ele><time>2026-05-01T10:10:42.999Z</time></trkpt><trkpt lat="43.65023454925921" lon="12.099650373148592"><ele>715.0</ele><time>2026-05-01T10:10:43.999Z</time></trkpt><trkpt lat="43.650217093115764" lon="12.099432341993158"><ele>715.0</ele><time>2026-05-01T10:10:44.999Z</time></trkpt><trkpt lat="43.650206957052305" lon="12.09921261097988"><ele>715.0</ele><time>2026-05-01T10:10:45.999Z</time></trkpt><trkpt lat="43.650200512066206" lon="12.099000952835636"><ele>714.0</ele><time>2026-05-01T10:10:46.999Z</time></trkpt><trkpt lat="43.65019122163138" lon="12.098806786558724"><ele>713.0</ele><time>2026-05-01T10:10:47.999Z</time></trkpt><trkpt lat="43.65018235083882" lon="12.098633709982526"><ele>712.0</ele><time>2026-05-01T10:10:48.999Z</time></trkpt><trkpt lat="43.65017288567967" lon="12.098476217432344"><ele>711.0</ele><time>2026-05-01T10:10:49.999Z</time></trkpt><trkpt lat="43.65014448147117" lon="12.098324424359848"><ele>708.0</ele><time>2026-05-01T10:10:50.999Z</time></trkpt><trkpt lat="43.65007981277652" lon="12.098186358638031"><ele>705.0</ele><time>2026-05-01T10:10:51.999Z</time></trkpt><trkpt lat="43.64999400090492" lon="12.098057582250552"><ele>702.0</ele><time>2026-05-01T10:10:52.999Z</time></trkpt><trkpt lat="43.64990428630056" lon="12.097933822006107"><ele>699.0</ele><time>2026-05-01T10:10:53.999Z</time></trkpt><trkpt lat="43.64982618682642" lon="12.09780851885531"><ele>699.0</ele><time>2026-05-01T10:10:54.999Z</time></trkpt><trkpt lat="43.649766554843694" lon="12.097669574009615"><ele>699.0</ele><time>2026-05-01T10:10:55.999Z</time></trkpt><trkpt lat="43.649733658183855" lon="12.097521400891623"><ele>699.0</ele><time>2026-05-01T10:10:56.999Z</time></trkpt><trkpt lat="43.649734831881126" lon="12.097375330271053"><ele>699.0</ele><time>2026-05-01T10:10:57.999Z</time></trkpt><trkpt lat="43.64976201145351" lon="12.097239068684694"><ele>699.0</ele><time>2026-05-01T10:10:58.999Z</time></trkpt><trkpt lat="43.64979066094723" lon="12.097108930842055"><ele>697.0</ele><time>2026-05-01T10:10:59.999Z</time></trkpt><trkpt lat="43.64980034619589" lon="12.096977418262002"><ele>695.0</ele><time>2026-05-01T10:11:00.999Z</time></trkpt><trkpt lat="43.649776519319786" lon="12.096845472149408"><ele>693.0</ele><time>2026-05-01T10:11:01.999Z</time></trkpt><trkpt lat="43.64970489322165" lon="12.096734095860457"><ele>691.0</ele><time>2026-05-01T10:11:02.999Z</time></trkpt><trkpt lat="43.64959976617209" lon="12.096662791136694"><ele>689.0</ele><time>2026-05-01T10:11:03.998Z</time></trkpt><trkpt lat="43.64948116601442" lon="12.09663760122334"><ele>691.0</ele><time>2026-05-01T10:11:04.998Z</time></trkpt><trkpt lat="43.64936237092238" lon="12.096642770287755"><ele>693.0</ele><time>2026-05-01T10:11:05.998Z</time></trkpt><trkpt lat="43.649243665366996" lon="12.096659473093181"><ele>695.0</ele><time>2026-05-01T10:11:06.998Z</time></trkpt><trkpt lat="43.64912156171107" lon="12.09667774409117"><ele>697.0</ele><time>2026-05-01T10:11:07.998Z</time></trkpt><trkpt lat="43.64899815352793" lon="12.09669614339929"><ele>697.0</ele><time>2026-05-01T10:11:08.998Z</time></trkpt><trkpt lat="43.6488776954569" lon="12.096696654552938"><ele>697.0</ele><time>2026-05-01T10:11:09.998Z</time></trkpt><trkpt lat="43.64876439897235" lon="12.096659100472163"><ele>697.0</ele><time>2026-05-01T10:11:10.998Z</time></trkpt><trkpt lat="43.648658971747864" lon="12.096582266507264"><ele>697.0</ele><time>2026-05-01T10:11:11.998Z</time></trkpt><trkpt lat="43.64856648664466" lon="12.096465745796541"><ele>694.5</ele><time>2026-05-01T10:11:12.998Z</time></trkpt><trkpt lat="43.648475027131866" lon="12.096334542910576"><ele>692.0</ele><time>2026-05-01T10:11:13.998Z</time></trkpt><trkpt lat="43.6483901615519" lon="12.096194896428448"><ele>689.5</ele><time>2026-05-01T10:11:14.998Z</time></trkpt><trkpt lat="43.64832533315939" lon="12.096042899825543"><ele>687.0</ele><time>2026-05-01T10:11:15.998Z</time></trkpt><trkpt lat="43.64827349012048" lon="12.095890714564591"><ele>684.0</ele><time>2026-05-01T10:11:16.998Z</time></trkpt><trkpt lat="43.64822669753973" lon="12.095746577556195"><ele>681.0</ele><time>2026-05-01T10:11:17.998Z</time></trkpt><trkpt lat="43.64815892610335" lon="12.095623213354525"><ele>678.0</ele><time>2026-05-01T10:11:18.998Z</time></trkpt><trkpt lat="43.64805972139113" lon="12.095535701533947"><ele>675.0</ele><time>2026-05-01T10:11:19.998Z</time></trkpt><trkpt lat="43.64794533899162" lon="12.095483787167188"><ele>675.0</ele><time>2026-05-01T10:11:20.998Z</time></trkpt><trkpt lat="43.6478252854947" lon="12.09546898745085"><ele>675.0</ele><time>2026-05-01T10:11:21.998Z</time></trkpt><trkpt lat="43.64770749811144" lon="12.095458620015396"><ele>675.0</ele><time>2026-05-01T10:11:22.998Z</time></trkpt><trkpt lat="43.647597871781244" lon="12.095445463190838"><ele>675.0</ele><time>2026-05-01T10:11:23.998Z</time></trkpt><trkpt lat="43.64749747590707" lon="12.095456150261818"><ele>675.0</ele><time>2026-05-01T10:11:24.998Z</time></trkpt><trkpt lat="43.647411615484266" lon="12.095505078270683"><ele>675.0</ele><time>2026-05-01T10:11:25.998Z</time></trkpt><trkpt lat="43.647352723476224" lon="12.095612873215396"><ele>675.0</ele><time>2026-05-01T10:11:26.998Z</time></trkpt><trkpt lat="43.647338211002555" lon="12.095760182970384"><ele>675.0</ele><time>2026-05-01T10:11:27.998Z</time></trkpt><trkpt lat="43.647351785480204" lon="12.095920057691503"><ele>675.0</ele><time>2026-05-01T10:11:28.998Z</time></trkpt><trkpt lat="43.64736273571666" lon="12.096076768346194"><ele>675.0</ele><time>2026-05-01T10:11:29.998Z</time></trkpt><trkpt lat="43.64736919444084" lon="12.096235174957684"><ele>676.5</ele><time>2026-05-01T10:11:30.998Z</time></trkpt><trkpt lat="43.64736326394123" lon="12.096389946510394"><ele>678.0</ele><time>2026-05-01T10:11:31.998Z</time></trkpt><trkpt lat="43.647340210020424" lon="12.096549164982168"><ele>679.5</ele><time>2026-05-01T10:11:32.998Z</time></trkpt><trkpt lat="43.64730208429468" lon="12.096717317851386"><ele>681.0</ele><time>2026-05-01T10:11:33.998Z</time></trkpt><trkpt lat="43.647267996996796" lon="12.09689573294927"><ele>682.5</ele><time>2026-05-01T10:11:34.998Z</time></trkpt><trkpt lat="43.64726029812374" lon="12.097093813859345"><ele>684.0</ele><time>2026-05-01T10:11:35.998Z</time></trkpt><trkpt lat="43.647275940592955" lon="12.097299202947376"><ele>685.5</ele><time>2026-05-01T10:11:36.998Z</time></trkpt><trkpt lat="43.64729270527096" lon="12.097505563797244"><ele>687.0</ele><time>2026-05-01T10:11:37.999Z</time></trkpt><trkpt lat="43.6473132551515" lon="12.097708246256476"><ele>687.25</ele><time>2026-05-01T10:11:38.999Z</time></trkpt><trkpt lat="43.64733160121379" lon="12.097902403237299"><ele>687.5</ele><time>2026-05-01T10:11:39.999Z</time></trkpt><trkpt lat="43.64734501643222" lon="12.098087559610867"><ele>687.75</ele><time>2026-05-01T10:11:40.999Z</time></trkpt><trkpt lat="43.647356263566664" lon="12.098260467828188"><ele>688.0</ele><time>2026-05-01T10:11:41.999Z</time></trkpt><trkpt lat="43.64736336572667" lon="12.098424639967071"><ele>687.5</ele><time>2026-05-01T10:11:42.999Z</time></trkpt><trkpt lat="43.64735728054873" lon="12.098577611783508"><ele>687.0</ele><time>2026-05-01T10:11:43.999Z</time></trkpt><trkpt lat="43.647314935029534" lon="12.098720829640849"><ele>686.5</ele><time>2026-05-01T10:11:44.999Z</time></trkpt><trkpt lat="43.647243626259105" lon="12.098843325102154"><ele>686.0</ele><time>2026-05-01T10:11:45.999Z</time></trkpt><trkpt lat="43.64715766623372" lon="12.098954663296478"><ele>686.0</ele><time>2026-05-01T10:11:46.999Z</time></trkpt><trkpt lat="43.647066708301985" lon="12.099061403793367"><ele>686.0</ele><time>2026-05-01T10:11:47.999Z</time></trkpt><trkpt lat="43.64697955630649" lon="12.099166471022265"><ele>686.0</ele><time>2026-05-01T10:11:48.999Z</time></trkpt><trkpt lat="43.64690919520442" lon="12.099277022380331"><ele>686.0</ele><time>2026-05-01T10:11:50Z</time></trkpt><trkpt lat="43.64687002866211" lon="12.09939930031673"><ele>686.0</ele><time>2026-05-01T10:11:51Z</time></trkpt><trkpt lat="43.64687248040038" lon="12.09952965231805"><ele>685.0</ele><time>2026-05-01T10:11:52Z</time></trkpt><trkpt lat="43.64691505544201" lon="12.099646146346418"><ele>684.0</ele><time>2026-05-01T10:11:53Z</time></trkpt><trkpt lat="43.64697991552805" lon="12.099745283503058"><ele>683.0</ele><time>2026-05-01T10:11:54Z</time></trkpt><trkpt lat="43.64706113903751" lon="12.099827255872176"><ele>682.0</ele><time>2026-05-01T10:11:55Z</time></trkpt><trkpt lat="43.64712821015004" lon="12.099943031115528"><ele>681.0</ele><time>2026-05-01T10:11:56Z</time></trkpt><trkpt lat="43.647161994210535" lon="12.100093986816349"><ele>679.25</ele><time>2026-05-01T10:11:57Z</time></trkpt><trkpt lat="43.64715584619991" lon="12.100259963083236"><ele>677.5</ele><time>2026-05-01T10:11:58Z</time></trkpt><trkpt lat="43.6471154969853" lon="12.100417596271607"><ele>675.75</ele><time>2026-05-01T10:11:59Z</time></trkpt><trkpt lat="43.64706663857993" lon="12.100571203279062"><ele>674.0</ele><time>2026-05-01T10:12:00Z</time></trkpt><trkpt lat="43.64701935424791" lon="12.10073821571864"><ele>673.5</ele><time>2026-05-01T10:12:01Z</time></trkpt><trkpt lat="43.646984973909895" lon="12.10091907971858"><ele>673.0</ele><time>2026-05-01T10:12:01.999Z</time></trkpt><trkpt lat="43.64694420154362" lon="12.101104493517724"><ele>672.5</ele><time>2026-05-01T10:12:02.999Z</time></trkpt><trkpt lat="43.64687162512486" lon="12.10128395453351"><ele>672.0</ele><time>2026-05-01T10:12:03.999Z</time></trkpt><trkpt lat="43.646773941089556" lon="12.101452033621003"><ele>668.6666666666666</ele><time>2026-05-01T10:12:04.999Z</time></trkpt><trkpt lat="43.646650824350644" lon="12.101632872263579"><ele>665.3333333333333</ele><time>2026-05-01T10:12:05.999Z</time></trkpt><trkpt lat="43.64649392869473" lon="12.10180362751169"><ele>662.0</ele><time>2026-05-01T10:12:06.999Z</time></trkpt><trkpt lat="43.646316396397" lon="12.101966454646403"><ele>662.0</ele><time>2026-05-01T10:12:07.999Z</time></trkpt><trkpt lat="43.6461345807109" lon="12.102129538497897"><ele>662.0</ele><time>2026-05-01T10:12:08.999Z</time></trkpt><trkpt lat="43.645966090643206" lon="12.102282538965083"><ele>662.0</ele><time>2026-05-01T10:12:09.999Z</time></trkpt><trkpt lat="43.64581171979838" lon="12.10243228031628"><ele>659.3333333333333</ele><time>2026-05-01T10:12:10.999Z</time></trkpt><trkpt lat="43.645675014669195" lon="12.10258768864564"><ele>656.6666666666666</ele><time>2026-05-01T10:12:11.999Z</time></trkpt><trkpt lat="43.645557895506656" lon="12.102755823499882"><ele>654.0</ele><time>2026-05-01T10:12:12.999Z</time></trkpt><trkpt lat="43.64546822497095" lon="12.102938357992997"><ele>654.0</ele><time>2026-05-01T10:12:13.999Z</time></trkpt><trkpt lat="43.64540165812489" lon="12.103132769554588"><ele>654.0</ele><time>2026-05-01T10:12:14.999Z</time></trkpt><trkpt lat="43.64535844733794" lon="12.103356048570385"><ele>654.0</ele><time>2026-05-01T10:12:15.999Z</time></trkpt><trkpt lat="43.64535565165816" lon="12.103606224707152"><ele>654.3333333333334</ele><time>2026-05-01T10:12:16.999Z</time></trkpt><trkpt lat="43.64536873971609" lon="12.103860801489047"><ele>654.6666666666667</ele><time>2026-05-01T10:12:17.999Z</time></trkpt><trkpt lat="43.64538362369653" lon="12.104115236416954"><ele>655.0</ele><time>2026-05-01T10:12:18.999Z</time></trkpt><trkpt lat="43.645384306345896" lon="12.10435556293793"><ele>655.0</ele><time>2026-05-01T10:12:19.999Z</time></trkpt><trkpt lat="43.64539113135926" lon="12.10457943009229"><ele>655.0</ele><time>2026-05-01T10:12:20.999Z</time></trkpt><trkpt lat="43.64541476048549" lon="12.104788746410199"><ele>655.0</ele><time>2026-05-01T10:12:21.999Z</time></trkpt><trkpt lat="43.645459638887694" lon="12.104981776480273"><ele>654.25</ele><time>2026-05-01T10:12:22.999Z</time></trkpt><trkpt lat="43.64551422968399" lon="12.105159962512623"><ele>653.5</ele><time>2026-05-01T10:12:23.999Z</time></trkpt><trkpt lat="43.64554301382498" lon="12.105336409684533"><ele>652.75</ele><time>2026-05-01T10:12:24.999Z</time></trkpt><trkpt lat="43.64553839971425" lon="12.105506246294157"><ele>652.0</ele><time>2026-05-01T10:12:25.999Z</time></trkpt><trkpt lat="43.64547975149116" lon="12.10566328080557"><ele>652.0</ele><time>2026-05-01T10:12:26.999Z</time></trkpt><trkpt lat="43.645365932138446" lon="12.105790783716422"><ele>652.0</ele><time>2026-05-01T10:12:27.999Z</time></trkpt><trkpt lat="43.64523854067925" lon="12.105916889533665"><ele>652.0</ele><time>2026-05-01T10:12:28.999Z</time></trkpt><trkpt lat="43.64512897333138" lon="12.106090850244442"><ele>648.0</ele><time>2026-05-01T10:12:29.999Z</time></trkpt><trkpt lat="43.64504593123209" lon="12.106296078948672"><ele>644.0</ele><time>2026-05-01T10:12:30.999Z</time></trkpt><trkpt lat="43.644952598581646" lon="12.106504157923595"><ele>640.0</ele><time>2026-05-01T10:12:31.999Z</time></trkpt><trkpt lat="43.64482535123172" lon="12.106683928472245"><ele>640.0</ele><time>2026-05-01T10:12:32.999Z</time></trkpt><trkpt lat="43.64467802290042" lon="12.106847017816156"><ele>640.0</ele><time>2026-05-01T10:12:33.999Z</time></trkpt><trkpt lat="43.64451598490621" lon="12.106993583572038"><ele>640.0</ele><time>2026-05-01T10:12:34.999Z</time></trkpt><trkpt lat="43.64435107874383" lon="12.107107199322254"><ele>634.0</ele><time>2026-05-01T10:12:35.999Z</time></trkpt><trkpt lat="43.6442044701864" lon="12.107197947974553"><ele>628.0</ele><time>2026-05-01T10:12:36.999Z</time></trkpt><trkpt lat="43.644060814218925" lon="12.107253226367801"><ele>622.0</ele><time>2026-05-01T10:12:37.999Z</time></trkpt><trkpt lat="43.643894763705156" lon="12.10723146635431"><ele>622.0</ele><time>2026-05-01T10:12:38.999Z</time></trkpt><trkpt lat="43.64372971435231" lon="12.107170189831173"><ele>622.0</ele><time>2026-05-01T10:12:39.999Z</time></trkpt><trkpt lat="43.64357630960637" lon="12.107121269618057"><ele>622.0</ele><time>2026-05-01T10:12:40.999Z</time></trkpt><trkpt lat="43.64342268917912" lon="12.107140700931309"><ele>620.0</ele><time>2026-05-01T10:12:41.999Z</time></trkpt><trkpt lat="43.64326467753637" lon="12.107219869348189"><ele>618.0</ele><time>2026-05-01T10:12:42.999Z</time></trkpt><trkpt lat="43.643099494371725" lon="12.10730326898402"><ele>616.0</ele><time>2026-05-01T10:12:43.999Z</time></trkpt><trkpt lat="43.642930482441024" lon="12.107359214115268"><ele>616.3333333333334</ele><time>2026-05-01T10:12:44.999Z</time></trkpt><trkpt lat="43.642756896165324" lon="12.107420149103056"><ele>616.6666666666666</ele><time>2026-05-01T10:12:45.999Z</time></trkpt><trkpt lat="43.642576865091385" lon="12.107485483819797"><ele>617.0</ele><time>2026-05-01T10:12:46.999Z</time></trkpt><trkpt lat="43.642402733231" lon="12.107543675650053"><ele>617.0</ele><time>2026-05-01T10:12:47.999Z</time></trkpt><trkpt lat="43.642238412767135" lon="12.10760842051942"><ele>617.0</ele><time>2026-05-01T10:12:48.999Z</time></trkpt><trkpt lat="43.642078878865185" lon="12.107700041235848"><ele>617.0</ele><time>2026-05-01T10:12:49.999Z</time></trkpt><trkpt lat="43.64192320157683" lon="12.107838311257092"><ele>616.6666666666666</ele><time>2026-05-01T10:12:50.999Z</time></trkpt><trkpt lat="43.641761540611405" lon="12.107989009708348"><ele>616.3333333333334</ele><time>2026-05-01T10:12:51.999Z</time></trkpt><trkpt lat="43.64159514085489" lon="12.10814727076364"><ele>616.0</ele><time>2026-05-01T10:12:52.999Z</time></trkpt><trkpt lat="43.641421071462304" lon="12.108307227526515"><ele>616.0</ele><time>2026-05-01T10:12:53.999Z</time></trkpt><trkpt lat="43.641243731386304" lon="12.1084739671869"><ele>616.0</ele><time>2026-05-01T10:12:54.999Z</time></trkpt><trkpt lat="43.64107241728768" lon="12.108641784738305"><ele>616.0</ele><time>2026-05-01T10:12:55.999Z</time></trkpt><trkpt lat="43.640909815715254" lon="12.108802392467688"><ele>613.3333333333334</ele><time>2026-05-01T10:12:56.999Z</time></trkpt><trkpt lat="43.6407495699051" lon="12.108949895916698"><ele>610.6666666666666</ele><time>2026-05-01T10:12:57.999Z</time></trkpt><trkpt lat="43.64058838447508" lon="12.10907334729319"><ele>608.0</ele><time>2026-05-01T10:12:58.999Z</time></trkpt><trkpt lat="43.640427011243396" lon="12.109159262867612"><ele>606.5</ele><time>2026-05-01T10:12:59.999Z</time></trkpt><trkpt lat="43.64027594769328" lon="12.109211064001636"><ele>605.0</ele><time>2026-05-01T10:13:00.999Z</time></trkpt><trkpt lat="43.6401478743399" lon="12.109266476394822"><ele>603.5</ele><time>2026-05-01T10:13:01.999Z</time></trkpt><trkpt lat="43.64003855035624" lon="12.109338437330333"><ele>602.0</ele><time>2026-05-01T10:13:02.999Z</time></trkpt><trkpt lat="43.63994059149086" lon="12.109448130618214"><ele>602.0</ele><time>2026-05-01T10:13:03.999Z</time></trkpt><trkpt lat="43.63986781065393" lon="12.109583650563291"><ele>602.0</ele><time>2026-05-01T10:13:04.999Z</time></trkpt><trkpt lat="43.63984272216174" lon="12.109762152134744"><ele>602.0</ele><time>2026-05-01T10:13:05.999Z</time></trkpt><trkpt lat="43.639868026143986" lon="12.10995974394755"><ele>602.0</ele><time>2026-05-01T10:13:06.999Z</time></trkpt><trkpt lat="43.639928419224645" lon="12.110158975111828"><ele>601.6666666666666</ele><time>2026-05-01T10:13:07.999Z</time></trkpt><trkpt lat="43.639982332168614" lon="12.110373621701177"><ele>601.3333333333334</ele><time>2026-05-01T10:13:08.999Z</time></trkpt><trkpt lat="43.640028614381194" lon="12.110588277956136"><ele>601.0</ele><time>2026-05-01T10:13:09.999Z</time></trkpt><trkpt lat="43.640071308381906" lon="12.110814912254199"><ele>599.0</ele><time>2026-05-01T10:13:10.999Z</time></trkpt><trkpt lat="43.6401072088565" lon="12.111054922803213"><ele>597.0</ele><time>2026-05-01T10:13:11.999Z</time></trkpt><trkpt lat="43.640145816757695" lon="12.11129874632004"><ele>595.0</ele><time>2026-05-01T10:13:12.999Z</time></trkpt><trkpt lat="43.64018533499359" lon="12.111534781511756"><ele>593.0</ele><time>2026-05-01T10:13:13.999Z</time></trkpt><trkpt lat="43.64022827186843" lon="12.111753377601667"><ele>591.0</ele><time>2026-05-01T10:13:14.999Z</time></trkpt><trkpt lat="43.64026988365814" lon="12.11195850871781"><ele>589.0</ele><time>2026-05-01T10:13:15.999Z</time></trkpt><trkpt lat="43.64030396518263" lon="12.11214526421508"><ele>588.75</ele><time>2026-05-01T10:13:16.999Z</time></trkpt><trkpt lat="43.640315456525045" lon="12.112325415691851"><ele>588.5</ele><time>2026-05-01T10:13:17.999Z</time></trkpt><trkpt lat="43.640279062574876" lon="12.112498112788064"><ele>588.25</ele><time>2026-05-01T10:13:18.998Z</time></trkpt><trkpt lat="43.64019427359819" lon="12.1126404332731"><ele>588.0</ele><time>2026-05-01T10:13:19.998Z</time></trkpt><trkpt lat="43.640090202793665" lon="12.112689550853052"><ele>588.0</ele><time>2026-05-01T10:13:20.998Z</time></trkpt><trkpt lat="43.639972712442194" lon="12.112649723812595"><ele>588.0</ele><time>2026-05-01T10:13:21.998Z</time></trkpt><trkpt lat="43.63984021310548" lon="12.112607006954672"><ele>588.0</ele><time>2026-05-01T10:13:22.998Z</time></trkpt><trkpt lat="43.63968368076569" lon="12.112632106193667"><ele>588.0</ele><time>2026-05-01T10:13:23.998Z</time></trkpt><trkpt lat="43.639517299552" lon="12.112703525886444"><ele>584.6666666666666</ele><time>2026-05-01T10:13:24.998Z</time></trkpt><trkpt lat="43.63935882145763" lon="12.112791605497586"><ele>581.3333333333333</ele><time>2026-05-01T10:13:25.998Z</time></trkpt><trkpt lat="43.63918657614595" lon="12.112878917761087"><ele>578.0</ele><time>2026-05-01T10:13:26.998Z</time></trkpt><trkpt lat="43.639006419197294" lon="12.112963005982458"><ele>578.0</ele><time>2026-05-01T10:13:27.998Z</time></trkpt><trkpt lat="43.63882618173996" lon="12.113022038355073"><ele>578.0</ele><time>2026-05-01T10:13:28.998Z</time></trkpt><trkpt lat="43.63865359031556" lon="12.113064540287699"><ele>578.0</ele><time>2026-05-01T10:13:29.998Z</time></trkpt><trkpt lat="43.63848431752518" lon="12.11308551886673"><ele>576.0</ele><time>2026-05-01T10:13:30.998Z</time></trkpt><trkpt lat="43.63831922646224" lon="12.11306305723305"><ele>574.0</ele><time>2026-05-01T10:13:31.998Z</time></trkpt><trkpt lat="43.63816258663901" lon="12.112993874722779"><ele>572.0</ele><time>2026-05-01T10:13:32.998Z</time></trkpt><trkpt lat="43.6380145129338" lon="12.112882633660181"><ele>572.0</ele><time>2026-05-01T10:13:33.998Z</time></trkpt><trkpt lat="43.63789010114587" lon="12.112775422776526"><ele>572.0</ele><time>2026-05-01T10:13:34.998Z</time></trkpt><trkpt lat="43.63776224184894" lon="12.11270011613133"><ele>572.0</ele><time>2026-05-01T10:13:35.998Z</time></trkpt><trkpt lat="43.63761151155009" lon="12.11268954350034"><ele>572.0</ele><time>2026-05-01T10:13:36.998Z</time></trkpt><trkpt lat="43.63745080220836" lon="12.112740823773851"><ele>571.3333333333333</ele><time>2026-05-01T10:13:37.998Z</time></trkpt><trkpt lat="43.63729033624034" lon="12.112830227832406"><ele>570.6666666666666</ele><time>2026-05-01T10:13:38.998Z</time></trkpt><trkpt lat="43.6371221757436" lon="12.11291496045777"><ele>570.0</ele><time>2026-05-01T10:13:39.998Z</time></trkpt><trkpt lat="43.63695035051553" lon="12.112990002987033"><ele>567.0</ele><time>2026-05-01T10:13:40.998Z</time></trkpt><trkpt lat="43.6367733873262" lon="12.11304501887505"><ele>564.0</ele><time>2026-05-01T10:13:41.998Z</time></trkpt><trkpt lat="43.63658918264106" lon="12.113073774490195"><ele>561.0</ele><time>2026-05-01T10:13:42.998Z</time></trkpt><trkpt lat="43.63640328097998" lon="12.113081538650418"><ele>561.0</ele><time>2026-05-01T10:13:43.999Z</time></trkpt><trkpt lat="43.6362353852788" lon="12.113086760349837"><ele>561.0</ele><time>2026-05-01T10:13:44.999Z</time></trkpt><trkpt lat="43.63608977939856" lon="12.113088891878677"><ele>561.0</ele><time>2026-05-01T10:13:45.999Z</time></trkpt><trkpt lat="43.63596023316011" lon="12.11308680601914"><ele>561.0</ele><time>2026-05-01T10:13:46.999Z</time></trkpt><trkpt lat="43.63584764476668" lon="12.113106308371712"><ele>562.0</ele><time>2026-05-01T10:13:47.999Z</time></trkpt><trkpt lat="43.63575410341848" lon="12.113172282903912"><ele>563.0</ele><time>2026-05-01T10:13:48.999Z</time></trkpt><trkpt lat="43.63570028102216" lon="12.113287567455162"><ele>564.0</ele><time>2026-05-01T10:13:49.999Z</time></trkpt><trkpt lat="43.63571098970702" lon="12.113427965717907"><ele>565.0</ele><time>2026-05-01T10:13:50.999Z</time></trkpt><trkpt lat="43.63578361942112" lon="12.11355387863087"><ele>566.0</ele><time>2026-05-01T10:13:51.999Z</time></trkpt><trkpt lat="43.63588125581344" lon="12.11365490967409"><ele>566.0</ele><time>2026-05-01T10:13:52.999Z</time></trkpt><trkpt lat="43.635954217206105" lon="12.113766949851245"><ele>566.0</ele><time>2026-05-01T10:13:53.999Z</time></trkpt><trkpt lat="43.635974621521115" lon="12.11389548079571"><ele>566.0</ele><time>2026-05-01T10:13:54.999Z</time></trkpt><trkpt lat="43.635942311243326" lon="12.114035271980685"><ele>566.0</ele><time>2026-05-01T10:13:55.999Z</time></trkpt><trkpt lat="43.63586542868885" lon="12.114149347540883"><ele>566.0</ele><time>2026-05-01T10:13:56.999Z</time></trkpt><trkpt lat="43.63576242959413" lon="12.114190850495406"><ele>566.0</ele><time>2026-05-01T10:13:57.999Z</time></trkpt><trkpt lat="43.63565352971494" lon="12.114150222584877"><ele>566.0</ele><time>2026-05-01T10:13:58.999Z</time></trkpt><trkpt lat="43.63554596009446" lon="12.114065594835393"><ele>566.0</ele><time>2026-05-01T10:13:59.999Z</time></trkpt><trkpt lat="43.63542299630424" lon="12.11397243736741"><ele>566.0</ele><time>2026-05-01T10:14:00.999Z</time></trkpt><trkpt lat="43.63527563278432" lon="12.113894296502075"><ele>562.0</ele><time>2026-05-01T10:14:01.999Z</time></trkpt><trkpt lat="43.63511716607895" lon="12.113840072331113"><ele>558.0</ele><time>2026-05-01T10:14:02.999Z</time></trkpt><trkpt lat="43.63495023738663" lon="12.113816289436635"><ele>554.0</ele><time>2026-05-01T10:14:03.999Z</time></trkpt><trkpt lat="43.634772565277125" lon="12.113811117830364"><ele>554.0</ele><time>2026-05-01T10:14:04.999Z</time></trkpt><trkpt lat="43.634597055829396" lon="12.113820573640679"><ele>554.0</ele><time>2026-05-01T10:14:05.999Z</time></trkpt><trkpt lat="43.63443908047798" lon="12.113824615185719"><ele>554.0</ele><time>2026-05-01T10:14:06.999Z</time></trkpt><trkpt lat="43.63429457322193" lon="12.113847433254634"><ele>553.6666666666666</ele><time>2026-05-01T10:14:07.999Z</time></trkpt><trkpt lat="43.63416117648076" lon="12.113943048452581"><ele>553.3333333333334</ele><time>2026-05-01T10:14:08.999Z</time></trkpt><trkpt lat="43.6340270284038" lon="12.114090740446237"><ele>553.0</ele><time>2026-05-01T10:14:09.999Z</time></trkpt><trkpt lat="43.633894116718324" lon="12.114255482011195"><ele>553.0</ele><time>2026-05-01T10:14:10.999Z</time></trkpt><trkpt lat="43.6337532857936" lon="12.114413792715306"><ele>553.0</ele><time>2026-05-01T10:14:11.999Z</time></trkpt><trkpt lat="43.633620738386064" lon="12.11458510715613"><ele>553.0</ele><time>2026-05-01T10:14:12.999Z</time></trkpt><trkpt lat="43.63349568402025" lon="12.114780202713058"><ele>550.3333333333334</ele><time>2026-05-01T10:14:13.999Z</time></trkpt><trkpt lat="43.63337663772279" lon="12.114994028946805"><ele>547.6666666666666</ele><time>2026-05-01T10:14:14.999Z</time></trkpt><trkpt lat="43.6332723335428" lon="12.115224172757012"><ele>545.0</ele><time>2026-05-01T10:14:15.999Z</time></trkpt><trkpt lat="43.63318009292926" lon="12.11545403092698"><ele>545.0</ele><time>2026-05-01T10:14:16.999Z</time></trkpt><trkpt lat="43.63309110374985" lon="12.115668276013897"><ele>545.0</ele><time>2026-05-01T10:14:17.999Z</time></trkpt><trkpt lat="43.63300872210582" lon="12.11586910325678"><ele>545.0</ele><time>2026-05-01T10:14:18.999Z</time></trkpt><trkpt lat="43.63294492250943" lon="12.116075363195018"><ele>546.0</ele><time>2026-05-01T10:14:19.999Z</time></trkpt><trkpt lat="43.63292359937121" lon="12.116292068790488"><ele>547.0</ele><time>2026-05-01T10:14:20.999Z</time></trkpt><trkpt lat="43.63292723998526" lon="12.116504582314652"><ele>548.0</ele><time>2026-05-01T10:14:21.999Z</time></trkpt><trkpt lat="43.632988473099445" lon="12.116712799965605"><ele>546.0</ele><time>2026-05-01T10:14:22.999Z</time></trkpt><trkpt lat="43.633103806746554" lon="12.116887227268963"><ele>544.0</ele><time>2026-05-01T10:14:23.999Z</time></trkpt><trkpt lat="43.6332466930866" lon="12.1170350087411"><ele>542.0</ele><time>2026-05-01T10:14:24.999Z</time></trkpt><trkpt lat="43.63339215031954" lon="12.117178027044853"><ele>542.0</ele><time>2026-05-01T10:14:25.999Z</time></trkpt><trkpt lat="43.633531569980526" lon="12.11730900436437"><ele>542.0</ele><time>2026-05-01T10:14:26.999Z</time></trkpt><trkpt lat="43.63365207457014" lon="12.1174291487675"><ele>542.0</ele><time>2026-05-01T10:14:27.999Z</time></trkpt><trkpt lat="43.63374451760069" lon="12.117540911394787"><ele>542.0</ele><time>2026-05-01T10:14:28.999Z</time></trkpt><trkpt lat="43.633792632656615" lon="12.117663905394506"><ele>543.4</ele><time>2026-05-01T10:14:29.999Z</time></trkpt><trkpt lat="43.633786474377935" lon="12.117777620057236"><ele>544.8000000000001</ele><time>2026-05-01T10:14:30.999Z</time></trkpt><trkpt lat="43.633724101065496" lon="12.11785520529618"><ele>546.2</ele><time>2026-05-01T10:14:31.999Z</time></trkpt><trkpt lat="43.63362179479913" lon="12.117869919090651"><ele>547.6</ele><time>2026-05-01T10:14:32.999Z</time></trkpt><trkpt lat="43.63350195775263" lon="12.117816616884937"><ele>549.0</ele><time>2026-05-01T10:14:33.999Z</time></trkpt><trkpt lat="43.63336832278744" lon="12.117739283329728"><ele>542.6666666666666</ele><time>2026-05-01T10:14:34.999Z</time></trkpt><trkpt lat="43.63322258195923" lon="12.1176593304992"><ele>536.3333333333333</ele><time>2026-05-01T10:14:35.999Z</time></trkpt><trkpt lat="43.633069217012256" lon="12.11758432215199"><ele>530.0</ele><time>2026-05-01T10:14:36.999Z</time></trkpt><trkpt lat="43.63290286355365" lon="12.117501751559375"><ele>530.0</ele><time>2026-05-01T10:14:37.999Z</time></trkpt><trkpt lat="43.63272681923643" lon="12.117413946878658"><ele>530.0</ele><time>2026-05-01T10:14:38.999Z</time></trkpt><trkpt lat="43.63254818661459" lon="12.117326741170233"><ele>530.0</ele><time>2026-05-01T10:14:39.999Z</time></trkpt><trkpt lat="43.63236161319379" lon="12.117247464159608"><ele>530.0</ele><time>2026-05-01T10:14:40.999Z</time></trkpt><trkpt lat="43.632169006735545" lon="12.117178644065119"><ele>530.0</ele><time>2026-05-01T10:14:41.999Z</time></trkpt><trkpt lat="43.63196735508081" lon="12.117123829557364"><ele>530.0</ele><time>2026-05-01T10:14:42.999Z</time></trkpt><trkpt lat="43.63177297949489" lon="12.117034772572993"><ele>525.6666666666666</ele><time>2026-05-01T10:14:43.999Z</time></trkpt><trkpt lat="43.631597656997485" lon="12.116911911000031"><ele>521.3333333333334</ele><time>2026-05-01T10:14:44.999Z</time></trkpt><trkpt lat="43.631443197497006" lon="12.116786963822754"><ele>517.0</ele><time>2026-05-01T10:14:45.999Z</time></trkpt><trkpt lat="43.63130141396304" lon="12.116684159030235"><ele>517.0</ele><time>2026-05-01T10:14:46.999Z</time></trkpt><trkpt lat="43.6311715610642" lon="12.116594628526471"><ele>517.0</ele><time>2026-05-01T10:14:47.999Z</time></trkpt><trkpt lat="43.63106226080407" lon="12.11650996445633"><ele>517.0</ele><time>2026-05-01T10:14:48.999Z</time></trkpt><trkpt lat="43.63096844410237" lon="12.116428650882044"><ele>517.0</ele><time>2026-05-01T10:14:49.999Z</time></trkpt><trkpt lat="43.63088687320915" lon="12.116379963891635"><ele>514.4</ele><time>2026-05-01T10:14:50.999Z</time></trkpt><trkpt lat="43.63080708004243" lon="12.116395807752474"><ele>511.80000000000007</ele><time>2026-05-01T10:14:51.999Z</time></trkpt><trkpt lat="43.63075181235065" lon="12.116489328923848"><ele>509.2</ele><time>2026-05-01T10:14:52.999Z</time></trkpt><trkpt lat="43.63075533651784" lon="12.11661955158939"><ele>506.6</ele><time>2026-05-01T10:14:53.999Z</time></trkpt><trkpt lat="43.63082650150028" lon="12.116734366750958"><ele>504.0</ele><time>2026-05-01T10:14:54.999Z</time></trkpt><trkpt lat="43.63093098292871" lon="12.11681903393656"><ele>504.0</ele><time>2026-05-01T10:14:55.999Z</time></trkpt><trkpt lat="43.63102722695914" lon="12.116921563317405"><ele>504.0</ele><time>2026-05-01T10:14:56.999Z</time></trkpt><trkpt lat="43.63106738947434" lon="12.117067533004368"><ele>504.0</ele><time>2026-05-01T10:14:57.999Z</time></trkpt><trkpt lat="43.631041616056606" lon="12.117225184913504"><ele>504.0</ele><time>2026-05-01T10:14:58.999Z</time></trkpt><trkpt lat="43.63096144503161" lon="12.117358974259627"><ele>504.0</ele><time>2026-05-01T10:14:59.999Z</time></trkpt><trkpt lat="43.63084865603992" lon="12.117440256511685"><ele>504.0</ele><time>2026-05-01T10:15:00.999Z</time></trkpt><trkpt lat="43.630721539959" lon="12.117436655799969"><ele>504.0</ele><time>2026-05-01T10:15:01.999Z</time></trkpt><trkpt lat="43.63059110504199" lon="12.117363021843172"><ele>504.0</ele><time>2026-05-01T10:15:02.999Z</time></trkpt><trkpt lat="43.6304576261813" lon="12.11727752696938"><ele>504.0</ele><time>2026-05-01T10:15:03.999Z</time></trkpt><trkpt lat="43.630311356508905" lon="12.117188816122209"><ele>504.0</ele><time>2026-05-01T10:15:04.999Z</time></trkpt><trkpt lat="43.63016032828118" lon="12.1171063981562"><ele>504.0</ele><time>2026-05-01T10:15:05.999Z</time></trkpt><trkpt lat="43.630001940875914" lon="12.117036239776928"><ele>502.33333333333337</ele><time>2026-05-01T10:15:06.999Z</time></trkpt><trkpt lat="43.629833077932126" lon="12.116985762857738"><ele>500.6666666666667</ele><time>2026-05-01T10:15:07.999Z</time></trkpt><trkpt lat="43.62965862804619" lon="12.116958001654174"><ele>499.0</ele><time>2026-05-01T10:15:08.999Z</time></trkpt><trkpt lat="43.62948032200667" lon="12.116977694725156"><ele>496.6666666666667</ele><time>2026-05-01T10:15:09.999Z</time></trkpt><trkpt lat="43.629304512792615" lon="12.117045941807204"><ele>494.33333333333337</ele><time>2026-05-01T10:15:10.999Z</time></trkpt><trkpt lat="43.62914057815662" lon="12.117157850731749"><ele>492.0</ele><time>2026-05-01T10:15:11.999Z</time></trkpt><trkpt lat="43.62898584678519" lon="12.117302447552186"><ele>494.66666666666663</ele><time>2026-05-01T10:15:12.999Z</time></trkpt><trkpt lat="43.62884275137653" lon="12.117442412619727"><ele>497.3333333333333</ele><time>2026-05-01T10:15:13.999Z</time></trkpt><trkpt lat="43.62870511961976" lon="12.117528421472715"><ele>500.0</ele><time>2026-05-01T10:15:14.999Z</time></trkpt><trkpt lat="43.62855201470714" lon="12.117529782216945"><ele>500.0</ele><time>2026-05-01T10:15:15.999Z</time></trkpt><trkpt lat="43.628398577767086" lon="12.117474917602914"><ele>500.0</ele><time>2026-05-01T10:15:16.999Z</time></trkpt><trkpt lat="43.62824677635246" lon="12.117464725607872"><ele>500.0</ele><time>2026-05-01T10:15:17.999Z</time></trkpt><trkpt lat="43.628095796164956" lon="12.117509870927561"><ele>500.0</ele><time>2026-05-01T10:15:18.999Z</time></trkpt><trkpt lat="43.62795312352262" lon="12.11760753086577"><ele>500.0</ele><time>2026-05-01T10:15:19.999Z</time></trkpt><trkpt lat="43.62782238825103" lon="12.117730118399859"><ele>500.0</ele><time>2026-05-01T10:15:20.999Z</time></trkpt><trkpt lat="43.62770713820695" lon="12.117846223544664"><ele>501.5</ele><time>2026-05-01T10:15:21.999Z</time></trkpt><trkpt lat="43.62759818596401" lon="12.117958350950492"><ele>503.0</ele><time>2026-05-01T10:15:22.999Z</time></trkpt><trkpt lat="43.62748510339265" lon="12.118067292934537"><ele>504.5</ele><time>2026-05-01T10:15:23.999Z</time></trkpt><trkpt lat="43.62737582478378" lon="12.118176335321472"><ele>506.0</ele><time>2026-05-01T10:15:24.999Z</time></trkpt><trkpt lat="43.62726801005667" lon="12.118289974681039"><ele>506.0</ele><time>2026-05-01T10:15:25.999Z</time></trkpt><trkpt lat="43.62715719756906" lon="12.11840014205722"><ele>506.0</ele><time>2026-05-01T10:15:26.999Z</time></trkpt><trkpt lat="43.62704402254347" lon="12.118510710205182"><ele>506.0</ele><time>2026-05-01T10:15:27.999Z</time></trkpt><trkpt lat="43.62693682494302" lon="12.118625852193542"><ele>506.0</ele><time>2026-05-01T10:15:28.999Z</time></trkpt><trkpt lat="43.62682517344637" lon="12.11870523310105"><ele>503.5</ele><time>2026-05-01T10:15:29.999Z</time></trkpt><trkpt lat="43.62670399064953" lon="12.118748702852068"><ele>501.0</ele><time>2026-05-01T10:15:30.999Z</time></trkpt><trkpt lat="43.62657377966692" lon="12.118743499785927"><ele>498.5</ele><time>2026-05-01T10:15:31.998Z</time></trkpt><trkpt lat="43.62644840392368" lon="12.118721370933796"><ele>496.0</ele><time>2026-05-01T10:15:32.998Z</time></trkpt><trkpt lat="43.62632944431976" lon="12.118708915414345"><ele>496.0</ele><time>2026-05-01T10:15:33.998Z</time></trkpt><trkpt lat="43.62621548972526" lon="12.118701186797702"><ele>496.0</ele><time>2026-05-01T10:15:34.998Z</time></trkpt><trkpt lat="43.62609274964016" lon="12.118711003484938"><ele>496.0</ele><time>2026-05-01T10:15:35.998Z</time></trkpt><trkpt lat="43.62596691888808" lon="12.118735397082604"><ele>496.0</ele><time>2026-05-01T10:15:36.998Z</time></trkpt><trkpt lat="43.62583688626821" lon="12.118769399649285"><ele>495.25</ele><time>2026-05-01T10:15:37.998Z</time></trkpt><trkpt lat="43.625701002600984" lon="12.118806430767933"><ele>494.5</ele><time>2026-05-01T10:15:38.998Z</time></trkpt><trkpt lat="43.625560541093236" lon="12.118839602234301"><ele>493.75</ele><time>2026-05-01T10:15:39.998Z</time></trkpt><trkpt lat="43.62541565533737" lon="12.118872103907032"><ele>493.0</ele><time>2026-05-01T10:15:40.998Z</time></trkpt><trkpt lat="43.6252672074665" lon="12.11890629081099"><ele>489.33333333333337</ele><time>2026-05-01T10:15:41.998Z</time></trkpt><trkpt lat="43.62511605313194" lon="12.118940181160044"><ele>485.66666666666663</ele><time>2026-05-01T10:15:42.998Z</time></trkpt><trkpt lat="43.624965061316615" lon="12.118974389331548"><ele>482.0</ele><time>2026-05-01T10:15:43.998Z</time></trkpt><trkpt lat="43.62481395766374" lon="12.119012486107067"><ele>482.0</ele><time>2026-05-01T10:15:44.998Z</time></trkpt><trkpt lat="43.624665909266696" lon="12.11904800967988"><ele>482.0</ele><time>2026-05-01T10:15:45.998Z</time></trkpt><trkpt lat="43.62452179682386" lon="12.119066323257556"><ele>482.0</ele><time>2026-05-01T10:15:46.998Z</time></trkpt><trkpt lat="43.62437489750925" lon="12.119066895804021"><ele>482.0</ele><time>2026-05-01T10:15:47.998Z</time></trkpt><trkpt lat="43.624224595705186" lon="12.119061501973956"><ele>480.0</ele><time>2026-05-01T10:15:48.998Z</time></trkpt><trkpt lat="43.624074132158384" lon="12.119061753639802"><ele>478.0</ele><time>2026-05-01T10:15:49.999Z</time></trkpt><trkpt lat="43.62392162458664" lon="12.119059408068873"><ele>476.0</ele><time>2026-05-01T10:15:50.999Z</time></trkpt><trkpt lat="43.62376400634107" lon="12.11905492477071"><ele>475.3333333333333</ele><time>2026-05-01T10:15:51.999Z</time></trkpt><trkpt lat="43.62360019516081" lon="12.119051192684005"><ele>474.66666666666663</ele><time>2026-05-01T10:15:52.999Z</time></trkpt><trkpt lat="43.62343626306458" lon="12.11904813581277"><ele>474.0</ele><time>2026-05-01T10:15:53.999Z</time></trkpt><trkpt lat="43.62326832297711" lon="12.119038308485443"><ele>474.0</ele><time>2026-05-01T10:15:54.999Z</time></trkpt><trkpt lat="43.62310030072622" lon="12.119022752005078"><ele>474.0</ele><time>2026-05-01T10:15:55.999Z</time></trkpt><trkpt lat="43.62292855738543" lon="12.119007604582915"><ele>474.0</ele><time>2026-05-01T10:15:56.999Z</time></trkpt><trkpt lat="43.622752806574574" lon="12.118993250600157"><ele>472.33333333333337</ele><time>2026-05-01T10:15:57.999Z</time></trkpt><trkpt lat="43.62257698145887" lon="12.118978722868503"><ele>470.6666666666667</ele><time>2026-05-01T10:15:58.999Z</time></trkpt><trkpt lat="43.62240083012201" lon="12.118969116980395"><ele>469.0</ele><time>2026-05-01T10:15:59.999Z</time></trkpt><trkpt lat="43.62222494791558" lon="12.118969570958955"><ele>469.0</ele><time>2026-05-01T10:16:00.999Z</time></trkpt><trkpt lat="43.622052981674265" lon="12.118984576850997"><ele>469.0</ele><time>2026-05-01T10:16:01.999Z</time></trkpt><trkpt lat="43.62188595344658" lon="12.119009673682319"><ele>469.0</ele><time>2026-05-01T10:16:02.999Z</time></trkpt><trkpt lat="43.621728770362324" lon="12.11903413754569"><ele>469.0</ele><time>2026-05-01T10:16:03.999Z</time></trkpt><trkpt lat="43.62158019960346" lon="12.119059230992153"><ele>469.0</ele><time>2026-05-01T10:16:04.999Z</time></trkpt><trkpt lat="43.62143719931259" lon="12.11908080249822"><ele>469.0</ele><time>2026-05-01T10:16:05.999Z</time></trkpt><trkpt lat="43.6212941249223" lon="12.11906987487626"><ele>469.0</ele><time>2026-05-01T10:16:06.999Z</time></trkpt><trkpt lat="43.6211609129758" lon="12.119015306548613"><ele>468.25</ele><time>2026-05-01T10:16:07.999Z</time></trkpt><trkpt lat="43.62103626558762" lon="12.118929022789631"><ele>467.5</ele><time>2026-05-01T10:16:08.999Z</time></trkpt><trkpt lat="43.6209112480749" lon="12.118829375427454"><ele>466.75</ele><time>2026-05-01T10:16:09.999Z</time></trkpt><trkpt lat="43.6207853090371" lon="12.118717763100404"><ele>466.0</ele><time>2026-05-01T10:16:10.999Z</time></trkpt><trkpt lat="43.62066518031999" lon="12.118603360768596"><ele>466.0</ele><time>2026-05-01T10:16:11.999Z</time></trkpt><trkpt lat="43.62054686826401" lon="12.11849712211"><ele>466.0</ele><time>2026-05-01T10:16:12.999Z</time></trkpt><trkpt lat="43.6204334547509" lon="12.118369570630836"><ele>466.0</ele><time>2026-05-01T10:16:13.999Z</time></trkpt><trkpt lat="43.62034071047312" lon="12.118211107964907"><ele>466.0</ele><time>2026-05-01T10:16:14.999Z</time></trkpt><trkpt lat="43.620265865347825" lon="12.118031212973797"><ele>464.75</ele><time>2026-05-01T10:16:15.999Z</time></trkpt><trkpt lat="43.620193457907384" lon="12.117846461113217"><ele>463.5</ele><time>2026-05-01T10:16:16.999Z</time></trkpt><trkpt lat="43.62011706373033" lon="12.117666010812806"><ele>462.25</ele><time>2026-05-01T10:16:17.999Z</time></trkpt><trkpt lat="43.620043598414156" lon="12.117501053091651"><ele>461.0</ele><time>2026-05-01T10:16:18.999Z</time></trkpt><trkpt lat="43.61995358207251" lon="12.11738250191516"><ele>461.0</ele><time>2026-05-01T10:16:19.999Z</time></trkpt><trkpt lat="43.61983641304474" lon="12.117311853545914"><ele>461.0</ele><time>2026-05-01T10:16:20.999Z</time></trkpt><trkpt lat="43.61970012981684" lon="12.117300514667146"><ele>461.0</ele><time>2026-05-01T10:16:21.999Z</time></trkpt><trkpt lat="43.61956426464328" lon="12.117365325497175"><ele>461.0</ele><time>2026-05-01T10:16:22.999Z</time></trkpt><trkpt lat="43.61943447989481" lon="12.117467631919265"><ele>461.0</ele><time>2026-05-01T10:16:23.999Z</time></trkpt><trkpt lat="43.61929857841038" lon="12.117565749902772"><ele>461.0</ele><time>2026-05-01T10:16:24.999Z</time></trkpt><trkpt lat="43.61915239687913" lon="12.11765273400917"><ele>461.0</ele><time>2026-05-01T10:16:25.999Z</time></trkpt><trkpt lat="43.618995607710374" lon="12.117713706002062"><ele>461.0</ele><time>2026-05-01T10:16:26.999Z</time></trkpt><trkpt lat="43.618828870273234" lon="12.1177399358762"><ele>461.0</ele><time>2026-05-01T10:16:27.999Z</time></trkpt><trkpt lat="43.618658041918565" lon="12.117748332994319"><ele>461.0</ele><time>2026-05-01T10:16:28.999Z</time></trkpt><trkpt lat="43.61848572681335" lon="12.117743534603575"><ele>460.3333333333333</ele><time>2026-05-01T10:16:29.999Z</time></trkpt><trkpt lat="43.61831057526181" lon="12.117729165241743"><ele>459.66666666666663</ele><time>2026-05-01T10:16:30.999Z</time></trkpt><trkpt lat="43.61813589305048" lon="12.117709032043178"><ele>459.0</ele><time>2026-05-01T10:16:31.999Z</time></trkpt><trkpt lat="43.61796700396749" lon="12.117691424243032"><ele>459.33333333333337</ele><time>2026-05-01T10:16:32.999Z</time></trkpt><trkpt lat="43.61779873245874" lon="12.117697493086744"><ele>459.6666666666667</ele><time>2026-05-01T10:16:33.999Z</time></trkpt><trkpt lat="43.61763300572702" lon="12.11774980470043"><ele>460.0</ele><time>2026-05-01T10:16:34.999Z</time></trkpt><trkpt lat="43.617474627451486" lon="12.117847744905397"><ele>460.0</ele><time>2026-05-01T10:16:35.999Z</time></trkpt><trkpt lat="43.61733238373144" lon="12.117982934399471"><ele>460.0</ele><time>2026-05-01T10:16:36.999Z</time></trkpt><trkpt lat="43.617202525233026" lon="12.118147114022422"><ele>460.0</ele><time>2026-05-01T10:16:37.999Z</time></trkpt><trkpt lat="43.6170818172433" lon="12.118327889190692"><ele>462.0</ele><time>2026-05-01T10:16:38.999Z</time></trkpt><trkpt lat="43.61697400524388" lon="12.118528116453534"><ele>464.0</ele><time>2026-05-01T10:16:39.999Z</time></trkpt><trkpt lat="43.616885179531195" lon="12.118728194629666"><ele>466.0</ele><time>2026-05-01T10:16:40.999Z</time></trkpt><trkpt lat="43.61680627833171" lon="12.11890686910583"><ele>466.0</ele><time>2026-05-01T10:16:41.999Z</time></trkpt><trkpt lat="43.61673502932374" lon="12.119056380130639"><ele>466.0</ele><time>2026-05-01T10:16:42.999Z</time></trkpt><trkpt lat="43.61666197695565" lon="12.119173401278305"><ele>466.0</ele><time>2026-05-01T10:16:43.999Z</time></trkpt><trkpt lat="43.616564573258124" lon="12.119251467182597"><ele>466.0</ele><time>2026-05-01T10:16:44.999Z</time></trkpt><trkpt lat="43.61645441358762" lon="12.119277240476313"><ele>466.0</ele><time>2026-05-01T10:16:45.999Z</time></trkpt><trkpt lat="43.61634467530563" lon="12.11926234602746"><ele>466.0</ele><time>2026-05-01T10:16:46.999Z</time></trkpt><trkpt lat="43.61624317988529" lon="12.119194272360762"><ele>466.0</ele><time>2026-05-01T10:16:47.999Z</time></trkpt><trkpt lat="43.61617545603745" lon="12.119071172539995"><ele>466.0</ele><time>2026-05-01T10:16:48.999Z</time></trkpt><trkpt lat="43.61615089282761" lon="12.11892562093637"><ele>466.0</ele><time>2026-05-01T10:16:49.999Z</time></trkpt><trkpt lat="43.616188967882366" lon="12.118778607969583"><ele>466.0</ele><time>2026-05-01T10:16:50.999Z</time></trkpt><trkpt lat="43.61626499058502" lon="12.11864758427836"><ele>466.0</ele><time>2026-05-01T10:16:51.999Z</time></trkpt><trkpt lat="43.616343264204666" lon="12.118515762309823"><ele>466.0</ele><time>2026-05-01T10:16:52.999Z</time></trkpt><trkpt lat="43.61639179673339" lon="12.11835603483063"><ele>466.0</ele><time>2026-05-01T10:16:53.999Z</time></trkpt><trkpt lat="43.61641428833493" lon="12.118176489058404"><ele>464.75</ele><time>2026-05-01T10:16:54.999Z</time></trkpt><trkpt lat="43.616419190925804" lon="12.11799606134215"><ele>463.5</ele><time>2026-05-01T10:16:55.999Z</time></trkpt><trkpt lat="43.61639553935038" lon="12.117824324179765"><ele>462.25</ele><time>2026-05-01T10:16:56.999Z</time></trkpt><trkpt lat="43.61632866552915" lon="12.117695972004734"><ele>461.0</ele><time>2026-05-01T10:16:57.999Z</time></trkpt><trkpt lat="43.61622043791294" lon="12.117620473781365"><ele>463.25</ele><time>2026-05-01T10:16:58.999Z</time></trkpt><trkpt lat="43.616093301223636" lon="12.117600349517218"><ele>465.5</ele><time>2026-05-01T10:16:59.999Z</time></trkpt><trkpt lat="43.61595662392437" lon="12.117609605128612"><ele>467.75</ele><time>2026-05-01T10:17:00.999Z</time></trkpt><trkpt lat="43.615814246294676" lon="12.11761261614131"><ele>470.0</ele><time>2026-05-01T10:17:01.999Z</time></trkpt><trkpt lat="43.615667873054356" lon="12.117606605731169"><ele>470.0</ele><time>2026-05-01T10:17:02.999Z</time></trkpt><trkpt lat="43.61552778935488" lon="12.117583763227229"><ele>470.0</ele><time>2026-05-01T10:17:03.999Z</time></trkpt><trkpt lat="43.61540654252876" lon="12.117523425954968"><ele>470.0</ele><time>2026-05-01T10:17:04.999Z</time></trkpt><trkpt lat="43.61529725547342" lon="12.117407136368017"><ele>470.0</ele><time>2026-05-01T10:17:05.999Z</time></trkpt><trkpt lat="43.615198878780085" lon="12.117264391445728"><ele>471.3333333333333</ele><time>2026-05-01T10:17:06.999Z</time></trkpt><trkpt lat="43.61509646210234" lon="12.11711799457364"><ele>472.66666666666663</ele><time>2026-05-01T10:17:07.999Z</time></trkpt><trkpt lat="43.614991913569796" lon="12.116969895303011"><ele>474.0</ele><time>2026-05-01T10:17:08.999Z</time></trkpt><trkpt lat="43.61488886884819" lon="12.11681171668235"><ele>474.0</ele><time>2026-05-01T10:17:09.999Z</time></trkpt><trkpt lat="43.61478550904254" lon="12.116655162452583"><ele>474.0</ele><time>2026-05-01T10:17:10.999Z</time></trkpt><trkpt lat="43.61468023046664" lon="12.116516080640546"><ele>474.0</ele><time>2026-05-01T10:17:11.999Z</time></trkpt><trkpt lat="43.61456671823325" lon="12.116393574184693"><ele>474.0</ele><time>2026-05-01T10:17:12.999Z</time></trkpt><trkpt lat="43.61443881894023" lon="12.116313788924417"><ele>476.0</ele><time>2026-05-01T10:17:13.999Z</time></trkpt><trkpt lat="43.61432407247575" lon="12.116243192908213"><ele>478.0</ele><time>2026-05-01T10:17:14.999Z</time></trkpt><trkpt lat="43.614249488795586" lon="12.116133992705993"><ele>480.0</ele><time>2026-05-01T10:17:15.999Z</time></trkpt><trkpt lat="43.61422038174186" lon="12.11599246269365"><ele>482.0</ele><time>2026-05-01T10:17:16.999Z</time></trkpt><trkpt lat="43.61423749170201" lon="12.115840969435046"><ele>479.75</ele><time>2026-05-01T10:17:17.999Z</time></trkpt><trkpt lat="43.614281271593455" lon="12.115693619522483"><ele>477.5</ele><time>2026-05-01T10:17:18.999Z</time></trkpt><trkpt lat="43.61432062548206" lon="12.115547532596855"><ele>475.25</ele><time>2026-05-01T10:17:19.999Z</time></trkpt><trkpt lat="43.614348261211056" lon="12.115392813162996"><ele>473.0</ele><time>2026-05-01T10:17:20.999Z</time></trkpt><trkpt lat="43.61434445205519" lon="12.11522792750081"><ele>473.0</ele><time>2026-05-01T10:17:21.999Z</time></trkpt><trkpt lat="43.614297864436956" lon="12.11507685041382"><ele>473.0</ele><time>2026-05-01T10:17:22.999Z</time></trkpt><trkpt lat="43.6142119031746" lon="12.11495773516628"><ele>473.0</ele><time>2026-05-01T10:17:23.999Z</time></trkpt><trkpt lat="43.614091173020114" lon="12.11488581671304"><ele>473.0</ele><time>2026-05-01T10:17:24.999Z</time></trkpt><trkpt lat="43.61395530889653" lon="12.114846851743671"><ele>470.0</ele><time>2026-05-01T10:17:25.999Z</time></trkpt><trkpt lat="43.61381162608424" lon="12.114818666133205"><ele>467.0</ele><time>2026-05-01T10:17:26.999Z</time></trkpt><trkpt lat="43.613661223199514" lon="12.114787786050655"><ele>464.0</ele><time>2026-05-01T10:17:27.999Z</time></trkpt><trkpt lat="43.61350764309783" lon="12.114756000983075"><ele>464.0</ele><time>2026-05-01T10:17:28.999Z</time></trkpt><trkpt lat="43.61335192241105" lon="12.114725699829249"><ele>464.0</ele><time>2026-05-01T10:17:29.999Z</time></trkpt><trkpt lat="43.6132036070302" lon="12.114700696546553"><ele>464.0</ele><time>2026-05-01T10:17:30.999Z</time></trkpt><trkpt lat="43.61306748665048" lon="12.114662524906686"><ele>464.0</ele><time>2026-05-01T10:17:31.999Z</time></trkpt><trkpt lat="43.6129430990409" lon="12.11458902444047"><ele>464.0</ele><time>2026-05-01T10:17:32.999Z</time></trkpt><trkpt lat="43.61283470039866" lon="12.114469405798724"><ele>464.0</ele><time>2026-05-01T10:17:33.999Z</time></trkpt><trkpt lat="43.61275565323429" lon="12.114302692370474"><ele>464.0</ele><time>2026-05-01T10:17:34.999Z</time></trkpt><trkpt lat="43.61270441429062" lon="12.114112713280681"><ele>464.0</ele><time>2026-05-01T10:17:35.999Z</time></trkpt><trkpt lat="43.61263589582048" lon="12.113936347414176"><ele>467.0</ele><time>2026-05-01T10:17:36.999Z</time></trkpt><trkpt lat="43.61253821682843" lon="12.113778826221502"><ele>470.0</ele><time>2026-05-01T10:17:37.999Z</time></trkpt><trkpt lat="43.61243394037695" lon="12.113618865352496"><ele>473.0</ele><time>2026-05-01T10:17:38.999Z</time></trkpt><trkpt lat="43.61233473465602" lon="12.113438942279627"><ele>473.0</ele><time>2026-05-01T10:17:39.999Z</time></trkpt><trkpt lat="43.61223148498366" lon="12.1132640617761"><ele>473.0</ele><time>2026-05-01T10:17:40.999Z</time></trkpt><trkpt lat="43.612121553927686" lon="12.113098131138495"><ele>473.0</ele><time>2026-05-01T10:17:41.999Z</time></trkpt><trkpt lat="43.61199956115484" lon="12.112941604500888"><ele>474.0</ele><time>2026-05-01T10:17:42.999Z</time></trkpt><trkpt lat="43.61186238246903" lon="12.112795554822608"><ele>475.0</ele><time>2026-05-01T10:17:43.999Z</time></trkpt><trkpt lat="43.611729522584184" lon="12.112636996234782"><ele>476.0</ele><time>2026-05-01T10:17:44.999Z</time></trkpt><trkpt lat="43.611608719252274" lon="12.112453405950491"><ele>471.66666666666663</ele><time>2026-05-01T10:17:45.999Z</time></trkpt><trkpt lat="43.611493950798724" lon="12.112258337447738"><ele>467.33333333333337</ele><time>2026-05-01T10:17:46.999Z</time></trkpt><trkpt lat="43.61137894176073" lon="12.112065034485049"><ele>463.0</ele><time>2026-05-01T10:17:47.999Z</time></trkpt><trkpt lat="43.611260593274814" lon="12.111873198291017"><ele>465.0</ele><time>2026-05-01T10:17:48.999Z</time></trkpt><trkpt lat="43.61114597603453" lon="12.111682871695995"><ele>467.0</ele><time>2026-05-01T10:17:49.999Z</time></trkpt><trkpt lat="43.6110379377173" lon="12.111508899935837"><ele>469.0</ele><time>2026-05-01T10:17:50.999Z</time></trkpt><trkpt lat="43.61091974465183" lon="12.111356445837435"><ele>469.0</ele><time>2026-05-01T10:17:51.999Z</time></trkpt><trkpt lat="43.61078425638799" lon="12.111226705875977"><ele>469.0</ele><time>2026-05-01T10:17:52.998Z</time></trkpt><trkpt lat="43.6106375712296" lon="12.111114120925933"><ele>469.0</ele><time>2026-05-01T10:17:53.998Z</time></trkpt><trkpt lat="43.61049478321482" lon="12.111033404824061"><ele>469.0</ele><time>2026-05-01T10:17:54.998Z</time></trkpt><trkpt lat="43.61035437382868" lon="12.111000986504106"><ele>469.0</ele><time>2026-05-01T10:17:55.999Z</time></trkpt><trkpt lat="43.610210772793" lon="12.111038460223671"><ele>469.0</ele><time>2026-05-01T10:17:56.999Z</time></trkpt><trkpt lat="43.6100683295034" lon="12.111124156619496"><ele>469.0</ele><time>2026-05-01T10:17:57.999Z</time></trkpt><trkpt lat="43.609923070747904" lon="12.11118880910502"><ele>470.75</ele><time>2026-05-01T10:17:58.999Z</time></trkpt><trkpt lat="43.60978465062909" lon="12.1111905964141"><ele>472.5</ele><time>2026-05-01T10:17:59.999Z</time></trkpt><trkpt lat="43.60965056106269" lon="12.111144219873248"><ele>474.25</ele><time>2026-05-01T10:18:00.999Z</time></trkpt><trkpt lat="43.609536697252636" lon="12.111017161745481"><ele>476.0</ele><time>2026-05-01T10:18:01.999Z</time></trkpt><trkpt lat="43.60946765187558" lon="12.110851473905667"><ele>474.25</ele><time>2026-05-01T10:18:02.999Z</time></trkpt><trkpt lat="43.609412482805965" lon="12.110698397913747"><ele>472.5</ele><time>2026-05-01T10:18:03.999Z</time></trkpt><trkpt lat="43.60932217897749" lon="12.110586552278228"><ele>470.75</ele><time>2026-05-01T10:18:04.999Z</time></trkpt><trkpt lat="43.60919659164454" lon="12.110564223726422"><ele>469.0</ele><time>2026-05-01T10:18:05.999Z</time></trkpt><trkpt lat="43.60906732917941" lon="12.11059785487844"><ele>469.0</ele><time>2026-05-01T10:18:06.999Z</time></trkpt><trkpt lat="43.60893611046343" lon="12.110656121777424"><ele>469.0</ele><time>2026-05-01T10:18:08Z</time></trkpt><trkpt lat="43.60881602182547" lon="12.110700543491745"><ele>469.0</ele><time>2026-05-01T10:18:09Z</time></trkpt><trkpt lat="43.60873172695892" lon="12.110655331053636"><ele>469.0</ele><time>2026-05-01T10:18:10Z</time></trkpt><trkpt lat="43.608659190837955" lon="12.11054910994759"><ele>471.75</ele><time>2026-05-01T10:18:11Z</time></trkpt><trkpt lat="43.60861667119802" lon="12.110388261930552"><ele>474.5</ele><time>2026-05-01T10:18:12Z</time></trkpt><trkpt lat="43.60855536059991" lon="12.11023855665607"><ele>477.25</ele><time>2026-05-01T10:18:13Z</time></trkpt><trkpt lat="43.608483264052786" lon="12.11008538195526"><ele>480.0</ele><time>2026-05-01T10:18:14Z</time></trkpt><trkpt lat="43.608409230853546" lon="12.109929538966808"><ele>477.0</ele><time>2026-05-01T10:18:15Z</time></trkpt><trkpt lat="43.608296212549" lon="12.10982126241672"><ele>474.0</ele><time>2026-05-01T10:18:16Z</time></trkpt><trkpt lat="43.60815379835641" lon="12.109779309880992"><ele>471.0</ele><time>2026-05-01T10:18:17Z</time></trkpt><trkpt lat="43.60800425341662" lon="12.109794456536765"><ele>468.0</ele><time>2026-05-01T10:18:18Z</time></trkpt><trkpt lat="43.607854781328975" lon="12.109826176744507"><ele>469.75</ele><time>2026-05-01T10:18:19Z</time></trkpt><trkpt lat="43.60770518379558" lon="12.109839180984109"><ele>471.5</ele><time>2026-05-01T10:18:20Z</time></trkpt><trkpt lat="43.60756539413445" lon="12.10977856896665"><ele>473.25</ele><time>2026-05-01T10:18:21Z</time></trkpt><trkpt lat="43.607445505452986" lon="12.109653710588972"><ele>475.0</ele><time>2026-05-01T10:18:22Z</time></trkpt><trkpt lat="43.6073458890917" lon="12.10948792993028"><ele>475.0</ele><time>2026-05-01T10:18:23Z</time></trkpt><trkpt lat="43.607269044906744" lon="12.109297210948434"><ele>475.0</ele><time>2026-05-01T10:18:24Z</time></trkpt><trkpt lat="43.6072053379191" lon="12.109090675794102"><ele>475.0</ele><time>2026-05-01T10:18:25Z</time></trkpt><trkpt lat="43.607141499613284" lon="12.108901466687096"><ele>475.5</ele><time>2026-05-01T10:18:26Z</time></trkpt><trkpt lat="43.607061281610136" lon="12.10874155516675"><ele>476.0</ele><time>2026-05-01T10:18:27Z</time></trkpt><trkpt lat="43.606951051136875" lon="12.108599255087958"><ele>476.5</ele><time>2026-05-01T10:18:28Z</time></trkpt><trkpt lat="43.606834058416325" lon="12.108472058680283"><ele>477.0</ele><time>2026-05-01T10:18:29Z</time></trkpt><trkpt lat="43.60671780318041" lon="12.108374361689359"><ele>477.0</ele><time>2026-05-01T10:18:29.999Z</time></trkpt><trkpt lat="43.60659766995712" lon="12.108318415865652"><ele>477.0</ele><time>2026-05-01T10:18:30.999Z</time></trkpt><trkpt lat="43.60647026331849" lon="12.108306951287148"><ele>477.0</ele><time>2026-05-01T10:18:31.999Z</time></trkpt><trkpt lat="43.60634112905477" lon="12.108363276806891"><ele>477.0</ele><time>2026-05-01T10:18:32.999Z</time></trkpt><trkpt lat="43.60622348311825" lon="12.108460137685803"><ele>477.75</ele><time>2026-05-01T10:18:33.999Z</time></trkpt><trkpt lat="43.606121262796535" lon="12.108564734965631"><ele>478.5</ele><time>2026-05-01T10:18:34.999Z</time></trkpt><trkpt lat="43.606001787451326" lon="12.108590781016707"><ele>479.25</ele><time>2026-05-01T10:18:35.999Z</time></trkpt><trkpt lat="43.60586254236538" lon="12.108557483195904"><ele>480.0</ele><time>2026-05-01T10:18:36.999Z</time></trkpt><trkpt lat="43.605729396202754" lon="12.108466539827413"><ele>480.0</ele><time>2026-05-01T10:18:37.999Z</time></trkpt><trkpt lat="43.60560530496315" lon="12.108360026758064"><ele>480.0</ele><time>2026-05-01T10:18:38.999Z</time></trkpt><trkpt lat="43.60548080271684" lon="12.108286174019007"><ele>480.0</ele><time>2026-05-01T10:18:39.999Z</time></trkpt><trkpt lat="43.6053412841429" lon="12.108273946277333"><ele>480.0</ele><time>2026-05-01T10:18:40.999Z</time></trkpt><trkpt lat="43.60519697323525" lon="12.108330849872145"><ele>480.33333333333337</ele><time>2026-05-01T10:18:41.999Z</time></trkpt><trkpt lat="43.60505617285316" lon="12.10841999756578"><ele>480.6666666666667</ele><time>2026-05-01T10:18:42.999Z</time></trkpt><trkpt lat="43.60491925878123" lon="12.108526337547623"><ele>481.0</ele><time>2026-05-01T10:18:43.999Z</time></trkpt><trkpt lat="43.6047928041647" lon="12.108619219789341"><ele>481.0</ele><time>2026-05-01T10:18:44.999Z</time></trkpt><trkpt lat="43.60465654869915" lon="12.108663038718952"><ele>481.0</ele><time>2026-05-01T10:18:45.999Z</time></trkpt><trkpt lat="43.60450733455147" lon="12.10865699219711"><ele>481.0</ele><time>2026-05-01T10:18:46.999Z</time></trkpt><trkpt lat="43.60435995518813" lon="12.10860090886783"><ele>481.0</ele><time>2026-05-01T10:18:47.999Z</time></trkpt><trkpt lat="43.60420925711671" lon="12.108527250720964"><ele>480.33333333333337</ele><time>2026-05-01T10:18:48.999Z</time></trkpt><trkpt lat="43.60404859603395" lon="12.108471276273095"><ele>479.66666666666663</ele><time>2026-05-01T10:18:49.999Z</time></trkpt><trkpt lat="43.60388370226421" lon="12.108426612192696"><ele>479.0</ele><time>2026-05-01T10:18:50.999Z</time></trkpt><trkpt lat="43.60371961934422" lon="12.108384648468606"><ele>479.0</ele><time>2026-05-01T10:18:51.999Z</time></trkpt><trkpt lat="43.60355728975502" lon="12.108350236815351"><ele>479.0</ele><time>2026-05-01T10:18:52.999Z</time></trkpt><trkpt lat="43.60340728253527" lon="12.108312083886416"><ele>479.0</ele><time>2026-05-01T10:18:53.999Z</time></trkpt><trkpt lat="43.60328031123" lon="12.108241678150371"><ele>479.0</ele><time>2026-05-01T10:18:54.999Z</time></trkpt><trkpt lat="43.603188251338956" lon="12.108113294728497"><ele>479.0</ele><time>2026-05-01T10:18:55.999Z</time></trkpt><trkpt lat="43.60313508069116" lon="12.107940868760599"><ele>479.0</ele><time>2026-05-01T10:18:56.999Z</time></trkpt><trkpt lat="43.60311132590106" lon="12.107752422544507"><ele>479.0</ele><time>2026-05-01T10:18:57.999Z</time></trkpt><trkpt lat="43.6030816223025" lon="12.107567100050781"><ele>479.25</ele><time>2026-05-01T10:18:58.999Z</time></trkpt><trkpt lat="43.603016119079506" lon="12.107393026530376"><ele>479.5</ele><time>2026-05-01T10:18:59.999Z</time></trkpt><trkpt lat="43.6029211101532" lon="12.107239748287265"><ele>479.75</ele><time>2026-05-01T10:19:00.999Z</time></trkpt><trkpt lat="43.602799854266834" lon="12.10711963839217"><ele>480.0</ele><time>2026-05-01T10:19:01.999Z</time></trkpt><trkpt lat="43.60265784095141" lon="12.1070499165835"><ele>480.0</ele><time>2026-05-01T10:19:02.999Z</time></trkpt><trkpt lat="43.60250040298409" lon="12.107024263701696"><ele>480.0</ele><time>2026-05-01T10:19:03.999Z</time></trkpt><trkpt lat="43.602337546372716" lon="12.107015004237585"><ele>480.0</ele><time>2026-05-01T10:19:04.999Z</time></trkpt><trkpt lat="43.60217181480975" lon="12.10699637892751"><ele>480.0</ele><time>2026-05-01T10:19:05.999Z</time></trkpt><trkpt lat="43.602007287861" lon="12.106972079211173"><ele>480.0</ele><time>2026-05-01T10:19:06.999Z</time></trkpt><trkpt lat="43.60184283954977" lon="12.106948769639013"><ele>480.0</ele><time>2026-05-01T10:19:07.999Z</time></trkpt><trkpt lat="43.6016827146993" lon="12.106930117198077"><ele>479.75</ele><time>2026-05-01T10:19:08.999Z</time></trkpt><trkpt lat="43.601532243304" lon="12.106913642383297"><ele>479.5</ele><time>2026-05-01T10:19:09.999Z</time></trkpt><trkpt lat="43.601388684750376" lon="12.1068942190569"><ele>479.25</ele><time>2026-05-01T10:19:10.999Z</time></trkpt><trkpt lat="43.601249839303755" lon="12.106870005805577"><ele>479.0</ele><time>2026-05-01T10:19:11.999Z</time></trkpt><trkpt lat="43.60111346335528" lon="12.106852105537559"><ele>478.5</ele><time>2026-05-01T10:19:12.999Z</time></trkpt><trkpt lat="43.60097501214498" lon="12.106857726015942"><ele>478.0</ele><time>2026-05-01T10:19:13.999Z</time></trkpt><trkpt lat="43.60083316066741" lon="12.10690793708887"><ele>477.5</ele><time>2026-05-01T10:19:14.999Z</time></trkpt><trkpt lat="43.600691816074836" lon="12.10700062863129"><ele>477.0</ele><time>2026-05-01T10:19:15.999Z</time></trkpt><trkpt lat="43.60055033513574" lon="12.107120824970089"><ele>477.0</ele><time>2026-05-01T10:19:16.999Z</time></trkpt><trkpt lat="43.60038237398911" lon="12.107271461919373"><ele>477.0</ele><time>2026-05-01T10:19:17.999Z</time></trkpt><trkpt lat="43.60019211191959" lon="12.107407142132981"><ele>477.0</ele><time>2026-05-01T10:19:18.999Z</time></trkpt><trkpt lat="43.600011949847556" lon="12.107520502989356"><ele>477.0</ele><time>2026-05-01T10:19:19.999Z</time></trkpt><trkpt lat="43.59984237105701" lon="12.107617678009534"><ele>477.0</ele><time>2026-05-01T10:19:20.999Z</time></trkpt><trkpt lat="43.59969085902056" lon="12.107700741108273"><ele>477.0</ele><time>2026-05-01T10:19:21.999Z</time></trkpt><trkpt lat="43.59954864022609" lon="12.107760340050058"><ele>475.66666666666663</ele><time>2026-05-01T10:19:22.999Z</time></trkpt><trkpt lat="43.599403248007384" lon="12.107764693130639"><ele>474.3333333333333</ele><time>2026-05-01T10:19:23.999Z</time></trkpt><trkpt lat="43.59925172659588" lon="12.107697179386978"><ele>473.0</ele><time>2026-05-01T10:19:24.999Z</time></trkpt><trkpt lat="43.59910461052013" lon="12.107578629595155"><ele>473.0</ele><time>2026-05-01T10:19:25.999Z</time></trkpt><trkpt lat="43.59895699319705" lon="12.107448244935659"><ele>473.0</ele><time>2026-05-01T10:19:26.999Z</time></trkpt><trkpt lat="43.59881364687397" lon="12.107326487209956"><ele>473.0</ele><time>2026-05-01T10:19:27.999Z</time></trkpt><trkpt lat="43.59866317900698" lon="12.107198655778262"><ele>473.0</ele><time>2026-05-01T10:19:28.999Z</time></trkpt><trkpt lat="43.59851341426929" lon="12.10706562022187"><ele>473.0</ele><time>2026-05-01T10:19:29.999Z</time></trkpt><trkpt lat="43.598374626372355" lon="12.106942323574808"><ele>473.0</ele><time>2026-05-01T10:19:30.999Z</time></trkpt><trkpt lat="43.59824424988329" lon="12.106828628637663"><ele>473.0</ele><time>2026-05-01T10:19:31.999Z</time></trkpt><trkpt lat="43.59810929889453" lon="12.1067284602624"><ele>473.0</ele><time>2026-05-01T10:19:32.999Z</time></trkpt><trkpt lat="43.59796573181435" lon="12.106654547342742"><ele>473.0</ele><time>2026-05-01T10:19:33.999Z</time></trkpt><trkpt lat="43.59781679851254" lon="12.10661681906417"><ele>472.25</ele><time>2026-05-01T10:19:34.999Z</time></trkpt><trkpt lat="43.597666422659636" lon="12.106637222936559"><ele>471.5</ele><time>2026-05-01T10:19:35.999Z</time></trkpt><trkpt lat="43.59752427521876" lon="12.106702518537784"><ele>470.75</ele><time>2026-05-01T10:19:36.999Z</time></trkpt><trkpt lat="43.597406087169475" lon="12.106801011361949"><ele>470.0</ele><time>2026-05-01T10:19:37.999Z</time></trkpt><trkpt lat="43.597314314196176" lon="12.106950725105634"><ele>470.0</ele><time>2026-05-01T10:19:38.999Z</time></trkpt><trkpt lat="43.59725479265446" lon="12.107148483331887"><ele>470.0</ele><time>2026-05-01T10:19:39.999Z</time></trkpt><trkpt lat="43.597222659899515" lon="12.107370990946126"><ele>470.0</ele><time>2026-05-01T10:19:40.999Z</time></trkpt><trkpt lat="43.59719595857997" lon="12.107600080003861"><ele>471.66666666666663</ele><time>2026-05-01T10:19:41.999Z</time></trkpt><trkpt lat="43.59717239359102" lon="12.107841251016612"><ele>473.33333333333337</ele><time>2026-05-01T10:19:42.999Z</time></trkpt><trkpt lat="43.5971387207489" lon="12.108085898069715"><ele>475.0</ele><time>2026-05-01T10:19:43.999Z</time></trkpt><trkpt lat="43.5970961967453" lon="12.10833286258646"><ele>475.0</ele><time>2026-05-01T10:19:44.999Z</time></trkpt><trkpt lat="43.59705207178789" lon="12.108572178701682"><ele>475.0</ele><time>2026-05-01T10:19:45.999Z</time></trkpt><trkpt lat="43.59700361513252" lon="12.108809703157052"><ele>475.0</ele><time>2026-05-01T10:19:46.999Z</time></trkpt><trkpt lat="43.59695450549711" lon="12.109055447325217"><ele>470.6666666666667</ele><time>2026-05-01T10:19:47.999Z</time></trkpt><trkpt lat="43.59690146928453" lon="12.109306554824277"><ele>466.33333333333337</ele><time>2026-05-01T10:19:48.999Z</time></trkpt><trkpt lat="43.59684945199726" lon="12.10954552903511"><ele>462.0</ele><time>2026-05-01T10:19:49.999Z</time></trkpt><trkpt lat="43.5968037072249" lon="12.109779399750698"><ele>461.66666666666663</ele><time>2026-05-01T10:19:50.999Z</time></trkpt><trkpt lat="43.596755544790355" lon="12.109997461781736"><ele>461.3333333333333</ele><time>2026-05-01T10:19:51.999Z</time></trkpt><trkpt lat="43.59669559950044" lon="12.110180762015338"><ele>461.0</ele><time>2026-05-01T10:19:52.999Z</time></trkpt><trkpt lat="43.596594347903675" lon="12.110324663912959"><ele>461.0</ele><time>2026-05-01T10:19:53.999Z</time></trkpt><trkpt lat="43.59644738110103" lon="12.110406727446415"><ele>461.0</ele><time>2026-05-01T10:19:54.999Z</time></trkpt><trkpt lat="43.59627875822507" lon="12.110430062732421"><ele>461.0</ele><time>2026-05-01T10:19:55.999Z</time></trkpt><trkpt lat="43.59610434533644" lon="12.110436246203996"><ele>457.66666666666663</ele><time>2026-05-01T10:19:56.999Z</time></trkpt><trkpt lat="43.595936345832655" lon="12.110462258791362"><ele>454.33333333333337</ele><time>2026-05-01T10:19:57.999Z</time></trkpt><trkpt lat="43.59576563274047" lon="12.110540356073114"><ele>451.0</ele><time>2026-05-01T10:19:58.999Z</time></trkpt><trkpt lat="43.59560155377016" lon="12.110653377760594"><ele>449.6666666666667</ele><time>2026-05-01T10:19:59.999Z</time></trkpt><trkpt lat="43.59545109973339" lon="12.110774224103096"><ele>448.33333333333337</ele><time>2026-05-01T10:20:00.999Z</time></trkpt><trkpt lat="43.59531620299293" lon="12.110924842464335"><ele>447.0</ele><time>2026-05-01T10:20:01.999Z</time></trkpt><trkpt lat="43.59519715733409" lon="12.111123332155215"><ele>447.0</ele><time>2026-05-01T10:20:02.999Z</time></trkpt><trkpt lat="43.595091360560026" lon="12.111340455573242"><ele>447.0</ele><time>2026-05-01T10:20:03.999Z</time></trkpt><trkpt lat="43.59498805868674" lon="12.111562525966676"><ele>447.0</ele><time>2026-05-01T10:20:04.999Z</time></trkpt><trkpt lat="43.594891105864704" lon="12.111790820456774"><ele>447.33333333333337</ele><time>2026-05-01T10:20:05.999Z</time></trkpt><trkpt lat="43.59480990660815" lon="12.11202079664101"><ele>447.6666666666667</ele><time>2026-05-01T10:20:06.999Z</time></trkpt><trkpt lat="43.59474476925061" lon="12.112251125854833"><ele>448.0</ele><time>2026-05-01T10:20:07.999Z</time></trkpt><trkpt lat="43.59467468392637" lon="12.112470367318549"><ele>448.0</ele><time>2026-05-01T10:20:08.999Z</time></trkpt><trkpt lat="43.594603388926416" lon="12.112679521696597"><ele>448.0</ele><time>2026-05-01T10:20:09.999Z</time></trkpt><trkpt lat="43.59451583687314" lon="12.112861377962313"><ele>448.0</ele><time>2026-05-01T10:20:10.999Z</time></trkpt><trkpt lat="43.59438880916302" lon="12.113003842229709"><ele>445.33333333333337</ele><time>2026-05-01T10:20:11.999Z</time></trkpt><trkpt lat="43.59423116179407" lon="12.113088984491206"><ele>442.66666666666663</ele><time>2026-05-01T10:20:12.999Z</time></trkpt><trkpt lat="43.59408262905751" lon="12.113156972936318"><ele>440.0</ele><time>2026-05-01T10:20:14Z</time></trkpt><trkpt lat="43.59395810547335" lon="12.11325513542158"><ele>440.0</ele><time>2026-05-01T10:20:15Z</time></trkpt><trkpt lat="43.59386921449129" lon="12.113407550271665"><ele>440.0</ele><time>2026-05-01T10:20:16Z</time></trkpt><trkpt lat="43.59380243640535" lon="12.113580361114758"><ele>440.0</ele><time>2026-05-01T10:20:17Z</time></trkpt><trkpt lat="43.593740227600954" lon="12.113736099938722"><ele>440.0</ele><time>2026-05-01T10:20:18Z</time></trkpt><trkpt lat="43.593636079190524" lon="12.113832695761579"><ele>438.0</ele><time>2026-05-01T10:20:19Z</time></trkpt><trkpt lat="43.59351997862893" lon="12.113853890082346"><ele>436.0</ele><time>2026-05-01T10:20:20Z</time></trkpt><trkpt lat="43.593415723796824" lon="12.113792272550192"><ele>434.0</ele><time>2026-05-01T10:20:21Z</time></trkpt><trkpt lat="43.59332907919413" lon="12.1136634681795"><ele>432.0</ele><time>2026-05-01T10:20:22Z</time></trkpt><trkpt lat="43.593243321535745" lon="12.11352141787869"><ele>432.0</ele><time>2026-05-01T10:20:23Z</time></trkpt><trkpt lat="43.59313581842879" lon="12.113396849118917"><ele>432.0</ele><time>2026-05-01T10:20:24Z</time></trkpt><trkpt lat="43.59299026371834" lon="12.113322641834998"><ele>432.0</ele><time>2026-05-01T10:20:25Z</time></trkpt><trkpt lat="43.59282470331044" lon="12.113303820848072"><ele>431.0</ele><time>2026-05-01T10:20:26Z</time></trkpt><trkpt lat="43.592663787745586" lon="12.113292662452473"><ele>430.0</ele><time>2026-05-01T10:20:27Z</time></trkpt><trkpt lat="43.592519467351806" lon="12.113287681128876"><ele>429.0</ele><time>2026-05-01T10:20:28Z</time></trkpt><trkpt lat="43.59238343892916" lon="12.113330841361567"><ele>428.0</ele><time>2026-05-01T10:20:29Z</time></trkpt><trkpt lat="43.592262391747106" lon="12.113437611751433"><ele>428.0</ele><time>2026-05-01T10:20:30Z</time></trkpt><trkpt lat="43.59216664410873" lon="12.113592698543878"><ele>428.0</ele><time>2026-05-01T10:20:31Z</time></trkpt><trkpt lat="43.5920978021893" lon="12.113785501741553"><ele>428.0</ele><time>2026-05-01T10:20:32Z</time></trkpt><trkpt lat="43.59203472120033" lon="12.113982037291432"><ele>424.3333333333333</ele><time>2026-05-01T10:20:33Z</time></trkpt><trkpt lat="43.59197171774247" lon="12.114178680940041"><ele>420.66666666666663</ele><time>2026-05-01T10:20:34Z</time></trkpt><trkpt lat="43.59191164459621" lon="12.11438081497315"><ele>417.0</ele><time>2026-05-01T10:20:35Z</time></trkpt><trkpt lat="43.591853252231246" lon="12.114587783598646"><ele>417.0</ele><time>2026-05-01T10:20:36Z</time></trkpt><trkpt lat="43.59179564458581" lon="12.11479775302195"><ele>417.0</ele><time>2026-05-01T10:20:37Z</time></trkpt><trkpt lat="43.59173807680127" lon="12.114998995832238"><ele>417.0</ele><time>2026-05-01T10:20:38Z</time></trkpt><trkpt lat="43.5916827038377" lon="12.115179279603579"><ele>417.5</ele><time>2026-05-01T10:20:39Z</time></trkpt><trkpt lat="43.59163204865474" lon="12.11532968740355"><ele>418.0</ele><time>2026-05-01T10:20:40Z</time></trkpt><trkpt lat="43.591566748226676" lon="12.115442117085557"><ele>418.5</ele><time>2026-05-01T10:20:41Z</time></trkpt><trkpt lat="43.591472452805405" lon="12.115509950704642"><ele>419.0</ele><time>2026-05-01T10:20:41.999Z</time></trkpt><trkpt lat="43.59134715124012" lon="12.11552493245844"><ele>419.0</ele><time>2026-05-01T10:20:42.999Z</time></trkpt><trkpt lat="43.59120799479067" lon="12.115507655210497"><ele>419.0</ele><time>2026-05-01T10:20:43.999Z</time></trkpt><trkpt lat="43.59105958720667" lon="12.115465388659457"><ele>419.0</ele><time>2026-05-01T10:20:44.999Z</time></trkpt><trkpt lat="43.59091309557465" lon="12.115432449443768"><ele>419.0</ele><time>2026-05-01T10:20:45.999Z</time></trkpt><trkpt lat="43.59076102047921" lon="12.11541119639039"><ele>416.0</ele><time>2026-05-01T10:20:46.999Z</time></trkpt><trkpt lat="43.59060718606512" lon="12.115399100880504"><ele>413.0</ele><time>2026-05-01T10:20:47.999Z</time></trkpt><trkpt lat="43.59044780239712" lon="12.115402213215818"><ele>410.0</ele><time>2026-05-01T10:20:48.999Z</time></trkpt><trkpt lat="43.59028502845188" lon="12.115449604849271"><ele>409.0</ele><time>2026-05-01T10:20:49.999Z</time></trkpt><trkpt lat="43.59012334497056" lon="12.115539478919686"><ele>408.0</ele><time>2026-05-01T10:20:50.999Z</time></trkpt><trkpt lat="43.589971921594326" lon="12.115644016036343"><ele>407.0</ele><time>2026-05-01T10:20:51.999Z</time></trkpt><trkpt lat="43.58982863067177" lon="12.115741258317582"><ele>407.0</ele><time>2026-05-01T10:20:52.999Z</time></trkpt><trkpt lat="43.58970399467011" lon="12.115866704996625"><ele>407.0</ele><time>2026-05-01T10:20:53.999Z</time></trkpt><trkpt lat="43.58959390424262" lon="12.11602706705026"><ele>407.0</ele><time>2026-05-01T10:20:54.999Z</time></trkpt><trkpt lat="43.58949629481491" lon="12.116211604662437"><ele>405.0</ele><time>2026-05-01T10:20:55.999Z</time></trkpt><trkpt lat="43.58939184402798" lon="12.11640486671824"><ele>403.0</ele><time>2026-05-01T10:20:56.999Z</time></trkpt><trkpt lat="43.58929327952761" lon="12.116589368250047"><ele>401.0</ele><time>2026-05-01T10:20:57.999Z</time></trkpt><trkpt lat="43.58920515285344" lon="12.116761540574712"><ele>401.0</ele><time>2026-05-01T10:20:58.999Z</time></trkpt><trkpt lat="43.589115003955925" lon="12.116913469624317"><ele>401.0</ele><time>2026-05-01T10:20:59.999Z</time></trkpt><trkpt lat="43.58899186972215" lon="12.11704390795464"><ele>401.0</ele><time>2026-05-01T10:21:00.999Z</time></trkpt><trkpt lat="43.58884341415305" lon="12.117136207800371"><ele>401.0</ele><time>2026-05-01T10:21:01.999Z</time></trkpt><trkpt lat="43.588698405959356" lon="12.117216411347494"><ele>401.0</ele><time>2026-05-01T10:21:02.999Z</time></trkpt><trkpt lat="43.58856000960627" lon="12.117296173211658"><ele>401.0</ele><time>2026-05-01T10:21:03.999Z</time></trkpt><trkpt lat="43.588423823262545" lon="12.11739762962857"><ele>397.66666666666663</ele><time>2026-05-01T10:21:04.999Z</time></trkpt><trkpt lat="43.58829240872336" lon="12.11752990111642"><ele>394.33333333333337</ele><time>2026-05-01T10:21:05.999Z</time></trkpt><trkpt lat="43.58818284942293" lon="12.117682357228727"><ele>391.0</ele><time>2026-05-01T10:21:06.999Z</time></trkpt><trkpt lat="43.58809800305238" lon="12.117843520350002"><ele>391.0</ele><time>2026-05-01T10:21:07.999Z</time></trkpt><trkpt lat="43.58804073435236" lon="12.118020982292858"><ele>391.0</ele><time>2026-05-01T10:21:08.999Z</time></trkpt><trkpt lat="43.58801955441034" lon="12.118211580223486"><ele>391.0</ele><time>2026-05-01T10:21:09.999Z</time></trkpt><trkpt lat="43.58801789194137" lon="12.118419584799971"><ele>391.0</ele><time>2026-05-01T10:21:10.999Z</time></trkpt><trkpt lat="43.588030490048126" lon="12.118633850173811"><ele>391.6666666666667</ele><time>2026-05-01T10:21:11.999Z</time></trkpt><trkpt lat="43.588023048623754" lon="12.118846896152727"><ele>392.33333333333337</ele><time>2026-05-01T10:21:12.999Z</time></trkpt><trkpt lat="43.587982007948106" lon="12.119054242314006"><ele>393.0</ele><time>2026-05-01T10:21:13.999Z</time></trkpt><trkpt lat="43.58791698488643" lon="12.119257209589966"><ele>387.6666666666667</ele><time>2026-05-01T10:21:14.999Z</time></trkpt><trkpt lat="43.58784075974058" lon="12.119459544549105"><ele>382.33333333333337</ele><time>2026-05-01T10:21:15.999Z</time></trkpt><trkpt lat="43.58775184848003" lon="12.1196562270381"><ele>377.0</ele><time>2026-05-01T10:21:16.999Z</time></trkpt><trkpt lat="43.58766023921043" lon="12.119841870317734"><ele>378.33333333333337</ele><time>2026-05-01T10:21:17.999Z</time></trkpt><trkpt lat="43.58756765388711" lon="12.120014338454883"><ele>379.6666666666667</ele><time>2026-05-01T10:21:18.999Z</time></trkpt><trkpt lat="43.58745727708157" lon="12.12017417919735"><ele>381.0</ele><time>2026-05-01T10:21:19.999Z</time></trkpt><trkpt lat="43.58732848205352" lon="12.12030943511203"><ele>381.0</ele><time>2026-05-01T10:21:20.999Z</time></trkpt><trkpt lat="43.587183811090036" lon="12.120408874021866"><ele>381.0</ele><time>2026-05-01T10:21:21.999Z</time></trkpt><trkpt lat="43.58703960382654" lon="12.120478941565265"><ele>381.0</ele><time>2026-05-01T10:21:22.999Z</time></trkpt><trkpt lat="43.586905397076244" lon="12.120567329633507"><ele>377.6666666666667</ele><time>2026-05-01T10:21:23.999Z</time></trkpt><trkpt lat="43.58678846627234" lon="12.120702827546282"><ele>374.33333333333337</ele><time>2026-05-01T10:21:24.999Z</time></trkpt><trkpt lat="43.586693970476" lon="12.120888210639807"><ele>371.0</ele><time>2026-05-01T10:21:25.999Z</time></trkpt><trkpt lat="43.58661657935121" lon="12.121102418282097"><ele>371.0</ele><time>2026-05-01T10:21:26.999Z</time></trkpt><trkpt lat="43.58654106706932" lon="12.121325641759585"><ele>371.0</ele><time>2026-05-01T10:21:27.999Z</time></trkpt><trkpt lat="43.58645612180323" lon="12.121551891179063"><ele>371.0</ele><time>2026-05-01T10:21:28.999Z</time></trkpt><trkpt lat="43.58636509160361" lon="12.121773877623513"><ele>372.6666666666667</ele><time>2026-05-01T10:21:29.999Z</time></trkpt><trkpt lat="43.58627968143083" lon="12.121996097532884"><ele>374.3333333333333</ele><time>2026-05-01T10:21:30.999Z</time></trkpt><trkpt lat="43.586198439177835" lon="12.122217774681948"><ele>376.0</ele><time>2026-05-01T10:21:31.999Z</time></trkpt><trkpt lat="43.58612751561025" lon="12.122448224687922"><ele>370.3333333333333</ele><time>2026-05-01T10:21:32.999Z</time></trkpt><trkpt lat="43.58606595882668" lon="12.122692256285886"><ele>364.6666666666667</ele><time>2026-05-01T10:21:33.999Z</time></trkpt><trkpt lat="43.5860096716997" lon="12.122938361515935"><ele>359.0</ele><time>2026-05-01T10:21:34.999Z</time></trkpt><trkpt lat="43.58595742317066" lon="12.123177191876804"><ele>359.0</ele><time>2026-05-01T10:21:35.999Z</time></trkpt><trkpt lat="43.585915974163676" lon="12.123411381517295"><ele>359.0</ele><time>2026-05-01T10:21:36.999Z</time></trkpt><trkpt lat="43.58588894149411" lon="12.123646208763363"><ele>359.0</ele><time>2026-05-01T10:21:37.999Z</time></trkpt><trkpt lat="43.58587691239153" lon="12.123880865881084"><ele>358.0</ele><time>2026-05-01T10:21:38.999Z</time></trkpt><trkpt lat="43.58587636573944" lon="12.124114590399723"><ele>357.0</ele><time>2026-05-01T10:21:39.999Z</time></trkpt><trkpt lat="43.58587242351881" lon="12.12434881753237"><ele>356.0</ele><time>2026-05-01T10:21:40.999Z</time></trkpt><trkpt lat="43.58586733595729" lon="12.124582682615733"><ele>356.0</ele><time>2026-05-01T10:21:41.999Z</time></trkpt><trkpt lat="43.58586251536554" lon="12.124806302587372"><ele>356.0</ele><time>2026-05-01T10:21:42.999Z</time></trkpt><trkpt lat="43.58584886608071" lon="12.125008621065447"><ele>356.0</ele><time>2026-05-01T10:21:43.999Z</time></trkpt><trkpt lat="43.58579684882116" lon="12.12518145305116"><ele>356.0</ele><time>2026-05-01T10:21:44.999Z</time></trkpt><trkpt lat="43.58569808359447" lon="12.125317471239606"><ele>354.6666666666667</ele><time>2026-05-01T10:21:45.999Z</time></trkpt><trkpt lat="43.58556997560254" lon="12.12540585024164"><ele>353.3333333333333</ele><time>2026-05-01T10:21:46.999Z</time></trkpt><trkpt lat="43.58541907123382" lon="12.125432248044481"><ele>352.0</ele><time>2026-05-01T10:21:47.999Z</time></trkpt><trkpt lat="43.58525772940921" lon="12.125421119010223"><ele>350.66666666666663</ele><time>2026-05-01T10:21:48.999Z</time></trkpt><trkpt lat="43.585088566785686" lon="12.125402744462964"><ele>349.3333333333333</ele><time>2026-05-01T10:21:49.999Z</time></trkpt><trkpt lat="43.58491002782762" lon="12.125386804591123"><ele>348.0</ele><time>2026-05-01T10:21:50.999Z</time></trkpt><trkpt lat="43.58472933611801" lon="12.125376396200936"><ele>348.0</ele><time>2026-05-01T10:21:51.999Z</time></trkpt><trkpt lat="43.584540752162376" lon="12.125370336604373"><ele>348.0</ele><time>2026-05-01T10:21:52.999Z</time></trkpt><trkpt lat="43.584347579162994" lon="12.125361567145122"><ele>348.0</ele><time>2026-05-01T10:21:53.999Z</time></trkpt><trkpt lat="43.58415356534983" lon="12.125351090060537"><ele>347.6666666666667</ele><time>2026-05-01T10:21:54.999Z</time></trkpt><trkpt lat="43.58395407056334" lon="12.125343705019835"><ele>347.33333333333337</ele><time>2026-05-01T10:21:55.999Z</time></trkpt><trkpt lat="43.58375291396605" lon="12.125342386486007"><ele>347.0</ele><time>2026-05-01T10:21:56.999Z</time></trkpt><trkpt lat="43.58355017923964" lon="12.125342824594627"><ele>345.6666666666667</ele><time>2026-05-01T10:21:57.999Z</time></trkpt><trkpt lat="43.58334879879093" lon="12.125341635048276"><ele>344.3333333333333</ele><time>2026-05-01T10:21:58.999Z</time></trkpt><trkpt lat="43.58314707683195" lon="12.125344726622656"><ele>343.0</ele><time>2026-05-01T10:21:59.999Z</time></trkpt><trkpt lat="43.58294493041652" lon="12.12534968858639"><ele>342.3333333333333</ele><time>2026-05-01T10:22:00.999Z</time></trkpt><trkpt lat="43.58274772648408" lon="12.125374784291273"><ele>341.6666666666667</ele><time>2026-05-01T10:22:01.999Z</time></trkpt><trkpt lat="43.58256125972249" lon="12.125418367815767"><ele>341.0</ele><time>2026-05-01T10:22:02.999Z</time></trkpt><trkpt lat="43.582384039447234" lon="12.125481726733291"><ele>341.0</ele><time>2026-05-01T10:22:03.999Z</time></trkpt><trkpt lat="43.582215117281066" lon="12.1255646100944"><ele>341.0</ele><time>2026-05-01T10:22:04.999Z</time></trkpt><trkpt lat="43.58204573818505" lon="12.125642079245212"><ele>341.0</ele><time>2026-05-01T10:22:05.999Z</time></trkpt><trkpt lat="43.581870123662874" lon="12.125705710100796"><ele>340.6666666666667</ele><time>2026-05-01T10:22:06.999Z</time></trkpt><trkpt lat="43.58169083741021" lon="12.12575321359267"><ele>340.3333333333333</ele><time>2026-05-01T10:22:07.999Z</time></trkpt><trkpt lat="43.581509049414095" lon="12.125768778101417"><ele>340.0</ele><time>2026-05-01T10:22:08.999Z</time></trkpt><trkpt lat="43.58134081841637" lon="12.12574950899141"><ele>340.0</ele><time>2026-05-01T10:22:09.999Z</time></trkpt><trkpt lat="43.58119268402133" lon="12.12572940935171"><ele>340.0</ele><time>2026-05-01T10:22:10.999Z</time></trkpt><trkpt lat="43.58106271415671" lon="12.125713553743742"><ele>340.0</ele><time>2026-05-01T10:22:11.999Z</time></trkpt><trkpt lat="43.580952678914144" lon="12.125695546956857"><ele>340.0</ele><time>2026-05-01T10:22:12.999Z</time></trkpt><trkpt lat="43.580855687478056" lon="12.125643778126623"><ele>339.6</ele><time>2026-05-01T10:22:13.999Z</time></trkpt><trkpt lat="43.580777614747156" lon="12.125561168618537"><ele>339.2</ele><time>2026-05-01T10:22:14.999Z</time></trkpt><trkpt lat="43.58071954063613" lon="12.125454976895437"><ele>338.79999999999995</ele><time>2026-05-01T10:22:15.999Z</time></trkpt><trkpt lat="43.580662823712395" lon="12.125349013705762"><ele>338.4</ele><time>2026-05-01T10:22:16.999Z</time></trkpt><trkpt lat="43.580588437298466" lon="12.125265389406481"><ele>338.0</ele><time>2026-05-01T10:22:17.999Z</time></trkpt><trkpt lat="43.58049756796373" lon="12.125230850603565"><ele>338.0</ele><time>2026-05-01T10:22:18.999Z</time></trkpt><trkpt lat="43.58040851334263" lon="12.125248233976073"><ele>338.0</ele><time>2026-05-01T10:22:19.999Z</time></trkpt><trkpt lat="43.580337417397494" lon="12.125310325270695"><ele>338.0</ele><time>2026-05-01T10:22:20.999Z</time></trkpt><trkpt lat="43.58028401968011" lon="12.125402911212731"><ele>338.0</ele><time>2026-05-01T10:22:22Z</time></trkpt><trkpt lat="43.580251646762754" lon="12.125519206960899"><ele>338.0</ele><time>2026-05-01T10:22:23Z</time></trkpt><trkpt lat="43.58021135851501" lon="12.125640764594593"><ele>338.0</ele><time>2026-05-01T10:22:24Z</time></trkpt><trkpt lat="43.580153650595605" lon="12.125758508140537"><ele>337.5</ele><time>2026-05-01T10:22:25Z</time></trkpt><trkpt lat="43.580079288913716" lon="12.125872640434482"><ele>337.0</ele><time>2026-05-01T10:22:26Z</time></trkpt><trkpt lat="43.58000607919553" lon="12.126002475307837"><ele>336.5</ele><time>2026-05-01T10:22:27Z</time></trkpt><trkpt lat="43.57992771071594" lon="12.126137501835723"><ele>336.0</ele><time>2026-05-01T10:22:28Z</time></trkpt><trkpt lat="43.57984252745339" lon="12.126274981923151"><ele>336.0</ele><time>2026-05-01T10:22:29Z</time></trkpt><trkpt lat="43.57975487594097" lon="12.126425339234649"><ele>336.0</ele><time>2026-05-01T10:22:30Z</time></trkpt><trkpt lat="43.57966737158509" lon="12.126575813409778"><ele>336.0</ele><time>2026-05-01T10:22:31Z</time></trkpt><trkpt lat="43.579576381348886" lon="12.126732011847652"><ele>336.0</ele><time>2026-05-01T10:22:32Z</time></trkpt><trkpt lat="43.57948302666869" lon="12.126896181548899"><ele>336.0</ele><time>2026-05-01T10:22:33Z</time></trkpt><trkpt lat="43.57938457906463" lon="12.127064321151124"><ele>336.0</ele><time>2026-05-01T10:22:34Z</time></trkpt><trkpt lat="43.57927894851558" lon="12.127233327905676"><ele>336.0</ele><time>2026-05-01T10:22:35Z</time></trkpt><trkpt lat="43.579174507504845" lon="12.127403983365506"><ele>336.0</ele><time>2026-05-01T10:22:36Z</time></trkpt><trkpt lat="43.5790732172679" lon="12.127572822460229"><ele>336.0</ele><time>2026-05-01T10:22:37Z</time></trkpt><trkpt lat="43.57896666173065" lon="12.127751604183644"><ele>336.0</ele><time>2026-05-01T10:22:38Z</time></trkpt><trkpt lat="43.578861030084475" lon="12.127937284004123"><ele>336.0</ele><time>2026-05-01T10:22:39Z</time></trkpt><trkpt lat="43.578749565967875" lon="12.128125281497622"><ele>336.0</ele><time>2026-05-01T10:22:40Z</time></trkpt><trkpt lat="43.57863623793473" lon="12.128315143014097"><ele>336.0</ele><time>2026-05-01T10:22:40.999Z</time></trkpt><trkpt lat="43.578524019788745" lon="12.128507874701354"><ele>334.6666666666667</ele><time>2026-05-01T10:22:41.999Z</time></trkpt><trkpt lat="43.57841223929308" lon="12.128701561398897"><ele>333.33333333333337</ele><time>2026-05-01T10:22:42.999Z</time></trkpt><trkpt lat="43.57829968866873" lon="12.128896692205492"><ele>332.0</ele><time>2026-05-01T10:22:43.999Z</time></trkpt><trkpt lat="43.57819290207989" lon="12.12908026569306"><ele>331.75</ele><time>2026-05-01T10:22:44.999Z</time></trkpt><trkpt lat="43.578095608183304" lon="12.129252101739931"><ele>331.5</ele><time>2026-05-01T10:22:45.999Z</time></trkpt><trkpt lat="43.578006761343744" lon="12.12940834847154"><ele>331.25</ele><time>2026-05-01T10:22:46.999Z</time></trkpt><trkpt lat="43.57792402163825" lon="12.129547222584627"><ele>331.0</ele><time>2026-05-01T10:22:47.999Z</time></trkpt><trkpt lat="43.57783517578859" lon="12.129666674045888"><ele>331.0</ele><time>2026-05-01T10:22:48.999Z</time></trkpt><trkpt lat="43.57773370173241" lon="12.129756160688526"><ele>331.0</ele><time>2026-05-01T10:22:49.999Z</time></trkpt><trkpt lat="43.577634338838486" lon="12.129823632477729"><ele>331.0</ele><time>2026-05-01T10:22:50.999Z</time></trkpt><trkpt lat="43.577549926654775" lon="12.129915756099006"><ele>331.0</ele><time>2026-05-01T10:22:51.999Z</time></trkpt><trkpt lat="43.577488919743736" lon="12.130053381244752"><ele>330.75</ele><time>2026-05-01T10:22:52.999Z</time></trkpt><trkpt lat="43.57744931965065" lon="12.130219487605336"><ele>330.5</ele><time>2026-05-01T10:22:53.999Z</time></trkpt><trkpt lat="43.57740965787987" lon="12.130391790952785"><ele>330.25</ele><time>2026-05-01T10:22:54.999Z</time></trkpt><trkpt lat="43.5773339244167" lon="12.130554479875132"><ele>330.0</ele><time>2026-05-01T10:22:55.999Z</time></trkpt><trkpt lat="43.57723767405256" lon="12.13070657492244"><ele>330.0</ele><time>2026-05-01T10:22:56.999Z</time></trkpt><trkpt lat="43.57714411350361" lon="12.130871105156666"><ele>330.0</ele><time>2026-05-01T10:22:57.999Z</time></trkpt><trkpt lat="43.577049514127104" lon="12.131040867967135"><ele>330.0</ele><time>2026-05-01T10:22:58.999Z</time></trkpt><trkpt lat="43.57694921557946" lon="12.131213916739418"><ele>329.6666666666667</ele><time>2026-05-01T10:22:59.999Z</time></trkpt><trkpt lat="43.57684520042722" lon="12.131388181873637"><ele>329.33333333333337</ele><time>2026-05-01T10:23:00.999Z</time></trkpt><trkpt lat="43.57674193722894" lon="12.131567837177304"><ele>329.0</ele><time>2026-05-01T10:23:01.999Z</time></trkpt><trkpt lat="43.57663694155121" lon="12.131742080396764"><ele>329.0</ele><time>2026-05-01T10:23:02.999Z</time></trkpt><trkpt lat="43.57653464242386" lon="12.131908955945265"><ele>329.0</ele><time>2026-05-01T10:23:03.999Z</time></trkpt><trkpt lat="43.57643643866106" lon="12.132076414987974"><ele>329.0</ele><time>2026-05-01T10:23:04.999Z</time></trkpt><trkpt lat="43.5763370785044" lon="12.132243756799738"><ele>329.33333333333337</ele><time>2026-05-01T10:23:05.999Z</time></trkpt><trkpt lat="43.576239944460404" lon="12.132411894961427"><ele>329.6666666666667</ele><time>2026-05-01T10:23:06.999Z</time></trkpt><trkpt lat="43.5761427835483" lon="12.132578891868393"><ele>330.0</ele><time>2026-05-01T10:23:07.999Z</time></trkpt><trkpt lat="43.57604400563792" lon="12.132741962679363"><ele>330.0</ele><time>2026-05-01T10:23:08.999Z</time></trkpt><trkpt lat="43.57594530115763" lon="12.132905409455294"><ele>330.0</ele><time>2026-05-01T10:23:09.999Z</time></trkpt><trkpt lat="43.575849124017545" lon="12.133070362079689"><ele>330.0</ele><time>2026-05-01T10:23:10.999Z</time></trkpt><trkpt lat="43.5757515988202" lon="12.133234386188743"><ele>331.0</ele><time>2026-05-01T10:23:11.999Z</time></trkpt><trkpt lat="43.575651419422925" lon="12.13340281161371"><ele>332.0</ele><time>2026-05-01T10:23:12.999Z</time></trkpt><trkpt lat="43.575551788254565" lon="12.133577301137416"><ele>333.0</ele><time>2026-05-01T10:23:13.999Z</time></trkpt><trkpt lat="43.575448037382635" lon="12.133753327099699"><ele>331.6666666666667</ele><time>2026-05-01T10:23:14.999Z</time></trkpt><trkpt lat="43.57534109490505" lon="12.133931706841812"><ele>330.33333333333337</ele><time>2026-05-01T10:23:15.999Z</time></trkpt><trkpt lat="43.57523568059844" lon="12.134111872530834"><ele>329.0</ele><time>2026-05-01T10:23:16.999Z</time></trkpt><trkpt lat="43.575127037207146" lon="12.134296172196713"><ele>328.33333333333337</ele><time>2026-05-01T10:23:17.999Z</time></trkpt><trkpt lat="43.57501734676161" lon="12.134480924778043"><ele>327.6666666666667</ele><time>2026-05-01T10:23:18.999Z</time></trkpt><trkpt lat="43.574908322003374" lon="12.134661917573638"><ele>327.0</ele><time>2026-05-01T10:23:19.999Z</time></trkpt><trkpt lat="43.57480237412808" lon="12.134828574187448"><ele>327.3333333333333</ele><time>2026-05-01T10:23:20.999Z</time></trkpt><trkpt lat="43.57470521789878" lon="12.134987607585362"><ele>327.66666666666663</ele><time>2026-05-01T10:23:21.999Z</time></trkpt><trkpt lat="43.574612727049" lon="12.13514740690417"><ele>328.0</ele><time>2026-05-01T10:23:22.999Z</time></trkpt><trkpt lat="43.57452358512319" lon="12.135316402150279"><ele>327.66666666666663</ele><time>2026-05-01T10:23:23.999Z</time></trkpt><trkpt lat="43.57445543170273" lon="12.135506858259049"><ele>327.3333333333333</ele><time>2026-05-01T10:23:24.999Z</time></trkpt><trkpt lat="43.57440735474433" lon="12.135705615955255"><ele>327.0</ele><time>2026-05-01T10:23:25.999Z</time></trkpt><trkpt lat="43.574371678030175" lon="12.135910694900875"><ele>327.0</ele><time>2026-05-01T10:23:26.999Z</time></trkpt><trkpt lat="43.57433749466399" lon="12.136115960823552"><ele>327.0</ele><time>2026-05-01T10:23:27.999Z</time></trkpt><trkpt lat="43.57430707617024" lon="12.136321123933334"><ele>327.0</ele><time>2026-05-01T10:23:28.999Z</time></trkpt><trkpt lat="43.57427365992411" lon="12.136525432482554"><ele>327.75</ele><time>2026-05-01T10:23:29.999Z</time></trkpt><trkpt lat="43.57424061316994" lon="12.136727896219202"><ele>328.5</ele><time>2026-05-01T10:23:30.999Z</time></trkpt><trkpt lat="43.57420641428623" lon="12.136929076294393"><ele>329.25</ele><time>2026-05-01T10:23:31.999Z</time></trkpt><trkpt lat="43.574173495120085" lon="12.13712103312506"><ele>330.0</ele><time>2026-05-01T10:23:32.999Z</time></trkpt><trkpt lat="43.57414276698221" lon="12.137296767574693"><ele>330.25</ele><time>2026-05-01T10:23:33.999Z</time></trkpt><trkpt lat="43.57411432163347" lon="12.137463332696942"><ele>330.5</ele><time>2026-05-01T10:23:34.999Z</time></trkpt><trkpt lat="43.57408561179588" lon="12.13762883233704"><ele>330.75</ele><time>2026-05-01T10:23:35.999Z</time></trkpt><trkpt lat="43.57406120630947" lon="12.137790543756598"><ele>331.0</ele><time>2026-05-01T10:23:36.999Z</time></trkpt><trkpt lat="43.57404235900016" lon="12.137935874224205"><ele>331.0</ele><time>2026-05-01T10:23:37.999Z</time></trkpt><trkpt lat="43.57402511878169" lon="12.13803864989794"><ele>331.0</ele><time>2026-05-01T10:23:38.999Z</time></trkpt><trkpt lat="43.5740076972539" lon="12.138131918597768"><ele>331.0</ele><time>2026-05-01T10:23:40.999Z</time></trkpt><trkpt lat="43.57400171647438" lon="12.13825206576493"><ele>331.0</ele><time>2026-05-01T10:23:44.999Z</time></trkpt><trkpt lat="43.57397466577861" lon="12.13837524255235"><ele>331.0</ele><time>2026-05-01T10:23:46.999Z</time></trkpt><trkpt lat="43.57393620936664" lon="12.138472342015701"><ele>331.0</ele><time>2026-05-01T10:24:00.999Z</time></trkpt><trkpt lat="43.5739133809623" lon="12.138632846118885"><ele>331.66666666666663</ele><time>2026-05-01T10:24:02.999Z</time></trkpt><trkpt lat="43.573888233214575" lon="12.138729386796768"><ele>332.3333333333333</ele><time>2026-05-01T10:24:03.999Z</time></trkpt><trkpt lat="43.573870549257144" lon="12.138819709667981"><ele>333.0</ele><time>2026-05-01T10:24:04.999Z</time></trkpt><trkpt lat="43.57385219085471" lon="12.138935719975969"><ele>333.6666666666667</ele><time>2026-05-01T10:24:05.999Z</time></trkpt><trkpt lat="43.57383002974351" lon="12.139072117746592"><ele>334.33333333333337</ele><time>2026-05-01T10:24:06.999Z</time></trkpt><trkpt lat="43.57379806036658" lon="12.139224244994345"><ele>335.0</ele><time>2026-05-01T10:24:07.999Z</time></trkpt><trkpt lat="43.57375824753165" lon="12.139378573952825"><ele>335.0</ele><time>2026-05-01T10:24:08.999Z</time></trkpt><trkpt lat="43.57372126668739" lon="12.139518659085207"><ele>335.0</ele><time>2026-05-01T10:24:09.999Z</time></trkpt><trkpt lat="43.57367343421918" lon="12.139676938888087"><ele>335.0</ele><time>2026-05-01T10:24:10.999Z</time></trkpt><trkpt lat="43.573618601552596" lon="12.13984835246972"><ele>335.0</ele><time>2026-05-01T10:24:11.999Z</time></trkpt><trkpt lat="43.57355391638028" lon="12.140024121288173"><ele>335.0</ele><time>2026-05-01T10:24:12.999Z</time></trkpt><trkpt lat="43.57348934637356" lon="12.140190297044931"><ele>335.0</ele><time>2026-05-01T10:24:13.999Z</time></trkpt><trkpt lat="43.57342331986448" lon="12.140364962653802"><ele>335.0</ele><time>2026-05-01T10:24:14.999Z</time></trkpt><trkpt lat="43.57334603396863" lon="12.140544731651564"><ele>335.0</ele><time>2026-05-01T10:24:15.999Z</time></trkpt><trkpt lat="43.57326653691068" lon="12.14072259768547"><ele>335.6666666666667</ele><time>2026-05-01T10:24:16.999Z</time></trkpt><trkpt lat="43.57318659515519" lon="12.140901624425778"><ele>336.3333333333333</ele><time>2026-05-01T10:24:17.999Z</time></trkpt><trkpt lat="43.57310379631947" lon="12.141081343324874"><ele>337.0</ele><time>2026-05-01T10:24:18.999Z</time></trkpt><trkpt lat="43.5730165634304" lon="12.141251482648615"><ele>337.0</ele><time>2026-05-01T10:24:19.999Z</time></trkpt><trkpt lat="43.5729326741569" lon="12.141418312216686"><ele>337.0</ele><time>2026-05-01T10:24:20.999Z</time></trkpt><trkpt lat="43.572852012701794" lon="12.141576815042866"><ele>337.0</ele><time>2026-05-01T10:24:21.999Z</time></trkpt><trkpt lat="43.57278171524932" lon="12.141726806312935"><ele>337.0</ele><time>2026-05-01T10:24:22.999Z</time></trkpt><trkpt lat="43.57271538193491" lon="12.14186644587015"><ele>337.0</ele><time>2026-05-01T10:24:23.999Z</time></trkpt><trkpt lat="43.57265266103156" lon="12.141990657980832"><ele>337.0</ele><time>2026-05-01T10:24:24.999Z</time></trkpt><trkpt lat="43.57258772874922" lon="12.142093628803384"><ele>337.0</ele><time>2026-05-01T10:24:25.999Z</time></trkpt><trkpt lat="43.572528286815874" lon="12.142189769630232"><ele>337.0</ele><time>2026-05-01T10:24:26.999Z</time></trkpt><trkpt lat="43.57248321191454" lon="12.142276922331726"><ele>337.0</ele><time>2026-05-01T10:24:27.999Z</time></trkpt><trkpt lat="43.572444381222844" lon="12.14235728139193"><ele>337.0</ele><time>2026-05-01T10:24:28.999Z</time></trkpt><trkpt lat="43.57239851032355" lon="12.14251996396552"><ele>338.25</ele><time>2026-05-01T10:24:30.999Z</time></trkpt><trkpt lat="43.57237146559104" lon="12.142639849218664"><ele>339.5</ele><time>2026-05-01T10:24:31.999Z</time></trkpt><trkpt lat="43.57231616204552" lon="12.142756636533623"><ele>340.75</ele><time>2026-05-01T10:24:32.999Z</time></trkpt><trkpt lat="43.5722352243237" lon="12.14288557068651"><ele>342.0</ele><time>2026-05-01T10:24:33.999Z</time></trkpt><trkpt lat="43.57213699236863" lon="12.143048632865789"><ele>342.0</ele><time>2026-05-01T10:24:34.999Z</time></trkpt><trkpt lat="43.57205302772029" lon="12.143205999692382"><ele>342.0</ele><time>2026-05-01T10:24:35.999Z</time></trkpt><trkpt lat="43.571984492727324" lon="12.143353451250535"><ele>342.0</ele><time>2026-05-01T10:24:36.999Z</time></trkpt><trkpt lat="43.57191576105624" lon="12.143498061619438"><ele>342.0</ele><time>2026-05-01T10:24:38Z</time></trkpt><trkpt lat="43.57184302502852" lon="12.143646731057538"><ele>341.75</ele><time>2026-05-01T10:24:39Z</time></trkpt><trkpt lat="43.57176770684391" lon="12.143798977623808"><ele>341.5</ele><time>2026-05-01T10:24:40Z</time></trkpt><trkpt lat="43.57169171455428" lon="12.143951508268183"><ele>341.25</ele><time>2026-05-01T10:24:41Z</time></trkpt><trkpt lat="43.57161682642684" lon="12.14410669811801"><ele>341.0</ele><time>2026-05-01T10:24:42Z</time></trkpt><trkpt lat="43.571542455373496" lon="12.144268195453913"><ele>341.75</ele><time>2026-05-01T10:24:43Z</time></trkpt><trkpt lat="43.57147281577364" lon="12.144438900501912"><ele>342.5</ele><time>2026-05-01T10:24:44Z</time></trkpt><trkpt lat="43.571408300513916" lon="12.144615933931014"><ele>343.25</ele><time>2026-05-01T10:24:45Z</time></trkpt><trkpt lat="43.57133962175923" lon="12.144794788499839"><ele>344.0</ele><time>2026-05-01T10:24:46Z</time></trkpt><trkpt lat="43.57127705280434" lon="12.144982228148903"><ele>344.0</ele><time>2026-05-01T10:24:47Z</time></trkpt><trkpt lat="43.57121670694594" lon="12.14517434234089"><ele>344.0</ele><time>2026-05-01T10:24:48Z</time></trkpt><trkpt lat="43.57115437173927" lon="12.145351565018055"><ele>344.0</ele><time>2026-05-01T10:24:49Z</time></trkpt><trkpt lat="43.57109701635719" lon="12.145513238693413"><ele>344.0</ele><time>2026-05-01T10:24:50Z</time></trkpt><trkpt lat="43.57104094399612" lon="12.145664444549665"><ele>344.4</ele><time>2026-05-01T10:24:51Z</time></trkpt><trkpt lat="43.5709865797425" lon="12.145798380356956"><ele>344.79999999999995</ele><time>2026-05-01T10:24:52Z</time></trkpt><trkpt lat="43.57094251472941" lon="12.145926476817682"><ele>345.20000000000005</ele><time>2026-05-01T10:24:53Z</time></trkpt><trkpt lat="43.57090006273639" lon="12.146037668897584"><ele>345.6</ele><time>2026-05-01T10:24:54Z</time></trkpt><trkpt lat="43.57085769574" lon="12.146135212507318"><ele>346.0</ele><time>2026-05-01T10:24:55Z</time></trkpt><trkpt lat="43.57082189876554" lon="12.146224043754435"><ele>346.0</ele><time>2026-05-01T10:24:56Z</time></trkpt><trkpt lat="43.57078661300742" lon="12.14630366877094"><ele>346.0</ele><time>2026-05-01T10:24:57Z</time></trkpt><trkpt lat="43.57071810599747" lon="12.146441270757144"><ele>346.0</ele><time>2026-05-01T10:24:59Z</time></trkpt><trkpt lat="43.57067441843979" lon="12.146525807773777"><ele>346.0</ele><time>2026-05-01T10:25:00Z</time></trkpt><trkpt lat="43.57062132349674" lon="12.146626372420473"><ele>346.0</ele><time>2026-05-01T10:25:01Z</time></trkpt><trkpt lat="43.57056528774693" lon="12.146728099904783"><ele>346.0</ele><time>2026-05-01T10:25:02Z</time></trkpt><trkpt lat="43.570502899117166" lon="12.146833191399525"><ele>345.5</ele><time>2026-05-01T10:25:03Z</time></trkpt><trkpt lat="43.57043149596989" lon="12.146945726051507"><ele>345.0</ele><time>2026-05-01T10:25:04Z</time></trkpt><trkpt lat="43.57034942517989" lon="12.147064919153536"><ele>344.5</ele><time>2026-05-01T10:25:05Z</time></trkpt><trkpt lat="43.57026642662246" lon="12.147180520349986"><ele>344.0</ele><time>2026-05-01T10:25:06Z</time></trkpt><trkpt lat="43.57018066404274" lon="12.1473004480623"><ele>343.0</ele><time>2026-05-01T10:25:07Z</time></trkpt><trkpt lat="43.57008668827054" lon="12.14742243126762"><ele>342.0</ele><time>2026-05-01T10:25:08Z</time></trkpt><trkpt lat="43.56998987578227" lon="12.147551250719411"><ele>341.0</ele><time>2026-05-01T10:25:09Z</time></trkpt><trkpt lat="43.56988751192817" lon="12.147682631867685"><ele>340.0</ele><time>2026-05-01T10:25:10Z</time></trkpt><trkpt lat="43.56978455165396" lon="12.147815104232103"><ele>340.0</ele><time>2026-05-01T10:25:10.999Z</time></trkpt><trkpt lat="43.56968391558838" lon="12.147950784125914"><ele>340.0</ele><time>2026-05-01T10:25:11.999Z</time></trkpt><trkpt lat="43.56957991797988" lon="12.148095477782038"><ele>340.0</ele><time>2026-05-01T10:25:12.999Z</time></trkpt><trkpt lat="43.56947074188129" lon="12.148242506306747"><ele>340.0</ele><time>2026-05-01T10:25:13.999Z</time></trkpt><trkpt lat="43.56935724533031" lon="12.148391400944538"><ele>338.3333333333333</ele><time>2026-05-01T10:25:14.999Z</time></trkpt><trkpt lat="43.56924478298606" lon="12.148543353048153"><ele>336.6666666666667</ele><time>2026-05-01T10:25:15.999Z</time></trkpt><trkpt lat="43.5691309300115" lon="12.148704351380877"><ele>335.0</ele><time>2026-05-01T10:25:16.999Z</time></trkpt><trkpt lat="43.5690152754874" lon="12.14886897859452"><ele>335.0</ele><time>2026-05-01T10:25:17.999Z</time></trkpt><trkpt lat="43.56888916185268" lon="12.149025463681658"><ele>335.0</ele><time>2026-05-01T10:25:18.999Z</time></trkpt><trkpt lat="43.56876862128761" lon="12.149186353563518"><ele>335.0</ele><time>2026-05-01T10:25:19.999Z</time></trkpt><trkpt lat="43.56864741604001" lon="12.14933970387193"><ele>334.6666666666667</ele><time>2026-05-01T10:25:20.999Z</time></trkpt><trkpt lat="43.56853087593909" lon="12.149496783141382"><ele>334.3333333333333</ele><time>2026-05-01T10:25:21.999Z</time></trkpt><trkpt lat="43.56842039420682" lon="12.149649595896896"><ele>334.0</ele><time>2026-05-01T10:25:22.999Z</time></trkpt><trkpt lat="43.5683122330852" lon="12.14980669461295"><ele>334.25</ele><time>2026-05-01T10:25:23.999Z</time></trkpt><trkpt lat="43.568203993277756" lon="12.149948368762065"><ele>334.5</ele><time>2026-05-01T10:25:24.999Z</time></trkpt><trkpt lat="43.5680979412081" lon="12.150081309230195"><ele>334.75</ele><time>2026-05-01T10:25:25.999Z</time></trkpt><trkpt lat="43.56799700475941" lon="12.150219449382986"><ele>335.0</ele><time>2026-05-01T10:25:26.999Z</time></trkpt><trkpt lat="43.56789809301097" lon="12.150364988358517"><ele>334.75</ele><time>2026-05-01T10:25:27.999Z</time></trkpt><trkpt lat="43.567794473666474" lon="12.150508544232656"><ele>334.5</ele><time>2026-05-01T10:25:28.999Z</time></trkpt><trkpt lat="43.56769324048821" lon="12.150641532361231"><ele>334.25</ele><time>2026-05-01T10:25:29.999Z</time></trkpt><trkpt lat="43.567601148369654" lon="12.15075734842472"><ele>334.0</ele><time>2026-05-01T10:25:30.999Z</time></trkpt><trkpt lat="43.56751834977272" lon="12.150862143330158"><ele>334.0</ele><time>2026-05-01T10:25:31.999Z</time></trkpt><trkpt lat="43.56742821414696" lon="12.150944743378036"><ele>334.0</ele><time>2026-05-01T10:25:32.999Z</time></trkpt><trkpt lat="43.56733871266024" lon="12.150998864915197"><ele>334.0</ele><time>2026-05-01T10:25:33.999Z</time></trkpt><trkpt lat="43.5672534432304" lon="12.151044711315176"><ele>334.0</ele><time>2026-05-01T10:25:34.999Z</time></trkpt><trkpt lat="43.567175813858725" lon="12.151092505862287"><ele>334.0</ele><time>2026-05-01T10:25:35.999Z</time></trkpt><trkpt lat="43.567105316095976" lon="12.151144431080255"><ele>334.0</ele><time>2026-05-01T10:25:36.999Z</time></trkpt><trkpt lat="43.567041931326855" lon="12.151205497803481"><ele>334.0</ele><time>2026-05-01T10:25:37.999Z</time></trkpt><trkpt lat="43.56698803388499" lon="12.151261479867285"><ele>334.0</ele><time>2026-05-01T10:25:38.999Z</time></trkpt><trkpt lat="43.56692606603169" lon="12.151401094151266"><ele>334.0</ele><time>2026-05-01T10:25:40.999Z</time></trkpt><trkpt lat="43.56693117471267" lon="12.151497566789182"><ele>334.0</ele><time>2026-05-01T10:25:41.999Z</time></trkpt><trkpt lat="43.56694206067109" lon="12.1515967175141"><ele>334.0</ele><time>2026-05-01T10:25:42.999Z</time></trkpt><trkpt lat="43.56694991774107" lon="12.151709391649465"><ele>333.6</ele><time>2026-05-01T10:25:43.999Z</time></trkpt><trkpt lat="43.566933858852494" lon="12.151835348557189"><ele>333.2</ele><time>2026-05-01T10:25:44.999Z</time></trkpt><trkpt lat="43.56689497866907" lon="12.151966474554047"><ele>332.8</ele><time>2026-05-01T10:25:45.999Z</time></trkpt><trkpt lat="43.566841325427625" lon="12.152097520182824"><ele>332.40000000000003</ele><time>2026-05-01T10:25:46.999Z</time></trkpt><trkpt lat="43.56678946880746" lon="12.152233662746447"><ele>332.0</ele><time>2026-05-01T10:25:47.999Z</time></trkpt><trkpt lat="43.56674793950735" lon="12.152367441370673"><ele>332.25</ele><time>2026-05-01T10:25:48.999Z</time></trkpt><trkpt lat="43.56670252554383" lon="12.1525045114177"><ele>332.5</ele><time>2026-05-01T10:25:49.999Z</time></trkpt><trkpt lat="43.56665090150579" lon="12.152644124019991"><ele>332.75</ele><time>2026-05-01T10:25:50.999Z</time></trkpt><trkpt lat="43.56660215957121" lon="12.152784744626405"><ele>333.0</ele><time>2026-05-01T10:25:51.999Z</time></trkpt><trkpt lat="43.56655184982781" lon="12.152930083231325"><ele>333.0</ele><time>2026-05-01T10:25:52.999Z</time></trkpt><trkpt lat="43.5665008850152" lon="12.153076829100021"><ele>333.0</ele><time>2026-05-01T10:25:53.999Z</time></trkpt><trkpt lat="43.56644738725341" lon="12.153230228960993"><ele>333.0</ele><time>2026-05-01T10:25:54.999Z</time></trkpt><trkpt lat="43.56639426245562" lon="12.153385641145949"><ele>333.0</ele><time>2026-05-01T10:25:55.999Z</time></trkpt><trkpt lat="43.566340641281556" lon="12.153542387141165"><ele>333.25</ele><time>2026-05-01T10:25:56.999Z</time></trkpt><trkpt lat="43.566289571666886" lon="12.153695950804938"><ele>333.5</ele><time>2026-05-01T10:25:57.999Z</time></trkpt><trkpt lat="43.56623891835557" lon="12.153847138836698"><ele>333.75</ele><time>2026-05-01T10:25:58.999Z</time></trkpt><trkpt lat="43.56618662909232" lon="12.153999175965748"><ele>334.0</ele><time>2026-05-01T10:25:59.999Z</time></trkpt><trkpt lat="43.56613225848497" lon="12.15415575290478"><ele>334.0</ele><time>2026-05-01T10:26:00.999Z</time></trkpt><trkpt lat="43.566079610783916" lon="12.154319205954701"><ele>334.0</ele><time>2026-05-01T10:26:01.999Z</time></trkpt><trkpt lat="43.56602120445068" lon="12.154476135339854"><ele>334.0</ele><time>2026-05-01T10:26:02.999Z</time></trkpt><trkpt lat="43.56596409204604" lon="12.154632773267306"><ele>334.0</ele><time>2026-05-01T10:26:03.999Z</time></trkpt><trkpt lat="43.56591265860325" lon="12.154796457748912"><ele>334.0</ele><time>2026-05-01T10:26:04.999Z</time></trkpt><trkpt lat="43.565858426874556" lon="12.154959795670688"><ele>334.0</ele><time>2026-05-01T10:26:05.999Z</time></trkpt><trkpt lat="43.56579962887697" lon="12.155125464855352"><ele>334.0</ele><time>2026-05-01T10:26:06.999Z</time></trkpt><trkpt lat="43.56574416689245" lon="12.1552883831733"><ele>334.0</ele><time>2026-05-01T10:26:07.999Z</time></trkpt><trkpt lat="43.565686698423924" lon="12.15548255766461"><ele>334.3333333333333</ele><time>2026-05-01T10:26:08.999Z</time></trkpt><trkpt lat="43.56562062685284" lon="12.15570795551161"><ele>334.6666666666667</ele><time>2026-05-01T10:26:09.999Z</time></trkpt><trkpt lat="43.565542668882806" lon="12.15594071940237"><ele>335.0</ele><time>2026-05-01T10:26:10.999Z</time></trkpt><trkpt lat="43.565457122858206" lon="12.156175306341835"><ele>335.0</ele><time>2026-05-01T10:26:11.999Z</time></trkpt><trkpt lat="43.565372764742165" lon="12.156393637158416"><ele>335.0</ele><time>2026-05-01T10:26:12.999Z</time></trkpt><trkpt lat="43.56528491659307" lon="12.156616783113876"><ele>335.0</ele><time>2026-05-01T10:26:13.999Z</time></trkpt><trkpt lat="43.565200062304555" lon="12.156844979600217"><ele>334.0</ele><time>2026-05-01T10:26:14.999Z</time></trkpt><trkpt lat="43.56512265479736" lon="12.15707771290862"><ele>333.0</ele><time>2026-05-01T10:26:15.999Z</time></trkpt><trkpt lat="43.56505026829327" lon="12.157305063578598"><ele>332.0</ele><time>2026-05-01T10:26:16.999Z</time></trkpt><trkpt lat="43.564980866176285" lon="12.15752666903551"><ele>331.6666666666667</ele><time>2026-05-01T10:26:17.999Z</time></trkpt><trkpt lat="43.56491933166844" lon="12.157745937644279"><ele>331.3333333333333</ele><time>2026-05-01T10:26:18.999Z</time></trkpt><trkpt lat="43.56486427896813" lon="12.157965197062238"><ele>331.0</ele><time>2026-05-01T10:26:20Z</time></trkpt><trkpt lat="43.56480925208868" lon="12.158177455055156"><ele>331.3333333333333</ele><time>2026-05-01T10:26:21Z</time></trkpt><trkpt lat="43.56473126538776" lon="12.158368919779273"><ele>331.6666666666667</ele><time>2026-05-01T10:26:22Z</time></trkpt><trkpt lat="43.564617542257935" lon="12.158537207832428"><ele>332.0</ele><time>2026-05-01T10:26:23Z</time></trkpt><trkpt lat="43.5644855311111" lon="12.158700386474642"><ele>331.33333333333337</ele><time>2026-05-01T10:26:24Z</time></trkpt><trkpt lat="43.56434593689756" lon="12.15885916073901"><ele>330.6666666666667</ele><time>2026-05-01T10:26:25Z</time></trkpt><trkpt lat="43.5641978586456" lon="12.15901736794635"><ele>330.0</ele><time>2026-05-01T10:26:26Z</time></trkpt><trkpt lat="43.56404958430748" lon="12.15917626406498"><ele>330.0</ele><time>2026-05-01T10:26:27Z</time></trkpt><trkpt lat="43.563902733990155" lon="12.159333600361864"><ele>330.0</ele><time>2026-05-01T10:26:28Z</time></trkpt><trkpt lat="43.56375103366537" lon="12.159491453094034"><ele>330.0</ele><time>2026-05-01T10:26:29Z</time></trkpt><trkpt lat="43.563601472703006" lon="12.159646201165065"><ele>329.6666666666667</ele><time>2026-05-01T10:26:30Z</time></trkpt><trkpt lat="43.5634545467966" lon="12.159798024124525"><ele>329.33333333333337</ele><time>2026-05-01T10:26:31Z</time></trkpt><trkpt lat="43.563304185736584" lon="12.159955413136153"><ele>329.0</ele><time>2026-05-01T10:26:32Z</time></trkpt><trkpt lat="43.56315419493611" lon="12.16011053813471"><ele>329.33333333333337</ele><time>2026-05-01T10:26:33Z</time></trkpt><trkpt lat="43.56300312109156" lon="12.160265011565187"><ele>329.6666666666667</ele><time>2026-05-01T10:26:34Z</time></trkpt><trkpt lat="43.562852027120336" lon="12.160418781381676"><ele>330.0</ele><time>2026-05-01T10:26:35Z</time></trkpt><trkpt lat="43.56269994220023" lon="12.16057345847809"><ele>330.3333333333333</ele><time>2026-05-01T10:26:36Z</time></trkpt><trkpt lat="43.562549819111176" lon="12.160727829716848"><ele>330.66666666666663</ele><time>2026-05-01T10:26:37Z</time></trkpt><trkpt lat="43.562411207146305" lon="12.16087624782371"><ele>331.0</ele><time>2026-05-01T10:26:38Z</time></trkpt><trkpt lat="43.56228002891012" lon="12.161014743797285"><ele>331.0</ele><time>2026-05-01T10:26:39Z</time></trkpt><trkpt lat="43.5621533000793" lon="12.161145330965578"><ele>331.0</ele><time>2026-05-01T10:26:40Z</time></trkpt><trkpt lat="43.56203455327702" lon="12.161267654980005"><ele>331.0</ele><time>2026-05-01T10:26:41Z</time></trkpt><trkpt lat="43.561919780095394" lon="12.161386560713447"><ele>330.5</ele><time>2026-05-01T10:26:42Z</time></trkpt><trkpt lat="43.561810702231675" lon="12.161499157678143"><ele>330.0</ele><time>2026-05-01T10:26:43Z</time></trkpt><trkpt lat="43.56170759577877" lon="12.161596397628163"><ele>329.5</ele><time>2026-05-01T10:26:44Z</time></trkpt><trkpt lat="43.56160611230484" lon="12.161681767613155"><ele>329.0</ele><time>2026-05-01T10:26:45Z</time></trkpt><trkpt lat="43.56150045615437" lon="12.161746633697089"><ele>329.0</ele><time>2026-05-01T10:26:46Z</time></trkpt><trkpt lat="43.561389635103446" lon="12.161800395260501"><ele>329.0</ele><time>2026-05-01T10:26:47Z</time></trkpt><trkpt lat="43.561284784644045" lon="12.161882363456105"><ele>329.0</ele><time>2026-05-01T10:26:48Z</time></trkpt><trkpt lat="43.56119799215582" lon="12.162013275051168"><ele>329.0</ele><time>2026-05-01T10:26:49Z</time></trkpt><trkpt lat="43.56112382134251" lon="12.162153195175717"><ele>329.25</ele><time>2026-05-01T10:26:50Z</time></trkpt><trkpt lat="43.56103057248442" lon="12.162282457017424"><ele>329.5</ele><time>2026-05-01T10:26:51Z</time></trkpt><trkpt lat="43.56092291360889" lon="12.162398551972919"><ele>329.75</ele><time>2026-05-01T10:26:52Z</time></trkpt><trkpt lat="43.56080638643906" lon="12.162507568081656"><ele>330.0</ele><time>2026-05-01T10:26:53Z</time></trkpt><trkpt lat="43.56069035431862" lon="12.162626934804578"><ele>330.0</ele><time>2026-05-01T10:26:54Z</time></trkpt><trkpt lat="43.56056872485554" lon="12.16275267653284"><ele>330.0</ele><time>2026-05-01T10:26:55Z</time></trkpt><trkpt lat="43.56043965117177" lon="12.162879356244542"><ele>330.0</ele><time>2026-05-01T10:26:56Z</time></trkpt><trkpt lat="43.56030577534584" lon="12.163013124392027"><ele>329.6666666666667</ele><time>2026-05-01T10:26:57Z</time></trkpt><trkpt lat="43.56017441390048" lon="12.163147700207334"><ele>329.33333333333337</ele><time>2026-05-01T10:26:58Z</time></trkpt><trkpt lat="43.560038371196704" lon="12.16328261482192"><ele>329.0</ele><time>2026-05-01T10:26:59Z</time></trkpt><trkpt lat="43.55990368767693" lon="12.16342020034478"><ele>329.0</ele><time>2026-05-01T10:27:00Z</time></trkpt><trkpt lat="43.55977089065062" lon="12.163555172957489"><ele>329.0</ele><time>2026-05-01T10:27:01Z</time></trkpt><trkpt lat="43.55965163019924" lon="12.163677850986124"><ele>329.0</ele><time>2026-05-01T10:27:02Z</time></trkpt><trkpt lat="43.559538894137866" lon="12.163790559566165"><ele>328.75</ele><time>2026-05-01T10:27:03Z</time></trkpt><trkpt lat="43.55943455589664" lon="12.16389767022504"><ele>328.5</ele><time>2026-05-01T10:27:04Z</time></trkpt><trkpt lat="43.559336736451016" lon="12.163997858194437"><ele>328.25</ele><time>2026-05-01T10:27:05Z</time></trkpt><trkpt lat="43.55924262531986" lon="12.164100671324917"><ele>328.0</ele><time>2026-05-01T10:27:06Z</time></trkpt><trkpt lat="43.559144199867" lon="12.164203592352557"><ele>328.0</ele><time>2026-05-01T10:27:07Z</time></trkpt><trkpt lat="43.559041337831594" lon="12.164307059580853"><ele>328.0</ele><time>2026-05-01T10:27:08Z</time></trkpt><trkpt lat="43.55893532740944" lon="12.164416958134286"><ele>328.0</ele><time>2026-05-01T10:27:09Z</time></trkpt><trkpt lat="43.55882702913012" lon="12.164530235815535"><ele>328.0</ele><time>2026-05-01T10:27:10Z</time></trkpt><trkpt lat="43.55871438412729" lon="12.164644287346379"><ele>328.0</ele><time>2026-05-01T10:27:11Z</time></trkpt><trkpt lat="43.55860122847953" lon="12.164760415883553"><ele>328.0</ele><time>2026-05-01T10:27:12Z</time></trkpt><trkpt lat="43.558484977274546" lon="12.164877394900342"><ele>328.0</ele><time>2026-05-01T10:27:13Z</time></trkpt><trkpt lat="43.55836835649907" lon="12.164998710540809"><ele>328.0</ele><time>2026-05-01T10:27:14Z</time></trkpt><trkpt lat="43.5582508312807" lon="12.16512690190864"><ele>328.0</ele><time>2026-05-01T10:27:15Z</time></trkpt><trkpt lat="43.55813064251808" lon="12.16524937838249"><ele>328.0</ele><time>2026-05-01T10:27:16Z</time></trkpt><trkpt lat="43.55800663138076" lon="12.165370724147303"><ele>328.0</ele><time>2026-05-01T10:27:17Z</time></trkpt><trkpt lat="43.557884191717356" lon="12.165494454413977"><ele>327.66666666666663</ele><time>2026-05-01T10:27:18Z</time></trkpt><trkpt lat="43.55776242618287" lon="12.165617781668148"><ele>327.3333333333333</ele><time>2026-05-01T10:27:19Z</time></trkpt><trkpt lat="43.55763991607616" lon="12.165745743782157"><ele>327.0</ele><time>2026-05-01T10:27:20Z</time></trkpt><trkpt lat="43.557522809692095" lon="12.1658644274009"><ele>327.5</ele><time>2026-05-01T10:27:21Z</time></trkpt><trkpt lat="43.557406161648544" lon="12.165985049923153"><ele>328.0</ele><time>2026-05-01T10:27:22Z</time></trkpt><trkpt lat="43.557291702434085" lon="12.166102848590874"><ele>328.5</ele><time>2026-05-01T10:27:23Z</time></trkpt><trkpt lat="43.55718054276565" lon="12.1662199965648"><ele>329.0</ele><time>2026-05-01T10:27:24Z</time></trkpt><trkpt lat="43.557068619400404" lon="12.166337470476515"><ele>328.75</ele><time>2026-05-01T10:27:25Z</time></trkpt><trkpt lat="43.55695763084911" lon="12.166452920803012"><ele>328.5</ele><time>2026-05-01T10:27:26Z</time></trkpt><trkpt lat="43.556847241029445" lon="12.166564262036735"><ele>328.25</ele><time>2026-05-01T10:27:27Z</time></trkpt><trkpt lat="43.556757816989794" lon="12.166654096999132"><ele>328.0</ele><time>2026-05-01T10:27:28Z</time></trkpt><trkpt lat="43.55668212161711" lon="12.166719806003384"><ele>328.4</ele><time>2026-05-01T10:27:29Z</time></trkpt><trkpt lat="43.556610603581866" lon="12.166780098489783"><ele>328.79999999999995</ele><time>2026-05-01T10:27:30Z</time></trkpt><trkpt lat="43.55654275868388" lon="12.166851983350094"><ele>329.2</ele><time>2026-05-01T10:27:31Z</time></trkpt><trkpt lat="43.556469337581476" lon="12.166934822308862"><ele>329.6</ele><time>2026-05-01T10:27:32Z</time></trkpt><trkpt lat="43.556388395223664" lon="12.16702620378439"><ele>330.0</ele><time>2026-05-01T10:27:33Z</time></trkpt><trkpt lat="43.55630085811013" lon="12.167119063795488"><ele>330.0</ele><time>2026-05-01T10:27:34Z</time></trkpt><trkpt lat="43.556207234600976" lon="12.167212683206827"><ele>330.0</ele><time>2026-05-01T10:27:35Z</time></trkpt><trkpt lat="43.55611074070621" lon="12.167309963031737"><ele>330.0</ele><time>2026-05-01T10:27:36Z</time></trkpt><trkpt lat="43.55601273449436" lon="12.167408347521006"><ele>330.0</ele><time>2026-05-01T10:27:37Z</time></trkpt><trkpt lat="43.55591090126695" lon="12.167509251759535"><ele>330.25</ele><time>2026-05-01T10:27:38Z</time></trkpt><trkpt lat="43.55580683606462" lon="12.167611309668075"><ele>330.5</ele><time>2026-05-01T10:27:39Z</time></trkpt><trkpt lat="43.55570318955641" lon="12.16771888543121"><ele>330.75</ele><time>2026-05-01T10:27:40Z</time></trkpt><trkpt lat="43.55560159050041" lon="12.167830537444708"><ele>331.0</ele><time>2026-05-01T10:27:41Z</time></trkpt><trkpt lat="43.55549765217632" lon="12.167941978915003"><ele>331.0</ele><time>2026-05-01T10:27:42Z</time></trkpt><trkpt lat="43.55539044527805" lon="12.16804863449855"><ele>331.0</ele><time>2026-05-01T10:27:43Z</time></trkpt><trkpt lat="43.555279738881396" lon="12.168158203139647"><ele>331.0</ele><time>2026-05-01T10:27:44Z</time></trkpt><trkpt lat="43.555165373365874" lon="12.168272809936129"><ele>331.0</ele><time>2026-05-01T10:27:45Z</time></trkpt><trkpt lat="43.55503912490789" lon="12.168394073509896"><ele>330.66666666666663</ele><time>2026-05-01T10:27:46Z</time></trkpt><trkpt lat="43.55490775890945" lon="12.168522238615411"><ele>330.3333333333333</ele><time>2026-05-01T10:27:47Z</time></trkpt><trkpt lat="43.5547771899915" lon="12.168656490376833"><ele>330.0</ele><time>2026-05-01T10:27:48Z</time></trkpt><trkpt lat="43.55464127267558" lon="12.168794380318552"><ele>330.0</ele><time>2026-05-01T10:27:49Z</time></trkpt><trkpt lat="43.55450141922829" lon="12.168932450501355"><ele>330.0</ele><time>2026-05-01T10:27:50Z</time></trkpt><trkpt lat="43.55436057907014" lon="12.169072544238322"><ele>330.0</ele><time>2026-05-01T10:27:51Z</time></trkpt><trkpt lat="43.55422096305592" lon="12.169215805410666"><ele>329.0</ele><time>2026-05-01T10:27:52Z</time></trkpt><trkpt lat="43.55408141993053" lon="12.1693614215187"><ele>328.0</ele><time>2026-05-01T10:27:53Z</time></trkpt><trkpt lat="43.553938099010416" lon="12.1695027557945"><ele>327.0</ele><time>2026-05-01T10:27:54Z</time></trkpt><trkpt lat="43.55379559329269" lon="12.16964530792157"><ele>327.3333333333333</ele><time>2026-05-01T10:27:55Z</time></trkpt><trkpt lat="43.55365953253523" lon="12.169784067782246"><ele>327.66666666666663</ele><time>2026-05-01T10:27:56Z</time></trkpt><trkpt lat="43.55353105706945" lon="12.169918284549965"><ele>328.0</ele><time>2026-05-01T10:27:57Z</time></trkpt><trkpt lat="43.55340519786279" lon="12.170051596927863"><ele>328.0</ele><time>2026-05-01T10:27:58Z</time></trkpt><trkpt lat="43.55328680257564" lon="12.17019700202645"><ele>328.0</ele><time>2026-05-01T10:27:59Z</time></trkpt><trkpt lat="43.55317473643988" lon="12.170357889813143"><ele>328.0</ele><time>2026-05-01T10:28:00Z</time></trkpt><trkpt lat="43.55306542408934" lon="12.170521167336256"><ele>328.0</ele><time>2026-05-01T10:28:01Z</time></trkpt><trkpt lat="43.55295738919504" lon="12.170681590537917"><ele>328.0</ele><time>2026-05-01T10:28:02Z</time></trkpt><trkpt lat="43.5528489623501" lon="12.170830499414514"><ele>328.0</ele><time>2026-05-01T10:28:03Z</time></trkpt><trkpt lat="43.55274491464579" lon="12.170975422209501"><ele>328.25</ele><time>2026-05-01T10:28:04Z</time></trkpt><trkpt lat="43.552641235265284" lon="12.171117608550807"><ele>328.5</ele><time>2026-05-01T10:28:05Z</time></trkpt><trkpt lat="43.55253571837698" lon="12.171263980037793"><ele>328.75</ele><time>2026-05-01T10:28:05.999Z</time></trkpt><trkpt lat="43.55242813271267" lon="12.17141538257152"><ele>329.0</ele><time>2026-05-01T10:28:06.999Z</time></trkpt><trkpt lat="43.552315625572085" lon="12.17156521683712"><ele>328.33333333333337</ele><time>2026-05-01T10:28:07.999Z</time></trkpt><trkpt lat="43.55220748576867" lon="12.1717240010336"><ele>327.6666666666667</ele><time>2026-05-01T10:28:08.999Z</time></trkpt><trkpt lat="43.55209575621331" lon="12.171881686832714"><ele>327.0</ele><time>2026-05-01T10:28:09.999Z</time></trkpt><trkpt lat="43.551994074874294" lon="12.172030729062506"><ele>326.6666666666667</ele><time>2026-05-01T10:28:10.999Z</time></trkpt><trkpt lat="43.55189294132957" lon="12.172176547088158"><ele>326.33333333333337</ele><time>2026-05-01T10:28:11.999Z</time></trkpt><trkpt lat="43.5517839016575" lon="12.172331461690257"><ele>326.0</ele><time>2026-05-01T10:28:12.999Z</time></trkpt><trkpt lat="43.55167925570456" lon="12.172478209396726"><ele>326.5</ele><time>2026-05-01T10:28:13.999Z</time></trkpt><trkpt lat="43.55157947478715" lon="12.172614054967012"><ele>327.0</ele><time>2026-05-01T10:28:14.999Z</time></trkpt><trkpt lat="43.55148021491503" lon="12.172752047532525"><ele>327.5</ele><time>2026-05-01T10:28:15.999Z</time></trkpt><trkpt lat="43.55138761203803" lon="12.172887760946242"><ele>328.0</ele><time>2026-05-01T10:28:16.999Z</time></trkpt><trkpt lat="43.551290742957164" lon="12.173024471029672"><ele>328.0</ele><time>2026-05-01T10:28:17.999Z</time></trkpt><trkpt lat="43.551192568384444" lon="12.173158702955831"><ele>328.0</ele><time>2026-05-01T10:28:18.999Z</time></trkpt><trkpt lat="43.551093489989896" lon="12.17329554997649"><ele>328.0</ele><time>2026-05-01T10:28:19.999Z</time></trkpt><trkpt lat="43.5509962088633" lon="12.173433024223062"><ele>328.0</ele><time>2026-05-01T10:28:20.999Z</time></trkpt><trkpt lat="43.55089917227702" lon="12.173571851948747"><ele>328.0</ele><time>2026-05-01T10:28:21.999Z</time></trkpt><trkpt lat="43.55079899735067" lon="12.173708710595863"><ele>328.0</ele><time>2026-05-01T10:28:22.999Z</time></trkpt><trkpt lat="43.55069964478861" lon="12.17384609033471"><ele>328.0</ele><time>2026-05-01T10:28:23.999Z</time></trkpt><trkpt lat="43.550602649282375" lon="12.173985060562616"><ele>328.0</ele><time>2026-05-01T10:28:24.999Z</time></trkpt><trkpt lat="43.55050701325831" lon="12.174121795138738"><ele>328.25</ele><time>2026-05-01T10:28:26Z</time></trkpt><trkpt lat="43.55041258947408" lon="12.174253906109179"><ele>328.5</ele><time>2026-05-01T10:28:27Z</time></trkpt><trkpt lat="43.55032428997274" lon="12.174378348118797"><ele>328.75</ele><time>2026-05-01T10:28:28Z</time></trkpt><trkpt lat="43.550245177679756" lon="12.174490456614432"><ele>329.0</ele><time>2026-05-01T10:28:29Z</time></trkpt><trkpt lat="43.55017415935853" lon="12.174586585005075"><ele>329.0</ele><time>2026-05-01T10:28:30Z</time></trkpt><trkpt lat="43.550110653086094" lon="12.174682381805018"><ele>329.0</ele><time>2026-05-01T10:28:31Z</time></trkpt><trkpt lat="43.55004583810151" lon="12.174773769983974"><ele>329.0</ele><time>2026-05-01T10:28:32Z</time></trkpt><trkpt lat="43.54998277464623" lon="12.174858326984143"><ele>329.0</ele><time>2026-05-01T10:28:33Z</time></trkpt><trkpt lat="43.5499236722842" lon="12.174946260028678"><ele>329.0</ele><time>2026-05-01T10:28:34Z</time></trkpt><trkpt lat="43.54986006267279" lon="12.175035082428197"><ele>329.2</ele><time>2026-05-01T10:28:35Z</time></trkpt><trkpt lat="43.54979570254353" lon="12.175125454546782"><ele>329.4</ele><time>2026-05-01T10:28:36Z</time></trkpt><trkpt lat="43.54972876517055" lon="12.17521586529592"><ele>329.6</ele><time>2026-05-01T10:28:37Z</time></trkpt><trkpt lat="43.54966531461989" lon="12.175310520822599"><ele>329.8</ele><time>2026-05-01T10:28:38Z</time></trkpt><trkpt lat="43.54959587269957" lon="12.175402539711884"><ele>330.0</ele><time>2026-05-01T10:28:39Z</time></trkpt><trkpt lat="43.54952482433049" lon="12.175493752958111"><ele>330.0</ele><time>2026-05-01T10:28:40Z</time></trkpt><trkpt lat="43.54945181289944" lon="12.175584390436166"><ele>330.0</ele><time>2026-05-01T10:28:41Z</time></trkpt><trkpt lat="43.54938218523702" lon="12.17568018098021"><ele>330.0</ele><time>2026-05-01T10:28:42Z</time></trkpt><trkpt lat="43.54931060487951" lon="12.175776688062575"><ele>330.0</ele><time>2026-05-01T10:28:43Z</time></trkpt><trkpt lat="43.54923900733159" lon="12.17587578527644"><ele>330.0</ele><time>2026-05-01T10:28:44Z</time></trkpt><trkpt lat="43.54916766738396" lon="12.17597482689396"><ele>330.3333333333333</ele><time>2026-05-01T10:28:45Z</time></trkpt><trkpt lat="43.54909776392062" lon="12.176073794887028"><ele>330.6666666666667</ele><time>2026-05-01T10:28:46Z</time></trkpt><trkpt lat="43.549031072999284" lon="12.176166895737033"><ele>331.0</ele><time>2026-05-01T10:28:47Z</time></trkpt><trkpt lat="43.54896843218693" lon="12.176253646357011"><ele>331.33333333333337</ele><time>2026-05-01T10:28:48Z</time></trkpt><trkpt lat="43.54890957176247" lon="12.176335929260954"><ele>331.6666666666667</ele><time>2026-05-01T10:28:49Z</time></trkpt><trkpt lat="43.54885599506992" lon="12.176409026721817"><ele>332.0</ele><time>2026-05-01T10:28:50Z</time></trkpt><trkpt lat="43.54878799474087" lon="12.176501917567734"><ele>332.33333333333337</ele><time>2026-05-01T10:28:52Z</time></trkpt><trkpt lat="43.54873361570144" lon="12.176589336557681"><ele>332.6666666666667</ele><time>2026-05-01T10:28:54Z</time></trkpt><trkpt lat="43.54868534163805" lon="12.176683271432339"><ele>333.0</ele><time>2026-05-01T10:28:56Z</time></trkpt><trkpt lat="43.54869070932425" lon="12.176789240677548"><ele>333.3333333333333</ele><time>2026-05-01T10:28:58Z</time></trkpt><trkpt lat="43.54874505152627" lon="12.176866177026595"><ele>333.66666666666663</ele><time>2026-05-01T10:29:00Z</time></trkpt><trkpt lat="43.54882651256141" lon="12.176956150557936"><ele>334.0</ele><time>2026-05-01T10:29:02Z</time></trkpt><trkpt lat="43.548912694053286" lon="12.177076699750966"><ele>334.0</ele><time>2026-05-01T10:29:04Z</time></trkpt><trkpt lat="43.549000992684455" lon="12.17717123100476"><ele>334.0</ele><time>2026-05-01T10:29:06Z</time></trkpt><trkpt lat="43.549061964429676" lon="12.177243583504268"><ele>334.0</ele><time>2026-05-01T10:29:08Z</time></trkpt><trkpt lat="43.54908870402996" lon="12.17735081214508"><ele>334.0</ele><time>2026-05-01T10:29:10Z</time></trkpt><trkpt lat="43.54903558430921" lon="12.177489339167549"><ele>334.0</ele><time>2026-05-01T10:29:12Z</time></trkpt><trkpt lat="43.548996600844845" lon="12.177593723182248"><ele>333.25</ele><time>2026-05-01T10:29:13Z</time></trkpt><trkpt lat="43.548942602125486" lon="12.177725233713463"><ele>332.5</ele><time>2026-05-01T10:29:14Z</time></trkpt><trkpt lat="43.54886556140559" lon="12.177866918079987"><ele>331.75</ele><time>2026-05-01T10:29:15Z</time></trkpt><trkpt lat="43.54878741379011" lon="12.17801674098804"><ele>331.0</ele><time>2026-05-01T10:29:16Z</time></trkpt><trkpt lat="43.54870182235771" lon="12.178181993424126"><ele>330.0</ele><time>2026-05-01T10:29:17Z</time></trkpt><trkpt lat="43.548603220191595" lon="12.178374890026957"><ele>329.0</ele><time>2026-05-01T10:29:18Z</time></trkpt><trkpt lat="43.54850000172243" lon="12.178580755984411"><ele>328.0</ele><time>2026-05-01T10:29:19Z</time></trkpt><trkpt lat="43.548397063570576" lon="12.178768171962044"><ele>328.0</ele><time>2026-05-01T10:29:20Z</time></trkpt><trkpt lat="43.54828440506361" lon="12.178961839942149"><ele>328.0</ele><time>2026-05-01T10:29:21Z</time></trkpt><trkpt lat="43.54816918190813" lon="12.179167368024055"><ele>328.0</ele><time>2026-05-01T10:29:22Z</time></trkpt><trkpt lat="43.548053908948425" lon="12.179384034238701"><ele>328.3333333333333</ele><time>2026-05-01T10:29:23Z</time></trkpt><trkpt lat="43.54794603295598" lon="12.179598049987352"><ele>328.6666666666667</ele><time>2026-05-01T10:29:24Z</time></trkpt><trkpt lat="43.547829655108025" lon="12.179814408531252"><ele>329.0</ele><time>2026-05-01T10:29:25Z</time></trkpt><trkpt lat="43.54771386868409" lon="12.180031356824658"><ele>329.0</ele><time>2026-05-01T10:29:26Z</time></trkpt><trkpt lat="43.54759791944484" lon="12.180248728350296"><ele>329.0</ele><time>2026-05-01T10:29:27Z</time></trkpt><trkpt lat="43.54748677754589" lon="12.18046427865911"><ele>329.0</ele><time>2026-05-01T10:29:28Z</time></trkpt><trkpt lat="43.54737370951195" lon="12.180687969661316"><ele>329.0</ele><time>2026-05-01T10:29:29Z</time></trkpt><trkpt lat="43.54726197895291" lon="12.180897965203702"><ele>329.0</ele><time>2026-05-01T10:29:30Z</time></trkpt><trkpt lat="43.547148947711136" lon="12.18111760371406"><ele>329.0</ele><time>2026-05-01T10:29:31Z</time></trkpt><trkpt lat="43.547042550307516" lon="12.18131689712754"><ele>328.79999999999995</ele><time>2026-05-01T10:29:32Z</time></trkpt><trkpt lat="43.54696114202466" lon="12.181491750509231"><ele>328.59999999999997</ele><time>2026-05-01T10:29:33Z</time></trkpt><trkpt lat="43.54689364682941" lon="12.181620868763721"><ele>328.4</ele><time>2026-05-01T10:29:34Z</time></trkpt><trkpt lat="43.54685787033504" lon="12.18170596577697"><ele>328.2</ele><time>2026-05-01T10:29:35Z</time></trkpt><trkpt lat="43.54687203589301" lon="12.181829692241525"><ele>328.0</ele><time>2026-05-01T10:29:36Z</time></trkpt><trkpt lat="43.54687973572011" lon="12.181950740058298"><ele>328.0</ele><time>2026-05-01T10:29:37Z</time></trkpt><trkpt lat="43.54691924132666" lon="12.182057416673548"><ele>328.0</ele><time>2026-05-01T10:29:38Z</time></trkpt><trkpt lat="43.54698145696189" lon="12.182152593597749"><ele>328.0</ele><time>2026-05-01T10:29:39Z</time></trkpt><trkpt lat="43.547065864832646" lon="12.182220815113396"><ele>328.0</ele><time>2026-05-01T10:29:40Z</time></trkpt><trkpt lat="43.54717610842163" lon="12.182251906299614"><ele>328.0</ele><time>2026-05-01T10:29:41Z</time></trkpt><trkpt lat="43.5472943689191" lon="12.182264473610626"><ele>328.5</ele><time>2026-05-01T10:29:42Z</time></trkpt><trkpt lat="43.54741300459284" lon="12.182292098163247"><ele>329.0</ele><time>2026-05-01T10:29:43Z</time></trkpt><trkpt lat="43.54754418766863" lon="12.182328124560335"><ele>329.5</ele><time>2026-05-01T10:29:44Z</time></trkpt><trkpt lat="43.5476649562115" lon="12.182357620580369"><ele>330.0</ele><time>2026-05-01T10:29:45Z</time></trkpt><trkpt lat="43.547786587742465" lon="12.182388386581536"><ele>331.0</ele><time>2026-05-01T10:29:46Z</time></trkpt><trkpt lat="43.547910886380606" lon="12.182412387888313"><ele>332.0</ele><time>2026-05-01T10:29:47Z</time></trkpt><trkpt lat="43.548035766742295" lon="12.18241708510534"><ele>333.0</ele><time>2026-05-01T10:29:48Z</time></trkpt><trkpt lat="43.548156542980855" lon="12.182377778199141"><ele>334.0</ele><time>2026-05-01T10:29:49Z</time></trkpt><trkpt lat="43.5482767681968" lon="12.182312258058897"><ele>334.0</ele><time>2026-05-01T10:29:50Z</time></trkpt><trkpt lat="43.54839766770336" lon="12.182226460489014"><ele>334.0</ele><time>2026-05-01T10:29:51Z</time></trkpt><trkpt lat="43.54852083039908" lon="12.182138935784256"><ele>334.0</ele><time>2026-05-01T10:29:52Z</time></trkpt><trkpt lat="43.54864683625482" lon="12.182062499393902"><ele>334.0</ele><time>2026-05-01T10:29:53Z</time></trkpt><trkpt lat="43.548761402305296" lon="12.18199772562448"><ele>335.4</ele><time>2026-05-01T10:29:54Z</time></trkpt><trkpt lat="43.54886693215888" lon="12.181949668297522"><ele>336.79999999999995</ele><time>2026-05-01T10:29:55Z</time></trkpt><trkpt lat="43.54896343317787" lon="12.181924814916329"><ele>338.20000000000005</ele><time>2026-05-01T10:29:56Z</time></trkpt><trkpt lat="43.54906027368801" lon="12.18195734845106"><ele>339.6</ele><time>2026-05-01T10:29:57Z</time></trkpt><trkpt lat="43.549155964150856" lon="12.182018466690803"><ele>341.0</ele><time>2026-05-01T10:29:58Z</time></trkpt><trkpt lat="43.54920228430513" lon="12.182096466829524"><ele>341.0</ele><time>2026-05-01T10:29:59Z</time></trkpt><trkpt lat="43.54922848069514" lon="12.18217874179045"><ele>341.0</ele><time>2026-05-01T10:30:00Z</time></trkpt><trkpt lat="43.549284424519556" lon="12.182342403150033"><ele>341.0</ele><time>2026-05-01T10:30:02Z</time></trkpt><trkpt lat="43.54932676965495" lon="12.182408399860476"><ele>341.0</ele><time>2026-05-01T10:30:03Z</time></trkpt><trkpt lat="43.54939253305133" lon="12.182456730937629"><ele>341.0</ele><time>2026-05-01T10:30:04Z</time></trkpt><trkpt lat="43.54947475888829" lon="12.182486309026803"><ele>341.0</ele><time>2026-05-01T10:30:05Z</time></trkpt><trkpt lat="43.5495782290943" lon="12.182499005443997"><ele>343.0</ele><time>2026-05-01T10:30:06Z</time></trkpt><trkpt lat="43.54969123411439" lon="12.18251473471313"><ele>345.0</ele><time>2026-05-01T10:30:07Z</time></trkpt><trkpt lat="43.549816191979936" lon="12.182554713151877"><ele>347.0</ele><time>2026-05-01T10:30:08Z</time></trkpt><trkpt lat="43.549931369532025" lon="12.182617170306488"><ele>349.0</ele><time>2026-05-01T10:30:09Z</time></trkpt><trkpt lat="43.55005016271644" lon="12.182697969841884"><ele>349.0</ele><time>2026-05-01T10:30:10Z</time></trkpt><trkpt lat="43.55017235923" lon="12.182785863840191"><ele>349.0</ele><time>2026-05-01T10:30:11Z</time></trkpt><trkpt lat="43.5502987361727" lon="12.18288084561464"><ele>349.0</ele><time>2026-05-01T10:30:12Z</time></trkpt><trkpt lat="43.55043086603037" lon="12.182970026974514"><ele>349.0</ele><time>2026-05-01T10:30:13Z</time></trkpt><trkpt lat="43.550565830436845" lon="12.18306782269091"><ele>349.0</ele><time>2026-05-01T10:30:14Z</time></trkpt><trkpt lat="43.55069612360091" lon="12.183165263063652"><ele>349.0</ele><time>2026-05-01T10:30:15Z</time></trkpt><trkpt lat="43.550825450558094" lon="12.183264977750245"><ele>349.0</ele><time>2026-05-01T10:30:16Z</time></trkpt><trkpt lat="43.55095755686104" lon="12.183368207489266"><ele>349.0</ele><time>2026-05-01T10:30:17Z</time></trkpt><trkpt lat="43.55109253097083" lon="12.183469188114113"><ele>352.0</ele><time>2026-05-01T10:30:18Z</time></trkpt><trkpt lat="43.5512276983466" lon="12.183571233829019"><ele>355.0</ele><time>2026-05-01T10:30:19Z</time></trkpt><trkpt lat="43.55136334736875" lon="12.18367790495391"><ele>358.0</ele><time>2026-05-01T10:30:20Z</time></trkpt><trkpt lat="43.55149601257199" lon="12.183784723554625"><ele>358.0</ele><time>2026-05-01T10:30:21Z</time></trkpt><trkpt lat="43.55162524318381" lon="12.183881407124776"><ele>358.0</ele><time>2026-05-01T10:30:22Z</time></trkpt><trkpt lat="43.551748639436596" lon="12.183952268508556"><ele>358.0</ele><time>2026-05-01T10:30:23Z</time></trkpt><trkpt lat="43.55187605052465" lon="12.183981384185554"><ele>358.0</ele><time>2026-05-01T10:30:24Z</time></trkpt><trkpt lat="43.552019572656135" lon="12.183967924782424"><ele>360.0</ele><time>2026-05-01T10:30:25Z</time></trkpt><trkpt lat="43.55217031117297" lon="12.183924883061028"><ele>362.0</ele><time>2026-05-01T10:30:26Z</time></trkpt><trkpt lat="43.55233135540688" lon="12.183888674745882"><ele>364.0</ele><time>2026-05-01T10:30:27Z</time></trkpt><trkpt lat="43.55249443209613" lon="12.183860899650313"><ele>364.0</ele><time>2026-05-01T10:30:28Z</time></trkpt><trkpt lat="43.55267219096948" lon="12.183837555278501"><ele>364.0</ele><time>2026-05-01T10:30:29Z</time></trkpt><trkpt lat="43.55284540339356" lon="12.183802778376199"><ele>364.0</ele><time>2026-05-01T10:30:30Z</time></trkpt><trkpt lat="43.55302242468822" lon="12.183765515525494"><ele>365.66666666666663</ele><time>2026-05-01T10:30:31Z</time></trkpt><trkpt lat="43.553201594270924" lon="12.183732267456634"><ele>367.3333333333333</ele><time>2026-05-01T10:30:32Z</time></trkpt><trkpt lat="43.553385498999056" lon="12.183704375075804"><ele>369.0</ele><time>2026-05-01T10:30:33Z</time></trkpt><trkpt lat="43.55356670298552" lon="12.18367411796959"><ele>372.0</ele><time>2026-05-01T10:30:34Z</time></trkpt><trkpt lat="43.5537458015208" lon="12.183639356861175"><ele>375.0</ele><time>2026-05-01T10:30:35Z</time></trkpt><trkpt lat="43.55391565440035" lon="12.183589982862522"><ele>378.0</ele><time>2026-05-01T10:30:36Z</time></trkpt><trkpt lat="43.554065956177595" lon="12.18351999748285"><ele>378.0</ele><time>2026-05-01T10:30:37Z</time></trkpt><trkpt lat="43.55419861695094" lon="12.18344093938363"><ele>378.0</ele><time>2026-05-01T10:30:38Z</time></trkpt><trkpt lat="43.55431494354298" lon="12.183362644846616"><ele>378.0</ele><time>2026-05-01T10:30:39Z</time></trkpt><trkpt lat="43.55441341746638" lon="12.183296364289369"><ele>378.0</ele><time>2026-05-01T10:30:40Z</time></trkpt><trkpt lat="43.554501972231506" lon="12.183252654455362"><ele>378.59999999999997</ele><time>2026-05-01T10:30:41Z</time></trkpt><trkpt lat="43.554587053494416" lon="12.18326344795402"><ele>379.2</ele><time>2026-05-01T10:30:42Z</time></trkpt><trkpt lat="43.55465708020452" lon="12.183330784427223"><ele>379.8</ele><time>2026-05-01T10:30:43Z</time></trkpt><trkpt lat="43.55468122324138" lon="12.183448052730032"><ele>380.4</ele><time>2026-05-01T10:30:44Z</time></trkpt><trkpt lat="43.55465146519171" lon="12.18357837020668"><ele>381.0</ele><time>2026-05-01T10:30:45Z</time></trkpt><trkpt lat="43.55458432501267" lon="12.18370185407331"><ele>380.25</ele><time>2026-05-01T10:30:46Z</time></trkpt><trkpt lat="43.554504567397565" lon="12.183826743026676"><ele>379.5</ele><time>2026-05-01T10:30:47Z</time></trkpt><trkpt lat="43.5544169888756" lon="12.183948348880026"><ele>378.75</ele><time>2026-05-01T10:30:48Z</time></trkpt><trkpt lat="43.554333409668644" lon="12.184091201922046"><ele>378.0</ele><time>2026-05-01T10:30:49Z</time></trkpt><trkpt lat="43.554249517795384" lon="12.184242475236578"><ele>380.0</ele><time>2026-05-01T10:30:50Z</time></trkpt><trkpt lat="43.55416435112832" lon="12.184394926799685"><ele>382.0</ele><time>2026-05-01T10:30:51Z</time></trkpt><trkpt lat="43.554068622488295" lon="12.184543523522247"><ele>384.0</ele><time>2026-05-01T10:30:52Z</time></trkpt><trkpt lat="43.55395778512813" lon="12.184654075889227"><ele>386.0</ele><time>2026-05-01T10:30:53Z</time></trkpt><trkpt lat="43.553826128416205" lon="12.184719532965355"><ele>384.75</ele><time>2026-05-01T10:30:54Z</time></trkpt><trkpt lat="43.55369066798581" lon="12.18475862030255"><ele>383.5</ele><time>2026-05-01T10:30:55Z</time></trkpt><trkpt lat="43.553559867039105" lon="12.184799042390837"><ele>382.25</ele><time>2026-05-01T10:30:56Z</time></trkpt><trkpt lat="43.55344653128925" lon="12.184837698219948"><ele>381.0</ele><time>2026-05-01T10:30:57Z</time></trkpt><trkpt lat="43.55335001306996" lon="12.184889599049809"><ele>383.0</ele><time>2026-05-01T10:30:58Z</time></trkpt><trkpt lat="43.55328437668558" lon="12.184975739146875"><ele>385.0</ele><time>2026-05-01T10:30:59Z</time></trkpt><trkpt lat="43.55325970718901" lon="12.185096137290493"><ele>387.0</ele><time>2026-05-01T10:31:00Z</time></trkpt><trkpt lat="43.55328050059576" lon="12.18522190831671"><ele>389.0</ele><time>2026-05-01T10:31:01Z</time></trkpt><trkpt lat="43.55335647310272" lon="12.185306111885216"><ele>391.0</ele><time>2026-05-01T10:31:02Z</time></trkpt><trkpt lat="43.5534627223386" lon="12.185327644529279"><ele>391.0</ele><time>2026-05-01T10:31:03Z</time></trkpt><trkpt lat="43.55358197949434" lon="12.185297870850224"><ele>391.0</ele><time>2026-05-01T10:31:04Z</time></trkpt><trkpt lat="43.553711255882675" lon="12.185255175150575"><ele>391.0</ele><time>2026-05-01T10:31:05Z</time></trkpt><trkpt lat="43.55384966499715" lon="12.185226587185339"><ele>391.0</ele><time>2026-05-01T10:31:06Z</time></trkpt><trkpt lat="43.55399716872413" lon="12.18519684886171"><ele>392.75</ele><time>2026-05-01T10:31:07Z</time></trkpt><trkpt lat="43.55413325470982" lon="12.18516773547583"><ele>394.5</ele><time>2026-05-01T10:31:08Z</time></trkpt><trkpt lat="43.554274241099655" lon="12.18513884744258"><ele>396.25</ele><time>2026-05-01T10:31:09Z</time></trkpt><trkpt lat="43.55441652520062" lon="12.185112142020763"><ele>398.0</ele><time>2026-05-01T10:31:10Z</time></trkpt><trkpt lat="43.55456000847721" lon="12.185092341507449"><ele>400.3333333333333</ele><time>2026-05-01T10:31:11Z</time></trkpt><trkpt lat="43.554705820653645" lon="12.185091205915276"><ele>402.66666666666663</ele><time>2026-05-01T10:31:12Z</time></trkpt><trkpt lat="43.554854052804686" lon="12.185121017902814"><ele>405.0</ele><time>2026-05-01T10:31:13Z</time></trkpt><trkpt lat="43.55500471458534" lon="12.185179874424918"><ele>405.0</ele><time>2026-05-01T10:31:14Z</time></trkpt><trkpt lat="43.55515768096511" lon="12.185241842323364"><ele>405.0</ele><time>2026-05-01T10:31:15Z</time></trkpt><trkpt lat="43.5553126323304" lon="12.185299075652475"><ele>405.0</ele><time>2026-05-01T10:31:16Z</time></trkpt><trkpt lat="43.5554693315017" lon="12.185355419032815"><ele>405.0</ele><time>2026-05-01T10:31:17Z</time></trkpt><trkpt lat="43.55562545277787" lon="12.185417375624265"><ele>405.0</ele><time>2026-05-01T10:31:18Z</time></trkpt><trkpt lat="43.555780675318694" lon="12.185475431250184"><ele>405.0</ele><time>2026-05-01T10:31:19Z</time></trkpt><trkpt lat="43.555924641633425" lon="12.18552372121173"><ele>405.0</ele><time>2026-05-01T10:31:20Z</time></trkpt><trkpt lat="43.55604911953617" lon="12.185568685979483"><ele>405.0</ele><time>2026-05-01T10:31:21Z</time></trkpt><trkpt lat="43.55617456984612" lon="12.185617531512124"><ele>405.0</ele><time>2026-05-01T10:31:22Z</time></trkpt><trkpt lat="43.55628978932365" lon="12.185658973482138"><ele>405.0</ele><time>2026-05-01T10:31:23Z</time></trkpt><trkpt lat="43.556372622799" lon="12.185728477277221"><ele>406.8</ele><time>2026-05-01T10:31:24Z</time></trkpt><trkpt lat="43.556421121184094" lon="12.18584918383993"><ele>408.6</ele><time>2026-05-01T10:31:25Z</time></trkpt><trkpt lat="43.556415912416" lon="12.185990669447909"><ele>410.4</ele><time>2026-05-01T10:31:26Z</time></trkpt><trkpt lat="43.55635090380076" lon="12.186105578192732"><ele>412.2</ele><time>2026-05-01T10:31:27Z</time></trkpt><trkpt lat="43.55625008235802" lon="12.186171617466757"><ele>414.0</ele><time>2026-05-01T10:31:28Z</time></trkpt><trkpt lat="43.55613898227735" lon="12.18620911067622"><ele>414.5</ele><time>2026-05-01T10:31:29Z</time></trkpt><trkpt lat="43.5560235429036" lon="12.186250508486042"><ele>415.0</ele><time>2026-05-01T10:31:30Z</time></trkpt><trkpt lat="43.55590555096448" lon="12.18631512182494"><ele>415.5</ele><time>2026-05-01T10:31:31Z</time></trkpt><trkpt lat="43.555789230898235" lon="12.186407261843787"><ele>416.0</ele><time>2026-05-01T10:31:32Z</time></trkpt><trkpt lat="43.55567093783358" lon="12.186509882025554"><ele>418.0</ele><time>2026-05-01T10:31:33Z</time></trkpt><trkpt lat="43.555548528774565" lon="12.186621223997424"><ele>420.0</ele><time>2026-05-01T10:31:34Z</time></trkpt><trkpt lat="43.55542717892091" lon="12.186734828398903"><ele>422.0</ele><time>2026-05-01T10:31:35Z</time></trkpt><trkpt lat="43.555300218626826" lon="12.186857216035405"><ele>424.0</ele><time>2026-05-01T10:31:36Z</time></trkpt><trkpt lat="43.55518121415358" lon="12.186975506898387"><ele>424.0</ele><time>2026-05-01T10:31:37Z</time></trkpt><trkpt lat="43.55507418893561" lon="12.187075692121079"><ele>424.0</ele><time>2026-05-01T10:31:38Z</time></trkpt><trkpt lat="43.55497471030404" lon="12.187168892996214"><ele>424.0</ele><time>2026-05-01T10:31:39Z</time></trkpt><trkpt lat="43.55488346798657" lon="12.187252138627432"><ele>424.0</ele><time>2026-05-01T10:31:40Z</time></trkpt><trkpt lat="43.55480741202179" lon="12.187337484698025"><ele>425.2</ele><time>2026-05-01T10:31:41Z</time></trkpt><trkpt lat="43.554768424420274" lon="12.187446268370406"><ele>426.4</ele><time>2026-05-01T10:31:42Z</time></trkpt><trkpt lat="43.554776070989725" lon="12.187561588361058"><ele>427.6</ele><time>2026-05-01T10:31:43Z</time></trkpt><trkpt lat="43.55482893804196" lon="12.187666740812045"><ele>428.8</ele><time>2026-05-01T10:31:44Z</time></trkpt><trkpt lat="43.55491627214691" lon="12.187725423384611"><ele>430.0</ele><time>2026-05-01T10:31:45Z</time></trkpt><trkpt lat="43.5550209364532" lon="12.187719626090267"><ele>430.0</ele><time>2026-05-01T10:31:46Z</time></trkpt><trkpt lat="43.555133386903634" lon="12.187678683120234"><ele>430.0</ele><time>2026-05-01T10:31:47Z</time></trkpt><trkpt lat="43.5552521521852" lon="12.187639616326233"><ele>430.0</ele><time>2026-05-01T10:31:48Z</time></trkpt><trkpt lat="43.55537866445891" lon="12.187605260150866"><ele>430.0</ele><time>2026-05-01T10:31:49Z</time></trkpt><trkpt lat="43.555503183001335" lon="12.18756149725757"><ele>431.0</ele><time>2026-05-01T10:31:50Z</time></trkpt><trkpt lat="43.55561715663241" lon="12.187529213816408"><ele>432.0</ele><time>2026-05-01T10:31:51Z</time></trkpt><trkpt lat="43.55571546159059" lon="12.187501947577495"><ele>433.0</ele><time>2026-05-01T10:31:52Z</time></trkpt><trkpt lat="43.5558058047178" lon="12.187492018428827"><ele>434.0</ele><time>2026-05-01T10:31:53Z</time></trkpt><trkpt lat="43.55589877360818" lon="12.187516106457867"><ele>435.0</ele><time>2026-05-01T10:31:54Z</time></trkpt><trkpt lat="43.55598473523751" lon="12.187594930499566"><ele>435.0</ele><time>2026-05-01T10:31:55Z</time></trkpt><trkpt lat="43.55606279284994" lon="12.187708755466168"><ele>435.0</ele><time>2026-05-01T10:31:56Z</time></trkpt><trkpt lat="43.556147140256556" lon="12.187819567740558"><ele>435.0</ele><time>2026-05-01T10:31:57Z</time></trkpt><trkpt lat="43.556237492731285" lon="12.18792426905599"><ele>435.0</ele><time>2026-05-01T10:31:58Z</time></trkpt><trkpt lat="43.556320341743536" lon="12.188029061834227"><ele>435.0</ele><time>2026-05-01T10:31:59Z</time></trkpt><trkpt lat="43.55639080506018" lon="12.18811531029895"><ele>435.0</ele><time>2026-05-01T10:32:00Z</time></trkpt><trkpt lat="43.55645184131651" lon="12.188197253333131"><ele>435.0</ele><time>2026-05-01T10:32:01Z</time></trkpt><trkpt lat="43.55649629100795" lon="12.18828065629551"><ele>435.0</ele><time>2026-05-01T10:32:02Z</time></trkpt><trkpt lat="43.556523460217925" lon="12.188375066073306"><ele>435.0</ele><time>2026-05-01T10:32:03Z</time></trkpt><trkpt lat="43.55651921747047" lon="12.188488378881031"><ele>435.0</ele><time>2026-05-01T10:32:04Z</time></trkpt><trkpt lat="43.55648477883616" lon="12.188606410127317"><ele>436.8</ele><time>2026-05-01T10:32:05Z</time></trkpt><trkpt lat="43.55641266301322" lon="12.188701996894205"><ele>438.6</ele><time>2026-05-01T10:32:06Z</time></trkpt><trkpt lat="43.556310865485486" lon="12.18875042474818"><ele>440.4</ele><time>2026-05-01T10:32:07Z</time></trkpt><trkpt lat="43.55619956331189" lon="12.188782449402675"><ele>442.2</ele><time>2026-05-01T10:32:08Z</time></trkpt><trkpt lat="43.55607970007533" lon="12.188813991752486"><ele>444.0</ele><time>2026-05-01T10:32:09Z</time></trkpt><trkpt lat="43.55594892814319" lon="12.18884294389418"><ele>444.33333333333337</ele><time>2026-05-01T10:32:10Z</time></trkpt><trkpt lat="43.55581420890548" lon="12.18887468200668"><ele>444.6666666666667</ele><time>2026-05-01T10:32:11Z</time></trkpt><trkpt lat="43.55565484558671" lon="12.188931193455083"><ele>445.0</ele><time>2026-05-01T10:32:12Z</time></trkpt><trkpt lat="43.55546740261692" lon="12.188989780483022"><ele>447.6666666666667</ele><time>2026-05-01T10:32:13Z</time></trkpt><trkpt lat="43.555257605637344" lon="12.189026832916591"><ele>450.33333333333337</ele><time>2026-05-01T10:32:14Z</time></trkpt><trkpt lat="43.555059946371806" lon="12.189064301844297"><ele>453.0</ele><time>2026-05-01T10:32:15Z</time></trkpt><trkpt lat="43.55487550161778" lon="12.189099096402856"><ele>453.0</ele><time>2026-05-01T10:32:16Z</time></trkpt><trkpt lat="43.55469510525408" lon="12.189131272255015"><ele>453.0</ele><time>2026-05-01T10:32:17Z</time></trkpt><trkpt lat="43.55452573581354" lon="12.189168834175915"><ele>453.0</ele><time>2026-05-01T10:32:18Z</time></trkpt><trkpt lat="43.554371203966966" lon="12.18920258627331"><ele>453.25</ele><time>2026-05-01T10:32:19Z</time></trkpt><trkpt lat="43.554229018160214" lon="12.189234854058238"><ele>453.5</ele><time>2026-05-01T10:32:20Z</time></trkpt><trkpt lat="43.55409408545972" lon="12.189293311860197"><ele>453.75</ele><time>2026-05-01T10:32:21Z</time></trkpt><trkpt lat="43.55397530211324" lon="12.189413640278582"><ele>454.0</ele><time>2026-05-01T10:32:22Z</time></trkpt><trkpt lat="43.55387489338952" lon="12.189583943297725"><ele>454.0</ele><time>2026-05-01T10:32:23Z</time></trkpt><trkpt lat="43.55377036118377" lon="12.189761755879179"><ele>454.0</ele><time>2026-05-01T10:32:24Z</time></trkpt><trkpt lat="43.553646441472594" lon="12.18992498163418"><ele>454.0</ele><time>2026-05-01T10:32:25Z</time></trkpt><trkpt lat="43.55349900468112" lon="12.19006099389673"><ele>456.6666666666667</ele><time>2026-05-01T10:32:26Z</time></trkpt><trkpt lat="43.55333523456493" lon="12.19016455762537"><ele>459.33333333333337</ele><time>2026-05-01T10:32:27Z</time></trkpt><trkpt lat="43.55317233608112" lon="12.190273594536682"><ele>462.0</ele><time>2026-05-01T10:32:28Z</time></trkpt><trkpt lat="43.55300800666492" lon="12.190391947897817"><ele>460.0</ele><time>2026-05-01T10:32:29Z</time></trkpt><trkpt lat="43.55284531642133" lon="12.190511810944058"><ele>458.0</ele><time>2026-05-01T10:32:30Z</time></trkpt><trkpt lat="43.552684548874765" lon="12.190628152375506"><ele>456.0</ele><time>2026-05-01T10:32:31Z</time></trkpt><trkpt lat="43.55252472667441" lon="12.190738880812411"><ele>460.66666666666663</ele><time>2026-05-01T10:32:32Z</time></trkpt><trkpt lat="43.55236651857183" lon="12.190857325148883"><ele>465.3333333333333</ele><time>2026-05-01T10:32:33Z</time></trkpt><trkpt lat="43.55221105136456" lon="12.190982461639083"><ele>470.0</ele><time>2026-05-01T10:32:34Z</time></trkpt><trkpt lat="43.552051274867395" lon="12.191104861188883"><ele>466.3333333333333</ele><time>2026-05-01T10:32:35Z</time></trkpt><trkpt lat="43.55188762227436" lon="12.19122988611741"><ele>462.66666666666663</ele><time>2026-05-01T10:32:36Z</time></trkpt><trkpt lat="43.551723963468724" lon="12.191350520996716"><ele>459.0</ele><time>2026-05-01T10:32:37Z</time></trkpt><trkpt lat="43.551572809491624" lon="12.191463871039122"><ele>462.0</ele><time>2026-05-01T10:32:38Z</time></trkpt><trkpt lat="43.5514330511286" lon="12.191577081909115"><ele>465.0</ele><time>2026-05-01T10:32:39Z</time></trkpt><trkpt lat="43.55130747489692" lon="12.191721562569702"><ele>468.0</ele><time>2026-05-01T10:32:40Z</time></trkpt><trkpt lat="43.55119595532848" lon="12.191887377449603"><ele>468.0</ele><time>2026-05-01T10:32:41Z</time></trkpt><trkpt lat="43.55110180299546" lon="12.192079630293893"><ele>468.0</ele><time>2026-05-01T10:32:42Z</time></trkpt><trkpt lat="43.55102037330953" lon="12.19229300926612"><ele>468.0</ele><time>2026-05-01T10:32:43Z</time></trkpt><trkpt lat="43.55094815584828" lon="12.19251163051865"><ele>471.66666666666663</ele><time>2026-05-01T10:32:44Z</time></trkpt><trkpt lat="43.550873486831094" lon="12.192734468067226"><ele>475.3333333333333</ele><time>2026-05-01T10:32:45Z</time></trkpt><trkpt lat="43.55079553810027" lon="12.192955000952152"><ele>479.0</ele><time>2026-05-01T10:32:46Z</time></trkpt><trkpt lat="43.55072275361546" lon="12.193167101904944"><ele>481.5</ele><time>2026-05-01T10:32:47Z</time></trkpt><trkpt lat="43.55065983052889" lon="12.193344692939835"><ele>484.0</ele><time>2026-05-01T10:32:48Z</time></trkpt><trkpt lat="43.550624653616275" lon="12.193525837378003"><ele>486.5</ele><time>2026-05-01T10:32:49Z</time></trkpt><trkpt lat="43.55062228811998" lon="12.193719773886585"><ele>489.0</ele><time>2026-05-01T10:32:50Z</time></trkpt><trkpt lat="43.55064536056663" lon="12.193916432485873"><ele>490.75</ele><time>2026-05-01T10:32:51Z</time></trkpt><trkpt lat="43.550640506607074" lon="12.194091443596623"><ele>492.5</ele><time>2026-05-01T10:32:52Z</time></trkpt><trkpt lat="43.55058215541049" lon="12.19427034555514"><ele>494.25</ele><time>2026-05-01T10:32:53Z</time></trkpt><trkpt lat="43.55048325941779" lon="12.194431971698666"><ele>496.0</ele><time>2026-05-01T10:32:54Z</time></trkpt><trkpt lat="43.55036021737778" lon="12.194565548722332"><ele>494.0</ele><time>2026-05-01T10:32:55Z</time></trkpt><trkpt lat="43.55022552490995" lon="12.19468056370551"><ele>492.0</ele><time>2026-05-01T10:32:56Z</time></trkpt><trkpt lat="43.55009662777864" lon="12.19481243637014"><ele>490.0</ele><time>2026-05-01T10:32:57Z</time></trkpt><trkpt lat="43.54998376549827" lon="12.194977286403791"><ele>490.0</ele><time>2026-05-01T10:32:58Z</time></trkpt><trkpt lat="43.54989044292028" lon="12.195153130743398"><ele>490.0</ele><time>2026-05-01T10:32:59Z</time></trkpt><trkpt lat="43.549819505871696" lon="12.195347401995202"><ele>490.0</ele><time>2026-05-01T10:33:00Z</time></trkpt><trkpt lat="43.5497944293645" lon="12.195569173662369"><ele>494.0</ele><time>2026-05-01T10:33:01Z</time></trkpt><trkpt lat="43.54980074021294" lon="12.19579605767484"><ele>498.0</ele><time>2026-05-01T10:33:02Z</time></trkpt><trkpt lat="43.54980863154456" lon="12.196025430534808"><ele>502.0</ele><time>2026-05-01T10:33:03Z</time></trkpt><trkpt lat="43.54981164618116" lon="12.19626195676732"><ele>502.0</ele><time>2026-05-01T10:33:04Z</time></trkpt><trkpt lat="43.54980957120191" lon="12.196496751565542"><ele>502.0</ele><time>2026-05-01T10:33:05Z</time></trkpt><trkpt lat="43.54980127156137" lon="12.196730479150673"><ele>502.0</ele><time>2026-05-01T10:33:06Z</time></trkpt><trkpt lat="43.54980049071323" lon="12.19696029015861"><ele>504.6666666666667</ele><time>2026-05-01T10:33:07Z</time></trkpt><trkpt lat="43.549790075973206" lon="12.197189668486532"><ele>507.33333333333337</ele><time>2026-05-01T10:33:08Z</time></trkpt><trkpt lat="43.549752284285574" lon="12.19741590713871"><ele>510.0</ele><time>2026-05-01T10:33:09Z</time></trkpt><trkpt lat="43.54967998072292" lon="12.197626317792242"><ele>508.75</ele><time>2026-05-01T10:33:10Z</time></trkpt><trkpt lat="43.549591568264965" lon="12.197819379691712"><ele>507.5</ele><time>2026-05-01T10:33:11Z</time></trkpt><trkpt lat="43.549506846882714" lon="12.197988295867354"><ele>506.25</ele><time>2026-05-01T10:33:12Z</time></trkpt><trkpt lat="43.549429284260505" lon="12.198136908423347"><ele>505.0</ele><time>2026-05-01T10:33:13Z</time></trkpt><trkpt lat="43.54935830308218" lon="12.198283077008671"><ele>505.0</ele><time>2026-05-01T10:33:14Z</time></trkpt><trkpt lat="43.54931786380355" lon="12.198451976097026"><ele>505.0</ele><time>2026-05-01T10:33:15Z</time></trkpt><trkpt lat="43.549307784308944" lon="12.198642333539972"><ele>505.0</ele><time>2026-05-01T10:33:16Z</time></trkpt><trkpt lat="43.54932986434398" lon="12.198835124803217"><ele>505.0</ele><time>2026-05-01T10:33:17Z</time></trkpt><trkpt lat="43.549395034095866" lon="12.199022158330054"><ele>504.6666666666667</ele><time>2026-05-01T10:33:18Z</time></trkpt><trkpt lat="43.549467583986896" lon="12.19920732711439"><ele>504.33333333333337</ele><time>2026-05-01T10:33:19Z</time></trkpt><trkpt lat="43.54954766951458" lon="12.199400064641218"><ele>504.0</ele><time>2026-05-01T10:33:20Z</time></trkpt><trkpt lat="43.54964584889654" lon="12.199585389635448"><ele>509.66666666666663</ele><time>2026-05-01T10:33:21Z</time></trkpt><trkpt lat="43.54975599230714" lon="12.199769464507817"><ele>515.3333333333333</ele><time>2026-05-01T10:33:22Z</time></trkpt><trkpt lat="43.549881374623915" lon="12.199944676111514"><ele>521.0</ele><time>2026-05-01T10:33:23Z</time></trkpt><trkpt lat="43.550013227268124" lon="12.200119244668821"><ele>521.0</ele><time>2026-05-01T10:33:24Z</time></trkpt><trkpt lat="43.55014778583182" lon="12.20030141848575"><ele>521.0</ele><time>2026-05-01T10:33:25Z</time></trkpt><trkpt lat="43.55028133145439" lon="12.200486255409324"><ele>521.0</ele><time>2026-05-01T10:33:26Z</time></trkpt><trkpt lat="43.550412782059006" lon="12.200668643824052"><ele>524.75</ele><time>2026-05-01T10:33:27Z</time></trkpt><trkpt lat="43.550531274810716" lon="12.200832247348957"><ele>528.5</ele><time>2026-05-01T10:33:28Z</time></trkpt><trkpt lat="43.55063185964383" lon="12.200976216108959"><ele>532.25</ele><time>2026-05-01T10:33:29Z</time></trkpt><trkpt lat="43.550713392734856" lon="12.201090549362908"><ele>536.0</ele><time>2026-05-01T10:33:30Z</time></trkpt><trkpt lat="43.550789609328135" lon="12.201193442857594"><ele>536.0</ele><time>2026-05-01T10:33:31Z</time></trkpt><trkpt lat="43.55086555916125" lon="12.201265666472992"><ele>536.0</ele><time>2026-05-01T10:33:32Z</time></trkpt><trkpt lat="43.55094660980453" lon="12.201273917657984"><ele>536.0</ele><time>2026-05-01T10:33:33Z</time></trkpt><trkpt lat="43.55100957848067" lon="12.201209212222327"><ele>536.0</ele><time>2026-05-01T10:33:34Z</time></trkpt><trkpt lat="43.551015917114015" lon="12.201086006670973"><ele>536.0</ele><time>2026-05-01T10:33:35Z</time></trkpt><trkpt lat="43.55097027526555" lon="12.200962557853295"><ele>536.0</ele><time>2026-05-01T10:33:36Z</time></trkpt><trkpt lat="43.55089337686028" lon="12.20085384211106"><ele>536.0</ele><time>2026-05-01T10:33:37Z</time></trkpt><trkpt lat="43.55080912924723" lon="12.200736152287902"><ele>536.0</ele><time>2026-05-01T10:33:38Z</time></trkpt><trkpt lat="43.550727132530675" lon="12.200598287918483"><ele>536.0</ele><time>2026-05-01T10:33:39Z</time></trkpt><trkpt lat="43.5506418736425" lon="12.200443258781663"><ele>536.0</ele><time>2026-05-01T10:33:40Z</time></trkpt><trkpt lat="43.55054944468689" lon="12.200277584580155"><ele>535.75</ele><time>2026-05-01T10:33:41Z</time></trkpt><trkpt lat="43.55045989194475" lon="12.200114876818832"><ele>535.5</ele><time>2026-05-01T10:33:42Z</time></trkpt><trkpt lat="43.55037886589818" lon="12.19996686691913"><ele>535.25</ele><time>2026-05-01T10:33:43Z</time></trkpt><trkpt lat="43.55029678268143" lon="12.199815457332486"><ele>535.0</ele><time>2026-05-01T10:33:44Z</time></trkpt><trkpt lat="43.55022126424527" lon="12.199656754390102"><ele>535.0</ele><time>2026-05-01T10:33:45Z</time></trkpt><trkpt lat="43.55014880789" lon="12.19949304516022"><ele>535.0</ele><time>2026-05-01T10:33:46Z</time></trkpt><trkpt lat="43.550088978782796" lon="12.199321747163628"><ele>535.0</ele><time>2026-05-01T10:33:47Z</time></trkpt><trkpt lat="43.550060733062374" lon="12.19915556373541"><ele>535.0</ele><time>2026-05-01T10:33:48Z</time></trkpt><trkpt lat="43.550070296634544" lon="12.198986272960278"><ele>534.25</ele><time>2026-05-01T10:33:49Z</time></trkpt><trkpt lat="43.55011096776242" lon="12.198813920775164"><ele>533.5</ele><time>2026-05-01T10:33:50Z</time></trkpt><trkpt lat="43.550166858225765" lon="12.198649824193064"><ele>532.75</ele><time>2026-05-01T10:33:51Z</time></trkpt><trkpt lat="43.550252233934124" lon="12.198510495051053"><ele>532.0</ele><time>2026-05-01T10:33:52Z</time></trkpt><trkpt lat="43.550371818184544" lon="12.198403698251372"><ele>535.6666666666667</ele><time>2026-05-01T10:33:53Z</time></trkpt><trkpt lat="43.55050206954731" lon="12.198300214155008"><ele>539.3333333333334</ele><time>2026-05-01T10:33:54Z</time></trkpt><trkpt lat="43.55063363120665" lon="12.198195192165667"><ele>543.0</ele><time>2026-05-01T10:33:55Z</time></trkpt><trkpt lat="43.55076379828322" lon="12.198088288416994"><ele>543.0</ele><time>2026-05-01T10:33:56Z</time></trkpt><trkpt lat="43.55088598728928" lon="12.197970749316308"><ele>543.0</ele><time>2026-05-01T10:33:57Z</time></trkpt><trkpt lat="43.55098741986324" lon="12.197831937259052"><ele>543.0</ele><time>2026-05-01T10:33:58Z</time></trkpt><trkpt lat="43.55105036734483" lon="12.197650620535747"><ele>543.0</ele><time>2026-05-01T10:33:59Z</time></trkpt><trkpt lat="43.551086209290915" lon="12.197444974679964"><ele>541.3333333333334</ele><time>2026-05-01T10:34:00Z</time></trkpt><trkpt lat="43.55112633215495" lon="12.197242908766215"><ele>539.6666666666667</ele><time>2026-05-01T10:34:01Z</time></trkpt><trkpt lat="43.551172276822186" lon="12.19704192164884"><ele>538.0</ele><time>2026-05-01T10:34:02Z</time></trkpt><trkpt lat="43.55121893833244" lon="12.196842678944561"><ele>541.5</ele><time>2026-05-01T10:34:03Z</time></trkpt><trkpt lat="43.55126963332856" lon="12.196652783184613"><ele>545.0</ele><time>2026-05-01T10:34:04Z</time></trkpt><trkpt lat="43.551354080958774" lon="12.19648333266963"><ele>548.5</ele><time>2026-05-01T10:34:05Z</time></trkpt><trkpt lat="43.55146469637136" lon="12.196339866326953"><ele>552.0</ele><time>2026-05-01T10:34:06Z</time></trkpt><trkpt lat="43.551589676178146" lon="12.196206235843889"><ele>552.0</ele><time>2026-05-01T10:34:07Z</time></trkpt><trkpt lat="43.551722887608406" lon="12.196078937068306"><ele>552.0</ele><time>2026-05-01T10:34:08Z</time></trkpt><trkpt lat="43.55186214604404" lon="12.195959232271733"><ele>552.0</ele><time>2026-05-01T10:34:09Z</time></trkpt><trkpt lat="43.55200900325634" lon="12.195849959640377"><ele>552.6666666666666</ele><time>2026-05-01T10:34:10Z</time></trkpt><trkpt lat="43.552160804046366" lon="12.195747165727756"><ele>553.3333333333333</ele><time>2026-05-01T10:34:11Z</time></trkpt><trkpt lat="43.55231148844546" lon="12.195638715117749"><ele>554.0</ele><time>2026-05-01T10:34:12Z</time></trkpt><trkpt lat="43.55246222506319" lon="12.19552884815183"><ele>554.0</ele><time>2026-05-01T10:34:13Z</time></trkpt><trkpt lat="43.55260943531792" lon="12.195423501905125"><ele>554.0</ele><time>2026-05-01T10:34:14Z</time></trkpt><trkpt lat="43.55275647432671" lon="12.195322044654976"><ele>554.0</ele><time>2026-05-01T10:34:15Z</time></trkpt><trkpt lat="43.55289510822217" lon="12.195234633757261"><ele>558.3333333333333</ele><time>2026-05-01T10:34:16Z</time></trkpt><trkpt lat="43.553049726260504" lon="12.195171273338275"><ele>562.6666666666666</ele><time>2026-05-01T10:34:17Z</time></trkpt><trkpt lat="43.55320726416206" lon="12.195129454809804"><ele>567.0</ele><time>2026-05-01T10:34:18Z</time></trkpt><trkpt lat="43.553370200064506" lon="12.195101580892059"><ele>567.0</ele><time>2026-05-01T10:34:19Z</time></trkpt><trkpt lat="43.553528802627234" lon="12.195068794285467"><ele>567.0</ele><time>2026-05-01T10:34:20Z</time></trkpt><trkpt lat="43.553695381809476" lon="12.195016052333454"><ele>567.0</ele><time>2026-05-01T10:34:21Z</time></trkpt><trkpt lat="43.55385951181347" lon="12.194968254616212"><ele>564.0</ele><time>2026-05-01T10:34:22Z</time></trkpt><trkpt lat="43.55402787894085" lon="12.194916713354631"><ele>561.0</ele><time>2026-05-01T10:34:23Z</time></trkpt><trkpt lat="43.55419214984608" lon="12.194859877675531"><ele>558.0</ele><time>2026-05-01T10:34:24Z</time></trkpt><trkpt lat="43.554356490841286" lon="12.194794203015501"><ele>558.0</ele><time>2026-05-01T10:34:25Z</time></trkpt><trkpt lat="43.554516345566896" lon="12.19471353644744"><ele>558.0</ele><time>2026-05-01T10:34:26Z</time></trkpt><trkpt lat="43.554666482014945" lon="12.194615739046785"><ele>558.0</ele><time>2026-05-01T10:34:27Z</time></trkpt><trkpt lat="43.55482475822344" lon="12.194542636764593"><ele>562.6666666666666</ele><time>2026-05-01T10:34:28Z</time></trkpt><trkpt lat="43.55499011337575" lon="12.194507409715737"><ele>567.3333333333333</ele><time>2026-05-01T10:34:29Z</time></trkpt><trkpt lat="43.555160797535606" lon="12.19449203011368"><ele>572.0</ele><time>2026-05-01T10:34:30Z</time></trkpt><trkpt lat="43.555333717596994" lon="12.194482215027898"><ele>574.0</ele><time>2026-05-01T10:34:31Z</time></trkpt><trkpt lat="43.55550916229061" lon="12.194471158203605"><ele>576.0</ele><time>2026-05-01T10:34:32Z</time></trkpt><trkpt lat="43.555685446504405" lon="12.194446091278913"><ele>578.0</ele><time>2026-05-01T10:34:33Z</time></trkpt><trkpt lat="43.55586183283601" lon="12.194419458846184"><ele>578.0</ele><time>2026-05-01T10:34:34Z</time></trkpt><trkpt lat="43.55603792334327" lon="12.194399214134727"><ele>578.0</ele><time>2026-05-01T10:34:35Z</time></trkpt><trkpt lat="43.55621733684445" lon="12.19438993350735"><ele>578.0</ele><time>2026-05-01T10:34:36Z</time></trkpt><trkpt lat="43.55639819310828" lon="12.194389569604555"><ele>581.0</ele><time>2026-05-01T10:34:37Z</time></trkpt><trkpt lat="43.55657911625507" lon="12.194395561779146"><ele>584.0</ele><time>2026-05-01T10:34:38Z</time></trkpt><trkpt lat="43.55675952301016" lon="12.194407035967236"><ele>587.0</ele><time>2026-05-01T10:34:39Z</time></trkpt><trkpt lat="43.556939583562134" lon="12.194418657919593"><ele>587.3333333333333</ele><time>2026-05-01T10:34:40Z</time></trkpt><trkpt lat="43.55711094894064" lon="12.194434065874237"><ele>587.6666666666666</ele><time>2026-05-01T10:34:41Z</time></trkpt><trkpt lat="43.557281113200375" lon="12.194452522307719"><ele>588.0</ele><time>2026-05-01T10:34:42Z</time></trkpt><trkpt lat="43.55744535006109" lon="12.194473821660614"><ele>588.0</ele><time>2026-05-01T10:34:43Z</time></trkpt><trkpt lat="43.55759493432174" lon="12.19449633642901"><ele>588.0</ele><time>2026-05-01T10:34:44Z</time></trkpt><trkpt lat="43.55773204078586" lon="12.194518471347683"><ele>588.0</ele><time>2026-05-01T10:34:45Z</time></trkpt><trkpt lat="43.55784347024614" lon="12.19455776802643"><ele>588.0</ele><time>2026-05-01T10:34:46Z</time></trkpt><trkpt lat="43.557913245060874" lon="12.194642715156135"><ele>588.1999999999999</ele><time>2026-05-01T10:34:47Z</time></trkpt><trkpt lat="43.55792260642304" lon="12.194763590494505"><ele>588.4</ele><time>2026-05-01T10:34:48Z</time></trkpt><trkpt lat="43.55787241879925" lon="12.194853827131016"><ele>588.5999999999999</ele><time>2026-05-01T10:34:49Z</time></trkpt><trkpt lat="43.55778308635269" lon="12.194887376818448"><ele>588.8</ele><time>2026-05-01T10:34:50Z</time></trkpt><trkpt lat="43.557682528156136" lon="12.194869952362161"><ele>589.0</ele><time>2026-05-01T10:34:51Z</time></trkpt><trkpt lat="43.55757362701784" lon="12.19484239330434"><ele>588.75</ele><time>2026-05-01T10:34:52Z</time></trkpt><trkpt lat="43.55745030071653" lon="12.194817500052359"><ele>588.5</ele><time>2026-05-01T10:34:53Z</time></trkpt><trkpt lat="43.55731844408289" lon="12.194794345381279"><ele>588.25</ele><time>2026-05-01T10:34:54Z</time></trkpt><trkpt lat="43.55717980734114" lon="12.194788102393215"><ele>588.0</ele><time>2026-05-01T10:34:55Z</time></trkpt><trkpt lat="43.557031979298095" lon="12.194785372108814"><ele>587.6666666666666</ele><time>2026-05-01T10:34:56Z</time></trkpt><trkpt lat="43.55687890074388" lon="12.194791695603815"><ele>587.3333333333333</ele><time>2026-05-01T10:34:57Z</time></trkpt><trkpt lat="43.55671966514038" lon="12.19480697122586"><ele>587.0</ele><time>2026-05-01T10:34:58Z</time></trkpt><trkpt lat="43.55655576729105" lon="12.194842738116119"><ele>594.6666666666666</ele><time>2026-05-01T10:34:59Z</time></trkpt><trkpt lat="43.55638893222874" lon="12.194900562182248"><ele>602.3333333333334</ele><time>2026-05-01T10:35:00Z</time></trkpt><trkpt lat="43.55622544150862" lon="12.194963646725407"><ele>610.0</ele><time>2026-05-01T10:35:01Z</time></trkpt><trkpt lat="43.55607117409271" lon="12.19503531805011"><ele>610.0</ele><time>2026-05-01T10:35:02Z</time></trkpt><trkpt lat="43.55591507550749" lon="12.195105501316267"><ele>610.0</ele><time>2026-05-01T10:35:03Z</time></trkpt><trkpt lat="43.55576191486767" lon="12.195185523832723"><ele>610.0</ele><time>2026-05-01T10:35:04Z</time></trkpt><trkpt lat="43.55561456566019" lon="12.195264857051729"><ele>610.0</ele><time>2026-05-01T10:35:05Z</time></trkpt><trkpt lat="43.55546651736904" lon="12.195343053993254"><ele>610.0</ele><time>2026-05-01T10:35:06Z</time></trkpt><trkpt lat="43.55531946510574" lon="12.195430173086043"><ele>610.0</ele><time>2026-05-01T10:35:07Z</time></trkpt><trkpt lat="43.555175775545074" lon="12.195532714081745"><ele>605.3333333333334</ele><time>2026-05-01T10:35:08Z</time></trkpt><trkpt lat="43.55503375370051" lon="12.195648436048087"><ele>600.6666666666666</ele><time>2026-05-01T10:35:09Z</time></trkpt><trkpt lat="43.554891738978036" lon="12.195760435039135"><ele>596.0</ele><time>2026-05-01T10:35:10Z</time></trkpt><trkpt lat="43.554747202303844" lon="12.195869150429067"><ele>600.6666666666666</ele><time>2026-05-01T10:35:11Z</time></trkpt><trkpt lat="43.554603901839506" lon="12.195979614697716"><ele>605.3333333333334</ele><time>2026-05-01T10:35:12Z</time></trkpt><trkpt lat="43.554463420160396" lon="12.196085824017626"><ele>610.0</ele><time>2026-05-01T10:35:13Z</time></trkpt><trkpt lat="43.55432381550008" lon="12.196193910405873"><ele>610.0</ele><time>2026-05-01T10:35:14Z</time></trkpt><trkpt lat="43.55419183119612" lon="12.196315506007341"><ele>610.0</ele><time>2026-05-01T10:35:15Z</time></trkpt><trkpt lat="43.554066995242955" lon="12.196461822481057"><ele>610.0</ele><time>2026-05-01T10:35:16Z</time></trkpt><trkpt lat="43.55395798970782" lon="12.196632306280407"><ele>611.0</ele><time>2026-05-01T10:35:17Z</time></trkpt><trkpt lat="43.55385095020347" lon="12.196817832666934"><ele>612.0</ele><time>2026-05-01T10:35:18Z</time></trkpt><trkpt lat="43.55373583953218" lon="12.196989501466707"><ele>613.0</ele><time>2026-05-01T10:35:19Z</time></trkpt><trkpt lat="43.55360624453924" lon="12.197142390354632"><ele>613.0</ele><time>2026-05-01T10:35:20Z</time></trkpt><trkpt lat="43.55346662406418" lon="12.197278801529388"><ele>613.0</ele><time>2026-05-01T10:35:21Z</time></trkpt><trkpt lat="43.5533202389003" lon="12.197395706355659"><ele>613.0</ele><time>2026-05-01T10:35:22Z</time></trkpt><trkpt lat="43.55318302905657" lon="12.197484890285944"><ele>612.25</ele><time>2026-05-01T10:35:23Z</time></trkpt><trkpt lat="43.553061016007895" lon="12.197569847756304"><ele>611.5</ele><time>2026-05-01T10:35:24Z</time></trkpt><trkpt lat="43.55295334657548" lon="12.19766739405238"><ele>610.75</ele><time>2026-05-01T10:35:25Z</time></trkpt><trkpt lat="43.552856798288005" lon="12.19779589041272"><ele>610.0</ele><time>2026-05-01T10:35:26Z</time></trkpt><trkpt lat="43.55278650914603" lon="12.19795977944056"><ele>610.0</ele><time>2026-05-01T10:35:27Z</time></trkpt><trkpt lat="43.55275049165027" lon="12.198144616082036"><ele>610.0</ele><time>2026-05-01T10:35:28Z</time></trkpt><trkpt lat="43.55273540275878" lon="12.198342952519067"><ele>610.0</ele><time>2026-05-01T10:35:29Z</time></trkpt><trkpt lat="43.55271972094096" lon="12.198545820546899"><ele>610.0</ele><time>2026-05-01T10:35:30Z</time></trkpt><trkpt lat="43.552708996971305" lon="12.198751404974589"><ele>612.75</ele><time>2026-05-01T10:35:31Z</time></trkpt><trkpt lat="43.55271445633997" lon="12.19895684437372"><ele>615.5</ele><time>2026-05-01T10:35:32Z</time></trkpt><trkpt lat="43.552749535595666" lon="12.199157900023035"><ele>618.25</ele><time>2026-05-01T10:35:33Z</time></trkpt><trkpt lat="43.55281877989458" lon="12.199328964471368"><ele>621.0</ele><time>2026-05-01T10:35:34Z</time></trkpt><trkpt lat="43.55292902640887" lon="12.199469590606116"><ele>632.6666666666666</ele><time>2026-05-01T10:35:35Z</time></trkpt><trkpt lat="43.553071202735474" lon="12.199560944433845"><ele>644.3333333333333</ele><time>2026-05-01T10:35:36Z</time></trkpt><trkpt lat="43.55322850349112" lon="12.199613357425259"><ele>656.0</ele><time>2026-05-01T10:35:37Z</time></trkpt><trkpt lat="43.55339397649609" lon="12.199603424059234"><ele>656.0</ele><time>2026-05-01T10:35:38Z</time></trkpt><trkpt lat="43.55355499842281" lon="12.199563809395068"><ele>656.0</ele><time>2026-05-01T10:35:39Z</time></trkpt><trkpt lat="43.55372300095259" lon="12.19953797242401"><ele>656.0</ele><time>2026-05-01T10:35:40Z</time></trkpt><trkpt lat="43.55389193524883" lon="12.19954053336363"><ele>661.0</ele><time>2026-05-01T10:35:41Z</time></trkpt><trkpt lat="43.5540620388881" lon="12.199565936928868"><ele>666.0</ele><time>2026-05-01T10:35:42Z</time></trkpt><trkpt lat="43.554232234899416" lon="12.199597122520835"><ele>671.0</ele><time>2026-05-01T10:35:43Z</time></trkpt><trkpt lat="43.55440480340087" lon="12.199625660878157"><ele>674.0</ele><time>2026-05-01T10:35:44Z</time></trkpt><trkpt lat="43.55458460923126" lon="12.199634699529623"><ele>677.0</ele><time>2026-05-01T10:35:45Z</time></trkpt><trkpt lat="43.554763034018706" lon="12.19962121411121"><ele>680.0</ele><time>2026-05-01T10:35:46Z</time></trkpt><trkpt lat="43.554941113993245" lon="12.199598100142412"><ele>680.0</ele><time>2026-05-01T10:35:47Z</time></trkpt><trkpt lat="43.55511125904417" lon="12.199580072428855"><ele>680.0</ele><time>2026-05-01T10:35:48Z</time></trkpt><trkpt lat="43.555286673853466" lon="12.199588590797699"><ele>680.0</ele><time>2026-05-01T10:35:49Z</time></trkpt><trkpt lat="43.55546305599356" lon="12.1996278699467"><ele>682.0</ele><time>2026-05-01T10:35:50Z</time></trkpt><trkpt lat="43.55564258032032" lon="12.199675245970381"><ele>684.0</ele><time>2026-05-01T10:35:51Z</time></trkpt><trkpt lat="43.55582386851346" lon="12.199722021489494"><ele>686.0</ele><time>2026-05-01T10:35:52Z</time></trkpt><trkpt lat="43.556002796699964" lon="12.199770546216941"><ele>686.0</ele><time>2026-05-01T10:35:53Z</time></trkpt><trkpt lat="43.55618060635146" lon="12.199813103558306"><ele>686.0</ele><time>2026-05-01T10:35:54Z</time></trkpt><trkpt lat="43.55635894188055" lon="12.199840756125882"><ele>686.0</ele><time>2026-05-01T10:35:55Z</time></trkpt><trkpt lat="43.556538355873315" lon="12.19985942088097"><ele>681.3333333333333</ele><time>2026-05-01T10:35:56Z</time></trkpt><trkpt lat="43.55671824085881" lon="12.199887118580435"><ele>676.6666666666666</ele><time>2026-05-01T10:35:57Z</time></trkpt><trkpt lat="43.5568967208046" lon="12.19993741645271"><ele>672.0</ele><time>2026-05-01T10:35:58Z</time></trkpt><trkpt lat="43.557069443544556" lon="12.200000762976012"><ele>672.0</ele><time>2026-05-01T10:35:59Z</time></trkpt><trkpt lat="43.557242937091246" lon="12.20008181418695"><ele>672.0</ele><time>2026-05-01T10:36:00Z</time></trkpt><trkpt lat="43.55739851488923" lon="12.200187164044479"><ele>672.0</ele><time>2026-05-01T10:36:01Z</time></trkpt><trkpt lat="43.557551777592025" lon="12.200324569503275"><ele>672.0</ele><time>2026-05-01T10:36:02Z</time></trkpt><trkpt lat="43.557685138294204" lon="12.200486273035017"><ele>672.0</ele><time>2026-05-01T10:36:03Z</time></trkpt><trkpt lat="43.557801210302564" lon="12.200641744698652"><ele>672.0</ele><time>2026-05-01T10:36:04Z</time></trkpt><trkpt lat="43.55791914857874" lon="12.200772988632554"><ele>675.6666666666666</ele><time>2026-05-01T10:36:05Z</time></trkpt><trkpt lat="43.55805167239676" lon="12.20088330308015"><ele>679.3333333333333</ele><time>2026-05-01T10:36:06Z</time></trkpt><trkpt lat="43.558188627510766" lon="12.200991715295855"><ele>683.0</ele><time>2026-05-01T10:36:07Z</time></trkpt><trkpt lat="43.558321385851436" lon="12.20111421024829"><ele>683.0</ele><time>2026-05-01T10:36:08Z</time></trkpt><trkpt lat="43.558431167439586" lon="12.201272861633496"><ele>683.0</ele><time>2026-05-01T10:36:09Z</time></trkpt><trkpt lat="43.558514471528824" lon="12.20146827139923"><ele>683.0</ele><time>2026-05-01T10:36:10Z</time></trkpt><trkpt lat="43.55856951360533" lon="12.20168413913791"><ele>680.0</ele><time>2026-05-01T10:36:11Z</time></trkpt><trkpt lat="43.55860195472142" lon="12.20191417715193"><ele>677.0</ele><time>2026-05-01T10:36:12Z</time></trkpt><trkpt lat="43.55860888099018" lon="12.202150253167472"><ele>674.0</ele><time>2026-05-01T10:36:13Z</time></trkpt><trkpt lat="43.55861068941751" lon="12.202379265624039"><ele>672.6666666666666</ele><time>2026-05-01T10:36:14Z</time></trkpt><trkpt lat="43.55862173239019" lon="12.202591221441343"><ele>671.3333333333334</ele><time>2026-05-01T10:36:15Z</time></trkpt><trkpt lat="43.55864695554838" lon="12.202799581681026"><ele>670.0</ele><time>2026-05-01T10:36:16Z</time></trkpt><trkpt lat="43.55869066629965" lon="12.202994834192122"><ele>673.25</ele><time>2026-05-01T10:36:17Z</time></trkpt><trkpt lat="43.558762386474704" lon="12.203147659362301"><ele>676.5</ele><time>2026-05-01T10:36:18Z</time></trkpt><trkpt lat="43.5588730546537" lon="12.2032523999531"><ele>679.75</ele><time>2026-05-01T10:36:19Z</time></trkpt><trkpt lat="43.55901792319457" lon="12.20328889408596"><ele>683.0</ele><time>2026-05-01T10:36:20Z</time></trkpt><trkpt lat="43.55917735592447" lon="12.203266241814635"><ele>683.0</ele><time>2026-05-01T10:36:21Z</time></trkpt><trkpt lat="43.55934108192207" lon="12.203235200425596"><ele>683.0</ele><time>2026-05-01T10:36:22Z</time></trkpt><trkpt lat="43.5595073060565" lon="12.20321607225302"><ele>683.0</ele><time>2026-05-01T10:36:23Z</time></trkpt><trkpt lat="43.559676800318115" lon="12.203197414517286"><ele>684.6666666666666</ele><time>2026-05-01T10:36:24Z</time></trkpt><trkpt lat="43.55985049944709" lon="12.203175607718817"><ele>686.3333333333334</ele><time>2026-05-01T10:36:25Z</time></trkpt><trkpt lat="43.56002464516085" lon="12.203157076953186"><ele>688.0</ele><time>2026-05-01T10:36:26Z</time></trkpt><trkpt lat="43.56019650699086" lon="12.203137153881206"><ele>688.0</ele><time>2026-05-01T10:36:27Z</time></trkpt><trkpt lat="43.560370879520015" lon="12.203142818686082"><ele>688.0</ele><time>2026-05-01T10:36:28Z</time></trkpt><trkpt lat="43.56054558752089" lon="12.203192580782641"><ele>688.0</ele><time>2026-05-01T10:36:29Z</time></trkpt><trkpt lat="43.560716395049916" lon="12.203278477904746"><ele>688.6666666666667</ele><time>2026-05-01T10:36:30Z</time></trkpt><trkpt lat="43.56088473933604" lon="12.203375258407773"><ele>689.3333333333334</ele><time>2026-05-01T10:36:31Z</time></trkpt><trkpt lat="43.561055766891904" lon="12.203468029118453"><ele>690.0</ele><time>2026-05-01T10:36:32Z</time></trkpt><trkpt lat="43.56122753856536" lon="12.203557097422978"><ele>690.6666666666666</ele><time>2026-05-01T10:36:33Z</time></trkpt><trkpt lat="43.56139239337395" lon="12.203647857986562"><ele>691.3333333333333</ele><time>2026-05-01T10:36:34Z</time></trkpt><trkpt lat="43.56154308388949" lon="12.203727780169036"><ele>692.0</ele><time>2026-05-01T10:36:35Z</time></trkpt><trkpt lat="43.56167796555955" lon="12.203797735721695"><ele>692.0</ele><time>2026-05-01T10:36:36Z</time></trkpt><trkpt lat="43.56178676448233" lon="12.203886249260503"><ele>692.0</ele><time>2026-05-01T10:36:37Z</time></trkpt><trkpt lat="43.56185448434277" lon="12.204016930405421"><ele>692.0</ele><time>2026-05-01T10:36:38Z</time></trkpt><trkpt lat="43.561886002918044" lon="12.20418845868875"><ele>692.0</ele><time>2026-05-01T10:36:39Z</time></trkpt><trkpt lat="43.56188656944242" lon="12.204381844132914"><ele>694.0</ele><time>2026-05-01T10:36:40Z</time></trkpt><trkpt lat="43.5618887952794" lon="12.204583922681339"><ele>696.0</ele><time>2026-05-01T10:36:41Z</time></trkpt><trkpt lat="43.561898087369684" lon="12.204792167618255"><ele>698.0</ele><time>2026-05-01T10:36:42Z</time></trkpt><trkpt lat="43.56190902576034" lon="12.205013085589448"><ele>699.6666666666666</ele><time>2026-05-01T10:36:43Z</time></trkpt><trkpt lat="43.56192128010261" lon="12.205238239484514"><ele>701.3333333333334</ele><time>2026-05-01T10:36:44Z</time></trkpt><trkpt lat="43.561932943258896" lon="12.205467574718204"><ele>703.0</ele><time>2026-05-01T10:36:45Z</time></trkpt><trkpt lat="43.561943968732024" lon="12.205701105657237"><ele>703.0</ele><time>2026-05-01T10:36:46Z</time></trkpt><trkpt lat="43.56195230690806" lon="12.205938364738653"><ele>703.0</ele><time>2026-05-01T10:36:47Z</time></trkpt><trkpt lat="43.56196278755065" lon="12.20617785911077"><ele>703.0</ele><time>2026-05-01T10:36:48Z</time></trkpt><trkpt lat="43.56197909517762" lon="12.206417997296246"><ele>701.3333333333334</ele><time>2026-05-01T10:36:49Z</time></trkpt><trkpt lat="43.56199628665981" lon="12.206658954654525"><ele>699.6666666666666</ele><time>2026-05-01T10:36:50Z</time></trkpt><trkpt lat="43.562017679153335" lon="12.206896333483389"><ele>698.0</ele><time>2026-05-01T10:36:51Z</time></trkpt><trkpt lat="43.562053635075" lon="12.207138083400316"><ele>708.3333333333333</ele><time>2026-05-01T10:36:52Z</time></trkpt><trkpt lat="43.5621002956269" lon="12.207380777741609"><ele>718.6666666666666</ele><time>2026-05-01T10:36:53Z</time></trkpt><trkpt lat="43.56215025469241" lon="12.207625517987859"><ele>729.0</ele><time>2026-05-01T10:36:54Z</time></trkpt><trkpt lat="43.56220717457474" lon="12.207872381585373"><ele>729.0</ele><time>2026-05-01T10:36:55Z</time></trkpt><trkpt lat="43.56226688158138" lon="12.208119656053627"><ele>729.0</ele><time>2026-05-01T10:36:56Z</time></trkpt><trkpt lat="43.562327770778495" lon="12.208370872861627"><ele>729.0</ele><time>2026-05-01T10:36:57Z</time></trkpt><trkpt lat="43.56238495138614" lon="12.20862519806975"><ele>728.6666666666666</ele><time>2026-05-01T10:36:58Z</time></trkpt><trkpt lat="43.56244243495418" lon="12.208880427963052"><ele>728.3333333333333</ele><time>2026-05-01T10:36:59Z</time></trkpt><trkpt lat="43.56249932422109" lon="12.209133548932694"><ele>728.0</ele><time>2026-05-01T10:37:00Z</time></trkpt><trkpt lat="43.56255014924518" lon="12.20938356742286"><ele>726.3333333333333</ele><time>2026-05-01T10:37:01Z</time></trkpt><trkpt lat="43.562595390798634" lon="12.2096133012919"><ele>724.6666666666666</ele><time>2026-05-01T10:37:02Z</time></trkpt><trkpt lat="43.562638678976036" lon="12.209816035062728"><ele>723.0</ele><time>2026-05-01T10:37:03Z</time></trkpt><trkpt lat="43.56268824036909" lon="12.21000858801214"><ele>723.0</ele><time>2026-05-01T10:37:04Z</time></trkpt><trkpt lat="43.56276173633307" lon="12.210190799756594"><ele>723.0</ele><time>2026-05-01T10:37:05Z</time></trkpt><trkpt lat="43.56286005633694" lon="12.210359963426335"><ele>723.0</ele><time>2026-05-01T10:37:06Z</time></trkpt><trkpt lat="43.56297487550359" lon="12.210506855515542"><ele>725.0</ele><time>2026-05-01T10:37:07Z</time></trkpt><trkpt lat="43.56310130985524" lon="12.210621392856396"><ele>727.0</ele><time>2026-05-01T10:37:08Z</time></trkpt><trkpt lat="43.56323322613112" lon="12.210678658560946"><ele>729.0</ele><time>2026-05-01T10:37:09Z</time></trkpt><trkpt lat="43.56337876367123" lon="12.210665920820514"><ele>731.0</ele><time>2026-05-01T10:37:10Z</time></trkpt><trkpt lat="43.563523370860544" lon="12.210595828396663"><ele>735.0</ele><time>2026-05-01T10:37:11Z</time></trkpt><trkpt lat="43.563668345905256" lon="12.210503111618499"><ele>739.0</ele><time>2026-05-01T10:37:12Z</time></trkpt><trkpt lat="43.56381664226782" lon="12.210418044419523"><ele>743.0</ele><time>2026-05-01T10:37:13Z</time></trkpt><trkpt lat="43.56396633501413" lon="12.210334233744197"><ele>743.3333333333333</ele><time>2026-05-01T10:37:14Z</time></trkpt><trkpt lat="43.564110018531565" lon="12.210228712361204"><ele>743.6666666666666</ele><time>2026-05-01T10:37:15Z</time></trkpt><trkpt lat="43.56424264841385" lon="12.210096427448518"><ele>744.0</ele><time>2026-05-01T10:37:16Z</time></trkpt><trkpt lat="43.56436852811336" lon="12.209950800624615"><ele>747.6666666666666</ele><time>2026-05-01T10:37:17Z</time></trkpt><trkpt lat="43.5645018385045" lon="12.209816308085962"><ele>751.3333333333333</ele><time>2026-05-01T10:37:18Z</time></trkpt><trkpt lat="43.564646146086474" lon="12.209708084531012"><ele>755.0</ele><time>2026-05-01T10:37:19Z</time></trkpt><trkpt lat="43.56479890191381" lon="12.209631482266369"><ele>755.0</ele><time>2026-05-01T10:37:20Z</time></trkpt><trkpt lat="43.564952644776774" lon="12.20955672175592"><ele>755.0</ele><time>2026-05-01T10:37:21Z</time></trkpt><trkpt lat="43.565100333269726" lon="12.20945967648228"><ele>755.0</ele><time>2026-05-01T10:37:22Z</time></trkpt><trkpt lat="43.56524559542507" lon="12.209351275120587"><ele>754.25</ele><time>2026-05-01T10:37:23Z</time></trkpt><trkpt lat="43.56538331374696" lon="12.209241272951338"><ele>753.5</ele><time>2026-05-01T10:37:24Z</time></trkpt><trkpt lat="43.56550026121677" lon="12.2091220556729"><ele>752.75</ele><time>2026-05-01T10:37:25Z</time></trkpt><trkpt lat="43.565603126840735" lon="12.208996875086232"><ele>752.0</ele><time>2026-05-01T10:37:26Z</time></trkpt><trkpt lat="43.565702715274625" lon="12.208869018160392"><ele>752.0</ele><time>2026-05-01T10:37:27Z</time></trkpt><trkpt lat="43.565798696852994" lon="12.208741736344159"><ele>752.0</ele><time>2026-05-01T10:37:28Z</time></trkpt><trkpt lat="43.56588368436802" lon="12.208633678100119"><ele>752.0</ele><time>2026-05-01T10:37:29Z</time></trkpt><trkpt lat="43.565965700896655" lon="12.20856333567347"><ele>752.0</ele><time>2026-05-01T10:37:30Z</time></trkpt><trkpt lat="43.566048109204885" lon="12.20854129165178"><ele>752.0</ele><time>2026-05-01T10:37:31Z</time></trkpt><trkpt lat="43.56612903790743" lon="12.20857134752033"><ele>753.2</ele><time>2026-05-01T10:37:32Z</time></trkpt><trkpt lat="43.566214925724445" lon="12.208621219172993"><ele>754.4000000000001</ele><time>2026-05-01T10:37:33Z</time></trkpt><trkpt lat="43.56630690373771" lon="12.208664687945147"><ele>755.5999999999999</ele><time>2026-05-01T10:37:34Z</time></trkpt><trkpt lat="43.56640778640414" lon="12.208707806491127"><ele>756.8</ele><time>2026-05-01T10:37:35Z</time></trkpt><trkpt lat="43.56651317499986" lon="12.208757291618038"><ele>758.0</ele><time>2026-05-01T10:37:36Z</time></trkpt><trkpt lat="43.56662336060128" lon="12.208812469232498"><ele>758.0</ele><time>2026-05-01T10:37:37Z</time></trkpt><trkpt lat="43.56673990063148" lon="12.208864076230858"><ele>758.0</ele><time>2026-05-01T10:37:38Z</time></trkpt><trkpt lat="43.56686077884491" lon="12.208914512221709"><ele>758.0</ele><time>2026-05-01T10:37:39Z</time></trkpt><trkpt lat="43.56698473199838" lon="12.208967498546771"><ele>758.0</ele><time>2026-05-01T10:37:40Z</time></trkpt><trkpt lat="43.567110172305775" lon="12.209024449173668"><ele>759.5999999999999</ele><time>2026-05-01T10:37:41Z</time></trkpt><trkpt lat="43.56722405076421" lon="12.209077745128532"><ele>761.1999999999999</ele><time>2026-05-01T10:37:42Z</time></trkpt><trkpt lat="43.567324340309746" lon="12.209132115075514"><ele>762.8</ele><time>2026-05-01T10:37:43Z</time></trkpt><trkpt lat="43.56740265785416" lon="12.209205323726282"><ele>764.4</ele><time>2026-05-01T10:37:44Z</time></trkpt><trkpt lat="43.56744946911429" lon="12.209309886501746"><ele>766.0</ele><time>2026-05-01T10:37:45Z</time></trkpt><trkpt lat="43.56746067317516" lon="12.209438118806334"><ele>766.0</ele><time>2026-05-01T10:37:46Z</time></trkpt><trkpt lat="43.56746327772775" lon="12.209560047468871"><ele>766.0</ele><time>2026-05-01T10:37:47Z</time></trkpt><trkpt lat="43.56746762333971" lon="12.209690014872827"><ele>766.0</ele><time>2026-05-01T10:37:48Z</time></trkpt><trkpt lat="43.567494323961725" lon="12.209826294760756"><ele>766.0</ele><time>2026-05-01T10:37:49Z</time></trkpt><trkpt lat="43.567549240999355" lon="12.209961464191306"><ele>766.0</ele><time>2026-05-01T10:37:50Z</time></trkpt><trkpt lat="43.56762919340394" lon="12.210090301715871"><ele>763.75</ele><time>2026-05-01T10:37:51Z</time></trkpt><trkpt lat="43.56772788702286" lon="12.21021840568621"><ele>761.5</ele><time>2026-05-01T10:37:52Z</time></trkpt><trkpt lat="43.5678319321239" lon="12.210348076595205"><ele>759.25</ele><time>2026-05-01T10:37:53Z</time></trkpt><trkpt lat="43.56794431461506" lon="12.210476013192961"><ele>757.0</ele><time>2026-05-01T10:37:54Z</time></trkpt><trkpt lat="43.56805987049763" lon="12.210601901606092"><ele>760.0</ele><time>2026-05-01T10:37:55Z</time></trkpt><trkpt lat="43.568178374224324" lon="12.210729625594592"><ele>763.0</ele><time>2026-05-01T10:37:56Z</time></trkpt><trkpt lat="43.56830122930943" lon="12.210855175417777"><ele>766.0</ele><time>2026-05-01T10:37:57Z</time></trkpt><trkpt lat="43.568429441941376" lon="12.21097065218284"><ele>766.0</ele><time>2026-05-01T10:37:58Z</time></trkpt><trkpt lat="43.56856289209508" lon="12.211071618148454"><ele>766.0</ele><time>2026-05-01T10:37:59Z</time></trkpt><trkpt lat="43.56870573087746" lon="12.21114439904234"><ele>766.0</ele><time>2026-05-01T10:38:00Z</time></trkpt><trkpt lat="43.568853159226556" lon="12.211181089449177"><ele>768.5</ele><time>2026-05-01T10:38:01Z</time></trkpt><trkpt lat="43.568989883704376" lon="12.211179707346007"><ele>771.0</ele><time>2026-05-01T10:38:02Z</time></trkpt><trkpt lat="43.56911687222755" lon="12.2111514564184"><ele>773.5</ele><time>2026-05-01T10:38:03Z</time></trkpt><trkpt lat="43.569234452914756" lon="12.211081095120864"><ele>776.0</ele><time>2026-05-01T10:38:04Z</time></trkpt><trkpt lat="43.569337390681696" lon="12.21097507251401"><ele>776.0</ele><time>2026-05-01T10:38:05Z</time></trkpt><trkpt lat="43.56943035613338" lon="12.210855782614464"><ele>776.0</ele><time>2026-05-01T10:38:06Z</time></trkpt><trkpt lat="43.569528803483855" lon="12.21074363939283"><ele>776.0</ele><time>2026-05-01T10:38:07Z</time></trkpt><trkpt lat="43.56964151317908" lon="12.210649743580046"><ele>776.0</ele><time>2026-05-01T10:38:08Z</time></trkpt><trkpt lat="43.56976596528819" lon="12.210576233277525"><ele>783.0</ele><time>2026-05-01T10:38:09Z</time></trkpt><trkpt lat="43.56989801522524" lon="12.210526609225859"><ele>790.0</ele><time>2026-05-01T10:38:10Z</time></trkpt><trkpt lat="43.57003570756676" lon="12.21051864506372"><ele>797.0</ele><time>2026-05-01T10:38:11Z</time></trkpt><trkpt lat="43.57017329270507" lon="12.21054415328608"><ele>804.0</ele><time>2026-05-01T10:38:12Z</time></trkpt><trkpt lat="43.570312509080026" lon="12.210578001116028"><ele>805.0</ele><time>2026-05-01T10:38:13Z</time></trkpt><trkpt lat="43.57045240572827" lon="12.210610121532149"><ele>806.0</ele><time>2026-05-01T10:38:14Z</time></trkpt><trkpt lat="43.5705956722126" lon="12.210630430107754"><ele>807.0</ele><time>2026-05-01T10:38:15Z</time></trkpt><trkpt lat="43.5707493303906" lon="12.210638202498412"><ele>808.0</ele><time>2026-05-01T10:38:16Z</time></trkpt><trkpt lat="43.57090825125965" lon="12.210631433289736"><ele>808.0</ele><time>2026-05-01T10:38:17Z</time></trkpt><trkpt lat="43.57106720758133" lon="12.210600513447885"><ele>808.0</ele><time>2026-05-01T10:38:18Z</time></trkpt><trkpt lat="43.57122061213488" lon="12.210542707692161"><ele>808.0</ele><time>2026-05-01T10:38:19Z</time></trkpt><trkpt lat="43.57135651351224" lon="12.210467692677039"><ele>808.0</ele><time>2026-05-01T10:38:20Z</time></trkpt><trkpt lat="43.571490719547846" lon="12.210420123443146"><ele>808.0</ele><time>2026-05-01T10:38:21Z</time></trkpt><trkpt lat="43.57163700635928" lon="12.210437621092064"><ele>808.0</ele><time>2026-05-01T10:38:22Z</time></trkpt><trkpt lat="43.57177998323523" lon="12.210484476287291"><ele>808.0</ele><time>2026-05-01T10:38:23Z</time></trkpt><trkpt lat="43.571909112370776" lon="12.210523927805934"><ele>810.0</ele><time>2026-05-01T10:38:24Z</time></trkpt><trkpt lat="43.57203410169297" lon="12.210556160556191"><ele>812.0</ele><time>2026-05-01T10:38:25Z</time></trkpt><trkpt lat="43.572162016117666" lon="12.21059393509308"><ele>814.0</ele><time>2026-05-01T10:38:26Z</time></trkpt><trkpt lat="43.57228683889098" lon="12.210651161632855"><ele>816.0</ele><time>2026-05-01T10:38:27Z</time></trkpt><trkpt lat="43.572399595879766" lon="12.21073346283409"><ele>811.25</ele><time>2026-05-01T10:38:28Z</time></trkpt><trkpt lat="43.57248140945185" lon="12.210861049786804"><ele>806.5</ele><time>2026-05-01T10:38:29Z</time></trkpt><trkpt lat="43.572558255640224" lon="12.211024397265804"><ele>801.75</ele><time>2026-05-01T10:38:30Z</time></trkpt><trkpt lat="43.572657115006464" lon="12.21120385894022"><ele>797.0</ele><time>2026-05-01T10:38:31Z</time></trkpt><trkpt lat="43.57276764622215" lon="12.211381474296143"><ele>801.6666666666667</ele><time>2026-05-01T10:38:32Z</time></trkpt><trkpt lat="43.57288447248669" lon="12.211562756778077"><ele>806.3333333333333</ele><time>2026-05-01T10:38:33Z</time></trkpt><trkpt lat="43.57300457399845" lon="12.211752825925974"><ele>811.0</ele><time>2026-05-01T10:38:34Z</time></trkpt><trkpt lat="43.57312539632774" lon="12.211953209847"><ele>811.0</ele><time>2026-05-01T10:38:35Z</time></trkpt><trkpt lat="43.57324035514049" lon="12.212153720721423"><ele>811.0</ele><time>2026-05-01T10:38:36Z</time></trkpt><trkpt lat="43.573344144271516" lon="12.21236255538067"><ele>811.0</ele><time>2026-05-01T10:38:37Z</time></trkpt><trkpt lat="43.5734290247528" lon="12.212581250256541"><ele>807.0</ele><time>2026-05-01T10:38:38Z</time></trkpt><trkpt lat="43.57348300848392" lon="12.21282170040234"><ele>803.0</ele><time>2026-05-01T10:38:39Z</time></trkpt><trkpt lat="43.573506350102356" lon="12.213063884006264"><ele>799.0</ele><time>2026-05-01T10:38:40Z</time></trkpt><trkpt lat="43.57351197486281" lon="12.213302184474768"><ele>796.6666666666666</ele><time>2026-05-01T10:38:41Z</time></trkpt><trkpt lat="43.573510125698846" lon="12.213540884461626"><ele>794.3333333333333</ele><time>2026-05-01T10:38:42Z</time></trkpt><trkpt lat="43.57350694150028" lon="12.213760967014712"><ele>792.0</ele><time>2026-05-01T10:38:43Z</time></trkpt><trkpt lat="43.57351249440463" lon="12.21395195710155"><ele>793.5</ele><time>2026-05-01T10:38:44Z</time></trkpt><trkpt lat="43.57354930304967" lon="12.214127657830243"><ele>795.0</ele><time>2026-05-01T10:38:45Z</time></trkpt><trkpt lat="43.5736303080235" lon="12.21429416365456"><ele>796.5</ele><time>2026-05-01T10:38:46Z</time></trkpt><trkpt lat="43.57373722070138" lon="12.214438255346035"><ele>798.0</ele><time>2026-05-01T10:38:47Z</time></trkpt><trkpt lat="43.573858952724116" lon="12.214557065972402"><ele>803.0</ele><time>2026-05-01T10:38:48Z</time></trkpt><trkpt lat="43.57399112434141" lon="12.214645337250724"><ele>808.0</ele><time>2026-05-01T10:38:49Z</time></trkpt><trkpt lat="43.574137991460695" lon="12.21466998119696"><ele>813.0</ele><time>2026-05-01T10:38:50Z</time></trkpt><trkpt lat="43.574289415821944" lon="12.214615109222915"><ele>813.0</ele><time>2026-05-01T10:38:51Z</time></trkpt><trkpt lat="43.57443783315355" lon="12.214528468874567"><ele>813.0</ele><time>2026-05-01T10:38:52Z</time></trkpt><trkpt lat="43.574591173467134" lon="12.21445180185525"><ele>813.0</ele><time>2026-05-01T10:38:53Z</time></trkpt><trkpt lat="43.574745446962304" lon="12.214380185093274"><ele>816.3333333333333</ele><time>2026-05-01T10:38:54Z</time></trkpt><trkpt lat="43.57491016986623" lon="12.21434396964695"><ele>819.6666666666666</ele><time>2026-05-01T10:38:55Z</time></trkpt><trkpt lat="43.575079229451795" lon="12.21436462760006"><ele>823.0</ele><time>2026-05-01T10:38:56Z</time></trkpt><trkpt lat="43.57524587367526" lon="12.21442036846955"><ele>827.3333333333333</ele><time>2026-05-01T10:38:57Z</time></trkpt><trkpt lat="43.57540856990642" lon="12.214499516959703"><ele>831.6666666666667</ele><time>2026-05-01T10:38:58Z</time></trkpt><trkpt lat="43.575562422647096" lon="12.214584692859564"><ele>836.0</ele><time>2026-05-01T10:38:59Z</time></trkpt><trkpt lat="43.57572121966002" lon="12.214669538157892"><ele>836.0</ele><time>2026-05-01T10:39:00Z</time></trkpt><trkpt lat="43.575879886880685" lon="12.214752899303361"><ele>836.0</ele><time>2026-05-01T10:39:01Z</time></trkpt><trkpt lat="43.576042713843044" lon="12.21482926264099"><ele>836.0</ele><time>2026-05-01T10:39:02Z</time></trkpt><trkpt lat="43.57620336834044" lon="12.214898572889615"><ele>835.25</ele><time>2026-05-01T10:39:03Z</time></trkpt><trkpt lat="43.57634803988698" lon="12.21496233425902"><ele>834.5</ele><time>2026-05-01T10:39:04Z</time></trkpt><trkpt lat="43.576474680334016" lon="12.215038521044344"><ele>833.75</ele><time>2026-05-01T10:39:05Z</time></trkpt><trkpt lat="43.57657767308138" lon="12.215142266315477"><ele>833.0</ele><time>2026-05-01T10:39:06Z</time></trkpt><trkpt lat="43.57665147401892" lon="12.215290204491277"><ele>833.0</ele><time>2026-05-01T10:39:07Z</time></trkpt><trkpt lat="43.5766730159364" lon="12.215478830742372"><ele>833.0</ele><time>2026-05-01T10:39:08Z</time></trkpt><trkpt lat="43.576665995394045" lon="12.21567159447368"><ele>833.0</ele><time>2026-05-01T10:39:09Z</time></trkpt><trkpt lat="43.5766769024704" lon="12.215856900485026"><ele>833.0</ele><time>2026-05-01T10:39:10Z</time></trkpt><trkpt lat="43.57673903167356" lon="12.21603792799555"><ele>834.3333333333334</ele><time>2026-05-01T10:39:11Z</time></trkpt><trkpt lat="43.57683107226204" lon="12.216211139614941"><ele>835.6666666666667</ele><time>2026-05-01T10:39:12Z</time></trkpt><trkpt lat="43.57694318344409" lon="12.216373572311387"><ele>837.0</ele><time>2026-05-01T10:39:13Z</time></trkpt><trkpt lat="43.577076385057936" lon="12.216511402930587"><ele>837.0</ele><time>2026-05-01T10:39:14Z</time></trkpt><trkpt lat="43.577216134201215" lon="12.216623222867483"><ele>837.0</ele><time>2026-05-01T10:39:15Z</time></trkpt><trkpt lat="43.57734992692978" lon="12.216741353716644"><ele>837.0</ele><time>2026-05-01T10:39:16Z</time></trkpt><trkpt lat="43.57746922406576" lon="12.21687006287671"><ele>837.0</ele><time>2026-05-01T10:39:17Z</time></trkpt><trkpt lat="43.57755404502319" lon="12.21701579743514"><ele>837.0</ele><time>2026-05-01T10:39:18Z</time></trkpt><trkpt lat="43.577595235546184" lon="12.217200011737383"><ele>837.0</ele><time>2026-05-01T10:39:19Z</time></trkpt><trkpt lat="43.57758829514925" lon="12.21739815999095"><ele>837.0</ele><time>2026-05-01T10:39:20Z</time></trkpt><trkpt lat="43.577555549552564" lon="12.217594456404703"><ele>833.4000000000001</ele><time>2026-05-01T10:39:21Z</time></trkpt><trkpt lat="43.577520776181444" lon="12.217775324473207"><ele>829.8000000000001</ele><time>2026-05-01T10:39:22Z</time></trkpt><trkpt lat="43.577506261930516" lon="12.217927221533795"><ele>826.2</ele><time>2026-05-01T10:39:23Z</time></trkpt><trkpt lat="43.57752823493731" lon="12.218053420955309"><ele>822.6</ele><time>2026-05-01T10:39:24Z</time></trkpt><trkpt lat="43.57759711145176" lon="12.218145357719566"><ele>819.0</ele><time>2026-05-01T10:39:25Z</time></trkpt><trkpt lat="43.577701415216666" lon="12.218163846153809"><ele>819.0</ele><time>2026-05-01T10:39:26Z</time></trkpt><trkpt lat="43.57781565135427" lon="12.218122389455715"><ele>819.0</ele><time>2026-05-01T10:39:27Z</time></trkpt><trkpt lat="43.57793858128402" lon="12.21806843089184"><ele>819.0</ele><time>2026-05-01T10:39:28Z</time></trkpt><trkpt lat="43.57807384266775" lon="12.218019476645827"><ele>819.0</ele><time>2026-05-01T10:39:29Z</time></trkpt><trkpt lat="43.57821091920543" lon="12.217971897569045"><ele>820.5</ele><time>2026-05-01T10:39:30Z</time></trkpt><trkpt lat="43.578343897719016" lon="12.217956875800049"><ele>822.0</ele><time>2026-05-01T10:39:31Z</time></trkpt><trkpt lat="43.578468138600556" lon="12.218010944386874"><ele>823.5</ele><time>2026-05-01T10:39:32Z</time></trkpt><trkpt lat="43.57858163155486" lon="12.218129996917968"><ele>825.0</ele><time>2026-05-01T10:39:33Z</time></trkpt><trkpt lat="43.57867967522818" lon="12.218279998461197"><ele>829.75</ele><time>2026-05-01T10:39:34Z</time></trkpt><trkpt lat="43.57876986257012" lon="12.218420842988982"><ele>834.5</ele><time>2026-05-01T10:39:35Z</time></trkpt><trkpt lat="43.57886351211313" lon="12.218523689891079"><ele>839.25</ele><time>2026-05-01T10:39:36Z</time></trkpt><trkpt lat="43.578972821044864" lon="12.218575975109637"><ele>844.0</ele><time>2026-05-01T10:39:37Z</time></trkpt><trkpt lat="43.57909285547227" lon="12.218551302040469"><ele>844.0</ele><time>2026-05-01T10:39:38Z</time></trkpt><trkpt lat="43.5792113749784" lon="12.2184746028139"><ele>844.0</ele><time>2026-05-01T10:39:39Z</time></trkpt><trkpt lat="43.579328995875876" lon="12.218391285246962"><ele>844.0</ele><time>2026-05-01T10:39:40Z</time></trkpt><trkpt lat="43.579453928352805" lon="12.21831029234925"><ele>844.0</ele><time>2026-05-01T10:39:41Z</time></trkpt><trkpt lat="43.57958211070179" lon="12.218228320489503"><ele>847.25</ele><time>2026-05-01T10:39:42Z</time></trkpt><trkpt lat="43.579701825958246" lon="12.218171111650442"><ele>850.5</ele><time>2026-05-01T10:39:43Z</time></trkpt><trkpt lat="43.57981400153713" lon="12.218169205017519"><ele>853.75</ele><time>2026-05-01T10:39:44Z</time></trkpt><trkpt lat="43.579909490677835" lon="12.218246572062135"><ele>857.0</ele><time>2026-05-01T10:39:45Z</time></trkpt><trkpt lat="43.57998534746979" lon="12.218384682660155"><ele>857.0</ele><time>2026-05-01T10:39:46Z</time></trkpt><trkpt lat="43.58004898308262" lon="12.218542389834925"><ele>857.0</ele><time>2026-05-01T10:39:47Z</time></trkpt><trkpt lat="43.58011838786268" lon="12.218713168588485"><ele>857.0</ele><time>2026-05-01T10:39:48Z</time></trkpt><trkpt lat="43.58018766558035" lon="12.218891244470083"><ele>857.0</ele><time>2026-05-01T10:39:49Z</time></trkpt><trkpt lat="43.580258995430036" lon="12.219076888946692"><ele>860.6666666666667</ele><time>2026-05-01T10:39:50Z</time></trkpt><trkpt lat="43.58033788030446" lon="12.21926271100705"><ele>864.3333333333333</ele><time>2026-05-01T10:39:51Z</time></trkpt><trkpt lat="43.58040843906683" lon="12.219455914427089"><ele>868.0</ele><time>2026-05-01T10:39:52Z</time></trkpt><trkpt lat="43.58046772633191" lon="12.219654401510821"><ele>859.5</ele><time>2026-05-01T10:39:53Z</time></trkpt><trkpt lat="43.58052259010982" lon="12.219828880822595"><ele>851.0</ele><time>2026-05-01T10:39:54Z</time></trkpt><trkpt lat="43.580579413837974" lon="12.219967265999975"><ele>842.5</ele><time>2026-05-01T10:39:55Z</time></trkpt><trkpt lat="43.58065800949161" lon="12.220046545343658"><ele>834.0</ele><time>2026-05-01T10:39:56Z</time></trkpt><trkpt lat="43.58076222027361" lon="12.220059569265672"><ele>834.0</ele><time>2026-05-01T10:39:57Z</time></trkpt><trkpt lat="43.58087310119893" lon="12.219994912040434"><ele>834.0</ele><time>2026-05-01T10:39:58Z</time></trkpt><trkpt lat="43.580981357268605" lon="12.219908285273979"><ele>834.0</ele><time>2026-05-01T10:39:59Z</time></trkpt><trkpt lat="43.581104923828285" lon="12.21983421915624"><ele>834.0</ele><time>2026-05-01T10:40:00Z</time></trkpt><trkpt lat="43.58123513736412" lon="12.219759208788144"><ele>845.75</ele><time>2026-05-01T10:40:01Z</time></trkpt><trkpt lat="43.5813699336605" lon="12.219689644992709"><ele>857.5</ele><time>2026-05-01T10:40:02Z</time></trkpt><trkpt lat="43.58150798527118" lon="12.21961595800369"><ele>869.25</ele><time>2026-05-01T10:40:03Z</time></trkpt><trkpt lat="43.581652929249586" lon="12.219559318180291"><ele>881.0</ele><time>2026-05-01T10:40:04Z</time></trkpt><trkpt lat="43.58180086037253" lon="12.219557144407968"><ele>881.0</ele><time>2026-05-01T10:40:05Z</time></trkpt><trkpt lat="43.58192920190139" lon="12.219602219901391"><ele>881.0</ele><time>2026-05-01T10:40:06Z</time></trkpt><trkpt lat="43.58202837940212" lon="12.21968152518343"><ele>881.0</ele><time>2026-05-01T10:40:07Z</time></trkpt><trkpt lat="43.58207447317251" lon="12.219803986518185"><ele>881.0</ele><time>2026-05-01T10:40:08Z</time></trkpt><trkpt lat="43.58206695719293" lon="12.219949085116605"><ele>879.25</ele><time>2026-05-01T10:40:09Z</time></trkpt><trkpt lat="43.58203899089363" lon="12.220117400194045"><ele>877.5</ele><time>2026-05-01T10:40:10Z</time></trkpt><trkpt lat="43.58202827143783" lon="12.220297949830504"><ele>875.75</ele><time>2026-05-01T10:40:11Z</time></trkpt><trkpt lat="43.58202903253664" lon="12.220490073544951"><ele>874.0</ele><time>2026-05-01T10:40:12Z</time></trkpt><trkpt lat="43.58202484858551" lon="12.220689230406004"><ele>871.75</ele><time>2026-05-01T10:40:13Z</time></trkpt><trkpt lat="43.58203682683476" lon="12.220893298239535"><ele>869.5</ele><time>2026-05-01T10:40:14Z</time></trkpt><trkpt lat="43.582072118358205" lon="12.221091666883009"><ele>867.25</ele><time>2026-05-01T10:40:15Z</time></trkpt><trkpt lat="43.58211690966099" lon="12.22128112054108"><ele>865.0</ele><time>2026-05-01T10:40:16Z</time></trkpt><trkpt lat="43.58214938265101" lon="12.221451333942008"><ele>860.6</ele><time>2026-05-01T10:40:17Z</time></trkpt><trkpt lat="43.58217895207204" lon="12.22159869853991"><ele>856.2</ele><time>2026-05-01T10:40:18Z</time></trkpt><trkpt lat="43.582232358965484" lon="12.221693526248087"><ele>851.8</ele><time>2026-05-01T10:40:19Z</time></trkpt><trkpt lat="43.58231522696551" lon="12.22172262472725"><ele>847.4</ele><time>2026-05-01T10:40:20Z</time></trkpt><trkpt lat="43.582410012673826" lon="12.221689823073207"><ele>843.0</ele><time>2026-05-01T10:40:21Z</time></trkpt><trkpt lat="43.58251125240101" lon="12.221622571957619"><ele>843.0</ele><time>2026-05-01T10:40:22Z</time></trkpt><trkpt lat="43.58262851928858" lon="12.221560471095383"><ele>843.0</ele><time>2026-05-01T10:40:23Z</time></trkpt><trkpt lat="43.58275516313405" lon="12.221509575484754"><ele>843.0</ele><time>2026-05-01T10:40:24Z</time></trkpt><trkpt lat="43.5828858495402" lon="12.22145321693876"><ele>843.0</ele><time>2026-05-01T10:40:25Z</time></trkpt><trkpt lat="43.583021190335124" lon="12.22141005627854"><ele>843.25</ele><time>2026-05-01T10:40:26Z</time></trkpt><trkpt lat="43.583152580635954" lon="12.221406823657805"><ele>843.5</ele><time>2026-05-01T10:40:27Z</time></trkpt><trkpt lat="43.58328105618955" lon="12.221460564213457"><ele>843.75</ele><time>2026-05-01T10:40:28Z</time></trkpt><trkpt lat="43.58340154836116" lon="12.22151766846454"><ele>844.0</ele><time>2026-05-01T10:40:29Z</time></trkpt><trkpt lat="43.583527745776905" lon="12.22150965842198"><ele>852.5</ele><time>2026-05-01T10:40:30Z</time></trkpt><trkpt lat="43.58365075709218" lon="12.22145462873358"><ele>861.0</ele><time>2026-05-01T10:40:31Z</time></trkpt><trkpt lat="43.58377085688756" lon="12.221403724677412"><ele>869.5</ele><time>2026-05-01T10:40:32Z</time></trkpt><trkpt lat="43.58388886962416" lon="12.221420001354216"><ele>878.0</ele><time>2026-05-01T10:40:33Z</time></trkpt><trkpt lat="43.583984949821605" lon="12.221513553312764"><ele>878.0</ele><time>2026-05-01T10:40:34Z</time></trkpt><trkpt lat="43.58405794263949" lon="12.221663745672465"><ele>878.0</ele><time>2026-05-01T10:40:35Z</time></trkpt><trkpt lat="43.58409453156615" lon="12.22185008606898"><ele>878.0</ele><time>2026-05-01T10:40:36Z</time></trkpt><trkpt lat="43.584097856630834" lon="12.222054485300786"><ele>878.0</ele><time>2026-05-01T10:40:37Z</time></trkpt><trkpt lat="43.58409312630109" lon="12.222255620027086"><ele>871.0</ele><time>2026-05-01T10:40:38Z</time></trkpt><trkpt lat="43.584113130834744" lon="12.222461264423904"><ele>864.0</ele><time>2026-05-01T10:40:39Z</time></trkpt><trkpt lat="43.58416828435256" lon="12.222665714305938"><ele>857.0</ele><time>2026-05-01T10:40:40Z</time></trkpt><trkpt lat="43.584239337685055" lon="12.222854487188979"><ele>857.0</ele><time>2026-05-01T10:40:41Z</time></trkpt><trkpt lat="43.584311668661385" lon="12.223016846360506"><ele>857.0</ele><time>2026-05-01T10:40:42Z</time></trkpt><trkpt lat="43.58436739942081" lon="12.223179180518125"><ele>857.0</ele><time>2026-05-01T10:40:43Z</time></trkpt><trkpt lat="43.58437087951761" lon="12.223360698673005"><ele>857.0</ele><time>2026-05-01T10:40:44Z</time></trkpt><trkpt lat="43.58432799851596" lon="12.223553481933907"><ele>856.3333333333334</ele><time>2026-05-01T10:40:45Z</time></trkpt><trkpt lat="43.584258393170664" lon="12.223739072521166"><ele>855.6666666666667</ele><time>2026-05-01T10:40:46Z</time></trkpt><trkpt lat="43.5841988132718" lon="12.223931622364608"><ele>855.0</ele><time>2026-05-01T10:40:47Z</time></trkpt><trkpt lat="43.584157196059365" lon="12.224134390728132"><ele>855.0</ele><time>2026-05-01T10:40:48Z</time></trkpt><trkpt lat="43.58409248503896" lon="12.224305700086617"><ele>855.0</ele><time>2026-05-01T10:40:49Z</time></trkpt><trkpt lat="43.5840052238894" lon="12.224441939702508"><ele>855.0</ele><time>2026-05-01T10:40:50Z</time></trkpt><trkpt lat="43.58393913472175" lon="12.2245766523788"><ele>855.0</ele><time>2026-05-01T10:40:51Z</time></trkpt><trkpt lat="43.58390877616754" lon="12.224721021714286"><ele>855.75</ele><time>2026-05-01T10:40:52Z</time></trkpt><trkpt lat="43.58392976423123" lon="12.224864284257468"><ele>856.5</ele><time>2026-05-01T10:40:53Z</time></trkpt><trkpt lat="43.584007342469164" lon="12.224978927974822"><ele>857.25</ele><time>2026-05-01T10:40:54Z</time></trkpt><trkpt lat="43.58412583955829" lon="12.225042015540842"><ele>858.0</ele><time>2026-05-01T10:40:55Z</time></trkpt><trkpt lat="43.58425529035891" lon="12.225085974493918"><ele>858.0</ele><time>2026-05-01T10:40:56Z</time></trkpt><trkpt lat="43.584386914309505" lon="12.225139557707188"><ele>858.0</ele><time>2026-05-01T10:40:57Z</time></trkpt><trkpt lat="43.584521893734056" lon="12.225217254450014"><ele>858.0</ele><time>2026-05-01T10:40:58Z</time></trkpt><trkpt lat="43.58465041271043" lon="12.225327911813693"><ele>858.0</ele><time>2026-05-01T10:40:59Z</time></trkpt><trkpt lat="43.58476421707756" lon="12.225464444294719"><ele>854.5</ele><time>2026-05-01T10:41:00Z</time></trkpt><trkpt lat="43.58486293834227" lon="12.225592206208614"><ele>851.0</ele><time>2026-05-01T10:41:01Z</time></trkpt><trkpt lat="43.58497036378625" lon="12.225680695246925"><ele>847.5</ele><time>2026-05-01T10:41:01.999Z</time></trkpt><trkpt lat="43.58509989181653" lon="12.225706001234354"><ele>844.0</ele><time>2026-05-01T10:41:02.999Z</time></trkpt><trkpt lat="43.58523858886253" lon="12.225670353817481"><ele>856.25</ele><time>2026-05-01T10:41:03.999Z</time></trkpt><trkpt lat="43.58537498793163" lon="12.225609598238533"><ele>868.5</ele><time>2026-05-01T10:41:04.999Z</time></trkpt><trkpt lat="43.58551832925616" lon="12.2255476896221"><ele>880.75</ele><time>2026-05-01T10:41:05.999Z</time></trkpt><trkpt lat="43.58566393275018" lon="12.225485735198518"><ele>893.0</ele><time>2026-05-01T10:41:06.999Z</time></trkpt><trkpt lat="43.5858129643676" lon="12.225424604470678"><ele>893.0</ele><time>2026-05-01T10:41:07.999Z</time></trkpt><trkpt lat="43.58596384660745" lon="12.225365165720548"><ele>893.0</ele><time>2026-05-01T10:41:08.999Z</time></trkpt><trkpt lat="43.58612199720231" lon="12.22532922010119"><ele>893.0</ele><time>2026-05-01T10:41:09.999Z</time></trkpt><trkpt lat="43.58627959038386" lon="12.225332605543967"><ele>894.3333333333334</ele><time>2026-05-01T10:41:10.999Z</time></trkpt><trkpt lat="43.586434861383204" lon="12.225373891625313"><ele>895.6666666666667</ele><time>2026-05-01T10:41:11.999Z</time></trkpt><trkpt lat="43.58657908843553" lon="12.225445428655512"><ele>897.0</ele><time>2026-05-01T10:41:12.999Z</time></trkpt><trkpt lat="43.586707832850934" lon="12.225555880562819"><ele>892.0</ele><time>2026-05-01T10:41:13.999Z</time></trkpt><trkpt lat="43.58681625597498" lon="12.225708426644387"><ele>887.0</ele><time>2026-05-01T10:41:14.999Z</time></trkpt><trkpt lat="43.58689863480534" lon="12.225880644814506"><ele>882.0</ele><time>2026-05-01T10:41:16Z</time></trkpt><trkpt lat="43.58692969252025" lon="12.226055296780869"><ele>877.0</ele><time>2026-05-01T10:41:17Z</time></trkpt><trkpt lat="43.5868932645632" lon="12.22622792440581"><ele>877.0</ele><time>2026-05-01T10:41:18Z</time></trkpt><trkpt lat="43.586817618653484" lon="12.226394744471058"><ele>877.0</ele><time>2026-05-01T10:41:19Z</time></trkpt><trkpt lat="43.58676416075587" lon="12.22657507448207"><ele>877.0</ele><time>2026-05-01T10:41:20Z</time></trkpt><trkpt lat="43.58675525105015" lon="12.226782403483252"><ele>877.0</ele><time>2026-05-01T10:41:21Z</time></trkpt><trkpt lat="43.58677920296956" lon="12.226996179729761"><ele>875.25</ele><time>2026-05-01T10:41:22Z</time></trkpt><trkpt lat="43.586816920930495" lon="12.227208740462899"><ele>873.5</ele><time>2026-05-01T10:41:23Z</time></trkpt><trkpt lat="43.58684758353861" lon="12.227404988323084"><ele>871.75</ele><time>2026-05-01T10:41:24Z</time></trkpt><trkpt lat="43.58687368569654" lon="12.227574562107812"><ele>870.0</ele><time>2026-05-01T10:41:25Z</time></trkpt><trkpt lat="43.58692231882155" lon="12.22771004519383"><ele>877.0</ele><time>2026-05-01T10:41:26Z</time></trkpt><trkpt lat="43.58701352550232" lon="12.22780259098535"><ele>884.0</ele><time>2026-05-01T10:41:27Z</time></trkpt><trkpt lat="43.58713650529757" lon="12.227833587526728"><ele>891.0</ele><time>2026-05-01T10:41:28Z</time></trkpt><trkpt lat="43.58727007776296" lon="12.227822033412847"><ele>898.0</ele><time>2026-05-01T10:41:29Z</time></trkpt><trkpt lat="43.587413542957115" lon="12.227817319761462"><ele>898.0</ele><time>2026-05-01T10:41:30Z</time></trkpt><trkpt lat="43.58755979958912" lon="12.227836299541002"><ele>898.0</ele><time>2026-05-01T10:41:31Z</time></trkpt><trkpt lat="43.587705747022454" lon="12.227882029537334"><ele>898.0</ele><time>2026-05-01T10:41:32Z</time></trkpt><trkpt lat="43.587845726802406" lon="12.227960008726376"><ele>898.0</ele><time>2026-05-01T10:41:33Z</time></trkpt><trkpt lat="43.587966327473644" lon="12.228053791486925"><ele>902.0</ele><time>2026-05-01T10:41:34Z</time></trkpt><trkpt lat="43.588086691502426" lon="12.228093781849065"><ele>906.0</ele><time>2026-05-01T10:41:35Z</time></trkpt><trkpt lat="43.58821255434878" lon="12.228053883438244"><ele>910.0</ele><time>2026-05-01T10:41:36Z</time></trkpt><trkpt lat="43.58833672174772" lon="12.228018870814672"><ele>914.0</ele><time>2026-05-01T10:41:37Z</time></trkpt><trkpt lat="43.58846313555781" lon="12.228081320315864"><ele>912.5</ele><time>2026-05-01T10:41:38Z</time></trkpt><trkpt lat="43.58857689143996" lon="12.228194316821813"><ele>911.0</ele><time>2026-05-01T10:41:39Z</time></trkpt><trkpt lat="43.588673245207076" lon="12.228340491894187"><ele>909.5</ele><time>2026-05-01T10:41:40Z</time></trkpt><trkpt lat="43.58873702942212" lon="12.228521533574654"><ele>908.0</ele><time>2026-05-01T10:41:41Z</time></trkpt><trkpt lat="43.58879081151418" lon="12.228697393393979"><ele>908.0</ele><time>2026-05-01T10:41:42Z</time></trkpt><trkpt lat="43.58887588384575" lon="12.228829093422323"><ele>908.0</ele><time>2026-05-01T10:41:43Z</time></trkpt><trkpt lat="43.589009901822756" lon="12.228897554472423"><ele>908.0</ele><time>2026-05-01T10:41:44Z</time></trkpt><trkpt lat="43.58915907959497" lon="12.22892225787867"><ele>908.0</ele><time>2026-05-01T10:41:45Z</time></trkpt><trkpt lat="43.58930360932073" lon="12.228928552765353"><ele>908.0</ele><time>2026-05-01T10:41:46Z</time></trkpt><trkpt lat="43.58943064640047" lon="12.228963449530845"><ele>908.0</ele><time>2026-05-01T10:41:47Z</time></trkpt><trkpt lat="43.58953999644916" lon="12.229078315469511"><ele>908.0</ele><time>2026-05-01T10:41:48Z</time></trkpt><trkpt lat="43.58963216670873" lon="12.229233286153754"><ele>908.0</ele><time>2026-05-01T10:41:49Z</time></trkpt><trkpt lat="43.589708991350854" lon="12.22940049609399"><ele>907.5</ele><time>2026-05-01T10:41:50Z</time></trkpt><trkpt lat="43.58976395939798" lon="12.229574983433675"><ele>907.0</ele><time>2026-05-01T10:41:51Z</time></trkpt><trkpt lat="43.58977793982776" lon="12.229733785239208"><ele>906.5</ele><time>2026-05-01T10:41:52Z</time></trkpt><trkpt lat="43.589728470325085" lon="12.229882369464123"><ele>906.0</ele><time>2026-05-01T10:41:53Z</time></trkpt><trkpt lat="43.58964441320067" lon="12.230034317761023"><ele>904.75</ele><time>2026-05-01T10:41:54Z</time></trkpt><trkpt lat="43.5895457022946" lon="12.230180515487504"><ele>903.5</ele><time>2026-05-01T10:41:55Z</time></trkpt><trkpt lat="43.58943824769799" lon="12.230312550593688"><ele>902.25</ele><time>2026-05-01T10:41:56Z</time></trkpt><trkpt lat="43.58932864516832" lon="12.23044444569172"><ele>901.0</ele><time>2026-05-01T10:41:57Z</time></trkpt><trkpt lat="43.58921854781575" lon="12.230581182000197"><ele>899.5999999999999</ele><time>2026-05-01T10:41:58Z</time></trkpt><trkpt lat="43.58911704095527" lon="12.230707826842007"><ele>898.1999999999999</ele><time>2026-05-01T10:41:59Z</time></trkpt><trkpt lat="43.5890367518955" lon="12.23081462885218"><ele>896.8000000000001</ele><time>2026-05-01T10:42:00Z</time></trkpt><trkpt lat="43.58899852808196" lon="12.23092498910129"><ele>895.4000000000001</ele><time>2026-05-01T10:42:01Z</time></trkpt><trkpt lat="43.58901650599675" lon="12.231037281469154"><ele>894.0</ele><time>2026-05-01T10:42:02Z</time></trkpt><trkpt lat="43.58907791320617" lon="12.231122491453931"><ele>894.0</ele><time>2026-05-01T10:42:03Z</time></trkpt><trkpt lat="43.58917135907194" lon="12.231153281516614"><ele>894.0000000000001</ele><time>2026-05-01T10:42:04Z</time></trkpt><trkpt lat="43.58926876606641" lon="12.231104779312936"><ele>894.0000000000001</ele><time>2026-05-01T10:42:05Z</time></trkpt><trkpt lat="43.589356381106924" lon="12.230994720749093"><ele>894.0</ele><time>2026-05-01T10:42:06Z</time></trkpt><trkpt lat="43.58944287798826" lon="12.230860215038623"><ele>894.0</ele><time>2026-05-01T10:42:07Z</time></trkpt><trkpt lat="43.5895457698533" lon="12.230726144114831"><ele>895.75</ele><time>2026-05-01T10:42:08Z</time></trkpt><trkpt lat="43.5896520103395" lon="12.230601487875585"><ele>897.5</ele><time>2026-05-01T10:42:09Z</time></trkpt><trkpt lat="43.58976160359268" lon="12.23048635216489"><ele>899.25</ele><time>2026-05-01T10:42:10Z</time></trkpt><trkpt lat="43.5898896033284" lon="12.230403989298582"><ele>901.0</ele><time>2026-05-01T10:42:11Z</time></trkpt><trkpt lat="43.59002254586513" lon="12.230343170039875"><ele>901.0</ele><time>2026-05-01T10:42:12Z</time></trkpt><trkpt lat="43.590155501863194" lon="12.23028658040668"><ele>901.0</ele><time>2026-05-01T10:42:13Z</time></trkpt><trkpt lat="43.590266748317646" lon="12.230183584647465"><ele>901.0</ele><time>2026-05-01T10:42:14Z</time></trkpt><trkpt lat="43.59035117186662" lon="12.23004104345055"><ele>901.0</ele><time>2026-05-01T10:42:15Z</time></trkpt><trkpt lat="43.590388350444314" lon="12.229857791525482"><ele>902.25</ele><time>2026-05-01T10:42:16Z</time></trkpt><trkpt lat="43.59038720065675" lon="12.229656869188627"><ele>903.5</ele><time>2026-05-01T10:42:17Z</time></trkpt><trkpt lat="43.59036850770914" lon="12.229451290250754"><ele>904.75</ele><time>2026-05-01T10:42:18Z</time></trkpt><trkpt lat="43.59033656611772" lon="12.229245066223708"><ele>906.0</ele><time>2026-05-01T10:42:19Z</time></trkpt><trkpt lat="43.590282781055954" lon="12.229036555387605"><ele>912.0</ele><time>2026-05-01T10:42:20Z</time></trkpt><trkpt lat="43.590224423359224" lon="12.228832622615073"><ele>918.0</ele><time>2026-05-01T10:42:21Z</time></trkpt><trkpt lat="43.59017391232854" lon="12.22862883406741"><ele>924.0</ele><time>2026-05-01T10:42:22Z</time></trkpt><trkpt lat="43.590125961606965" lon="12.228453070687506"><ele>924.0</ele><time>2026-05-01T10:42:23Z</time></trkpt><trkpt lat="43.590048105051125" lon="12.228304635356"><ele>924.0</ele><time>2026-05-01T10:42:24Z</time></trkpt><trkpt lat="43.58993815532756" lon="12.228189677565782"><ele>924.0</ele><time>2026-05-01T10:42:25Z</time></trkpt><trkpt lat="43.58980556113305" lon="12.228131733976443"><ele>924.0</ele><time>2026-05-01T10:42:26Z</time></trkpt><trkpt lat="43.58967860044502" lon="12.228095263157865"><ele>925.5</ele><time>2026-05-01T10:42:27Z</time></trkpt><trkpt lat="43.589566532165755" lon="12.228058596200341"><ele>927.0</ele><time>2026-05-01T10:42:28Z</time></trkpt><trkpt lat="43.58948180684143" lon="12.228010307154777"><ele>928.5</ele><time>2026-05-01T10:42:29Z</time></trkpt><trkpt lat="43.58943879764369" lon="12.22792408275651"><ele>930.0</ele><time>2026-05-01T10:42:30Z</time></trkpt><trkpt lat="43.589445920535375" lon="12.227829916051233"><ele>931.5</ele><time>2026-05-01T10:42:31Z</time></trkpt><trkpt lat="43.589511826343994" lon="12.22778252434908"><ele>933.0</ele><time>2026-05-01T10:42:32Z</time></trkpt><trkpt lat="43.58960180993545" lon="12.227783384123464"><ele>937.5999999999999</ele><time>2026-05-01T10:42:33Z</time></trkpt><trkpt lat="43.589695320235336" lon="12.227818626683664"><ele>942.1999999999999</ele><time>2026-05-01T10:42:34Z</time></trkpt><trkpt lat="43.58979770014662" lon="12.227854769090461"><ele>946.8</ele><time>2026-05-01T10:42:35Z</time></trkpt><trkpt lat="43.58991139405503" lon="12.22790121023228"><ele>951.4</ele><time>2026-05-01T10:42:36Z</time></trkpt><trkpt lat="43.59002505494353" lon="12.22797730047854"><ele>956.0</ele><time>2026-05-01T10:42:37Z</time></trkpt><trkpt lat="43.590126836698964" lon="12.228089744001386"><ele>956.0</ele><time>2026-05-01T10:42:38Z</time></trkpt><trkpt lat="43.590220290708366" lon="12.228231698914835"><ele>956.0</ele><time>2026-05-01T10:42:39Z</time></trkpt><trkpt lat="43.59030326324655" lon="12.22839489339425"><ele>956.0</ele><time>2026-05-01T10:42:40Z</time></trkpt><trkpt lat="43.59037668770298" lon="12.228566551971486"><ele>956.0</ele><time>2026-05-01T10:42:41Z</time></trkpt><trkpt lat="43.59045057027596" lon="12.228738857757646"><ele>956.0</ele><time>2026-05-01T10:42:42Z</time></trkpt><trkpt lat="43.59053594216757" lon="12.228903387656727"><ele>956.0</ele><time>2026-05-01T10:42:43Z</time></trkpt><trkpt lat="43.59063807160916" lon="12.229056346463048"><ele>956.0</ele><time>2026-05-01T10:42:44Z</time></trkpt><trkpt lat="43.59073189036306" lon="12.229219461684982"><ele>956.0</ele><time>2026-05-01T10:42:45Z</time></trkpt><trkpt lat="43.59079748227613" lon="12.229409146407178"><ele>951.0</ele><time>2026-05-01T10:42:46Z</time></trkpt><trkpt lat="43.590853805750555" lon="12.229606747952275"><ele>946.0</ele><time>2026-05-01T10:42:47Z</time></trkpt><trkpt lat="43.590914156142944" lon="12.22980031463216"><ele>941.0</ele><time>2026-05-01T10:42:48Z</time></trkpt><trkpt lat="43.59097159218088" lon="12.22999451574753"><ele>939.0</ele><time>2026-05-01T10:42:49Z</time></trkpt><trkpt lat="43.59100579151486" lon="12.230197827138472"><ele>937.0</ele><time>2026-05-01T10:42:50Z</time></trkpt><trkpt lat="43.590994002176274" lon="12.230409960757724"><ele>935.0</ele><time>2026-05-01T10:42:51Z</time></trkpt><trkpt lat="43.59095029864769" lon="12.230616726664461"><ele>938.3333333333334</ele><time>2026-05-01T10:42:52Z</time></trkpt><trkpt lat="43.59089421417724" lon="12.230817715384493"><ele>941.6666666666667</ele><time>2026-05-01T10:42:53Z</time></trkpt><trkpt lat="43.59082913014667" lon="12.231016090941933"><ele>945.0</ele><time>2026-05-01T10:42:54Z</time></trkpt><trkpt lat="43.590742036345105" lon="12.231188581395818"><ele>945.0</ele><time>2026-05-01T10:42:55Z</time></trkpt><trkpt lat="43.590634743637466" lon="12.231299251784973"><ele>945.0</ele><time>2026-05-01T10:42:56Z</time></trkpt><trkpt lat="43.59052810762144" lon="12.231399913980471"><ele>945.0</ele><time>2026-05-01T10:42:57Z</time></trkpt><trkpt lat="43.59044061631519" lon="12.231523482114751"><ele>945.0</ele><time>2026-05-01T10:42:58Z</time></trkpt><trkpt lat="43.59038275534957" lon="12.23165148815504"><ele>947.4</ele><time>2026-05-01T10:42:59Z</time></trkpt><trkpt lat="43.59037283994647" lon="12.231777419698824"><ele>949.8</ele><time>2026-05-01T10:43:00Z</time></trkpt><trkpt lat="43.590429892857486" lon="12.231870014018295"><ele>952.2</ele><time>2026-05-01T10:43:01Z</time></trkpt><trkpt lat="43.59051956738761" lon="12.231895024428818"><ele>954.6</ele><time>2026-05-01T10:43:02Z</time></trkpt><trkpt lat="43.59061743459456" lon="12.231832503325464"><ele>957.0</ele><time>2026-05-01T10:43:03Z</time></trkpt><trkpt lat="43.59069953626733" lon="12.23171698190621"><ele>957.0</ele><time>2026-05-01T10:43:04Z</time></trkpt><trkpt lat="43.59077732704104" lon="12.23157565064454"><ele>957.0</ele><time>2026-05-01T10:43:05Z</time></trkpt><trkpt lat="43.59086499924968" lon="12.23142685989661"><ele>957.0</ele><time>2026-05-01T10:43:06Z</time></trkpt><trkpt lat="43.59096344758537" lon="12.231268772079218"><ele>957.0</ele><time>2026-05-01T10:43:07Z</time></trkpt><trkpt lat="43.59105605106484" lon="12.231101951538637"><ele>953.0</ele><time>2026-05-01T10:43:07.999Z</time></trkpt><trkpt lat="43.59113891369918" lon="12.23092985466916"><ele>949.0</ele><time>2026-05-01T10:43:08.999Z</time></trkpt><trkpt lat="43.59121881271472" lon="12.230748775064784"><ele>945.0</ele><time>2026-05-01T10:43:09.999Z</time></trkpt><trkpt lat="43.59130698629351" lon="12.230576732395123"><ele>951.75</ele><time>2026-05-01T10:43:10.999Z</time></trkpt><trkpt lat="43.59140663067192" lon="12.230432529700881"><ele>958.5</ele><time>2026-05-01T10:43:11.999Z</time></trkpt><trkpt lat="43.59148553249605" lon="12.230285855181428"><ele>965.25</ele><time>2026-05-01T10:43:12.999Z</time></trkpt><trkpt lat="43.591517346998565" lon="12.230096385653457"><ele>972.0</ele><time>2026-05-01T10:43:13.999Z</time></trkpt><trkpt lat="43.59149564217248" lon="12.2299003671631"><ele>973.75</ele><time>2026-05-01T10:43:14.999Z</time></trkpt><trkpt lat="43.59145177241857" lon="12.229708989553266"><ele>975.5</ele><time>2026-05-01T10:43:15.999Z</time></trkpt><trkpt lat="43.591443653551615" lon="12.229503696704155"><ele>977.25</ele><time>2026-05-01T10:43:16.999Z</time></trkpt><trkpt lat="43.591469628476425" lon="12.229299070712266"><ele>979.0</ele><time>2026-05-01T10:43:17.999Z</time></trkpt><trkpt lat="43.591479517576374" lon="12.229099735394561"><ele>982.0</ele><time>2026-05-01T10:43:19Z</time></trkpt><trkpt lat="43.59144950326216" lon="12.228906256265187"><ele>985.0</ele><time>2026-05-01T10:43:20Z</time></trkpt><trkpt lat="43.59138403636498" lon="12.22873369354057"><ele>988.0</ele><time>2026-05-01T10:43:21Z</time></trkpt><trkpt lat="43.5912981327254" lon="12.228585131506078"><ele>991.0</ele><time>2026-05-01T10:43:22Z</time></trkpt><trkpt lat="43.591220258260584" lon="12.228426940267445"><ele>990.5999999999999</ele><time>2026-05-01T10:43:23Z</time></trkpt><trkpt lat="43.591150988899436" lon="12.228275259105041"><ele>990.1999999999999</ele><time>2026-05-01T10:43:24Z</time></trkpt><trkpt lat="43.59109891150627" lon="12.228148245904222"><ele>989.8000000000001</ele><time>2026-05-01T10:43:25Z</time></trkpt><trkpt lat="43.59108173512893" lon="12.228037208416625"><ele>989.4000000000001</ele><time>2026-05-01T10:43:26Z</time></trkpt><trkpt lat="43.591116914104845" lon="12.227950643513767"><ele>989.0</ele><time>2026-05-01T10:43:27Z</time></trkpt><trkpt lat="43.59119069603112" lon="12.227921537051929"><ele>989.4000000000001</ele><time>2026-05-01T10:43:28Z</time></trkpt><trkpt lat="43.59126544621226" lon="12.227971415874148"><ele>989.8000000000001</ele><time>2026-05-01T10:43:29Z</time></trkpt><trkpt lat="43.591331633286806" lon="12.22807708317721"><ele>990.1999999999999</ele><time>2026-05-01T10:43:30Z</time></trkpt><trkpt lat="43.59140477690537" lon="12.228203842359056"><ele>990.5999999999999</ele><time>2026-05-01T10:43:31Z</time></trkpt><trkpt lat="43.59149277910646" lon="12.228351881069548"><ele>991.0</ele><time>2026-05-01T10:43:32Z</time></trkpt><trkpt lat="43.59158959498466" lon="12.228508223052566"><ele>991.0</ele><time>2026-05-01T10:43:33Z</time></trkpt><trkpt lat="43.59167038630485" lon="12.228667020607162"><ele>991.0</ele><time>2026-05-01T10:43:34Z</time></trkpt><trkpt lat="43.59173728608436" lon="12.228854432660714"><ele>991.0</ele><time>2026-05-01T10:43:35Z</time></trkpt><trkpt lat="43.59176929408943" lon="12.22908687447859"><ele>987.0</ele><time>2026-05-01T10:43:36Z</time></trkpt><trkpt lat="43.59178226420175" lon="12.229338680134225"><ele>983.0</ele><time>2026-05-01T10:43:37Z</time></trkpt><trkpt lat="43.59183315566966" lon="12.22957157007862"><ele>979.0</ele><time>2026-05-01T10:43:38Z</time></trkpt><trkpt lat="43.5919168029742" lon="12.229797038881609"><ele>976.6666666666666</ele><time>2026-05-01T10:43:39Z</time></trkpt><trkpt lat="43.5919822707344" lon="12.230035143192604"><ele>974.3333333333333</ele><time>2026-05-01T10:43:40Z</time></trkpt><trkpt lat="43.59200326146111" lon="12.230294063645616"><ele>972.0</ele><time>2026-05-01T10:43:41Z</time></trkpt><trkpt lat="43.59198979636189" lon="12.230550055891618"><ele>973.6666666666667</ele><time>2026-05-01T10:43:42Z</time></trkpt><trkpt lat="43.59196213696698" lon="12.230762546964204"><ele>975.3333333333334</ele><time>2026-05-01T10:43:43Z</time></trkpt><trkpt lat="43.59190459363492" lon="12.2309433024939"><ele>977.0</ele><time>2026-05-01T10:43:44Z</time></trkpt><trkpt lat="43.591791385742475" lon="12.231083904039826"><ele>977.0</ele><time>2026-05-01T10:43:45Z</time></trkpt><trkpt lat="43.591672841223556" lon="12.23121871731686"><ele>977.0</ele><time>2026-05-01T10:43:46Z</time></trkpt><trkpt lat="43.59158413801345" lon="12.231385162222661"><ele>977.0</ele><time>2026-05-01T10:43:47Z</time></trkpt><trkpt lat="43.59150418236026" lon="12.231567601087665"><ele>982.0</ele><time>2026-05-01T10:43:48Z</time></trkpt><trkpt lat="43.5914549139069" lon="12.23177355000726"><ele>987.0</ele><time>2026-05-01T10:43:49Z</time></trkpt><trkpt lat="43.59144455454033" lon="12.232001640307445"><ele>992.0</ele><time>2026-05-01T10:43:50Z</time></trkpt><trkpt lat="43.59145102964802" lon="12.232225180911769"><ele>993.8</ele><time>2026-05-01T10:43:51Z</time></trkpt><trkpt lat="43.591448143652165" lon="12.232424012680738"><ele>995.6</ele><time>2026-05-01T10:43:52Z</time></trkpt><trkpt lat="43.59144004550071" lon="12.232594226450196"><ele>997.3999999999999</ele><time>2026-05-01T10:43:53Z</time></trkpt><trkpt lat="43.59144289522803" lon="12.232728776617012"><ele>999.1999999999999</ele><time>2026-05-01T10:43:54Z</time></trkpt><trkpt lat="43.59148851856405" lon="12.232817645083784"><ele>1001.0</ele><time>2026-05-01T10:43:55Z</time></trkpt><trkpt lat="43.59157881319471" lon="12.232850812828836"><ele>1001.0</ele><time>2026-05-01T10:43:56Z</time></trkpt><trkpt lat="43.59166457927565" lon="12.23278580711713"><ele>1001.0</ele><time>2026-05-01T10:43:57Z</time></trkpt><trkpt lat="43.59169767166966" lon="12.232632676623194"><ele>1001.0</ele><time>2026-05-01T10:43:58Z</time></trkpt><trkpt lat="43.59169539191386" lon="12.232450878767471"><ele>1001.0</ele><time>2026-05-01T10:43:59Z</time></trkpt><trkpt lat="43.59169741698264" lon="12.23227290103285"><ele>999.1999999999999</ele><time>2026-05-01T10:44:00Z</time></trkpt><trkpt lat="43.59170332730029" lon="12.232118412276284"><ele>997.3999999999999</ele><time>2026-05-01T10:44:01Z</time></trkpt><trkpt lat="43.59171214522243" lon="12.231958735253688"><ele>995.6</ele><time>2026-05-01T10:44:02Z</time></trkpt><trkpt lat="43.5917654021328" lon="12.231816206088766"><ele>993.8</ele><time>2026-05-01T10:44:03Z</time></trkpt><trkpt lat="43.59183172064624" lon="12.231705746058607"><ele>992.0</ele><time>2026-05-01T10:44:04Z</time></trkpt><trkpt lat="43.59188331044308" lon="12.231602374128986"><ele>992.0</ele><time>2026-05-01T10:44:05Z</time></trkpt><trkpt lat="43.591939635591565" lon="12.231493453538569"><ele>992.0</ele><time>2026-05-01T10:44:06Z</time></trkpt><trkpt lat="43.59201831989563" lon="12.231404250485522"><ele>992.0</ele><time>2026-05-01T10:44:07Z</time></trkpt><trkpt lat="43.59211112259841" lon="12.231338872807717"><ele>992.0</ele><time>2026-05-01T10:44:08Z</time></trkpt><trkpt lat="43.59219186167687" lon="12.231239470384743"><ele>992.0</ele><time>2026-05-01T10:44:09Z</time></trkpt><trkpt lat="43.592260206416604" lon="12.231066060179986"><ele>998.75</ele><time>2026-05-01T10:44:10Z</time></trkpt><trkpt lat="43.59232287270372" lon="12.230865410642796"><ele>1005.5</ele><time>2026-05-01T10:44:11Z</time></trkpt><trkpt lat="43.59235786240735" lon="12.230684659400033"><ele>1012.25</ele><time>2026-05-01T10:44:12Z</time></trkpt><trkpt lat="43.59239721798422" lon="12.230542801098808"><ele>1019.0</ele><time>2026-05-01T10:44:13Z</time></trkpt><trkpt lat="43.59245006202631" lon="12.230465950607133"><ele>1019.0</ele><time>2026-05-01T10:44:14Z</time></trkpt><trkpt lat="43.59252236128257" lon="12.230468817332154"><ele>1019.0000000000001</ele><time>2026-05-01T10:44:15Z</time></trkpt><trkpt lat="43.59256803945783" lon="12.230551338568734"><ele>1019.0000000000001</ele><time>2026-05-01T10:44:16Z</time></trkpt><trkpt lat="43.5925636861612" lon="12.230694993140165"><ele>1019.0</ele><time>2026-05-01T10:44:17Z</time></trkpt><trkpt lat="43.59253541557947" lon="12.230853221409989"><ele>1019.0</ele><time>2026-05-01T10:44:18Z</time></trkpt><trkpt lat="43.59249551702125" lon="12.231041076527719"><ele>1019.0</ele><time>2026-05-01T10:44:19Z</time></trkpt><trkpt lat="43.592422997522405" lon="12.231229606505428"><ele>1019.0</ele><time>2026-05-01T10:44:20Z</time></trkpt><trkpt lat="43.5923397475193" lon="12.2313783147224"><ele>1019.0</ele><time>2026-05-01T10:44:21Z</time></trkpt><trkpt lat="43.592244575488074" lon="12.231527237379323"><ele>1019.0</ele><time>2026-05-01T10:44:22Z</time></trkpt><trkpt lat="43.59217789199488" lon="12.23171091553863"><ele>1024.0</ele><time>2026-05-01T10:44:23Z</time></trkpt><trkpt lat="43.59215147679952" lon="12.231932610211167"><ele>1029.0</ele><time>2026-05-01T10:44:24Z</time></trkpt><trkpt lat="43.592132373927384" lon="12.232151132046841"><ele>1034.0</ele><time>2026-05-01T10:44:25Z</time></trkpt><trkpt lat="43.59212181518993" lon="12.232349382321829"><ele>1037.3333333333335</ele><time>2026-05-01T10:44:26Z</time></trkpt><trkpt lat="43.59215394273306" lon="12.232560809982502"><ele>1040.6666666666667</ele><time>2026-05-01T10:44:27Z</time></trkpt><trkpt lat="43.592207039389784" lon="12.232765941002699"><ele>1044.0</ele><time>2026-05-01T10:44:28Z</time></trkpt><trkpt lat="43.59223926298023" lon="12.232976885784861"><ele>1043.5</ele><time>2026-05-01T10:44:29Z</time></trkpt><trkpt lat="43.59224878346798" lon="12.233168992000254"><ele>1043.0</ele><time>2026-05-01T10:44:30Z</time></trkpt><trkpt lat="43.59229879867774" lon="12.233351801784847"><ele>1042.5</ele><time>2026-05-01T10:44:31Z</time></trkpt><trkpt lat="43.592393538748595" lon="12.233522523338848"><ele>1042.0</ele><time>2026-05-01T10:44:32Z</time></trkpt><trkpt lat="43.59249378329245" lon="12.23368917195779"><ele>1042.0</ele><time>2026-05-01T10:44:33Z</time></trkpt><trkpt lat="43.592593095019716" lon="12.23385249998612"><ele>1042.0</ele><time>2026-05-01T10:44:34Z</time></trkpt><trkpt lat="43.592718115538084" lon="12.233962470570154"><ele>1042.0</ele><time>2026-05-01T10:44:35Z</time></trkpt><trkpt lat="43.59286658085148" lon="12.234034961236912"><ele>1047.0</ele><time>2026-05-01T10:44:36Z</time></trkpt><trkpt lat="43.59301364850398" lon="12.234115854758498"><ele>1052.0</ele><time>2026-05-01T10:44:37Z</time></trkpt><trkpt lat="43.59314763609875" lon="12.234251690057356"><ele>1057.0</ele><time>2026-05-01T10:44:38Z</time></trkpt><trkpt lat="43.59325929128572" lon="12.234436977635019"><ele>1057.0</ele><time>2026-05-01T10:44:39Z</time></trkpt><trkpt lat="43.59337725176545" lon="12.234624061535879"><ele>1057.0</ele><time>2026-05-01T10:44:40Z</time></trkpt><trkpt lat="43.59352143828307" lon="12.234788091542914"><ele>1057.0</ele><time>2026-05-01T10:44:41Z</time></trkpt><trkpt lat="43.59367831663462" lon="12.234937480220303"><ele>1056.3333333333333</ele><time>2026-05-01T10:44:42Z</time></trkpt><trkpt lat="43.59383117049936" lon="12.235087657445032"><ele>1055.6666666666667</ele><time>2026-05-01T10:44:43Z</time></trkpt><trkpt lat="43.59398387923051" lon="12.23522493228013"><ele>1055.0</ele><time>2026-05-01T10:44:44Z</time></trkpt><trkpt lat="43.59414328670089" lon="12.235333636412754"><ele>1055.0</ele><time>2026-05-01T10:44:45Z</time></trkpt><trkpt lat="43.5942985593166" lon="12.235399588018005"><ele>1055.0</ele><time>2026-05-01T10:44:46Z</time></trkpt><trkpt lat="43.59443950396831" lon="12.235435552523944"><ele>1055.0</ele><time>2026-05-01T10:44:47Z</time></trkpt><trkpt lat="43.59456383118945" lon="12.235457260704315"><ele>1055.0</ele><time>2026-05-01T10:44:48Z</time></trkpt><trkpt lat="43.59467591020325" lon="12.23547741441054"><ele>1054.8333333333335</ele><time>2026-05-01T10:44:49Z</time></trkpt><trkpt lat="43.59477852732515" lon="12.235496416332442"><ele>1054.6666666666667</ele><time>2026-05-01T10:44:50Z</time></trkpt><trkpt lat="43.594868867582676" lon="12.235517540539664"><ele>1054.5</ele><time>2026-05-01T10:44:51Z</time></trkpt><trkpt lat="43.59494550194473" lon="12.235533670058794"><ele>1054.3333333333333</ele><time>2026-05-01T10:44:52Z</time></trkpt><trkpt lat="43.595010232723695" lon="12.235540786351349"><ele>1054.1666666666665</ele><time>2026-05-01T10:44:53Z</time></trkpt><trkpt lat="43.59511808134561" lon="12.23556228068897"><ele>1054.0</ele><time>2026-05-01T10:44:55Z</time></trkpt><trkpt lat="43.5952110417879" lon="12.235576970116322"><ele>1054.0</ele><time>2026-05-01T10:44:57Z</time></trkpt><trkpt lat="43.59532496383389" lon="12.235593032806976"><ele>1054.0</ele><time>2026-05-01T10:44:59Z</time></trkpt><trkpt lat="43.59539445612505" lon="12.235591713025473"><ele>1054.0</ele><time>2026-05-01T10:45:00Z</time></trkpt><trkpt lat="43.59547538148339" lon="12.235605121846609"><ele>1054.0</ele><time>2026-05-01T10:45:01Z</time></trkpt><trkpt lat="43.59556919611296" lon="12.235612078967353"><ele>1054.0</ele><time>2026-05-01T10:45:02Z</time></trkpt><trkpt lat="43.59567411134564" lon="12.235610225949506"><ele>1051.0</ele><time>2026-05-01T10:45:03Z</time></trkpt><trkpt lat="43.59579109317802" lon="12.235605243979418"><ele>1048.0</ele><time>2026-05-01T10:45:04Z</time></trkpt><trkpt lat="43.5959179512178" lon="12.235584733335598"><ele>1045.0</ele><time>2026-05-01T10:45:05Z</time></trkpt><trkpt lat="43.596052065320755" lon="12.235540007822562"><ele>1042.0</ele><time>2026-05-01T10:45:06Z</time></trkpt><trkpt lat="43.59618598380151" lon="12.235489768834976"><ele>1041.75</ele><time>2026-05-01T10:45:07Z</time></trkpt><trkpt lat="43.59631387360405" lon="12.235453347755048"><ele>1041.5</ele><time>2026-05-01T10:45:08Z</time></trkpt><trkpt lat="43.596439428923794" lon="12.235460081812198"><ele>1041.25</ele><time>2026-05-01T10:45:09Z</time></trkpt><trkpt lat="43.596552901885794" lon="12.23552797019743"><ele>1041.0</ele><time>2026-05-01T10:45:10Z</time></trkpt><trkpt lat="43.59664713042317" lon="12.23564791413257"><ele>1041.0</ele><time>2026-05-01T10:45:11Z</time></trkpt><trkpt lat="43.596711419034044" lon="12.235801659667905"><ele>1041.0</ele><time>2026-05-01T10:45:12Z</time></trkpt><trkpt lat="43.596722967269635" lon="12.235965152275663"><ele>1041.0</ele><time>2026-05-01T10:45:13Z</time></trkpt><trkpt lat="43.59669177151026" lon="12.236120818152703"><ele>1041.0</ele><time>2026-05-01T10:45:13.999Z</time></trkpt><trkpt lat="43.59665983324489" lon="12.23627144290586"><ele>1041.0</ele><time>2026-05-01T10:45:14.999Z</time></trkpt><trkpt lat="43.59666321728485" lon="12.236408951041566"><ele>1041.0</ele><time>2026-05-01T10:45:15.999Z</time></trkpt><trkpt lat="43.59672551611803" lon="12.236512425907955"><ele>1041.0</ele><time>2026-05-01T10:45:17Z</time></trkpt><trkpt lat="43.5968306041574" lon="12.236580149424082"><ele>1041.0</ele><time>2026-05-01T10:45:18Z</time></trkpt><trkpt lat="43.59696194802525" lon="12.236597751622634"><ele>1041.0</ele><time>2026-05-01T10:45:19Z</time></trkpt><trkpt lat="43.59710162221494" lon="12.236578972508651"><ele>1038.75</ele><time>2026-05-01T10:45:20Z</time></trkpt><trkpt lat="43.59725010558275" lon="12.236551705670347"><ele>1036.5</ele><time>2026-05-01T10:45:21Z</time></trkpt><trkpt lat="43.59738629944824" lon="12.23652251741245"><ele>1034.25</ele><time>2026-05-01T10:45:22Z</time></trkpt><trkpt lat="43.597508729608805" lon="12.236512070699277"><ele>1032.0</ele><time>2026-05-01T10:45:23Z</time></trkpt><trkpt lat="43.59762150657542" lon="12.236551676993217"><ele>1032.0</ele><time>2026-05-01T10:45:24Z</time></trkpt><trkpt lat="43.59770192684232" lon="12.236666328514358"><ele>1032.0</ele><time>2026-05-01T10:45:25Z</time></trkpt><trkpt lat="43.597742089459906" lon="12.236840881289906"><ele>1032.0</ele><time>2026-05-01T10:45:26Z</time></trkpt><trkpt lat="43.597746458211866" lon="12.237036905716561"><ele>1032.0</ele><time>2026-05-01T10:45:27Z</time></trkpt><trkpt lat="43.597742686733234" lon="12.237236661475098"><ele>1036.0</ele><time>2026-05-01T10:45:28Z</time></trkpt><trkpt lat="43.597768327931256" lon="12.237409906778039"><ele>1040.0</ele><time>2026-05-01T10:45:29Z</time></trkpt><trkpt lat="43.59784700430973" lon="12.2375418887416"><ele>1044.0</ele><time>2026-05-01T10:45:30Z</time></trkpt><trkpt lat="43.597962009948674" lon="12.237634169084437"><ele>1048.0</ele><time>2026-05-01T10:45:31Z</time></trkpt><trkpt lat="43.59808575971922" lon="12.237725174971972"><ele>1041.0</ele><time>2026-05-01T10:45:32Z</time></trkpt><trkpt lat="43.598183306758514" lon="12.237870878223992"><ele>1034.0</ele><time>2026-05-01T10:45:33Z</time></trkpt><trkpt lat="43.598242029558534" lon="12.238048258738104"><ele>1027.0</ele><time>2026-05-01T10:45:34Z</time></trkpt><trkpt lat="43.59827199206861" lon="12.2382447601211"><ele>1020.0</ele><time>2026-05-01T10:45:35Z</time></trkpt><trkpt lat="43.598277037048724" lon="12.238458954261025"><ele>1020.0</ele><time>2026-05-01T10:45:36Z</time></trkpt><trkpt lat="43.59827968938766" lon="12.23868082648482"><ele>1020.0</ele><time>2026-05-01T10:45:37Z</time></trkpt><trkpt lat="43.598293159443564" lon="12.23889532510549"><ele>1020.0</ele><time>2026-05-01T10:45:38Z</time></trkpt><trkpt lat="43.598305539968955" lon="12.239082800976265"><ele>1020.4</ele><time>2026-05-01T10:45:39Z</time></trkpt><trkpt lat="43.5983209336435" lon="12.239238877058098"><ele>1020.8</ele><time>2026-05-01T10:45:40Z</time></trkpt><trkpt lat="43.59837385364529" lon="12.23935267972599"><ele>1021.2</ele><time>2026-05-01T10:45:41Z</time></trkpt><trkpt lat="43.59845927678527" lon="12.239410183076435"><ele>1021.6</ele><time>2026-05-01T10:45:42Z</time></trkpt><trkpt lat="43.598567616095316" lon="12.239406514097679"><ele>1022.0</ele><time>2026-05-01T10:45:43Z</time></trkpt><trkpt lat="43.59867784227572" lon="12.239348104873677"><ele>1023.0</ele><time>2026-05-01T10:45:44Z</time></trkpt><trkpt lat="43.59878373969199" lon="12.239241671624992"><ele>1024.0</ele><time>2026-05-01T10:45:45Z</time></trkpt><trkpt lat="43.59887844012946" lon="12.23910734626818"><ele>1025.0</ele><time>2026-05-01T10:45:46Z</time></trkpt><trkpt lat="43.59895925205113" lon="12.23894687739995"><ele>1026.0</ele><time>2026-05-01T10:45:47Z</time></trkpt><trkpt lat="43.59903522871422" lon="12.238771935225618"><ele>1023.0</ele><time>2026-05-01T10:45:48Z</time></trkpt><trkpt lat="43.599095947779816" lon="12.238595475160265"><ele>1020.0</ele><time>2026-05-01T10:45:49Z</time></trkpt><trkpt lat="43.59913683182293" lon="12.23839201412228"><ele>1017.0</ele><time>2026-05-01T10:45:50Z</time></trkpt><trkpt lat="43.59916869252543" lon="12.238163024670598"><ele>1012.6666666666667</ele><time>2026-05-01T10:45:51Z</time></trkpt><trkpt lat="43.59920076065683" lon="12.237933818225153"><ele>1008.3333333333334</ele><time>2026-05-01T10:45:52Z</time></trkpt><trkpt lat="43.59924870547499" lon="12.237707258285457"><ele>1004.0</ele><time>2026-05-01T10:45:53Z</time></trkpt><trkpt lat="43.599315136874615" lon="12.237496625512863"><ele>1004.0</ele><time>2026-05-01T10:45:54Z</time></trkpt><trkpt lat="43.5994019858194" lon="12.237304101594438"><ele>1004.0</ele><time>2026-05-01T10:45:55Z</time></trkpt><trkpt lat="43.59951320187507" lon="12.237127252537546"><ele>1004.0</ele><time>2026-05-01T10:45:56Z</time></trkpt><trkpt lat="43.59964705792154" lon="12.23696926287966"><ele>1003.0</ele><time>2026-05-01T10:45:57Z</time></trkpt><trkpt lat="43.59977643385193" lon="12.236818788471178"><ele>1002.0</ele><time>2026-05-01T10:45:58Z</time></trkpt><trkpt lat="43.59988887122662" lon="12.236667552083023"><ele>1001.0</ele><time>2026-05-01T10:45:59Z</time></trkpt><trkpt lat="43.599994740743085" lon="12.236538502578515"><ele>999.5</ele><time>2026-05-01T10:46:00Z</time></trkpt><trkpt lat="43.600080843503704" lon="12.23641203366701"><ele>998.0</ele><time>2026-05-01T10:46:01Z</time></trkpt><trkpt lat="43.600125529228904" lon="12.23625471811658"><ele>996.5</ele><time>2026-05-01T10:46:02Z</time></trkpt><trkpt lat="43.60011056599398" lon="12.236077375065177"><ele>995.0</ele><time>2026-05-01T10:46:03Z</time></trkpt><trkpt lat="43.60005465467601" lon="12.235908213786448"><ele>995.0</ele><time>2026-05-01T10:46:04Z</time></trkpt><trkpt lat="43.59997685406071" lon="12.235739191484186"><ele>995.0</ele><time>2026-05-01T10:46:05Z</time></trkpt><trkpt lat="43.599910133678264" lon="12.235580342797194"><ele>995.0</ele><time>2026-05-01T10:46:06Z</time></trkpt><trkpt lat="43.59987174592346" lon="12.23543335892798"><ele>995.0</ele><time>2026-05-01T10:46:07Z</time></trkpt><trkpt lat="43.59986462754546" lon="12.235292078579878"><ele>993.0</ele><time>2026-05-01T10:46:08Z</time></trkpt><trkpt lat="43.5999024217022" lon="12.235156274900312"><ele>991.0</ele><time>2026-05-01T10:46:09Z</time></trkpt><trkpt lat="43.5999890356137" lon="12.235068755568678"><ele>989.0</ele><time>2026-05-01T10:46:10Z</time></trkpt><trkpt lat="43.600102436097885" lon="12.23506272796722"><ele>987.0</ele><time>2026-05-01T10:46:11Z</time></trkpt><trkpt lat="43.600216294251354" lon="12.235123604139199"><ele>985.0</ele><time>2026-05-01T10:46:12Z</time></trkpt><trkpt lat="43.600330452402616" lon="12.235199760909275"><ele>987.2</ele><time>2026-05-01T10:46:13Z</time></trkpt><trkpt lat="43.60043154901776" lon="12.235243862816677"><ele>989.4</ele><time>2026-05-01T10:46:14Z</time></trkpt><trkpt lat="43.600519817562216" lon="12.235231565467005"><ele>991.5999999999999</ele><time>2026-05-01T10:46:15Z</time></trkpt><trkpt lat="43.600589109646094" lon="12.235157573186966"><ele>993.8</ele><time>2026-05-01T10:46:16Z</time></trkpt><trkpt lat="43.60060799104555" lon="12.235038710109754"><ele>996.0</ele><time>2026-05-01T10:46:17Z</time></trkpt><trkpt lat="43.60056130366728" lon="12.234924592114263"><ele>996.0</ele><time>2026-05-01T10:46:18Z</time></trkpt><trkpt lat="43.60045880942898" lon="12.234852632671355"><ele>996.0</ele><time>2026-05-01T10:46:19Z</time></trkpt><trkpt lat="43.60033674053338" lon="12.234818251585617"><ele>996.0</ele><time>2026-05-01T10:46:20Z</time></trkpt><trkpt lat="43.60020891488515" lon="12.234771953736923"><ele>996.0</ele><time>2026-05-01T10:46:21Z</time></trkpt><trkpt lat="43.60008154056244" lon="12.234719471685882"><ele>993.25</ele><time>2026-05-01T10:46:22Z</time></trkpt><trkpt lat="43.599953498734905" lon="12.234713545714943"><ele>990.5</ele><time>2026-05-01T10:46:23Z</time></trkpt><trkpt lat="43.59982307614073" lon="12.234772201841267"><ele>987.75</ele><time>2026-05-01T10:46:24Z</time></trkpt><trkpt lat="43.59969840006842" lon="12.234862775844013"><ele>985.0</ele><time>2026-05-01T10:46:25Z</time></trkpt><trkpt lat="43.599593946770455" lon="12.234981994528468"><ele>985.0</ele><time>2026-05-01T10:46:26Z</time></trkpt><trkpt lat="43.599510328751556" lon="12.235142008449104"><ele>985.0</ele><time>2026-05-01T10:46:27Z</time></trkpt><trkpt lat="43.59946252804678" lon="12.23534302751314"><ele>985.0</ele><time>2026-05-01T10:46:28Z</time></trkpt><trkpt lat="43.59941203541943" lon="12.235542995981108"><ele>985.0</ele><time>2026-05-01T10:46:29Z</time></trkpt><trkpt lat="43.599338538518836" lon="12.235723799912993"><ele>982.75</ele><time>2026-05-01T10:46:30Z</time></trkpt><trkpt lat="43.59924137174858" lon="12.23588217222428"><ele>980.5</ele><time>2026-05-01T10:46:31Z</time></trkpt><trkpt lat="43.59915405845989" lon="12.236024568106684"><ele>978.25</ele><time>2026-05-01T10:46:32Z</time></trkpt><trkpt lat="43.59907786386973" lon="12.236143841379226"><ele>976.0</ele><time>2026-05-01T10:46:33Z</time></trkpt><trkpt lat="43.59900084458232" lon="12.236219594994925"><ele>976.0</ele><time>2026-05-01T10:46:34Z</time></trkpt><trkpt lat="43.598916230232845" lon="12.236227709221561"><ele>975.9999999999999</ele><time>2026-05-01T10:46:35Z</time></trkpt><trkpt lat="43.5988510234302" lon="12.236154379239572"><ele>975.9999999999999</ele><time>2026-05-01T10:46:36Z</time></trkpt><trkpt lat="43.59883833720421" lon="12.236038182622403"><ele>976.0</ele><time>2026-05-01T10:46:37Z</time></trkpt><trkpt lat="43.59888528768922" lon="12.235914933297257"><ele>976.0</ele><time>2026-05-01T10:46:38Z</time></trkpt><trkpt lat="43.59896872419705" lon="12.23579771545392"><ele>976.0</ele><time>2026-05-01T10:46:39Z</time></trkpt><trkpt lat="43.599069134966804" lon="12.235664108189802"><ele>976.0</ele><time>2026-05-01T10:46:40Z</time></trkpt><trkpt lat="43.59916910616221" lon="12.235508396269582"><ele>976.0</ele><time>2026-05-01T10:46:41Z</time></trkpt><trkpt lat="43.599251020126836" lon="12.235326861365264"><ele>976.0</ele><time>2026-05-01T10:46:42Z</time></trkpt><trkpt lat="43.599317323604986" lon="12.235122403346946"><ele>973.6666666666666</ele><time>2026-05-01T10:46:43Z</time></trkpt><trkpt lat="43.599371846925585" lon="12.234902619537943"><ele>971.3333333333333</ele><time>2026-05-01T10:46:44Z</time></trkpt><trkpt lat="43.599419147176675" lon="12.234702630111213"><ele>969.0</ele><time>2026-05-01T10:46:45Z</time></trkpt><trkpt lat="43.59946711309148" lon="12.23452133856229"><ele>967.75</ele><time>2026-05-01T10:46:46Z</time></trkpt><trkpt lat="43.599529974657685" lon="12.234373850256077"><ele>966.5</ele><time>2026-05-01T10:46:47Z</time></trkpt><trkpt lat="43.59963079980094" lon="12.234277610072432"><ele>965.25</ele><time>2026-05-01T10:46:48Z</time></trkpt><trkpt lat="43.59976763373272" lon="12.234245698250854"><ele>964.0</ele><time>2026-05-01T10:46:49Z</time></trkpt><trkpt lat="43.59991442342494" lon="12.234252983948513"><ele>964.0</ele><time>2026-05-01T10:46:50Z</time></trkpt><trkpt lat="43.6000673193064" lon="12.234269016030112"><ele>964.0</ele><time>2026-05-01T10:46:51Z</time></trkpt><trkpt lat="43.60022548382202" lon="12.234267993054692"><ele>964.0</ele><time>2026-05-01T10:46:52Z</time></trkpt><trkpt lat="43.60038508167208" lon="12.234224662673931"><ele>968.3333333333333</ele><time>2026-05-01T10:46:53Z</time></trkpt><trkpt lat="43.6005389731465" lon="12.234128101827995"><ele>972.6666666666667</ele><time>2026-05-01T10:46:54Z</time></trkpt><trkpt lat="43.60068111221245" lon="12.233989413670937"><ele>977.0</ele><time>2026-05-01T10:46:55Z</time></trkpt><trkpt lat="43.60082115557001" lon="12.233833366800898"><ele>970.6666666666667</ele><time>2026-05-01T10:46:56Z</time></trkpt><trkpt lat="43.60097016863899" lon="12.233691376167272"><ele>964.3333333333333</ele><time>2026-05-01T10:46:57Z</time></trkpt><trkpt lat="43.60112331960386" lon="12.233581853608685"><ele>958.0</ele><time>2026-05-01T10:46:58Z</time></trkpt><trkpt lat="43.60126731335353" lon="12.233485232846263"><ele>958.0</ele><time>2026-05-01T10:46:59Z</time></trkpt><trkpt lat="43.60139599280298" lon="12.23339059630872"><ele>958.0</ele><time>2026-05-01T10:47:00Z</time></trkpt><trkpt lat="43.60151597694258" lon="12.233308781596334"><ele>958.0</ele><time>2026-05-01T10:47:01Z</time></trkpt><trkpt lat="43.60161659416793" lon="12.233231259822317"><ele>958.0</ele><time>2026-05-01T10:47:02Z</time></trkpt><trkpt lat="43.60169761128736" lon="12.23313337895021"><ele>955.0</ele><time>2026-05-01T10:47:03Z</time></trkpt><trkpt lat="43.60173644893719" lon="12.233002739062902"><ele>952.0</ele><time>2026-05-01T10:47:04Z</time></trkpt><trkpt lat="43.60171770217162" lon="12.232870955104746"><ele>949.0</ele><time>2026-05-01T10:47:05.001Z</time></trkpt><trkpt lat="43.60164600715796" lon="12.232787493198163"><ele>946.0</ele><time>2026-05-01T10:47:06.001Z</time></trkpt><trkpt lat="43.60154450441411" lon="12.232763427516355"><ele>943.0</ele><time>2026-05-01T10:47:07.001Z</time></trkpt><trkpt lat="43.60143638591604" lon="12.232816235140632"><ele>943.0</ele><time>2026-05-01T10:47:08.001Z</time></trkpt><trkpt lat="43.60134954395898" lon="12.232932864385266"><ele>943.0</ele><time>2026-05-01T10:47:09.001Z</time></trkpt><trkpt lat="43.60127374235492" lon="12.23307142416971"><ele>943.0</ele><time>2026-05-01T10:47:10.001Z</time></trkpt><trkpt lat="43.601164970117665" lon="12.233167015160703"><ele>943.0</ele><time>2026-05-01T10:47:11.001Z</time></trkpt><trkpt lat="43.601030121449874" lon="12.233194160179007"><ele>941.5</ele><time>2026-05-01T10:47:12.001Z</time></trkpt><trkpt lat="43.600888708522575" lon="12.233170964626565"><ele>940.0</ele><time>2026-05-01T10:47:13.001Z</time></trkpt><trkpt lat="43.60074451198658" lon="12.23312389097091"><ele>938.5</ele><time>2026-05-01T10:47:14.001Z</time></trkpt><trkpt lat="43.60060000060711" lon="12.23306394747436"><ele>937.0</ele><time>2026-05-01T10:47:15.001Z</time></trkpt><trkpt lat="43.60046467300005" lon="12.23297958442538"><ele>937.0</ele><time>2026-05-01T10:47:16.001Z</time></trkpt><trkpt lat="43.600338535224836" lon="12.23289220650276"><ele>937.0</ele><time>2026-05-01T10:47:17.001Z</time></trkpt><trkpt lat="43.60020607359013" lon="12.23285141188877"><ele>937.0</ele><time>2026-05-01T10:47:18.001Z</time></trkpt><trkpt lat="43.600063996423664" lon="12.232858560877867"><ele>937.0</ele><time>2026-05-01T10:47:19.001Z</time></trkpt><trkpt lat="43.59992171120588" lon="12.232912893000004"><ele>936.5</ele><time>2026-05-01T10:47:20Z</time></trkpt><trkpt lat="43.59979434845648" lon="12.23299557327054"><ele>936.0</ele><time>2026-05-01T10:47:21Z</time></trkpt><trkpt lat="43.599683116125334" lon="12.233096208794922"><ele>935.5</ele><time>2026-05-01T10:47:22Z</time></trkpt><trkpt lat="43.599580682795754" lon="12.233202054847453"><ele>935.0</ele><time>2026-05-01T10:47:23Z</time></trkpt><trkpt lat="43.59947015545948" lon="12.233273995850602"><ele>935.0</ele><time>2026-05-01T10:47:24Z</time></trkpt><trkpt lat="43.59934867914093" lon="12.23330852051683"><ele>935.0</ele><time>2026-05-01T10:47:25Z</time></trkpt><trkpt lat="43.599227624178965" lon="12.233294595965473"><ele>935.0</ele><time>2026-05-01T10:47:26Z</time></trkpt><trkpt lat="43.599113760419655" lon="12.233228759795724"><ele>935.0</ele><time>2026-05-01T10:47:27Z</time></trkpt><trkpt lat="43.59900707802026" lon="12.23312329377225"><ele>931.75</ele><time>2026-05-01T10:47:28Z</time></trkpt><trkpt lat="43.59892114078217" lon="12.232980912413828"><ele>928.5</ele><time>2026-05-01T10:47:29Z</time></trkpt><trkpt lat="43.59887031266272" lon="12.232811376717379"><ele>925.25</ele><time>2026-05-01T10:47:30Z</time></trkpt><trkpt lat="43.59886065063527" lon="12.232639577435137"><ele>922.0</ele><time>2026-05-01T10:47:31Z</time></trkpt><trkpt lat="43.598891430694394" lon="12.232462803422932"><ele>921.0</ele><time>2026-05-01T10:47:32Z</time></trkpt><trkpt lat="43.59894265389902" lon="12.232274974187126"><ele>920.0</ele><time>2026-05-01T10:47:33Z</time></trkpt><trkpt lat="43.59899485744914" lon="12.232084329934704"><ele>919.0</ele><time>2026-05-01T10:47:34Z</time></trkpt><trkpt lat="43.59903742087218" lon="12.23188404783332"><ele>918.0</ele><time>2026-05-01T10:47:35Z</time></trkpt><trkpt lat="43.59904450047633" lon="12.231684028383404"><ele>918.0</ele><time>2026-05-01T10:47:36Z</time></trkpt><trkpt lat="43.59902761829805" lon="12.231492180718012"><ele>918.0</ele><time>2026-05-01T10:47:37Z</time></trkpt><trkpt lat="43.59901544267619" lon="12.231299505502102"><ele>918.0</ele><time>2026-05-01T10:47:38Z</time></trkpt><trkpt lat="43.59903259718072" lon="12.231119997870904"><ele>918.0</ele><time>2026-05-01T10:47:39Z</time></trkpt><trkpt lat="43.59906764487021" lon="12.230966736422152"><ele>917.0</ele><time>2026-05-01T10:47:40Z</time></trkpt><trkpt lat="43.599077225272495" lon="12.230833489011905"><ele>916.0</ele><time>2026-05-01T10:47:41Z</time></trkpt><trkpt lat="43.599017868927625" lon="12.230709698423805"><ele>915.0</ele><time>2026-05-01T10:47:42Z</time></trkpt><trkpt lat="43.59890756706075" lon="12.230624187069484"><ele>914.0</ele><time>2026-05-01T10:47:43Z</time></trkpt><trkpt lat="43.598774881475165" lon="12.230555658650982"><ele>917.75</ele><time>2026-05-01T10:47:44Z</time></trkpt><trkpt lat="43.59864878169891" lon="12.230467651423517"><ele>921.5</ele><time>2026-05-01T10:47:45Z</time></trkpt><trkpt lat="43.59853443166069" lon="12.230370620336668"><ele>925.25</ele><time>2026-05-01T10:47:46Z</time></trkpt><trkpt lat="43.598453987380175" lon="12.230247375598745"><ele>929.0</ele><time>2026-05-01T10:47:47Z</time></trkpt><trkpt lat="43.59843080182764" lon="12.230105483101168"><ele>929.0</ele><time>2026-05-01T10:47:48Z</time></trkpt><trkpt lat="43.59845638444789" lon="12.229950971471029"><ele>929.0</ele><time>2026-05-01T10:47:49Z</time></trkpt><trkpt lat="43.598510442810806" lon="12.229797748689085"><ele>929.0</ele><time>2026-05-01T10:47:50Z</time></trkpt><trkpt lat="43.59859924346052" lon="12.229666245212648"><ele>929.0</ele><time>2026-05-01T10:47:51Z</time></trkpt><trkpt lat="43.59871409337511" lon="12.229572287801268"><ele>927.25</ele><time>2026-05-01T10:47:52Z</time></trkpt><trkpt lat="43.59883316574477" lon="12.229484425613318"><ele>925.5</ele><time>2026-05-01T10:47:53Z</time></trkpt><trkpt lat="43.59894225913587" lon="12.229385688950147"><ele>923.75</ele><time>2026-05-01T10:47:54Z</time></trkpt><trkpt lat="43.59904258263269" lon="12.229285308678861"><ele>922.0</ele><time>2026-05-01T10:47:55Z</time></trkpt><trkpt lat="43.59913625117517" lon="12.229186158818813"><ele>922.0</ele><time>2026-05-01T10:47:56Z</time></trkpt><trkpt lat="43.599225168195886" lon="12.229096206492926"><ele>922.0</ele><time>2026-05-01T10:47:57Z</time></trkpt><trkpt lat="43.59931481792845" lon="12.229020823798766"><ele>922.0</ele><time>2026-05-01T10:47:58Z</time></trkpt><trkpt lat="43.5994117456942" lon="12.228968181773187"><ele>922.0</ele><time>2026-05-01T10:47:59Z</time></trkpt><trkpt lat="43.59950044205403" lon="12.228945241826702"><ele>922.0</ele><time>2026-05-01T10:48:00Z</time></trkpt><trkpt lat="43.59958309045468" lon="12.228938731679046"><ele>918.4999999999999</ele><time>2026-05-01T10:48:01Z</time></trkpt><trkpt lat="43.59965796162975" lon="12.228930925953454"><ele>915.0</ele><time>2026-05-01T10:48:02Z</time></trkpt><trkpt lat="43.59972125389541" lon="12.228922394154273"><ele>911.5</ele><time>2026-05-01T10:48:03Z</time></trkpt><trkpt lat="43.599807614858456" lon="12.228835918400957"><ele>908.0</ele><time>2026-05-01T10:48:05Z</time></trkpt><trkpt lat="43.599826754511156" lon="12.228690084701645"><ele>904.4999999999999</ele><time>2026-05-01T10:48:07Z</time></trkpt><trkpt lat="43.599820249068436" lon="12.228603538432768"><ele>901.0</ele><time>2026-05-01T10:48:08Z</time></trkpt><trkpt lat="43.59981853382742" lon="12.228505375551784"><ele>900.9999999999999</ele><time>2026-05-01T10:48:09Z</time></trkpt><trkpt lat="43.59981770318692" lon="12.22840206377634"><ele>901.0</ele><time>2026-05-01T10:48:10Z</time></trkpt><trkpt lat="43.59984341410446" lon="12.22824393671839"><ele>901.0</ele><time>2026-05-01T10:48:12Z</time></trkpt><trkpt lat="43.59992772540852" lon="12.228122728024381"><ele>901.0</ele><time>2026-05-01T10:48:14Z</time></trkpt><trkpt lat="43.599982406826825" lon="12.228071684296232"><ele>900.9999999999999</ele><time>2026-05-01T10:48:15Z</time></trkpt><trkpt lat="43.60004634845863" lon="12.228043313271456"><ele>901.0</ele><time>2026-05-01T10:48:16Z</time></trkpt><trkpt lat="43.60011379060503" lon="12.228040133829392"><ele>900.9999999999999</ele><time>2026-05-01T10:48:17Z</time></trkpt><trkpt lat="43.60018317377548" lon="12.228064610594476"><ele>901.0</ele><time>2026-05-01T10:48:18Z</time></trkpt><trkpt lat="43.60024993712904" lon="12.228111610012567"><ele>901.0</ele><time>2026-05-01T10:48:19Z</time></trkpt><trkpt lat="43.60032610739039" lon="12.22816899761956"><ele>901.0</ele><time>2026-05-01T10:48:20Z</time></trkpt><trkpt lat="43.60040395137903" lon="12.228236762696792"><ele>900.9999999999999</ele><time>2026-05-01T10:48:21Z</time></trkpt><trkpt lat="43.60048753943145" lon="12.22829917697058"><ele>901.0</ele><time>2026-05-01T10:48:22Z</time></trkpt><trkpt lat="43.60057219452326" lon="12.228340013421825"><ele>900.3333333333333</ele><time>2026-05-01T10:48:23Z</time></trkpt><trkpt lat="43.60065819989842" lon="12.228362480261703"><ele>899.6666666666666</ele><time>2026-05-01T10:48:24Z</time></trkpt><trkpt lat="43.600744663681866" lon="12.228383531232085"><ele>899.0</ele><time>2026-05-01T10:48:25Z</time></trkpt><trkpt lat="43.60083259522448" lon="12.22839834202064"><ele>898.3333333333333</ele><time>2026-05-01T10:48:26Z</time></trkpt><trkpt lat="43.6009214979525" lon="12.228402867891804"><ele>897.6666666666666</ele><time>2026-05-01T10:48:27Z</time></trkpt><trkpt lat="43.60100911974862" lon="12.228413963326405"><ele>897.0</ele><time>2026-05-01T10:48:28Z</time></trkpt><trkpt lat="43.6010909457806" lon="12.228398370870694"><ele>895.1666666666666</ele><time>2026-05-01T10:48:29Z</time></trkpt><trkpt lat="43.60116806737252" lon="12.228357484433097"><ele>893.3333333333333</ele><time>2026-05-01T10:48:30Z</time></trkpt><trkpt lat="43.6012460330671" lon="12.228304028326106"><ele>891.5</ele><time>2026-05-01T10:48:31Z</time></trkpt><trkpt lat="43.60132108353292" lon="12.228234481824085"><ele>889.6666666666666</ele><time>2026-05-01T10:48:32Z</time></trkpt><trkpt lat="43.60139973487221" lon="12.228171944540493"><ele>887.8333333333333</ele><time>2026-05-01T10:48:33Z</time></trkpt><trkpt lat="43.601481628859695" lon="12.228120332843377"><ele>886.0</ele><time>2026-05-01T10:48:34Z</time></trkpt><trkpt lat="43.601571505117285" lon="12.228096544022527"><ele>886.0</ele><time>2026-05-01T10:48:35Z</time></trkpt><trkpt lat="43.60165992046775" lon="12.22812710235165"><ele>885.9999999999999</ele><time>2026-05-01T10:48:36Z</time></trkpt><trkpt lat="43.60173982818286" lon="12.228172898046335"><ele>885.9999999999999</ele><time>2026-05-01T10:48:37Z</time></trkpt><trkpt lat="43.60182391099904" lon="12.228201948364335"><ele>886.0</ele><time>2026-05-01T10:48:38Z</time></trkpt><trkpt lat="43.6019204416325" lon="12.228227286884099"><ele>886.0</ele><time>2026-05-01T10:48:39Z</time></trkpt><trkpt lat="43.60202084547733" lon="12.228234392954803"><ele>885.1666666666666</ele><time>2026-05-01T10:48:40Z</time></trkpt><trkpt lat="43.6021143518439" lon="12.228215783053745"><ele>884.3333333333333</ele><time>2026-05-01T10:48:41Z</time></trkpt><trkpt lat="43.60220067840143" lon="12.22818920339803"><ele>883.5</ele><time>2026-05-01T10:48:42Z</time></trkpt><trkpt lat="43.60227847617896" lon="12.228166317110299"><ele>882.6666666666667</ele><time>2026-05-01T10:48:43Z</time></trkpt><trkpt lat="43.60234569137859" lon="12.22813975288737"><ele>881.8333333333334</ele><time>2026-05-01T10:48:44Z</time></trkpt><trkpt lat="43.60240657993504" lon="12.228097761149527"><ele>881.0</ele><time>2026-05-01T10:48:45Z</time></trkpt><trkpt lat="43.60247677161819" lon="12.227975806429242"><ele>881.0</ele><time>2026-05-01T10:48:47Z</time></trkpt><trkpt lat="43.60248509621719" lon="12.227801337928392"><ele>880.9999999999999</ele><time>2026-05-01T10:48:49Z</time></trkpt><trkpt lat="43.60247164397979" lon="12.227685693828649"><ele>880.9999999999999</ele><time>2026-05-01T10:48:50Z</time></trkpt><trkpt lat="43.602460339264425" lon="12.227539849946272"><ele>881.0</ele><time>2026-05-01T10:48:51Z</time></trkpt><trkpt lat="43.60245907637028" lon="12.22737249009766"><ele>881.0</ele><time>2026-05-01T10:48:52Z</time></trkpt><trkpt lat="43.60247693103469" lon="12.227193087031157"><ele>882.5</ele><time>2026-05-01T10:48:53Z</time></trkpt><trkpt lat="43.602509023662954" lon="12.227026159889666"><ele>884.0</ele><time>2026-05-01T10:48:54Z</time></trkpt><trkpt lat="43.602540599067474" lon="12.22687348480383"><ele>885.5</ele><time>2026-05-01T10:48:55Z</time></trkpt><trkpt lat="43.60256997710928" lon="12.226729840615068"><ele>887.0</ele><time>2026-05-01T10:48:56.001Z</time></trkpt><trkpt lat="43.60260307684422" lon="12.226593473067469"><ele>887.2</ele><time>2026-05-01T10:48:57.001Z</time></trkpt><trkpt lat="43.6026435185301" lon="12.226462988117818"><ele>887.4000000000001</ele><time>2026-05-01T10:48:58.001Z</time></trkpt><trkpt lat="43.60269743862773" lon="12.226344225417309"><ele>887.5999999999999</ele><time>2026-05-01T10:48:59.001Z</time></trkpt><trkpt lat="43.6027558945717" lon="12.226251875367547"><ele>887.8</ele><time>2026-05-01T10:49:00.001Z</time></trkpt><trkpt lat="43.602820600809345" lon="12.226187189989032"><ele>888.0</ele><time>2026-05-01T10:49:01.001Z</time></trkpt><trkpt lat="43.60289542137682" lon="12.226152023810622"><ele>888.0</ele><time>2026-05-01T10:49:02.001Z</time></trkpt><trkpt lat="43.60297354941146" lon="12.226152962024281"><ele>888.0</ele><time>2026-05-01T10:49:03.001Z</time></trkpt><trkpt lat="43.60305011303871" lon="12.226192269080872"><ele>888.0</ele><time>2026-05-01T10:49:04.001Z</time></trkpt><trkpt lat="43.603121247597365" lon="12.226268798555788"><ele>888.0</ele><time>2026-05-01T10:49:05.001Z</time></trkpt><trkpt lat="43.60319091889278" lon="12.226376225599914"><ele>888.0</ele><time>2026-05-01T10:49:06.001Z</time></trkpt><trkpt lat="43.60325234172802" lon="12.226510091026547"><ele>885.0</ele><time>2026-05-01T10:49:07.001Z</time></trkpt><trkpt lat="43.603287817719085" lon="12.226634775437917"><ele>882.0</ele><time>2026-05-01T10:49:08.001Z</time></trkpt><trkpt lat="43.60331705233077" lon="12.22676002390363"><ele>879.0</ele><time>2026-05-01T10:49:09.001Z</time></trkpt><trkpt lat="43.603355707640645" lon="12.226893565359628"><ele>876.0</ele><time>2026-05-01T10:49:10.001Z</time></trkpt><trkpt lat="43.603410014899886" lon="12.227027836890333"><ele>873.0</ele><time>2026-05-01T10:49:11.001Z</time></trkpt><trkpt lat="43.603475920334255" lon="12.227143970708148"><ele>873.0</ele><time>2026-05-01T10:49:12.001Z</time></trkpt><trkpt lat="43.60355062068664" lon="12.227237789583754"><ele>873.0</ele><time>2026-05-01T10:49:13.001Z</time></trkpt><trkpt lat="43.603642455657656" lon="12.227327315309074"><ele>873.0</ele><time>2026-05-01T10:49:14.001Z</time></trkpt><trkpt lat="43.60374847925846" lon="12.227419251149758"><ele>873.0</ele><time>2026-05-01T10:49:15.001Z</time></trkpt><trkpt lat="43.6038525643095" lon="12.227496365459176"><ele>871.0</ele><time>2026-05-01T10:49:16.001Z</time></trkpt><trkpt lat="43.603957915775716" lon="12.227565240675315"><ele>869.0</ele><time>2026-05-01T10:49:17.001Z</time></trkpt><trkpt lat="43.604069469432005" lon="12.227632068453898"><ele>867.0</ele><time>2026-05-01T10:49:18.001Z</time></trkpt><trkpt lat="43.604175283552664" lon="12.22769633559345"><ele>865.0</ele><time>2026-05-01T10:49:19.001Z</time></trkpt><trkpt lat="43.6042812864213" lon="12.227762163252187"><ele>865.0</ele><time>2026-05-01T10:49:20.001Z</time></trkpt><trkpt lat="43.60438335375372" lon="12.227819861704196"><ele>865.0</ele><time>2026-05-01T10:49:21.001Z</time></trkpt><trkpt lat="43.60448336014858" lon="12.227860017961884"><ele>865.0</ele><time>2026-05-01T10:49:22.001Z</time></trkpt><trkpt lat="43.604586076262365" lon="12.227895478550842"><ele>865.0</ele><time>2026-05-01T10:49:23.001Z</time></trkpt><trkpt lat="43.60469140321717" lon="12.22792823333335"><ele>865.0</ele><time>2026-05-01T10:49:24.001Z</time></trkpt><trkpt lat="43.60479178977792" lon="12.227964402494646"><ele>868.2</ele><time>2026-05-01T10:49:25.001Z</time></trkpt><trkpt lat="43.604886175242804" lon="12.228004290678477"><ele>871.4</ele><time>2026-05-01T10:49:26Z</time></trkpt><trkpt lat="43.604980964463124" lon="12.228044443492443"><ele>874.5999999999999</ele><time>2026-05-01T10:49:27Z</time></trkpt><trkpt lat="43.605078696361986" lon="12.228069624716857"><ele>877.8</ele><time>2026-05-01T10:49:28Z</time></trkpt><trkpt lat="43.60516872833158" lon="12.228065893240776"><ele>881.0</ele><time>2026-05-01T10:49:29Z</time></trkpt><trkpt lat="43.60525419550563" lon="12.22803608382038"><ele>878.5999999999999</ele><time>2026-05-01T10:49:30Z</time></trkpt><trkpt lat="43.60533940877111" lon="12.227984097586297"><ele>876.1999999999999</ele><time>2026-05-01T10:49:31Z</time></trkpt><trkpt lat="43.60541481876265" lon="12.227931645462919"><ele>873.8000000000001</ele><time>2026-05-01T10:49:32Z</time></trkpt><trkpt lat="43.60549470023244" lon="12.227879978458926"><ele>871.4000000000001</ele><time>2026-05-01T10:49:33Z</time></trkpt><trkpt lat="43.60557831599455" lon="12.227820105247813"><ele>869.0</ele><time>2026-05-01T10:49:34Z</time></trkpt><trkpt lat="43.605675311272805" lon="12.22778104224816"><ele>869.0</ele><time>2026-05-01T10:49:35Z</time></trkpt><trkpt lat="43.60578650487081" lon="12.227781752547992"><ele>869.0000000000001</ele><time>2026-05-01T10:49:36Z</time></trkpt><trkpt lat="43.60589075303354" lon="12.227807971602427"><ele>869.0000000000001</ele><time>2026-05-01T10:49:37Z</time></trkpt><trkpt lat="43.60599113535927" lon="12.227832902822492"><ele>869.0</ele><time>2026-05-01T10:49:38Z</time></trkpt><trkpt lat="43.6061055457753" lon="12.227845192255947"><ele>869.0</ele><time>2026-05-01T10:49:39Z</time></trkpt><trkpt lat="43.60623209470306" lon="12.227856892808493"><ele>866.8000000000001</ele><time>2026-05-01T10:49:40Z</time></trkpt><trkpt lat="43.606353483046945" lon="12.22787039359113"><ele>864.6000000000001</ele><time>2026-05-01T10:49:41Z</time></trkpt><trkpt lat="43.60646694845866" lon="12.22787538609608"><ele>862.4</ele><time>2026-05-01T10:49:42Z</time></trkpt><trkpt lat="43.606571447957165" lon="12.227883183949558"><ele>860.2</ele><time>2026-05-01T10:49:43Z</time></trkpt><trkpt lat="43.606669985363226" lon="12.227885517548867"><ele>858.0</ele><time>2026-05-01T10:49:44Z</time></trkpt><trkpt lat="43.60675453492515" lon="12.227876925805203"><ele>858.0</ele><time>2026-05-01T10:49:45Z</time></trkpt><trkpt lat="43.60683072257662" lon="12.227853712844901"><ele>858.0</ele><time>2026-05-01T10:49:46Z</time></trkpt><trkpt lat="43.60690597341991" lon="12.227820196850987"><ele>858.0</ele><time>2026-05-01T10:49:47Z</time></trkpt><trkpt lat="43.60697973155951" lon="12.227750373847032"><ele>858.0</ele><time>2026-05-01T10:49:48Z</time></trkpt><trkpt lat="43.607057812397066" lon="12.22760049643936"><ele>858.0</ele><time>2026-05-01T10:49:49Z</time></trkpt><trkpt lat="43.60714815537472" lon="12.227401904673087"><ele>852.0</ele><time>2026-05-01T10:49:50Z</time></trkpt><trkpt lat="43.607279382678115" lon="12.227183054786497"><ele>846.0</ele><time>2026-05-01T10:49:51Z</time></trkpt><trkpt lat="43.6074007517415" lon="12.226967424320172"><ele>840.0</ele><time>2026-05-01T10:49:52Z</time></trkpt><trkpt lat="43.60749448778432" lon="12.226750563347808"><ele>840.0</ele><time>2026-05-01T10:49:53Z</time></trkpt><trkpt lat="43.6075653230502" lon="12.226538982320713"><ele>840.0</ele><time>2026-05-01T10:49:54Z</time></trkpt><trkpt lat="43.60764182343876" lon="12.226348730897886"><ele>840.0</ele><time>2026-05-01T10:49:55Z</time></trkpt><trkpt lat="43.60774740577449" lon="12.226192013672541"><ele>837.5</ele><time>2026-05-01T10:49:56Z</time></trkpt><trkpt lat="43.607858982432084" lon="12.226074371683518"><ele>835.0</ele><time>2026-05-01T10:49:57Z</time></trkpt><trkpt lat="43.607965988416886" lon="12.226008211012395"><ele>832.5</ele><time>2026-05-01T10:49:58Z</time></trkpt><trkpt lat="43.60807174762676" lon="12.226003266952183"><ele>830.0</ele><time>2026-05-01T10:49:59Z</time></trkpt><trkpt lat="43.608183426718945" lon="12.226066543728523"><ele>830.0</ele><time>2026-05-01T10:50:00Z</time></trkpt><trkpt lat="43.60829290271759" lon="12.226188715170288"><ele>830.0</ele><time>2026-05-01T10:50:01Z</time></trkpt><trkpt lat="43.60840607214457" lon="12.226330042389414"><ele>830.0</ele><time>2026-05-01T10:50:02Z</time></trkpt><trkpt lat="43.608530349388424" lon="12.226460154750937"><ele>830.0</ele><time>2026-05-01T10:50:03Z</time></trkpt><trkpt lat="43.608657479962154" lon="12.226591567039817"><ele>829.25</ele><time>2026-05-01T10:50:04Z</time></trkpt><trkpt lat="43.60877612036477" lon="12.226716289297046"><ele>828.5</ele><time>2026-05-01T10:50:05Z</time></trkpt><trkpt lat="43.608869053786755" lon="12.22683594448748"><ele>827.75</ele><time>2026-05-01T10:50:06Z</time></trkpt><trkpt lat="43.60892118729179" lon="12.22699038072213"><ele>827.0</ele><time>2026-05-01T10:50:07Z</time></trkpt><trkpt lat="43.608916993675415" lon="12.227161481056111"><ele>826.5</ele><time>2026-05-01T10:50:08Z</time></trkpt><trkpt lat="43.60884929069868" lon="12.227316950151216"><ele>826.0</ele><time>2026-05-01T10:50:09Z</time></trkpt><trkpt lat="43.60874467560885" lon="12.227453538736869"><ele>825.5</ele><time>2026-05-01T10:50:10Z</time></trkpt><trkpt lat="43.60865492074641" lon="12.22759031753798"><ele>825.0</ele><time>2026-05-01T10:50:11Z</time></trkpt><trkpt lat="43.608612622308584" lon="12.227749026264263"><ele>825.0</ele><time>2026-05-01T10:50:12Z</time></trkpt><trkpt lat="43.60863779432802" lon="12.22792103374122"><ele>825.0</ele><time>2026-05-01T10:50:13Z</time></trkpt><trkpt lat="43.60873177994323" lon="12.22806628805062"><ele>825.0</ele><time>2026-05-01T10:50:14Z</time></trkpt><trkpt lat="43.60886768218854" lon="12.228151398487332"><ele>825.0</ele><time>2026-05-01T10:50:15Z</time></trkpt><trkpt lat="43.60902316126326" lon="12.228177463544567"><ele>821.0</ele><time>2026-05-01T10:50:16Z</time></trkpt><trkpt lat="43.6091734437908" lon="12.228187512284153"><ele>817.0</ele><time>2026-05-01T10:50:17Z</time></trkpt><trkpt lat="43.60931292782728" lon="12.228269948311533"><ele>813.0</ele><time>2026-05-01T10:50:18Z</time></trkpt><trkpt lat="43.60943018869134" lon="12.228407859375118"><ele>815.0</ele><time>2026-05-01T10:50:19Z</time></trkpt><trkpt lat="43.60952951384053" lon="12.228598258005908"><ele>817.0</ele><time>2026-05-01T10:50:20Z</time></trkpt><trkpt lat="43.609606336336526" lon="12.228819747396662"><ele>819.0</ele><time>2026-05-01T10:50:21Z</time></trkpt><trkpt lat="43.609676670635565" lon="12.229038651521627"><ele>819.0</ele><time>2026-05-01T10:50:22Z</time></trkpt><trkpt lat="43.609766038392934" lon="12.229233028456942"><ele>819.0</ele><time>2026-05-01T10:50:23Z</time></trkpt><trkpt lat="43.609884911576586" lon="12.229405671103688"><ele>819.0</ele><time>2026-05-01T10:50:24Z</time></trkpt><trkpt lat="43.61001538706803" lon="12.229530171264262"><ele>819.0</ele><time>2026-05-01T10:50:25Z</time></trkpt><trkpt lat="43.61012779514658" lon="12.229667795911515"><ele>819.0</ele><time>2026-05-01T10:50:26Z</time></trkpt><trkpt lat="43.610189411987044" lon="12.22986279300751"><ele>819.0</ele><time>2026-05-01T10:50:27Z</time></trkpt><trkpt lat="43.610221589877774" lon="12.23007635252834"><ele>814.25</ele><time>2026-05-01T10:50:28Z</time></trkpt><trkpt lat="43.61026775646212" lon="12.230269082309256"><ele>809.5</ele><time>2026-05-01T10:50:29Z</time></trkpt><trkpt lat="43.61034406416707" lon="12.230422852902704"><ele>804.75</ele><time>2026-05-01T10:50:30Z</time></trkpt><trkpt lat="43.61042134821683" lon="12.230523926720998"><ele>800.0</ele><time>2026-05-01T10:50:31Z</time></trkpt><trkpt lat="43.61050948429706" lon="12.230553675875175"><ele>800.0</ele><time>2026-05-01T10:50:32Z</time></trkpt><trkpt lat="43.6105955351266" lon="12.23048046599303"><ele>800.0</ele><time>2026-05-01T10:50:33Z</time></trkpt><trkpt lat="43.61064462232945" lon="12.230342696695358"><ele>800.0</ele><time>2026-05-01T10:50:34Z</time></trkpt><trkpt lat="43.61065003165298" lon="12.230179759093229"><ele>800.0</ele><time>2026-05-01T10:50:35Z</time></trkpt><trkpt lat="43.6106898115792" lon="12.230047444153355"><ele>800.0</ele><time>2026-05-01T10:50:36Z</time></trkpt><trkpt lat="43.61079034716207" lon="12.229975863030019"><ele>800.0</ele><time>2026-05-01T10:50:37Z</time></trkpt><trkpt lat="43.61091254038657" lon="12.22998475205848"><ele>800.0</ele><time>2026-05-01T10:50:38Z</time></trkpt><trkpt lat="43.61103279382403" lon="12.230084274555542"><ele>800.0</ele><time>2026-05-01T10:50:39Z</time></trkpt><trkpt lat="43.611133244532496" lon="12.23024410460254"><ele>800.0</ele><time>2026-05-01T10:50:40Z</time></trkpt><trkpt lat="43.61122420986344" lon="12.230398771935215"><ele>800.0</ele><time>2026-05-01T10:50:41Z</time></trkpt><trkpt lat="43.61130273875946" lon="12.230539673238626"><ele>800.0</ele><time>2026-05-01T10:50:42Z</time></trkpt><trkpt lat="43.61132988848372" lon="12.230681194080216"><ele>800.0</ele><time>2026-05-01T10:50:43Z</time></trkpt><trkpt lat="43.611285942435686" lon="12.230804834916396"><ele>800.0</ele><time>2026-05-01T10:50:44.001Z</time></trkpt><trkpt lat="43.61118601913636" lon="12.230882564131088"><ele>800.0</ele><time>2026-05-01T10:50:45.001Z</time></trkpt><trkpt lat="43.611056003329594" lon="12.230906466695721"><ele>795.75</ele><time>2026-05-01T10:50:46.001Z</time></trkpt><trkpt lat="43.61091627236967" lon="12.230937630822659"><ele>791.5</ele><time>2026-05-01T10:50:47.001Z</time></trkpt><trkpt lat="43.61076692146871" lon="12.230983732890847"><ele>787.25</ele><time>2026-05-01T10:50:48.001Z</time></trkpt><trkpt lat="43.61062440716583" lon="12.23103097870094"><ele>783.0</ele><time>2026-05-01T10:50:49.001Z</time></trkpt><trkpt lat="43.61049783463169" lon="12.231060192181381"><ele>783.0</ele><time>2026-05-01T10:50:50.001Z</time></trkpt><trkpt lat="43.61037071005569" lon="12.231027470181298"><ele>783.0</ele><time>2026-05-01T10:50:51.001Z</time></trkpt><trkpt lat="43.61025156634473" lon="12.23092009183697"><ele>783.0</ele><time>2026-05-01T10:50:52.001Z</time></trkpt><trkpt lat="43.61015840405124" lon="12.230753623346988"><ele>783.0</ele><time>2026-05-01T10:50:53.001Z</time></trkpt><trkpt lat="43.610066307745605" lon="12.230593367522609"><ele>786.75</ele><time>2026-05-01T10:50:54.001Z</time></trkpt><trkpt lat="43.60998270229563" lon="12.23045591666415"><ele>790.5</ele><time>2026-05-01T10:50:55.001Z</time></trkpt><trkpt lat="43.6098976030197" lon="12.230360146530666"><ele>794.25</ele><time>2026-05-01T10:50:56.001Z</time></trkpt><trkpt lat="43.609793228409025" lon="12.2303210737067"><ele>798.0</ele><time>2026-05-01T10:50:57.001Z</time></trkpt><trkpt lat="43.60969610344851" lon="12.230375017169818"><ele>798.0</ele><time>2026-05-01T10:50:58.001Z</time></trkpt><trkpt lat="43.609638657801405" lon="12.230496863087872"><ele>798.0</ele><time>2026-05-01T10:50:59.001Z</time></trkpt><trkpt lat="43.60964405992304" lon="12.230647869790788"><ele>798.0</ele><time>2026-05-01T10:51:00.001Z</time></trkpt><trkpt lat="43.60971127267055" lon="12.230790467947193"><ele>798.0</ele><time>2026-05-01T10:51:01.001Z</time></trkpt><trkpt lat="43.60982105077981" lon="12.230906938359373"><ele>791.0</ele><time>2026-05-01T10:51:02.001Z</time></trkpt><trkpt lat="43.60994485615728" lon="12.231031696362198"><ele>784.0</ele><time>2026-05-01T10:51:03.001Z</time></trkpt><trkpt lat="43.610077486591116" lon="12.231179093531003"><ele>777.0</ele><time>2026-05-01T10:51:04.001Z</time></trkpt><trkpt lat="43.610221696489305" lon="12.231331667681612"><ele>779.0</ele><time>2026-05-01T10:51:05.001Z</time></trkpt><trkpt lat="43.610374071179606" lon="12.231463334516564"><ele>781.0</ele><time>2026-05-01T10:51:06.001Z</time></trkpt><trkpt lat="43.61054114892414" lon="12.231580288012543"><ele>783.0</ele><time>2026-05-01T10:51:07.001Z</time></trkpt><trkpt lat="43.61070108542597" lon="12.231706140172548"><ele>777.3333333333334</ele><time>2026-05-01T10:51:08.001Z</time></trkpt><trkpt lat="43.61084748504965" lon="12.231845376425085"><ele>771.6666666666667</ele><time>2026-05-01T10:51:09.001Z</time></trkpt><trkpt lat="43.610982372372725" lon="12.232004599926276"><ele>766.0</ele><time>2026-05-01T10:51:10.001Z</time></trkpt><trkpt lat="43.61111046313508" lon="12.232186035074417"><ele>769.3333333333334</ele><time>2026-05-01T10:51:11.001Z</time></trkpt><trkpt lat="43.61123194418636" lon="12.232384270387229"><ele>772.6666666666667</ele><time>2026-05-01T10:51:12.001Z</time></trkpt><trkpt lat="43.61134071167338" lon="12.232604860271397"><ele>776.0</ele><time>2026-05-01T10:51:13.001Z</time></trkpt><trkpt lat="43.611419472752495" lon="12.232846932948416"><ele>776.0</ele><time>2026-05-01T10:51:14.001Z</time></trkpt><trkpt lat="43.611446539498424" lon="12.233057254537211"><ele>776.0</ele><time>2026-05-01T10:51:15.001Z</time></trkpt><trkpt lat="43.61143226261689" lon="12.233247634083096"><ele>776.0</ele><time>2026-05-01T10:51:16.001Z</time></trkpt><trkpt lat="43.61140266320436" lon="12.23339617739074"><ele>776.0</ele><time>2026-05-01T10:51:17.001Z</time></trkpt><trkpt lat="43.611426574772594" lon="12.233530174120304"><ele>771.0</ele><time>2026-05-01T10:51:18.001Z</time></trkpt><trkpt lat="43.61150383686592" lon="12.233636421316413"><ele>766.0</ele><time>2026-05-01T10:51:19.001Z</time></trkpt><trkpt lat="43.611611482511265" lon="12.233686509166679"><ele>761.0</ele><time>2026-05-01T10:51:20.001Z</time></trkpt><trkpt lat="43.61171755630512" lon="12.233640040391322"><ele>756.0</ele><time>2026-05-01T10:51:21.001Z</time></trkpt><trkpt lat="43.611791586289385" lon="12.233516606312289"><ele>756.0</ele><time>2026-05-01T10:51:22.001Z</time></trkpt><trkpt lat="43.61186057274272" lon="12.23339228856517"><ele>756.0</ele><time>2026-05-01T10:51:23.001Z</time></trkpt><trkpt lat="43.611962796594405" lon="12.233363644577228"><ele>756.0</ele><time>2026-05-01T10:51:24.001Z</time></trkpt><trkpt lat="43.61205749537137" lon="12.233417371199218"><ele>756.0</ele><time>2026-05-01T10:51:25.001Z</time></trkpt><trkpt lat="43.612110739753795" lon="12.233537352557093"><ele>756.0</ele><time>2026-05-01T10:51:26.001Z</time></trkpt><trkpt lat="43.61210850060022" lon="12.233686614392807"><ele>752.25</ele><time>2026-05-01T10:51:27.001Z</time></trkpt><trkpt lat="43.61205569470663" lon="12.233841220567758"><ele>748.5</ele><time>2026-05-01T10:51:28.001Z</time></trkpt><trkpt lat="43.611983950952265" lon="12.233995221842168"><ele>744.75</ele><time>2026-05-01T10:51:29.001Z</time></trkpt><trkpt lat="43.611928085857066" lon="12.234174113903851"><ele>741.0</ele><time>2026-05-01T10:51:30.001Z</time></trkpt><trkpt lat="43.6119317470858" lon="12.23438768282322"><ele>741.0</ele><time>2026-05-01T10:51:31.001Z</time></trkpt><trkpt lat="43.61197821436189" lon="12.234593839254252"><ele>741.0</ele><time>2026-05-01T10:51:32Z</time></trkpt><trkpt lat="43.611987910704954" lon="12.234790851490978"><ele>741.0</ele><time>2026-05-01T10:51:33Z</time></trkpt><trkpt lat="43.61196082384757" lon="12.234993110228825"><ele>741.0</ele><time>2026-05-01T10:51:34Z</time></trkpt><trkpt lat="43.61189346066015" lon="12.235182582576213"><ele>740.0</ele><time>2026-05-01T10:51:35Z</time></trkpt><trkpt lat="43.61179202367997" lon="12.235347519870873"><ele>739.0</ele><time>2026-05-01T10:51:36Z</time></trkpt><trkpt lat="43.61167748296212" lon="12.235494228732987"><ele>738.0</ele><time>2026-05-01T10:51:37Z</time></trkpt><trkpt lat="43.61157136924449" lon="12.235646453570244"><ele>738.0</ele><time>2026-05-01T10:51:38Z</time></trkpt><trkpt lat="43.61148866586115" lon="12.23580316009749"><ele>738.0</ele><time>2026-05-01T10:51:39Z</time></trkpt><trkpt lat="43.61144969956516" lon="12.235989003271504"><ele>738.0</ele><time>2026-05-01T10:51:40Z</time></trkpt><trkpt lat="43.61147127256241" lon="12.23619831624968"><ele>738.0</ele><time>2026-05-01T10:51:41Z</time></trkpt><trkpt lat="43.61152151971247" lon="12.236411137523588"><ele>737.75</ele><time>2026-05-01T10:51:42Z</time></trkpt><trkpt lat="43.6115500115704" lon="12.236632447087276"><ele>737.5</ele><time>2026-05-01T10:51:43Z</time></trkpt><trkpt lat="43.61154387329422" lon="12.23683548094123"><ele>737.25</ele><time>2026-05-01T10:51:44Z</time></trkpt><trkpt lat="43.61151486899092" lon="12.2370123292143"><ele>737.0</ele><time>2026-05-01T10:51:45Z</time></trkpt><trkpt lat="43.611498487049055" lon="12.237169684563707"><ele>734.5</ele><time>2026-05-01T10:51:46Z</time></trkpt><trkpt lat="43.61154190408061" lon="12.237307339818514"><ele>732.0</ele><time>2026-05-01T10:51:47Z</time></trkpt><trkpt lat="43.61164593475411" lon="12.237399837574936"><ele>729.5</ele><time>2026-05-01T10:51:48Z</time></trkpt><trkpt lat="43.611758701527904" lon="12.237494669802592"><ele>727.0</ele><time>2026-05-01T10:51:49Z</time></trkpt><trkpt lat="43.61182477787025" lon="12.237654185204162"><ele>727.0</ele><time>2026-05-01T10:51:50Z</time></trkpt><trkpt lat="43.61184449045899" lon="12.237859686806626"><ele>727.0</ele><time>2026-05-01T10:51:51Z</time></trkpt><trkpt lat="43.61181929929786" lon="12.238059232269263"><ele>727.0</ele><time>2026-05-01T10:51:52Z</time></trkpt><trkpt lat="43.61175745993092" lon="12.238254327327502"><ele>726.0</ele><time>2026-05-01T10:51:53Z</time></trkpt><trkpt lat="43.6116802643271" lon="12.238442178625188"><ele>725.0</ele><time>2026-05-01T10:51:54Z</time></trkpt><trkpt lat="43.61162792029364" lon="12.238642305893285"><ele>724.0</ele><time>2026-05-01T10:51:55Z</time></trkpt><trkpt lat="43.61162107602856" lon="12.238864710543947"><ele>722.0</ele><time>2026-05-01T10:51:56Z</time></trkpt><trkpt lat="43.61164955808124" lon="12.239087934129932"><ele>720.0</ele><time>2026-05-01T10:51:57Z</time></trkpt><trkpt lat="43.61169686312274" lon="12.239313576443704"><ele>718.0</ele><time>2026-05-01T10:51:58Z</time></trkpt><trkpt lat="43.61176266811321" lon="12.239517825203952"><ele>718.0</ele><time>2026-05-01T10:51:59Z</time></trkpt><trkpt lat="43.61184756628589" lon="12.239682958959273"><ele>718.0</ele><time>2026-05-01T10:52:00Z</time></trkpt><trkpt lat="43.61197563794454" lon="12.23980148033831"><ele>718.0</ele><time>2026-05-01T10:52:01Z</time></trkpt><trkpt lat="43.61212755956912" lon="12.23989292442572"><ele>717.3333333333334</ele><time>2026-05-01T10:52:02Z</time></trkpt><trkpt lat="43.6122850618918" lon="12.23998731234338"><ele>716.6666666666666</ele><time>2026-05-01T10:52:03Z</time></trkpt><trkpt lat="43.61244786666814" lon="12.240083983749253"><ele>716.0</ele><time>2026-05-01T10:52:04Z</time></trkpt><trkpt lat="43.6125987206663" lon="12.240175946315974"><ele>716.0</ele><time>2026-05-01T10:52:05Z</time></trkpt><trkpt lat="43.612737230336336" lon="12.240269742618235"><ele>716.0</ele><time>2026-05-01T10:52:06Z</time></trkpt><trkpt lat="43.612855374149525" lon="12.240392536921636"><ele>716.0</ele><time>2026-05-01T10:52:07Z</time></trkpt><trkpt lat="43.612952568537885" lon="12.240547815612022"><ele>716.0</ele><time>2026-05-01T10:52:08Z</time></trkpt><trkpt lat="43.613009050875334" lon="12.240742926351604"><ele>716.0</ele><time>2026-05-01T10:52:09Z</time></trkpt><trkpt lat="43.61301597368789" lon="12.24095548145603"><ele>716.0</ele><time>2026-05-01T10:52:10Z</time></trkpt><trkpt lat="43.613001451314965" lon="12.241147278754966"><ele>716.0</ele><time>2026-05-01T10:52:11Z</time></trkpt><trkpt lat="43.61301576228206" lon="12.24130489603626"><ele>716.0</ele><time>2026-05-01T10:52:12Z</time></trkpt><trkpt lat="43.61309982235523" lon="12.24142244278169"><ele>716.0</ele><time>2026-05-01T10:52:13Z</time></trkpt><trkpt lat="43.61322743972985" lon="12.241498413072257"><ele>716.0</ele><time>2026-05-01T10:52:14Z</time></trkpt><trkpt lat="43.6133583111233" lon="12.24159942666184"><ele>716.0</ele><time>2026-05-01T10:52:15Z</time></trkpt><trkpt lat="43.61348021227353" lon="12.241726036444064"><ele>709.3333333333333</ele><time>2026-05-01T10:52:16Z</time></trkpt><trkpt lat="43.61362624832" lon="12.241807878282623"><ele>702.6666666666666</ele><time>2026-05-01T10:52:17Z</time></trkpt><trkpt lat="43.613793323101305" lon="12.241824470483524"><ele>696.0</ele><time>2026-05-01T10:52:18Z</time></trkpt><trkpt lat="43.613956259827546" lon="12.241813953708709"><ele>695.75</ele><time>2026-05-01T10:52:19Z</time></trkpt><trkpt lat="43.61409662931053" lon="12.241846879905102"><ele>695.5</ele><time>2026-05-01T10:52:20Z</time></trkpt><trkpt lat="43.614217605939324" lon="12.241942390368028"><ele>695.25</ele><time>2026-05-01T10:52:21Z</time></trkpt><trkpt lat="43.61430050883928" lon="12.242095788496647"><ele>695.0</ele><time>2026-05-01T10:52:22Z</time></trkpt><trkpt lat="43.61434791522257" lon="12.242285652825817"><ele>692.3333333333333</ele><time>2026-05-01T10:52:23Z</time></trkpt><trkpt lat="43.614360239451706" lon="12.24250091176927"><ele>689.6666666666666</ele><time>2026-05-01T10:52:24Z</time></trkpt><trkpt lat="43.61434661259506" lon="12.242719135130379"><ele>687.0</ele><time>2026-05-01T10:52:25Z</time></trkpt><trkpt lat="43.61431442686037" lon="12.242917541153568"><ele>687.0</ele><time>2026-05-01T10:52:26Z</time></trkpt><trkpt lat="43.614289396638995" lon="12.243085399860664"><ele>687.0</ele><time>2026-05-01T10:52:27Z</time></trkpt><trkpt lat="43.61429735277489" lon="12.24322879217064"><ele>687.0</ele><time>2026-05-01T10:52:28Z</time></trkpt><trkpt lat="43.61435479530394" lon="12.243333044428164"><ele>687.0</ele><time>2026-05-01T10:52:29Z</time></trkpt><trkpt lat="43.61445919982094" lon="12.243378419984651"><ele>687.0</ele><time>2026-05-01T10:52:30Z</time></trkpt><trkpt lat="43.61458344609418" lon="12.243386212782168"><ele>687.0</ele><time>2026-05-01T10:52:31Z</time></trkpt><trkpt lat="43.614716554675574" lon="12.243380203244811"><ele>687.0</ele><time>2026-05-01T10:52:32Z</time></trkpt><trkpt lat="43.614839435639034" lon="12.243400541271074"><ele>687.0</ele><time>2026-05-01T10:52:33Z</time></trkpt><trkpt lat="43.61494404195084" lon="12.243487669747488"><ele>687.0</ele><time>2026-05-01T10:52:34Z</time></trkpt><trkpt lat="43.615020864412394" lon="12.243630499860656"><ele>687.0</ele><time>2026-05-01T10:52:35Z</time></trkpt><trkpt lat="43.615074544901354" lon="12.243815589251293"><ele>687.0</ele><time>2026-05-01T10:52:36Z</time></trkpt><trkpt lat="43.615129664989674" lon="12.244021067857899"><ele>687.0</ele><time>2026-05-01T10:52:37Z</time></trkpt><trkpt lat="43.61518749157167" lon="12.244222085125685"><ele>686.3333333333334</ele><time>2026-05-01T10:52:38Z</time></trkpt><trkpt lat="43.61524588592313" lon="12.244432498090289"><ele>685.6666666666667</ele><time>2026-05-01T10:52:39Z</time></trkpt><trkpt lat="43.61531003480492" lon="12.244661324307573"><ele>685.0</ele><time>2026-05-01T10:52:40Z</time></trkpt><trkpt lat="43.61537611630255" lon="12.244898568939327"><ele>685.0</ele><time>2026-05-01T10:52:41Z</time></trkpt><trkpt lat="43.61544801880363" lon="12.245138198680106"><ele>685.0</ele><time>2026-05-01T10:52:42Z</time></trkpt><trkpt lat="43.615521373329685" lon="12.245383130390872"><ele>685.0</ele><time>2026-05-01T10:52:43Z</time></trkpt><trkpt lat="43.61559114338253" lon="12.245629539316607"><ele>678.3333333333334</ele><time>2026-05-01T10:52:44Z</time></trkpt><trkpt lat="43.61565820320065" lon="12.245867624229273"><ele>671.6666666666666</ele><time>2026-05-01T10:52:45Z</time></trkpt><trkpt lat="43.615722665721734" lon="12.246094541612862"><ele>665.0</ele><time>2026-05-01T10:52:46Z</time></trkpt><trkpt lat="43.61578202641936" lon="12.246321558805185"><ele>663.5</ele><time>2026-05-01T10:52:47Z</time></trkpt><trkpt lat="43.61584356840336" lon="12.246535661924526"><ele>662.0</ele><time>2026-05-01T10:52:48Z</time></trkpt><trkpt lat="43.61590320847444" lon="12.246719053981048"><ele>660.5</ele><time>2026-05-01T10:52:49Z</time></trkpt><trkpt lat="43.6159384920841" lon="12.246895778163434"><ele>659.0</ele><time>2026-05-01T10:52:50.001Z</time></trkpt><trkpt lat="43.61593011111817" lon="12.247080386751035"><ele>659.0</ele><time>2026-05-01T10:52:51.001Z</time></trkpt><trkpt lat="43.61587140217813" lon="12.247262872030982"><ele>659.0</ele><time>2026-05-01T10:52:52.001Z</time></trkpt><trkpt lat="43.615768064753034" lon="12.247413601582233"><ele>659.0</ele><time>2026-05-01T10:52:53.001Z</time></trkpt><trkpt lat="43.615635862633034" lon="12.247517633967542"><ele>659.0</ele><time>2026-05-01T10:52:54.001Z</time></trkpt><trkpt lat="43.61550589445253" lon="12.247579849498052"><ele>659.6</ele><time>2026-05-01T10:52:55.001Z</time></trkpt><trkpt lat="43.61539997936543" lon="12.247641539023013"><ele>660.2</ele><time>2026-05-01T10:52:56.001Z</time></trkpt><trkpt lat="43.6153269582964" lon="12.247735347005541"><ele>660.8000000000001</ele><time>2026-05-01T10:52:57.001Z</time></trkpt><trkpt lat="43.6153051692853" lon="12.247865362583594"><ele>661.4000000000001</ele><time>2026-05-01T10:52:58.001Z</time></trkpt><trkpt lat="43.615347433190195" lon="12.24800947467135"><ele>662.0</ele><time>2026-05-01T10:52:59.001Z</time></trkpt><trkpt lat="43.61544680260408" lon="12.248124141505595"><ele>661.25</ele><time>2026-05-01T10:53:00.001Z</time></trkpt><trkpt lat="43.61555743659744" lon="12.248242247281434"><ele>660.5</ele><time>2026-05-01T10:53:01.001Z</time></trkpt><trkpt lat="43.61566128941825" lon="12.248386340262671"><ele>659.75</ele><time>2026-05-01T10:53:02.001Z</time></trkpt><trkpt lat="43.615733239028884" lon="12.248546924831357"><ele>659.0</ele><time>2026-05-01T10:53:03.001Z</time></trkpt><trkpt lat="43.615754537479575" lon="12.248732791093847"><ele>659.0</ele><time>2026-05-01T10:53:04.001Z</time></trkpt><trkpt lat="43.61572588788462" lon="12.248930340782275"><ele>659.0</ele><time>2026-05-01T10:53:05.001Z</time></trkpt><trkpt lat="43.61565155128246" lon="12.249113499029475"><ele>659.0</ele><time>2026-05-01T10:53:06.001Z</time></trkpt><trkpt lat="43.615545000737065" lon="12.249266025544555"><ele>658.0</ele><time>2026-05-01T10:53:07.001Z</time></trkpt><trkpt lat="43.61542146732999" lon="12.24938589971859"><ele>657.0</ele><time>2026-05-01T10:53:08.001Z</time></trkpt><trkpt lat="43.61530579313616" lon="12.249481389041911"><ele>656.0</ele><time>2026-05-01T10:53:09.001Z</time></trkpt><trkpt lat="43.61521993634107" lon="12.249583790535599"><ele>655.0</ele><time>2026-05-01T10:53:10.001Z</time></trkpt><trkpt lat="43.615176879447425" lon="12.249720193232054"><ele>653.5</ele><time>2026-05-01T10:53:11.001Z</time></trkpt><trkpt lat="43.61518972521917" lon="12.249880958140533"><ele>652.0</ele><time>2026-05-01T10:53:12.001Z</time></trkpt><trkpt lat="43.61525374511501" lon="12.25004005046208"><ele>650.5</ele><time>2026-05-01T10:53:13.001Z</time></trkpt><trkpt lat="43.61534958674113" lon="12.25018074227238"><ele>649.0</ele><time>2026-05-01T10:53:14.001Z</time></trkpt><trkpt lat="43.6154721543704" lon="12.25029429530096"><ele>649.0</ele><time>2026-05-01T10:53:15.001Z</time></trkpt><trkpt lat="43.61562070422513" lon="12.250358943310436"><ele>649.0</ele><time>2026-05-01T10:53:16.001Z</time></trkpt><trkpt lat="43.615773505479424" lon="12.250397966879277"><ele>649.0</ele><time>2026-05-01T10:53:17.001Z</time></trkpt><trkpt lat="43.615916022487454" lon="12.25049810757027"><ele>647.6666666666667</ele><time>2026-05-01T10:53:18.001Z</time></trkpt><trkpt lat="43.61604255365927" lon="12.250651935107555"><ele>646.3333333333334</ele><time>2026-05-01T10:53:19.001Z</time></trkpt><trkpt lat="43.61616060160538" lon="12.250805141235332"><ele>645.0</ele><time>2026-05-01T10:53:20.001Z</time></trkpt><trkpt lat="43.61626712725163" lon="12.250973841050289"><ele>645.0</ele><time>2026-05-01T10:53:21.001Z</time></trkpt><trkpt lat="43.6163495641725" lon="12.251167830421005"><ele>645.0</ele><time>2026-05-01T10:53:22.001Z</time></trkpt><trkpt lat="43.616405533631024" lon="12.251376466415815"><ele>645.0</ele><time>2026-05-01T10:53:23.001Z</time></trkpt><trkpt lat="43.61641939009098" lon="12.251574304540405"><ele>642.75</ele><time>2026-05-01T10:53:24.001Z</time></trkpt><trkpt lat="43.61639472713499" lon="12.251755449114096"><ele>640.5</ele><time>2026-05-01T10:53:25.001Z</time></trkpt><trkpt lat="43.61637013082405" lon="12.25190599654565"><ele>638.25</ele><time>2026-05-01T10:53:26.001Z</time></trkpt><trkpt lat="43.61639581163501" lon="12.252040667504081"><ele>636.0</ele><time>2026-05-01T10:53:27.001Z</time></trkpt><trkpt lat="43.616478015662004" lon="12.25215842217807"><ele>636.0</ele><time>2026-05-01T10:53:28.001Z</time></trkpt><trkpt lat="43.61659199058837" lon="12.252254952216905"><ele>636.0</ele><time>2026-05-01T10:53:29.001Z</time></trkpt><trkpt lat="43.61671887419437" lon="12.252342142768159"><ele>636.0</ele><time>2026-05-01T10:53:30.001Z</time></trkpt><trkpt lat="43.61684450705262" lon="12.252450469668695"><ele>636.0</ele><time>2026-05-01T10:53:31.001Z</time></trkpt><trkpt lat="43.616965515686275" lon="12.25258621843047"><ele>635.6666666666666</ele><time>2026-05-01T10:53:32.001Z</time></trkpt><trkpt lat="43.61708166554701" lon="12.25274159869798"><ele>635.3333333333333</ele><time>2026-05-01T10:53:33.001Z</time></trkpt><trkpt lat="43.617200234864555" lon="12.252893179579953"><ele>635.0</ele><time>2026-05-01T10:53:34.001Z</time></trkpt><trkpt lat="43.61732694693811" lon="12.253021812976243"><ele>635.0</ele><time>2026-05-01T10:53:35.001Z</time></trkpt><trkpt lat="43.61747582548942" lon="12.253113564410528"><ele>635.0</ele><time>2026-05-01T10:53:36.001Z</time></trkpt><trkpt lat="43.61763478216333" lon="12.25316273033581"><ele>635.0</ele><time>2026-05-01T10:53:37.001Z</time></trkpt><trkpt lat="43.61777872044026" lon="12.253227601522063"><ele>635.0</ele><time>2026-05-01T10:53:38Z</time></trkpt><trkpt lat="43.61790431415554" lon="12.253361512148876"><ele>635.0</ele><time>2026-05-01T10:53:39Z</time></trkpt><trkpt lat="43.618014634590025" lon="12.253532988951342"><ele>635.0</ele><time>2026-05-01T10:53:40Z</time></trkpt><trkpt lat="43.61810469660052" lon="12.25371232436476"><ele>635.0</ele><time>2026-05-01T10:53:41Z</time></trkpt><trkpt lat="43.61819842673379" lon="12.253878640953507"><ele>635.0</ele><time>2026-05-01T10:53:42Z</time></trkpt><trkpt lat="43.618287164251086" lon="12.25403439657896"><ele>635.0</ele><time>2026-05-01T10:53:43Z</time></trkpt><trkpt lat="43.618365839877384" lon="12.254184755288426"><ele>635.0</ele><time>2026-05-01T10:53:44Z</time></trkpt><trkpt lat="43.61844487692877" lon="12.254321485704008"><ele>629.25</ele><time>2026-05-01T10:53:45Z</time></trkpt><trkpt lat="43.61853873695362" lon="12.254421656999499"><ele>623.5</ele><time>2026-05-01T10:53:46Z</time></trkpt><trkpt lat="43.61864455710675" lon="12.254470496834625"><ele>617.75</ele><time>2026-05-01T10:53:47Z</time></trkpt><trkpt lat="43.61875741471364" lon="12.254458442075379"><ele>612.0</ele><time>2026-05-01T10:53:48Z</time></trkpt><trkpt lat="43.618876024611936" lon="12.254385605227922"><ele>611.75</ele><time>2026-05-01T10:53:49Z</time></trkpt><trkpt lat="43.618999495007586" lon="12.254292730685295"><ele>611.5</ele><time>2026-05-01T10:53:50Z</time></trkpt><trkpt lat="43.61913126835835" lon="12.254201779400418"><ele>611.25</ele><time>2026-05-01T10:53:51Z</time></trkpt><trkpt lat="43.619275903018156" lon="12.254114772458404"><ele>611.0</ele><time>2026-05-01T10:53:52Z</time></trkpt><trkpt lat="43.61942331071103" lon="12.254024715622672"><ele>615.3333333333333</ele><time>2026-05-01T10:53:53Z</time></trkpt><trkpt lat="43.619572205554135" lon="12.253932628243119"><ele>619.6666666666666</ele><time>2026-05-01T10:53:54Z</time></trkpt><trkpt lat="43.6197204502712" lon="12.253838267247794"><ele>624.0</ele><time>2026-05-01T10:53:55Z</time></trkpt><trkpt lat="43.61987101257438" lon="12.253760864321805"><ele>624.0</ele><time>2026-05-01T10:53:56Z</time></trkpt><trkpt lat="43.62002702773316" lon="12.253721533705363"><ele>624.0</ele><time>2026-05-01T10:53:57Z</time></trkpt><trkpt lat="43.62018645309501" lon="12.25372954679122"><ele>624.0</ele><time>2026-05-01T10:53:58Z</time></trkpt><trkpt lat="43.62035037256896" lon="12.25377984425229"><ele>626.6666666666666</ele><time>2026-05-01T10:53:59Z</time></trkpt><trkpt lat="43.62052431301751" lon="12.253847175098866"><ele>629.3333333333333</ele><time>2026-05-01T10:54:00Z</time></trkpt><trkpt lat="43.62066236117101" lon="12.253946149777626"><ele>632.0</ele><time>2026-05-01T10:54:01Z</time></trkpt><trkpt lat="43.62077772435982" lon="12.25406528427128"><ele>625.25</ele><time>2026-05-01T10:54:02Z</time></trkpt><trkpt lat="43.62088215923853" lon="12.254185933181532"><ele>618.5</ele><time>2026-05-01T10:54:03Z</time></trkpt><trkpt lat="43.620986044671966" lon="12.254298520402715"><ele>611.75</ele><time>2026-05-01T10:54:04Z</time></trkpt><trkpt lat="43.621084726068446" lon="12.254405915311517"><ele>605.0</ele><time>2026-05-01T10:54:05Z</time></trkpt><trkpt lat="43.62118264605994" lon="12.254511269229642"><ele>605.0</ele><time>2026-05-01T10:54:06Z</time></trkpt><trkpt lat="43.62128367390247" lon="12.25461432614645"><ele>605.0</ele><time>2026-05-01T10:54:07Z</time></trkpt><trkpt lat="43.62138499745102" lon="12.25471088588214"><ele>605.0</ele><time>2026-05-01T10:54:08Z</time></trkpt><trkpt lat="43.62149329062083" lon="12.254780118714185"><ele>605.0</ele><time>2026-05-01T10:54:09Z</time></trkpt><trkpt lat="43.62160981627195" lon="12.254803357413135"><ele>605.0</ele><time>2026-05-01T10:54:10Z</time></trkpt><trkpt lat="43.621727417976274" lon="12.254771440773634"><ele>605.0</ele><time>2026-05-01T10:54:11Z</time></trkpt><trkpt lat="43.62184502146357" lon="12.254711816535668"><ele>605.0</ele><time>2026-05-01T10:54:12Z</time></trkpt><trkpt lat="43.62196012257355" lon="12.254650939560205"><ele>605.0</ele><time>2026-05-01T10:54:13Z</time></trkpt><trkpt lat="43.62207962572639" lon="12.254590580476629"><ele>602.75</ele><time>2026-05-01T10:54:14Z</time></trkpt><trkpt lat="43.62219989880674" lon="12.254534505598444"><ele>600.5</ele><time>2026-05-01T10:54:15Z</time></trkpt><trkpt lat="43.622316226095286" lon="12.254480556276906"><ele>598.25</ele><time>2026-05-01T10:54:16Z</time></trkpt><trkpt lat="43.622418620293736" lon="12.254432712946645"><ele>596.0</ele><time>2026-05-01T10:54:17Z</time></trkpt><trkpt lat="43.622512469627495" lon="12.25439494314667"><ele>596.0</ele><time>2026-05-01T10:54:18Z</time></trkpt><trkpt lat="43.62260027730257" lon="12.254382056304234"><ele>596.0</ele><time>2026-05-01T10:54:19Z</time></trkpt><trkpt lat="43.622680204121465" lon="12.254411571651882"><ele>596.0</ele><time>2026-05-01T10:54:20Z</time></trkpt><trkpt lat="43.622740138426416" lon="12.254480116221979"><ele>596.0</ele><time>2026-05-01T10:54:21Z</time></trkpt><trkpt lat="43.62278325977068" lon="12.25458088213636"><ele>596.0</ele><time>2026-05-01T10:54:22Z</time></trkpt><trkpt lat="43.62283321508364" lon="12.25468880444966"><ele>596.0</ele><time>2026-05-01T10:54:23Z</time></trkpt><trkpt lat="43.62289336374318" lon="12.254801325973279"><ele>595.25</ele><time>2026-05-01T10:54:24Z</time></trkpt><trkpt lat="43.62295772105529" lon="12.254917377389955"><ele>594.5</ele><time>2026-05-01T10:54:25Z</time></trkpt><trkpt lat="43.62302799563285" lon="12.255036417347196"><ele>593.75</ele><time>2026-05-01T10:54:26Z</time></trkpt><trkpt lat="43.623100784643206" lon="12.255158952389241"><ele>593.0</ele><time>2026-05-01T10:54:27Z</time></trkpt><trkpt lat="43.62317363206421" lon="12.255289347029429"><ele>593.0</ele><time>2026-05-01T10:54:28Z</time></trkpt><trkpt lat="43.62324916902101" lon="12.255423657976685"><ele>593.0</ele><time>2026-05-01T10:54:29Z</time></trkpt><trkpt lat="43.62332877191668" lon="12.255557634699677"><ele>593.0</ele><time>2026-05-01T10:54:30Z</time></trkpt><trkpt lat="43.62340686416025" lon="12.255689459358436"><ele>593.0</ele><time>2026-05-01T10:54:31Z</time></trkpt><trkpt lat="43.623481221201615" lon="12.255826368451196"><ele>593.5</ele><time>2026-05-01T10:54:32Z</time></trkpt><trkpt lat="43.623553218179914" lon="12.255959772218779"><ele>594.0</ele><time>2026-05-01T10:54:33Z</time></trkpt><trkpt lat="43.62363019664087" lon="12.256084416769358"><ele>594.5</ele><time>2026-05-01T10:54:34Z</time></trkpt><trkpt lat="43.62371597568007" lon="12.256191437165352"><ele>595.0</ele><time>2026-05-01T10:54:35Z</time></trkpt><trkpt lat="43.62381334016732" lon="12.256278612788762"><ele>595.0</ele><time>2026-05-01T10:54:36Z</time></trkpt><trkpt lat="43.62391988163613" lon="12.256339897287052"><ele>595.0</ele><time>2026-05-01T10:54:37Z</time></trkpt><trkpt lat="43.62403258886038" lon="12.256380788868443"><ele>595.0</ele><time>2026-05-01T10:54:38Z</time></trkpt><trkpt lat="43.624149728371876" lon="12.256412155905922"><ele>595.0</ele><time>2026-05-01T10:54:39Z</time></trkpt><trkpt lat="43.624268028490334" lon="12.256444258251262"><ele>594.0</ele><time>2026-05-01T10:54:40Z</time></trkpt><trkpt lat="43.6243875142571" lon="12.256479186027427"><ele>593.0</ele><time>2026-05-01T10:54:41Z</time></trkpt><trkpt lat="43.624505689191025" lon="12.256512264389405"><ele>592.0</ele><time>2026-05-01T10:54:42Z</time></trkpt><trkpt lat="43.62461617993743" lon="12.256545383086133"><ele>591.0</ele><time>2026-05-01T10:54:43Z</time></trkpt><trkpt lat="43.62472215162411" lon="12.256590931880556"><ele>591.0</ele><time>2026-05-01T10:54:44Z</time></trkpt><trkpt lat="43.624821814621605" lon="12.256650833380222"><ele>591.0</ele><time>2026-05-01T10:54:45Z</time></trkpt><trkpt lat="43.624902523662485" lon="12.256748002397986"><ele>591.0</ele><time>2026-05-01T10:54:46Z</time></trkpt><trkpt lat="43.62495934957454" lon="12.256880365261878"><ele>591.0</ele><time>2026-05-01T10:54:47Z</time></trkpt><trkpt lat="43.62499374352799" lon="12.257032067861164"><ele>591.0</ele><time>2026-05-01T10:54:48Z</time></trkpt><trkpt lat="43.62502976102869" lon="12.257187503084145"><ele>588.75</ele><time>2026-05-01T10:54:49Z</time></trkpt><trkpt lat="43.625069689568434" lon="12.25734624426768"><ele>586.5</ele><time>2026-05-01T10:54:50Z</time></trkpt><trkpt lat="43.62510241881876" lon="12.257511679400618"><ele>584.25</ele><time>2026-05-01T10:54:51Z</time></trkpt><trkpt lat="43.62512300969457" lon="12.257687983395446"><ele>582.0</ele><time>2026-05-01T10:54:52Z</time></trkpt><trkpt lat="43.62511802861034" lon="12.257870458802604"><ele>582.0</ele><time>2026-05-01T10:54:53Z</time></trkpt><trkpt lat="43.62509607172126" lon="12.25805653560071"><ele>582.0</ele><time>2026-05-01T10:54:54Z</time></trkpt><trkpt lat="43.62507406511567" lon="12.258243310291697"><ele>582.0</ele><time>2026-05-01T10:54:55Z</time></trkpt><trkpt lat="43.62507065315567" lon="12.258421476287301"><ele>582.0</ele><time>2026-05-01T10:54:56Z</time></trkpt><trkpt lat="43.62509145903574" lon="12.258591945461866"><ele>580.75</ele><time>2026-05-01T10:54:57.001Z</time></trkpt><trkpt lat="43.62513125766262" lon="12.25873189330039"><ele>579.5</ele><time>2026-05-01T10:54:58.001Z</time></trkpt><trkpt lat="43.62522789945263" lon="12.258841152079489"><ele>578.25</ele><time>2026-05-01T10:54:59.001Z</time></trkpt><trkpt lat="43.625355097424254" lon="12.258892758854625"><ele>577.0</ele><time>2026-05-01T10:55:00.001Z</time></trkpt><trkpt lat="43.6254929934589" lon="12.258898471301867"><ele>577.5</ele><time>2026-05-01T10:55:01.001Z</time></trkpt><trkpt lat="43.625631696329464" lon="12.258899960949895"><ele>578.0</ele><time>2026-05-01T10:55:02.001Z</time></trkpt><trkpt lat="43.62576476807313" lon="12.258909731990821"><ele>578.5</ele><time>2026-05-01T10:55:03.001Z</time></trkpt><trkpt lat="43.625894077694305" lon="12.25895220524094"><ele>579.0</ele><time>2026-05-01T10:55:04.001Z</time></trkpt><trkpt lat="43.62601071509029" lon="12.259051444932073"><ele>579.0</ele><time>2026-05-01T10:55:05.001Z</time></trkpt><trkpt lat="43.62610345422413" lon="12.259195926251016"><ele>579.0</ele><time>2026-05-01T10:55:06.001Z</time></trkpt><trkpt lat="43.62618024568025" lon="12.259364144560486"><ele>579.0</ele><time>2026-05-01T10:55:07.001Z</time></trkpt><trkpt lat="43.6262411725959" lon="12.25955393390183"><ele>579.0</ele><time>2026-05-01T10:55:08.001Z</time></trkpt><trkpt lat="43.626281205696685" lon="12.259763671739874"><ele>582.3333333333334</ele><time>2026-05-01T10:55:09.001Z</time></trkpt><trkpt lat="43.62631586070627" lon="12.259978489604658"><ele>585.6666666666667</ele><time>2026-05-01T10:55:10.001Z</time></trkpt><trkpt lat="43.62635639645292" lon="12.260194432188595"><ele>589.0</ele><time>2026-05-01T10:55:11.001Z</time></trkpt><trkpt lat="43.626407722468244" lon="12.260413733815833"><ele>585.0</ele><time>2026-05-01T10:55:12.001Z</time></trkpt><trkpt lat="43.62647829516398" lon="12.26063259173256"><ele>581.0</ele><time>2026-05-01T10:55:13.001Z</time></trkpt><trkpt lat="43.6265493082742" lon="12.260856342655794"><ele>577.0</ele><time>2026-05-01T10:55:14.001Z</time></trkpt><trkpt lat="43.62661810622943" lon="12.261079165186485"><ele>577.0</ele><time>2026-05-01T10:55:15.001Z</time></trkpt><trkpt lat="43.62668954944288" lon="12.26131065125435"><ele>577.0</ele><time>2026-05-01T10:55:16.001Z</time></trkpt><trkpt lat="43.626761861875686" lon="12.261544161935893"><ele>577.0</ele><time>2026-05-01T10:55:17.001Z</time></trkpt><trkpt lat="43.62682527674232" lon="12.261784117174129"><ele>577.0</ele><time>2026-05-01T10:55:18.001Z</time></trkpt><trkpt lat="43.6268906693858" lon="12.262009368440426"><ele>577.0</ele><time>2026-05-01T10:55:19.001Z</time></trkpt><trkpt lat="43.626966808486756" lon="12.262220086583508"><ele>577.0</ele><time>2026-05-01T10:55:20.001Z</time></trkpt><trkpt lat="43.627060874662206" lon="12.262420102937567"><ele>577.0</ele><time>2026-05-01T10:55:21.001Z</time></trkpt><trkpt lat="43.62717325168387" lon="12.262608393312453"><ele>577.0</ele><time>2026-05-01T10:55:22.001Z</time></trkpt><trkpt lat="43.62729632830423" lon="12.262791196112547"><ele>577.0</ele><time>2026-05-01T10:55:23.001Z</time></trkpt><trkpt lat="43.62741738581063" lon="12.26298302665489"><ele>574.6666666666667</ele><time>2026-05-01T10:55:24.001Z</time></trkpt><trkpt lat="43.62753358036947" lon="12.263181977966601"><ele>572.3333333333334</ele><time>2026-05-01T10:55:25.001Z</time></trkpt><trkpt lat="43.627650708891125" lon="12.263377545229346"><ele>570.0</ele><time>2026-05-01T10:55:26.001Z</time></trkpt><trkpt lat="43.62776697681882" lon="12.263574066275597"><ele>569.0</ele><time>2026-05-01T10:55:27.001Z</time></trkpt><trkpt lat="43.627884397346165" lon="12.263770176948087"><ele>568.0</ele><time>2026-05-01T10:55:28.001Z</time></trkpt><trkpt lat="43.62801024194519" lon="12.263954342055401"><ele>567.0</ele><time>2026-05-01T10:55:29.001Z</time></trkpt><trkpt lat="43.62814619847559" lon="12.26412763837487"><ele>567.0</ele><time>2026-05-01T10:55:30.001Z</time></trkpt><trkpt lat="43.628292987512154" lon="12.264285270020983"><ele>567.0</ele><time>2026-05-01T10:55:31.001Z</time></trkpt><trkpt lat="43.6284478304399" lon="12.264425217348316"><ele>567.0</ele><time>2026-05-01T10:55:32.001Z</time></trkpt><trkpt lat="43.628602533159075" lon="12.264556655161217"><ele>567.6666666666666</ele><time>2026-05-01T10:55:33.001Z</time></trkpt><trkpt lat="43.62874958841967" lon="12.264703537654537"><ele>568.3333333333333</ele><time>2026-05-01T10:55:34.001Z</time></trkpt><trkpt lat="43.6288818057062" lon="12.264830490264568"><ele>569.0</ele><time>2026-05-01T10:55:35.001Z</time></trkpt><trkpt lat="43.62900317711985" lon="12.264935605111193"><ele>569.0</ele><time>2026-05-01T10:55:36.001Z</time></trkpt><trkpt lat="43.629104886626365" lon="12.26504498397153"><ele>569.0</ele><time>2026-05-01T10:55:37.001Z</time></trkpt><trkpt lat="43.62918643875257" lon="12.265174599893019"><ele>569.0</ele><time>2026-05-01T10:55:38.001Z</time></trkpt><trkpt lat="43.629227145344615" lon="12.265337698170052"><ele>569.0</ele><time>2026-05-01T10:55:39.001Z</time></trkpt><trkpt lat="43.629236621550284" lon="12.265567583179227"><ele>567.25</ele><time>2026-05-01T10:55:40.001Z</time></trkpt><trkpt lat="43.62920366319564" lon="12.265762219616"><ele>565.5</ele><time>2026-05-01T10:55:41.001Z</time></trkpt><trkpt lat="43.62913626991182" lon="12.265943894791565"><ele>563.75</ele><time>2026-05-01T10:55:42.001Z</time></trkpt><trkpt lat="43.62902621946217" lon="12.266068508065095"><ele>562.0</ele><time>2026-05-01T10:55:43.001Z</time></trkpt><trkpt lat="43.62911511746698" lon="12.2661719070424"><ele>562.0</ele><time>2026-05-01T10:55:44Z</time></trkpt><trkpt lat="43.628997535550155" lon="12.266233270393025"><ele>562.0</ele><time>2026-05-01T10:55:45Z</time></trkpt><trkpt lat="43.62893476315721" lon="12.26633788111829"><ele>562.0</ele><time>2026-05-01T10:55:46Z</time></trkpt><trkpt lat="43.628935291270274" lon="12.266477645092625"><ele>562.0</ele><time>2026-05-01T10:55:47Z</time></trkpt><trkpt lat="43.62899765325383" lon="12.26659253097846"><ele>562.0</ele><time>2026-05-01T10:55:48Z</time></trkpt><trkpt lat="43.629105408167256" lon="12.266663986554134"><ele>561.25</ele><time>2026-05-01T10:55:49Z</time></trkpt><trkpt lat="43.62923117771656" lon="12.266724158743795"><ele>560.5</ele><time>2026-05-01T10:55:50Z</time></trkpt><trkpt lat="43.62935862923048" lon="12.266810145579228"><ele>559.75</ele><time>2026-05-01T10:55:51Z</time></trkpt><trkpt lat="43.62949294971028" lon="12.26690661937019"><ele>559.0</ele><time>2026-05-01T10:55:52Z</time></trkpt><trkpt lat="43.62963808749827" lon="12.267012285532811"><ele>556.6666666666667</ele><time>2026-05-01T10:55:53Z</time></trkpt><trkpt lat="43.62978875895913" lon="12.2671253060724"><ele>554.3333333333334</ele><time>2026-05-01T10:55:54Z</time></trkpt><trkpt lat="43.629946554113914" lon="12.26723608395442"><ele>552.0</ele><time>2026-05-01T10:55:55Z</time></trkpt><trkpt lat="43.63011732174818" lon="12.267310130078311"><ele>552.0</ele><time>2026-05-01T10:55:56Z</time></trkpt><trkpt lat="43.6302838702362" lon="12.267333606182575"><ele>552.0</ele><time>2026-05-01T10:55:57Z</time></trkpt><trkpt lat="43.63044291569881" lon="12.267348390935785"><ele>552.0</ele><time>2026-05-01T10:55:58Z</time></trkpt><trkpt lat="43.63058719709492" lon="12.267411779673415"><ele>553.6666666666666</ele><time>2026-05-01T10:55:59Z</time></trkpt><trkpt lat="43.63070347201128" lon="12.267534026081913"><ele>555.3333333333333</ele><time>2026-05-01T10:56:00Z</time></trkpt><trkpt lat="43.630798751259604" lon="12.267705571522015"><ele>557.0</ele><time>2026-05-01T10:56:01Z</time></trkpt><trkpt lat="43.630887160617085" lon="12.267890480662702"><ele>557.0</ele><time>2026-05-01T10:56:02Z</time></trkpt><trkpt lat="43.63095150059869" lon="12.268106081198464"><ele>557.0</ele><time>2026-05-01T10:56:03Z</time></trkpt><trkpt lat="43.630990766867576" lon="12.268345119763536"><ele>557.0</ele><time>2026-05-01T10:56:04Z</time></trkpt><trkpt lat="43.63101148771875" lon="12.268588194613658"><ele>554.6666666666666</ele><time>2026-05-01T10:56:05Z</time></trkpt><trkpt lat="43.63099994044573" lon="12.2688320327047"><ele>552.3333333333334</ele><time>2026-05-01T10:56:06Z</time></trkpt><trkpt lat="43.63093075101343" lon="12.269076776233508"><ele>550.0</ele><time>2026-05-01T10:56:07Z</time></trkpt><trkpt lat="43.63092332551152" lon="12.269294066092579"><ele>550.0</ele><time>2026-05-01T10:56:08Z</time></trkpt><trkpt lat="43.63096349046222" lon="12.26951932962134"><ele>550.0</ele><time>2026-05-01T10:56:09Z</time></trkpt><trkpt lat="43.631029168615804" lon="12.269740929675708"><ele>550.0</ele><time>2026-05-01T10:56:10Z</time></trkpt><trkpt lat="43.631103677218036" lon="12.269953331767367"><ele>555.0</ele><time>2026-05-01T10:56:11Z</time></trkpt><trkpt lat="43.6312056313152" lon="12.270142086788285"><ele>560.0</ele><time>2026-05-01T10:56:12Z</time></trkpt><trkpt lat="43.63133638195132" lon="12.270307535767413"><ele>565.0</ele><time>2026-05-01T10:56:13Z</time></trkpt><trkpt lat="43.631482129447214" lon="12.270466466507933"><ele>559.0</ele><time>2026-05-01T10:56:14Z</time></trkpt><trkpt lat="43.631629577792005" lon="12.270635846626995"><ele>553.0</ele><time>2026-05-01T10:56:15Z</time></trkpt><trkpt lat="43.631779843831815" lon="12.270812651444718"><ele>547.0</ele><time>2026-05-01T10:56:16Z</time></trkpt><trkpt lat="43.63193093231705" lon="12.270995973564325"><ele>545.3333333333334</ele><time>2026-05-01T10:56:17Z</time></trkpt><trkpt lat="43.63208756187127" lon="12.271184408669132"><ele>543.6666666666666</ele><time>2026-05-01T10:56:18Z</time></trkpt><trkpt lat="43.63224551792548" lon="12.27137250287341"><ele>542.0</ele><time>2026-05-01T10:56:19Z</time></trkpt><trkpt lat="43.63240699126359" lon="12.271562406223737"><ele>542.0</ele><time>2026-05-01T10:56:20Z</time></trkpt><trkpt lat="43.63256434255053" lon="12.27176645561978"><ele>542.0</ele><time>2026-05-01T10:56:21Z</time></trkpt><trkpt lat="43.63271524242875" lon="12.271985463674266"><ele>542.0</ele><time>2026-05-01T10:56:22Z</time></trkpt><trkpt lat="43.63285139037215" lon="12.272218849934978"><ele>542.3333333333333</ele><time>2026-05-01T10:56:23Z</time></trkpt><trkpt lat="43.63298732420172" lon="12.272454225712499"><ele>542.6666666666666</ele><time>2026-05-01T10:56:24Z</time></trkpt><trkpt lat="43.63312463842599" lon="12.272686261225378"><ele>543.0</ele><time>2026-05-01T10:56:25Z</time></trkpt><trkpt lat="43.633266299258466" lon="12.272918040524935"><ele>540.3333333333334</ele><time>2026-05-01T10:56:26Z</time></trkpt><trkpt lat="43.633409090797464" lon="12.273153570056413"><ele>537.6666666666667</ele><time>2026-05-01T10:56:27Z</time></trkpt><trkpt lat="43.633550680752556" lon="12.273391391236053"><ele>535.0</ele><time>2026-05-01T10:56:28Z</time></trkpt><trkpt lat="43.63369432816342" lon="12.273625736636246"><ele>536.6666666666667</ele><time>2026-05-01T10:56:29Z</time></trkpt><trkpt lat="43.63383562745802" lon="12.273858500249586"><ele>538.3333333333334</ele><time>2026-05-01T10:56:30Z</time></trkpt><trkpt lat="43.63396545597738" lon="12.27407987495523"><ele>540.0</ele><time>2026-05-01T10:56:31Z</time></trkpt><trkpt lat="43.63408793328519" lon="12.274286161109968"><ele>540.0</ele><time>2026-05-01T10:56:32Z</time></trkpt><trkpt lat="43.63421133186514" lon="12.274469343956078"><ele>540.0</ele><time>2026-05-01T10:56:33Z</time></trkpt><trkpt lat="43.63434943084579" lon="12.274614108327047"><ele>540.0</ele><time>2026-05-01T10:56:34Z</time></trkpt><trkpt lat="43.634498056979446" lon="12.274736893720037"><ele>538.3333333333334</ele><time>2026-05-01T10:56:35Z</time></trkpt><trkpt lat="43.63465270698205" lon="12.27486218325145"><ele>536.6666666666667</ele><time>2026-05-01T10:56:36Z</time></trkpt><trkpt lat="43.63481082407171" lon="12.274995726548921"><ele>535.0</ele><time>2026-05-01T10:56:37Z</time></trkpt><trkpt lat="43.63497134458364" lon="12.275136877511803"><ele>535.0</ele><time>2026-05-01T10:56:38Z</time></trkpt><trkpt lat="43.635133536954484" lon="12.27528347965788"><ele>535.0</ele><time>2026-05-01T10:56:39Z</time></trkpt><trkpt lat="43.63529619672123" lon="12.275429315581032"><ele>535.0</ele><time>2026-05-01T10:56:40Z</time></trkpt><trkpt lat="43.635459632254594" lon="12.275563012158575"><ele>534.0</ele><time>2026-05-01T10:56:41Z</time></trkpt><trkpt lat="43.63560974505002" lon="12.27568684269484"><ele>533.0</ele><time>2026-05-01T10:56:42Z</time></trkpt><trkpt lat="43.63575727661714" lon="12.275814309162849"><ele>532.0</ele><time>2026-05-01T10:56:43Z</time></trkpt><trkpt lat="43.635899519850334" lon="12.275950380246655"><ele>532.0</ele><time>2026-05-01T10:56:44Z</time></trkpt><trkpt lat="43.63602481346367" lon="12.276120700158001"><ele>532.0</ele><time>2026-05-01T10:56:45Z</time></trkpt><trkpt lat="43.63611529867577" lon="12.27633565851887"><ele>532.0</ele><time>2026-05-01T10:56:46Z</time></trkpt><trkpt lat="43.63617749300791" lon="12.276573055089983"><ele>537.3333333333334</ele><time>2026-05-01T10:56:47Z</time></trkpt><trkpt lat="43.63620847214396" lon="12.276818999750477"><ele>542.6666666666666</ele><time>2026-05-01T10:56:48Z</time></trkpt><trkpt lat="43.63621870990476" lon="12.277043939628166"><ele>548.0</ele><time>2026-05-01T10:56:49Z</time></trkpt><trkpt lat="43.63623296486014" lon="12.277250109787461"><ele>544.0</ele><time>2026-05-01T10:56:50Z</time></trkpt><trkpt lat="43.63626383850176" lon="12.277440973462623"><ele>540.0</ele><time>2026-05-01T10:56:51Z</time></trkpt><trkpt lat="43.63631474172597" lon="12.277618038654602"><ele>536.0</ele><time>2026-05-01T10:56:52Z</time></trkpt><trkpt lat="43.63640175376613" lon="12.277775412209554"><ele>532.0</ele><time>2026-05-01T10:56:53Z</time></trkpt><trkpt lat="43.636530131217775" lon="12.277892495965709"><ele>532.0</ele><time>2026-05-01T10:56:54Z</time></trkpt><trkpt lat="43.636681283619325" lon="12.277969045643426"><ele>532.0</ele><time>2026-05-01T10:56:55Z</time></trkpt><trkpt lat="43.63683711538978" lon="12.278039042039591"><ele>532.0</ele><time>2026-05-01T10:56:56Z</time></trkpt><trkpt lat="43.63699423556372" lon="12.278118749952933"><ele>529.3333333333334</ele><time>2026-05-01T10:56:57Z</time></trkpt><trkpt lat="43.637155761703035" lon="12.278210136208806"><ele>526.6666666666666</ele><time>2026-05-01T10:56:58Z</time></trkpt><trkpt lat="43.63732101023789" lon="12.278307913020225"><ele>524.0</ele><time>2026-05-01T10:56:59Z</time></trkpt><trkpt lat="43.63749179452994" lon="12.27840060787958"><ele>524.0</ele><time>2026-05-01T10:57:00Z</time></trkpt><trkpt lat="43.63766056067738" lon="12.278493664458903"><ele>524.0</ele><time>2026-05-01T10:57:01Z</time></trkpt><trkpt lat="43.63782063293418" lon="12.278589248395187"><ele>524.0</ele><time>2026-05-01T10:57:02Z</time></trkpt><trkpt lat="43.637978831592065" lon="12.278675570575318"><ele>524.6666666666666</ele><time>2026-05-01T10:57:03Z</time></trkpt><trkpt lat="43.638147099204105" lon="12.278762486951726"><ele>525.3333333333334</ele><time>2026-05-01T10:57:04Z</time></trkpt><trkpt lat="43.638339538830685" lon="12.278877883264778"><ele>526.0</ele><time>2026-05-01T10:57:05Z</time></trkpt><trkpt lat="43.63856774236197" lon="12.279006714248357"><ele>523.0</ele><time>2026-05-01T10:57:06Z</time></trkpt><trkpt lat="43.63883125217494" lon="12.279152307467612"><ele>520.0</ele><time>2026-05-01T10:57:07Z</time></trkpt><trkpt lat="43.63912902101783" lon="12.279315923581077"><ele>520.0</ele><time>2026-05-01T10:57:08Z</time></trkpt><trkpt lat="43.63944467972209" lon="12.279493020530333"><ele>520.0</ele><time>2026-05-01T10:57:09Z</time></trkpt><trkpt lat="43.63978177910684" lon="12.279679899030455"><ele>518.0</ele><time>2026-05-01T10:57:10Z</time></trkpt><trkpt lat="43.64012970556588" lon="12.279869162417036"><ele>516.0</ele><time>2026-05-01T10:57:11Z</time></trkpt><trkpt lat="43.640473668033074" lon="12.280057520966029"><ele>521.0</ele><time>2026-05-01T10:57:12.001Z</time></trkpt><trkpt lat="43.64078572736554" lon="12.28023026254323"><ele>526.0</ele><time>2026-05-01T10:57:13.001Z</time></trkpt><trkpt lat="43.64105432374451" lon="12.28038208361047"><ele>528.5</ele><time>2026-05-01T10:57:14.001Z</time></trkpt><trkpt lat="43.64129211004442" lon="12.280518745952415"><ele>531.0</ele><time>2026-05-01T10:57:15.001Z</time></trkpt><trkpt lat="43.64151995632151" lon="12.280643373587417"><ele>530.3333333333334</ele><time>2026-05-01T10:57:16.001Z</time></trkpt><trkpt lat="43.64173464612934" lon="12.280761906000647"><ele>529.6666666666667</ele><time>2026-05-01T10:57:17.001Z</time></trkpt><trkpt lat="43.64193588527815" lon="12.280871505256101"><ele>529.0</ele><time>2026-05-01T10:57:18.001Z</time></trkpt><trkpt lat="43.642131079181134" lon="12.280978359833016"><ele>529.0</ele><time>2026-05-01T10:57:19.001Z</time></trkpt><trkpt lat="43.64230778569884" lon="12.281081386912843"><ele>529.0</ele><time>2026-05-01T10:57:20.001Z</time></trkpt><trkpt lat="43.64247288871544" lon="12.281177829172057"><ele>529.0</ele><time>2026-05-01T10:57:21.001Z</time></trkpt><trkpt lat="43.64261873926116" lon="12.281295625180823"><ele>528.3333333333334</ele><time>2026-05-01T10:57:22.001Z</time></trkpt><trkpt lat="43.64274340703953" lon="12.28146876272959"><ele>527.6666666666666</ele><time>2026-05-01T10:57:23.001Z</time></trkpt><trkpt lat="43.642853191264734" lon="12.28168363238233"><ele>527.0</ele><time>2026-05-01T10:57:24.001Z</time></trkpt><trkpt lat="43.64296063087376" lon="12.281901898622868"><ele>527.0</ele><time>2026-05-01T10:57:25.001Z</time></trkpt><trkpt lat="43.64308373734136" lon="12.282107522412714"><ele>527.0</ele><time>2026-05-01T10:57:26.001Z</time></trkpt><trkpt lat="43.64322778106394" lon="12.282278014749986"><ele>527.0</ele><time>2026-05-01T10:57:27.001Z</time></trkpt><trkpt lat="43.64340325887907" lon="12.282409895395723"><ele>524.0</ele><time>2026-05-01T10:57:28.001Z</time></trkpt><trkpt lat="43.64359464216456" lon="12.282511840874957"><ele>521.0</ele><time>2026-05-01T10:57:29.001Z</time></trkpt><trkpt lat="43.6437949827195" lon="12.282615271971641"><ele>518.0</ele><time>2026-05-01T10:57:30.001Z</time></trkpt><trkpt lat="43.64399442678223" lon="12.282731605274213"><ele>518.0</ele><time>2026-05-01T10:57:31.001Z</time></trkpt><trkpt lat="43.6441919166116" lon="12.28285612153346"><ele>518.0</ele><time>2026-05-01T10:57:32.001Z</time></trkpt><trkpt lat="43.64439106766953" lon="12.2829819742727"><ele>518.0</ele><time>2026-05-01T10:57:33.001Z</time></trkpt><trkpt lat="43.64459470260919" lon="12.283109234234923"><ele>513.0</ele><time>2026-05-01T10:57:34.001Z</time></trkpt><trkpt lat="43.644803562829985" lon="12.283238442586107"><ele>508.0</ele><time>2026-05-01T10:57:35.001Z</time></trkpt><trkpt lat="43.64501618388691" lon="12.28336794579079"><ele>508.0</ele><time>2026-05-01T10:57:36.001Z</time></trkpt><trkpt lat="43.64523309654249" lon="12.283501088898078"><ele>508.0</ele><time>2026-05-01T10:57:37.001Z</time></trkpt><trkpt lat="43.64545113787765" lon="12.283633491205075"><ele>513.0</ele><time>2026-05-01T10:57:38.001Z</time></trkpt><trkpt lat="43.64567314464853" lon="12.283770291298126"><ele>518.0</ele><time>2026-05-01T10:57:39.001Z</time></trkpt><trkpt lat="43.64589679715752" lon="12.283907974888645"><ele>516.0</ele><time>2026-05-01T10:57:40.001Z</time></trkpt><trkpt lat="43.64612011644963" lon="12.284040102406204"><ele>514.0</ele><time>2026-05-01T10:57:41.001Z</time></trkpt><trkpt lat="43.64634545983498" lon="12.284172683470539"><ele>514.0</ele><time>2026-05-01T10:57:42.001Z</time></trkpt><trkpt lat="43.646569969817044" lon="12.284311806131534"><ele>514.0</ele><time>2026-05-01T10:57:43.001Z</time></trkpt><trkpt lat="43.64679446071297" lon="12.284453269785198"><ele>516.5</ele><time>2026-05-01T10:57:44.001Z</time></trkpt><trkpt lat="43.64701905201465" lon="12.284588942997022"><ele>519.0</ele><time>2026-05-01T10:57:45.001Z</time></trkpt><trkpt lat="43.64723906981274" lon="12.2847238107227"><ele>514.3333333333334</ele><time>2026-05-01T10:57:46.001Z</time></trkpt><trkpt lat="43.6474487336047" lon="12.284852273652096"><ele>509.6666666666667</ele><time>2026-05-01T10:57:47.001Z</time></trkpt><trkpt lat="43.647648735713226" lon="12.284975212954162"><ele>505.0</ele><time>2026-05-01T10:57:48.001Z</time></trkpt><trkpt lat="43.647859868573576" lon="12.285100818676765"><ele>505.0</ele><time>2026-05-01T10:57:49.001Z</time></trkpt><trkpt lat="43.6480815096818" lon="12.285233330348392"><ele>505.0</ele><time>2026-05-01T10:57:50Z</time></trkpt><trkpt lat="43.648302736519064" lon="12.285356505126396"><ele>505.0</ele><time>2026-05-01T10:57:51Z</time></trkpt><trkpt lat="43.64852692062803" lon="12.28548127819049"><ele>505.0</ele><time>2026-05-01T10:57:52Z</time></trkpt><trkpt lat="43.648740689083915" lon="12.285602087804488"><ele>501.6666666666667</ele><time>2026-05-01T10:57:53Z</time></trkpt><trkpt lat="43.648945193766636" lon="12.285723306374857"><ele>498.33333333333337</ele><time>2026-05-01T10:57:54Z</time></trkpt><trkpt lat="43.64913509690987" lon="12.28584407077034"><ele>495.0</ele><time>2026-05-01T10:57:55Z</time></trkpt><trkpt lat="43.64931077869171" lon="12.28596968716795"><ele>499.0</ele><time>2026-05-01T10:57:56Z</time></trkpt><trkpt lat="43.64947818469254" lon="12.286088177090688"><ele>503.0</ele><time>2026-05-01T10:57:57Z</time></trkpt><trkpt lat="43.64962889936488" lon="12.286221862775436"><ele>507.0</ele><time>2026-05-01T10:57:58Z</time></trkpt><trkpt lat="43.6497555863476" lon="12.286400712716434"><ele>503.33333333333337</ele><time>2026-05-01T10:57:59Z</time></trkpt><trkpt lat="43.64985316690048" lon="12.286625310861611"><ele>499.6666666666667</ele><time>2026-05-01T10:58:00Z</time></trkpt><trkpt lat="43.64994749971924" lon="12.286856467666"><ele>496.0</ele><time>2026-05-01T10:58:01Z</time></trkpt><trkpt lat="43.6500527880752" lon="12.287074644321265"><ele>492.6666666666667</ele><time>2026-05-01T10:58:02Z</time></trkpt><trkpt lat="43.650148694469" lon="12.287302694072878"><ele>489.33333333333337</ele><time>2026-05-01T10:58:03Z</time></trkpt><trkpt lat="43.65021208358393" lon="12.287552871473157"><ele>486.0</ele><time>2026-05-01T10:58:04Z</time></trkpt><trkpt lat="43.65023721342949" lon="12.287803664985555"><ele>486.0</ele><time>2026-05-01T10:58:05Z</time></trkpt><trkpt lat="43.650234118559396" lon="12.288042922349163"><ele>486.0</ele><time>2026-05-01T10:58:06Z</time></trkpt><trkpt lat="43.65023550690641" lon="12.288269031780802"><ele>486.0</ele><time>2026-05-01T10:58:07Z</time></trkpt><trkpt lat="43.65026727233898" lon="12.288466467277678"><ele>485.5</ele><time>2026-05-01T10:58:08Z</time></trkpt><trkpt lat="43.65034124885625" lon="12.288628128996814"><ele>485.0</ele><time>2026-05-01T10:58:09Z</time></trkpt><trkpt lat="43.650467472166234" lon="12.288728119718703"><ele>484.5</ele><time>2026-05-01T10:58:10Z</time></trkpt><trkpt lat="43.65062095610389" lon="12.28877059756559"><ele>484.0</ele><time>2026-05-01T10:58:11Z</time></trkpt><trkpt lat="43.65078378790039" lon="12.288798329109847"><ele>484.0</ele><time>2026-05-01T10:58:12Z</time></trkpt><trkpt lat="43.65094046803807" lon="12.288848868291048"><ele>484.0</ele><time>2026-05-01T10:58:13Z</time></trkpt><trkpt lat="43.65109503194135" lon="12.288932524121874"><ele>484.0</ele><time>2026-05-01T10:58:14Z</time></trkpt><trkpt lat="43.65124254497594" lon="12.289061035185997"><ele>484.6666666666667</ele><time>2026-05-01T10:58:15Z</time></trkpt><trkpt lat="43.65138362099252" lon="12.289218364332065"><ele>485.33333333333337</ele><time>2026-05-01T10:58:16Z</time></trkpt><trkpt lat="43.651532434576104" lon="12.289373841122323"><ele>486.0</ele><time>2026-05-01T10:58:17Z</time></trkpt><trkpt lat="43.6516878348283" lon="12.289522198041436"><ele>486.0</ele><time>2026-05-01T10:58:18Z</time></trkpt><trkpt lat="43.6518443055294" lon="12.289673150309113"><ele>486.0</ele><time>2026-05-01T10:58:19Z</time></trkpt><trkpt lat="43.65200273887156" lon="12.289828326947786"><ele>486.0</ele><time>2026-05-01T10:58:20Z</time></trkpt><trkpt lat="43.652160767301" lon="12.289987470334458"><ele>485.0</ele><time>2026-05-01T10:58:21Z</time></trkpt><trkpt lat="43.65232206756349" lon="12.290150188087846"><ele>484.0</ele><time>2026-05-01T10:58:22Z</time></trkpt><trkpt lat="43.65248657599137" lon="12.290313464287836"><ele>483.0</ele><time>2026-05-01T10:58:23Z</time></trkpt><trkpt lat="43.65264887402868" lon="12.290477681074735"><ele>481.33333333333337</ele><time>2026-05-01T10:58:24Z</time></trkpt><trkpt lat="43.65281657832265" lon="12.29064682008858"><ele>479.6666666666667</ele><time>2026-05-01T10:58:25Z</time></trkpt><trkpt lat="43.65298457738762" lon="12.290807733234015"><ele>478.0</ele><time>2026-05-01T10:58:26Z</time></trkpt><trkpt lat="43.653150845838624" lon="12.290967513101307"><ele>478.0</ele><time>2026-05-01T10:58:27Z</time></trkpt><trkpt lat="43.65331687391586" lon="12.291125865321147"><ele>478.0</ele><time>2026-05-01T10:58:28Z</time></trkpt><trkpt lat="43.65347562983987" lon="12.291271570382333"><ele>478.0</ele><time>2026-05-01T10:58:29Z</time></trkpt><trkpt lat="43.65362520901509" lon="12.291406068281184"><ele>478.33333333333337</ele><time>2026-05-01T10:58:30Z</time></trkpt><trkpt lat="43.65376693989562" lon="12.291526612616828"><ele>478.66666666666663</ele><time>2026-05-01T10:58:31Z</time></trkpt><trkpt lat="43.65390091131861" lon="12.29163680470095"><ele>479.0</ele><time>2026-05-01T10:58:32Z</time></trkpt><trkpt lat="43.654025002389616" lon="12.291742899279152"><ele>479.0</ele><time>2026-05-01T10:58:33Z</time></trkpt><trkpt lat="43.65413928631749" lon="12.291840044070915"><ele>479.0</ele><time>2026-05-01T10:58:34Z</time></trkpt><trkpt lat="43.654241732254775" lon="12.291924144545124"><ele>479.0</ele><time>2026-05-01T10:58:35Z</time></trkpt><trkpt lat="43.65433163006799" lon="12.29198915811429"><ele>479.0</ele><time>2026-05-01T10:58:36Z</time></trkpt><trkpt lat="43.65440242729747" lon="12.292024992847171"><ele>479.0</ele><time>2026-05-01T10:58:37Z</time></trkpt><trkpt lat="43.65450219096635" lon="12.292005074712394"><ele>478.3333333333333</ele><time>2026-05-01T10:58:39Z</time></trkpt><trkpt lat="43.65453597728265" lon="12.29192088621042"><ele>477.66666666666663</ele><time>2026-05-01T10:58:41Z</time></trkpt><trkpt lat="43.65456758264033" lon="12.291834941348299"><ele>477.0</ele><time>2026-05-01T10:58:43Z</time></trkpt><trkpt lat="43.65460911013944" lon="12.291743869232231"><ele>476.33333333333337</ele><time>2026-05-01T10:58:45Z</time></trkpt><trkpt lat="43.654675282273345" lon="12.291621358776256"><ele>475.6666666666667</ele><time>2026-05-01T10:58:47Z</time></trkpt><trkpt lat="43.65471321315598" lon="12.291549344302169"><ele>475.0</ele><time>2026-05-01T10:58:48Z</time></trkpt><trkpt lat="43.65475024130691" lon="12.291477709447964"><ele>475.50000000000006</ele><time>2026-05-01T10:58:49Z</time></trkpt><trkpt lat="43.6547960103738" lon="12.291403675138442"><ele>476.0</ele><time>2026-05-01T10:58:50Z</time></trkpt><trkpt lat="43.6548309989441" lon="12.291330356018644"><ele>476.5</ele><time>2026-05-01T10:58:51Z</time></trkpt><trkpt lat="43.65492463541392" lon="12.291219310532094"><ele>477.0</ele><time>2026-05-01T10:58:53Z</time></trkpt><trkpt lat="43.654978031188065" lon="12.291163192909947"><ele>477.50000000000006</ele><time>2026-05-01T10:58:54Z</time></trkpt><trkpt lat="43.655031480210376" lon="12.291107871800241"><ele>478.0</ele><time>2026-05-01T10:58:55Z</time></trkpt><trkpt lat="43.65510230683894" lon="12.291094461679338"><ele>478.00000000000006</ele><time>2026-05-01T10:58:56Z</time></trkpt><trkpt lat="43.65517661512507" lon="12.291085918977556"><ele>478.0</ele><time>2026-05-01T10:58:57Z</time></trkpt><trkpt lat="43.65525050646873" lon="12.291067719616267"><ele>478.0</ele><time>2026-05-01T10:58:58Z</time></trkpt><trkpt lat="43.65532863553459" lon="12.291116239982161"><ele>478.0</ele><time>2026-05-01T10:58:59Z</time></trkpt><trkpt lat="43.655411319566305" lon="12.291122621892708"><ele>478.00000000000006</ele><time>2026-05-01T10:59:00Z</time></trkpt><trkpt lat="43.655488087003164" lon="12.291143182216887"><ele>478.0</ele><time>2026-05-01T10:59:01Z</time></trkpt><trkpt lat="43.655558867139995" lon="12.291194131277098"><ele>477.83333333333337</ele><time>2026-05-01T10:59:02Z</time></trkpt><trkpt lat="43.65564446255417" lon="12.291195067846772"><ele>477.6666666666667</ele><time>2026-05-01T10:59:03Z</time></trkpt><trkpt lat="43.655729048266856" lon="12.291231947076023"><ele>477.5</ele><time>2026-05-01T10:59:04Z</time></trkpt><trkpt lat="43.65581725365647" lon="12.291269201723852"><ele>477.33333333333337</ele><time>2026-05-01T10:59:05Z</time></trkpt><trkpt lat="43.65590109953051" lon="12.291293907074584"><ele>477.1666666666667</ele><time>2026-05-01T10:59:06Z</time></trkpt><trkpt lat="43.65596313691486" lon="12.29137817300127"><ele>477.0</ele><time>2026-05-01T10:59:07Z</time></trkpt><trkpt lat="43.65602469631255" lon="12.291462686304783"><ele>477.0</ele><time>2026-05-01T10:59:08Z</time></trkpt><trkpt lat="43.65607769153937" lon="12.291561967154832"><ele>477.00000000000006</ele><time>2026-05-01T10:59:09Z</time></trkpt><trkpt lat="43.656126351476736" lon="12.29166884016015"><ele>477.00000000000006</ele><time>2026-05-01T10:59:10Z</time></trkpt><trkpt lat="43.6561761129643" lon="12.291787414389745"><ele>477.0</ele><time>2026-05-01T10:59:11Z</time></trkpt><trkpt lat="43.656227262352495" lon="12.29190695573456"><ele>477.0</ele><time>2026-05-01T10:59:12Z</time></trkpt><trkpt lat="43.65628566242716" lon="12.29202376408388"><ele>476.8</ele><time>2026-05-01T10:59:13Z</time></trkpt><trkpt lat="43.656344184173015" lon="12.29213888701875"><ele>476.6</ele><time>2026-05-01T10:59:14Z</time></trkpt><trkpt lat="43.65640339318154" lon="12.292243437116964"><ele>476.40000000000003</ele><time>2026-05-01T10:59:15Z</time></trkpt><trkpt lat="43.65646401020136" lon="12.292340388860415"><ele>476.20000000000005</ele><time>2026-05-01T10:59:16Z</time></trkpt><trkpt lat="43.65652472892918" lon="12.292427662883453"><ele>476.0</ele><time>2026-05-01T10:59:17Z</time></trkpt><trkpt lat="43.65657941877988" lon="12.292512142063963"><ele>475.99999999999994</ele><time>2026-05-01T10:59:18Z</time></trkpt><trkpt lat="43.65663195599464" lon="12.29259525887569"><ele>476.0</ele><time>2026-05-01T10:59:19Z</time></trkpt><trkpt lat="43.656686520738184" lon="12.29266217239814"><ele>476.0</ele><time>2026-05-01T10:59:20Z</time></trkpt><trkpt lat="43.65673498322826" lon="12.292728579432316"><ele>476.0</ele><time>2026-05-01T10:59:21Z</time></trkpt><trkpt lat="43.656837118092454" lon="12.292819833556823"><ele>475.99999999999994</ele><time>2026-05-01T10:59:23Z</time></trkpt><trkpt lat="43.656901021010825" lon="12.292859106111392"><ele>476.0</ele><time>2026-05-01T10:59:24.001Z</time></trkpt><trkpt lat="43.65696416018818" lon="12.29291167766569"><ele>476.2857142857143</ele><time>2026-05-01T10:59:25.001Z</time></trkpt><trkpt lat="43.65701976099966" lon="12.292972834107546"><ele>476.57142857142856</ele><time>2026-05-01T10:59:26.001Z</time></trkpt><trkpt lat="43.65707346032614" lon="12.29301947757328"><ele>476.8571428571429</ele><time>2026-05-01T10:59:27.001Z</time></trkpt><trkpt lat="43.65715904514118" lon="12.293070658513102"><ele>477.14285714285717</ele><time>2026-05-01T10:59:29.001Z</time></trkpt><trkpt lat="43.65722638147342" lon="12.293088085389805"><ele>477.42857142857144</ele><time>2026-05-01T10:59:31.001Z</time></trkpt><trkpt lat="43.65716706490168" lon="12.293029372960293"><ele>477.7142857142858</ele><time>2026-05-01T10:59:35.001Z</time></trkpt><trkpt lat="43.657103854909245" lon="12.29299098120596"><ele>478.00000000000006</ele><time>2026-05-01T10:59:37.001Z</time></trkpt><trkpt lat="43.65701243778736" lon="12.292912310798663"><ele>477.6666666666667</ele><time>2026-05-01T10:59:39.001Z</time></trkpt><trkpt lat="43.65689854047324" lon="12.292850006148269"><ele>477.33333333333337</ele><time>2026-05-01T10:59:41.001Z</time></trkpt><trkpt lat="43.656836311376445" lon="12.292799458763112"><ele>477.0</ele><time>2026-05-01T10:59:42.001Z</time></trkpt><trkpt lat="43.656769479184014" lon="12.292733571726902"><ele>476.66666666666663</ele><time>2026-05-01T10:59:43.001Z</time></trkpt><trkpt lat="43.65670249187932" lon="12.292659937999364"><ele>476.3333333333333</ele><time>2026-05-01T10:59:44.001Z</time></trkpt><trkpt lat="43.65664174376045" lon="12.292576593865432"><ele>476.0</ele><time>2026-05-01T10:59:45.001Z</time></trkpt><trkpt lat="43.65657993318818" lon="12.292490629132093"><ele>476.0</ele><time>2026-05-01T10:59:46.001Z</time></trkpt><trkpt lat="43.656518329875595" lon="12.29240224573533"><ele>476.0</ele><time>2026-05-01T10:59:47.001Z</time></trkpt><trkpt lat="43.65645873116886" lon="12.29230701845526"><ele>476.0</ele><time>2026-05-01T10:59:48.001Z</time></trkpt><trkpt lat="43.656397138690906" lon="12.292210326454319"><ele>476.0</ele><time>2026-05-01T10:59:49.001Z</time></trkpt><trkpt lat="43.656340498238556" lon="12.292109765097498"><ele>476.0</ele><time>2026-05-01T10:59:50.001Z</time></trkpt><trkpt lat="43.65628510680366" lon="12.291995674259228"><ele>476.20000000000005</ele><time>2026-05-01T10:59:51.001Z</time></trkpt><trkpt lat="43.656232210536984" lon="12.291872625101648"><ele>476.40000000000003</ele><time>2026-05-01T10:59:52.001Z</time></trkpt><trkpt lat="43.65618335522319" lon="12.291742133891878"><ele>476.6</ele><time>2026-05-01T10:59:53.001Z</time></trkpt><trkpt lat="43.65613655621149" lon="12.291614123107136"><ele>476.8</ele><time>2026-05-01T10:59:54.001Z</time></trkpt><trkpt lat="43.656083917153" lon="12.291497720582763"><ele>477.0</ele><time>2026-05-01T10:59:55.001Z</time></trkpt><trkpt lat="43.65602396322492" lon="12.291399900274483"><ele>478.5</ele><time>2026-05-01T10:59:56Z</time></trkpt><trkpt lat="43.65595882271038" lon="12.291320646803232"><ele>480.0</ele><time>2026-05-01T10:59:57Z</time></trkpt><trkpt lat="43.65588713981456" lon="12.291265977325333"><ele>481.5</ele><time>2026-05-01T10:59:58Z</time></trkpt><trkpt lat="43.655812675178154" lon="12.291227257905126"><ele>483.0</ele><time>2026-05-01T10:59:59Z</time></trkpt><trkpt lat="43.65573082102385" lon="12.291208190241493"><ele>484.5</ele><time>2026-05-01T11:00:00Z</time></trkpt><trkpt lat="43.65564995440314" lon="12.29118960868272"><ele>486.0</ele><time>2026-05-01T11:00:01Z</time></trkpt><trkpt lat="43.6555762320937" lon="12.291162449907016"><ele>486.0</ele><time>2026-05-01T11:00:02Z</time></trkpt><trkpt lat="43.65550203914705" lon="12.291126698480452"><ele>486.0</ele><time>2026-05-01T11:00:03Z</time></trkpt><trkpt lat="43.65543927815754" lon="12.291090596190186"><ele>486.0</ele><time>2026-05-01T11:00:04Z</time></trkpt><trkpt lat="43.65533529247651" lon="12.291068844875152"><ele>486.0</ele><time>2026-05-01T11:00:06Z</time></trkpt><trkpt lat="43.655315053875945" lon="12.291158788499828"><ele>486.0</ele><time>2026-05-01T11:00:09Z</time></trkpt><trkpt lat="43.655380765412524" lon="12.29118223649411"><ele>486.0</ele><time>2026-05-01T11:00:11Z</time></trkpt><trkpt lat="43.655480926899585" lon="12.291149588582005"><ele>486.0</ele><time>2026-05-01T11:00:13Z</time></trkpt><trkpt lat="43.655551429848586" lon="12.291166389952807"><ele>486.0</ele><time>2026-05-01T11:00:14Z</time></trkpt><trkpt lat="43.655631647749914" lon="12.29118688434512"><ele>486.0</ele><time>2026-05-01T11:00:15Z</time></trkpt><trkpt lat="43.655716733303095" lon="12.291204964641516"><ele>486.0</ele><time>2026-05-01T11:00:16Z</time></trkpt><trkpt lat="43.65580811382426" lon="12.291238055761513"><ele>486.0</ele><time>2026-05-01T11:00:17Z</time></trkpt><trkpt lat="43.65589868127759" lon="12.291292087176455"><ele>486.0</ele><time>2026-05-01T11:00:18Z</time></trkpt><trkpt lat="43.65598016640063" lon="12.29136954567008"><ele>486.25</ele><time>2026-05-01T11:00:19Z</time></trkpt><trkpt lat="43.65605068094165" lon="12.291488647211212"><ele>486.5</ele><time>2026-05-01T11:00:20Z</time></trkpt><trkpt lat="43.656113880012605" lon="12.291617688947987"><ele>486.75</ele><time>2026-05-01T11:00:21Z</time></trkpt><trkpt lat="43.656178744788114" lon="12.291764971129394"><ele>487.0</ele><time>2026-05-01T11:00:22Z</time></trkpt><trkpt lat="43.65624494344198" lon="12.291911733653809"><ele>487.0</ele><time>2026-05-01T11:00:23Z</time></trkpt><trkpt lat="43.656309950441596" lon="12.292061819280546"><ele>487.0</ele><time>2026-05-01T11:00:24Z</time></trkpt><trkpt lat="43.65638138311869" lon="12.29220379250974"><ele>487.0</ele><time>2026-05-01T11:00:25Z</time></trkpt><trkpt lat="43.65645946206421" lon="12.292335723795455"><ele>487.0</ele><time>2026-05-01T11:00:26Z</time></trkpt><trkpt lat="43.65653855141195" lon="12.292463492167231"><ele>484.25</ele><time>2026-05-01T11:00:27Z</time></trkpt><trkpt lat="43.65662559507335" lon="12.292582136569974"><ele>481.5</ele><time>2026-05-01T11:00:28Z</time></trkpt><trkpt lat="43.65671118048332" lon="12.292695984847013"><ele>478.75</ele><time>2026-05-01T11:00:29Z</time></trkpt><trkpt lat="43.6568114034742" lon="12.292793018590709"><ele>476.0</ele><time>2026-05-01T11:00:30Z</time></trkpt><trkpt lat="43.65691448736944" lon="12.292879195028064"><ele>475.75</ele><time>2026-05-01T11:00:31Z</time></trkpt><trkpt lat="43.657021349699" lon="12.292960363369172"><ele>475.5</ele><time>2026-05-01T11:00:32Z</time></trkpt><trkpt lat="43.657132240049435" lon="12.293031938030953"><ele>475.25</ele><time>2026-05-01T11:00:33Z</time></trkpt><trkpt lat="43.65724470131624" lon="12.29309511528654"><ele>475.0</ele><time>2026-05-01T11:00:34Z</time></trkpt><trkpt lat="43.65736087821035" lon="12.293140613864114"><ele>475.0</ele><time>2026-05-01T11:00:35Z</time></trkpt><trkpt lat="43.65747689278912" lon="12.293179026540964"><ele>475.0</ele><time>2026-05-01T11:00:36Z</time></trkpt><trkpt lat="43.6575940880493" lon="12.293209649584307"><ele>475.0</ele><time>2026-05-01T11:00:37Z</time></trkpt><trkpt lat="43.6577127479524" lon="12.293229804326245"><ele>475.0</ele><time>2026-05-01T11:00:38Z</time></trkpt><trkpt lat="43.65782967060867" lon="12.293246896979172"><ele>474.2</ele><time>2026-05-01T11:00:39Z</time></trkpt><trkpt lat="43.65792631335976" lon="12.29326848607286"><ele>473.4</ele><time>2026-05-01T11:00:40Z</time></trkpt><trkpt lat="43.65799432004919" lon="12.293289919598868"><ele>472.6</ele><time>2026-05-01T11:00:41Z</time></trkpt><trkpt lat="43.658072965481445" lon="12.293305292039943"><ele>471.8</ele><time>2026-05-01T11:00:43Z</time></trkpt><trkpt lat="43.658125036440694" lon="12.293192022703826"><ele>471.0</ele><time>2026-05-01T11:00:46Z</time></trkpt><trkpt lat="43.6581243116015" lon="12.293028411562588"><ele>471.0</ele><time>2026-05-01T11:00:48Z</time></trkpt><trkpt lat="43.658151544605055" lon="12.292932276414268"><ele>471.0</ele><time>2026-05-01T11:00:49Z</time></trkpt><trkpt lat="43.65818974087236" lon="12.292824204027154"><ele>471.0</ele><time>2026-05-01T11:00:50Z</time></trkpt><trkpt lat="43.65824208294624" lon="12.29271743801782"><ele>471.0</ele><time>2026-05-01T11:00:51Z</time></trkpt><trkpt lat="43.65832216131879" lon="12.29262559811551"><ele>471.0</ele><time>2026-05-01T11:00:52Z</time></trkpt><trkpt lat="43.65842089633996" lon="12.292561046160692"><ele>471.0</ele><time>2026-05-01T11:00:53Z</time></trkpt><trkpt lat="43.65852785545834" lon="12.2925411578457"><ele>471.0</ele><time>2026-05-01T11:00:54Z</time></trkpt><trkpt lat="43.65863996177017" lon="12.292567830326565"><ele>471.0</ele><time>2026-05-01T11:00:55Z</time></trkpt><trkpt lat="43.65875142126378" lon="12.29263012221363"><ele>471.0</ele><time>2026-05-01T11:00:56Z</time></trkpt><trkpt lat="43.65885428741409" lon="12.292708832816599"><ele>469.4</ele><time>2026-05-01T11:00:57Z</time></trkpt><trkpt lat="43.65894744922845" lon="12.292781542237108"><ele>467.8</ele><time>2026-05-01T11:00:58Z</time></trkpt><trkpt lat="43.65903399972335" lon="12.292833305756027"><ele>466.19999999999993</ele><time>2026-05-01T11:00:59Z</time></trkpt><trkpt lat="43.65911768727636" lon="12.292844271052859"><ele>464.59999999999997</ele><time>2026-05-01T11:01:00Z</time></trkpt><trkpt lat="43.65919752111696" lon="12.292796068102483"><ele>463.0</ele><time>2026-05-01T11:01:01Z</time></trkpt><trkpt lat="43.65926550267003" lon="12.292708969856317"><ele>463.0</ele><time>2026-05-01T11:01:02Z</time></trkpt><trkpt lat="43.65933023750451" lon="12.292611111283591"><ele>462.99999999999994</ele><time>2026-05-01T11:01:03Z</time></trkpt><trkpt lat="43.65939965945695" lon="12.292513385627451"><ele>462.99999999999994</ele><time>2026-05-01T11:01:04Z</time></trkpt><trkpt lat="43.65946906756296" lon="12.292410116626133"><ele>463.0</ele><time>2026-05-01T11:01:05Z</time></trkpt><trkpt lat="43.65953234295011" lon="12.292291427751243"><ele>463.0</ele><time>2026-05-01T11:01:06Z</time></trkpt><trkpt lat="43.65959769498056" lon="12.29217115980032"><ele>465.0</ele><time>2026-05-01T11:01:07Z</time></trkpt><trkpt lat="43.65966559451887" lon="12.292049346462145"><ele>467.0</ele><time>2026-05-01T11:01:08Z</time></trkpt><trkpt lat="43.65973334488573" lon="12.291923735455734"><ele>469.0</ele><time>2026-05-01T11:01:09Z</time></trkpt><trkpt lat="43.6598074493217" lon="12.291803369809633"><ele>471.0</ele><time>2026-05-01T11:01:10Z</time></trkpt><trkpt lat="43.65988809663849" lon="12.291691285650737"><ele>471.0</ele><time>2026-05-01T11:01:11Z</time></trkpt><trkpt lat="43.659973044472714" lon="12.29158606199316"><ele>471.0</ele><time>2026-05-01T11:01:12Z</time></trkpt><trkpt lat="43.660073385006264" lon="12.291508023168058"><ele>471.0</ele><time>2026-05-01T11:01:13Z</time></trkpt><trkpt lat="43.66017457406812" lon="12.29144338311901"><ele>471.0</ele><time>2026-05-01T11:01:14Z</time></trkpt><trkpt lat="43.66026084089186" lon="12.291349037407384"><ele>473.0</ele><time>2026-05-01T11:01:15Z</time></trkpt><trkpt lat="43.66032124643438" lon="12.291218699831097"><ele>475.0</ele><time>2026-05-01T11:01:16Z</time></trkpt><trkpt lat="43.660355827825455" lon="12.291069255908829"><ele>477.0</ele><time>2026-05-01T11:01:17Z</time></trkpt><trkpt lat="43.660380437497935" lon="12.290912333810187"><ele>479.0</ele><time>2026-05-01T11:01:18Z</time></trkpt><trkpt lat="43.660413074473205" lon="12.290755296529447"><ele>479.0</ele><time>2026-05-01T11:01:19Z</time></trkpt><trkpt lat="43.660451478811986" lon="12.290594417711773"><ele>479.0</ele><time>2026-05-01T11:01:20Z</time></trkpt><trkpt lat="43.66051108736514" lon="12.290438395572117"><ele>479.0</ele><time>2026-05-01T11:01:21Z</time></trkpt><trkpt lat="43.66059012371553" lon="12.290293508585494"><ele>479.0</ele><time>2026-05-01T11:01:22Z</time></trkpt><trkpt lat="43.66067825055501" lon="12.29016496046056"><ele>478.75</ele><time>2026-05-01T11:01:23Z</time></trkpt><trkpt lat="43.660779331786955" lon="12.290052352222856"><ele>478.5</ele><time>2026-05-01T11:01:24Z</time></trkpt><trkpt lat="43.660887385565076" lon="12.289952133675653"><ele>478.25</ele><time>2026-05-01T11:01:25Z</time></trkpt><trkpt lat="43.66100877143841" lon="12.289874369341677"><ele>478.0</ele><time>2026-05-01T11:01:26Z</time></trkpt><trkpt lat="43.66113642824054" lon="12.289816096712885"><ele>478.25</ele><time>2026-05-01T11:01:27Z</time></trkpt><trkpt lat="43.6612640687706" lon="12.289761593406421"><ele>478.5</ele><time>2026-05-01T11:01:28Z</time></trkpt><trkpt lat="43.6613918979113" lon="12.28970581900247"><ele>478.75</ele><time>2026-05-01T11:01:29Z</time></trkpt><trkpt lat="43.661519245672" lon="12.289646581598358"><ele>479.0</ele><time>2026-05-01T11:01:30Z</time></trkpt><trkpt lat="43.66164728737159" lon="12.289589739781139"><ele>479.0</ele><time>2026-05-01T11:01:31Z</time></trkpt><trkpt lat="43.66176994429294" lon="12.289518187043832"><ele>479.0</ele><time>2026-05-01T11:01:32Z</time></trkpt><trkpt lat="43.66187783359128" lon="12.289416365169561"><ele>479.0</ele><time>2026-05-01T11:01:33.001Z</time></trkpt><trkpt lat="43.661965640846574" lon="12.28928220296865"><ele>479.0</ele><time>2026-05-01T11:01:34.001Z</time></trkpt><trkpt lat="43.662020796668166" lon="12.289122343601889"><ele>481.6</ele><time>2026-05-01T11:01:35.001Z</time></trkpt><trkpt lat="43.66206169879115" lon="12.288960202394927"><ele>484.2</ele><time>2026-05-01T11:01:36.001Z</time></trkpt><trkpt lat="43.662119616622206" lon="12.288815043316374"><ele>486.80000000000007</ele><time>2026-05-01T11:01:37.001Z</time></trkpt><trkpt lat="43.662191551722465" lon="12.288703980764803"><ele>489.40000000000003</ele><time>2026-05-01T11:01:38.001Z</time></trkpt><trkpt lat="43.6622564275015" lon="12.288609615980993"><ele>492.0</ele><time>2026-05-01T11:01:39.001Z</time></trkpt><trkpt lat="43.66229311665546" lon="12.288509311148143"><ele>492.0</ele><time>2026-05-01T11:01:40.001Z</time></trkpt><trkpt lat="43.66230282156134" lon="12.288397620667737"><ele>492.00000000000006</ele><time>2026-05-01T11:01:41.001Z</time></trkpt><trkpt lat="43.662304203194104" lon="12.288265531965166"><ele>492.00000000000006</ele><time>2026-05-01T11:01:42.001Z</time></trkpt><trkpt lat="43.66230633594559" lon="12.288117540906102"><ele>492.0</ele><time>2026-05-01T11:01:43.001Z</time></trkpt><trkpt lat="43.66230866156595" lon="12.287957725359991"><ele>492.0</ele><time>2026-05-01T11:01:44.001Z</time></trkpt><trkpt lat="43.66231451230466" lon="12.287782332766108"><ele>490.5</ele><time>2026-05-01T11:01:45.001Z</time></trkpt><trkpt lat="43.662323889671214" lon="12.287595446570624"><ele>489.0</ele><time>2026-05-01T11:01:46.001Z</time></trkpt><trkpt lat="43.66234741851449" lon="12.287399967020086"><ele>487.5</ele><time>2026-05-01T11:01:47.001Z</time></trkpt><trkpt lat="43.6623839189809" lon="12.28721182359942"><ele>486.0</ele><time>2026-05-01T11:01:48.001Z</time></trkpt><trkpt lat="43.66242040707049" lon="12.287019892160835"><ele>485.5</ele><time>2026-05-01T11:01:49.001Z</time></trkpt><trkpt lat="43.66245412806011" lon="12.286823012525979"><ele>485.0</ele><time>2026-05-01T11:01:50.001Z</time></trkpt><trkpt lat="43.66247780567931" lon="12.286636177272689"><ele>484.5</ele><time>2026-05-01T11:01:51.001Z</time></trkpt><trkpt lat="43.6624767802131" lon="12.286448645589559"><ele>484.0</ele><time>2026-05-01T11:01:52.001Z</time></trkpt><trkpt lat="43.66244144991511" lon="12.286258629004339"><ele>484.0</ele><time>2026-05-01T11:01:53.001Z</time></trkpt><trkpt lat="43.66238284969795" lon="12.28606699505458"><ele>484.0</ele><time>2026-05-01T11:01:54.001Z</time></trkpt><trkpt lat="43.66230921156316" lon="12.285875677184691"><ele>484.0</ele><time>2026-05-01T11:01:55.001Z</time></trkpt><trkpt lat="43.66223461392996" lon="12.285685390314997"><ele>484.33333333333337</ele><time>2026-05-01T11:01:56.001Z</time></trkpt><trkpt lat="43.662167330151235" lon="12.28549408162338"><ele>484.66666666666663</ele><time>2026-05-01T11:01:57.001Z</time></trkpt><trkpt lat="43.66211426385277" lon="12.2852948840851"><ele>485.0</ele><time>2026-05-01T11:01:58.001Z</time></trkpt><trkpt lat="43.66206477614112" lon="12.285098068974753"><ele>485.0</ele><time>2026-05-01T11:01:59.001Z</time></trkpt><trkpt lat="43.66201904661153" lon="12.284910118090854"><ele>485.0</ele><time>2026-05-01T11:02:00.001Z</time></trkpt><trkpt lat="43.661980038780925" lon="12.2847258854832"><ele>485.0</ele><time>2026-05-01T11:02:01.001Z</time></trkpt><trkpt lat="43.661956355620376" lon="12.284545281903839"><ele>485.0</ele><time>2026-05-01T11:02:02Z</time></trkpt><trkpt lat="43.66195840236292" lon="12.284369215501208"><ele>484.75</ele><time>2026-05-01T11:02:03Z</time></trkpt><trkpt lat="43.66196836382411" lon="12.284207015278078"><ele>484.5</ele><time>2026-05-01T11:02:04Z</time></trkpt><trkpt lat="43.661937585466475" lon="12.284061487100123"><ele>484.25</ele><time>2026-05-01T11:02:05Z</time></trkpt><trkpt lat="43.66187046047668" lon="12.283930631008493"><ele>484.0</ele><time>2026-05-01T11:02:06Z</time></trkpt><trkpt lat="43.66180788811977" lon="12.283794923752888"><ele>484.0</ele><time>2026-05-01T11:02:07Z</time></trkpt><trkpt lat="43.66174238564063" lon="12.283651586841914"><ele>484.0</ele><time>2026-05-01T11:02:08Z</time></trkpt><trkpt lat="43.66166718479077" lon="12.283517533682215"><ele>484.0</ele><time>2026-05-01T11:02:09Z</time></trkpt><trkpt lat="43.66159378821414" lon="12.283381464195442"><ele>484.0</ele><time>2026-05-01T11:02:10Z</time></trkpt><trkpt lat="43.66153069143799" lon="12.283234070742848"><ele>484.5</ele><time>2026-05-01T11:02:11Z</time></trkpt><trkpt lat="43.66148224311471" lon="12.283076510571805"><ele>485.0</ele><time>2026-05-01T11:02:12Z</time></trkpt><trkpt lat="43.66145755247888" lon="12.282908098021935"><ele>485.5</ele><time>2026-05-01T11:02:13Z</time></trkpt><trkpt lat="43.6614594798988" lon="12.28273325186585"><ele>486.0</ele><time>2026-05-01T11:02:14Z</time></trkpt><trkpt lat="43.661486237770454" lon="12.282543863038079"><ele>486.0</ele><time>2026-05-01T11:02:15Z</time></trkpt><trkpt lat="43.661537517834866" lon="12.282362378352163"><ele>486.0</ele><time>2026-05-01T11:02:16Z</time></trkpt><trkpt lat="43.661600001350585" lon="12.28218563060206"><ele>486.0</ele><time>2026-05-01T11:02:17Z</time></trkpt><trkpt lat="43.66166860754526" lon="12.282008671556707"><ele>486.0</ele><time>2026-05-01T11:02:18Z</time></trkpt><trkpt lat="43.66174484132271" lon="12.281828998947924"><ele>486.0</ele><time>2026-05-01T11:02:19Z</time></trkpt><trkpt lat="43.661819807722054" lon="12.281661767568801"><ele>486.0</ele><time>2026-05-01T11:02:20Z</time></trkpt><trkpt lat="43.66189294232837" lon="12.281490068116476"><ele>486.0</ele><time>2026-05-01T11:02:21Z</time></trkpt><trkpt lat="43.66196439021547" lon="12.281316457103172"><ele>486.0</ele><time>2026-05-01T11:02:22Z</time></trkpt><trkpt lat="43.66203632183455" lon="12.281143925453721"><ele>486.0</ele><time>2026-05-01T11:02:23Z</time></trkpt><trkpt lat="43.662106311708534" lon="12.280968864471433"><ele>486.0</ele><time>2026-05-01T11:02:24Z</time></trkpt><trkpt lat="43.66217485769145" lon="12.280790483048055"><ele>486.0</ele><time>2026-05-01T11:02:25Z</time></trkpt><trkpt lat="43.66224123479817" lon="12.280608421129626"><ele>486.0</ele><time>2026-05-01T11:02:26Z</time></trkpt><trkpt lat="43.6622989285338" lon="12.28041858240432"><ele>488.0</ele><time>2026-05-01T11:02:27Z</time></trkpt><trkpt lat="43.66234585346395" lon="12.280215952299196"><ele>490.0</ele><time>2026-05-01T11:02:28Z</time></trkpt><trkpt lat="43.662379312065084" lon="12.280009772234514"><ele>492.0</ele><time>2026-05-01T11:02:29Z</time></trkpt><trkpt lat="43.662402766764174" lon="12.279794443584683"><ele>492.0</ele><time>2026-05-01T11:02:30Z</time></trkpt><trkpt lat="43.66241161081798" lon="12.279578468686312"><ele>492.0</ele><time>2026-05-01T11:02:31Z</time></trkpt><trkpt lat="43.6624038703658" lon="12.279356144045305"><ele>492.0</ele><time>2026-05-01T11:02:32Z</time></trkpt><trkpt lat="43.66237822168598" lon="12.279134014441349"><ele>492.33333333333337</ele><time>2026-05-01T11:02:33Z</time></trkpt><trkpt lat="43.66233979213484" lon="12.278909588968762"><ele>492.6666666666667</ele><time>2026-05-01T11:02:34Z</time></trkpt><trkpt lat="43.662302290580165" lon="12.278680266001501"><ele>493.0</ele><time>2026-05-01T11:02:35Z</time></trkpt><trkpt lat="43.662267020834776" lon="12.278451239787913"><ele>493.0</ele><time>2026-05-01T11:02:36Z</time></trkpt><trkpt lat="43.66223183865472" lon="12.278219475505999"><ele>493.0</ele><time>2026-05-01T11:02:37Z</time></trkpt><trkpt lat="43.662193861919505" lon="12.277984491808521"><ele>493.0</ele><time>2026-05-01T11:02:38Z</time></trkpt><trkpt lat="43.66215569151634" lon="12.27775236757386"><ele>493.0</ele><time>2026-05-01T11:02:39Z</time></trkpt><trkpt lat="43.662117334847466" lon="12.27752587212066"><ele>493.0</ele><time>2026-05-01T11:02:40Z</time></trkpt><trkpt lat="43.66207733384701" lon="12.277302992393574"><ele>493.0</ele><time>2026-05-01T11:02:41Z</time></trkpt><trkpt lat="43.66202348657127" lon="12.27708816434563"><ele>494.33333333333337</ele><time>2026-05-01T11:02:42Z</time></trkpt><trkpt lat="43.661949811111626" lon="12.276884521559904"><ele>495.66666666666663</ele><time>2026-05-01T11:02:43Z</time></trkpt><trkpt lat="43.66186194823817" lon="12.276693048522224"><ele>497.0</ele><time>2026-05-01T11:02:44Z</time></trkpt><trkpt lat="43.66177639705213" lon="12.276497713893155"><ele>497.66666666666663</ele><time>2026-05-01T11:02:45Z</time></trkpt><trkpt lat="43.66169353512909" lon="12.276294016212784"><ele>498.33333333333337</ele><time>2026-05-01T11:02:46Z</time></trkpt><trkpt lat="43.66161567699912" lon="12.276084137972981"><ele>499.0</ele><time>2026-05-01T11:02:47Z</time></trkpt><trkpt lat="43.661537738442526" lon="12.275868829556021"><ele>499.0</ele><time>2026-05-01T11:02:48Z</time></trkpt><trkpt lat="43.66146360566461" lon="12.275653145082767"><ele>499.0</ele><time>2026-05-01T11:02:49Z</time></trkpt><trkpt lat="43.661399219597634" lon="12.275436810081853"><ele>499.0</ele><time>2026-05-01T11:02:50Z</time></trkpt><trkpt lat="43.661355121888064" lon="12.275214997903868"><ele>499.0</ele><time>2026-05-01T11:02:51Z</time></trkpt><trkpt lat="43.661327257423736" lon="12.274984754085944"><ele>499.0</ele><time>2026-05-01T11:02:52Z</time></trkpt><trkpt lat="43.66130074108622" lon="12.27477105436645"><ele>499.0</ele><time>2026-05-01T11:02:53Z</time></trkpt><trkpt lat="43.661269350308594" lon="12.274575706989827"><ele>499.0</ele><time>2026-05-01T11:02:54Z</time></trkpt><trkpt lat="43.66124117993525" lon="12.274391877820305"><ele>499.0</ele><time>2026-05-01T11:02:55Z</time></trkpt><trkpt lat="43.66121048491319" lon="12.274220909967177"><ele>499.0</ele><time>2026-05-01T11:02:56Z</time></trkpt><trkpt lat="43.66116459296327" lon="12.27406975852351"><ele>499.0</ele><time>2026-05-01T11:02:57Z</time></trkpt><trkpt lat="43.661091883187865" lon="12.273934310642204"><ele>499.5</ele><time>2026-05-01T11:02:58Z</time></trkpt><trkpt lat="43.661017491997924" lon="12.273796077617495"><ele>500.0</ele><time>2026-05-01T11:02:59Z</time></trkpt><trkpt lat="43.6609443786891" lon="12.273650563384274"><ele>500.5</ele><time>2026-05-01T11:03:00Z</time></trkpt><trkpt lat="43.66086752908173" lon="12.27349821003755"><ele>501.0</ele><time>2026-05-01T11:03:01Z</time></trkpt><trkpt lat="43.660787927970524" lon="12.273343618165072"><ele>501.0</ele><time>2026-05-01T11:03:02Z</time></trkpt><trkpt lat="43.66070732112968" lon="12.27318273106629"><ele>501.0</ele><time>2026-05-01T11:03:03Z</time></trkpt><trkpt lat="43.660628911246846" lon="12.273015861094455"><ele>501.0</ele><time>2026-05-01T11:03:04Z</time></trkpt><trkpt lat="43.66054793419684" lon="12.272848998175169"><ele>501.0</ele><time>2026-05-01T11:03:05Z</time></trkpt><trkpt lat="43.660473572221655" lon="12.272669716405144"><ele>500.5</ele><time>2026-05-01T11:03:06Z</time></trkpt><trkpt lat="43.66039904376561" lon="12.27248719632529"><ele>500.0</ele><time>2026-05-01T11:03:07Z</time></trkpt><trkpt lat="43.66033027575332" lon="12.272312005040034"><ele>499.5</ele><time>2026-05-01T11:03:08Z</time></trkpt><trkpt lat="43.66026989154221" lon="12.272146432470475"><ele>499.0</ele><time>2026-05-01T11:03:09Z</time></trkpt><trkpt lat="43.660221259246406" lon="12.271983165654806"><ele>501.0</ele><time>2026-05-01T11:03:10Z</time></trkpt><trkpt lat="43.66018536773586" lon="12.271812761409183"><ele>503.0</ele><time>2026-05-01T11:03:11Z</time></trkpt><trkpt lat="43.66016646283602" lon="12.271635075390995"><ele>505.0</ele><time>2026-05-01T11:03:12Z</time></trkpt><trkpt lat="43.66016670659851" lon="12.271453426052911"><ele>507.0</ele><time>2026-05-01T11:03:13Z</time></trkpt><trkpt lat="43.66017099025631" lon="12.27128036610974"><ele>507.0</ele><time>2026-05-01T11:03:14Z</time></trkpt><trkpt lat="43.66017640856653" lon="12.271115802926893"><ele>507.00000000000006</ele><time>2026-05-01T11:03:15Z</time></trkpt><trkpt lat="43.660193976538" lon="12.270967998734347"><ele>507.00000000000006</ele><time>2026-05-01T11:03:16Z</time></trkpt><trkpt lat="43.660218425456506" lon="12.27082929002073"><ele>507.0</ele><time>2026-05-01T11:03:17Z</time></trkpt><trkpt lat="43.66024178833317" lon="12.270697779326406"><ele>507.0</ele><time>2026-05-01T11:03:18Z</time></trkpt><trkpt lat="43.660262558834404" lon="12.27056601126288"><ele>508.0</ele><time>2026-05-01T11:03:19Z</time></trkpt><trkpt lat="43.66028622845263" lon="12.270436578125754"><ele>509.00000000000006</ele><time>2026-05-01T11:03:20Z</time></trkpt><trkpt lat="43.66031277176579" lon="12.270306458130793"><ele>510.00000000000006</ele><time>2026-05-01T11:03:21Z</time></trkpt><trkpt lat="43.660328986897404" lon="12.270183898923706"><ele>511.0</ele><time>2026-05-01T11:03:22Z</time></trkpt><trkpt lat="43.66034684321559" lon="12.270069036142084"><ele>512.0</ele><time>2026-05-01T11:03:23Z</time></trkpt><trkpt lat="43.660366309053565" lon="12.269955693495195"><ele>511.99999999999994</ele><time>2026-05-01T11:03:24Z</time></trkpt><trkpt lat="43.66038867394774" lon="12.269843966782464"><ele>512.0</ele><time>2026-05-01T11:03:25Z</time></trkpt><trkpt lat="43.66040758113809" lon="12.269731357756973"><ele>512.0</ele><time>2026-05-01T11:03:26Z</time></trkpt><trkpt lat="43.660425113985475" lon="12.269618871531923"><ele>512.0</ele><time>2026-05-01T11:03:27Z</time></trkpt><trkpt lat="43.66043600153812" lon="12.269500993676049"><ele>511.99999999999994</ele><time>2026-05-01T11:03:28Z</time></trkpt><trkpt lat="43.66044408698605" lon="12.269382628793897"><ele>512.0</ele><time>2026-05-01T11:03:29Z</time></trkpt><trkpt lat="43.66044463476706" lon="12.269259590233741"><ele>511.40000000000003</ele><time>2026-05-01T11:03:30Z</time></trkpt><trkpt lat="43.660425070999814" lon="12.269135337508283"><ele>510.80000000000007</ele><time>2026-05-01T11:03:31Z</time></trkpt><trkpt lat="43.66038963403893" lon="12.269009246510697"><ele>510.2</ele><time>2026-05-01T11:03:32Z</time></trkpt><trkpt lat="43.66035037475588" lon="12.268881230645817"><ele>509.6</ele><time>2026-05-01T11:03:33Z</time></trkpt><trkpt lat="43.660297030723065" lon="12.268763632175892"><ele>509.0</ele><time>2026-05-01T11:03:34Z</time></trkpt><trkpt lat="43.66023517836437" lon="12.268650072213651"><ele>509.0</ele><time>2026-05-01T11:03:35Z</time></trkpt><trkpt lat="43.6601718967325" lon="12.268534463412017"><ele>509.0</ele><time>2026-05-01T11:03:36Z</time></trkpt><trkpt lat="43.660110576134926" lon="12.268420775330883"><ele>509.0</ele><time>2026-05-01T11:03:37.001Z</time></trkpt><trkpt lat="43.6600482154292" lon="12.26829637121423"><ele>509.0</ele><time>2026-05-01T11:03:38.001Z</time></trkpt><trkpt lat="43.65998765998098" lon="12.26816687591976"><ele>509.0</ele><time>2026-05-01T11:03:39.001Z</time></trkpt><trkpt lat="43.65992820376831" lon="12.268034334072645"><ele>510.16666666666663</ele><time>2026-05-01T11:03:40.001Z</time></trkpt><trkpt lat="43.65988242128172" lon="12.267910740108038"><ele>511.3333333333333</ele><time>2026-05-01T11:03:41.001Z</time></trkpt><trkpt lat="43.65985127765506" lon="12.267811449621725"><ele>512.5</ele><time>2026-05-01T11:03:42.001Z</time></trkpt><trkpt lat="43.65981873663691" lon="12.267693456048805"><ele>513.6666666666666</ele><time>2026-05-01T11:03:44.001Z</time></trkpt><trkpt lat="43.65978250704191" lon="12.267610217762556"><ele>514.8333333333334</ele><time>2026-05-01T11:03:46.001Z</time></trkpt><trkpt lat="43.65973693461274" lon="12.26750675436099"><ele>516.0</ele><time>2026-05-01T11:03:49.001Z</time></trkpt><trkpt lat="43.65968731503686" lon="12.267436667958195"><ele>516.0</ele><time>2026-05-01T11:03:52.001Z</time></trkpt><trkpt lat="43.65961037555866" lon="12.26736788545486"><ele>516.0</ele><time>2026-05-01T11:03:54.001Z</time></trkpt><trkpt lat="43.65955222408301" lon="12.267320567766573"><ele>516.0</ele><time>2026-05-01T11:03:55.001Z</time></trkpt><trkpt lat="43.65948349272291" lon="12.267270492654228"><ele>516.0</ele><time>2026-05-01T11:03:56.001Z</time></trkpt><trkpt lat="43.6594116981773" lon="12.267211368729122"><ele>516.0</ele><time>2026-05-01T11:03:57.001Z</time></trkpt><trkpt lat="43.65934837470993" lon="12.267151111572726"><ele>516.0</ele><time>2026-05-01T11:03:58.001Z</time></trkpt><trkpt lat="43.65930643663322" lon="12.267085359617447"><ele>515.0</ele><time>2026-05-01T11:03:59.001Z</time></trkpt><trkpt lat="43.65926796358312" lon="12.266958395682561"><ele>514.0</ele><time>2026-05-01T11:04:01.001Z</time></trkpt><trkpt lat="43.65925732305597" lon="12.266835870643039"><ele>513.0</ele><time>2026-05-01T11:04:03.001Z</time></trkpt><trkpt lat="43.65922769674228" lon="12.266693727899273"><ele>512.0</ele><time>2026-05-01T11:04:05.001Z</time></trkpt><trkpt lat="43.659214005687964" lon="12.266602811539366"><ele>511.0</ele><time>2026-05-01T11:04:06.001Z</time></trkpt><trkpt lat="43.65919983781006" lon="12.266502000401797"><ele>510.0</ele><time>2026-05-01T11:04:07.001Z</time></trkpt><trkpt lat="43.65917906096005" lon="12.26639185897034"><ele>509.8333333333333</ele><time>2026-05-01T11:04:08Z</time></trkpt><trkpt lat="43.65915781559903" lon="12.266276877270185"><ele>509.66666666666663</ele><time>2026-05-01T11:04:09Z</time></trkpt><trkpt lat="43.65914053636856" lon="12.266161008295107"><ele>509.5</ele><time>2026-05-01T11:04:10Z</time></trkpt><trkpt lat="43.65912601156589" lon="12.266053994071372"><ele>509.3333333333333</ele><time>2026-05-01T11:04:11Z</time></trkpt><trkpt lat="43.659109436910235" lon="12.265940106159505"><ele>509.16666666666663</ele><time>2026-05-01T11:04:12Z</time></trkpt><trkpt lat="43.659093347603324" lon="12.265822151145917"><ele>509.0</ele><time>2026-05-01T11:04:13Z</time></trkpt><trkpt lat="43.659074297997556" lon="12.26570083218666"><ele>509.49999999999994</ele><time>2026-05-01T11:04:14Z</time></trkpt><trkpt lat="43.659055123736046" lon="12.26558171942538"><ele>510.0</ele><time>2026-05-01T11:04:15Z</time></trkpt><trkpt lat="43.65903348089364" lon="12.265471426654123"><ele>510.5</ele><time>2026-05-01T11:04:16Z</time></trkpt><trkpt lat="43.65900430846886" lon="12.265368032666657"><ele>511.0</ele><time>2026-05-01T11:04:17Z</time></trkpt><trkpt lat="43.65896184873923" lon="12.265278393526154"><ele>511.49999999999994</ele><time>2026-05-01T11:04:18Z</time></trkpt><trkpt lat="43.65891727532972" lon="12.26520878145786"><ele>512.0</ele><time>2026-05-01T11:04:19Z</time></trkpt><trkpt lat="43.658838348123105" lon="12.26509074439948"><ele>512.0</ele><time>2026-05-01T11:04:21Z</time></trkpt><trkpt lat="43.65875753857455" lon="12.264945242538422"><ele>512.0</ele><time>2026-05-01T11:04:23Z</time></trkpt><trkpt lat="43.65871443188936" lon="12.26486264434831"><ele>512.0</ele><time>2026-05-01T11:04:24Z</time></trkpt><trkpt lat="43.658669249335475" lon="12.264771435814584"><ele>512.0</ele><time>2026-05-01T11:04:25Z</time></trkpt><trkpt lat="43.658623111721596" lon="12.264671487559927"><ele>512.0</ele><time>2026-05-01T11:04:26Z</time></trkpt><trkpt lat="43.658578842054446" lon="12.264564570065293"><ele>512.6</ele><time>2026-05-01T11:04:27Z</time></trkpt><trkpt lat="43.65853705691234" lon="12.264452876752886"><ele>513.2</ele><time>2026-05-01T11:04:28Z</time></trkpt><trkpt lat="43.658505369998146" lon="12.26433052586822"><ele>513.8</ele><time>2026-05-01T11:04:29Z</time></trkpt><trkpt lat="43.65848166044636" lon="12.26419853540675"><ele>514.4</ele><time>2026-05-01T11:04:30Z</time></trkpt><trkpt lat="43.65847732320661" lon="12.264055841386773"><ele>515.0</ele><time>2026-05-01T11:04:31Z</time></trkpt><trkpt lat="43.658488916629395" lon="12.263909517051964"><ele>515.0</ele><time>2026-05-01T11:04:32Z</time></trkpt><trkpt lat="43.6585124635095" lon="12.26376440715247"><ele>515.0</ele><time>2026-05-01T11:04:33Z</time></trkpt><trkpt lat="43.65854793960404" lon="12.263619807366121"><ele>515.0</ele><time>2026-05-01T11:04:34Z</time></trkpt><trkpt lat="43.6585918168154" lon="12.263477190001915"><ele>515.0</ele><time>2026-05-01T11:04:35Z</time></trkpt><trkpt lat="43.6586274654858" lon="12.26332884760958"><ele>515.0</ele><time>2026-05-01T11:04:36Z</time></trkpt><trkpt lat="43.658658849875565" lon="12.26317714543592"><ele>517.0</ele><time>2026-05-01T11:04:37Z</time></trkpt><trkpt lat="43.65868747549866" lon="12.263026658549418"><ele>519.0</ele><time>2026-05-01T11:04:38Z</time></trkpt><trkpt lat="43.65870938977298" lon="12.262876663766868"><ele>521.0</ele><time>2026-05-01T11:04:39Z</time></trkpt><trkpt lat="43.65872135171106" lon="12.262734741089762"><ele>523.0</ele><time>2026-05-01T11:04:40Z</time></trkpt><trkpt lat="43.658726019303835" lon="12.262595799584954"><ele>525.0</ele><time>2026-05-01T11:04:41Z</time></trkpt><trkpt lat="43.6587190632645" lon="12.26245403276174"><ele>525.0</ele><time>2026-05-01T11:04:42Z</time></trkpt><trkpt lat="43.65871148656753" lon="12.262309947250165"><ele>525.0</ele><time>2026-05-01T11:04:43Z</time></trkpt><trkpt lat="43.658704668363555" lon="12.262162253096752"><ele>525.0</ele><time>2026-05-01T11:04:44Z</time></trkpt><trkpt lat="43.65869716379359" lon="12.26201040035573"><ele>525.0</ele><time>2026-05-01T11:04:45Z</time></trkpt><trkpt lat="43.65868965911674" lon="12.261859361745623"><ele>525.0</ele><time>2026-05-01T11:04:46Z</time></trkpt><trkpt lat="43.658686574303" lon="12.261719818318335"><ele>525.3333333333334</ele><time>2026-05-01T11:04:47Z</time></trkpt><trkpt lat="43.65868823417418" lon="12.261592574656015"><ele>525.6666666666666</ele><time>2026-05-01T11:04:48Z</time></trkpt><trkpt lat="43.658687605418145" lon="12.261473471139197"><ele>526.0</ele><time>2026-05-01T11:04:49Z</time></trkpt><trkpt lat="43.65868228466758" lon="12.261369991853757"><ele>526.3333333333333</ele><time>2026-05-01T11:04:50Z</time></trkpt><trkpt lat="43.65865942810589" lon="12.261227541440702"><ele>526.6666666666666</ele><time>2026-05-01T11:04:52Z</time></trkpt><trkpt lat="43.658613706640175" lon="12.261162185208361"><ele>527.0</ele><time>2026-05-01T11:04:55Z</time></trkpt><trkpt lat="43.658616868041285" lon="12.261289881894449"><ele>527.0</ele><time>2026-05-01T11:04:59Z</time></trkpt><trkpt lat="43.658657541311" lon="12.261380166078487"><ele>527.0</ele><time>2026-05-01T11:05:01Z</time></trkpt><trkpt lat="43.658669791520026" lon="12.261541404353371"><ele>527.0</ele><time>2026-05-01T11:05:03Z</time></trkpt><trkpt lat="43.65867525474774" lon="12.261632866252697"><ele>527.0</ele><time>2026-05-01T11:05:04Z</time></trkpt><trkpt lat="43.65868206689768" lon="12.261727790574819"><ele>527.0</ele><time>2026-05-01T11:05:05Z</time></trkpt><trkpt lat="43.65868770865003" lon="12.261834642241686"><ele>527.0</ele><time>2026-05-01T11:05:06Z</time></trkpt><trkpt lat="43.658691296244534" lon="12.261930643781184"><ele>527.0</ele><time>2026-05-01T11:05:07Z</time></trkpt><trkpt lat="43.658705005387546" lon="12.262069564331945"><ele>527.0</ele><time>2026-05-01T11:05:09Z</time></trkpt><trkpt lat="43.65871257277436" lon="12.262157943788385"><ele>527.0</ele><time>2026-05-01T11:05:11Z</time></trkpt></trkseg><trkseg><trkpt lat="43.658685532754426" lon="12.262306273257265"><ele>525.0</ele><time>2026-05-01T12:42:35.998Z</time></trkpt><trkpt lat="43.6586797265562" lon="12.262432050381905"><ele>525.0</ele><time>2026-05-01T12:42:37.998Z</time></trkpt><trkpt lat="43.658680257723255" lon="12.262525842194602"><ele>525.0</ele><time>2026-05-01T12:42:38.998Z</time></trkpt><trkpt lat="43.65868409200234" lon="12.262614349745853"><ele>525.0</ele><time>2026-05-01T12:42:39.998Z</time></trkpt><trkpt lat="43.65869089257109" lon="12.262718134711186"><ele>525.0</ele><time>2026-05-01T12:42:40.998Z</time></trkpt><trkpt lat="43.65868192535539" lon="12.262825212555668"><ele>525.0</ele><time>2026-05-01T12:42:41.998Z</time></trkpt><trkpt lat="43.65867670043074" lon="12.2629393037025"><ele>525.0</ele><time>2026-05-01T12:42:42.998Z</time></trkpt><trkpt lat="43.658662049938386" lon="12.263053037266255"><ele>525.0</ele><time>2026-05-01T12:42:43.998Z</time></trkpt><trkpt lat="43.65864394112531" lon="12.263166826537853"><ele>525.0</ele><time>2026-05-01T12:42:44.998Z</time></trkpt><trkpt lat="43.65862377547822" lon="12.263277388330737"><ele>525.0</ele><time>2026-05-01T12:42:45.998Z</time></trkpt><trkpt lat="43.65859322343438" lon="12.263384271341875"><ele>525.0</ele><time>2026-05-01T12:42:46.998Z</time></trkpt><trkpt lat="43.658565432182215" lon="12.263494305953566"><ele>525.0</ele><time>2026-05-01T12:42:47.998Z</time></trkpt><trkpt lat="43.65853367019464" lon="12.263597762632676"><ele>523.2</ele><time>2026-05-01T12:42:48.998Z</time></trkpt><trkpt lat="43.658503005499306" lon="12.263705162082502"><ele>521.4</ele><time>2026-05-01T12:42:50Z</time></trkpt><trkpt lat="43.65847802016777" lon="12.263821175146484"><ele>519.6</ele><time>2026-05-01T12:42:51Z</time></trkpt><trkpt lat="43.65845764133815" lon="12.263943368500643"><ele>517.8</ele><time>2026-05-01T12:42:52Z</time></trkpt><trkpt lat="43.65845313421589" lon="12.26407992611211"><ele>516.0</ele><time>2026-05-01T12:42:53Z</time></trkpt><trkpt lat="43.65845925146796" lon="12.264221267538217"><ele>516.0</ele><time>2026-05-01T12:42:54Z</time></trkpt><trkpt lat="43.65848215708096" lon="12.26437262834734"><ele>516.0</ele><time>2026-05-01T12:42:55Z</time></trkpt><trkpt lat="43.658527407680204" lon="12.264538158908408"><ele>516.0</ele><time>2026-05-01T12:42:56Z</time></trkpt><trkpt lat="43.658594092075894" lon="12.264699441211643"><ele>516.0</ele><time>2026-05-01T12:42:57Z</time></trkpt><trkpt lat="43.658673148539386" lon="12.264856469845876"><ele>515.0</ele><time>2026-05-01T12:42:58Z</time></trkpt><trkpt lat="43.65875776238651" lon="12.265005796318283"><ele>514.0</ele><time>2026-05-01T12:42:59Z</time></trkpt><trkpt lat="43.65884462893467" lon="12.265158715902354"><ele>513.0</ele><time>2026-05-01T12:43:00Z</time></trkpt><trkpt lat="43.65893958391227" lon="12.265309146410976"><ele>512.0</ele><time>2026-05-01T12:43:01Z</time></trkpt><trkpt lat="43.65902295105244" lon="12.265474560708364"><ele>511.0</ele><time>2026-05-01T12:43:02Z</time></trkpt><trkpt lat="43.65907820185216" lon="12.26566183837248"><ele>510.0</ele><time>2026-05-01T12:43:03Z</time></trkpt><trkpt lat="43.659113790351135" lon="12.265869138342095"><ele>509.0</ele><time>2026-05-01T12:43:04Z</time></trkpt><trkpt lat="43.65913310207153" lon="12.266075948607662"><ele>509.0</ele><time>2026-05-01T12:43:05Z</time></trkpt><trkpt lat="43.65915486501448" lon="12.266292132654405"><ele>509.0</ele><time>2026-05-01T12:43:06Z</time></trkpt><trkpt lat="43.65917882742756" lon="12.266509245397229"><ele>509.0</ele><time>2026-05-01T12:43:07Z</time></trkpt><trkpt lat="43.65920782124895" lon="12.266727786787817"><ele>509.25</ele><time>2026-05-01T12:43:08Z</time></trkpt><trkpt lat="43.659231736290124" lon="12.266915093011587"><ele>509.5</ele><time>2026-05-01T12:43:09Z</time></trkpt><trkpt lat="43.659265877213706" lon="12.267071469969455"><ele>509.75</ele><time>2026-05-01T12:43:10Z</time></trkpt><trkpt lat="43.65932735633738" lon="12.267189004501057"><ele>510.0</ele><time>2026-05-01T12:43:11Z</time></trkpt><trkpt lat="43.65941681751726" lon="12.267268176094285"><ele>511.5</ele><time>2026-05-01T12:43:12Z</time></trkpt><trkpt lat="43.659524411401854" lon="12.267321700909083"><ele>513.0</ele><time>2026-05-01T12:43:13Z</time></trkpt><trkpt lat="43.659632454020155" lon="12.267387562667654"><ele>514.5</ele><time>2026-05-01T12:43:14Z</time></trkpt><trkpt lat="43.659728806982514" lon="12.267492976389102"><ele>516.0</ele><time>2026-05-01T12:43:15Z</time></trkpt><trkpt lat="43.65980423399651" lon="12.267643410060947"><ele>516.0</ele><time>2026-05-01T12:43:16Z</time></trkpt><trkpt lat="43.65985750093742" lon="12.267824738500838"><ele>516.0</ele><time>2026-05-01T12:43:17Z</time></trkpt><trkpt lat="43.659908041671386" lon="12.268011795080549"><ele>516.0</ele><time>2026-05-01T12:43:18Z</time></trkpt><trkpt lat="43.65997431777073" lon="12.268192226814817"><ele>516.0</ele><time>2026-05-01T12:43:19Z</time></trkpt><trkpt lat="43.660059517037226" lon="12.268366709663173"><ele>513.6666666666666</ele><time>2026-05-01T12:43:20Z</time></trkpt><trkpt lat="43.660155248277654" lon="12.268537698463179"><ele>511.3333333333333</ele><time>2026-05-01T12:43:21Z</time></trkpt><trkpt lat="43.660252600008455" lon="12.268706823267664"><ele>509.0</ele><time>2026-05-01T12:43:22Z</time></trkpt><trkpt lat="43.6603426984745" lon="12.268876383563878"><ele>510.75</ele><time>2026-05-01T12:43:23Z</time></trkpt><trkpt lat="43.66040801911381" lon="12.269054599015922"><ele>512.5</ele><time>2026-05-01T12:43:24Z</time></trkpt><trkpt lat="43.66044675436467" lon="12.269249487467823"><ele>514.25</ele><time>2026-05-01T12:43:25Z</time></trkpt><trkpt lat="43.66044961703569" lon="12.269455434535887"><ele>516.0</ele><time>2026-05-01T12:43:26Z</time></trkpt><trkpt lat="43.66041797870844" lon="12.269666494694702"><ele>514.6666666666666</ele><time>2026-05-01T12:43:27Z</time></trkpt><trkpt lat="43.66037269884812" lon="12.269879958013307"><ele>513.3333333333333</ele><time>2026-05-01T12:43:28Z</time></trkpt><trkpt lat="43.66032971728525" lon="12.270095234546268"><ele>512.0</ele><time>2026-05-01T12:43:29Z</time></trkpt><trkpt lat="43.66029332527543" lon="12.27030955609464"><ele>510.3333333333333</ele><time>2026-05-01T12:43:30Z</time></trkpt><trkpt lat="43.660252946092726" lon="12.270518672342519"><ele>508.66666666666663</ele><time>2026-05-01T12:43:31Z</time></trkpt><trkpt lat="43.66021652641215" lon="12.270727272856563"><ele>507.0</ele><time>2026-05-01T12:43:31.999Z</time></trkpt><trkpt lat="43.66018620369474" lon="12.270936906588"><ele>507.0</ele><time>2026-05-01T12:43:32.999Z</time></trkpt><trkpt lat="43.66015981590531" lon="12.27114532037465"><ele>507.0</ele><time>2026-05-01T12:43:33.999Z</time></trkpt><trkpt lat="43.66015212590715" lon="12.271354642694805"><ele>507.0</ele><time>2026-05-01T12:43:34.999Z</time></trkpt><trkpt lat="43.66015419187758" lon="12.271554564763209"><ele>507.0</ele><time>2026-05-01T12:43:35.999Z</time></trkpt><trkpt lat="43.66015638255971" lon="12.271739679181575"><ele>508.25</ele><time>2026-05-01T12:43:36.999Z</time></trkpt><trkpt lat="43.66017581099755" lon="12.27191859037651"><ele>509.5</ele><time>2026-05-01T12:43:37.999Z</time></trkpt><trkpt lat="43.66022165820002" lon="12.2720970292664"><ele>510.75</ele><time>2026-05-01T12:43:38.999Z</time></trkpt><trkpt lat="43.660295041925636" lon="12.272265595365626"><ele>512.0</ele><time>2026-05-01T12:43:39.999Z</time></trkpt><trkpt lat="43.660376139368545" lon="12.272434056060838"><ele>508.75</ele><time>2026-05-01T12:43:40.999Z</time></trkpt><trkpt lat="43.66044808836968" lon="12.27259589841159"><ele>505.5</ele><time>2026-05-01T12:43:41.999Z</time></trkpt><trkpt lat="43.66050561731416" lon="12.272739688057067"><ele>502.25</ele><time>2026-05-01T12:43:42.999Z</time></trkpt><trkpt lat="43.660557011630594" lon="12.272859471283766"><ele>499.0</ele><time>2026-05-01T12:43:43.999Z</time></trkpt><trkpt lat="43.66060653675639" lon="12.272979442049554"><ele>499.00000000000006</ele><time>2026-05-01T12:43:44.999Z</time></trkpt><trkpt lat="43.66065343740748" lon="12.273087555250795"><ele>499.0</ele><time>2026-05-01T12:43:45.999Z</time></trkpt><trkpt lat="43.66070521916316" lon="12.273178409233589"><ele>499.0</ele><time>2026-05-01T12:43:46.999Z</time></trkpt><trkpt lat="43.66075277749008" lon="12.273266971533126"><ele>499.0</ele><time>2026-05-01T12:43:47.999Z</time></trkpt><trkpt lat="43.66080003846896" lon="12.273359461133053"><ele>499.00000000000006</ele><time>2026-05-01T12:43:48.999Z</time></trkpt><trkpt lat="43.66084473348285" lon="12.27345202460157"><ele>499.0</ele><time>2026-05-01T12:43:49.999Z</time></trkpt><trkpt lat="43.66088929669145" lon="12.273548490060461"><ele>499.00000000000006</ele><time>2026-05-01T12:43:50.999Z</time></trkpt><trkpt lat="43.660935300805626" lon="12.273641862537389"><ele>499.0</ele><time>2026-05-01T12:43:51.999Z</time></trkpt><trkpt lat="43.66098407564767" lon="12.273735024181837"><ele>499.0</ele><time>2026-05-01T12:43:52.999Z</time></trkpt><trkpt lat="43.66103112127924" lon="12.273825651943522"><ele>499.0</ele><time>2026-05-01T12:43:53.999Z</time></trkpt><trkpt lat="43.66108200400678" lon="12.273913212015664"><ele>499.00000000000006</ele><time>2026-05-01T12:43:54.999Z</time></trkpt><trkpt lat="43.66112873371884" lon="12.274006263417881"><ele>499.0</ele><time>2026-05-01T12:43:55.999Z</time></trkpt><trkpt lat="43.661172792627724" lon="12.274102018810773"><ele>499.0</ele><time>2026-05-01T12:43:56.999Z</time></trkpt><trkpt lat="43.661208686807" lon="12.274201737914225"><ele>499.0</ele><time>2026-05-01T12:43:57.999Z</time></trkpt><trkpt lat="43.66123453717385" lon="12.27430996190062"><ele>499.0</ele><time>2026-05-01T12:43:58.999Z</time></trkpt><trkpt lat="43.66125519029205" lon="12.27444807726799"><ele>499.0</ele><time>2026-05-01T12:43:59.999Z</time></trkpt><trkpt lat="43.66128511147852" lon="12.274614686619593"><ele>499.0</ele><time>2026-05-01T12:44:00.999Z</time></trkpt><trkpt lat="43.66131906189567" lon="12.274800464879181"><ele>498.0</ele><time>2026-05-01T12:44:01.999Z</time></trkpt><trkpt lat="43.6613404260875" lon="12.274994244914103"><ele>497.0</ele><time>2026-05-01T12:44:02.999Z</time></trkpt><trkpt lat="43.66135479838613" lon="12.275190360490837"><ele>496.0</ele><time>2026-05-01T12:44:03.999Z</time></trkpt><trkpt lat="43.661377902381254" lon="12.27539103255296"><ele>495.0</ele><time>2026-05-01T12:44:04.999Z</time></trkpt><trkpt lat="43.66142561127329" lon="12.275596379432065"><ele>496.33333333333337</ele><time>2026-05-01T12:44:05.999Z</time></trkpt><trkpt lat="43.66149448018125" lon="12.275797894523034"><ele>497.6666666666667</ele><time>2026-05-01T12:44:06.999Z</time></trkpt><trkpt lat="43.66157507635169" lon="12.27599905344688"><ele>499.0</ele><time>2026-05-01T12:44:07.999Z</time></trkpt><trkpt lat="43.66165986408455" lon="12.276202389411024"><ele>499.0</ele><time>2026-05-01T12:44:08.999Z</time></trkpt><trkpt lat="43.66173955979316" lon="12.27639827454284"><ele>499.0</ele><time>2026-05-01T12:44:09.999Z</time></trkpt><trkpt lat="43.661817234531114" lon="12.276592063958686"><ele>499.0</ele><time>2026-05-01T12:44:10.999Z</time></trkpt><trkpt lat="43.66189814704119" lon="12.27679163511145"><ele>498.33333333333337</ele><time>2026-05-01T12:44:11.999Z</time></trkpt><trkpt lat="43.66197590828962" lon="12.276994733308085"><ele>497.66666666666663</ele><time>2026-05-01T12:44:12.999Z</time></trkpt><trkpt lat="43.66204379440089" lon="12.27721229859745"><ele>497.0</ele><time>2026-05-01T12:44:13.999Z</time></trkpt><trkpt lat="43.662102918695695" lon="12.277441449445638"><ele>495.66666666666663</ele><time>2026-05-01T12:44:14.999Z</time></trkpt><trkpt lat="43.66214462785527" lon="12.277685175499585"><ele>494.33333333333337</ele><time>2026-05-01T12:44:15.999Z</time></trkpt><trkpt lat="43.66217694522671" lon="12.277936504205424"><ele>493.0</ele><time>2026-05-01T12:44:16.999Z</time></trkpt><trkpt lat="43.66221579572622" lon="12.278183113619077"><ele>493.0</ele><time>2026-05-01T12:44:17.999Z</time></trkpt><trkpt lat="43.66225645017452" lon="12.278432157959047"><ele>493.0</ele><time>2026-05-01T12:44:18.999Z</time></trkpt><trkpt lat="43.66229877771218" lon="12.278682085923517"><ele>493.0</ele><time>2026-05-01T12:44:19.999Z</time></trkpt><trkpt lat="43.66234117109869" lon="12.2789338831866"><ele>492.6666666666667</ele><time>2026-05-01T12:44:20.999Z</time></trkpt><trkpt lat="43.66238200941896" lon="12.279190389912822"><ele>492.33333333333337</ele><time>2026-05-01T12:44:21.999Z</time></trkpt><trkpt lat="43.66240819500868" lon="12.279442809579644"><ele>492.0</ele><time>2026-05-01T12:44:22.999Z</time></trkpt><trkpt lat="43.662411413858045" lon="12.279672991344109"><ele>492.0</ele><time>2026-05-01T12:44:23.999Z</time></trkpt><trkpt lat="43.662396349849395" lon="12.279887970573576"><ele>492.0</ele><time>2026-05-01T12:44:24.999Z</time></trkpt><trkpt lat="43.66237294676203" lon="12.280087010895738"><ele>492.0</ele><time>2026-05-01T12:44:25.999Z</time></trkpt><trkpt lat="43.66234095418829" lon="12.280270342867082"><ele>492.0</ele><time>2026-05-01T12:44:26.999Z</time></trkpt><trkpt lat="43.66230161578912" lon="12.28043839618303"><ele>490.5</ele><time>2026-05-01T12:44:27.998Z</time></trkpt><trkpt lat="43.66225626007576" lon="12.280600436008585"><ele>489.0</ele><time>2026-05-01T12:44:28.998Z</time></trkpt><trkpt lat="43.66219578271513" lon="12.280758789038106"><ele>487.5</ele><time>2026-05-01T12:44:29.998Z</time></trkpt><trkpt lat="43.66212700557349" lon="12.280914869127916"><ele>486.0</ele><time>2026-05-01T12:44:30.998Z</time></trkpt><trkpt lat="43.66205450492824" lon="12.281078390453034"><ele>486.0</ele><time>2026-05-01T12:44:31.998Z</time></trkpt><trkpt lat="43.66198432112508" lon="12.28125408485487"><ele>486.0</ele><time>2026-05-01T12:44:32.998Z</time></trkpt><trkpt lat="43.66190934980699" lon="12.281431443298448"><ele>486.0</ele><time>2026-05-01T12:44:33.998Z</time></trkpt><trkpt lat="43.66183151974184" lon="12.281612027201684"><ele>486.0</ele><time>2026-05-01T12:44:34.998Z</time></trkpt><trkpt lat="43.661752091598665" lon="12.281796991270141"><ele>486.0</ele><time>2026-05-01T12:44:35.998Z</time></trkpt><trkpt lat="43.66167376325607" lon="12.281981359944698"><ele>486.0</ele><time>2026-05-01T12:44:36.998Z</time></trkpt><trkpt lat="43.661599835591545" lon="12.28215752400381"><ele>486.0</ele><time>2026-05-01T12:44:37.998Z</time></trkpt><trkpt lat="43.661532591862944" lon="12.282331415134571"><ele>486.0</ele><time>2026-05-01T12:44:38.998Z</time></trkpt><trkpt lat="43.66147821024266" lon="12.282509833133986"><ele>486.0</ele><time>2026-05-01T12:44:39.998Z</time></trkpt><trkpt lat="43.66145031148565" lon="12.282703968416314"><ele>486.0</ele><time>2026-05-01T12:44:40.998Z</time></trkpt><trkpt lat="43.66144280957576" lon="12.282904821426856"><ele>486.0</ele><time>2026-05-01T12:44:41.998Z</time></trkpt><trkpt lat="43.66147289251002" lon="12.283092243569081"><ele>486.0</ele><time>2026-05-01T12:44:42.998Z</time></trkpt><trkpt lat="43.66151683582932" lon="12.283265041640831"><ele>485.33333333333337</ele><time>2026-05-01T12:44:43.998Z</time></trkpt><trkpt lat="43.661597997716264" lon="12.283426017112163"><ele>484.6666666666667</ele><time>2026-05-01T12:44:44.998Z</time></trkpt><trkpt lat="43.66170488885154" lon="12.283586414193577"><ele>484.0</ele><time>2026-05-01T12:44:45.998Z</time></trkpt><trkpt lat="43.66179687304997" lon="12.283759027743004"><ele>484.0</ele><time>2026-05-01T12:44:46.998Z</time></trkpt><trkpt lat="43.66187161261631" lon="12.283916133889587"><ele>484.0</ele><time>2026-05-01T12:44:47.998Z</time></trkpt><trkpt lat="43.66194169567948" lon="12.28405808016886"><ele>484.0</ele><time>2026-05-01T12:44:48.998Z</time></trkpt><trkpt lat="43.66199354884374" lon="12.28418852387465"><ele>484.0</ele><time>2026-05-01T12:44:49.998Z</time></trkpt><trkpt lat="43.662010632751915" lon="12.284324953061683"><ele>483.75</ele><time>2026-05-01T12:44:50.998Z</time></trkpt><trkpt lat="43.66198055367136" lon="12.284470897306699"><ele>483.5</ele><time>2026-05-01T12:44:51.998Z</time></trkpt><trkpt lat="43.661954985028565" lon="12.284630902964372"><ele>483.25</ele><time>2026-05-01T12:44:52.998Z</time></trkpt><trkpt lat="43.661982143193974" lon="12.284809187911119"><ele>483.0</ele><time>2026-05-01T12:44:53.998Z</time></trkpt><trkpt lat="43.66202829763594" lon="12.28499865470344"><ele>483.25</ele><time>2026-05-01T12:44:54.998Z</time></trkpt><trkpt lat="43.662077758325935" lon="12.285185974882857"><ele>483.5</ele><time>2026-05-01T12:44:56Z</time></trkpt><trkpt lat="43.66212897052617" lon="12.285375777614346"><ele>483.75</ele><time>2026-05-01T12:44:57Z</time></trkpt><trkpt lat="43.66218752406485" lon="12.285567417008703"><ele>484.0</ele><time>2026-05-01T12:44:58Z</time></trkpt><trkpt lat="43.662254337179625" lon="12.28575965405366"><ele>484.0</ele><time>2026-05-01T12:44:59Z</time></trkpt><trkpt lat="43.66233272990939" lon="12.285939921813485"><ele>484.0</ele><time>2026-05-01T12:45:00Z</time></trkpt><trkpt lat="43.66240359312583" lon="12.286116575867858"><ele>484.0</ele><time>2026-05-01T12:45:01Z</time></trkpt><trkpt lat="43.66245215838953" lon="12.28630036752086"><ele>484.0</ele><time>2026-05-01T12:45:02Z</time></trkpt><trkpt lat="43.66247930956497" lon="12.286491848208643"><ele>484.0</ele><time>2026-05-01T12:45:03Z</time></trkpt><trkpt lat="43.6624808567383" lon="12.286680733541772"><ele>484.0</ele><time>2026-05-01T12:45:04Z</time></trkpt><trkpt lat="43.662449875239766" lon="12.286871841965723"><ele>484.0</ele><time>2026-05-01T12:45:05Z</time></trkpt><trkpt lat="43.662403918074126" lon="12.287066697088271"><ele>484.0</ele><time>2026-05-01T12:45:06Z</time></trkpt><trkpt lat="43.66235903010488" lon="12.287270011487122"><ele>484.6666666666667</ele><time>2026-05-01T12:45:07Z</time></trkpt><trkpt lat="43.66232080910309" lon="12.28747913514891"><ele>485.33333333333337</ele><time>2026-05-01T12:45:08Z</time></trkpt><trkpt lat="43.66229716530756" lon="12.287691566623089"><ele>486.0</ele><time>2026-05-01T12:45:09Z</time></trkpt><trkpt lat="43.6622931052493" lon="12.287902653047475"><ele>487.5</ele><time>2026-05-01T12:45:10Z</time></trkpt><trkpt lat="43.662302560968236" lon="12.288099018077844"><ele>489.0</ele><time>2026-05-01T12:45:11Z</time></trkpt><trkpt lat="43.66230633075236" lon="12.28826940955948"><ele>490.5</ele><time>2026-05-01T12:45:12Z</time></trkpt><trkpt lat="43.662293164555145" lon="12.28842486639475"><ele>492.0</ele><time>2026-05-01T12:45:13Z</time></trkpt><trkpt lat="43.662257397384714" lon="12.288563842412195"><ele>492.0</ele><time>2026-05-01T12:45:14Z</time></trkpt><trkpt lat="43.66219804514577" lon="12.28868460637877"><ele>492.0</ele><time>2026-05-01T12:45:15Z</time></trkpt><trkpt lat="43.662127171528546" lon="12.288815591501804"><ele>492.0</ele><time>2026-05-01T12:45:16Z</time></trkpt><trkpt lat="43.6620593670972" lon="12.2889689781831"><ele>492.0</ele><time>2026-05-01T12:45:17Z</time></trkpt><trkpt lat="43.66200262200078" lon="12.289144312718832"><ele>488.75</ele><time>2026-05-01T12:45:18Z</time></trkpt><trkpt lat="43.66194174114872" lon="12.289306376537938"><ele>485.5</ele><time>2026-05-01T12:45:19Z</time></trkpt><trkpt lat="43.66185070393911" lon="12.289438083714705"><ele>482.25</ele><time>2026-05-01T12:45:20Z</time></trkpt><trkpt lat="43.66172664344463" lon="12.289535426370916"><ele>479.0</ele><time>2026-05-01T12:45:21Z</time></trkpt><trkpt lat="43.66158733991196" lon="12.289601945040975"><ele>479.0</ele><time>2026-05-01T12:45:22Z</time></trkpt><trkpt lat="43.661441084384535" lon="12.289662434684498"><ele>479.0</ele><time>2026-05-01T12:45:23Z</time></trkpt><trkpt lat="43.66129352623878" lon="12.289735070212569"><ele>479.0</ele><time>2026-05-01T12:45:24Z</time></trkpt><trkpt lat="43.6611581265801" lon="12.289804305935936"><ele>478.75</ele><time>2026-05-01T12:45:25Z</time></trkpt><trkpt lat="43.66102684253936" lon="12.289877015595408"><ele>478.5</ele><time>2026-05-01T12:45:26Z</time></trkpt><trkpt lat="43.660900238814556" lon="12.28995242488879"><ele>478.25</ele><time>2026-05-01T12:45:27Z</time></trkpt><trkpt lat="43.6607771351572" lon="12.290042117291103"><ele>478.0</ele><time>2026-05-01T12:45:28Z</time></trkpt><trkpt lat="43.66066771416392" lon="12.290162438783977"><ele>478.0</ele><time>2026-05-01T12:45:29Z</time></trkpt><trkpt lat="43.6605644353199" lon="12.29029670073372"><ele>478.0</ele><time>2026-05-01T12:45:30Z</time></trkpt><trkpt lat="43.66047753170422" lon="12.290452629141447"><ele>478.0</ele><time>2026-05-01T12:45:31Z</time></trkpt><trkpt lat="43.6604198108793" lon="12.290636947907045"><ele>478.0</ele><time>2026-05-01T12:45:32Z</time></trkpt><trkpt lat="43.66038553955745" lon="12.290836083336082"><ele>478.25</ele><time>2026-05-01T12:45:33Z</time></trkpt><trkpt lat="43.66035732000688" lon="12.291032111054363"><ele>478.5</ele><time>2026-05-01T12:45:34Z</time></trkpt><trkpt lat="43.66031411907536" lon="12.291207072601932"><ele>478.75</ele><time>2026-05-01T12:45:35Z</time></trkpt><trkpt lat="43.66023218493045" lon="12.291359340556664"><ele>479.0</ele><time>2026-05-01T12:45:36Z</time></trkpt><trkpt lat="43.660122871366944" lon="12.291474369124158"><ele>477.0</ele><time>2026-05-01T12:45:37Z</time></trkpt><trkpt lat="43.659997637002675" lon="12.291560463686874"><ele>475.0</ele><time>2026-05-01T12:45:37.999Z</time></trkpt><trkpt lat="43.65987479449495" lon="12.291667935892212"><ele>473.0</ele><time>2026-05-01T12:45:38.999Z</time></trkpt><trkpt lat="43.659769411125914" lon="12.291817160255576"><ele>471.0</ele><time>2026-05-01T12:45:39.999Z</time></trkpt><trkpt lat="43.6596732477976" lon="12.291988907193414"><ele>471.0</ele><time>2026-05-01T12:45:40.999Z</time></trkpt><trkpt lat="43.659579156439165" lon="12.29216835860027"><ele>471.0</ele><time>2026-05-01T12:45:41.999Z</time></trkpt><trkpt lat="43.65948182319764" lon="12.292349321381385"><ele>471.0</ele><time>2026-05-01T12:45:42.999Z</time></trkpt><trkpt lat="43.659391069712605" lon="12.292512018992436"><ele>469.0</ele><time>2026-05-01T12:45:43.999Z</time></trkpt><trkpt lat="43.659307948602034" lon="12.292653435816323"><ele>467.0</ele><time>2026-05-01T12:45:44.999Z</time></trkpt><trkpt lat="43.65921298668812" lon="12.292764885423072"><ele>465.0</ele><time>2026-05-01T12:45:45.999Z</time></trkpt><trkpt lat="43.65910868342593" lon="12.29282247356107"><ele>463.0</ele><time>2026-05-01T12:45:46.999Z</time></trkpt><trkpt lat="43.6590023154752" lon="12.292811070420024"><ele>463.0</ele><time>2026-05-01T12:45:47.999Z</time></trkpt><trkpt lat="43.65890714182208" lon="12.292739425353334"><ele>463.0</ele><time>2026-05-01T12:45:48.999Z</time></trkpt><trkpt lat="43.65881561458173" lon="12.292646815119738"><ele>463.0</ele><time>2026-05-01T12:45:49.999Z</time></trkpt><trkpt lat="43.65871294707776" lon="12.292566442701403"><ele>463.0</ele><time>2026-05-01T12:45:50.999Z</time></trkpt><trkpt lat="43.65859406321669" lon="12.292522495312353"><ele>465.0</ele><time>2026-05-01T12:45:51.999Z</time></trkpt><trkpt lat="43.65846909988117" lon="12.292527818766244"><ele>467.0</ele><time>2026-05-01T12:45:52.999Z</time></trkpt><trkpt lat="43.65835347810512" lon="12.292584671051989"><ele>469.0</ele><time>2026-05-01T12:45:53.999Z</time></trkpt><trkpt lat="43.65825360834009" lon="12.292681815942126"><ele>471.0</ele><time>2026-05-01T12:45:54.999Z</time></trkpt><trkpt lat="43.65817788772568" lon="12.29281625883044"><ele>471.0</ele><time>2026-05-01T12:45:55.999Z</time></trkpt><trkpt lat="43.658135926696914" lon="12.292970599142757"><ele>471.0</ele><time>2026-05-01T12:45:56.999Z</time></trkpt><trkpt lat="43.65813007956282" lon="12.293115931596255"><ele>471.0</ele><time>2026-05-01T12:45:57.999Z</time></trkpt><trkpt lat="43.65811984202349" lon="12.293254948009851"><ele>471.0</ele><time>2026-05-01T12:45:58.999Z</time></trkpt><trkpt lat="43.65811319871345" lon="12.293399993863671"><ele>471.0</ele><time>2026-05-01T12:45:59.999Z</time></trkpt><trkpt lat="43.65810705723567" lon="12.2935518439622"><ele>471.0</ele><time>2026-05-01T12:46:00.999Z</time></trkpt><trkpt lat="43.65809916667455" lon="12.293700036104017"><ele>471.0</ele><time>2026-05-01T12:46:01.999Z</time></trkpt><trkpt lat="43.65808942019874" lon="12.293838238881545"><ele>471.0</ele><time>2026-05-01T12:46:02.999Z</time></trkpt><trkpt lat="43.65808124573212" lon="12.29396155954162"><ele>471.0</ele><time>2026-05-01T12:46:03.999Z</time></trkpt><trkpt lat="43.65805792112591" lon="12.29407045938956"><ele>471.0</ele><time>2026-05-01T12:46:04.999Z</time></trkpt><trkpt lat="43.65800072771517" lon="12.294150496408912"><ele>471.20000000000005</ele><time>2026-05-01T12:46:05.999Z</time></trkpt><trkpt lat="43.65791466028636" lon="12.294203114453655"><ele>471.40000000000003</ele><time>2026-05-01T12:46:06.999Z</time></trkpt><trkpt lat="43.65781573614888" lon="12.29424399682173"><ele>471.6</ele><time>2026-05-01T12:46:07.999Z</time></trkpt><trkpt lat="43.65771038528891" lon="12.294287197317457"><ele>471.8</ele><time>2026-05-01T12:46:08.999Z</time></trkpt><trkpt lat="43.65759636983857" lon="12.294334913623494"><ele>472.0</ele><time>2026-05-01T12:46:09.999Z</time></trkpt><trkpt lat="43.657481799161175" lon="12.29439322991701"><ele>472.0</ele><time>2026-05-01T12:46:10.999Z</time></trkpt><trkpt lat="43.6573647117976" lon="12.29444686230001"><ele>472.0</ele><time>2026-05-01T12:46:11.999Z</time></trkpt><trkpt lat="43.657245316991386" lon="12.294497289324665"><ele>472.0</ele><time>2026-05-01T12:46:12.999Z</time></trkpt><trkpt lat="43.65712971401148" lon="12.294543706565044"><ele>472.0</ele><time>2026-05-01T12:46:13.999Z</time></trkpt><trkpt lat="43.65702633470815" lon="12.294585138324663"><ele>472.50000000000006</ele><time>2026-05-01T12:46:14.999Z</time></trkpt><trkpt lat="43.65693827425524" lon="12.294625248019967"><ele>473.0</ele><time>2026-05-01T12:46:15.999Z</time></trkpt><trkpt lat="43.65686625735057" lon="12.294665131655885"><ele>473.5</ele><time>2026-05-01T12:46:16.999Z</time></trkpt><trkpt lat="43.656797848927894" lon="12.294751350036737"><ele>474.0</ele><time>2026-05-01T12:46:19.999Z</time></trkpt><trkpt lat="43.65679636112144" lon="12.294852136921966"><ele>474.50000000000006</ele><time>2026-05-01T12:46:21.999Z</time></trkpt><trkpt lat="43.65683005558084" lon="12.294942021326552"><ele>475.0</ele><time>2026-05-01T12:46:22.999Z</time></trkpt><trkpt lat="43.65686714487536" lon="12.29502038453603"><ele>473.75</ele><time>2026-05-01T12:46:23.999Z</time></trkpt><trkpt lat="43.65695349086406" lon="12.29518051328671"><ele>472.5</ele><time>2026-05-01T12:46:25.999Z</time></trkpt><trkpt lat="43.657013248795096" lon="12.295286401445082"><ele>471.25</ele><time>2026-05-01T12:46:26.999Z</time></trkpt><trkpt lat="43.657079546611385" lon="12.29540442323489"><ele>470.0</ele><time>2026-05-01T12:46:27.999Z</time></trkpt><trkpt lat="43.65714174928054" lon="12.295518679159251"><ele>469.75</ele><time>2026-05-01T12:46:28.999Z</time></trkpt><trkpt lat="43.65721210095643" lon="12.295654170654075"><ele>469.5</ele><time>2026-05-01T12:46:29.999Z</time></trkpt><trkpt lat="43.65728601927558" lon="12.295806910882181"><ele>469.25</ele><time>2026-05-01T12:46:30.999Z</time></trkpt><trkpt lat="43.657350297203735" lon="12.29598348457035"><ele>469.0</ele><time>2026-05-01T12:46:31.998Z</time></trkpt><trkpt lat="43.65740373046643" lon="12.296176674743759"><ele>469.0</ele><time>2026-05-01T12:46:32.998Z</time></trkpt><trkpt lat="43.65744968999802" lon="12.29638225476839"><ele>469.0</ele><time>2026-05-01T12:46:33.998Z</time></trkpt><trkpt lat="43.65750418971784" lon="12.296602568993634"><ele>469.0</ele><time>2026-05-01T12:46:34.998Z</time></trkpt><trkpt lat="43.65756340579043" lon="12.296835348426793"><ele>469.6666666666667</ele><time>2026-05-01T12:46:35.998Z</time></trkpt><trkpt lat="43.657619760477196" lon="12.297065641912912"><ele>470.33333333333337</ele><time>2026-05-01T12:46:36.998Z</time></trkpt><trkpt lat="43.65767686460268" lon="12.297305295539537"><ele>471.0</ele><time>2026-05-01T12:46:37.998Z</time></trkpt><trkpt lat="43.65773389477833" lon="12.29755935306302"><ele>469.0</ele><time>2026-05-01T12:46:38.998Z</time></trkpt><trkpt lat="43.65778656105476" lon="12.297824274506434"><ele>467.0</ele><time>2026-05-01T12:46:39.998Z</time></trkpt><trkpt lat="43.65781560870168" lon="12.298094072616406"><ele>465.0</ele><time>2026-05-01T12:46:40.998Z</time></trkpt><trkpt lat="43.65781418516448" lon="12.298376357561002"><ele>465.0</ele><time>2026-05-01T12:46:41.998Z</time></trkpt><trkpt lat="43.65779388894682" lon="12.29866549002525"><ele>465.0</ele><time>2026-05-01T12:46:42.998Z</time></trkpt><trkpt lat="43.65777304156902" lon="12.298955673237918"><ele>465.0</ele><time>2026-05-01T12:46:43.998Z</time></trkpt><trkpt lat="43.65775298099193" lon="12.299242151414488"><ele>468.33333333333337</ele><time>2026-05-01T12:46:44.998Z</time></trkpt><trkpt lat="43.65773559340771" lon="12.299525045311857"><ele>471.6666666666667</ele><time>2026-05-01T12:46:45.998Z</time></trkpt><trkpt lat="43.657718405366026" lon="12.29980029005158"><ele>475.0</ele><time>2026-05-01T12:46:46.998Z</time></trkpt><trkpt lat="43.65770043055561" lon="12.300069550123302"><ele>475.33333333333337</ele><time>2026-05-01T12:46:47.998Z</time></trkpt><trkpt lat="43.65768360957185" lon="12.300334978416616"><ele>475.66666666666663</ele><time>2026-05-01T12:46:48.998Z</time></trkpt><trkpt lat="43.65767128550251" lon="12.300596590020717"><ele>476.0</ele><time>2026-05-01T12:46:49.998Z</time></trkpt><trkpt lat="43.657668320542115" lon="12.300856975470863"><ele>475.0</ele><time>2026-05-01T12:46:50.998Z</time></trkpt><trkpt lat="43.65766768229613" lon="12.301116362855868"><ele>474.0</ele><time>2026-05-01T12:46:51.998Z</time></trkpt><trkpt lat="43.65767462914102" lon="12.301378501068639"><ele>473.0</ele><time>2026-05-01T12:46:52.998Z</time></trkpt><trkpt lat="43.6576842821221" lon="12.30164267543425"><ele>472.66666666666663</ele><time>2026-05-01T12:46:53.998Z</time></trkpt><trkpt lat="43.657690824575816" lon="12.301909944419632"><ele>472.33333333333337</ele><time>2026-05-01T12:46:54.998Z</time></trkpt><trkpt lat="43.65769744434241" lon="12.30217798119033"><ele>472.0</ele><time>2026-05-01T12:46:55.998Z</time></trkpt><trkpt lat="43.65770486635163" lon="12.30244748018832"><ele>474.33333333333337</ele><time>2026-05-01T12:46:56.998Z</time></trkpt><trkpt lat="43.65771198447397" lon="12.302718483726883"><ele>476.66666666666663</ele><time>2026-05-01T12:46:57.998Z</time></trkpt><trkpt lat="43.657717573762895" lon="12.302990678717094"><ele>479.0</ele><time>2026-05-01T12:46:58.998Z</time></trkpt><trkpt lat="43.65772337104202" lon="12.30326886762423"><ele>479.3333333333333</ele><time>2026-05-01T12:46:59.998Z</time></trkpt><trkpt lat="43.657732691581096" lon="12.303546045181182"><ele>479.66666666666663</ele><time>2026-05-01T12:47:00.998Z</time></trkpt><trkpt lat="43.65773986484685" lon="12.303823396449827"><ele>480.0</ele><time>2026-05-01T12:47:02Z</time></trkpt><trkpt lat="43.65774941068449" lon="12.30409981876911"><ele>478.33333333333337</ele><time>2026-05-01T12:47:03Z</time></trkpt><trkpt lat="43.65775822463298" lon="12.304376178047026"><ele>476.6666666666667</ele><time>2026-05-01T12:47:04Z</time></trkpt><trkpt lat="43.65776331947663" lon="12.304651461620498"><ele>475.0</ele><time>2026-05-01T12:47:05Z</time></trkpt><trkpt lat="43.6577625847054" lon="12.304927557796566"><ele>474.0</ele><time>2026-05-01T12:47:06Z</time></trkpt><trkpt lat="43.65776800471071" lon="12.305201984867152"><ele>473.0</ele><time>2026-05-01T12:47:07Z</time></trkpt><trkpt lat="43.65777960367581" lon="12.305475641855326"><ele>472.0</ele><time>2026-05-01T12:47:08Z</time></trkpt><trkpt lat="43.65778820336331" lon="12.305755165411028"><ele>471.0</ele><time>2026-05-01T12:47:09Z</time></trkpt><trkpt lat="43.65779085654121" lon="12.306035912960777"><ele>470.0</ele><time>2026-05-01T12:47:10Z</time></trkpt><trkpt lat="43.657781368586804" lon="12.306320565997483"><ele>469.0</ele><time>2026-05-01T12:47:11Z</time></trkpt><trkpt lat="43.65774219760419" lon="12.30661170902042"><ele>468.0</ele><time>2026-05-01T12:47:12Z</time></trkpt><trkpt lat="43.65766419525214" lon="12.306895116195092"><ele>467.0</ele><time>2026-05-01T12:47:13Z</time></trkpt><trkpt lat="43.657576138573376" lon="12.30717443024065"><ele>466.0</ele><time>2026-05-01T12:47:14Z</time></trkpt><trkpt lat="43.65749425168419" lon="12.30745789957835"><ele>464.33333333333337</ele><time>2026-05-01T12:47:15Z</time></trkpt><trkpt lat="43.657411678588815" lon="12.307743225074974"><ele>462.66666666666663</ele><time>2026-05-01T12:47:16Z</time></trkpt><trkpt lat="43.65732665404904" lon="12.308030284248117"><ele>461.0</ele><time>2026-05-01T12:47:17Z</time></trkpt><trkpt lat="43.65724200572707" lon="12.308321983108303"><ele>458.5</ele><time>2026-05-01T12:47:18Z</time></trkpt><trkpt lat="43.65715801975735" lon="12.3086161123534"><ele>456.0</ele><time>2026-05-01T12:47:19Z</time></trkpt><trkpt lat="43.657072598952965" lon="12.308914641838742"><ele>451.5</ele><time>2026-05-01T12:47:20Z</time></trkpt><trkpt lat="43.6569840068381" lon="12.309213338771924"><ele>447.0</ele><time>2026-05-01T12:47:21Z</time></trkpt><trkpt lat="43.656893968884226" lon="12.309509639265366"><ele>459.5</ele><time>2026-05-01T12:47:22Z</time></trkpt><trkpt lat="43.65680616178263" lon="12.309803977464341"><ele>472.0</ele><time>2026-05-01T12:47:23Z</time></trkpt><trkpt lat="43.656722238903455" lon="12.310100247801918"><ele>472.0</ele><time>2026-05-01T12:47:24Z</time></trkpt><trkpt lat="43.65664424735031" lon="12.310396237571862"><ele>472.0</ele><time>2026-05-01T12:47:25Z</time></trkpt><trkpt lat="43.65658318186957" lon="12.310698279244148"><ele>469.6666666666667</ele><time>2026-05-01T12:47:26Z</time></trkpt><trkpt lat="43.65654416976434" lon="12.31100445420501"><ele>467.33333333333337</ele><time>2026-05-01T12:47:27Z</time></trkpt><trkpt lat="43.65651708994346" lon="12.311311801625482"><ele>465.0</ele><time>2026-05-01T12:47:28Z</time></trkpt><trkpt lat="43.65648916692728" lon="12.31162406328556"><ele>460.5</ele><time>2026-05-01T12:47:29Z</time></trkpt><trkpt lat="43.656461694046634" lon="12.31193884857839"><ele>456.0</ele><time>2026-05-01T12:47:30Z</time></trkpt><trkpt lat="43.65643590000238" lon="12.312255110718125"><ele>454.5</ele><time>2026-05-01T12:47:31Z</time></trkpt><trkpt lat="43.65640699752365" lon="12.312574458801183"><ele>453.0</ele><time>2026-05-01T12:47:32Z</time></trkpt><trkpt lat="43.65638014119523" lon="12.312896009364115"><ele>453.5</ele><time>2026-05-01T12:47:33Z</time></trkpt><trkpt lat="43.65635172510496" lon="12.313217667984421"><ele>454.0</ele><time>2026-05-01T12:47:34Z</time></trkpt><trkpt lat="43.656319875376376" lon="12.313535534695811"><ele>454.0</ele><time>2026-05-01T12:47:35Z</time></trkpt><trkpt lat="43.6562884232079" lon="12.313849046856616"><ele>454.0</ele><time>2026-05-01T12:47:36Z</time></trkpt><trkpt lat="43.656262390369456" lon="12.314155530521438"><ele>454.33333333333337</ele><time>2026-05-01T12:47:37Z</time></trkpt><trkpt lat="43.656236829237" lon="12.314458917629887"><ele>454.66666666666663</ele><time>2026-05-01T12:47:38Z</time></trkpt><trkpt lat="43.656210255202666" lon="12.314756087867192"><ele>455.0</ele><time>2026-05-01T12:47:39Z</time></trkpt><trkpt lat="43.65618380074423" lon="12.31504848787392"><ele>455.3333333333333</ele><time>2026-05-01T12:47:40Z</time></trkpt><trkpt lat="43.656161326865664" lon="12.315335774916102"><ele>455.66666666666663</ele><time>2026-05-01T12:47:41Z</time></trkpt><trkpt lat="43.656140441815936" lon="12.315617079883936"><ele>456.0</ele><time>2026-05-01T12:47:41.999Z</time></trkpt><trkpt lat="43.656112390664234" lon="12.31588610111891"><ele>456.0</ele><time>2026-05-01T12:47:42.999Z</time></trkpt><trkpt lat="43.65607140862824" lon="12.31613966258171"><ele>456.0</ele><time>2026-05-01T12:47:43.999Z</time></trkpt><trkpt lat="43.6560002353948" lon="12.316379154536374"><ele>456.0</ele><time>2026-05-01T12:47:44.999Z</time></trkpt><trkpt lat="43.65590278842998" lon="12.316613405541373"><ele>456.0</ele><time>2026-05-01T12:47:45.999Z</time></trkpt><trkpt lat="43.655795618366966" lon="12.316849757671307"><ele>456.0</ele><time>2026-05-01T12:47:46.999Z</time></trkpt><trkpt lat="43.65568915644938" lon="12.317092601025287"><ele>456.0</ele><time>2026-05-01T12:47:47.999Z</time></trkpt><trkpt lat="43.65558308318212" lon="12.317338952235197"><ele>454.0</ele><time>2026-05-01T12:47:48.999Z</time></trkpt><trkpt lat="43.6554716409871" lon="12.317589215682649"><ele>452.0</ele><time>2026-05-01T12:47:49.999Z</time></trkpt><trkpt lat="43.655360078257026" lon="12.317844742576785"><ele>450.0</ele><time>2026-05-01T12:47:50.999Z</time></trkpt><trkpt lat="43.65525062207656" lon="12.318104588676794"><ele>450.0</ele><time>2026-05-01T12:47:51.999Z</time></trkpt><trkpt lat="43.65513726756364" lon="12.31836476749425"><ele>450.0</ele><time>2026-05-01T12:47:52.999Z</time></trkpt><trkpt lat="43.655018276952504" lon="12.318624780791426"><ele>450.0</ele><time>2026-05-01T12:47:53.999Z</time></trkpt><trkpt lat="43.65490156668614" lon="12.318892118822776"><ele>448.0</ele><time>2026-05-01T12:47:54.999Z</time></trkpt><trkpt lat="43.654782255738176" lon="12.319161593003074"><ele>446.0</ele><time>2026-05-01T12:47:55.999Z</time></trkpt><trkpt lat="43.654661305994416" lon="12.319430390012553"><ele>446.0</ele><time>2026-05-01T12:47:56.999Z</time></trkpt><trkpt lat="43.65454106163248" lon="12.31969668763873"><ele>446.0</ele><time>2026-05-01T12:47:57.999Z</time></trkpt><trkpt lat="43.6544225785405" lon="12.319962141667494"><ele>446.3333333333333</ele><time>2026-05-01T12:47:58.999Z</time></trkpt><trkpt lat="43.65430703547193" lon="12.320226166798584"><ele>446.66666666666663</ele><time>2026-05-01T12:47:59.999Z</time></trkpt><trkpt lat="43.65419482190905" lon="12.320485553322955"><ele>447.0</ele><time>2026-05-01T12:48:00.999Z</time></trkpt><trkpt lat="43.654087889029746" lon="12.320740894774373"><ele>445.0</ele><time>2026-05-01T12:48:01.999Z</time></trkpt><trkpt lat="43.65398348530254" lon="12.320991781242189"><ele>443.0</ele><time>2026-05-01T12:48:02.999Z</time></trkpt><trkpt lat="43.65387140694928" lon="12.321230989945152"><ele>441.0</ele><time>2026-05-01T12:48:03.999Z</time></trkpt><trkpt lat="43.65375422559288" lon="12.32145786173451"><ele>438.0</ele><time>2026-05-01T12:48:04.999Z</time></trkpt><trkpt lat="43.65363014021779" lon="12.32165968438785"><ele>435.0</ele><time>2026-05-01T12:48:05.999Z</time></trkpt><trkpt lat="43.65351191297626" lon="12.321867731037537"><ele>432.0</ele><time>2026-05-01T12:48:06.999Z</time></trkpt><trkpt lat="43.65340649148805" lon="12.322104615709586"><ele>436.66666666666663</ele><time>2026-05-01T12:48:07.999Z</time></trkpt><trkpt lat="43.65333405907955" lon="12.322367585291675"><ele>441.3333333333333</ele><time>2026-05-01T12:48:08.999Z</time></trkpt><trkpt lat="43.65327069569087" lon="12.322637012759097"><ele>446.0</ele><time>2026-05-01T12:48:09.999Z</time></trkpt><trkpt lat="43.653210703282596" lon="12.322905870342774"><ele>443.0</ele><time>2026-05-01T12:48:10.999Z</time></trkpt><trkpt lat="43.65314356446005" lon="12.323173224701726"><ele>440.0</ele><time>2026-05-01T12:48:11.999Z</time></trkpt><trkpt lat="43.65306017565316" lon="12.323439138223971"><ele>437.0</ele><time>2026-05-01T12:48:12.999Z</time></trkpt><trkpt lat="43.65296467103693" lon="12.323705357376026"><ele>435.3333333333333</ele><time>2026-05-01T12:48:13.999Z</time></trkpt><trkpt lat="43.65285686171485" lon="12.323966339491092"><ele>433.66666666666663</ele><time>2026-05-01T12:48:14.999Z</time></trkpt><trkpt lat="43.65274588754638" lon="12.324224825900544"><ele>432.0</ele><time>2026-05-01T12:48:15.999Z</time></trkpt><trkpt lat="43.652635431943565" lon="12.32448788276893"><ele>433.33333333333337</ele><time>2026-05-01T12:48:16.999Z</time></trkpt><trkpt lat="43.652525210106795" lon="12.324752360751168"><ele>434.6666666666667</ele><time>2026-05-01T12:48:17.999Z</time></trkpt><trkpt lat="43.65241723773248" lon="12.325012141845386"><ele>436.0</ele><time>2026-05-01T12:48:18.999Z</time></trkpt><trkpt lat="43.65231133446858" lon="12.32527165125578"><ele>436.0</ele><time>2026-05-01T12:48:19.999Z</time></trkpt><trkpt lat="43.65220660033362" lon="12.325526516048681"><ele>436.0</ele><time>2026-05-01T12:48:20.999Z</time></trkpt><trkpt lat="43.65210365636218" lon="12.32578080189824"><ele>436.0</ele><time>2026-05-01T12:48:21.999Z</time></trkpt><trkpt lat="43.65199824945672" lon="12.326029125091857"><ele>436.6666666666667</ele><time>2026-05-01T12:48:22.999Z</time></trkpt><trkpt lat="43.6518936593287" lon="12.32627208977023"><ele>437.33333333333337</ele><time>2026-05-01T12:48:23.999Z</time></trkpt><trkpt lat="43.651788826309414" lon="12.326518656906396"><ele>438.0</ele><time>2026-05-01T12:48:24.999Z</time></trkpt><trkpt lat="43.65168712136433" lon="12.326763217706803"><ele>436.66666666666663</ele><time>2026-05-01T12:48:25.999Z</time></trkpt><trkpt lat="43.651586811125014" lon="12.327004060782608"><ele>435.3333333333333</ele><time>2026-05-01T12:48:26.999Z</time></trkpt><trkpt lat="43.65148728081153" lon="12.327245524355728"><ele>434.0</ele><time>2026-05-01T12:48:27.999Z</time></trkpt><trkpt lat="43.651387626417716" lon="12.327484243570302"><ele>433.66666666666663</ele><time>2026-05-01T12:48:28.999Z</time></trkpt><trkpt lat="43.65128899583367" lon="12.327722116452438"><ele>433.33333333333337</ele><time>2026-05-01T12:48:29.999Z</time></trkpt><trkpt lat="43.65119130127001" lon="12.32795309274475"><ele>433.0</ele><time>2026-05-01T12:48:30.999Z</time></trkpt><trkpt lat="43.65109292103559" lon="12.328178436254511"><ele>433.0</ele><time>2026-05-01T12:48:31.999Z</time></trkpt><trkpt lat="43.65099795009791" lon="12.328402745631585"><ele>433.0</ele><time>2026-05-01T12:48:32.999Z</time></trkpt><trkpt lat="43.65090113840726" lon="12.328620797787849"><ele>433.0</ele><time>2026-05-01T12:48:33.999Z</time></trkpt><trkpt lat="43.650798237081425" lon="12.32883033773599"><ele>432.0</ele><time>2026-05-01T12:48:34.999Z</time></trkpt><trkpt lat="43.650681379869" lon="12.329028365890581"><ele>431.0</ele><time>2026-05-01T12:48:35.999Z</time></trkpt><trkpt lat="43.65055095735901" lon="12.329211539097564"><ele>430.0</ele><time>2026-05-01T12:48:36.998Z</time></trkpt><trkpt lat="43.6504148665426" lon="12.329387230981336"><ele>430.6666666666667</ele><time>2026-05-01T12:48:37.998Z</time></trkpt><trkpt lat="43.65027579496872" lon="12.329558077162517"><ele>431.33333333333337</ele><time>2026-05-01T12:48:38.998Z</time></trkpt><trkpt lat="43.650135966243575" lon="12.329729086990096"><ele>432.0</ele><time>2026-05-01T12:48:39.998Z</time></trkpt><trkpt lat="43.650003732090546" lon="12.329895786578845"><ele>432.0</ele><time>2026-05-01T12:48:40.998Z</time></trkpt><trkpt lat="43.64987996049911" lon="12.33005043472389"><ele>432.0</ele><time>2026-05-01T12:48:41.998Z</time></trkpt><trkpt lat="43.649761638073095" lon="12.33019518011687"><ele>432.0</ele><time>2026-05-01T12:48:42.998Z</time></trkpt><trkpt lat="43.6496506174286" lon="12.330334269940078"><ele>432.0</ele><time>2026-05-01T12:48:43.998Z</time></trkpt><trkpt lat="43.64954681863154" lon="12.330465093418985"><ele>432.0</ele><time>2026-05-01T12:48:44.998Z</time></trkpt><trkpt lat="43.64944353239895" lon="12.330583797219191"><ele>432.0</ele><time>2026-05-01T12:48:45.998Z</time></trkpt><trkpt lat="43.649347684320524" lon="12.33069899134744"><ele>432.0</ele><time>2026-05-01T12:48:46.998Z</time></trkpt><trkpt lat="43.64925897051346" lon="12.330810126890746"><ele>433.0</ele><time>2026-05-01T12:48:47.998Z</time></trkpt><trkpt lat="43.64917291031188" lon="12.330923897103634"><ele>434.0</ele><time>2026-05-01T12:48:48.998Z</time></trkpt><trkpt lat="43.64908483973739" lon="12.33103757226404"><ele>435.0</ele><time>2026-05-01T12:48:49.998Z</time></trkpt><trkpt lat="43.64899365050194" lon="12.33114532745855"><ele>436.0</ele><time>2026-05-01T12:48:50.998Z</time></trkpt><trkpt lat="43.648903589777" lon="12.331256280260344"><ele>436.0</ele><time>2026-05-01T12:48:51.998Z</time></trkpt><trkpt lat="43.64881372672875" lon="12.331368111937904"><ele>436.0</ele><time>2026-05-01T12:48:52.998Z</time></trkpt><trkpt lat="43.648721422056084" lon="12.331478394795326"><ele>436.0</ele><time>2026-05-01T12:48:53.998Z</time></trkpt><trkpt lat="43.64862501075431" lon="12.33158572186968"><ele>436.0</ele><time>2026-05-01T12:48:54.998Z</time></trkpt><trkpt lat="43.64853323096639" lon="12.331692254744935"><ele>435.25</ele><time>2026-05-01T12:48:55.998Z</time></trkpt><trkpt lat="43.64844194073006" lon="12.33180399075615"><ele>434.5</ele><time>2026-05-01T12:48:56.998Z</time></trkpt><trkpt lat="43.64835535521017" lon="12.33192309838853"><ele>433.75</ele><time>2026-05-01T12:48:57.998Z</time></trkpt><trkpt lat="43.64826655601784" lon="12.332041806306334"><ele>433.0</ele><time>2026-05-01T12:48:58.998Z</time></trkpt><trkpt lat="43.648176222742784" lon="12.332159384120144"><ele>432.25</ele><time>2026-05-01T12:48:59.998Z</time></trkpt><trkpt lat="43.6480814179554" lon="12.332277519968079"><ele>431.5</ele><time>2026-05-01T12:49:00.998Z</time></trkpt><trkpt lat="43.647989360088076" lon="12.33239022332317"><ele>430.75</ele><time>2026-05-01T12:49:01.998Z</time></trkpt><trkpt lat="43.6478950793492" lon="12.332507297948574"><ele>430.0</ele><time>2026-05-01T12:49:02.998Z</time></trkpt><trkpt lat="43.6478004046622" lon="12.332624297014352"><ele>429.5</ele><time>2026-05-01T12:49:03.998Z</time></trkpt><trkpt lat="43.647705518765086" lon="12.332740880689045"><ele>429.0</ele><time>2026-05-01T12:49:04.998Z</time></trkpt><trkpt lat="43.64761182863881" lon="12.332855956074944"><ele>428.5</ele><time>2026-05-01T12:49:05.998Z</time></trkpt><trkpt lat="43.647514947656866" lon="12.332974633475493"><ele>428.0</ele><time>2026-05-01T12:49:06.998Z</time></trkpt><trkpt lat="43.64741823997404" lon="12.333095137149023"><ele>428.0</ele><time>2026-05-01T12:49:08Z</time></trkpt><trkpt lat="43.64731790821022" lon="12.333214726687116"><ele>428.0</ele><time>2026-05-01T12:49:09Z</time></trkpt><trkpt lat="43.647217338751965" lon="12.333340208404051"><ele>428.0</ele><time>2026-05-01T12:49:10Z</time></trkpt><trkpt lat="43.647116558375835" lon="12.333468450899494"><ele>428.0</ele><time>2026-05-01T12:49:11Z</time></trkpt><trkpt lat="43.647017320688974" lon="12.333595678553534"><ele>428.5</ele><time>2026-05-01T12:49:12Z</time></trkpt><trkpt lat="43.646913481943535" lon="12.33372261443638"><ele>429.0</ele><time>2026-05-01T12:49:13Z</time></trkpt><trkpt lat="43.64680851537189" lon="12.333853565361164"><ele>429.5</ele><time>2026-05-01T12:49:14Z</time></trkpt><trkpt lat="43.64670008738095" lon="12.333984574528143"><ele>430.0</ele><time>2026-05-01T12:49:15Z</time></trkpt><trkpt lat="43.64659314659155" lon="12.334116623021814"><ele>430.0</ele><time>2026-05-01T12:49:16Z</time></trkpt><trkpt lat="43.646486570821956" lon="12.334250320054414"><ele>430.0</ele><time>2026-05-01T12:49:17Z</time></trkpt><trkpt lat="43.64637812443741" lon="12.334381653100579"><ele>430.0</ele><time>2026-05-01T12:49:18Z</time></trkpt><trkpt lat="43.646266191529165" lon="12.334510351148024"><ele>430.0</ele><time>2026-05-01T12:49:19Z</time></trkpt><trkpt lat="43.64615805579023" lon="12.334645760056597"><ele>429.75</ele><time>2026-05-01T12:49:20Z</time></trkpt><trkpt lat="43.64605483293203" lon="12.334781601983854"><ele>429.5</ele><time>2026-05-01T12:49:21Z</time></trkpt><trkpt lat="43.64596274102663" lon="12.33492757655904"><ele>429.25</ele><time>2026-05-01T12:49:22Z</time></trkpt><trkpt lat="43.64587532059047" lon="12.335073695368878"><ele>429.0</ele><time>2026-05-01T12:49:23Z</time></trkpt><trkpt lat="43.645799289753846" lon="12.335230550428916"><ele>429.0</ele><time>2026-05-01T12:49:24Z</time></trkpt><trkpt lat="43.64573118348936" lon="12.335392939000876"><ele>429.0</ele><time>2026-05-01T12:49:25Z</time></trkpt><trkpt lat="43.64568725090661" lon="12.335570836546331"><ele>429.0</ele><time>2026-05-01T12:49:26Z</time></trkpt><trkpt lat="43.645653207138345" lon="12.335761258349718"><ele>429.0</ele><time>2026-05-01T12:49:27Z</time></trkpt><trkpt lat="43.645635052334654" lon="12.335961255182081"><ele>428.66666666666663</ele><time>2026-05-01T12:49:28Z</time></trkpt><trkpt lat="43.64563273731619" lon="12.336165695810001"><ele>428.3333333333333</ele><time>2026-05-01T12:49:29Z</time></trkpt><trkpt lat="43.64564405813718" lon="12.336375335620605"><ele>428.0</ele><time>2026-05-01T12:49:30Z</time></trkpt><trkpt lat="43.6456629157812" lon="12.336582441203374"><ele>427.25</ele><time>2026-05-01T12:49:31Z</time></trkpt><trkpt lat="43.64568910374661" lon="12.336778176158044"><ele>426.5</ele><time>2026-05-01T12:49:32Z</time></trkpt><trkpt lat="43.645734787017176" lon="12.336957445596212"><ele>425.75</ele><time>2026-05-01T12:49:33Z</time></trkpt><trkpt lat="43.64579039228762" lon="12.337132488015124"><ele>425.0</ele><time>2026-05-01T12:49:34Z</time></trkpt><trkpt lat="43.64587530451184" lon="12.337291199650872"><ele>425.3333333333333</ele><time>2026-05-01T12:49:35Z</time></trkpt><trkpt lat="43.6459887653643" lon="12.337422843932927"><ele>425.66666666666663</ele><time>2026-05-01T12:49:36Z</time></trkpt><trkpt lat="43.646116327842044" lon="12.337534053897864"><ele>426.0</ele><time>2026-05-01T12:49:37Z</time></trkpt><trkpt lat="43.64625218771892" lon="12.337630893170449"><ele>426.0</ele><time>2026-05-01T12:49:38Z</time></trkpt><trkpt lat="43.64639283664855" lon="12.337715953314822"><ele>426.0</ele><time>2026-05-01T12:49:39Z</time></trkpt><trkpt lat="43.646534659268504" lon="12.337813799140028"><ele>426.0</ele><time>2026-05-01T12:49:40Z</time></trkpt><trkpt lat="43.64667573742915" lon="12.337924038897398"><ele>423.33333333333337</ele><time>2026-05-01T12:49:41Z</time></trkpt><trkpt lat="43.64681433575979" lon="12.338052483685592"><ele>420.6666666666667</ele><time>2026-05-01T12:49:42Z</time></trkpt><trkpt lat="43.6469492302604" lon="12.338205536352582"><ele>418.0</ele><time>2026-05-01T12:49:42.999Z</time></trkpt><trkpt lat="43.64707677045126" lon="12.338378097380245"><ele>418.0</ele><time>2026-05-01T12:49:43.999Z</time></trkpt><trkpt lat="43.647195180877084" lon="12.338563123584485"><ele>418.0</ele><time>2026-05-01T12:49:44.999Z</time></trkpt><trkpt lat="43.647301990014896" lon="12.33876360563213"><ele>418.0</ele><time>2026-05-01T12:49:45.999Z</time></trkpt><trkpt lat="43.647399775184816" lon="12.338971315547454"><ele>416.6666666666667</ele><time>2026-05-01T12:49:46.999Z</time></trkpt><trkpt lat="43.64748478501754" lon="12.339194591861057"><ele>415.33333333333337</ele><time>2026-05-01T12:49:47.999Z</time></trkpt><trkpt lat="43.6475594247126" lon="12.339428056405634"><ele>414.0</ele><time>2026-05-01T12:49:48.999Z</time></trkpt><trkpt lat="43.64761844724951" lon="12.339671812672497"><ele>412.66666666666663</ele><time>2026-05-01T12:49:49.999Z</time></trkpt><trkpt lat="43.647653597976756" lon="12.339931675874107"><ele>411.3333333333333</ele><time>2026-05-01T12:49:50.999Z</time></trkpt><trkpt lat="43.64767784390308" lon="12.340193360095475"><ele>410.0</ele><time>2026-05-01T12:49:51.999Z</time></trkpt><trkpt lat="43.64769551905542" lon="12.340462074794429"><ele>409.0</ele><time>2026-05-01T12:49:52.999Z</time></trkpt><trkpt lat="43.64770780017374" lon="12.340727358521354"><ele>408.0</ele><time>2026-05-01T12:49:53.999Z</time></trkpt><trkpt lat="43.647716123099634" lon="12.340990898093224"><ele>407.0</ele><time>2026-05-01T12:49:54.999Z</time></trkpt><trkpt lat="43.64771978698287" lon="12.34125554487268"><ele>407.0</ele><time>2026-05-01T12:49:55.999Z</time></trkpt><trkpt lat="43.64772479425527" lon="12.341518821617134"><ele>407.0</ele><time>2026-05-01T12:49:56.999Z</time></trkpt><trkpt lat="43.64773414607812" lon="12.341777692213732"><ele>407.0</ele><time>2026-05-01T12:49:57.999Z</time></trkpt><trkpt lat="43.64774238868021" lon="12.342034130114277"><ele>408.0</ele><time>2026-05-01T12:49:58.999Z</time></trkpt><trkpt lat="43.647750479765385" lon="12.342289310315731"><ele>409.0</ele><time>2026-05-01T12:49:59.999Z</time></trkpt><trkpt lat="43.6477620522648" lon="12.342541152541445"><ele>410.0</ele><time>2026-05-01T12:50:00.999Z</time></trkpt><trkpt lat="43.64777938935097" lon="12.342783124496043"><ele>410.0</ele><time>2026-05-01T12:50:01.999Z</time></trkpt><trkpt lat="43.64779153887511" lon="12.343016154413082"><ele>410.0</ele><time>2026-05-01T12:50:02.999Z</time></trkpt><trkpt lat="43.6477931521182" lon="12.34323690598122"><ele>410.0</ele><time>2026-05-01T12:50:03.999Z</time></trkpt><trkpt lat="43.64776759007823" lon="12.343442511518663"><ele>410.0</ele><time>2026-05-01T12:50:04.999Z</time></trkpt><trkpt lat="43.64772464396099" lon="12.34364394120316"><ele>410.0</ele><time>2026-05-01T12:50:05.999Z</time></trkpt><trkpt lat="43.64766667075729" lon="12.34384067381612"><ele>410.0</ele><time>2026-05-01T12:50:06.999Z</time></trkpt><trkpt lat="43.6475928355576" lon="12.344031499108254"><ele>410.3333333333333</ele><time>2026-05-01T12:50:07.999Z</time></trkpt><trkpt lat="43.647505501955756" lon="12.34421024656124"><ele>410.66666666666663</ele><time>2026-05-01T12:50:08.999Z</time></trkpt><trkpt lat="43.64741759689546" lon="12.344392595921919"><ele>411.0</ele><time>2026-05-01T12:50:09.999Z</time></trkpt><trkpt lat="43.64732670764653" lon="12.344577892580292"><ele>409.66666666666663</ele><time>2026-05-01T12:50:10.999Z</time></trkpt><trkpt lat="43.64723614979409" lon="12.344762958382642"><ele>408.3333333333333</ele><time>2026-05-01T12:50:11.999Z</time></trkpt><trkpt lat="43.64714573216487" lon="12.34495696726014"><ele>407.0</ele><time>2026-05-01T12:50:12.999Z</time></trkpt><trkpt lat="43.64705227471947" lon="12.345151733462613"><ele>408.0</ele><time>2026-05-01T12:50:13.999Z</time></trkpt><trkpt lat="43.64695159455089" lon="12.34534838268906"><ele>409.0</ele><time>2026-05-01T12:50:14.999Z</time></trkpt><trkpt lat="43.64685255395532" lon="12.345550525643832"><ele>410.0</ele><time>2026-05-01T12:50:15.999Z</time></trkpt><trkpt lat="43.64676409750502" lon="12.345751481981571"><ele>408.3333333333333</ele><time>2026-05-01T12:50:16.999Z</time></trkpt><trkpt lat="43.646702377399826" lon="12.345968247689632"><ele>406.66666666666663</ele><time>2026-05-01T12:50:17.999Z</time></trkpt><trkpt lat="43.64668179391712" lon="12.34621610186649"><ele>405.0</ele><time>2026-05-01T12:50:18.999Z</time></trkpt><trkpt lat="43.6466945820342" lon="12.346479489456204"><ele>405.0</ele><time>2026-05-01T12:50:19.999Z</time></trkpt><trkpt lat="43.64670959198373" lon="12.346748173399867"><ele>405.0</ele><time>2026-05-01T12:50:20.999Z</time></trkpt><trkpt lat="43.64671944178915" lon="12.347018387891165"><ele>405.0</ele><time>2026-05-01T12:50:21.999Z</time></trkpt><trkpt lat="43.646724719738806" lon="12.347296906340821"><ele>405.66666666666663</ele><time>2026-05-01T12:50:22.999Z</time></trkpt><trkpt lat="43.64673151662843" lon="12.347575710329108"><ele>406.3333333333333</ele><time>2026-05-01T12:50:23.999Z</time></trkpt><trkpt lat="43.646737768972585" lon="12.347846105141802"><ele>407.0</ele><time>2026-05-01T12:50:24.999Z</time></trkpt><trkpt lat="43.646745343385284" lon="12.348117886087763"><ele>407.0</ele><time>2026-05-01T12:50:25.999Z</time></trkpt><trkpt lat="43.64676329663572" lon="12.348393399948309"><ele>407.0</ele><time>2026-05-01T12:50:26.999Z</time></trkpt><trkpt lat="43.64680442043652" lon="12.348667227146576"><ele>407.0</ele><time>2026-05-01T12:50:27.999Z</time></trkpt><trkpt lat="43.646872702314546" lon="12.348930944371475"><ele>408.3333333333333</ele><time>2026-05-01T12:50:28.999Z</time></trkpt><trkpt lat="43.64695684922854" lon="12.349182853564622"><ele>409.66666666666663</ele><time>2026-05-01T12:50:29.999Z</time></trkpt><trkpt lat="43.64704815295501" lon="12.349428826841466"><ele>411.0</ele><time>2026-05-01T12:50:30.999Z</time></trkpt><trkpt lat="43.64713150054729" lon="12.349673949558188"><ele>408.0</ele><time>2026-05-01T12:50:31.999Z</time></trkpt><trkpt lat="43.64720931580663" lon="12.349914042561489"><ele>405.0</ele><time>2026-05-01T12:50:32.999Z</time></trkpt><trkpt lat="43.64728648893831" lon="12.350145174984748"><ele>402.0</ele><time>2026-05-01T12:50:33.999Z</time></trkpt><trkpt lat="43.64735193545359" lon="12.350383198700706"><ele>402.66666666666663</ele><time>2026-05-01T12:50:34.999Z</time></trkpt><trkpt lat="43.64740120671698" lon="12.350641046218835"><ele>403.3333333333333</ele><time>2026-05-01T12:50:35.999Z</time></trkpt><trkpt lat="43.647436805905805" lon="12.350935772505375"><ele>404.0</ele><time>2026-05-01T12:50:36.999Z</time></trkpt><trkpt lat="43.6474613283268" lon="12.35126958279955"><ele>403.0</ele><time>2026-05-01T12:50:37.999Z</time></trkpt><trkpt lat="43.64748658929589" lon="12.351630502033176"><ele>402.0</ele><time>2026-05-01T12:50:38.999Z</time></trkpt><trkpt lat="43.647526444656805" lon="12.352015868739773"><ele>403.0</ele><time>2026-05-01T12:50:39.998Z</time></trkpt><trkpt lat="43.6475597079428" lon="12.352424749140901"><ele>404.0</ele><time>2026-05-01T12:50:40.998Z</time></trkpt><trkpt lat="43.64758157693963" lon="12.352832099987886"><ele>405.0</ele><time>2026-05-01T12:50:41.998Z</time></trkpt><trkpt lat="43.647599107872715" lon="12.353228261107947"><ele>406.0</ele><time>2026-05-01T12:50:42.998Z</time></trkpt><trkpt lat="43.647619791161226" lon="12.35362321431316"><ele>405.0</ele><time>2026-05-01T12:50:43.998Z</time></trkpt><trkpt lat="43.647643804944025" lon="12.354005193429547"><ele>404.0</ele><time>2026-05-01T12:50:44.998Z</time></trkpt><trkpt lat="43.64767095758364" lon="12.354383053220921"><ele>403.0</ele><time>2026-05-01T12:50:45.998Z</time></trkpt><trkpt lat="43.647707101031244" lon="12.354758488426087"><ele>402.0</ele><time>2026-05-01T12:50:46.998Z</time></trkpt><trkpt lat="43.64775602835194" lon="12.355129469253269"><ele>402.5</ele><time>2026-05-01T12:50:47.998Z</time></trkpt><trkpt lat="43.64781371881583" lon="12.355496589982382"><ele>403.0</ele><time>2026-05-01T12:50:48.998Z</time></trkpt><trkpt lat="43.6478705406781" lon="12.35586552588409"><ele>401.5</ele><time>2026-05-01T12:50:49.998Z</time></trkpt><trkpt lat="43.64792601069896" lon="12.35623377516184"><ele>400.0</ele><time>2026-05-01T12:50:50.998Z</time></trkpt><trkpt lat="43.647986218933056" lon="12.356602840237928"><ele>399.5</ele><time>2026-05-01T12:50:51.998Z</time></trkpt><trkpt lat="43.64804429376077" lon="12.356975166313868"><ele>399.0</ele><time>2026-05-01T12:50:52.998Z</time></trkpt><trkpt lat="43.64810329518482" lon="12.357347265727036"><ele>399.0</ele><time>2026-05-01T12:50:53.998Z</time></trkpt><trkpt lat="43.64816376961927" lon="12.357717459340881"><ele>399.0</ele><time>2026-05-01T12:50:54.998Z</time></trkpt><trkpt lat="43.64822935049662" lon="12.35808549765697"><ele>398.0</ele><time>2026-05-01T12:50:55.998Z</time></trkpt><trkpt lat="43.64829725159103" lon="12.358452166331467"><ele>397.0</ele><time>2026-05-01T12:50:56.998Z</time></trkpt><trkpt lat="43.648359824152706" lon="12.358814431369375"><ele>396.5</ele><time>2026-05-01T12:50:57.998Z</time></trkpt><trkpt lat="43.64841539405388" lon="12.35915503335798"><ele>396.0</ele><time>2026-05-01T12:50:58.998Z</time></trkpt><trkpt lat="43.64846693907465" lon="12.359475367649848"><ele>396.0</ele><time>2026-05-01T12:50:59.998Z</time></trkpt><trkpt lat="43.648516995704306" lon="12.359777702178675"><ele>396.0</ele><time>2026-05-01T12:51:00.998Z</time></trkpt><trkpt lat="43.64855381128487" lon="12.36007040596115"><ele>396.0</ele><time>2026-05-01T12:51:01.998Z</time></trkpt><trkpt lat="43.64857129612027" lon="12.360362206851986"><ele>395.0</ele><time>2026-05-01T12:51:02.998Z</time></trkpt><trkpt lat="43.64858145871644" lon="12.360656460764208"><ele>394.0</ele><time>2026-05-01T12:51:03.998Z</time></trkpt><trkpt lat="43.64861483210641" lon="12.360945863126803"><ele>393.0</ele><time>2026-05-01T12:51:04.998Z</time></trkpt><trkpt lat="43.648689486284866" lon="12.36122798684169"><ele>394.0</ele><time>2026-05-01T12:51:05.998Z</time></trkpt><trkpt lat="43.648803557007305" lon="12.361497645161702"><ele>395.0</ele><time>2026-05-01T12:51:06.998Z</time></trkpt><trkpt lat="43.64892175468147" lon="12.361765910661298"><ele>395.0</ele><time>2026-05-01T12:51:07.998Z</time></trkpt><trkpt lat="43.64902177560422" lon="12.36205234088526"><ele>395.0</ele><time>2026-05-01T12:51:08.998Z</time></trkpt><trkpt lat="43.64910111216735" lon="12.362358271771333"><ele>395.5</ele><time>2026-05-01T12:51:09.998Z</time></trkpt><trkpt lat="43.64918085544399" lon="12.362669108028578"><ele>396.0</ele><time>2026-05-01T12:51:10.998Z</time></trkpt><trkpt lat="43.64926212608586" lon="12.362987887949357"><ele>396.5</ele><time>2026-05-01T12:51:11.998Z</time></trkpt><trkpt lat="43.64934586836322" lon="12.363313298011928"><ele>397.0</ele><time>2026-05-01T12:51:12.998Z</time></trkpt><trkpt lat="43.64943376064326" lon="12.363642332112715"><ele>393.5</ele><time>2026-05-01T12:51:13.999Z</time></trkpt><trkpt lat="43.64952317705497" lon="12.363974800572455"><ele>390.0</ele><time>2026-05-01T12:51:15Z</time></trkpt><trkpt lat="43.6496088689144" lon="12.364312687887884"><ele>390.0</ele><time>2026-05-01T12:51:15.999Z</time></trkpt><trkpt lat="43.649694161962664" lon="12.364652962811974"><ele>390.0</ele><time>2026-05-01T12:51:16.999Z</time></trkpt><trkpt lat="43.64978050654041" lon="12.364993363799979"><ele>389.5</ele><time>2026-05-01T12:51:18Z</time></trkpt><trkpt lat="43.64986715394925" lon="12.365334567800152"><ele>389.0</ele><time>2026-05-01T12:51:19Z</time></trkpt><trkpt lat="43.649953537363906" lon="12.365675368586714"><ele>391.5</ele><time>2026-05-01T12:51:20Z</time></trkpt><trkpt lat="43.65004500416449" lon="12.366014890133613"><ele>394.0</ele><time>2026-05-01T12:51:21Z</time></trkpt><trkpt lat="43.65014717021429" lon="12.366348711874366"><ele>392.5</ele><time>2026-05-01T12:51:22Z</time></trkpt><trkpt lat="43.65026129435901" lon="12.366673874430163"><ele>391.0</ele><time>2026-05-01T12:51:23Z</time></trkpt><trkpt lat="43.65038368669294" lon="12.366992806709597"><ele>392.0</ele><time>2026-05-01T12:51:24Z</time></trkpt><trkpt lat="43.65051005085573" lon="12.367308605639643"><ele>393.0</ele><time>2026-05-01T12:51:25Z</time></trkpt><trkpt lat="43.65063786224125" lon="12.367622441498513"><ele>393.0</ele><time>2026-05-01T12:51:26Z</time></trkpt><trkpt lat="43.65076446323705" lon="12.367937111629725"><ele>393.0</ele><time>2026-05-01T12:51:27Z</time></trkpt><trkpt lat="43.65089164301031" lon="12.368252781258668"><ele>393.5</ele><time>2026-05-01T12:51:28Z</time></trkpt><trkpt lat="43.651018342834966" lon="12.368567684502045"><ele>394.0</ele><time>2026-05-01T12:51:29Z</time></trkpt><trkpt lat="43.65114486965549" lon="12.368882570425326"><ele>393.0</ele><time>2026-05-01T12:51:30Z</time></trkpt><trkpt lat="43.65126880117276" lon="12.36919696325237"><ele>392.0</ele><time>2026-05-01T12:51:31Z</time></trkpt><trkpt lat="43.65137889290859" lon="12.369515970710124"><ele>391.5</ele><time>2026-05-01T12:51:32Z</time></trkpt><trkpt lat="43.651479784902065" lon="12.369846353658113"><ele>391.0</ele><time>2026-05-01T12:51:33Z</time></trkpt><trkpt lat="43.651569573516795" lon="12.370188266120717"><ele>392.5</ele><time>2026-05-01T12:51:34Z</time></trkpt><trkpt lat="43.651660891191774" lon="12.370530808157175"><ele>394.0</ele><time>2026-05-01T12:51:35Z</time></trkpt><trkpt lat="43.65175284909589" lon="12.370872207750319"><ele>394.0</ele><time>2026-05-01T12:51:36Z</time></trkpt><trkpt lat="43.6518492051339" lon="12.37121392033309"><ele>394.0</ele><time>2026-05-01T12:51:37Z</time></trkpt><trkpt lat="43.651944730657874" lon="12.371554434131202"><ele>391.5</ele><time>2026-05-01T12:51:38Z</time></trkpt><trkpt lat="43.652040011143015" lon="12.371894990544273"><ele>389.0</ele><time>2026-05-01T12:51:39Z</time></trkpt><trkpt lat="43.652130176537895" lon="12.372238891036757"><ele>389.0</ele><time>2026-05-01T12:51:39.999Z</time></trkpt><trkpt lat="43.65221649100331" lon="12.372584837975653"><ele>389.0</ele><time>2026-05-01T12:51:40.999Z</time></trkpt><trkpt lat="43.652294636637635" lon="12.37293137146319"><ele>388.0</ele><time>2026-05-01T12:51:41.999Z</time></trkpt><trkpt lat="43.65234511817934" lon="12.373285918197425"><ele>387.0</ele><time>2026-05-01T12:51:42.999Z</time></trkpt><trkpt lat="43.65236597658447" lon="12.373640331985687"><ele>386.0</ele><time>2026-05-01T12:51:43.999Z</time></trkpt><trkpt lat="43.6523783062147" lon="12.373978427663427"><ele>385.0</ele><time>2026-05-01T12:51:44.999Z</time></trkpt><trkpt lat="43.65239594618655" lon="12.374297722853315"><ele>385.0</ele><time>2026-05-01T12:51:45.999Z</time></trkpt><trkpt lat="43.65241460984104" lon="12.374605340177332"><ele>385.0</ele><time>2026-05-01T12:51:46.999Z</time></trkpt><trkpt lat="43.652429667019526" lon="12.374906431919198"><ele>385.0</ele><time>2026-05-01T12:51:47.999Z</time></trkpt><trkpt lat="43.652449225525196" lon="12.375205384965602"><ele>385.0</ele><time>2026-05-01T12:51:48.999Z</time></trkpt><trkpt lat="43.65249057846399" lon="12.375505284983847"><ele>385.0</ele><time>2026-05-01T12:51:49.999Z</time></trkpt><trkpt lat="43.65258245817908" lon="12.375779605301092"><ele>385.0</ele><time>2026-05-01T12:51:50.999Z</time></trkpt><trkpt lat="43.65270105953481" lon="12.376044459227403"><ele>383.0</ele><time>2026-05-01T12:51:51.999Z</time></trkpt><trkpt lat="43.65280957615997" lon="12.376319349261982"><ele>381.0</ele><time>2026-05-01T12:51:52.999Z</time></trkpt><trkpt lat="43.65291192252398" lon="12.376604022684083"><ele>381.0</ele><time>2026-05-01T12:51:53.999Z</time></trkpt><trkpt lat="43.65301844091872" lon="12.376890908678863"><ele>381.0</ele><time>2026-05-01T12:51:54.999Z</time></trkpt><trkpt lat="43.65312612872232" lon="12.377179717806449"><ele>385.5</ele><time>2026-05-01T12:51:55.999Z</time></trkpt><trkpt lat="43.65322711821014" lon="12.37746906461254"><ele>390.0</ele><time>2026-05-01T12:51:56.999Z</time></trkpt><trkpt lat="43.65331179746071" lon="12.377769315557712"><ele>390.5</ele><time>2026-05-01T12:51:57.999Z</time></trkpt><trkpt lat="43.6533712244763" lon="12.37808132282146"><ele>391.0</ele><time>2026-05-01T12:51:58.999Z</time></trkpt><trkpt lat="43.65343224872749" lon="12.37839456804105"><ele>391.0</ele><time>2026-05-01T12:51:59.999Z</time></trkpt><trkpt lat="43.653518282239034" lon="12.378714112412109"><ele>391.0</ele><time>2026-05-01T12:52:00.999Z</time></trkpt><trkpt lat="43.65363051383013" lon="12.379037284103863"><ele>388.5</ele><time>2026-05-01T12:52:01.999Z</time></trkpt><trkpt lat="43.65375137300791" lon="12.379374332047318"><ele>386.0</ele><time>2026-05-01T12:52:02.999Z</time></trkpt><trkpt lat="43.653871083682866" lon="12.379729907438351"><ele>386.0</ele><time>2026-05-01T12:52:03.999Z</time></trkpt><trkpt lat="43.653992514948364" lon="12.380096242989381"><ele>386.0</ele><time>2026-05-01T12:52:04.999Z</time></trkpt><trkpt lat="43.654116959456395" lon="12.380469021394022"><ele>386.0</ele><time>2026-05-01T12:52:05.999Z</time></trkpt><trkpt lat="43.65424355666575" lon="12.380846566930488"><ele>386.0</ele><time>2026-05-01T12:52:06.999Z</time></trkpt><trkpt lat="43.65437036191686" lon="12.38123146472626"><ele>385.0</ele><time>2026-05-01T12:52:07.999Z</time></trkpt><trkpt lat="43.65449301210285" lon="12.381621422769294"><ele>384.0</ele><time>2026-05-01T12:52:08.999Z</time></trkpt><trkpt lat="43.654613898319134" lon="12.382016512054939"><ele>385.0</ele><time>2026-05-01T12:52:09.999Z</time></trkpt><trkpt lat="43.65473210555509" lon="12.382412391949183"><ele>386.0</ele><time>2026-05-01T12:52:10.999Z</time></trkpt><trkpt lat="43.65485039822418" lon="12.382795248769312"><ele>386.0</ele><time>2026-05-01T12:52:11.999Z</time></trkpt><trkpt lat="43.654966028829946" lon="12.38316611981101"><ele>386.0</ele><time>2026-05-01T12:52:12.999Z</time></trkpt><trkpt lat="43.655083464735554" lon="12.383530751534705"><ele>386.5</ele><time>2026-05-01T12:52:13.999Z</time></trkpt><trkpt lat="43.655199277438655" lon="12.383889543222327"><ele>387.0</ele><time>2026-05-01T12:52:14.999Z</time></trkpt><trkpt lat="43.65531440763197" lon="12.384247427805539"><ele>387.0</ele><time>2026-05-01T12:52:15.999Z</time></trkpt><trkpt lat="43.65543214750105" lon="12.384600205999803"><ele>387.0</ele><time>2026-05-01T12:52:16.999Z</time></trkpt><trkpt lat="43.65554854734335" lon="12.384949654551106"><ele>387.0</ele><time>2026-05-01T12:52:17.999Z</time></trkpt><trkpt lat="43.65565817912565" lon="12.385301779422145"><ele>387.0</ele><time>2026-05-01T12:52:18.999Z</time></trkpt><trkpt lat="43.65576808478433" lon="12.385651961533465"><ele>388.0</ele><time>2026-05-01T12:52:19.999Z</time></trkpt><trkpt lat="43.65588003720281" lon="12.385998375992951"><ele>389.0</ele><time>2026-05-01T12:52:20.999Z</time></trkpt><trkpt lat="43.65598918799438" lon="12.386345965295583"><ele>389.0</ele><time>2026-05-01T12:52:21.999Z</time></trkpt><trkpt lat="43.65609649025512" lon="12.386693175284913"><ele>389.0</ele><time>2026-05-01T12:52:22.999Z</time></trkpt><trkpt lat="43.65620545358364" lon="12.387037977596345"><ele>388.5</ele><time>2026-05-01T12:52:23.999Z</time></trkpt><trkpt lat="43.65632119506735" lon="12.387380604185008"><ele>388.0</ele><time>2026-05-01T12:52:24.999Z</time></trkpt><trkpt lat="43.656429397837144" lon="12.387721128960083"><ele>388.5</ele><time>2026-05-01T12:52:25.999Z</time></trkpt><trkpt lat="43.65653571944076" lon="12.388040046935027"><ele>389.0</ele><time>2026-05-01T12:52:26.999Z</time></trkpt><trkpt lat="43.656632311935034" lon="12.388343775355015"><ele>389.0</ele><time>2026-05-01T12:52:27.999Z</time></trkpt><trkpt lat="43.65672380224195" lon="12.388632415999467"><ele>389.0</ele><time>2026-05-01T12:52:28.999Z</time></trkpt><trkpt lat="43.65680626681052" lon="12.388899473373657"><ele>389.0</ele><time>2026-05-01T12:52:29.999Z</time></trkpt><trkpt lat="43.65688224105039" lon="12.38915094811435"><ele>387.3333333333333</ele><time>2026-05-01T12:52:30.999Z</time></trkpt><trkpt lat="43.65695673637535" lon="12.389388835901606"><ele>385.66666666666663</ele><time>2026-05-01T12:52:31.999Z</time></trkpt><trkpt lat="43.657030667606776" lon="12.389601261988693"><ele>384.0</ele><time>2026-05-01T12:52:32.999Z</time></trkpt><trkpt lat="43.657134439359645" lon="12.389774482565665"><ele>383.6666666666667</ele><time>2026-05-01T12:52:33.999Z</time></trkpt><trkpt lat="43.65727669932214" lon="12.389911795387038"><ele>383.33333333333337</ele><time>2026-05-01T12:52:34.999Z</time></trkpt><trkpt lat="43.65744874194913" lon="12.3900225214073"><ele>383.0</ele><time>2026-05-01T12:52:35.999Z</time></trkpt><trkpt lat="43.65762928126879" lon="12.390129580534882"><ele>381.0</ele><time>2026-05-01T12:52:36.999Z</time></trkpt><trkpt lat="43.65780978777096" lon="12.39024691901293"><ele>379.0</ele><time>2026-05-01T12:52:37.999Z</time></trkpt><trkpt lat="43.657974723970106" lon="12.390362162509762"><ele>377.0</ele><time>2026-05-01T12:52:38.999Z</time></trkpt><trkpt lat="43.658115027463076" lon="12.390506776050925"><ele>376.6666666666667</ele><time>2026-05-01T12:52:39.999Z</time></trkpt><trkpt lat="43.65823950328843" lon="12.39070428786121"><ele>376.3333333333333</ele><time>2026-05-01T12:52:40.999Z</time></trkpt><trkpt lat="43.658329709761595" lon="12.390944196190956"><ele>376.0</ele><time>2026-05-01T12:52:41.999Z</time></trkpt><trkpt lat="43.65840029163355" lon="12.391205728613025"><ele>375.66666666666663</ele><time>2026-05-01T12:52:42.999Z</time></trkpt><trkpt lat="43.658475370326535" lon="12.391466787521358"><ele>375.3333333333333</ele><time>2026-05-01T12:52:43.999Z</time></trkpt><trkpt lat="43.65855662911371" lon="12.391723363272883"><ele>375.0</ele><time>2026-05-01T12:52:44.999Z</time></trkpt><trkpt lat="43.658635855619266" lon="12.391983835234072"><ele>375.0</ele><time>2026-05-01T12:52:45.998Z</time></trkpt><trkpt lat="43.65872136333471" lon="12.392252492942552"><ele>375.0</ele><time>2026-05-01T12:52:46.998Z</time></trkpt><trkpt lat="43.65880260873303" lon="12.392526960119103"><ele>375.0</ele><time>2026-05-01T12:52:47.998Z</time></trkpt><trkpt lat="43.658888934331365" lon="12.39280427364984"><ele>375.3333333333333</ele><time>2026-05-01T12:52:48.998Z</time></trkpt><trkpt lat="43.65897803332614" lon="12.393086016073893"><ele>375.66666666666663</ele><time>2026-05-01T12:52:49.998Z</time></trkpt><trkpt lat="43.65906286600606" lon="12.393371617547155"><ele>376.0</ele><time>2026-05-01T12:52:50.998Z</time></trkpt><trkpt lat="43.65915125645686" lon="12.393663906519135"><ele>376.5</ele><time>2026-05-01T12:52:51.998Z</time></trkpt><trkpt lat="43.65924213375573" lon="12.393958330319045"><ele>377.0</ele><time>2026-05-01T12:52:52.998Z</time></trkpt><trkpt lat="43.65933407611263" lon="12.394258093317667"><ele>377.0</ele><time>2026-05-01T12:52:53.998Z</time></trkpt><trkpt lat="43.65942329256815" lon="12.394563941673411"><ele>377.0</ele><time>2026-05-01T12:52:54.998Z</time></trkpt><trkpt lat="43.65951460331885" lon="12.394871120094948"><ele>375.0</ele><time>2026-05-01T12:52:55.998Z</time></trkpt><trkpt lat="43.65960553092598" lon="12.395173251965462"><ele>373.0</ele><time>2026-05-01T12:52:56.998Z</time></trkpt><trkpt lat="43.659690535882696" lon="12.395456916397182"><ele>372.66666666666663</ele><time>2026-05-01T12:52:57.998Z</time></trkpt><trkpt lat="43.6597726059714" lon="12.395724271405173"><ele>372.3333333333333</ele><time>2026-05-01T12:52:58.998Z</time></trkpt><trkpt lat="43.65985276643808" lon="12.39598858607524"><ele>372.0</ele><time>2026-05-01T12:52:59.998Z</time></trkpt><trkpt lat="43.65993731408884" lon="12.396258367861007"><ele>371.6666666666667</ele><time>2026-05-01T12:53:00.998Z</time></trkpt><trkpt lat="43.660024734815224" lon="12.396528758558606"><ele>371.33333333333337</ele><time>2026-05-01T12:53:01.998Z</time></trkpt><trkpt lat="43.66011072331684" lon="12.396800679437172"><ele>371.0</ele><time>2026-05-01T12:53:02.998Z</time></trkpt><trkpt lat="43.66020141571051" lon="12.397072851654997"><ele>370.33333333333337</ele><time>2026-05-01T12:53:03.998Z</time></trkpt><trkpt lat="43.66029753348015" lon="12.397341867107736"><ele>369.6666666666667</ele><time>2026-05-01T12:53:04.998Z</time></trkpt><trkpt lat="43.66038400234802" lon="12.397618671451388"><ele>369.0</ele><time>2026-05-01T12:53:05.998Z</time></trkpt><trkpt lat="43.660454665108155" lon="12.397901010236641"><ele>369.3333333333333</ele><time>2026-05-01T12:53:06.998Z</time></trkpt><trkpt lat="43.66052970129422" lon="12.398181406872734"><ele>369.66666666666663</ele><time>2026-05-01T12:53:07.998Z</time></trkpt><trkpt lat="43.66060862321726" lon="12.398456783905132"><ele>370.0</ele><time>2026-05-01T12:53:08.998Z</time></trkpt><trkpt lat="43.66069023922479" lon="12.39872812521808"><ele>370.3333333333333</ele><time>2026-05-01T12:53:09.998Z</time></trkpt><trkpt lat="43.66077380570741" lon="12.398996670065104"><ele>370.6666666666667</ele><time>2026-05-01T12:53:10.998Z</time></trkpt><trkpt lat="43.66085709443797" lon="12.399264911567657"><ele>371.0</ele><time>2026-05-01T12:53:11.998Z</time></trkpt><trkpt lat="43.66093949743675" lon="12.39953171102384"><ele>370.6666666666667</ele><time>2026-05-01T12:53:12.998Z</time></trkpt><trkpt lat="43.66102208270372" lon="12.399798115800948"><ele>370.3333333333333</ele><time>2026-05-01T12:53:13.998Z</time></trkpt><trkpt lat="43.6611031770739" lon="12.400054470702386"><ele>370.0</ele><time>2026-05-01T12:53:14.998Z</time></trkpt><trkpt lat="43.661167568231846" lon="12.400253015148325"><ele>369.0</ele><time>2026-05-01T12:53:15.998Z</time></trkpt><trkpt lat="43.66122112712178" lon="12.400414053067792"><ele>368.0</ele><time>2026-05-01T12:53:16.998Z</time></trkpt><trkpt lat="43.661270148271136" lon="12.400563569201601"><ele>367.0</ele><time>2026-05-01T12:53:17.998Z</time></trkpt><trkpt lat="43.66131619240872" lon="12.400711474312121"><ele>366.0</ele><time>2026-05-01T12:53:18.998Z</time></trkpt><trkpt lat="43.6613607398809" lon="12.400853327895142"><ele>366.0</ele><time>2026-05-01T12:53:19.999Z</time></trkpt><trkpt lat="43.66140137508213" lon="12.400998084541587"><ele>366.0</ele><time>2026-05-01T12:53:20.999Z</time></trkpt><trkpt lat="43.66145010187269" lon="12.401141658740434"><ele>366.0</ele><time>2026-05-01T12:53:21.999Z</time></trkpt><trkpt lat="43.66150170123456" lon="12.40129069962351"><ele>366.0</ele><time>2026-05-01T12:53:22.999Z</time></trkpt><trkpt lat="43.66154688018252" lon="12.40145051389322"><ele>366.25</ele><time>2026-05-01T12:53:23.999Z</time></trkpt><trkpt lat="43.66159868327771" lon="12.40161204986391"><ele>366.5</ele><time>2026-05-01T12:53:24.999Z</time></trkpt><trkpt lat="43.661655269490836" lon="12.4017775233209"><ele>366.75</ele><time>2026-05-01T12:53:25.999Z</time></trkpt><trkpt lat="43.66171526018055" lon="12.401956903070372"><ele>367.0</ele><time>2026-05-01T12:53:26.999Z</time></trkpt><trkpt lat="43.66177723404665" lon="12.40214334509947"><ele>367.0</ele><time>2026-05-01T12:53:27.999Z</time></trkpt><trkpt lat="43.66184049865819" lon="12.402337889557682"><ele>367.0</ele><time>2026-05-01T12:53:28.999Z</time></trkpt><trkpt lat="43.66191425615347" lon="12.402540295630109"><ele>367.0</ele><time>2026-05-01T12:53:29.999Z</time></trkpt><trkpt lat="43.66199319681884" lon="12.402745145931487"><ele>367.0</ele><time>2026-05-01T12:53:30.999Z</time></trkpt><trkpt lat="43.662073302814" lon="12.402960968451586"><ele>367.0</ele><time>2026-05-01T12:53:31.999Z</time></trkpt><trkpt lat="43.66215920566477" lon="12.403182242069745"><ele>367.0</ele><time>2026-05-01T12:53:32.999Z</time></trkpt><trkpt lat="43.662247385134975" lon="12.403409289031007"><ele>367.0</ele><time>2026-05-01T12:53:33.999Z</time></trkpt><trkpt lat="43.662337355205786" lon="12.403638144161244"><ele>367.0</ele><time>2026-05-01T12:53:34.999Z</time></trkpt><trkpt lat="43.66242508894841" lon="12.403860491707507"><ele>367.0</ele><time>2026-05-01T12:53:35.999Z</time></trkpt><trkpt lat="43.662515268250594" lon="12.404088629883885"><ele>366.66666666666663</ele><time>2026-05-01T12:53:36.999Z</time></trkpt><trkpt lat="43.66260707131091" lon="12.40431613246442"><ele>366.3333333333333</ele><time>2026-05-01T12:53:37.999Z</time></trkpt><trkpt lat="43.66270227231212" lon="12.404547776161866"><ele>366.0</ele><time>2026-05-01T12:53:38.999Z</time></trkpt><trkpt lat="43.66278631946386" lon="12.404786410481131"><ele>365.3333333333333</ele><time>2026-05-01T12:53:39.999Z</time></trkpt><trkpt lat="43.66287798260293" lon="12.405022903744511"><ele>364.66666666666663</ele><time>2026-05-01T12:53:40.999Z</time></trkpt><trkpt lat="43.66296480769017" lon="12.405251207466424"><ele>364.0</ele><time>2026-05-01T12:53:41.999Z</time></trkpt><trkpt lat="43.663048705491974" lon="12.40546475272267"><ele>364.3333333333333</ele><time>2026-05-01T12:53:42.999Z</time></trkpt><trkpt lat="43.66312803207586" lon="12.405672189890353"><ele>364.6666666666667</ele><time>2026-05-01T12:53:43.999Z</time></trkpt><trkpt lat="43.663202627763035" lon="12.405866300739152"><ele>365.0</ele><time>2026-05-01T12:53:44.999Z</time></trkpt><trkpt lat="43.66327587014985" lon="12.406045908699793"><ele>365.0</ele><time>2026-05-01T12:53:45.999Z</time></trkpt><trkpt lat="43.66334947710654" lon="12.406202838806518"><ele>365.0</ele><time>2026-05-01T12:53:46.999Z</time></trkpt><trkpt lat="43.663413883781544" lon="12.406336424319536"><ele>365.0</ele><time>2026-05-01T12:53:47.999Z</time></trkpt><trkpt lat="43.6634717660497" lon="12.406451847994266"><ele>365.0</ele><time>2026-05-01T12:53:48.999Z</time></trkpt><trkpt lat="43.66351009751524" lon="12.406565736232883"><ele>365.0</ele><time>2026-05-01T12:53:49.999Z</time></trkpt><trkpt lat="43.663537794197396" lon="12.406678782089143"><ele>364.83333333333337</ele><time>2026-05-01T12:53:50.999Z</time></trkpt><trkpt lat="43.66357414278329" lon="12.406752820377346"><ele>364.6666666666667</ele><time>2026-05-01T12:53:51.999Z</time></trkpt><trkpt lat="43.663639591746296" lon="12.406782117325584"><ele>364.5</ele><time>2026-05-01T12:53:52.999Z</time></trkpt><trkpt lat="43.66371958007205" lon="12.406755469836185"><ele>364.3333333333333</ele><time>2026-05-01T12:53:53.999Z</time></trkpt><trkpt lat="43.663813026698186" lon="12.406723544825237"><ele>364.16666666666663</ele><time>2026-05-01T12:53:54.999Z</time></trkpt><trkpt lat="43.66391551599884" lon="12.406761812001537"><ele>364.0</ele><time>2026-05-01T12:53:55.999Z</time></trkpt><trkpt lat="43.66403427766504" lon="12.406850455886788"><ele>363.66666666666663</ele><time>2026-05-01T12:53:56.999Z</time></trkpt><trkpt lat="43.664163264452256" lon="12.406941492194782"><ele>363.3333333333333</ele><time>2026-05-01T12:53:57.999Z</time></trkpt><trkpt lat="43.66430818587987" lon="12.407039082810607"><ele>363.0</ele><time>2026-05-01T12:53:58.999Z</time></trkpt><trkpt lat="43.664460221779876" lon="12.407136045551496"><ele>362.3333333333333</ele><time>2026-05-01T12:53:59.999Z</time></trkpt><trkpt lat="43.664609485954955" lon="12.407223385152182"><ele>361.66666666666663</ele><time>2026-05-01T12:54:00.999Z</time></trkpt><trkpt lat="43.66475780722872" lon="12.40732517514541"><ele>361.0</ele><time>2026-05-01T12:54:01.999Z</time></trkpt><trkpt lat="43.664916623189484" lon="12.407436562617342"><ele>361.0</ele><time>2026-05-01T12:54:02.999Z</time></trkpt><trkpt lat="43.66508527105091" lon="12.40755716200294"><ele>361.0</ele><time>2026-05-01T12:54:03.999Z</time></trkpt><trkpt lat="43.665253241745106" lon="12.407676384278494"><ele>361.0</ele><time>2026-05-01T12:54:04.999Z</time></trkpt><trkpt lat="43.66543205723188" lon="12.407794622989337"><ele>361.0</ele><time>2026-05-01T12:54:05.999Z</time></trkpt><trkpt lat="43.66560487227177" lon="12.407908822456621"><ele>361.0</ele><time>2026-05-01T12:54:06.999Z</time></trkpt><trkpt lat="43.66578158952857" lon="12.408026858864654"><ele>361.0</ele><time>2026-05-01T12:54:07.999Z</time></trkpt><trkpt lat="43.66595695006946" lon="12.408145645305321"><ele>358.66666666666663</ele><time>2026-05-01T12:54:08.999Z</time></trkpt><trkpt lat="43.66613338756683" lon="12.408261769745273"><ele>356.3333333333333</ele><time>2026-05-01T12:54:09.999Z</time></trkpt><trkpt lat="43.66629880953153" lon="12.408374082913806"><ele>354.0</ele><time>2026-05-01T12:54:10.999Z</time></trkpt><trkpt lat="43.66644236155797" lon="12.40849265431233"><ele>354.0</ele><time>2026-05-01T12:54:11.999Z</time></trkpt><trkpt lat="43.66656471266042" lon="12.408637708731707"><ele>354.0</ele><time>2026-05-01T12:54:12.999Z</time></trkpt><trkpt lat="43.66665416837945" lon="12.408831053420435"><ele>354.0</ele><time>2026-05-01T12:54:13.999Z</time></trkpt><trkpt lat="43.66671289556023" lon="12.409062641991325"><ele>354.0</ele><time>2026-05-01T12:54:14.999Z</time></trkpt><trkpt lat="43.66673636328546" lon="12.409318346736685"><ele>354.0</ele><time>2026-05-01T12:54:15.999Z</time></trkpt><trkpt lat="43.66674364448171" lon="12.409575385760167"><ele>354.0</ele><time>2026-05-01T12:54:16.999Z</time></trkpt><trkpt lat="43.66676220713429" lon="12.409835723424347"><ele>354.6666666666667</ele><time>2026-05-01T12:54:17.999Z</time></trkpt><trkpt lat="43.66679009727552" lon="12.410101968558186"><ele>355.33333333333337</ele><time>2026-05-01T12:54:18.999Z</time></trkpt><trkpt lat="43.66681935909523" lon="12.410370335668699"><ele>356.0</ele><time>2026-05-01T12:54:19.999Z</time></trkpt><trkpt lat="43.66684738835002" lon="12.410632247839887"><ele>356.0</ele><time>2026-05-01T12:54:20.999Z</time></trkpt><trkpt lat="43.666868411687894" lon="12.410864763685757"><ele>356.0</ele><time>2026-05-01T12:54:21.999Z</time></trkpt><trkpt lat="43.66688476920036" lon="12.411062201646653"><ele>356.0</ele><time>2026-05-01T12:54:22.999Z</time></trkpt><trkpt lat="43.66688823242699" lon="12.411218777974886"><ele>356.0</ele><time>2026-05-01T12:54:23.999Z</time></trkpt><trkpt lat="43.66685485169378" lon="12.41133681956117"><ele>355.6666666666667</ele><time>2026-05-01T12:54:24.999Z</time></trkpt><trkpt lat="43.66679437515895" lon="12.411423365137907"><ele>355.33333333333337</ele><time>2026-05-01T12:54:25.999Z</time></trkpt><trkpt lat="43.66676094178115" lon="12.411511212075181"><ele>355.0</ele><time>2026-05-01T12:54:26.999Z</time></trkpt><trkpt lat="43.66677912245589" lon="12.411612686072724"><ele>354.6666666666667</ele><time>2026-05-01T12:54:27.999Z</time></trkpt><trkpt lat="43.6668358405693" lon="12.411710983320676"><ele>354.3333333333333</ele><time>2026-05-01T12:54:28.999Z</time></trkpt><trkpt lat="43.666901450757415" lon="12.411819043094113"><ele>354.0</ele><time>2026-05-01T12:54:29.999Z</time></trkpt><trkpt lat="43.66695348314378" lon="12.411953427633577"><ele>355.5</ele><time>2026-05-01T12:54:30.999Z</time></trkpt><trkpt lat="43.66698115250073" lon="12.41212001058755"><ele>357.0</ele><time>2026-05-01T12:54:31.999Z</time></trkpt><trkpt lat="43.66699267224978" lon="12.412298218810607"><ele>358.5</ele><time>2026-05-01T12:54:32.999Z</time></trkpt><trkpt lat="43.66700154585061" lon="12.412488143758093"><ele>360.0</ele><time>2026-05-01T12:54:33.999Z</time></trkpt><trkpt lat="43.667017373049354" lon="12.412688003490638"><ele>360.0</ele><time>2026-05-01T12:54:34.999Z</time></trkpt><trkpt lat="43.66703630755809" lon="12.412896194857217"><ele>360.0</ele><time>2026-05-01T12:54:35.999Z</time></trkpt><trkpt lat="43.66705374563239" lon="12.413111534777391"><ele>360.0</ele><time>2026-05-01T12:54:36.999Z</time></trkpt><trkpt lat="43.6670793546961" lon="12.413334537212188"><ele>359.3333333333333</ele><time>2026-05-01T12:54:37.999Z</time></trkpt><trkpt lat="43.66709827994041" lon="12.413543588627164"><ele>358.66666666666663</ele><time>2026-05-01T12:54:38.999Z</time></trkpt><trkpt lat="43.667115419734984" lon="12.4137636903186"><ele>358.0</ele><time>2026-05-01T12:54:39.999Z</time></trkpt><trkpt lat="43.667138802034124" lon="12.413987330279205"><ele>357.66666666666663</ele><time>2026-05-01T12:54:40.999Z</time></trkpt><trkpt lat="43.66716460723989" lon="12.414213345255497"><ele>357.3333333333333</ele><time>2026-05-01T12:54:41.999Z</time></trkpt><trkpt lat="43.667186922161186" lon="12.414445697015438"><ele>357.0</ele><time>2026-05-01T12:54:42.999Z</time></trkpt><trkpt lat="43.6672238170525" lon="12.414677802980295"><ele>357.0</ele><time>2026-05-01T12:54:43.999Z</time></trkpt><trkpt lat="43.66727300179009" lon="12.41490617572281"><ele>357.0</ele><time>2026-05-01T12:54:44.999Z</time></trkpt><trkpt lat="43.667331555416325" lon="12.415134059422103"><ele>357.0</ele><time>2026-05-01T12:54:45.999Z</time></trkpt><trkpt lat="43.66738569391334" lon="12.41536265808582"><ele>357.3333333333333</ele><time>2026-05-01T12:54:46.999Z</time></trkpt><trkpt lat="43.667442883129546" lon="12.41559375029642"><ele>357.66666666666663</ele><time>2026-05-01T12:54:47.999Z</time></trkpt><trkpt lat="43.66750200541487" lon="12.41581148665593"><ele>358.0</ele><time>2026-05-01T12:54:48.999Z</time></trkpt><trkpt lat="43.66756417541799" lon="12.416007937875941"><ele>358.0</ele><time>2026-05-01T12:54:49.999Z</time></trkpt><trkpt lat="43.66762887370558" lon="12.416187206128665"><ele>358.0</ele><time>2026-05-01T12:54:50.999Z</time></trkpt><trkpt lat="43.66769346479876" lon="12.416353444566536"><ele>358.0</ele><time>2026-05-01T12:54:51.999Z</time></trkpt><trkpt lat="43.66775850493315" lon="12.416502610334243"><ele>358.0</ele><time>2026-05-01T12:54:52.999Z</time></trkpt><trkpt lat="43.66781919806332" lon="12.416643551718167"><ele>358.25</ele><time>2026-05-01T12:54:53.999Z</time></trkpt><trkpt lat="43.66787294564909" lon="12.416784959993803"><ele>358.5</ele><time>2026-05-01T12:54:54.999Z</time></trkpt><trkpt lat="43.66792220264414" lon="12.4169251402023"><ele>358.75</ele><time>2026-05-01T12:54:55.998Z</time></trkpt><trkpt lat="43.667973698406556" lon="12.417064442064495"><ele>359.0</ele><time>2026-05-01T12:54:56.998Z</time></trkpt><trkpt lat="43.66802871856291" lon="12.417206152698808"><ele>359.0</ele><time>2026-05-01T12:54:57.998Z</time></trkpt><trkpt lat="43.66808237119964" lon="12.41735015908577"><ele>359.0</ele><time>2026-05-01T12:54:58.998Z</time></trkpt><trkpt lat="43.66813714320433" lon="12.417495179467975"><ele>359.0</ele><time>2026-05-01T12:54:59.998Z</time></trkpt><trkpt lat="43.66819485865301" lon="12.417640478703069"><ele>359.0</ele><time>2026-05-01T12:55:00.998Z</time></trkpt><trkpt lat="43.66826254939835" lon="12.417786726984737"><ele>359.0</ele><time>2026-05-01T12:55:01.998Z</time></trkpt><trkpt lat="43.66832824800511" lon="12.417929123638874"><ele>359.0</ele><time>2026-05-01T12:55:02.998Z</time></trkpt><trkpt lat="43.66838945841003" lon="12.41807167781434"><ele>359.0</ele><time>2026-05-01T12:55:03.998Z</time></trkpt><trkpt lat="43.66846340134574" lon="12.41821616619952"><ele>359.0</ele><time>2026-05-01T12:55:04.998Z</time></trkpt><trkpt lat="43.66854537903477" lon="12.418358701203113"><ele>358.75</ele><time>2026-05-01T12:55:05.998Z</time></trkpt><trkpt lat="43.668632307164266" lon="12.418504704001805"><ele>358.5</ele><time>2026-05-01T12:55:06.998Z</time></trkpt><trkpt lat="43.66872149757853" lon="12.418653840903666"><ele>358.25</ele><time>2026-05-01T12:55:07.998Z</time></trkpt><trkpt lat="43.66881414484961" lon="12.41881253015541"><ele>358.0</ele><time>2026-05-01T12:55:08.998Z</time></trkpt><trkpt lat="43.66890566533567" lon="12.418978802855518"><ele>356.75</ele><time>2026-05-01T12:55:09.998Z</time></trkpt><trkpt lat="43.66900360898973" lon="12.419144394144356"><ele>355.5</ele><time>2026-05-01T12:55:10.998Z</time></trkpt><trkpt lat="43.66910361989127" lon="12.419300256071576"><ele>354.25</ele><time>2026-05-01T12:55:11.998Z</time></trkpt><trkpt lat="43.66918497044918" lon="12.419464135297337"><ele>353.0</ele><time>2026-05-01T12:55:12.998Z</time></trkpt><trkpt lat="43.66922714261597" lon="12.419681015959988"><ele>353.0</ele><time>2026-05-01T12:55:13.998Z</time></trkpt><trkpt lat="43.66925113081021" lon="12.419910293201847"><ele>353.0</ele><time>2026-05-01T12:55:14.998Z</time></trkpt><trkpt lat="43.66927358872951" lon="12.420145059812281"><ele>353.0</ele><time>2026-05-01T12:55:15.998Z</time></trkpt><trkpt lat="43.66929915873836" lon="12.42038911881475"><ele>353.0</ele><time>2026-05-01T12:55:16.998Z</time></trkpt><trkpt lat="43.6693308148423" lon="12.420645277077272"><ele>353.0</ele><time>2026-05-01T12:55:17.998Z</time></trkpt><trkpt lat="43.66936231389463" lon="12.42090803024037"><ele>353.0</ele><time>2026-05-01T12:55:18.998Z</time></trkpt><trkpt lat="43.66939053118513" lon="12.421179353129803"><ele>352.6666666666667</ele><time>2026-05-01T12:55:19.998Z</time></trkpt><trkpt lat="43.66941964106114" lon="12.421458187299429"><ele>352.3333333333333</ele><time>2026-05-01T12:55:20.998Z</time></trkpt><trkpt lat="43.66945127399326" lon="12.421742907222088"><ele>352.0</ele><time>2026-05-01T12:55:21.998Z</time></trkpt><trkpt lat="43.669480896683105" lon="12.42202083386811"><ele>353.3333333333333</ele><time>2026-05-01T12:55:22.998Z</time></trkpt><trkpt lat="43.66950604557189" lon="12.422300099581"><ele>354.6666666666667</ele><time>2026-05-01T12:55:23.998Z</time></trkpt><trkpt lat="43.66952312025196" lon="12.422581520068812"><ele>356.0</ele><time>2026-05-01T12:55:24.998Z</time></trkpt><trkpt lat="43.66952496590955" lon="12.422878489270715"><ele>355.0</ele><time>2026-05-01T12:55:25.999Z</time></trkpt><trkpt lat="43.669520080278005" lon="12.423171278390319"><ele>354.0</ele><time>2026-05-01T12:55:26.999Z</time></trkpt><trkpt lat="43.66951110381729" lon="12.423469677811871"><ele>353.0</ele><time>2026-05-01T12:55:27.999Z</time></trkpt><trkpt lat="43.669500245762656" lon="12.423769544512194"><ele>352.0</ele><time>2026-05-01T12:55:28.999Z</time></trkpt><trkpt lat="43.66949391296602" lon="12.424070401435886"><ele>351.0</ele><time>2026-05-01T12:55:29.999Z</time></trkpt><trkpt lat="43.669488005032946" lon="12.424374610575292"><ele>350.0</ele><time>2026-05-01T12:55:30.999Z</time></trkpt><trkpt lat="43.66948085482217" lon="12.424676129500543"><ele>350.0</ele><time>2026-05-01T12:55:31.999Z</time></trkpt><trkpt lat="43.6694829863279" lon="12.424976718579625"><ele>350.0</ele><time>2026-05-01T12:55:32.999Z</time></trkpt><trkpt lat="43.66950889314514" lon="12.425276126769607"><ele>350.0</ele><time>2026-05-01T12:55:33.999Z</time></trkpt><trkpt lat="43.66957032862002" lon="12.4255670626471"><ele>350.0</ele><time>2026-05-01T12:55:34.999Z</time></trkpt><trkpt lat="43.66964554115827" lon="12.425860945851658"><ele>350.0</ele><time>2026-05-01T12:55:35.999Z</time></trkpt><trkpt lat="43.66969898588028" lon="12.426163785436394"><ele>350.0</ele><time>2026-05-01T12:55:36.999Z</time></trkpt><trkpt lat="43.66975805970929" lon="12.426464454877541"><ele>350.0</ele><time>2026-05-01T12:55:37.999Z</time></trkpt><trkpt lat="43.669819343771884" lon="12.426767595899939"><ele>350.0</ele><time>2026-05-01T12:55:38.999Z</time></trkpt><trkpt lat="43.66987480069091" lon="12.427072052334573"><ele>350.0</ele><time>2026-05-01T12:55:39.999Z</time></trkpt><trkpt lat="43.669934632686456" lon="12.427376295023107"><ele>349.0</ele><time>2026-05-01T12:55:40.999Z</time></trkpt><trkpt lat="43.6699913849522" lon="12.427679550927442"><ele>348.0</ele><time>2026-05-01T12:55:41.999Z</time></trkpt><trkpt lat="43.67004348046447" lon="12.427983697963537"><ele>348.0</ele><time>2026-05-01T12:55:42.999Z</time></trkpt><trkpt lat="43.67008873361623" lon="12.428278578516823"><ele>348.0</ele><time>2026-05-01T12:55:43.999Z</time></trkpt><trkpt lat="43.67012923683187" lon="12.428568229584197"><ele>348.0</ele><time>2026-05-01T12:55:44.999Z</time></trkpt><trkpt lat="43.67017279428739" lon="12.428849370947027"><ele>347.6666666666667</ele><time>2026-05-01T12:55:45.999Z</time></trkpt><trkpt lat="43.67021646946821" lon="12.429129764458143"><ele>347.33333333333337</ele><time>2026-05-01T12:55:46.999Z</time></trkpt><trkpt lat="43.670259992732426" lon="12.429412206992176"><ele>347.0</ele><time>2026-05-01T12:55:47.999Z</time></trkpt><trkpt lat="43.6703019574942" lon="12.429689514872141"><ele>346.33333333333337</ele><time>2026-05-01T12:55:48.999Z</time></trkpt><trkpt lat="43.67034446492474" lon="12.429962102877942"><ele>345.6666666666667</ele><time>2026-05-01T12:55:49.999Z</time></trkpt><trkpt lat="43.67038800883187" lon="12.430214434341668"><ele>345.0</ele><time>2026-05-01T12:55:50.999Z</time></trkpt><trkpt lat="43.67043288635926" lon="12.430451605686327"><ele>344.3333333333333</ele><time>2026-05-01T12:55:51.999Z</time></trkpt><trkpt lat="43.67048085227153" lon="12.430684415617042"><ele>343.66666666666663</ele><time>2026-05-01T12:55:52.999Z</time></trkpt><trkpt lat="43.670526084228754" lon="12.430928955894384"><ele>343.0</ele><time>2026-05-01T12:55:53.999Z</time></trkpt><trkpt lat="43.67057010430082" lon="12.431176389333299"><ele>343.0</ele><time>2026-05-01T12:55:54.999Z</time></trkpt><trkpt lat="43.670610042156696" lon="12.431428257302425"><ele>343.0</ele><time>2026-05-01T12:55:55.999Z</time></trkpt><trkpt lat="43.67065097423478" lon="12.431689684162007"><ele>343.0</ele><time>2026-05-01T12:55:56.999Z</time></trkpt><trkpt lat="43.67068790311505" lon="12.431954688204682"><ele>342.66666666666663</ele><time>2026-05-01T12:55:57.999Z</time></trkpt><trkpt lat="43.67072789224185" lon="12.432224919308343"><ele>342.3333333333333</ele><time>2026-05-01T12:55:58.999Z</time></trkpt><trkpt lat="43.67077424153007" lon="12.432499552385075"><ele>342.0</ele><time>2026-05-01T12:55:59.999Z</time></trkpt><trkpt lat="43.670818708580256" lon="12.432778597274195"><ele>341.6666666666667</ele><time>2026-05-01T12:56:00.999Z</time></trkpt><trkpt lat="43.67086502716243" lon="12.433060421581057"><ele>341.33333333333337</ele><time>2026-05-01T12:56:01.999Z</time></trkpt><trkpt lat="43.67090988281738" lon="12.433346583798457"><ele>341.0</ele><time>2026-05-01T12:56:02.999Z</time></trkpt><trkpt lat="43.67095142231723" lon="12.433643195504196"><ele>341.0</ele><time>2026-05-01T12:56:03.999Z</time></trkpt><trkpt lat="43.670995258894365" lon="12.433941273539292"><ele>341.0</ele><time>2026-05-01T12:56:04.999Z</time></trkpt><trkpt lat="43.67104107769768" lon="12.434243889748835"><ele>341.0</ele><time>2026-05-01T12:56:05.999Z</time></trkpt><trkpt lat="43.67108822288324" lon="12.434549303145513"><ele>340.5</ele><time>2026-05-01T12:56:06.999Z</time></trkpt><trkpt lat="43.67113633987623" lon="12.434856378952395"><ele>340.0</ele><time>2026-05-01T12:56:07.999Z</time></trkpt><trkpt lat="43.67119618800458" lon="12.435161200181778"><ele>340.0</ele><time>2026-05-01T12:56:08.999Z</time></trkpt><trkpt lat="43.671270803444926" lon="12.43545604295055"><ele>340.0</ele><time>2026-05-01T12:56:09.999Z</time></trkpt><trkpt lat="43.67135871963912" lon="12.435744364847718"><ele>339.5</ele><time>2026-05-01T12:56:10.999Z</time></trkpt><trkpt lat="43.67146837578023" lon="12.436016327287344"><ele>339.0</ele><time>2026-05-01T12:56:11.999Z</time></trkpt><trkpt lat="43.67159863710857" lon="12.436274763087129"><ele>339.0</ele><time>2026-05-01T12:56:12.999Z</time></trkpt><trkpt lat="43.67174372106296" lon="12.436524173844724"><ele>339.0</ele><time>2026-05-01T12:56:13.999Z</time></trkpt><trkpt lat="43.67189548800827" lon="12.436766021374693"><ele>340.0</ele><time>2026-05-01T12:56:14.999Z</time></trkpt><trkpt lat="43.67204509388865" lon="12.437009233314283"><ele>341.0</ele><time>2026-05-01T12:56:15.999Z</time></trkpt><trkpt lat="43.67219340800696" lon="12.437256137478457"><ele>341.0</ele><time>2026-05-01T12:56:16.999Z</time></trkpt><trkpt lat="43.67234188478111" lon="12.437503456351392"><ele>341.0</ele><time>2026-05-01T12:56:17.999Z</time></trkpt><trkpt lat="43.67248944040439" lon="12.437752824671405"><ele>337.5</ele><time>2026-05-01T12:56:18.999Z</time></trkpt><trkpt lat="43.6726344452325" lon="12.43800807973077"><ele>334.0</ele><time>2026-05-01T12:56:19.999Z</time></trkpt><trkpt lat="43.67276799260892" lon="12.438272823408091"><ele>337.0</ele><time>2026-05-01T12:56:20.999Z</time></trkpt><trkpt lat="43.67288287322181" lon="12.438551812123702"><ele>340.0</ele><time>2026-05-01T12:56:21.999Z</time></trkpt><trkpt lat="43.6729762840822" lon="12.438848292682373"><ele>344.0</ele><time>2026-05-01T12:56:22.999Z</time></trkpt><trkpt lat="43.67304704248359" lon="12.439160482271657"><ele>348.0</ele><time>2026-05-01T12:56:23.999Z</time></trkpt><trkpt lat="43.673102944212545" lon="12.43947520197054"><ele>350.5</ele><time>2026-05-01T12:56:24.999Z</time></trkpt><trkpt lat="43.673145218622466" lon="12.439795870210524"><ele>353.0</ele><time>2026-05-01T12:56:25.999Z</time></trkpt><trkpt lat="43.67317980179092" lon="12.440117299717336"><ele>353.0</ele><time>2026-05-01T12:56:26.999Z</time></trkpt><trkpt lat="43.67320745850912" lon="12.440437699974607"><ele>353.0</ele><time>2026-05-01T12:56:27.999Z</time></trkpt><trkpt lat="43.673234961896476" lon="12.44075901099503"><ele>350.5</ele><time>2026-05-01T12:56:28.999Z</time></trkpt><trkpt lat="43.67326490788336" lon="12.441072031398955"><ele>348.0</ele><time>2026-05-01T12:56:29.999Z</time></trkpt><trkpt lat="43.67329580373199" lon="12.441392242652817"><ele>344.5</ele><time>2026-05-01T12:56:30.999Z</time></trkpt><trkpt lat="43.67332071443665" lon="12.441713552410459"><ele>341.0</ele><time>2026-05-01T12:56:31.999Z</time></trkpt><trkpt lat="43.67332541446843" lon="12.442038346701674"><ele>339.5</ele><time>2026-05-01T12:56:32.999Z</time></trkpt><trkpt lat="43.6733188850477" lon="12.442362105184854"><ele>338.0</ele><time>2026-05-01T12:56:33.999Z</time></trkpt><trkpt lat="43.673310244059664" lon="12.44268865228625"><ele>339.0</ele><time>2026-05-01T12:56:34.999Z</time></trkpt><trkpt lat="43.67331245412628" lon="12.44301443359787"><ele>340.0</ele><time>2026-05-01T12:56:35.999Z</time></trkpt><trkpt lat="43.673316282754705" lon="12.443339338162419"><ele>340.0</ele><time>2026-05-01T12:56:36.999Z</time></trkpt><trkpt lat="43.673325904768475" lon="12.443664436686362"><ele>340.0</ele><time>2026-05-01T12:56:37.999Z</time></trkpt><trkpt lat="43.67333626981944" lon="12.443987140001486"><ele>341.5</ele><time>2026-05-01T12:56:38.999Z</time></trkpt><trkpt lat="43.67335002745073" lon="12.44430890207261"><ele>343.0</ele><time>2026-05-01T12:56:39.999Z</time></trkpt><trkpt lat="43.67336166940988" lon="12.444632159658688"><ele>343.0</ele><time>2026-05-01T12:56:40.999Z</time></trkpt><trkpt lat="43.67337357091391" lon="12.444952866383296"><ele>343.0</ele><time>2026-05-01T12:56:41.999Z</time></trkpt><trkpt lat="43.67339172869535" lon="12.445275487829106"><ele>342.0</ele><time>2026-05-01T12:56:42.999Z</time></trkpt><trkpt lat="43.6734110140665" lon="12.445596181960402"><ele>341.0</ele><time>2026-05-01T12:56:43.999Z</time></trkpt><trkpt lat="43.673437961785574" lon="12.445918461261048"><ele>341.0</ele><time>2026-05-01T12:56:44.999Z</time></trkpt><trkpt lat="43.67346601985392" lon="12.44623408592371"><ele>341.0</ele><time>2026-05-01T12:56:45.999Z</time></trkpt><trkpt lat="43.67350163823441" lon="12.446555251476155"><ele>341.0</ele><time>2026-05-01T12:56:46.999Z</time></trkpt><trkpt lat="43.67353352367754" lon="12.44687264888617"><ele>341.0</ele><time>2026-05-01T12:56:47.999Z</time></trkpt><trkpt lat="43.673569022161864" lon="12.44718848170782"><ele>353.0</ele><time>2026-05-01T12:56:48.999Z</time></trkpt><trkpt lat="43.67360982810252" lon="12.447504859219482"><ele>365.0</ele><time>2026-05-01T12:56:49.999Z</time></trkpt><trkpt lat="43.67363959749463" lon="12.447820745348828"><ele>363.0</ele><time>2026-05-01T12:56:50.999Z</time></trkpt><trkpt lat="43.67367348067385" lon="12.448134808522127"><ele>361.0</ele><time>2026-05-01T12:56:51.999Z</time></trkpt><trkpt lat="43.67370998227993" lon="12.448449333179942"><ele>361.0</ele><time>2026-05-01T12:56:52.999Z</time></trkpt><trkpt lat="43.67374108703006" lon="12.448763711841528"><ele>361.0</ele><time>2026-05-01T12:56:53.999Z</time></trkpt><trkpt lat="43.673768175625966" lon="12.449078950553563"><ele>356.5</ele><time>2026-05-01T12:56:54.999Z</time></trkpt><trkpt lat="43.673777848532694" lon="12.449390106129204"><ele>352.0</ele><time>2026-05-01T12:56:55.999Z</time></trkpt><trkpt lat="43.673764878992046" lon="12.449701360837782"><ele>351.0</ele><time>2026-05-01T12:56:56.999Z</time></trkpt><trkpt lat="43.67372311475079" lon="12.450011576636054"><ele>350.0</ele><time>2026-05-01T12:56:57.999Z</time></trkpt><trkpt lat="43.67366728294296" lon="12.450321913135937"><ele>348.6666666666667</ele><time>2026-05-01T12:56:58.999Z</time></trkpt><trkpt lat="43.67361966022278" lon="12.450623927842692"><ele>347.3333333333333</ele><time>2026-05-01T12:56:59.999Z</time></trkpt><trkpt lat="43.673579004727024" lon="12.450906281710395"><ele>346.0</ele><time>2026-05-01T12:57:00.999Z</time></trkpt><trkpt lat="43.67355002530766" lon="12.451181527184719"><ele>345.0</ele><time>2026-05-01T12:57:01.999Z</time></trkpt><trkpt lat="43.67355202018808" lon="12.4514666771878"><ele>344.0</ele><time>2026-05-01T12:57:02.999Z</time></trkpt><trkpt lat="43.673586187133836" lon="12.451768417148099"><ele>343.0</ele><time>2026-05-01T12:57:03.999Z</time></trkpt><trkpt lat="43.67363801517604" lon="12.452071115546632"><ele>341.3333333333333</ele><time>2026-05-01T12:57:04.999Z</time></trkpt><trkpt lat="43.67366836253735" lon="12.452371343476212"><ele>339.6666666666667</ele><time>2026-05-01T12:57:05.999Z</time></trkpt><trkpt lat="43.67370288325364" lon="12.452667353903884"><ele>338.0</ele><time>2026-05-01T12:57:06.999Z</time></trkpt><trkpt lat="43.67376050678596" lon="12.452960292696657"><ele>336.0</ele><time>2026-05-01T12:57:07.999Z</time></trkpt><trkpt lat="43.67383477828773" lon="12.453244318172526"><ele>334.0</ele><time>2026-05-01T12:57:08.999Z</time></trkpt><trkpt lat="43.67392549288531" lon="12.453523902273732"><ele>332.0</ele><time>2026-05-01T12:57:09.999Z</time></trkpt><trkpt lat="43.67401606931322" lon="12.453806235548871"><ele>330.6666666666667</ele><time>2026-05-01T12:57:10.999Z</time></trkpt><trkpt lat="43.674105204686406" lon="12.454089594750236"><ele>329.3333333333333</ele><time>2026-05-01T12:57:11.999Z</time></trkpt><trkpt lat="43.67419389352908" lon="12.454370364659015"><ele>328.0</ele><time>2026-05-01T12:57:12.999Z</time></trkpt><trkpt lat="43.674285146839544" lon="12.454651385872344"><ele>328.0</ele><time>2026-05-01T12:57:13.998Z</time></trkpt><trkpt lat="43.67437551026007" lon="12.454933096157704"><ele>328.0</ele><time>2026-05-01T12:57:14.998Z</time></trkpt><trkpt lat="43.67446949520868" lon="12.455212166275707"><ele>328.0</ele><time>2026-05-01T12:57:15.998Z</time></trkpt><trkpt lat="43.67456209091319" lon="12.455489438082083"><ele>327.66666666666663</ele><time>2026-05-01T12:57:16.998Z</time></trkpt><trkpt lat="43.674653245581595" lon="12.455764717341411"><ele>327.3333333333333</ele><time>2026-05-01T12:57:17.998Z</time></trkpt><trkpt lat="43.67473989870893" lon="12.456041987768709"><ele>327.0</ele><time>2026-05-01T12:57:18.998Z</time></trkpt><trkpt lat="43.67482486227654" lon="12.456319300976586"><ele>326.0</ele><time>2026-05-01T12:57:19.998Z</time></trkpt><trkpt lat="43.67491379157577" lon="12.456595915947918"><ele>325.0</ele><time>2026-05-01T12:57:20.998Z</time></trkpt><trkpt lat="43.675003884325" lon="12.456874475462364"><ele>324.0</ele><time>2026-05-01T12:57:21.998Z</time></trkpt><trkpt lat="43.67509117732954" lon="12.457154268232781"><ele>324.0</ele><time>2026-05-01T12:57:22.998Z</time></trkpt><trkpt lat="43.67518298522869" lon="12.457432419045043"><ele>324.0</ele><time>2026-05-01T12:57:23.998Z</time></trkpt><trkpt lat="43.67527604745471" lon="12.457709584267883"><ele>324.0</ele><time>2026-05-01T12:57:24.998Z</time></trkpt><trkpt lat="43.67536560635369" lon="12.457989847279396"><ele>323.6666666666667</ele><time>2026-05-01T12:57:25.998Z</time></trkpt><trkpt lat="43.67544884875205" lon="12.458258034269226"><ele>323.33333333333337</ele><time>2026-05-01T12:57:26.998Z</time></trkpt><trkpt lat="43.675531739123635" lon="12.458523689632228"><ele>323.0</ele><time>2026-05-01T12:57:27.998Z</time></trkpt><trkpt lat="43.67561755579409" lon="12.45878863788392"><ele>323.0</ele><time>2026-05-01T12:57:28.998Z</time></trkpt><trkpt lat="43.67570425378446" lon="12.459051368916104"><ele>323.0</ele><time>2026-05-01T12:57:29.998Z</time></trkpt><trkpt lat="43.67578858720172" lon="12.459314229784269"><ele>323.0</ele><time>2026-05-01T12:57:30.998Z</time></trkpt><trkpt lat="43.675868321529286" lon="12.459581582872708"><ele>322.6666666666667</ele><time>2026-05-01T12:57:31.999Z</time></trkpt><trkpt lat="43.675951874210334" lon="12.459846358215703"><ele>322.3333333333333</ele><time>2026-05-01T12:57:32.999Z</time></trkpt><trkpt lat="43.676037434502305" lon="12.460113742063056"><ele>322.0</ele><time>2026-05-01T12:57:33.999Z</time></trkpt><trkpt lat="43.67610379552008" lon="12.460400765431967"><ele>323.5</ele><time>2026-05-01T12:57:34.999Z</time></trkpt><trkpt lat="43.67615615685377" lon="12.460703113420468"><ele>325.0</ele><time>2026-05-01T12:57:35.999Z</time></trkpt><trkpt lat="43.6761966228796" lon="12.461015299410866"><ele>323.5</ele><time>2026-05-01T12:57:36.999Z</time></trkpt><trkpt lat="43.67623901826908" lon="12.461330082951548"><ele>322.0</ele><time>2026-05-01T12:57:37.999Z</time></trkpt><trkpt lat="43.67628978462894" lon="12.461642947081618"><ele>322.0</ele><time>2026-05-01T12:57:38.999Z</time></trkpt><trkpt lat="43.6763473567631" lon="12.461953159943626"><ele>322.0</ele><time>2026-05-01T12:57:39.999Z</time></trkpt><trkpt lat="43.676427578887086" lon="12.462252164576933"><ele>321.5</ele><time>2026-05-01T12:57:40.999Z</time></trkpt><trkpt lat="43.676527870360765" lon="12.462539106928046"><ele>321.0</ele><time>2026-05-01T12:57:41.999Z</time></trkpt><trkpt lat="43.67663266674811" lon="12.462822943926172"><ele>320.5</ele><time>2026-05-01T12:57:42.999Z</time></trkpt><trkpt lat="43.676733779455795" lon="12.463107770704617"><ele>320.0</ele><time>2026-05-01T12:57:43.999Z</time></trkpt><trkpt lat="43.67683077382739" lon="12.463392218977242"><ele>320.0</ele><time>2026-05-01T12:57:44.999Z</time></trkpt><trkpt lat="43.676931475071505" lon="12.463676476540405"><ele>320.0</ele><time>2026-05-01T12:57:45.999Z</time></trkpt><trkpt lat="43.67703100293116" lon="12.46396092943365"><ele>319.5</ele><time>2026-05-01T12:57:46.999Z</time></trkpt><trkpt lat="43.677128263242174" lon="12.464248934402413"><ele>319.0</ele><time>2026-05-01T12:57:47.999Z</time></trkpt><trkpt lat="43.67722695583203" lon="12.46453752348909"><ele>319.5</ele><time>2026-05-01T12:57:48.999Z</time></trkpt><trkpt lat="43.67732772005118" lon="12.464826190718613"><ele>320.0</ele><time>2026-05-01T12:57:49.999Z</time></trkpt><trkpt lat="43.677428301588385" lon="12.465115091628103"><ele>320.0</ele><time>2026-05-01T12:57:50.999Z</time></trkpt><trkpt lat="43.67752702796778" lon="12.465399206405511"><ele>320.0</ele><time>2026-05-01T12:57:51.999Z</time></trkpt><trkpt lat="43.677619976727456" lon="12.465667202159148"><ele>320.0</ele><time>2026-05-01T12:57:52.999Z</time></trkpt><trkpt lat="43.67770597500356" lon="12.465917931174213"><ele>318.33333333333337</ele><time>2026-05-01T12:57:53.999Z</time></trkpt><trkpt lat="43.677783763210954" lon="12.466164319689273"><ele>316.6666666666667</ele><time>2026-05-01T12:57:54.999Z</time></trkpt><trkpt lat="43.67787006607682" lon="12.466412008482216"><ele>315.0</ele><time>2026-05-01T12:57:55.999Z</time></trkpt><trkpt lat="43.67795618961256" lon="12.466664406937884"><ele>315.0</ele><time>2026-05-01T12:57:56.999Z</time></trkpt><trkpt lat="43.67803484856436" lon="12.466923691066098"><ele>315.0</ele><time>2026-05-01T12:57:57.999Z</time></trkpt><trkpt lat="43.67809580986199" lon="12.467195744157877"><ele>315.0</ele><time>2026-05-01T12:57:58.999Z</time></trkpt><trkpt lat="43.67813563391337" lon="12.46748455556341"><ele>314.3333333333333</ele><time>2026-05-01T12:57:59.999Z</time></trkpt><trkpt lat="43.67815609871382" lon="12.467781111342475"><ele>313.66666666666663</ele><time>2026-05-01T12:58:00.999Z</time></trkpt><trkpt lat="43.67815647194112" lon="12.468089986920129"><ele>313.0</ele><time>2026-05-01T12:58:01.999Z</time></trkpt><trkpt lat="43.67813588657994" lon="12.468403133646062"><ele>311.5</ele><time>2026-05-01T12:58:02.999Z</time></trkpt><trkpt lat="43.67809395944894" lon="12.468718551040762"><ele>310.0</ele><time>2026-05-01T12:58:03.999Z</time></trkpt><trkpt lat="43.678026928462465" lon="12.469031297401735"><ele>306.0</ele><time>2026-05-01T12:58:04.999Z</time></trkpt><trkpt lat="43.67793100466532" lon="12.469331349276588"><ele>302.0</ele><time>2026-05-01T12:58:05.999Z</time></trkpt><trkpt lat="43.67783997770593" lon="12.469624398999542"><ele>302.0</ele><time>2026-05-01T12:58:06.999Z</time></trkpt><trkpt lat="43.67775634479209" lon="12.469899653336833"><ele>302.0</ele><time>2026-05-01T12:58:07.999Z</time></trkpt><trkpt lat="43.677687707908895" lon="12.470164602388058"><ele>302.0</ele><time>2026-05-01T12:58:08.999Z</time></trkpt><trkpt lat="43.67764881617063" lon="12.470437549036255"><ele>304.0</ele><time>2026-05-01T12:58:09.999Z</time></trkpt><trkpt lat="43.67763276332449" lon="12.470723483411593"><ele>306.0</ele><time>2026-05-01T12:58:10.999Z</time></trkpt><trkpt lat="43.67763948194792" lon="12.471011648623781"><ele>308.0</ele><time>2026-05-01T12:58:11.999Z</time></trkpt><trkpt lat="43.6776501503925" lon="12.471299768749919"><ele>308.6666666666667</ele><time>2026-05-01T12:58:12.999Z</time></trkpt><trkpt lat="43.6776537395553" lon="12.471587210262545"><ele>309.3333333333333</ele><time>2026-05-01T12:58:13.999Z</time></trkpt><trkpt lat="43.677656321821125" lon="12.471877319995057"><ele>310.0</ele><time>2026-05-01T12:58:14.999Z</time></trkpt><trkpt lat="43.677662288923464" lon="12.472167159323815"><ele>310.3333333333333</ele><time>2026-05-01T12:58:15.999Z</time></trkpt><trkpt lat="43.6776724173506" lon="12.47245679089692"><ele>310.6666666666667</ele><time>2026-05-01T12:58:16.999Z</time></trkpt><trkpt lat="43.677685106772586" lon="12.472764380184929"><ele>311.0</ele><time>2026-05-01T12:58:17.999Z</time></trkpt><trkpt lat="43.677697609738495" lon="12.473096807984728"><ele>311.0</ele><time>2026-05-01T12:58:18.999Z</time></trkpt><trkpt lat="43.67771659556141" lon="12.473458041125966"><ele>311.0</ele><time>2026-05-01T12:58:19.999Z</time></trkpt><trkpt lat="43.67772081509657" lon="12.47384527838972"><ele>311.0</ele><time>2026-05-01T12:58:20.999Z</time></trkpt><trkpt lat="43.677712512748826" lon="12.474242272436086"><ele>311.0</ele><time>2026-05-01T12:58:21.999Z</time></trkpt><trkpt lat="43.67772288262417" lon="12.474617423718128"><ele>311.5</ele><time>2026-05-01T12:58:22.999Z</time></trkpt><trkpt lat="43.67773665226207" lon="12.474989949183879"><ele>312.0</ele><time>2026-05-01T12:58:23.999Z</time></trkpt><trkpt lat="43.67774836224889" lon="12.475361935838414"><ele>311.0</ele><time>2026-05-01T12:58:24.999Z</time></trkpt><trkpt lat="43.67775649930599" lon="12.475731843007408"><ele>310.0</ele><time>2026-05-01T12:58:25.999Z</time></trkpt><trkpt lat="43.677764240225784" lon="12.476097115674438"><ele>307.5</ele><time>2026-05-01T12:58:26.999Z</time></trkpt><trkpt lat="43.67777079567142" lon="12.476456516491162"><ele>305.0</ele><time>2026-05-01T12:58:27.999Z</time></trkpt><trkpt lat="43.67777871868424" lon="12.47681334973697"><ele>304.5</ele><time>2026-05-01T12:58:28.999Z</time></trkpt><trkpt lat="43.67778975189068" lon="12.477167998082155"><ele>304.0</ele><time>2026-05-01T12:58:29.999Z</time></trkpt><trkpt lat="43.67779542882389" lon="12.477527304348996"><ele>304.0</ele><time>2026-05-01T12:58:30.999Z</time></trkpt><trkpt lat="43.67780085785034" lon="12.477884913244297"><ele>304.0</ele><time>2026-05-01T12:58:31.999Z</time></trkpt><trkpt lat="43.67780990843241" lon="12.478241828960138"><ele>303.5</ele><time>2026-05-01T12:58:32.999Z</time></trkpt><trkpt lat="43.67781991216846" lon="12.478598169942487"><ele>303.0</ele><time>2026-05-01T12:58:33.999Z</time></trkpt><trkpt lat="43.677829109949414" lon="12.478955139587717"><ele>304.5</ele><time>2026-05-01T12:58:34.999Z</time></trkpt><trkpt lat="43.677834452426914" lon="12.479311234464666"><ele>306.0</ele><time>2026-05-01T12:58:35.999Z</time></trkpt><trkpt lat="43.677840990824485" lon="12.479670390194253"><ele>306.5</ele><time>2026-05-01T12:58:36.999Z</time></trkpt><trkpt lat="43.677848079755115" lon="12.480028180002018"><ele>307.0</ele><time>2026-05-01T12:58:37.999Z</time></trkpt><trkpt lat="43.67785332541591" lon="12.480372730909968"><ele>307.5</ele><time>2026-05-01T12:58:38.999Z</time></trkpt><trkpt lat="43.67786460967067" lon="12.480706893524266"><ele>308.0</ele><time>2026-05-01T12:58:39.999Z</time></trkpt><trkpt lat="43.67788983491426" lon="12.481044631763917"><ele>308.5</ele><time>2026-05-01T12:58:40.999Z</time></trkpt><trkpt lat="43.67794438556353" lon="12.48138207346803"><ele>309.0</ele><time>2026-05-01T12:58:41.999Z</time></trkpt><trkpt lat="43.67802420033878" lon="12.481709565865936"><ele>309.0</ele><time>2026-05-01T12:58:42.999Z</time></trkpt><trkpt lat="43.67812550739008" lon="12.482028557850796"><ele>309.0</ele><time>2026-05-01T12:58:43.999Z</time></trkpt><trkpt lat="43.678225286673324" lon="12.482351791633661"><ele>308.5</ele><time>2026-05-01T12:58:44.999Z</time></trkpt><trkpt lat="43.67832226749356" lon="12.48267938612865"><ele>308.0</ele><time>2026-05-01T12:58:45.999Z</time></trkpt><trkpt lat="43.678420643831785" lon="12.483002910549011"><ele>307.0</ele><time>2026-05-01T12:58:46.999Z</time></trkpt><trkpt lat="43.67851690595183" lon="12.483328134522072"><ele>306.0</ele><time>2026-05-01T12:58:47.999Z</time></trkpt><trkpt lat="43.678616211276065" lon="12.483653639854332"><ele>306.0</ele><time>2026-05-01T12:58:48.999Z</time></trkpt><trkpt lat="43.678712707227504" lon="12.483975383169621"><ele>306.0</ele><time>2026-05-01T12:58:49.999Z</time></trkpt><trkpt lat="43.67880666906226" lon="12.48429125777935"><ele>306.0</ele><time>2026-05-01T12:58:50.999Z</time></trkpt><trkpt lat="43.67889908244077" lon="12.484595647491771"><ele>306.0</ele><time>2026-05-01T12:58:51.999Z</time></trkpt><trkpt lat="43.67897434042443" lon="12.484907372782947"><ele>306.0</ele><time>2026-05-01T12:58:52.999Z</time></trkpt><trkpt lat="43.67902674823577" lon="12.485233144437133"><ele>306.0</ele><time>2026-05-01T12:58:53.999Z</time></trkpt><trkpt lat="43.67905331980468" lon="12.485561943013431"><ele>305.0</ele><time>2026-05-01T12:58:54.999Z</time></trkpt><trkpt lat="43.679065261619215" lon="12.485893615687907"><ele>304.0</ele><time>2026-05-01T12:58:55.999Z</time></trkpt><trkpt lat="43.67905370035927" lon="12.486225804040025"><ele>304.5</ele><time>2026-05-01T12:58:56.999Z</time></trkpt><trkpt lat="43.67902316041601" lon="12.486556601628875"><ele>305.0</ele><time>2026-05-01T12:58:57.999Z</time></trkpt><trkpt lat="43.67898048357794" lon="12.486884439403417"><ele>305.5</ele><time>2026-05-01T12:58:58.999Z</time></trkpt><trkpt lat="43.67894093725754" lon="12.487214162186477"><ele>306.0</ele><time>2026-05-01T12:58:59.999Z</time></trkpt><trkpt lat="43.67890174779063" lon="12.487547125139209"><ele>306.0</ele><time>2026-05-01T12:59:00.999Z</time></trkpt><trkpt lat="43.678865325123525" lon="12.487884389640497"><ele>306.0</ele><time>2026-05-01T12:59:01.999Z</time></trkpt><trkpt lat="43.67882362972472" lon="12.488226142372742"><ele>305.5</ele><time>2026-05-01T12:59:02.999Z</time></trkpt><trkpt lat="43.67878218402534" lon="12.488569873621065"><ele>305.0</ele><time>2026-05-01T12:59:03.999Z</time></trkpt><trkpt lat="43.678741962917066" lon="12.48891536488764"><ele>303.0</ele><time>2026-05-01T12:59:04.999Z</time></trkpt><trkpt lat="43.67870371276302" lon="12.489261373015415"><ele>301.0</ele><time>2026-05-01T12:59:05.999Z</time></trkpt><trkpt lat="43.678664208372204" lon="12.489607156912866"><ele>300.0</ele><time>2026-05-01T12:59:06.999Z</time></trkpt><trkpt lat="43.678622688915354" lon="12.489954767830374"><ele>299.0</ele><time>2026-05-01T12:59:07.999Z</time></trkpt><trkpt lat="43.67858083167499" lon="12.49030526694434"><ele>300.0</ele><time>2026-05-01T12:59:08.999Z</time></trkpt><trkpt lat="43.67854148852545" lon="12.490641193825914"><ele>301.0</ele><time>2026-05-01T12:59:09.999Z</time></trkpt><trkpt lat="43.678504877605114" lon="12.490954834845192"><ele>301.0</ele><time>2026-05-01T12:59:10.999Z</time></trkpt><trkpt lat="43.678473413225205" lon="12.491231760839185"><ele>301.0</ele><time>2026-05-01T12:59:11.999Z</time></trkpt><trkpt lat="43.67844470303623" lon="12.49147061238173"><ele>301.0</ele><time>2026-05-01T12:59:12.999Z</time></trkpt><trkpt lat="43.6784208489819" lon="12.491675022141118"><ele>301.75</ele><time>2026-05-01T12:59:13.999Z</time></trkpt><trkpt lat="43.67840052022433" lon="12.491862250669849"><ele>302.5</ele><time>2026-05-01T12:59:14.999Z</time></trkpt><trkpt lat="43.67838207062085" lon="12.492028126352553"><ele>303.25</ele><time>2026-05-01T12:59:15.999Z</time></trkpt><trkpt lat="43.678362541571786" lon="12.492180668015166"><ele>304.0</ele><time>2026-05-01T12:59:16.999Z</time></trkpt><trkpt lat="43.67834139074813" lon="12.492331602383667"><ele>304.0</ele><time>2026-05-01T12:59:17.999Z</time></trkpt><trkpt lat="43.67832529447052" lon="12.492493300227727"><ele>304.0</ele><time>2026-05-01T12:59:18.999Z</time></trkpt><trkpt lat="43.678306226326114" lon="12.492658727181722"><ele>304.0</ele><time>2026-05-01T12:59:19.999Z</time></trkpt><trkpt lat="43.678285558558436" lon="12.492829604949907"><ele>304.0</ele><time>2026-05-01T12:59:20.999Z</time></trkpt><trkpt lat="43.67826254732332" lon="12.493004802517879"><ele>303.75</ele><time>2026-05-01T12:59:21.999Z</time></trkpt><trkpt lat="43.678242045489554" lon="12.493184261876454"><ele>303.5</ele><time>2026-05-01T12:59:22.999Z</time></trkpt><trkpt lat="43.67822211724178" lon="12.493368991135618"><ele>303.25</ele><time>2026-05-01T12:59:23.999Z</time></trkpt><trkpt lat="43.67819851267014" lon="12.49356336375526"><ele>303.0</ele><time>2026-05-01T12:59:24.999Z</time></trkpt><trkpt lat="43.67817351044062" lon="12.493770269953872"><ele>303.6666666666667</ele><time>2026-05-01T12:59:25.999Z</time></trkpt><trkpt lat="43.67814847555569" lon="12.49399392088787"><ele>304.33333333333337</ele><time>2026-05-01T12:59:26.999Z</time></trkpt><trkpt lat="43.67812264910943" lon="12.494233315799793"><ele>305.0</ele><time>2026-05-01T12:59:27.999Z</time></trkpt><trkpt lat="43.67809460694467" lon="12.494485277033968"><ele>305.6666666666667</ele><time>2026-05-01T12:59:28.999Z</time></trkpt><trkpt lat="43.67806352160615" lon="12.494752819648967"><ele>306.3333333333333</ele><time>2026-05-01T12:59:29.999Z</time></trkpt><trkpt lat="43.67803211221344" lon="12.495029859438246"><ele>307.0</ele><time>2026-05-01T12:59:30.999Z</time></trkpt><trkpt lat="43.67799730317197" lon="12.495313244097217"><ele>306.3333333333333</ele><time>2026-05-01T12:59:31.999Z</time></trkpt><trkpt lat="43.67796342694235" lon="12.49558411833901"><ele>305.6666666666667</ele><time>2026-05-01T12:59:32.999Z</time></trkpt><trkpt lat="43.67793146904339" lon="12.495860015397431"><ele>305.0</ele><time>2026-05-01T12:59:33.999Z</time></trkpt><trkpt lat="43.67789842774156" lon="12.4961362672233"><ele>305.0</ele><time>2026-05-01T12:59:34.999Z</time></trkpt><trkpt lat="43.677863271671995" lon="12.496412336570806"><ele>305.0</ele><time>2026-05-01T12:59:35.999Z</time></trkpt><trkpt lat="43.67782737599833" lon="12.496687140619706"><ele>305.0</ele><time>2026-05-01T12:59:36.998Z</time></trkpt><trkpt lat="43.67779440428596" lon="12.496965274985556"><ele>306.6666666666667</ele><time>2026-05-01T12:59:37.999Z</time></trkpt><trkpt lat="43.67776082856805" lon="12.497248607979913"><ele>308.3333333333333</ele><time>2026-05-01T12:59:38.999Z</time></trkpt><trkpt lat="43.67772598679838" lon="12.497535351720328"><ele>310.0</ele><time>2026-05-01T12:59:39.999Z</time></trkpt><trkpt lat="43.67768927680658" lon="12.49782210570417"><ele>309.66666666666663</ele><time>2026-05-01T12:59:40.999Z</time></trkpt><trkpt lat="43.677644866436005" lon="12.498109671561476"><ele>309.3333333333333</ele><time>2026-05-01T12:59:41.999Z</time></trkpt><trkpt lat="43.677589918945024" lon="12.498395978210269"><ele>309.0</ele><time>2026-05-01T12:59:42.999Z</time></trkpt><trkpt lat="43.677516581354624" lon="12.498679024151699"><ele>308.6666666666667</ele><time>2026-05-01T12:59:43.999Z</time></trkpt><trkpt lat="43.67740768985807" lon="12.498945583034187"><ele>308.33333333333337</ele><time>2026-05-01T12:59:44.999Z</time></trkpt><trkpt lat="43.677275259834644" lon="12.499190820739683"><ele>308.0</ele><time>2026-05-01T12:59:45.999Z</time></trkpt><trkpt lat="43.67712495605715" lon="12.499417359167193"><ele>308.33333333333337</ele><time>2026-05-01T12:59:46.999Z</time></trkpt><trkpt lat="43.67698143683317" lon="12.499645938445214"><ele>308.6666666666667</ele><time>2026-05-01T12:59:47.999Z</time></trkpt><trkpt lat="43.676842115133184" lon="12.499878565617589"><ele>309.0</ele><time>2026-05-01T12:59:48.999Z</time></trkpt><trkpt lat="43.6767082734445" lon="12.500101808287932"><ele>309.0</ele><time>2026-05-01T12:59:49.999Z</time></trkpt><trkpt lat="43.67658748047469" lon="12.500325445469155"><ele>309.0</ele><time>2026-05-01T12:59:50.999Z</time></trkpt><trkpt lat="43.676485389000014" lon="12.500560518796721"><ele>309.0</ele><time>2026-05-01T12:59:51.999Z</time></trkpt><trkpt lat="43.67641422558345" lon="12.500812264816103"><ele>306.6666666666667</ele><time>2026-05-01T12:59:52.999Z</time></trkpt><trkpt lat="43.67638807496308" lon="12.501084924719024"><ele>304.33333333333337</ele><time>2026-05-01T12:59:53.999Z</time></trkpt><trkpt lat="43.676374895719555" lon="12.501360768752845"><ele>302.0</ele><time>2026-05-01T12:59:54.999Z</time></trkpt><trkpt lat="43.67635665071334" lon="12.501635332558724"><ele>300.33333333333337</ele><time>2026-05-01T12:59:55.999Z</time></trkpt><trkpt lat="43.676333613913705" lon="12.501911784867378"><ele>298.6666666666667</ele><time>2026-05-01T12:59:56.999Z</time></trkpt><trkpt lat="43.67631295784517" lon="12.502177212175107"><ele>297.0</ele><time>2026-05-01T12:59:57.999Z</time></trkpt><trkpt lat="43.6762994857186" lon="12.502427336386578"><ele>296.3333333333333</ele><time>2026-05-01T12:59:58.999Z</time></trkpt><trkpt lat="43.67630093153205" lon="12.50266664969224"><ele>295.66666666666663</ele><time>2026-05-01T12:59:59.999Z</time></trkpt><trkpt lat="43.676321320868716" lon="12.50291701646889"><ele>295.0</ele><time>2026-05-01T13:00:00.999Z</time></trkpt><trkpt lat="43.67635815708376" lon="12.503172000612032"><ele>296.3333333333333</ele><time>2026-05-01T13:00:01.999Z</time></trkpt><trkpt lat="43.676398558313664" lon="12.50338736948503"><ele>297.6666666666667</ele><time>2026-05-01T13:00:02.999Z</time></trkpt><trkpt lat="43.676429254208585" lon="12.503591213911355"><ele>299.0</ele><time>2026-05-01T13:00:03.999Z</time></trkpt><trkpt lat="43.676458284436656" lon="12.503792480510052"><ele>301.33333333333337</ele><time>2026-05-01T13:00:04.999Z</time></trkpt><trkpt lat="43.67649246744531" lon="12.50399493509595"><ele>303.6666666666667</ele><time>2026-05-01T13:00:05.999Z</time></trkpt><trkpt lat="43.6765320362994" lon="12.504204870891542"><ele>306.0</ele><time>2026-05-01T13:00:06.999Z</time></trkpt><trkpt lat="43.67657341895495" lon="12.50441866651877"><ele>305.6666666666667</ele><time>2026-05-01T13:00:07.999Z</time></trkpt><trkpt lat="43.67661287555871" lon="12.504637242950029"><ele>305.33333333333337</ele><time>2026-05-01T13:00:08.999Z</time></trkpt><trkpt lat="43.676643235652115" lon="12.504863457659617"><ele>305.0</ele><time>2026-05-01T13:00:09.999Z</time></trkpt><trkpt lat="43.676665796731434" lon="12.505097754224387"><ele>305.0</ele><time>2026-05-01T13:00:10.999Z</time></trkpt><trkpt lat="43.67667752845918" lon="12.50536024423609"><ele>305.0</ele><time>2026-05-01T13:00:11.999Z</time></trkpt><trkpt lat="43.67666961834993" lon="12.505641419931461"><ele>305.0</ele><time>2026-05-01T13:00:12.999Z</time></trkpt><trkpt lat="43.67664672623098" lon="12.50593792480784"><ele>302.0</ele><time>2026-05-01T13:00:13.999Z</time></trkpt><trkpt lat="43.67661204591014" lon="12.50624580609926"><ele>299.0</ele><time>2026-05-01T13:00:14.999Z</time></trkpt><trkpt lat="43.67657830602221" lon="12.506552390849953"><ele>299.0</ele><time>2026-05-01T13:00:15.999Z</time></trkpt><trkpt lat="43.6765539412923" lon="12.50686009562469"><ele>299.0</ele><time>2026-05-01T13:00:16.999Z</time></trkpt><trkpt lat="43.676533808575314" lon="12.507170876698718"><ele>298.5</ele><time>2026-05-01T13:00:17.999Z</time></trkpt><trkpt lat="43.6765236567335" lon="12.507484550100616"><ele>298.0</ele><time>2026-05-01T13:00:18.999Z</time></trkpt><trkpt lat="43.67652972589283" lon="12.50779700594293"><ele>298.5</ele><time>2026-05-01T13:00:19.999Z</time></trkpt><trkpt lat="43.67655802494021" lon="12.508107814298453"><ele>299.0</ele><time>2026-05-01T13:00:20.999Z</time></trkpt><trkpt lat="43.67661719853498" lon="12.508414399658005"><ele>299.0</ele><time>2026-05-01T13:00:21.999Z</time></trkpt><trkpt lat="43.67670234083419" lon="12.508710134229005"><ele>299.0</ele><time>2026-05-01T13:00:22.999Z</time></trkpt><trkpt lat="43.676804767102915" lon="12.508997190440335"><ele>297.0</ele><time>2026-05-01T13:00:23.999Z</time></trkpt><trkpt lat="43.67691937965247" lon="12.509277157515783"><ele>295.0</ele><time>2026-05-01T13:00:24.999Z</time></trkpt><trkpt lat="43.67703417019415" lon="12.509557770782852"><ele>294.3333333333333</ele><time>2026-05-01T13:00:25.999Z</time></trkpt><trkpt lat="43.6771423015648" lon="12.509832245518648"><ele>293.6666666666667</ele><time>2026-05-01T13:00:26.999Z</time></trkpt><trkpt lat="43.67723957212017" lon="12.51009527508816"><ele>293.0</ele><time>2026-05-01T13:00:27.999Z</time></trkpt><trkpt lat="43.67731462760764" lon="12.51036042277641"><ele>292.33333333333337</ele><time>2026-05-01T13:00:28.999Z</time></trkpt><trkpt lat="43.67736759023674" lon="12.510640589920111"><ele>291.6666666666667</ele><time>2026-05-01T13:00:29.999Z</time></trkpt><trkpt lat="43.67739466121706" lon="12.510932899294598"><ele>291.0</ele><time>2026-05-01T13:00:30.999Z</time></trkpt><trkpt lat="43.677398389362985" lon="12.51123328477832"><ele>290.6666666666667</ele><time>2026-05-01T13:00:31.999Z</time></trkpt><trkpt lat="43.67738345467724" lon="12.511535124307912"><ele>290.33333333333337</ele><time>2026-05-01T13:00:32.999Z</time></trkpt><trkpt lat="43.677356396399134" lon="12.511838235445815"><ele>290.0</ele><time>2026-05-01T13:00:33.999Z</time></trkpt><trkpt lat="43.67731560620806" lon="12.512126784567105"><ele>290.0</ele><time>2026-05-01T13:00:34.999Z</time></trkpt><trkpt lat="43.677265125553085" lon="12.512379224646615"><ele>290.0</ele><time>2026-05-01T13:00:35.999Z</time></trkpt><trkpt lat="43.67719597320237" lon="12.512603934330595"><ele>290.0</ele><time>2026-05-01T13:00:36.999Z</time></trkpt><trkpt lat="43.67709604016751" lon="12.512782088630841"><ele>290.0</ele><time>2026-05-01T13:00:37.999Z</time></trkpt><trkpt lat="43.676949294325716" lon="12.512897658023512"><ele>290.0</ele><time>2026-05-01T13:00:38.999Z</time></trkpt><trkpt lat="43.67677827386849" lon="12.512952418319978"><ele>290.0</ele><time>2026-05-01T13:00:39.999Z</time></trkpt><trkpt lat="43.67659557242209" lon="12.512942223602979"><ele>287.6666666666667</ele><time>2026-05-01T13:00:40.999Z</time></trkpt><trkpt lat="43.67641072070701" lon="12.512911492474535"><ele>285.3333333333333</ele><time>2026-05-01T13:00:41.999Z</time></trkpt><trkpt lat="43.67621893039518" lon="12.512894038405895"><ele>283.0</ele><time>2026-05-01T13:00:42.999Z</time></trkpt><trkpt lat="43.6760330348294" lon="12.512896778835172"><ele>285.0</ele><time>2026-05-01T13:00:43.999Z</time></trkpt><trkpt lat="43.675851002334696" lon="12.512958194595047"><ele>287.0</ele><time>2026-05-01T13:00:44.999Z</time></trkpt><trkpt lat="43.67568423169161" lon="12.513094090427082"><ele>289.0</ele><time>2026-05-01T13:00:45.999Z</time></trkpt><trkpt lat="43.67552599748234" lon="12.513256343647926"><ele>289.0</ele><time>2026-05-01T13:00:46.999Z</time></trkpt><trkpt lat="43.67537362409077" lon="12.513421832328808"><ele>289.0</ele><time>2026-05-01T13:00:47.999Z</time></trkpt><trkpt lat="43.67521413458949" lon="12.51357890378821"><ele>289.0</ele><time>2026-05-01T13:00:48.999Z</time></trkpt><trkpt lat="43.67505096478676" lon="12.513724425434594"><ele>290.0</ele><time>2026-05-01T13:00:49.999Z</time></trkpt><trkpt lat="43.67489511896704" lon="12.513882489251701"><ele>291.0</ele><time>2026-05-01T13:00:50.999Z</time></trkpt><trkpt lat="43.67473842334712" lon="12.514042288639711"><ele>292.0</ele><time>2026-05-01T13:00:51.999Z</time></trkpt><trkpt lat="43.67457507136985" lon="12.514190563511974"><ele>292.0</ele><time>2026-05-01T13:00:52.999Z</time></trkpt><trkpt lat="43.67441395618345" lon="12.514337419210234"><ele>292.0</ele><time>2026-05-01T13:00:53.999Z</time></trkpt><trkpt lat="43.67426202497131" lon="12.514481466345416"><ele>292.0</ele><time>2026-05-01T13:00:54.999Z</time></trkpt><trkpt lat="43.674110936173776" lon="12.51461995646001"><ele>292.0</ele><time>2026-05-01T13:00:55.999Z</time></trkpt><trkpt lat="43.67396445199879" lon="12.5147585767328"><ele>292.0</ele><time>2026-05-01T13:00:56.999Z</time></trkpt><trkpt lat="43.673813034282134" lon="12.51489847080645"><ele>292.0</ele><time>2026-05-01T13:00:57.999Z</time></trkpt><trkpt lat="43.67366807853562" lon="12.515038665423875"><ele>292.3333333333333</ele><time>2026-05-01T13:00:58.999Z</time></trkpt><trkpt lat="43.67352110123081" lon="12.515184169400635"><ele>292.6666666666667</ele><time>2026-05-01T13:00:59.999Z</time></trkpt><trkpt lat="43.67337363462591" lon="12.515336702169012"><ele>293.0</ele><time>2026-05-01T13:01:00.999Z</time></trkpt><trkpt lat="43.67322840385196" lon="12.515497610875569"><ele>292.0</ele><time>2026-05-01T13:01:01.999Z</time></trkpt><trkpt lat="43.67308346399124" lon="12.515665266161818"><ele>291.0</ele><time>2026-05-01T13:01:02.999Z</time></trkpt><trkpt lat="43.672936089308436" lon="12.515831021241093"><ele>290.0</ele><time>2026-05-01T13:01:03.999Z</time></trkpt><trkpt lat="43.6727906313259" lon="12.51599521462364"><ele>289.33333333333337</ele><time>2026-05-01T13:01:04.999Z</time></trkpt><trkpt lat="43.672640558804595" lon="12.51616153717371"><ele>288.6666666666667</ele><time>2026-05-01T13:01:05.999Z</time></trkpt><trkpt lat="43.672489356598774" lon="12.51633508690001"><ele>288.0</ele><time>2026-05-01T13:01:06.999Z</time></trkpt><trkpt lat="43.67234247645813" lon="12.516504617346959"><ele>287.0</ele><time>2026-05-01T13:01:07.999Z</time></trkpt><trkpt lat="43.672205478102896" lon="12.516665556116568"><ele>286.0</ele><time>2026-05-01T13:01:08.999Z</time></trkpt><trkpt lat="43.672079264114664" lon="12.516814714251058"><ele>285.0</ele><time>2026-05-01T13:01:09.999Z</time></trkpt><trkpt lat="43.671959810327344" lon="12.51695211076593"><ele>284.0</ele><time>2026-05-01T13:01:10.999Z</time></trkpt><trkpt lat="43.67185268614864" lon="12.517081046532391"><ele>283.0</ele><time>2026-05-01T13:01:11.999Z</time></trkpt><trkpt lat="43.67175549934409" lon="12.517206921458351"><ele>282.0</ele><time>2026-05-01T13:01:12.999Z</time></trkpt><trkpt lat="43.671666325998885" lon="12.517331979443195"><ele>281.0</ele><time>2026-05-01T13:01:13.999Z</time></trkpt><trkpt lat="43.671587923419956" lon="12.517459169367863"><ele>281.0</ele><time>2026-05-01T13:01:14.999Z</time></trkpt><trkpt lat="43.67152117065359" lon="12.51758593377266"><ele>281.0</ele><time>2026-05-01T13:01:15.999Z</time></trkpt><trkpt lat="43.67145415522837" lon="12.517699797926493"><ele>281.0</ele><time>2026-05-01T13:01:16.999Z</time></trkpt><trkpt lat="43.67137342092005" lon="12.517786496503925"><ele>281.0</ele><time>2026-05-01T13:01:17.999Z</time></trkpt><trkpt lat="43.671289389292085" lon="12.51784287970457"><ele>281.0</ele><time>2026-05-01T13:01:18.999Z</time></trkpt><trkpt lat="43.67120767899281" lon="12.51788771271905"><ele>280.40000000000003</ele><time>2026-05-01T13:01:19.999Z</time></trkpt><trkpt lat="43.67114243803218" lon="12.517959504872787"><ele>279.8</ele><time>2026-05-01T13:01:20.999Z</time></trkpt><trkpt lat="43.67111559714093" lon="12.518066584435859"><ele>279.20000000000005</ele><time>2026-05-01T13:01:21.999Z</time></trkpt><trkpt lat="43.67113139196921" lon="12.51817610500736"><ele>278.6</ele><time>2026-05-01T13:01:22.999Z</time></trkpt><trkpt lat="43.67119608021448" lon="12.51827821508406"><ele>278.0</ele><time>2026-05-01T13:01:23.999Z</time></trkpt><trkpt lat="43.67127537699413" lon="12.518378612112116"><ele>278.0</ele><time>2026-05-01T13:01:24.999Z</time></trkpt><trkpt lat="43.6713229303638" lon="12.518526770458314"><ele>278.0</ele><time>2026-05-01T13:01:25.999Z</time></trkpt><trkpt lat="43.67133690404252" lon="12.518705136542023"><ele>278.0</ele><time>2026-05-01T13:01:26.999Z</time></trkpt><trkpt lat="43.671318978574874" lon="12.518905410867884"><ele>278.0</ele><time>2026-05-01T13:01:27.999Z</time></trkpt><trkpt lat="43.67130082652804" lon="12.519122934003283"><ele>274.6666666666667</ele><time>2026-05-01T13:01:28.999Z</time></trkpt><trkpt lat="43.67128170695917" lon="12.519339501742074"><ele>271.3333333333333</ele><time>2026-05-01T13:01:29.999Z</time></trkpt><trkpt lat="43.67126248988851" lon="12.519558802296663"><ele>268.0</ele><time>2026-05-01T13:01:30.999Z</time></trkpt><trkpt lat="43.6712413990361" lon="12.519786698584397"><ele>266.66666666666663</ele><time>2026-05-01T13:01:31.999Z</time></trkpt><trkpt lat="43.67121791736912" lon="12.520018926096412"><ele>265.3333333333333</ele><time>2026-05-01T13:01:32.999Z</time></trkpt><trkpt lat="43.671196077833066" lon="12.520255490879359"><ele>264.0</ele><time>2026-05-01T13:01:33.999Z</time></trkpt><trkpt lat="43.67117913773034" lon="12.520494855959745"><ele>267.3333333333333</ele><time>2026-05-01T13:01:34.999Z</time></trkpt><trkpt lat="43.67117163757642" lon="12.520728436928263"><ele>270.66666666666663</ele><time>2026-05-01T13:01:35.999Z</time></trkpt><trkpt lat="43.671178779420124" lon="12.520950213453865"><ele>274.0</ele><time>2026-05-01T13:01:36.999Z</time></trkpt><trkpt lat="43.67120253558104" lon="12.521134967290383"><ele>274.5</ele><time>2026-05-01T13:01:37.999Z</time></trkpt><trkpt lat="43.67123196075997" lon="12.521301034960134"><ele>275.0</ele><time>2026-05-01T13:01:38.999Z</time></trkpt><trkpt lat="43.671265657100406" lon="12.521475146072014"><ele>275.5</ele><time>2026-05-01T13:01:39.999Z</time></trkpt><trkpt lat="43.671304313301576" lon="12.521653269823839"><ele>276.0</ele><time>2026-05-01T13:01:40.999Z</time></trkpt><trkpt lat="43.67135271469678" lon="12.52181078174229"><ele>276.0</ele><time>2026-05-01T13:01:41.999Z</time></trkpt><trkpt lat="43.67140656398285" lon="12.521958725915418"><ele>276.0</ele><time>2026-05-01T13:01:42.999Z</time></trkpt><trkpt lat="43.671461251589285" lon="12.522092358079767"><ele>276.0</ele><time>2026-05-01T13:01:43.999Z</time></trkpt><trkpt lat="43.6715009279914" lon="12.522222525474854"><ele>276.0</ele><time>2026-05-01T13:01:44.999Z</time></trkpt><trkpt lat="43.67151221044702" lon="12.522354906459066"><ele>276.0</ele><time>2026-05-01T13:01:45.999Z</time></trkpt><trkpt lat="43.671511573746834" lon="12.522482598294038"><ele>276.2</ele><time>2026-05-01T13:01:46.999Z</time></trkpt><trkpt lat="43.671537601969376" lon="12.522608316778223"><ele>276.40000000000003</ele><time>2026-05-01T13:01:47.999Z</time></trkpt><trkpt lat="43.67160296860854" lon="12.522711291623983"><ele>276.6</ele><time>2026-05-01T13:01:48.999Z</time></trkpt><trkpt lat="43.671699736127245" lon="12.522771259088794"><ele>276.8</ele><time>2026-05-01T13:01:49.999Z</time></trkpt><trkpt lat="43.671815040441544" lon="12.522804120986466"><ele>277.0</ele><time>2026-05-01T13:01:50.999Z</time></trkpt><trkpt lat="43.67193953121528" lon="12.5228523099457"><ele>277.25</ele><time>2026-05-01T13:01:51.999Z</time></trkpt><trkpt lat="43.672062232813964" lon="12.52292794259794"><ele>277.5</ele><time>2026-05-01T13:01:52.999Z</time></trkpt><trkpt lat="43.67219316746249" lon="12.523006724704791"><ele>277.75</ele><time>2026-05-01T13:01:53.999Z</time></trkpt><trkpt lat="43.67233693612514" lon="12.523079030254207"><ele>278.0</ele><time>2026-05-01T13:01:54.999Z</time></trkpt><trkpt lat="43.67248824493229" lon="12.523157936168275"><ele>278.0</ele><time>2026-05-01T13:01:55.999Z</time></trkpt><trkpt lat="43.672646542941266" lon="12.52324006874862"><ele>278.0</ele><time>2026-05-01T13:01:56.999Z</time></trkpt><trkpt lat="43.6728061789281" lon="12.523319668779141"><ele>278.0</ele><time>2026-05-01T13:01:57.999Z</time></trkpt><trkpt lat="43.67314357752348" lon="12.523484148501185"><ele>278.33333333333337</ele><time>2026-05-01T13:01:59.999Z</time></trkpt><trkpt lat="43.673320928768206" lon="12.523565921577795"><ele>278.6666666666667</ele><time>2026-05-01T13:02:00.999Z</time></trkpt><trkpt lat="43.673502042290565" lon="12.523650508505032"><ele>279.0</ele><time>2026-05-01T13:02:01.999Z</time></trkpt><trkpt lat="43.673689389526366" lon="12.523737496458196"><ele>280.6666666666667</ele><time>2026-05-01T13:02:02.999Z</time></trkpt><trkpt lat="43.67386685272058" lon="12.523820852608099"><ele>282.33333333333337</ele><time>2026-05-01T13:02:03.999Z</time></trkpt><trkpt lat="43.674042318657236" lon="12.523900734919378"><ele>284.0</ele><time>2026-05-01T13:02:04.999Z</time></trkpt><trkpt lat="43.67421732813676" lon="12.523983747283411"><ele>284.0</ele><time>2026-05-01T13:02:05.999Z</time></trkpt><trkpt lat="43.6743955502933" lon="12.524060925338516"><ele>284.0</ele><time>2026-05-01T13:02:06.999Z</time></trkpt><trkpt lat="43.67456846699316" lon="12.524131017121043"><ele>284.0</ele><time>2026-05-01T13:02:07.999Z</time></trkpt><trkpt lat="43.67472840011043" lon="12.524184391108276"><ele>284.25</ele><time>2026-05-01T13:02:08.999Z</time></trkpt><trkpt lat="43.674880850545726" lon="12.524219567912134"><ele>284.5</ele><time>2026-05-01T13:02:09.999Z</time></trkpt><trkpt lat="43.67501517738365" lon="12.524263043186036"><ele>284.75</ele><time>2026-05-01T13:02:10.999Z</time></trkpt><trkpt lat="43.67514039997339" lon="12.524343514065361"><ele>285.0</ele><time>2026-05-01T13:02:11.999Z</time></trkpt><trkpt lat="43.67526139982919" lon="12.524416061758675"><ele>286.0</ele><time>2026-05-01T13:02:12.999Z</time></trkpt><trkpt lat="43.675379276200964" lon="12.52441191039413"><ele>287.0</ele><time>2026-05-01T13:02:13.999Z</time></trkpt><trkpt lat="43.67550480565788" lon="12.524404525654974"><ele>288.0</ele><time>2026-05-01T13:02:14.999Z</time></trkpt><trkpt lat="43.675629973001264" lon="12.524461098113221"><ele>289.0</ele><time>2026-05-01T13:02:15.999Z</time></trkpt><trkpt lat="43.675759994903245" lon="12.524541752174606"><ele>292.3333333333333</ele><time>2026-05-01T13:02:16.999Z</time></trkpt><trkpt lat="43.675887415458774" lon="12.524641937846772"><ele>295.6666666666667</ele><time>2026-05-01T13:02:17.999Z</time></trkpt><trkpt lat="43.67601609849818" lon="12.524762095769914"><ele>299.0</ele><time>2026-05-01T13:02:18.999Z</time></trkpt><trkpt lat="43.676145919551075" lon="12.524888205870827"><ele>299.0</ele><time>2026-05-01T13:02:19.999Z</time></trkpt><trkpt lat="43.67627795687295" lon="12.52501230562083"><ele>299.0</ele><time>2026-05-01T13:02:20.999Z</time></trkpt><trkpt lat="43.67640987299635" lon="12.52513047726338"><ele>299.0</ele><time>2026-05-01T13:02:21.999Z</time></trkpt><trkpt lat="43.676535523395415" lon="12.525248046931797"><ele>299.0</ele><time>2026-05-01T13:02:22.999Z</time></trkpt><trkpt lat="43.67664762384124" lon="12.52534914866016"><ele>299.0</ele><time>2026-05-01T13:02:23.999Z</time></trkpt><trkpt lat="43.67675968529938" lon="12.525399152823482"><ele>299.0</ele><time>2026-05-01T13:02:24.999Z</time></trkpt><trkpt lat="43.67688403899268" lon="12.525356589361037"><ele>299.0</ele><time>2026-05-01T13:02:25.999Z</time></trkpt><trkpt lat="43.676995472926535" lon="12.525266558671255"><ele>300.33333333333337</ele><time>2026-05-01T13:02:26.999Z</time></trkpt><trkpt lat="43.67708437520644" lon="12.525207276083663"><ele>301.6666666666667</ele><time>2026-05-01T13:02:27.999Z</time></trkpt><trkpt lat="43.67716304603326" lon="12.5252304271429"><ele>303.0</ele><time>2026-05-01T13:02:28.999Z</time></trkpt><trkpt lat="43.67720003060424" lon="12.525324294188938"><ele>304.3333333333333</ele><time>2026-05-01T13:02:29.999Z</time></trkpt><trkpt lat="43.67719280719543" lon="12.525436999107335"><ele>305.66666666666663</ele><time>2026-05-01T13:02:30.999Z</time></trkpt><trkpt lat="43.677149289329435" lon="12.52556659803465"><ele>307.0</ele><time>2026-05-01T13:02:31.999Z</time></trkpt><trkpt lat="43.67711444910973" lon="12.525703947837552"><ele>307.0</ele><time>2026-05-01T13:02:32.999Z</time></trkpt><trkpt lat="43.67708931697068" lon="12.525857004574357"><ele>307.0</ele><time>2026-05-01T13:02:33.999Z</time></trkpt><trkpt lat="43.677100216548794" lon="12.526029393531852"><ele>307.0</ele><time>2026-05-01T13:02:34.999Z</time></trkpt><trkpt lat="43.677150722587186" lon="12.526197229484861"><ele>307.0</ele><time>2026-05-01T13:02:35.999Z</time></trkpt><trkpt lat="43.67722017156472" lon="12.526366747557809"><ele>308.25</ele><time>2026-05-01T13:02:36.999Z</time></trkpt><trkpt lat="43.677289151720764" lon="12.526532956702823"><ele>309.5</ele><time>2026-05-01T13:02:37.999Z</time></trkpt><trkpt lat="43.67736733867824" lon="12.526672105966409"><ele>310.75</ele><time>2026-05-01T13:02:38.999Z</time></trkpt><trkpt lat="43.67748200412852" lon="12.526767538339442"><ele>312.0</ele><time>2026-05-01T13:02:39.999Z</time></trkpt><trkpt lat="43.67760626277635" lon="12.526792905359725"><ele>312.0</ele><time>2026-05-01T13:02:40.999Z</time></trkpt><trkpt lat="43.67772501472424" lon="12.5267422259542"><ele>312.0</ele><time>2026-05-01T13:02:41.999Z</time></trkpt><trkpt lat="43.67783241914747" lon="12.526704788002215"><ele>312.0</ele><time>2026-05-01T13:02:42.999Z</time></trkpt><trkpt lat="43.67791618637167" lon="12.52676772302683"><ele>312.0</ele><time>2026-05-01T13:02:43.999Z</time></trkpt><trkpt lat="43.677972087356956" lon="12.526895797168843"><ele>312.0</ele><time>2026-05-01T13:02:44.999Z</time></trkpt><trkpt lat="43.678001443361396" lon="12.52706127135059"><ele>315.0</ele><time>2026-05-01T13:02:45.999Z</time></trkpt><trkpt lat="43.678044368378444" lon="12.527230938210385"><ele>318.0</ele><time>2026-05-01T13:02:46.999Z</time></trkpt><trkpt lat="43.6780980394851" lon="12.527415936805724"><ele>321.0</ele><time>2026-05-01T13:02:47.999Z</time></trkpt><trkpt lat="43.678148970077224" lon="12.527617710367897"><ele>324.0</ele><time>2026-05-01T13:02:48.999Z</time></trkpt><trkpt lat="43.67820105903276" lon="12.527812737157742"><ele>323.3333333333333</ele><time>2026-05-01T13:02:49.999Z</time></trkpt><trkpt lat="43.678262630288195" lon="12.527997128152073"><ele>322.66666666666663</ele><time>2026-05-01T13:02:50.999Z</time></trkpt><trkpt lat="43.67833403483362" lon="12.528183216630161"><ele>322.0</ele><time>2026-05-01T13:02:51.999Z</time></trkpt><trkpt lat="43.67840777215075" lon="12.528368594038474"><ele>322.0</ele><time>2026-05-01T13:02:52.999Z</time></trkpt><trkpt lat="43.6784974807761" lon="12.52854879402"><ele>322.0</ele><time>2026-05-01T13:02:53.999Z</time></trkpt><trkpt lat="43.678599855272076" lon="12.528720532512946"><ele>322.0</ele><time>2026-05-01T13:02:54.999Z</time></trkpt><trkpt lat="43.67871129576321" lon="12.528885175831066"><ele>325.66666666666663</ele><time>2026-05-01T13:02:55.999Z</time></trkpt><trkpt lat="43.67883294974614" lon="12.529043041727176"><ele>329.3333333333333</ele><time>2026-05-01T13:02:56.999Z</time></trkpt><trkpt lat="43.67895734997721" lon="12.52919776598226"><ele>333.0</ele><time>2026-05-01T13:02:57.999Z</time></trkpt><trkpt lat="43.67909372700068" lon="12.529335684130688"><ele>333.0</ele><time>2026-05-01T13:02:58.999Z</time></trkpt><trkpt lat="43.67923892547857" lon="12.529460286185454"><ele>333.0</ele><time>2026-05-01T13:02:59.999Z</time></trkpt><trkpt lat="43.67939398423647" lon="12.529571285280385"><ele>333.0</ele><time>2026-05-01T13:03:00.999Z</time></trkpt><trkpt lat="43.679547135199805" lon="12.529680837980575"><ele>334.3333333333333</ele><time>2026-05-01T13:03:01.999Z</time></trkpt><trkpt lat="43.679690826920954" lon="12.529811944789387"><ele>335.66666666666663</ele><time>2026-05-01T13:03:02.999Z</time></trkpt><trkpt lat="43.67981871364907" lon="12.52997213175711"><ele>337.0</ele><time>2026-05-01T13:03:03.999Z</time></trkpt><trkpt lat="43.67992144933226" lon="12.530146800692227"><ele>337.0</ele><time>2026-05-01T13:03:04.999Z</time></trkpt><trkpt lat="43.67998967427849" lon="12.530316553154092"><ele>337.0</ele><time>2026-05-01T13:03:05.999Z</time></trkpt><trkpt lat="43.68002892287243" lon="12.530482148324982"><ele>337.0</ele><time>2026-05-01T13:03:06.999Z</time></trkpt><trkpt lat="43.68003042828065" lon="12.530637066494956"><ele>337.0</ele><time>2026-05-01T13:03:07.999Z</time></trkpt><trkpt lat="43.680019627696964" lon="12.53077612108799"><ele>337.25</ele><time>2026-05-01T13:03:08.999Z</time></trkpt><trkpt lat="43.680062481873776" lon="12.53091258256363"><ele>337.5</ele><time>2026-05-01T13:03:09.999Z</time></trkpt><trkpt lat="43.68015985374197" lon="12.531000331481739"><ele>337.75</ele><time>2026-05-01T13:03:10.999Z</time></trkpt><trkpt lat="43.6802885356669" lon="12.531009184600432"><ele>338.0</ele><time>2026-05-01T13:03:11.999Z</time></trkpt><trkpt lat="43.680414724809886" lon="12.530921893325454"><ele>341.25</ele><time>2026-05-01T13:03:12.999Z</time></trkpt><trkpt lat="43.68049756623762" lon="12.530762851687884"><ele>344.5</ele><time>2026-05-01T13:03:13.999Z</time></trkpt><trkpt lat="43.680513212523664" lon="12.530560896119152"><ele>347.75</ele><time>2026-05-01T13:03:14.999Z</time></trkpt><trkpt lat="43.68048162225386" lon="12.53036393196304"><ele>351.0</ele><time>2026-05-01T13:03:15.999Z</time></trkpt><trkpt lat="43.68045429469379" lon="12.530138686512927"><ele>352.0</ele><time>2026-05-01T13:03:16.999Z</time></trkpt><trkpt lat="43.68043111458984" lon="12.529914123360367"><ele>353.0</ele><time>2026-05-01T13:03:17.999Z</time></trkpt><trkpt lat="43.6803921146465" lon="12.529696102558706"><ele>354.0</ele><time>2026-05-01T13:03:18.999Z</time></trkpt><trkpt lat="43.68034593447397" lon="12.52948243443781"><ele>351.3333333333333</ele><time>2026-05-01T13:03:19.999Z</time></trkpt><trkpt lat="43.6802821274942" lon="12.529276757521325"><ele>348.66666666666663</ele><time>2026-05-01T13:03:20.999Z</time></trkpt><trkpt lat="43.680195022767755" lon="12.529096505322782"><ele>346.0</ele><time>2026-05-01T13:03:21.999Z</time></trkpt><trkpt lat="43.68010480228742" lon="12.528936730571319"><ele>346.0</ele><time>2026-05-01T13:03:22.999Z</time></trkpt><trkpt lat="43.68002516323915" lon="12.528824654302934"><ele>346.0</ele><time>2026-05-01T13:03:23.999Z</time></trkpt><trkpt lat="43.67998625487017" lon="12.528711425665973"><ele>346.0</ele><time>2026-05-01T13:03:24.999Z</time></trkpt><trkpt lat="43.6800017025107" lon="12.528584506565792"><ele>346.0</ele><time>2026-05-01T13:03:25.999Z</time></trkpt><trkpt lat="43.680061337750935" lon="12.528501315730395"><ele>346.0</ele><time>2026-05-01T13:03:26.999Z</time></trkpt><trkpt lat="43.68015310540111" lon="12.528490915464397"><ele>347.25</ele><time>2026-05-01T13:03:27.999Z</time></trkpt><trkpt lat="43.68023793828457" lon="12.528566812402344"><ele>348.5</ele><time>2026-05-01T13:03:28.999Z</time></trkpt><trkpt lat="43.680307099697515" lon="12.52869298116111"><ele>349.75</ele><time>2026-05-01T13:03:29.999Z</time></trkpt><trkpt lat="43.68036831863885" lon="12.528840808261696"><ele>351.0</ele><time>2026-05-01T13:03:30.999Z</time></trkpt><trkpt lat="43.6804339002571" lon="12.529008418716424"><ele>351.75</ele><time>2026-05-01T13:03:31.999Z</time></trkpt><trkpt lat="43.680509967142456" lon="12.529178827544333"><ele>352.5</ele><time>2026-05-01T13:03:32.999Z</time></trkpt><trkpt lat="43.68058121451281" lon="12.529350203380437"><ele>353.25</ele><time>2026-05-01T13:03:33.999Z</time></trkpt><trkpt lat="43.68063612483201" lon="12.529501153482023"><ele>354.0</ele><time>2026-05-01T13:03:34.999Z</time></trkpt><trkpt lat="43.680711478877704" lon="12.529624553999579"><ele>354.0</ele><time>2026-05-01T13:03:35.999Z</time></trkpt><trkpt lat="43.68082485722253" lon="12.529703730184304"><ele>354.0</ele><time>2026-05-01T13:03:36.999Z</time></trkpt><trkpt lat="43.68095517994184" lon="12.529727496999998"><ele>354.0</ele><time>2026-05-01T13:03:37.999Z</time></trkpt><trkpt lat="43.68108670309297" lon="12.529690714423669"><ele>354.0</ele><time>2026-05-01T13:03:38.999Z</time></trkpt><trkpt lat="43.68121911725034" lon="12.529624615206444"><ele>360.25</ele><time>2026-05-01T13:03:39.999Z</time></trkpt><trkpt lat="43.68135882305107" lon="12.529540753350792"><ele>366.5</ele><time>2026-05-01T13:03:40.999Z</time></trkpt><trkpt lat="43.68148800175244" lon="12.529445338792916"><ele>372.75</ele><time>2026-05-01T13:03:41.999Z</time></trkpt><trkpt lat="43.681611951672046" lon="12.529364404148671"><ele>379.0</ele><time>2026-05-01T13:03:42.999Z</time></trkpt><trkpt lat="43.68174944436618" lon="12.529301369638993"><ele>379.0</ele><time>2026-05-01T13:03:43.999Z</time></trkpt><trkpt lat="43.681896401732544" lon="12.5292690129828"><ele>379.0</ele><time>2026-05-01T13:03:44.999Z</time></trkpt><trkpt lat="43.68204592833177" lon="12.529268343010312"><ele>379.0</ele><time>2026-05-01T13:03:45.999Z</time></trkpt><trkpt lat="43.68218978544364" lon="12.529297165251428"><ele>379.0</ele><time>2026-05-01T13:03:46.999Z</time></trkpt><trkpt lat="43.682305860132836" lon="12.529370412274856"><ele>379.0</ele><time>2026-05-01T13:03:47.999Z</time></trkpt><trkpt lat="43.68238651415152" lon="12.529490633816076"><ele>379.0</ele><time>2026-05-01T13:03:48.999Z</time></trkpt><trkpt lat="43.682417268418" lon="12.529654412095967"><ele>379.0</ele><time>2026-05-01T13:03:49.999Z</time></trkpt><trkpt lat="43.682409823137036" lon="12.529818162309914"><ele>379.0</ele><time>2026-05-01T13:03:50.999Z</time></trkpt><trkpt lat="43.682418588670764" lon="12.529956632799852"><ele>379.0</ele><time>2026-05-01T13:03:51.999Z</time></trkpt><trkpt lat="43.682478218615785" lon="12.530040975785042"><ele>379.0</ele><time>2026-05-01T13:03:52.999Z</time></trkpt><trkpt lat="43.682566663083804" lon="12.530056109234351"><ele>379.0</ele><time>2026-05-01T13:03:53.999Z</time></trkpt><trkpt lat="43.682635637447774" lon="12.530000635824221"><ele>379.0</ele><time>2026-05-01T13:03:54.999Z</time></trkpt><trkpt lat="43.68266286934923" lon="12.529862498075026"><ele>379.0</ele><time>2026-05-01T13:03:55.999Z</time></trkpt><trkpt lat="43.68265645298993" lon="12.529707881684455"><ele>380.25</ele><time>2026-05-01T13:03:56.999Z</time></trkpt><trkpt lat="43.68264476070251" lon="12.529545942616787"><ele>381.5</ele><time>2026-05-01T13:03:57.999Z</time></trkpt><trkpt lat="43.68262153151294" lon="12.529380785109016"><ele>382.75</ele><time>2026-05-01T13:03:58.999Z</time></trkpt><trkpt lat="43.682551017632264" lon="12.52924132953387"><ele>384.0</ele><time>2026-05-01T13:03:59.999Z</time></trkpt><trkpt lat="43.68243547715199" lon="12.529150428784714"><ele>384.0</ele><time>2026-05-01T13:04:00.999Z</time></trkpt><trkpt lat="43.68232162134073" lon="12.529085094888432"><ele>384.0</ele><time>2026-05-01T13:04:01.999Z</time></trkpt><trkpt lat="43.68222348138632" lon="12.529030843147002"><ele>384.0</ele><time>2026-05-01T13:04:02.999Z</time></trkpt><trkpt lat="43.68217385503135" lon="12.528936849101521"><ele>384.0</ele><time>2026-05-01T13:04:03.999Z</time></trkpt><trkpt lat="43.68217505889352" lon="12.52882657122133"><ele>384.0</ele><time>2026-05-01T13:04:04.999Z</time></trkpt><trkpt lat="43.68223076416472" lon="12.528737773979053"><ele>384.0</ele><time>2026-05-01T13:04:05.999Z</time></trkpt><trkpt lat="43.68231902446735" lon="12.528737518868756"><ele>384.0</ele><time>2026-05-01T13:04:06.999Z</time></trkpt><trkpt lat="43.682411704476024" lon="12.52880992855992"><ele>384.0</ele><time>2026-05-01T13:04:07.999Z</time></trkpt><trkpt lat="43.68250413086941" lon="12.52889709159127"><ele>384.0</ele><time>2026-05-01T13:04:08.999Z</time></trkpt><trkpt lat="43.682605559876436" lon="12.52899768396286"><ele>384.0</ele><time>2026-05-01T13:04:09.999Z</time></trkpt><trkpt lat="43.68269555460583" lon="12.529131906072733"><ele>384.0</ele><time>2026-05-01T13:04:10.999Z</time></trkpt><trkpt lat="43.6827571252929" lon="12.529300365963547"><ele>384.0</ele><time>2026-05-01T13:04:11.999Z</time></trkpt><trkpt lat="43.68278924968279" lon="12.529487048069926"><ele>384.0</ele><time>2026-05-01T13:04:12.999Z</time></trkpt><trkpt lat="43.68285517445441" lon="12.529653298244105"><ele>384.0</ele><time>2026-05-01T13:04:13.999Z</time></trkpt><trkpt lat="43.682958976968216" lon="12.529775071452107"><ele>389.0</ele><time>2026-05-01T13:04:14.999Z</time></trkpt><trkpt lat="43.68303364487983" lon="12.529898561060905"><ele>394.0</ele><time>2026-05-01T13:04:15.999Z</time></trkpt><trkpt lat="43.6830543148651" lon="12.530068157320164"><ele>399.0</ele><time>2026-05-01T13:04:16.999Z</time></trkpt><trkpt lat="43.68303030883333" lon="12.530242220661124"><ele>404.0</ele><time>2026-05-01T13:04:17.999Z</time></trkpt><trkpt lat="43.68298228992388" lon="12.530398163698447"><ele>406.25</ele><time>2026-05-01T13:04:18.999Z</time></trkpt><trkpt lat="43.682900668275636" lon="12.53051591838219"><ele>408.5</ele><time>2026-05-01T13:04:19.999Z</time></trkpt><trkpt lat="43.68278621460156" lon="12.530583723261113"><ele>410.75</ele><time>2026-05-01T13:04:20.999Z</time></trkpt><trkpt lat="43.68265791700726" lon="12.530612651140373"><ele>413.0</ele><time>2026-05-01T13:04:21.999Z</time></trkpt><trkpt lat="43.68253502243207" lon="12.530679162203997"><ele>411.5</ele><time>2026-05-01T13:04:22.999Z</time></trkpt><trkpt lat="43.68242551425892" lon="12.530803425968669"><ele>410.0</ele><time>2026-05-01T13:04:23.999Z</time></trkpt><trkpt lat="43.682327253312344" lon="12.530953663238384"><ele>408.5</ele><time>2026-05-01T13:04:24.999Z</time></trkpt><trkpt lat="43.68223695217476" lon="12.531120914666525"><ele>407.0</ele><time>2026-05-01T13:04:25.999Z</time></trkpt><trkpt lat="43.6821673305423" lon="12.531300779987657"><ele>407.0</ele><time>2026-05-01T13:04:26.999Z</time></trkpt><trkpt lat="43.68210705032888" lon="12.531479999641693"><ele>407.0</ele><time>2026-05-01T13:04:27.999Z</time></trkpt><trkpt lat="43.682046782396675" lon="12.531656391524002"><ele>407.0</ele><time>2026-05-01T13:04:28.999Z</time></trkpt><trkpt lat="43.682000288826785" lon="12.531806042737614"><ele>407.0</ele><time>2026-05-01T13:04:29.999Z</time></trkpt><trkpt lat="43.68200003024626" lon="12.531967597644881"><ele>410.0</ele><time>2026-05-01T13:04:30.999Z</time></trkpt><trkpt lat="43.682044125840115" lon="12.532141805670749"><ele>413.0</ele><time>2026-05-01T13:04:31.999Z</time></trkpt><trkpt lat="43.68210407374427" lon="12.532319146127504"><ele>416.0</ele><time>2026-05-01T13:04:32.999Z</time></trkpt><trkpt lat="43.682149630419026" lon="12.532514714429281"><ele>419.0</ele><time>2026-05-01T13:04:33.999Z</time></trkpt><trkpt lat="43.682168041928016" lon="12.532724137034993"><ele>418.0</ele><time>2026-05-01T13:04:34.999Z</time></trkpt><trkpt lat="43.68214825643069" lon="12.53292443143361"><ele>417.0</ele><time>2026-05-01T13:04:35.999Z</time></trkpt><trkpt lat="43.68212125147882" lon="12.533121091454179"><ele>416.0</ele><time>2026-05-01T13:04:36.999Z</time></trkpt><trkpt lat="43.68210675879552" lon="12.533306740873348"><ele>415.0</ele><time>2026-05-01T13:04:37.999Z</time></trkpt><trkpt lat="43.68210420403523" lon="12.53346938283987"><ele>415.0</ele><time>2026-05-01T13:04:38.999Z</time></trkpt><trkpt lat="43.68211973838905" lon="12.533602523675299"><ele>415.0</ele><time>2026-05-01T13:04:39.999Z</time></trkpt><trkpt lat="43.68218370743387" lon="12.533722472047188"><ele>415.0</ele><time>2026-05-01T13:04:40.999Z</time></trkpt><trkpt lat="43.68229077243425" lon="12.533789059015948"><ele>415.0</ele><time>2026-05-01T13:04:41.999Z</time></trkpt><trkpt lat="43.68241376925585" lon="12.533812534747833"><ele>415.0</ele><time>2026-05-01T13:04:42.999Z</time></trkpt><trkpt lat="43.68253886438664" lon="12.533870865305506"><ele>412.75</ele><time>2026-05-01T13:04:43.999Z</time></trkpt><trkpt lat="43.68265746135027" lon="12.5339783398737"><ele>410.5</ele><time>2026-05-01T13:04:44.999Z</time></trkpt><trkpt lat="43.68274380254006" lon="12.534118892974602"><ele>408.25</ele><time>2026-05-01T13:04:45.999Z</time></trkpt><trkpt lat="43.68280609177243" lon="12.534277850814599"><ele>406.0</ele><time>2026-05-01T13:04:46.999Z</time></trkpt><trkpt lat="43.68282134115786" lon="12.534466298960895"><ele>406.5</ele><time>2026-05-01T13:04:47.999Z</time></trkpt><trkpt lat="43.68278110204203" lon="12.534658529146132"><ele>407.0</ele><time>2026-05-01T13:04:48.999Z</time></trkpt><trkpt lat="43.682709243790555" lon="12.534828845666535"><ele>407.5</ele><time>2026-05-01T13:04:49.999Z</time></trkpt><trkpt lat="43.682605688726866" lon="12.534945369041935"><ele>408.0</ele><time>2026-05-01T13:04:50.999Z</time></trkpt><trkpt lat="43.68246984430975" lon="12.534964472034899"><ele>408.0</ele><time>2026-05-01T13:04:51.999Z</time></trkpt><trkpt lat="43.68232690843027" lon="12.534950215330735"><ele>408.0</ele><time>2026-05-01T13:04:52.999Z</time></trkpt><trkpt lat="43.68218248284844" lon="12.534948321033673"><ele>408.0</ele><time>2026-05-01T13:04:53.999Z</time></trkpt><trkpt lat="43.68203683659282" lon="12.534956437638774"><ele>408.0</ele><time>2026-05-01T13:04:54.999Z</time></trkpt><trkpt lat="43.68189732044735" lon="12.534933917090372"><ele>409.0</ele><time>2026-05-01T13:04:55.999Z</time></trkpt><trkpt lat="43.681782798462365" lon="12.53489654552497"><ele>410.0</ele><time>2026-05-01T13:04:56.999Z</time></trkpt><trkpt lat="43.68169218355034" lon="12.534893767696008"><ele>411.0</ele><time>2026-05-01T13:04:57.999Z</time></trkpt><trkpt lat="43.68162242073731" lon="12.534952788869463"><ele>412.0</ele><time>2026-05-01T13:04:58.999Z</time></trkpt><trkpt lat="43.6816158345201" lon="12.535056499571805"><ele>413.0</ele><time>2026-05-01T13:04:59.999Z</time></trkpt><trkpt lat="43.68166990573087" lon="12.535142350178592"><ele>414.0</ele><time>2026-05-01T13:05:00.999Z</time></trkpt><trkpt lat="43.68175548976891" lon="12.535204154050367"><ele>414.0</ele><time>2026-05-01T13:05:01.999Z</time></trkpt><trkpt lat="43.68185306231196" lon="12.535248538141843"><ele>414.0</ele><time>2026-05-01T13:05:02.999Z</time></trkpt><trkpt lat="43.68195936091475" lon="12.535295288100453"><ele>414.0</ele><time>2026-05-01T13:05:03.999Z</time></trkpt><trkpt lat="43.68207327435981" lon="12.535347598643803"><ele>414.0</ele><time>2026-05-01T13:05:04.999Z</time></trkpt><trkpt lat="43.68218664385696" lon="12.535405240494146"><ele>415.5</ele><time>2026-05-01T13:05:05.999Z</time></trkpt><trkpt lat="43.68228278627645" lon="12.535489205266371"><ele>417.0</ele><time>2026-05-01T13:05:06.999Z</time></trkpt><trkpt lat="43.682335718906536" lon="12.535610802151204"><ele>418.5</ele><time>2026-05-01T13:05:07.999Z</time></trkpt><trkpt lat="43.68233266636588" lon="12.535773888933507"><ele>420.0</ele><time>2026-05-01T13:05:08.999Z</time></trkpt><trkpt lat="43.68228464109063" lon="12.53592806430004"><ele>420.0</ele><time>2026-05-01T13:05:09.999Z</time></trkpt><trkpt lat="43.682207220384534" lon="12.536061349719136"><ele>420.0</ele><time>2026-05-01T13:05:10.999Z</time></trkpt><trkpt lat="43.68211237392752" lon="12.536175576302941"><ele>420.0</ele><time>2026-05-01T13:05:11.999Z</time></trkpt><trkpt lat="43.68200752795919" lon="12.536255195367263"><ele>420.0</ele><time>2026-05-01T13:05:12.999Z</time></trkpt><trkpt lat="43.68193029758745" lon="12.536327027302592"><ele>422.2</ele><time>2026-05-01T13:05:13.999Z</time></trkpt><trkpt lat="43.68191207716554" lon="12.536433701510672"><ele>424.4</ele><time>2026-05-01T13:05:14.999Z</time></trkpt><trkpt lat="43.68195192114481" lon="12.536536331058116"><ele>426.6</ele><time>2026-05-01T13:05:15.999Z</time></trkpt><trkpt lat="43.682043466742705" lon="12.536590348447126"><ele>428.8</ele><time>2026-05-01T13:05:16.999Z</time></trkpt><trkpt lat="43.68215343640269" lon="12.536622593685573"><ele>431.0</ele><time>2026-05-01T13:05:17.999Z</time></trkpt><trkpt lat="43.68227417486238" lon="12.536646328125743"><ele>431.0</ele><time>2026-05-01T13:05:18.999Z</time></trkpt><trkpt lat="43.682403849513854" lon="12.536682267759394"><ele>431.0</ele><time>2026-05-01T13:05:19.999Z</time></trkpt><trkpt lat="43.682538241045314" lon="12.536719787449211"><ele>431.0</ele><time>2026-05-01T13:05:20.999Z</time></trkpt><trkpt lat="43.682666720152994" lon="12.536786703873855"><ele>431.0</ele><time>2026-05-01T13:05:21.999Z</time></trkpt><trkpt lat="43.68277000372513" lon="12.536915673751196"><ele>430.0</ele><time>2026-05-01T13:05:22.999Z</time></trkpt><trkpt lat="43.68285817446195" lon="12.537072250472306"><ele>429.0</ele><time>2026-05-01T13:05:23.999Z</time></trkpt><trkpt lat="43.68294435058011" lon="12.537239887079366"><ele>428.0</ele><time>2026-05-01T13:05:24.999Z</time></trkpt><trkpt lat="43.68303628798619" lon="12.537415029440234"><ele>427.0</ele><time>2026-05-01T13:05:25.999Z</time></trkpt><trkpt lat="43.68312056251932" lon="12.537588292273474"><ele>427.0</ele><time>2026-05-01T13:05:26.999Z</time></trkpt><trkpt lat="43.68318601774481" lon="12.53777795355896"><ele>427.0</ele><time>2026-05-01T13:05:27.999Z</time></trkpt><trkpt lat="43.68324475093365" lon="12.537975663656665"><ele>427.0</ele><time>2026-05-01T13:05:28.999Z</time></trkpt><trkpt lat="43.68330194944395" lon="12.538178331378651"><ele>429.5</ele><time>2026-05-01T13:05:29.999Z</time></trkpt><trkpt lat="43.68333904791233" lon="12.538374151784883"><ele>432.0</ele><time>2026-05-01T13:05:30.999Z</time></trkpt><trkpt lat="43.683349476379156" lon="12.5385578244725"><ele>434.5</ele><time>2026-05-01T13:05:31.999Z</time></trkpt><trkpt lat="43.683354690144945" lon="12.538740381193586"><ele>437.0</ele><time>2026-05-01T13:05:32.999Z</time></trkpt><trkpt lat="43.68339866227416" lon="12.538906860737919"><ele>436.0</ele><time>2026-05-01T13:05:33.999Z</time></trkpt><trkpt lat="43.68349517722761" lon="12.539035163532736"><ele>435.0</ele><time>2026-05-01T13:05:34.999Z</time></trkpt><trkpt lat="43.683625108840346" lon="12.539110672169679"><ele>434.0</ele><time>2026-05-01T13:05:35.999Z</time></trkpt><trkpt lat="43.683763513554865" lon="12.539173101511123"><ele>433.0</ele><time>2026-05-01T13:05:36.999Z</time></trkpt><trkpt lat="43.68389657202904" lon="12.539272330274601"><ele>433.0</ele><time>2026-05-01T13:05:37.999Z</time></trkpt><trkpt lat="43.68400718550173" lon="12.539412986388177"><ele>433.0</ele><time>2026-05-01T13:05:38.999Z</time></trkpt><trkpt lat="43.684076531932135" lon="12.53958712828071"><ele>433.0</ele><time>2026-05-01T13:05:39.999Z</time></trkpt><trkpt lat="43.68410924616513" lon="12.53979840648733"><ele>435.33333333333337</ele><time>2026-05-01T13:05:40.999Z</time></trkpt><trkpt lat="43.684145948181474" lon="12.540010483675635"><ele>437.66666666666663</ele><time>2026-05-01T13:05:41.999Z</time></trkpt><trkpt lat="43.68420015577678" lon="12.540225944241934"><ele>440.0</ele><time>2026-05-01T13:05:42.999Z</time></trkpt><trkpt lat="43.684265967137385" lon="12.540445127587104"><ele>439.3333333333333</ele><time>2026-05-01T13:05:43.999Z</time></trkpt><trkpt lat="43.68434550767127" lon="12.54065512082521"><ele>438.66666666666663</ele><time>2026-05-01T13:05:44.999Z</time></trkpt><trkpt lat="43.68444731381419" lon="12.540839980604819"><ele>438.0</ele><time>2026-05-01T13:05:45.999Z</time></trkpt><trkpt lat="43.684574724031734" lon="12.54100510453198"><ele>438.0</ele><time>2026-05-01T13:05:46.999Z</time></trkpt><trkpt lat="43.68471395838853" lon="12.541153654404333"><ele>438.0</ele><time>2026-05-01T13:05:47.999Z</time></trkpt><trkpt lat="43.68485032332913" lon="12.541309576708658"><ele>438.0</ele><time>2026-05-01T13:05:48.999Z</time></trkpt><trkpt lat="43.68498273075562" lon="12.541452080302436"><ele>439.66666666666663</ele><time>2026-05-01T13:05:49.999Z</time></trkpt><trkpt lat="43.68512667697731" lon="12.541562629001335"><ele>441.3333333333333</ele><time>2026-05-01T13:05:50.999Z</time></trkpt><trkpt lat="43.6852909966632" lon="12.541636319437496"><ele>443.0</ele><time>2026-05-01T13:05:51.999Z</time></trkpt><trkpt lat="43.68546336032099" lon="12.541696595298133"><ele>443.0</ele><time>2026-05-01T13:05:52.999Z</time></trkpt><trkpt lat="43.68564028288144" lon="12.541764037721011"><ele>443.0</ele><time>2026-05-01T13:05:53.999Z</time></trkpt><trkpt lat="43.68581729661798" lon="12.541829071648982"><ele>443.0</ele><time>2026-05-01T13:05:54.999Z</time></trkpt><trkpt lat="43.6859932129136" lon="12.541896263633047"><ele>443.66666666666663</ele><time>2026-05-01T13:05:55.999Z</time></trkpt><trkpt lat="43.68616668772325" lon="12.541976851642286"><ele>444.33333333333337</ele><time>2026-05-01T13:05:56.999Z</time></trkpt><trkpt lat="43.686325440962705" lon="12.542105245431348"><ele>445.0</ele><time>2026-05-01T13:05:57.999Z</time></trkpt><trkpt lat="43.68646672849472" lon="12.542261992444756"><ele>445.0</ele><time>2026-05-01T13:05:58.999Z</time></trkpt><trkpt lat="43.686590989114116" lon="12.542417137004836"><ele>445.0</ele><time>2026-05-01T13:05:59.999Z</time></trkpt><trkpt lat="43.686712272087604" lon="12.542564106350072"><ele>445.0</ele><time>2026-05-01T13:06:00.999Z</time></trkpt><trkpt lat="43.686835433316254" lon="12.542710828192584"><ele>445.25</ele><time>2026-05-01T13:06:01.999Z</time></trkpt><trkpt lat="43.68695197056514" lon="12.54283122427968"><ele>445.5</ele><time>2026-05-01T13:06:02.999Z</time></trkpt><trkpt lat="43.68706318034268" lon="12.542906222924026"><ele>445.75</ele><time>2026-05-01T13:06:03.999Z</time></trkpt><trkpt lat="43.687184039716364" lon="12.542941169030726"><ele>446.0</ele><time>2026-05-01T13:06:04.999Z</time></trkpt><trkpt lat="43.68731375564215" lon="12.542927193638647"><ele>446.0</ele><time>2026-05-01T13:06:05.999Z</time></trkpt><trkpt lat="43.687450935866146" lon="12.542863701997637"><ele>446.0</ele><time>2026-05-01T13:06:06.999Z</time></trkpt><trkpt lat="43.68759433004349" lon="12.542790925082281"><ele>446.0</ele><time>2026-05-01T13:06:07.999Z</time></trkpt><trkpt lat="43.68774188377797" lon="12.542711464320798"><ele>443.3333333333333</ele><time>2026-05-01T13:06:08.999Z</time></trkpt><trkpt lat="43.68789846266772" lon="12.542666086713147"><ele>440.66666666666663</ele><time>2026-05-01T13:06:09.999Z</time></trkpt><trkpt lat="43.68806244892456" lon="12.542676566469192"><ele>438.0</ele><time>2026-05-01T13:06:10.999Z</time></trkpt><trkpt lat="43.68823029427536" lon="12.542746400799368"><ele>438.0</ele><time>2026-05-01T13:06:11.999Z</time></trkpt><trkpt lat="43.688391565712365" lon="12.542839120138268"><ele>438.0</ele><time>2026-05-01T13:06:12.999Z</time></trkpt><trkpt lat="43.68856093053991" lon="12.542925447905672"><ele>438.0</ele><time>2026-05-01T13:06:14Z</time></trkpt><trkpt lat="43.68873412503139" lon="12.543007213516788"><ele>434.0</ele><time>2026-05-01T13:06:15Z</time></trkpt><trkpt lat="43.68891651144003" lon="12.543086586625192"><ele>430.0</ele><time>2026-05-01T13:06:16Z</time></trkpt><trkpt lat="43.68909692574582" lon="12.543171232118878"><ele>426.0</ele><time>2026-05-01T13:06:17Z</time></trkpt><trkpt lat="43.6892657397721" lon="12.54324807749308"><ele>426.0</ele><time>2026-05-01T13:06:18Z</time></trkpt><trkpt lat="43.689425208933955" lon="12.543332899719859"><ele>426.0</ele><time>2026-05-01T13:06:19Z</time></trkpt><trkpt lat="43.68957422098433" lon="12.543448583828923"><ele>426.0</ele><time>2026-05-01T13:06:20Z</time></trkpt><trkpt lat="43.68971808603206" lon="12.543595304224999"><ele>427.0</ele><time>2026-05-01T13:06:21Z</time></trkpt><trkpt lat="43.68985258031261" lon="12.543763524785682"><ele>428.0</ele><time>2026-05-01T13:06:22Z</time></trkpt><trkpt lat="43.689981110069446" lon="12.543941055825638"><ele>429.0</ele><time>2026-05-01T13:06:23Z</time></trkpt><trkpt lat="43.690101102401364" lon="12.544128025604147"><ele>429.0</ele><time>2026-05-01T13:06:24Z</time></trkpt><trkpt lat="43.690211093716265" lon="12.54432659825168"><ele>429.0</ele><time>2026-05-01T13:06:25Z</time></trkpt><trkpt lat="43.69031503931107" lon="12.544529270052017"><ele>429.0</ele><time>2026-05-01T13:06:26Z</time></trkpt><trkpt lat="43.690408717036156" lon="12.544734404112706"><ele>432.33333333333337</ele><time>2026-05-01T13:06:27Z</time></trkpt><trkpt lat="43.69047769606064" lon="12.544945938706473"><ele>435.6666666666667</ele><time>2026-05-01T13:06:28Z</time></trkpt><trkpt lat="43.69050954134228" lon="12.545171036511503"><ele>439.0</ele><time>2026-05-01T13:06:29Z</time></trkpt><trkpt lat="43.69052559904665" lon="12.545404417893767"><ele>440.6666666666667</ele><time>2026-05-01T13:06:30Z</time></trkpt><trkpt lat="43.69055340631955" lon="12.545629721680864"><ele>442.33333333333337</ele><time>2026-05-01T13:06:31Z</time></trkpt><trkpt lat="43.69060759946952" lon="12.5458466285242"><ele>444.0</ele><time>2026-05-01T13:06:32Z</time></trkpt><trkpt lat="43.69069011235619" lon="12.546049788957982"><ele>440.66666666666663</ele><time>2026-05-01T13:06:33Z</time></trkpt><trkpt lat="43.6908000560542" lon="12.546221554832979"><ele>437.3333333333333</ele><time>2026-05-01T13:06:34Z</time></trkpt><trkpt lat="43.69091024979085" lon="12.546360656446872"><ele>434.0</ele><time>2026-05-01T13:06:35Z</time></trkpt><trkpt lat="43.6909812063205" lon="12.546531325987123"><ele>434.0</ele><time>2026-05-01T13:06:36Z</time></trkpt><trkpt lat="43.69099708564717" lon="12.546736879562433"><ele>434.0</ele><time>2026-05-01T13:06:37Z</time></trkpt><trkpt lat="43.69102117785142" lon="12.546939191786969"><ele>434.0</ele><time>2026-05-01T13:06:38Z</time></trkpt><trkpt lat="43.69108205909972" lon="12.547126673883874"><ele>434.0</ele><time>2026-05-01T13:06:39Z</time></trkpt><trkpt lat="43.69116313226238" lon="12.547289080521477"><ele>435.5</ele><time>2026-05-01T13:06:40Z</time></trkpt><trkpt lat="43.691204803321824" lon="12.547457473293239"><ele>437.0</ele><time>2026-05-01T13:06:41Z</time></trkpt><trkpt lat="43.691189834299074" lon="12.547627085752993"><ele>438.5</ele><time>2026-05-01T13:06:42Z</time></trkpt><trkpt lat="43.691129707777435" lon="12.547780221519503"><ele>440.0</ele><time>2026-05-01T13:06:43Z</time></trkpt><trkpt lat="43.691033302460625" lon="12.547907750357242"><ele>440.0</ele><time>2026-05-01T13:06:44Z</time></trkpt><trkpt lat="43.690911302332125" lon="12.548000622080576"><ele>440.0</ele><time>2026-05-01T13:06:45Z</time></trkpt><trkpt lat="43.69077849918817" lon="12.548088896238848"><ele>440.0</ele><time>2026-05-01T13:06:46Z</time></trkpt><trkpt lat="43.690647916274344" lon="12.54818472892858"><ele>440.0</ele><time>2026-05-01T13:06:47Z</time></trkpt><trkpt lat="43.69052498049324" lon="12.548305836463134"><ele>440.0</ele><time>2026-05-01T13:06:48Z</time></trkpt><trkpt lat="43.69042077323351" lon="12.548465228786203"><ele>440.0</ele><time>2026-05-01T13:06:49Z</time></trkpt><trkpt lat="43.690334509830684" lon="12.548645618653037"><ele>440.0</ele><time>2026-05-01T13:06:50Z</time></trkpt><trkpt lat="43.69027128009799" lon="12.548827131117172"><ele>441.5</ele><time>2026-05-01T13:06:51Z</time></trkpt><trkpt lat="43.69022767366508" lon="12.54899214095439"><ele>443.0</ele><time>2026-05-01T13:06:52Z</time></trkpt><trkpt lat="43.690215789905665" lon="12.549142318756664"><ele>444.5</ele><time>2026-05-01T13:06:53Z</time></trkpt><trkpt lat="43.69025631652702" lon="12.549275553735452"><ele>446.0</ele><time>2026-05-01T13:06:54Z</time></trkpt><trkpt lat="43.690350231105164" lon="12.549371281186822"><ele>446.0</ele><time>2026-05-01T13:06:55Z</time></trkpt><trkpt lat="43.690480276518144" lon="12.549416409483888"><ele>446.0</ele><time>2026-05-01T13:06:56Z</time></trkpt><trkpt lat="43.69063125707838" lon="12.549432031522068"><ele>446.0</ele><time>2026-05-01T13:06:57Z</time></trkpt><trkpt lat="43.69079308415229" lon="12.549463928192662"><ele>446.0</ele><time>2026-05-01T13:06:58Z</time></trkpt><trkpt lat="43.690956881999455" lon="12.549497962133618"><ele>447.0</ele><time>2026-05-01T13:06:59Z</time></trkpt><trkpt lat="43.691127172530194" lon="12.549529638636889"><ele>448.0</ele><time>2026-05-01T13:07:00Z</time></trkpt><trkpt lat="43.69130141841929" lon="12.549554380012877"><ele>449.0</ele><time>2026-05-01T13:07:01Z</time></trkpt><trkpt lat="43.69148150737259" lon="12.549571800814112"><ele>443.0</ele><time>2026-05-01T13:07:02Z</time></trkpt><trkpt lat="43.69165728800148" lon="12.549579423268538"><ele>437.0</ele><time>2026-05-01T13:07:03Z</time></trkpt><trkpt lat="43.69182849607877" lon="12.549581363875065"><ele>431.0</ele><time>2026-05-01T13:07:04Z</time></trkpt><trkpt lat="43.691997143120474" lon="12.549565911503857"><ele>434.3333333333333</ele><time>2026-05-01T13:07:05Z</time></trkpt><trkpt lat="43.692165527757794" lon="12.549525258902161"><ele>437.66666666666663</ele><time>2026-05-01T13:07:06Z</time></trkpt><trkpt lat="43.69233547659895" lon="12.549461112950889"><ele>441.0</ele><time>2026-05-01T13:07:07Z</time></trkpt><trkpt lat="43.692505294884505" lon="12.549373558436786"><ele>441.0</ele><time>2026-05-01T13:07:08Z</time></trkpt><trkpt lat="43.69267110389272" lon="12.549258142369101"><ele>441.0</ele><time>2026-05-01T13:07:09Z</time></trkpt><trkpt lat="43.692844891093074" lon="12.549158848767451"><ele>441.0</ele><time>2026-05-01T13:07:10Z</time></trkpt><trkpt lat="43.69302292016453" lon="12.549082021376746"><ele>436.33333333333337</ele><time>2026-05-01T13:07:11Z</time></trkpt><trkpt lat="43.693197834177695" lon="12.549005631500522"><ele>431.6666666666667</ele><time>2026-05-01T13:07:12Z</time></trkpt><trkpt lat="43.69337198120527" lon="12.548922495885401"><ele>427.0</ele><time>2026-05-01T13:07:13Z</time></trkpt><trkpt lat="43.69354195029917" lon="12.548851369466927"><ele>429.6666666666667</ele><time>2026-05-01T13:07:14Z</time></trkpt><trkpt lat="43.693704199110925" lon="12.54878554046728"><ele>432.33333333333337</ele><time>2026-05-01T13:07:15Z</time></trkpt><trkpt lat="43.693855999114675" lon="12.548729222315634"><ele>435.0</ele><time>2026-05-01T13:07:16Z</time></trkpt><trkpt lat="43.69400647468387" lon="12.54869346315266"><ele>435.0</ele><time>2026-05-01T13:07:17Z</time></trkpt><trkpt lat="43.69414229402358" lon="12.548669361964079"><ele>435.0</ele><time>2026-05-01T13:07:18Z</time></trkpt><trkpt lat="43.69427772228545" lon="12.548657197474872"><ele>435.0</ele><time>2026-05-01T13:07:19Z</time></trkpt><trkpt lat="43.694402122234536" lon="12.548678944592874"><ele>435.0</ele><time>2026-05-01T13:07:20Z</time></trkpt><trkpt lat="43.69451811437221" lon="12.548741444092318"><ele>431.75</ele><time>2026-05-01T13:07:21Z</time></trkpt><trkpt lat="43.69462393358975" lon="12.548824793849848"><ele>428.5</ele><time>2026-05-01T13:07:22Z</time></trkpt><trkpt lat="43.694733009053415" lon="12.548908181702526"><ele>425.25</ele><time>2026-05-01T13:07:23Z</time></trkpt><trkpt lat="43.69484948877564" lon="12.548995883490772"><ele>422.0</ele><time>2026-05-01T13:07:24Z</time></trkpt><trkpt lat="43.69496369251817" lon="12.549105369664279"><ele>422.0</ele><time>2026-05-01T13:07:25Z</time></trkpt><trkpt lat="43.69507106347113" lon="12.54923641548514"><ele>422.0</ele><time>2026-05-01T13:07:26Z</time></trkpt><trkpt lat="43.695168243103666" lon="12.549384546737839"><ele>422.0</ele><time>2026-05-01T13:07:27Z</time></trkpt><trkpt lat="43.69525784220955" lon="12.549544415631221"><ele>422.0</ele><time>2026-05-01T13:07:28Z</time></trkpt><trkpt lat="43.6953490280345" lon="12.549709317905728"><ele>425.66666666666663</ele><time>2026-05-01T13:07:29Z</time></trkpt><trkpt lat="43.69544050142448" lon="12.549878900768777"><ele>429.33333333333337</ele><time>2026-05-01T13:07:30Z</time></trkpt><trkpt lat="43.695522351686016" lon="12.55006256506838"><ele>433.0</ele><time>2026-05-01T13:07:31Z</time></trkpt><trkpt lat="43.695584332461806" lon="12.550266187985118"><ele>431.25</ele><time>2026-05-01T13:07:32Z</time></trkpt><trkpt lat="43.695621560628844" lon="12.550451812356348"><ele>429.5</ele><time>2026-05-01T13:07:33Z</time></trkpt><trkpt lat="43.695648656152215" lon="12.55060350312985"><ele>427.75</ele><time>2026-05-01T13:07:34Z</time></trkpt><trkpt lat="43.695700027685255" lon="12.550727228515678"><ele>426.0</ele><time>2026-05-01T13:07:35Z</time></trkpt><trkpt lat="43.695789367999474" lon="12.550836301751302"><ele>426.0</ele><time>2026-05-01T13:07:36Z</time></trkpt><trkpt lat="43.69589065371225" lon="12.550936700495042"><ele>426.0</ele><time>2026-05-01T13:07:37Z</time></trkpt><trkpt lat="43.695985574312274" lon="12.551056350977554"><ele>426.0</ele><time>2026-05-01T13:07:38Z</time></trkpt><trkpt lat="43.696069173615065" lon="12.55120118459079"><ele>426.0</ele><time>2026-05-01T13:07:39Z</time></trkpt><trkpt lat="43.69613021209381" lon="12.551370741070633"><ele>426.25</ele><time>2026-05-01T13:07:40Z</time></trkpt><trkpt lat="43.69616677870884" lon="12.551554420167438"><ele>426.5</ele><time>2026-05-01T13:07:41Z</time></trkpt><trkpt lat="43.69618329064484" lon="12.55175591432206"><ele>426.75</ele><time>2026-05-01T13:07:42Z</time></trkpt><trkpt lat="43.69616751788931" lon="12.551962422266316"><ele>427.0</ele><time>2026-05-01T13:07:43Z</time></trkpt><trkpt lat="43.696111803791126" lon="12.552161070429891"><ele>426.33333333333337</ele><time>2026-05-01T13:07:44Z</time></trkpt><trkpt lat="43.6960163879706" lon="12.552332447292631"><ele>425.66666666666663</ele><time>2026-05-01T13:07:45Z</time></trkpt><trkpt lat="43.695907296724755" lon="12.55248283411261"><ele>425.0</ele><time>2026-05-01T13:07:46Z</time></trkpt><trkpt lat="43.69580353489324" lon="12.552635101009207"><ele>425.0</ele><time>2026-05-01T13:07:47Z</time></trkpt><trkpt lat="43.695719508302695" lon="12.552785078426853"><ele>425.0</ele><time>2026-05-01T13:07:48Z</time></trkpt><trkpt lat="43.695648796415824" lon="12.552933542807326"><ele>425.0</ele><time>2026-05-01T13:07:49Z</time></trkpt><trkpt lat="43.695587855699" lon="12.553095060363315"><ele>425.0</ele><time>2026-05-01T13:07:50Z</time></trkpt><trkpt lat="43.69552839507891" lon="12.553265658036715"><ele>429.5</ele><time>2026-05-01T13:07:51Z</time></trkpt><trkpt lat="43.695464433952935" lon="12.553437472422463"><ele>434.0</ele><time>2026-05-01T13:07:52Z</time></trkpt><trkpt lat="43.69540730516015" lon="12.553620539431577"><ele>438.5</ele><time>2026-05-01T13:07:53Z</time></trkpt><trkpt lat="43.69535098136745" lon="12.553812077140803"><ele>443.0</ele><time>2026-05-01T13:07:54Z</time></trkpt><trkpt lat="43.695305227052934" lon="12.554010151715383"><ele>443.3333333333333</ele><time>2026-05-01T13:07:55Z</time></trkpt><trkpt lat="43.69528716851863" lon="12.554223235930923"><ele>443.66666666666663</ele><time>2026-05-01T13:07:56Z</time></trkpt><trkpt lat="43.69529484793284" lon="12.554443810909664"><ele>444.0</ele><time>2026-05-01T13:07:57Z</time></trkpt><trkpt lat="43.6953248116062" lon="12.5546495405005"><ele>438.66666666666663</ele><time>2026-05-01T13:07:58Z</time></trkpt><trkpt lat="43.69539692828065" lon="12.554845431996938"><ele>433.3333333333333</ele><time>2026-05-01T13:07:59Z</time></trkpt><trkpt lat="43.69549136010074" lon="12.55502827804307"><ele>428.0</ele><time>2026-05-01T13:08:00Z</time></trkpt><trkpt lat="43.69556106470423" lon="12.555227955156846"><ele>428.66666666666663</ele><time>2026-05-01T13:08:01Z</time></trkpt><trkpt lat="43.69559637099607" lon="12.555455758985227"><ele>429.33333333333337</ele><time>2026-05-01T13:08:02Z</time></trkpt><trkpt lat="43.695627160958146" lon="12.555688820570644"><ele>430.0</ele><time>2026-05-01T13:08:03Z</time></trkpt><trkpt lat="43.69564199406571" lon="12.555933369857529"><ele>430.0</ele><time>2026-05-01T13:08:04Z</time></trkpt><trkpt lat="43.69565085783709" lon="12.55618561770118"><ele>430.0</ele><time>2026-05-01T13:08:05Z</time></trkpt><trkpt lat="43.69565205716579" lon="12.556435674337473"><ele>430.0</ele><time>2026-05-01T13:08:06Z</time></trkpt><trkpt lat="43.69565108431936" lon="12.556686109638315"><ele>431.33333333333337</ele><time>2026-05-01T13:08:07Z</time></trkpt><trkpt lat="43.695658374445436" lon="12.556924454722783"><ele>432.66666666666663</ele><time>2026-05-01T13:08:08Z</time></trkpt><trkpt lat="43.69569419680949" lon="12.557161059634314"><ele>434.0</ele><time>2026-05-01T13:08:09Z</time></trkpt><trkpt lat="43.69575202237392" lon="12.557383544130461"><ele>434.3333333333333</ele><time>2026-05-01T13:08:10Z</time></trkpt><trkpt lat="43.69583287781008" lon="12.557584036055374"><ele>434.66666666666663</ele><time>2026-05-01T13:08:11Z</time></trkpt><trkpt lat="43.69592433496613" lon="12.557750315073552"><ele>435.0</ele><time>2026-05-01T13:08:12Z</time></trkpt><trkpt lat="43.695996024823025" lon="12.557922182681953"><ele>436.5</ele><time>2026-05-01T13:08:13Z</time></trkpt><trkpt lat="43.69602614240078" lon="12.558120039050738"><ele>438.0</ele><time>2026-05-01T13:08:14Z</time></trkpt><trkpt lat="43.69602202530025" lon="12.55832434506431"><ele>439.5</ele><time>2026-05-01T13:08:15Z</time></trkpt><trkpt lat="43.69597686492634" lon="12.558508079643834"><ele>441.0</ele><time>2026-05-01T13:08:16Z</time></trkpt><trkpt lat="43.695886895416926" lon="12.558671746771187"><ele>448.0</ele><time>2026-05-01T13:08:17Z</time></trkpt><trkpt lat="43.69575349208217" lon="12.558782609735424"><ele>455.0</ele><time>2026-05-01T13:08:18Z</time></trkpt><trkpt lat="43.69561897327077" lon="12.558885020163748"><ele>462.0</ele><time>2026-05-01T13:08:19Z</time></trkpt><trkpt lat="43.695476671005196" lon="12.558991273225827"><ele>462.0</ele><time>2026-05-01T13:08:20Z</time></trkpt><trkpt lat="43.695331541839835" lon="12.559092105865126"><ele>462.0</ele><time>2026-05-01T13:08:21Z</time></trkpt><trkpt lat="43.69518469457623" lon="12.559190025083698"><ele>462.0</ele><time>2026-05-01T13:08:22Z</time></trkpt><trkpt lat="43.69503435427759" lon="12.559281577134474"><ele>460.0</ele><time>2026-05-01T13:08:23Z</time></trkpt><trkpt lat="43.69487935269618" lon="12.559348846521024"><ele>458.0</ele><time>2026-05-01T13:08:24Z</time></trkpt><trkpt lat="43.69473754925278" lon="12.559406188225"><ele>456.0</ele><time>2026-05-01T13:08:25Z</time></trkpt><trkpt lat="43.69462648402326" lon="12.559468960498407"><ele>454.0</ele><time>2026-05-01T13:08:26Z</time></trkpt><trkpt lat="43.69456889727188" lon="12.55955248702885"><ele>454.0</ele><time>2026-05-01T13:08:27Z</time></trkpt><trkpt lat="43.69458832494037" lon="12.5596489201152"><ele>454.0</ele><time>2026-05-01T13:08:28Z</time></trkpt><trkpt lat="43.69465725284628" lon="12.55972172322066"><ele>454.0</ele><time>2026-05-01T13:08:29Z</time></trkpt><trkpt lat="43.69476001175912" lon="12.559710503717417"><ele>454.0</ele><time>2026-05-01T13:08:30Z</time></trkpt><trkpt lat="43.694874923787616" lon="12.559639111997878"><ele>454.0</ele><time>2026-05-01T13:08:31Z</time></trkpt><trkpt lat="43.69501397080598" lon="12.559577204601375"><ele>456.0</ele><time>2026-05-01T13:08:32Z</time></trkpt><trkpt lat="43.69514966010826" lon="12.559517877700396"><ele>458.0</ele><time>2026-05-01T13:08:33Z</time></trkpt><trkpt lat="43.69527618959215" lon="12.559471028827923"><ele>460.0</ele><time>2026-05-01T13:08:34Z</time></trkpt><trkpt lat="43.69540235311956" lon="12.559440761657129"><ele>462.0</ele><time>2026-05-01T13:08:35Z</time></trkpt><trkpt lat="43.6955180314268" lon="12.559453690923753"><ele>461.25</ele><time>2026-05-01T13:08:36Z</time></trkpt><trkpt lat="43.69562083528766" lon="12.559538509557314"><ele>460.5</ele><time>2026-05-01T13:08:37Z</time></trkpt><trkpt lat="43.695718711796744" lon="12.55965948338205"><ele>459.75</ele><time>2026-05-01T13:08:38Z</time></trkpt><trkpt lat="43.695817594638555" lon="12.559798932237141"><ele>459.0</ele><time>2026-05-01T13:08:39Z</time></trkpt><trkpt lat="43.695911245583765" lon="12.559964580206925"><ele>459.0</ele><time>2026-05-01T13:08:40Z</time></trkpt><trkpt lat="43.69599151461682" lon="12.560149990093512"><ele>459.0</ele><time>2026-05-01T13:08:41Z</time></trkpt><trkpt lat="43.696055684215665" lon="12.560341842544112"><ele>459.0</ele><time>2026-05-01T13:08:42Z</time></trkpt><trkpt lat="43.696122943525324" lon="12.560524069215631"><ele>456.5</ele><time>2026-05-01T13:08:43Z</time></trkpt><trkpt lat="43.69620583102919" lon="12.560670138899933"><ele>454.0</ele><time>2026-05-01T13:08:44Z</time></trkpt><trkpt lat="43.6963046697856" lon="12.560777042910745"><ele>451.5</ele><time>2026-05-01T13:08:45Z</time></trkpt><trkpt lat="43.69642218674358" lon="12.560833935848763"><ele>449.0</ele><time>2026-05-01T13:08:46Z</time></trkpt><trkpt lat="43.69655085967111" lon="12.560811319291968"><ele>449.0</ele><time>2026-05-01T13:08:47Z</time></trkpt><trkpt lat="43.69668429532144" lon="12.56072672551315"><ele>449.0</ele><time>2026-05-01T13:08:48Z</time></trkpt><trkpt lat="43.69683002004851" lon="12.560650174108469"><ele>449.0</ele><time>2026-05-01T13:08:49Z</time></trkpt><trkpt lat="43.696983306273566" lon="12.560633510250751"><ele>451.66666666666663</ele><time>2026-05-01T13:08:50Z</time></trkpt><trkpt lat="43.69713282529546" lon="12.560678598576397"><ele>454.33333333333337</ele><time>2026-05-01T13:08:51Z</time></trkpt><trkpt lat="43.69727390888085" lon="12.560765862625829"><ele>457.0</ele><time>2026-05-01T13:08:52Z</time></trkpt><trkpt lat="43.69740958651153" lon="12.560887430920051"><ele>457.0</ele><time>2026-05-01T13:08:53Z</time></trkpt><trkpt lat="43.69754601096509" lon="12.561022222605125"><ele>457.0</ele><time>2026-05-01T13:08:54Z</time></trkpt><trkpt lat="43.697682304079855" lon="12.561162546784063"><ele>457.0</ele><time>2026-05-01T13:08:55Z</time></trkpt><trkpt lat="43.69781309705472" lon="12.561305894945074"><ele>452.6666666666667</ele><time>2026-05-01T13:08:56Z</time></trkpt><trkpt lat="43.69791881760563" lon="12.561478990077987"><ele>448.33333333333337</ele><time>2026-05-01T13:08:57Z</time></trkpt><trkpt lat="43.69800321011497" lon="12.561670034771092"><ele>444.0</ele><time>2026-05-01T13:08:58Z</time></trkpt><trkpt lat="43.69805974449115" lon="12.561885297232164"><ele>443.0</ele><time>2026-05-01T13:08:59Z</time></trkpt><trkpt lat="43.698074576622325" lon="12.562109478149635"><ele>442.0</ele><time>2026-05-01T13:09:00Z</time></trkpt><trkpt lat="43.69807162956782" lon="12.5623147956489"><ele>441.0</ele><time>2026-05-01T13:09:01Z</time></trkpt><trkpt lat="43.69810769556609" lon="12.562511201964174"><ele>441.0</ele><time>2026-05-01T13:09:02Z</time></trkpt><trkpt lat="43.698181810598236" lon="12.562699078741852"><ele>441.0</ele><time>2026-05-01T13:09:03Z</time></trkpt><trkpt lat="43.69828724503445" lon="12.562865208189052"><ele>441.0</ele><time>2026-05-01T13:09:04Z</time></trkpt><trkpt lat="43.69840752412381" lon="12.563007783242922"><ele>441.75</ele><time>2026-05-01T13:09:05Z</time></trkpt><trkpt lat="43.69852688146408" lon="12.563126215698988"><ele>442.5</ele><time>2026-05-01T13:09:06Z</time></trkpt><trkpt lat="43.69864036929621" lon="12.563231234646793"><ele>443.25</ele><time>2026-05-01T13:09:07Z</time></trkpt><trkpt lat="43.69873953213708" lon="12.56336286640991"><ele>444.0</ele><time>2026-05-01T13:09:08Z</time></trkpt><trkpt lat="43.69879739889898" lon="12.563524398798403"><ele>440.5</ele><time>2026-05-01T13:09:09Z</time></trkpt><trkpt lat="43.69880813431245" lon="12.563701786525556"><ele>437.0</ele><time>2026-05-01T13:09:10Z</time></trkpt><trkpt lat="43.69879254497873" lon="12.563884515106372"><ele>433.5</ele><time>2026-05-01T13:09:11Z</time></trkpt><trkpt lat="43.698751182631774" lon="12.564069929099372"><ele>430.0</ele><time>2026-05-01T13:09:12Z</time></trkpt><trkpt lat="43.69869452939843" lon="12.564246411125573"><ele>430.0</ele><time>2026-05-01T13:09:13Z</time></trkpt><trkpt lat="43.69861258867774" lon="12.56440992571651"><ele>430.0</ele><time>2026-05-01T13:09:14Z</time></trkpt><trkpt lat="43.698535777667665" lon="12.564578511397695"><ele>430.0</ele><time>2026-05-01T13:09:15Z</time></trkpt><trkpt lat="43.698463831632544" lon="12.564736810974871"><ele>430.0</ele><time>2026-05-01T13:09:16Z</time></trkpt><trkpt lat="43.69841683628069" lon="12.564885219732002"><ele>430.2</ele><time>2026-05-01T13:09:17Z</time></trkpt><trkpt lat="43.69841082748026" lon="12.565030533049239"><ele>430.4</ele><time>2026-05-01T13:09:18Z</time></trkpt><trkpt lat="43.69844451751124" lon="12.565152523042341"><ele>430.6</ele><time>2026-05-01T13:09:19Z</time></trkpt><trkpt lat="43.698520122499204" lon="12.565235111729425"><ele>430.8</ele><time>2026-05-01T13:09:20Z</time></trkpt><trkpt lat="43.69860604257182" lon="12.565319594467116"><ele>431.0</ele><time>2026-05-01T13:09:21Z</time></trkpt><trkpt lat="43.69868280204724" lon="12.565431470820082"><ele>431.0</ele><time>2026-05-01T13:09:22Z</time></trkpt><trkpt lat="43.69873982794844" lon="12.56556789262331"><ele>431.0</ele><time>2026-05-01T13:09:23Z</time></trkpt><trkpt lat="43.69877207729153" lon="12.565725154515157"><ele>431.0</ele><time>2026-05-01T13:09:24Z</time></trkpt><trkpt lat="43.698779373615345" lon="12.565903372677553"><ele>431.0</ele><time>2026-05-01T13:09:25Z</time></trkpt><trkpt lat="43.69877630142155" lon="12.566091420453366"><ele>433.0</ele><time>2026-05-01T13:09:26Z</time></trkpt><trkpt lat="43.69876582199731" lon="12.566303065261408"><ele>435.0</ele><time>2026-05-01T13:09:27Z</time></trkpt><trkpt lat="43.698743701828754" lon="12.566530930725866"><ele>437.0</ele><time>2026-05-01T13:09:28Z</time></trkpt><trkpt lat="43.69871713334062" lon="12.566760283175537"><ele>437.0</ele><time>2026-05-01T13:09:29Z</time></trkpt><trkpt lat="43.69869753010814" lon="12.566994495060396"><ele>437.0</ele><time>2026-05-01T13:09:30Z</time></trkpt><trkpt lat="43.69870966769579" lon="12.567230443384302"><ele>437.0</ele><time>2026-05-01T13:09:31Z</time></trkpt><trkpt lat="43.69874828278187" lon="12.567466172077783"><ele>439.0</ele><time>2026-05-01T13:09:32Z</time></trkpt><trkpt lat="43.6988149988759" lon="12.567691685424837"><ele>441.0</ele><time>2026-05-01T13:09:33Z</time></trkpt><trkpt lat="43.69889801965339" lon="12.567909284187238"><ele>443.0</ele><time>2026-05-01T13:09:34Z</time></trkpt><trkpt lat="43.69898389515112" lon="12.568125060458476"><ele>447.3333333333333</ele><time>2026-05-01T13:09:35Z</time></trkpt><trkpt lat="43.69907243510303" lon="12.568345276864202"><ele>451.66666666666663</ele><time>2026-05-01T13:09:36Z</time></trkpt><trkpt lat="43.699158107746854" lon="12.568567220930102"><ele>456.0</ele><time>2026-05-01T13:09:37Z</time></trkpt><trkpt lat="43.69924099629406" lon="12.568773524275521"><ele>452.66666666666663</ele><time>2026-05-01T13:09:38Z</time></trkpt><trkpt lat="43.699325559099584" lon="12.568971898445744"><ele>449.3333333333333</ele><time>2026-05-01T13:09:39Z</time></trkpt><trkpt lat="43.699419485533966" lon="12.569170380102092"><ele>446.0</ele><time>2026-05-01T13:09:40Z</time></trkpt><trkpt lat="43.69951485528209" lon="12.569368423144763"><ele>450.0</ele><time>2026-05-01T13:09:41Z</time></trkpt><trkpt lat="43.69959462897585" lon="12.569578856518522"><ele>454.0</ele><time>2026-05-01T13:09:42Z</time></trkpt><trkpt lat="43.69965698160747" lon="12.569797110811859"><ele>458.0</ele><time>2026-05-01T13:09:43Z</time></trkpt><trkpt lat="43.69971041917426" lon="12.570024736305953"><ele>458.0</ele><time>2026-05-01T13:09:44Z</time></trkpt><trkpt lat="43.69977576244395" lon="12.570245827841115"><ele>458.0</ele><time>2026-05-01T13:09:45Z</time></trkpt><trkpt lat="43.69984917024974" lon="12.57046374307138"><ele>458.0</ele><time>2026-05-01T13:09:46Z</time></trkpt><trkpt lat="43.69992530838026" lon="12.570678666599733"><ele>461.66666666666663</ele><time>2026-05-01T13:09:47Z</time></trkpt><trkpt lat="43.699995478206574" lon="12.570896505461471"><ele>465.33333333333337</ele><time>2026-05-01T13:09:48Z</time></trkpt><trkpt lat="43.70007018001472" lon="12.571110400662304"><ele>469.0</ele><time>2026-05-01T13:09:49Z</time></trkpt><trkpt lat="43.700144403669405" lon="12.571320257983338"><ele>471.33333333333337</ele><time>2026-05-01T13:09:50Z</time></trkpt><trkpt lat="43.70021013698425" lon="12.571517354144632"><ele>473.66666666666663</ele><time>2026-05-01T13:09:51Z</time></trkpt><trkpt lat="43.700275142186186" lon="12.571707755491381"><ele>476.0</ele><time>2026-05-01T13:09:52Z</time></trkpt><trkpt lat="43.70034286128675" lon="12.571892335794045"><ele>475.3333333333333</ele><time>2026-05-01T13:09:53Z</time></trkpt><trkpt lat="43.700424673986404" lon="12.57206591399847"><ele>474.66666666666663</ele><time>2026-05-01T13:09:54Z</time></trkpt><trkpt lat="43.700527563498696" lon="12.572217683270779"><ele>474.0</ele><time>2026-05-01T13:09:55Z</time></trkpt><trkpt lat="43.700647773356984" lon="12.572341121871705"><ele>474.0</ele><time>2026-05-01T13:09:56Z</time></trkpt><trkpt lat="43.700774340674656" lon="12.572443611718938"><ele>474.0</ele><time>2026-05-01T13:09:57Z</time></trkpt><trkpt lat="43.70090424425004" lon="12.572522986124579"><ele>474.0</ele><time>2026-05-01T13:09:58Z</time></trkpt><trkpt lat="43.70103559635941" lon="12.57260169508056"><ele>474.0</ele><time>2026-05-01T13:09:59Z</time></trkpt><trkpt lat="43.7011545198472" lon="12.57270130213467"><ele>473.5</ele><time>2026-05-01T13:10:00Z</time></trkpt><trkpt lat="43.701258056396235" lon="12.572832843907477"><ele>473.0</ele><time>2026-05-01T13:10:01Z</time></trkpt><trkpt lat="43.70133586663847" lon="12.572992291256723"><ele>472.5</ele><time>2026-05-01T13:10:02Z</time></trkpt><trkpt lat="43.70141643225559" lon="12.57313652091854"><ele>472.0</ele><time>2026-05-01T13:10:03Z</time></trkpt><trkpt lat="43.70152387205611" lon="12.573246755781748"><ele>472.0</ele><time>2026-05-01T13:10:04Z</time></trkpt><trkpt lat="43.701659231916345" lon="12.57332291988603"><ele>472.0</ele><time>2026-05-01T13:10:05Z</time></trkpt><trkpt lat="43.70180970170889" lon="12.573351868825506"><ele>472.0</ele><time>2026-05-01T13:10:06Z</time></trkpt><trkpt lat="43.7019650292778" lon="12.57335098862207"><ele>473.6666666666667</ele><time>2026-05-01T13:10:07Z</time></trkpt><trkpt lat="43.70213159617764" lon="12.573351979149656"><ele>475.33333333333337</ele><time>2026-05-01T13:10:08Z</time></trkpt><trkpt lat="43.702291547772745" lon="12.573353023526277"><ele>477.0</ele><time>2026-05-01T13:10:09Z</time></trkpt><trkpt lat="43.702441918851484" lon="12.573358114448029"><ele>477.0</ele><time>2026-05-01T13:10:10Z</time></trkpt><trkpt lat="43.7025863222872" lon="12.573373864274417"><ele>477.0</ele><time>2026-05-01T13:10:11Z</time></trkpt><trkpt lat="43.7027241313471" lon="12.57343114975741"><ele>477.0</ele><time>2026-05-01T13:10:12Z</time></trkpt><trkpt lat="43.702858458114505" lon="12.573523093655517"><ele>477.0</ele><time>2026-05-01T13:10:13Z</time></trkpt><trkpt lat="43.70297800852463" lon="12.573662128070243"><ele>482.0</ele><time>2026-05-01T13:10:14Z</time></trkpt><trkpt lat="43.70306211189427" lon="12.57382600493445"><ele>487.0</ele><time>2026-05-01T13:10:15Z</time></trkpt><trkpt lat="43.703115526679305" lon="12.574009718322714"><ele>492.0</ele><time>2026-05-01T13:10:16Z</time></trkpt><trkpt lat="43.70312017606845" lon="12.574213610387707"><ele>497.0</ele><time>2026-05-01T13:10:17Z</time></trkpt><trkpt lat="43.70308815393203" lon="12.574418086848533"><ele>502.3333333333333</ele><time>2026-05-01T13:10:18Z</time></trkpt><trkpt lat="43.703021037565534" lon="12.574608286304743"><ele>507.66666666666663</ele><time>2026-05-01T13:10:19Z</time></trkpt><trkpt lat="43.70295637980738" lon="12.574806570276131"><ele>513.0</ele><time>2026-05-01T13:10:20Z</time></trkpt><trkpt lat="43.702892877638206" lon="12.575013368602042"><ele>513.0</ele><time>2026-05-01T13:10:21Z</time></trkpt><trkpt lat="43.70281739847241" lon="12.575220211709425"><ele>513.0</ele><time>2026-05-01T13:10:22Z</time></trkpt><trkpt lat="43.702715480909575" lon="12.575408204606505"><ele>513.0</ele><time>2026-05-01T13:10:23Z</time></trkpt><trkpt lat="43.70260561519767" lon="12.57559072134889"><ele>508.0</ele><time>2026-05-01T13:10:24Z</time></trkpt><trkpt lat="43.702503438228206" lon="12.575782144579394"><ele>503.0</ele><time>2026-05-01T13:10:25Z</time></trkpt><trkpt lat="43.702424642753435" lon="12.575990730635471"><ele>498.0</ele><time>2026-05-01T13:10:26Z</time></trkpt><trkpt lat="43.70236141731471" lon="12.576207455447312"><ele>498.0</ele><time>2026-05-01T13:10:27Z</time></trkpt><trkpt lat="43.70228898354618" lon="12.576420041320823"><ele>498.0</ele><time>2026-05-01T13:10:28Z</time></trkpt><trkpt lat="43.70220556613423" lon="12.576619810885909"><ele>498.0</ele><time>2026-05-01T13:10:29Z</time></trkpt><trkpt lat="43.70212241008632" lon="12.576817699643238"><ele>499.0</ele><time>2026-05-01T13:10:30Z</time></trkpt><trkpt lat="43.70206509469751" lon="12.577034399174075"><ele>500.0</ele><time>2026-05-01T13:10:31Z</time></trkpt><trkpt lat="43.70202933556243" lon="12.57726337671597"><ele>501.0</ele><time>2026-05-01T13:10:32Z</time></trkpt><trkpt lat="43.702000047086194" lon="12.577483643484932"><ele>501.0</ele><time>2026-05-01T13:10:33Z</time></trkpt><trkpt lat="43.70194791151656" lon="12.577676723805496"><ele>501.0</ele><time>2026-05-01T13:10:34Z</time></trkpt><trkpt lat="43.70188195956171" lon="12.57784773661814"><ele>501.0</ele><time>2026-05-01T13:10:35Z</time></trkpt><trkpt lat="43.701829655834" lon="12.578007960544971"><ele>501.0</ele><time>2026-05-01T13:10:36Z</time></trkpt><trkpt lat="43.701812519907314" lon="12.578160247317237"><ele>497.75</ele><time>2026-05-01T13:10:37Z</time></trkpt><trkpt lat="43.70185144729451" lon="12.578299483326251"><ele>494.5</ele><time>2026-05-01T13:10:38Z</time></trkpt><trkpt lat="43.701929564962654" lon="12.5784112775726"><ele>491.25</ele><time>2026-05-01T13:10:39Z</time></trkpt><trkpt lat="43.70204636314239" lon="12.578455786808842"><ele>488.0</ele><time>2026-05-01T13:10:40Z</time></trkpt><trkpt lat="43.7021720219573" lon="12.578456837237853"><ele>488.0</ele><time>2026-05-01T13:10:41Z</time></trkpt><trkpt lat="43.702306391744955" lon="12.578432427922403"><ele>488.0</ele><time>2026-05-01T13:10:42Z</time></trkpt><trkpt lat="43.7024429359416" lon="12.578400204017349"><ele>488.0</ele><time>2026-05-01T13:10:43Z</time></trkpt><trkpt lat="43.702580779151695" lon="12.578374315848233"><ele>488.0</ele><time>2026-05-01T13:10:44Z</time></trkpt><trkpt lat="43.702722565485054" lon="12.578384017525268"><ele>490.25</ele><time>2026-05-01T13:10:45Z</time></trkpt><trkpt lat="43.70285402458683" lon="12.578456957355378"><ele>492.5</ele><time>2026-05-01T13:10:46Z</time></trkpt><trkpt lat="43.70298211220323" lon="12.57854336885955"><ele>494.75</ele><time>2026-05-01T13:10:47Z</time></trkpt><trkpt lat="43.70311523740107" lon="12.578601977493513"><ele>497.0</ele><time>2026-05-01T13:10:48Z</time></trkpt><trkpt lat="43.70325256500628" lon="12.578643008948074"><ele>497.0</ele><time>2026-05-01T13:10:49Z</time></trkpt><trkpt lat="43.70339593329749" lon="12.578674583814998"><ele>497.0</ele><time>2026-05-01T13:10:50Z</time></trkpt><trkpt lat="43.70353514856318" lon="12.578711454736275"><ele>497.0</ele><time>2026-05-01T13:10:51Z</time></trkpt><trkpt lat="43.703665714064314" lon="12.578742620286482"><ele>497.0</ele><time>2026-05-01T13:10:52Z</time></trkpt><trkpt lat="43.70379030803348" lon="12.57875720601167"><ele>497.25</ele><time>2026-05-01T13:10:53Z</time></trkpt><trkpt lat="43.7039102895203" lon="12.578735630939144"><ele>497.5</ele><time>2026-05-01T13:10:54Z</time></trkpt><trkpt lat="43.70403013666953" lon="12.578687972895043"><ele>497.75</ele><time>2026-05-01T13:10:55Z</time></trkpt><trkpt lat="43.704139307885605" lon="12.578628299043208"><ele>498.0</ele><time>2026-05-01T13:10:56Z</time></trkpt><trkpt lat="43.70425112967565" lon="12.578568149594311"><ele>498.0</ele><time>2026-05-01T13:10:57Z</time></trkpt><trkpt lat="43.7043636198787" lon="12.578505776335575"><ele>498.0</ele><time>2026-05-01T13:10:58Z</time></trkpt><trkpt lat="43.70448510291122" lon="12.57846394450367"><ele>498.0</ele><time>2026-05-01T13:10:59Z</time></trkpt><trkpt lat="43.70460422427023" lon="12.578455849265074"><ele>498.0</ele><time>2026-05-01T13:11:00Z</time></trkpt><trkpt lat="43.704710125429095" lon="12.578504041296632"><ele>495.79999999999995</ele><time>2026-05-01T13:11:01Z</time></trkpt><trkpt lat="43.7047837281891" lon="12.57856914839688"><ele>493.59999999999997</ele><time>2026-05-01T13:11:02Z</time></trkpt><trkpt lat="43.704831864485136" lon="12.578683532799698"><ele>491.40000000000003</ele><time>2026-05-01T13:11:03Z</time></trkpt><trkpt lat="43.704871361617705" lon="12.578825213630418"><ele>489.20000000000005</ele><time>2026-05-01T13:11:04Z</time></trkpt><trkpt lat="43.704924478764795" lon="12.578973519089395"><ele>487.0</ele><time>2026-05-01T13:11:05Z</time></trkpt><trkpt lat="43.70498176834379" lon="12.579124504443252"><ele>487.0</ele><time>2026-05-01T13:11:06Z</time></trkpt><trkpt lat="43.705027130122076" lon="12.579291676016295"><ele>487.0</ele><time>2026-05-01T13:11:07Z</time></trkpt><trkpt lat="43.70504986903626" lon="12.579471529141792"><ele>487.0</ele><time>2026-05-01T13:11:08Z</time></trkpt><trkpt lat="43.705046821279964" lon="12.579659924092166"><ele>487.0</ele><time>2026-05-01T13:11:09Z</time></trkpt><trkpt lat="43.705031977798605" lon="12.579843683373308"><ele>487.75</ele><time>2026-05-01T13:11:10Z</time></trkpt><trkpt lat="43.70501877061101" lon="12.580030460450159"><ele>488.5</ele><time>2026-05-01T13:11:11Z</time></trkpt><trkpt lat="43.70501046826716" lon="12.580218359537476"><ele>489.25</ele><time>2026-05-01T13:11:12Z</time></trkpt><trkpt lat="43.70500308432206" lon="12.580396542700148"><ele>490.0</ele><time>2026-05-01T13:11:13Z</time></trkpt><trkpt lat="43.70499700912725" lon="12.580573606903442"><ele>490.0</ele><time>2026-05-01T13:11:14Z</time></trkpt><trkpt lat="43.704998075305085" lon="12.58075560904598"><ele>490.0</ele><time>2026-05-01T13:11:15Z</time></trkpt><trkpt lat="43.705016483617044" lon="12.580946281896182"><ele>490.0</ele><time>2026-05-01T13:11:16Z</time></trkpt><trkpt lat="43.70504588977286" lon="12.581144235334143"><ele>490.0</ele><time>2026-05-01T13:11:17Z</time></trkpt><trkpt lat="43.705088638940445" lon="12.581343350789746"><ele>492.0</ele><time>2026-05-01T13:11:18Z</time></trkpt><trkpt lat="43.705146838198644" lon="12.581540178807886"><ele>494.0</ele><time>2026-05-01T13:11:19Z</time></trkpt><trkpt lat="43.70520022763026" lon="12.581742288384095"><ele>496.0</ele><time>2026-05-01T13:11:20Z</time></trkpt><trkpt lat="43.70523466529486" lon="12.581959273254562"><ele>496.33333333333337</ele><time>2026-05-01T13:11:21Z</time></trkpt><trkpt lat="43.70524576358542" lon="12.582184237782752"><ele>496.66666666666663</ele><time>2026-05-01T13:11:22Z</time></trkpt><trkpt lat="43.70524517411841" lon="12.582418560328078"><ele>497.0</ele><time>2026-05-01T13:11:23Z</time></trkpt><trkpt lat="43.70522488189593" lon="12.582649260740762"><ele>494.66666666666663</ele><time>2026-05-01T13:11:24Z</time></trkpt><trkpt lat="43.705181722227856" lon="12.582867930259791"><ele>492.33333333333337</ele><time>2026-05-01T13:11:25Z</time></trkpt><trkpt lat="43.70510689877184" lon="12.583068669900497"><ele>490.0</ele><time>2026-05-01T13:11:26Z</time></trkpt><trkpt lat="43.70501615132593" lon="12.583256472850643"><ele>490.0</ele><time>2026-05-01T13:11:27Z</time></trkpt><trkpt lat="43.704922207713025" lon="12.583422260714668"><ele>490.0</ele><time>2026-05-01T13:11:28Z</time></trkpt><trkpt lat="43.70483745299324" lon="12.583603417011453"><ele>490.0</ele><time>2026-05-01T13:11:29Z</time></trkpt><trkpt lat="43.70477769171565" lon="12.583788753466248"><ele>488.0</ele><time>2026-05-01T13:11:30Z</time></trkpt><trkpt lat="43.704760349780884" lon="12.583992126583045"><ele>486.0</ele><time>2026-05-01T13:11:31Z</time></trkpt><trkpt lat="43.70479960083271" lon="12.584194575801924"><ele>484.0</ele><time>2026-05-01T13:11:32Z</time></trkpt><trkpt lat="43.7048682902382" lon="12.584394460769216"><ele>484.75</ele><time>2026-05-01T13:11:33Z</time></trkpt><trkpt lat="43.70495911734249" lon="12.584572887059796"><ele>485.5</ele><time>2026-05-01T13:11:34Z</time></trkpt><trkpt lat="43.705019118458395" lon="12.584754491894723"><ele>486.25</ele><time>2026-05-01T13:11:35Z</time></trkpt><trkpt lat="43.70503018603425" lon="12.58495542982526"><ele>487.0</ele><time>2026-05-01T13:11:36Z</time></trkpt><trkpt lat="43.70499982998701" lon="12.585162842768147"><ele>487.0</ele><time>2026-05-01T13:11:37Z</time></trkpt><trkpt lat="43.70497432977248" lon="12.585373522018296"><ele>487.0</ele><time>2026-05-01T13:11:38Z</time></trkpt><trkpt lat="43.70498563803267" lon="12.585587955600653"><ele>487.0</ele><time>2026-05-01T13:11:39Z</time></trkpt><trkpt lat="43.70502384803813" lon="12.585808125859693"><ele>487.0</ele><time>2026-05-01T13:11:40Z</time></trkpt><trkpt lat="43.70508395450874" lon="12.586029373491998"><ele>487.0</ele><time>2026-05-01T13:11:41Z</time></trkpt><trkpt lat="43.70513706514654" lon="12.586253778265421"><ele>487.0</ele><time>2026-05-01T13:11:42Z</time></trkpt><trkpt lat="43.70518924586495" lon="12.586479389803422"><ele>484.6666666666667</ele><time>2026-05-01T13:11:43Z</time></trkpt><trkpt lat="43.70523940783066" lon="12.586692405262065"><ele>482.33333333333337</ele><time>2026-05-01T13:11:44Z</time></trkpt><trkpt lat="43.705291919178286" lon="12.586896535079196"><ele>480.0</ele><time>2026-05-01T13:11:45Z</time></trkpt><trkpt lat="43.70536880419525" lon="12.587062475693154"><ele>480.0</ele><time>2026-05-01T13:11:46Z</time></trkpt><trkpt lat="43.705482769770974" lon="12.587194552435156"><ele>480.0</ele><time>2026-05-01T13:11:47Z</time></trkpt><trkpt lat="43.705622297503496" lon="12.587287953163987"><ele>480.0</ele><time>2026-05-01T13:11:48Z</time></trkpt><trkpt lat="43.70574438102028" lon="12.587400973038013"><ele>480.0</ele><time>2026-05-01T13:11:49Z</time></trkpt><trkpt lat="43.705821670410494" lon="12.587564500410185"><ele>480.0</ele><time>2026-05-01T13:11:50Z</time></trkpt><trkpt lat="43.70586408288171" lon="12.587773438179955"><ele>480.0</ele><time>2026-05-01T13:11:51Z</time></trkpt><trkpt lat="43.705888464415075" lon="12.587984498513295"><ele>481.33333333333337</ele><time>2026-05-01T13:11:52Z</time></trkpt><trkpt lat="43.70588460287583" lon="12.588203014920664"><ele>482.6666666666667</ele><time>2026-05-01T13:11:53Z</time></trkpt><trkpt lat="43.705883776623075" lon="12.588424494504423"><ele>484.0</ele><time>2026-05-01T13:11:54Z</time></trkpt><trkpt lat="43.705920245117916" lon="12.588637768391783"><ele>483.0</ele><time>2026-05-01T13:11:55Z</time></trkpt><trkpt lat="43.70596559017001" lon="12.588839816917723"><ele>482.0</ele><time>2026-05-01T13:11:56Z</time></trkpt><trkpt lat="43.70598724573892" lon="12.589033401340822"><ele>481.0</ele><time>2026-05-01T13:11:57Z</time></trkpt><trkpt lat="43.705969908858194" lon="12.589231235343483"><ele>480.0</ele><time>2026-05-01T13:11:58Z</time></trkpt><trkpt lat="43.7059104670909" lon="12.589408422705826"><ele>477.75</ele><time>2026-05-01T13:11:59Z</time></trkpt><trkpt lat="43.70581040884671" lon="12.589563255017383"><ele>475.5</ele><time>2026-05-01T13:12:00Z</time></trkpt><trkpt lat="43.70572649587553" lon="12.589731101958286"><ele>473.25</ele><time>2026-05-01T13:12:01Z</time></trkpt><trkpt lat="43.70565082421729" lon="12.589911129395851"><ele>471.0</ele><time>2026-05-01T13:12:02Z</time></trkpt><trkpt lat="43.70556178526975" lon="12.590064870715569"><ele>471.0</ele><time>2026-05-01T13:12:03Z</time></trkpt><trkpt lat="43.70543726102147" lon="12.590170736123591"><ele>471.0</ele><time>2026-05-01T13:12:04Z</time></trkpt><trkpt lat="43.70529040723398" lon="12.590230996521763"><ele>471.0</ele><time>2026-05-01T13:12:05Z</time></trkpt><trkpt lat="43.705135985942846" lon="12.590288912373762"><ele>472.0</ele><time>2026-05-01T13:12:06Z</time></trkpt><trkpt lat="43.704999474024895" lon="12.590389631992895"><ele>473.0</ele><time>2026-05-01T13:12:07Z</time></trkpt><trkpt lat="43.70487859694845" lon="12.59052821860201"><ele>474.0</ele><time>2026-05-01T13:12:08Z</time></trkpt><trkpt lat="43.70478894504715" lon="12.59070029468579"><ele>474.0</ele><time>2026-05-01T13:12:09Z</time></trkpt><trkpt lat="43.70472946737252" lon="12.590903505387809"><ele>474.0</ele><time>2026-05-01T13:12:10Z</time></trkpt><trkpt lat="43.70471154292198" lon="12.591127061626302"><ele>474.0</ele><time>2026-05-01T13:12:11Z</time></trkpt><trkpt lat="43.704729577692675" lon="12.591352231591081"><ele>473.66666666666663</ele><time>2026-05-01T13:12:12Z</time></trkpt><trkpt lat="43.70478182931445" lon="12.591568780686336"><ele>473.3333333333333</ele><time>2026-05-01T13:12:13Z</time></trkpt><trkpt lat="43.70485953706874" lon="12.591759920077138"><ele>473.0</ele><time>2026-05-01T13:12:14Z</time></trkpt><trkpt lat="43.70492700778396" lon="12.591941348429236"><ele>471.5</ele><time>2026-05-01T13:12:15Z</time></trkpt><trkpt lat="43.704946101557894" lon="12.592126413003076"><ele>470.0</ele><time>2026-05-01T13:12:16Z</time></trkpt><trkpt lat="43.704913499117374" lon="12.592315034918684"><ele>468.5</ele><time>2026-05-01T13:12:17Z</time></trkpt><trkpt lat="43.70484284888551" lon="12.592492402524451"><ele>467.0</ele><time>2026-05-01T13:12:18Z</time></trkpt><trkpt lat="43.70473674933194" lon="12.592637803347092"><ele>467.0</ele><time>2026-05-01T13:12:19Z</time></trkpt><trkpt lat="43.70461633252862" lon="12.592769664089644"><ele>467.0</ele><time>2026-05-01T13:12:20Z</time></trkpt><trkpt lat="43.70447854165603" lon="12.592888216915227"><ele>467.0</ele><time>2026-05-01T13:12:21Z</time></trkpt><trkpt lat="43.70433573295362" lon="12.593008813263173"><ele>470.3333333333333</ele><time>2026-05-01T13:12:22Z</time></trkpt><trkpt lat="43.70419859367409" lon="12.59313589932469"><ele>473.66666666666663</ele><time>2026-05-01T13:12:23Z</time></trkpt><trkpt lat="43.704059541896214" lon="12.593268135581129"><ele>477.0</ele><time>2026-05-01T13:12:24Z</time></trkpt><trkpt lat="43.70391560194623" lon="12.593397434705834"><ele>477.0</ele><time>2026-05-01T13:12:25Z</time></trkpt><trkpt lat="43.70377468169855" lon="12.593534606586983"><ele>477.0</ele><time>2026-05-01T13:12:26Z</time></trkpt><trkpt lat="43.70363117262633" lon="12.593665743450481"><ele>477.0</ele><time>2026-05-01T13:12:27Z</time></trkpt><trkpt lat="43.70349886130071" lon="12.593787983389646"><ele>476.5</ele><time>2026-05-01T13:12:28Z</time></trkpt><trkpt lat="43.70337476332855" lon="12.593910216765034"><ele>476.0</ele><time>2026-05-01T13:12:29Z</time></trkpt><trkpt lat="43.703274101550534" lon="12.594049147736662"><ele>475.5</ele><time>2026-05-01T13:12:30Z</time></trkpt><trkpt lat="43.70322187622972" lon="12.594227482607582"><ele>475.0</ele><time>2026-05-01T13:12:31Z</time></trkpt><trkpt lat="43.703214065662195" lon="12.594426359719789"><ele>472.33333333333337</ele><time>2026-05-01T13:12:32Z</time></trkpt><trkpt lat="43.70323908361994" lon="12.594638277451518"><ele>469.66666666666663</ele><time>2026-05-01T13:12:33Z</time></trkpt><trkpt lat="43.70325504054527" lon="12.594854162876572"><ele>467.0</ele><time>2026-05-01T13:12:34Z</time></trkpt><trkpt lat="43.703246316771505" lon="12.595073032038975"><ele>467.0</ele><time>2026-05-01T13:12:35Z</time></trkpt><trkpt lat="43.70319157625514" lon="12.595288449534955"><ele>467.0</ele><time>2026-05-01T13:12:36Z</time></trkpt><trkpt lat="43.703130693547834" lon="12.595489886122218"><ele>467.0</ele><time>2026-05-01T13:12:37Z</time></trkpt><trkpt lat="43.70309564416712" lon="12.595693251630635"><ele>466.0</ele><time>2026-05-01T13:12:38Z</time></trkpt><trkpt lat="43.703107338569325" lon="12.595915711521192"><ele>465.0</ele><time>2026-05-01T13:12:39Z</time></trkpt><trkpt lat="43.703142563900826" lon="12.596129348813518"><ele>464.0</ele><time>2026-05-01T13:12:40Z</time></trkpt><trkpt lat="43.703203149541515" lon="12.596318185314493"><ele>467.25</ele><time>2026-05-01T13:12:41Z</time></trkpt><trkpt lat="43.703311967703044" lon="12.596467855742915"><ele>470.5</ele><time>2026-05-01T13:12:42Z</time></trkpt><trkpt lat="43.7034354937532" lon="12.59658808398473"><ele>473.75</ele><time>2026-05-01T13:12:43Z</time></trkpt><trkpt lat="43.703533526564236" lon="12.59672688779602"><ele>477.0</ele><time>2026-05-01T13:12:44Z</time></trkpt><trkpt lat="43.703595887696515" lon="12.5969101197949"><ele>472.0</ele><time>2026-05-01T13:12:45Z</time></trkpt><trkpt lat="43.703641085369206" lon="12.597118336989634"><ele>467.0</ele><time>2026-05-01T13:12:46Z</time></trkpt><trkpt lat="43.703706177469" lon="12.597319053901927"><ele>462.0</ele><time>2026-05-01T13:12:47Z</time></trkpt><trkpt lat="43.703795555752826" lon="12.597518251576012"><ele>462.0</ele><time>2026-05-01T13:12:48Z</time></trkpt><trkpt lat="43.70388686589016" lon="12.597716802229213"><ele>462.0</ele><time>2026-05-01T13:12:49Z</time></trkpt><trkpt lat="43.70396916659356" lon="12.597905480625652"><ele>462.0</ele><time>2026-05-01T13:12:50Z</time></trkpt><trkpt lat="43.70406328324998" lon="12.598061299516587"><ele>462.66666666666663</ele><time>2026-05-01T13:12:51Z</time></trkpt><trkpt lat="43.70419095444638" lon="12.598158146222868"><ele>463.3333333333333</ele><time>2026-05-01T13:12:52Z</time></trkpt><trkpt lat="43.704338817741984" lon="12.598192348214075"><ele>464.0</ele><time>2026-05-01T13:12:53Z</time></trkpt><trkpt lat="43.70449457347451" lon="12.59819560392168"><ele>464.0</ele><time>2026-05-01T13:12:54Z</time></trkpt><trkpt lat="43.704647531572725" lon="12.598226751098014"><ele>464.0</ele><time>2026-05-01T13:12:55Z</time></trkpt><trkpt lat="43.70478825441075" lon="12.598322851373469"><ele>464.0</ele><time>2026-05-01T13:12:56Z</time></trkpt><trkpt lat="43.70492083839269" lon="12.598454586933622"><ele>464.0</ele><time>2026-05-01T13:12:57Z</time></trkpt><trkpt lat="43.705049332274484" lon="12.598606948614902"><ele>464.0</ele><time>2026-05-01T13:12:58Z</time></trkpt><trkpt lat="43.70516858392236" lon="12.598775964940401"><ele>464.0</ele><time>2026-05-01T13:12:59Z</time></trkpt><trkpt lat="43.7052834551467" lon="12.598926357725487"><ele>463.4</ele><time>2026-05-01T13:13:00Z</time></trkpt><trkpt lat="43.70538202268941" lon="12.599054774002381"><ele>462.79999999999995</ele><time>2026-05-01T13:13:01Z</time></trkpt><trkpt lat="43.705443699589" lon="12.59918447118639"><ele>462.20000000000005</ele><time>2026-05-01T13:13:02Z</time></trkpt><trkpt lat="43.705455080609006" lon="12.59930927587382"><ele>461.6</ele><time>2026-05-01T13:13:03Z</time></trkpt><trkpt lat="43.705410033515086" lon="12.59940576315556"><ele>461.0</ele><time>2026-05-01T13:13:04Z</time></trkpt><trkpt lat="43.705317892702695" lon="12.599452692339549"><ele>460.75</ele><time>2026-05-01T13:13:05Z</time></trkpt><trkpt lat="43.70520911854778" lon="12.599460211628559"><ele>460.5</ele><time>2026-05-01T13:13:06Z</time></trkpt><trkpt lat="43.705083643854664" lon="12.599459544579705"><ele>460.25</ele><time>2026-05-01T13:13:07Z</time></trkpt><trkpt lat="43.70495021275213" lon="12.599494108012939"><ele>460.0</ele><time>2026-05-01T13:13:08Z</time></trkpt><trkpt lat="43.70481099155539" lon="12.59957152055631"><ele>460.0</ele><time>2026-05-01T13:13:09Z</time></trkpt><trkpt lat="43.70469018432688" lon="12.599693539275165"><ele>460.0</ele><time>2026-05-01T13:13:10Z</time></trkpt><trkpt lat="43.70459356729769" lon="12.59985646832562"><ele>460.0</ele><time>2026-05-01T13:13:11Z</time></trkpt><trkpt lat="43.704544129756165" lon="12.600031101088927"><ele>460.0</ele><time>2026-05-01T13:13:12Z</time></trkpt><trkpt lat="43.70455728284425" lon="12.60022168279907"><ele>456.4</ele><time>2026-05-01T13:13:13Z</time></trkpt><trkpt lat="43.704622715371855" lon="12.600394020671253"><ele>452.8</ele><time>2026-05-01T13:13:14Z</time></trkpt><trkpt lat="43.70466979443344" lon="12.600543794751179"><ele>449.20000000000005</ele><time>2026-05-01T13:13:15Z</time></trkpt><trkpt lat="43.70467077242797" lon="12.600673152467559"><ele>445.6</ele><time>2026-05-01T13:13:16Z</time></trkpt><trkpt lat="43.70462534552515" lon="12.600784738845139"><ele>442.0</ele><time>2026-05-01T13:13:17Z</time></trkpt><trkpt lat="43.704524759585546" lon="12.600823724961614"><ele>442.0</ele><time>2026-05-01T13:13:18Z</time></trkpt><trkpt lat="43.70441822061439" lon="12.600800257541525"><ele>442.0</ele><time>2026-05-01T13:13:19Z</time></trkpt><trkpt lat="43.7043026647842" lon="12.600725554304946"><ele>442.0</ele><time>2026-05-01T13:13:20Z</time></trkpt><trkpt lat="43.70417844131783" lon="12.600636274758026"><ele>442.0</ele><time>2026-05-01T13:13:21Z</time></trkpt><trkpt lat="43.70404473911398" lon="12.60054288220035"><ele>444.5</ele><time>2026-05-01T13:13:22Z</time></trkpt><trkpt lat="43.7039111104503" lon="12.600448880876705"><ele>447.0</ele><time>2026-05-01T13:13:23Z</time></trkpt><trkpt lat="43.70377369264148" lon="12.600364324582491"><ele>449.5</ele><time>2026-05-01T13:13:24Z</time></trkpt><trkpt lat="43.703635643590935" lon="12.600309616027747"><ele>452.0</ele><time>2026-05-01T13:13:25Z</time></trkpt><trkpt lat="43.70348844822678" lon="12.600318206918828"><ele>450.75</ele><time>2026-05-01T13:13:26Z</time></trkpt><trkpt lat="43.70334189544921" lon="12.600360876927652"><ele>449.5</ele><time>2026-05-01T13:13:27Z</time></trkpt><trkpt lat="43.70319884055848" lon="12.60037022317509"><ele>448.25</ele><time>2026-05-01T13:13:28Z</time></trkpt><trkpt lat="43.703069228343516" lon="12.600348814054348"><ele>447.0</ele><time>2026-05-01T13:13:29Z</time></trkpt><trkpt lat="43.70294502685904" lon="12.600375549822347"><ele>447.0</ele><time>2026-05-01T13:13:30Z</time></trkpt><trkpt lat="43.70282376941279" lon="12.600471782135719"><ele>447.0</ele><time>2026-05-01T13:13:31Z</time></trkpt><trkpt lat="43.70271543304896" lon="12.600608389971441"><ele>447.0</ele><time>2026-05-01T13:13:32Z</time></trkpt><trkpt lat="43.70262759540728" lon="12.600766050767815"><ele>447.0</ele><time>2026-05-01T13:13:33Z</time></trkpt><trkpt lat="43.70257364294927" lon="12.60094142817931"><ele>450.0</ele><time>2026-05-01T13:13:34Z</time></trkpt><trkpt lat="43.702549151762575" lon="12.601140312678702"><ele>453.0</ele><time>2026-05-01T13:13:35Z</time></trkpt><trkpt lat="43.70256707827718" lon="12.601354183527093"><ele>456.0</ele><time>2026-05-01T13:13:36Z</time></trkpt><trkpt lat="43.70260969602469" lon="12.601572677511557"><ele>456.0</ele><time>2026-05-01T13:13:37Z</time></trkpt><trkpt lat="43.70265116062165" lon="12.601798730385243"><ele>456.0</ele><time>2026-05-01T13:13:38Z</time></trkpt><trkpt lat="43.70267482148324" lon="12.6020309957489"><ele>456.0</ele><time>2026-05-01T13:13:39Z</time></trkpt><trkpt lat="43.70269443547345" lon="12.602248211789425"><ele>456.0</ele><time>2026-05-01T13:13:40Z</time></trkpt><trkpt lat="43.702741991868976" lon="12.602453009029436"><ele>456.0</ele><time>2026-05-01T13:13:41Z</time></trkpt><trkpt lat="43.70280672328809" lon="12.602644483256999"><ele>456.0</ele><time>2026-05-01T13:13:42Z</time></trkpt><trkpt lat="43.70284654516718" lon="12.602843127666732"><ele>450.25</ele><time>2026-05-01T13:13:43Z</time></trkpt><trkpt lat="43.702859192061005" lon="12.603034368049736"><ele>444.5</ele><time>2026-05-01T13:13:44Z</time></trkpt><trkpt lat="43.702910969321046" lon="12.6032130563056"><ele>438.75</ele><time>2026-05-01T13:13:45Z</time></trkpt><trkpt lat="43.70301977257218" lon="12.603361704994198"><ele>433.0</ele><time>2026-05-01T13:13:46Z</time></trkpt><trkpt lat="43.70314795995864" lon="12.603475485083765"><ele>433.0</ele><time>2026-05-01T13:13:47Z</time></trkpt><trkpt lat="43.70328935139627" lon="12.603535924887021"><ele>433.0</ele><time>2026-05-01T13:13:48Z</time></trkpt><trkpt lat="43.70341444545056" lon="12.603633756031295"><ele>433.0</ele><time>2026-05-01T13:13:49Z</time></trkpt><trkpt lat="43.703514235616666" lon="12.603795759317059"><ele>433.0</ele><time>2026-05-01T13:13:50Z</time></trkpt><trkpt lat="43.70360048393735" lon="12.60397524366029"><ele>431.75</ele><time>2026-05-01T13:13:51Z</time></trkpt><trkpt lat="43.70369147097736" lon="12.604129375186412"><ele>430.5</ele><time>2026-05-01T13:13:52Z</time></trkpt><trkpt lat="43.703783545068084" lon="12.604255008361749"><ele>429.25</ele><time>2026-05-01T13:13:53Z</time></trkpt><trkpt lat="43.703876312639956" lon="12.604355646166429"><ele>428.0</ele><time>2026-05-01T13:13:54Z</time></trkpt><trkpt lat="43.70397224139987" lon="12.604424508002861"><ele>428.0</ele><time>2026-05-01T13:13:55Z</time></trkpt><trkpt lat="43.70407638202492" lon="12.604440953452345"><ele>427.99999999999994</ele><time>2026-05-01T13:13:56Z</time></trkpt><trkpt lat="43.704175910084416" lon="12.604425034001403"><ele>427.99999999999994</ele><time>2026-05-01T13:13:57Z</time></trkpt><trkpt lat="43.70427089380488" lon="12.604407998447176"><ele>428.0</ele><time>2026-05-01T13:13:58Z</time></trkpt><trkpt lat="43.70436424026665" lon="12.604402617017419"><ele>428.0</ele><time>2026-05-01T13:13:59Z</time></trkpt><trkpt lat="43.704457390892266" lon="12.604422640288146"><ele>427.59999999999997</ele><time>2026-05-01T13:14:00Z</time></trkpt><trkpt lat="43.70455358192466" lon="12.60446559310984"><ele>427.19999999999993</ele><time>2026-05-01T13:14:01Z</time></trkpt><trkpt lat="43.704642897102836" lon="12.604539025921975"><ele>426.8</ele><time>2026-05-01T13:14:02Z</time></trkpt><trkpt lat="43.70473116893697" lon="12.604623022109424"><ele>426.4</ele><time>2026-05-01T13:14:03Z</time></trkpt><trkpt lat="43.70482044282" lon="12.60471094950196"><ele>426.0</ele><time>2026-05-01T13:14:04Z</time></trkpt><trkpt lat="43.70491183910241" lon="12.604801236847694"><ele>426.0</ele><time>2026-05-01T13:14:05Z</time></trkpt><trkpt lat="43.70500098329135" lon="12.604898403399671"><ele>426.0</ele><time>2026-05-01T13:14:06Z</time></trkpt><trkpt lat="43.70508034639295" lon="12.605007066469778"><ele>426.0</ele><time>2026-05-01T13:14:07Z</time></trkpt><trkpt lat="43.70514363950396" lon="12.605136396019981"><ele>426.0</ele><time>2026-05-01T13:14:08Z</time></trkpt><trkpt lat="43.705190389689875" lon="12.605277241703796"><ele>425.5</ele><time>2026-05-01T13:14:09Z</time></trkpt><trkpt lat="43.705243425014906" lon="12.605417017190447"><ele>425.0</ele><time>2026-05-01T13:14:10Z</time></trkpt><trkpt lat="43.70530315426529" lon="12.60555534124568"><ele>424.5</ele><time>2026-05-01T13:14:11Z</time></trkpt><trkpt lat="43.70535471892452" lon="12.605697355199117"><ele>424.0</ele><time>2026-05-01T13:14:12Z</time></trkpt><trkpt lat="43.70539392459712" lon="12.60585400723359"><ele>424.0</ele><time>2026-05-01T13:14:13Z</time></trkpt><trkpt lat="43.70542476208332" lon="12.60601567241524"><ele>424.0</ele><time>2026-05-01T13:14:14Z</time></trkpt><trkpt lat="43.70545860376376" lon="12.60618717054951"><ele>424.0</ele><time>2026-05-01T13:14:15Z</time></trkpt><trkpt lat="43.70549443790349" lon="12.606355780657005"><ele>424.0</ele><time>2026-05-01T13:14:16Z</time></trkpt><trkpt lat="43.705561766420615" lon="12.606515399387874"><ele>425.0</ele><time>2026-05-01T13:14:17Z</time></trkpt><trkpt lat="43.70565325829616" lon="12.60666042369705"><ele>426.0</ele><time>2026-05-01T13:14:18Z</time></trkpt><trkpt lat="43.70576692411011" lon="12.60678243030491"><ele>427.0</ele><time>2026-05-01T13:14:19Z</time></trkpt><trkpt lat="43.705894815817466" lon="12.606882487786086"><ele>428.0</ele><time>2026-05-01T13:14:20Z</time></trkpt><trkpt lat="43.70602514777213" lon="12.606994881136368"><ele>429.3333333333333</ele><time>2026-05-01T13:14:21Z</time></trkpt><trkpt lat="43.70615543944127" lon="12.607133277586053"><ele>430.66666666666663</ele><time>2026-05-01T13:14:22Z</time></trkpt><trkpt lat="43.70627418979858" lon="12.607293605499754"><ele>432.0</ele><time>2026-05-01T13:14:23Z</time></trkpt><trkpt lat="43.70638750353217" lon="12.607466523526856"><ele>432.0</ele><time>2026-05-01T13:14:24Z</time></trkpt><trkpt lat="43.7064987302374" lon="12.607622115857014"><ele>432.0</ele><time>2026-05-01T13:14:25Z</time></trkpt><trkpt lat="43.70662715080654" lon="12.60775285245112"><ele>432.0</ele><time>2026-05-01T13:14:26Z</time></trkpt><trkpt lat="43.70676482772774" lon="12.607860596776668"><ele>435.66666666666663</ele><time>2026-05-01T13:14:27Z</time></trkpt><trkpt lat="43.70688900208023" lon="12.60799985920663"><ele>439.3333333333333</ele><time>2026-05-01T13:14:28Z</time></trkpt><trkpt lat="43.7069910142896" lon="12.608176965923269"><ele>443.0</ele><time>2026-05-01T13:14:29Z</time></trkpt><trkpt lat="43.70707876245311" lon="12.608361204636026"><ele>443.0</ele><time>2026-05-01T13:14:30Z</time></trkpt><trkpt lat="43.70717449181397" lon="12.608550962606353"><ele>443.0</ele><time>2026-05-01T13:14:31Z</time></trkpt><trkpt lat="43.70727038697155" lon="12.608740318023669"><ele>443.0</ele><time>2026-05-01T13:14:32Z</time></trkpt><trkpt lat="43.707357421651665" lon="12.608923562081229"><ele>437.66666666666663</ele><time>2026-05-01T13:14:33Z</time></trkpt><trkpt lat="43.707454687534934" lon="12.609094622771012"><ele>432.33333333333337</ele><time>2026-05-01T13:14:34Z</time></trkpt><trkpt lat="43.70756187667044" lon="12.6092460165426"><ele>427.0</ele><time>2026-05-01T13:14:35Z</time></trkpt><trkpt lat="43.707691645411046" lon="12.609336167742493"><ele>428.0</ele><time>2026-05-01T13:14:36Z</time></trkpt><trkpt lat="43.70784284710485" lon="12.609371632381214"><ele>429.0</ele><time>2026-05-01T13:14:37Z</time></trkpt><trkpt lat="43.7080137452631" lon="12.609385311344587"><ele>430.0</ele><time>2026-05-01T13:14:38Z</time></trkpt><trkpt lat="43.70818023889209" lon="12.60941642004218"><ele>430.0</ele><time>2026-05-01T13:14:39Z</time></trkpt><trkpt lat="43.7083353940039" lon="12.609455808102407"><ele>430.0</ele><time>2026-05-01T13:14:40Z</time></trkpt><trkpt lat="43.70847989201402" lon="12.609466877695823"><ele>430.0</ele><time>2026-05-01T13:14:41Z</time></trkpt><trkpt lat="43.70862266939397" lon="12.609435061424904"><ele>430.0</ele><time>2026-05-01T13:14:42Z</time></trkpt><trkpt lat="43.70875811153674" lon="12.609331036328504"><ele>427.5</ele><time>2026-05-01T13:14:43Z</time></trkpt><trkpt lat="43.7088745647642" lon="12.609219375103823"><ele>425.0</ele><time>2026-05-01T13:14:44Z</time></trkpt><trkpt lat="43.70899463503949" lon="12.60915978314864"><ele>422.5</ele><time>2026-05-01T13:14:45Z</time></trkpt><trkpt lat="43.70911585660174" lon="12.609162681654306"><ele>420.0</ele><time>2026-05-01T13:14:46Z</time></trkpt><trkpt lat="43.709216939202975" lon="12.60923418651136"><ele>420.0</ele><time>2026-05-01T13:14:47Z</time></trkpt><trkpt lat="43.709274411620925" lon="12.609356678983449"><ele>420.0</ele><time>2026-05-01T13:14:48Z</time></trkpt><trkpt lat="43.70929034484497" lon="12.609516838485332"><ele>420.0</ele><time>2026-05-01T13:14:49Z</time></trkpt><trkpt lat="43.709294708308704" lon="12.609680831889802"><ele>420.0</ele><time>2026-05-01T13:14:50Z</time></trkpt><trkpt lat="43.709330136323196" lon="12.609845236612209"><ele>419.25</ele><time>2026-05-01T13:14:51Z</time></trkpt><trkpt lat="43.70941278968957" lon="12.610001451780057"><ele>418.5</ele><time>2026-05-01T13:14:52Z</time></trkpt><trkpt lat="43.70952731476478" lon="12.610137941602154"><ele>417.75</ele><time>2026-05-01T13:14:53Z</time></trkpt><trkpt lat="43.70965268103855" lon="12.610264547505365"><ele>417.0</ele><time>2026-05-01T13:14:54Z</time></trkpt><trkpt lat="43.70977741512829" lon="12.610411127811114"><ele>415.0</ele><time>2026-05-01T13:14:55Z</time></trkpt><trkpt lat="43.70989720561263" lon="12.610565706080271"><ele>413.0</ele><time>2026-05-01T13:14:56Z</time></trkpt><trkpt lat="43.71000005396501" lon="12.61074141638177"><ele>411.0</ele><time>2026-05-01T13:14:57Z</time></trkpt><trkpt lat="43.710068148753976" lon="12.610941807097381"><ele>411.0</ele><time>2026-05-01T13:14:58Z</time></trkpt><trkpt lat="43.71013640783253" lon="12.611137134425208"><ele>411.0</ele><time>2026-05-01T13:14:59Z</time></trkpt><trkpt lat="43.71021953380813" lon="12.611324062036767"><ele>411.0</ele><time>2026-05-01T13:15:00Z</time></trkpt><trkpt lat="43.71033811075502" lon="12.611503571234966"><ele>410.66666666666663</ele><time>2026-05-01T13:15:01Z</time></trkpt><trkpt lat="43.71046907912764" lon="12.611653086171284"><ele>410.3333333333333</ele><time>2026-05-01T13:15:02Z</time></trkpt><trkpt lat="43.71061346052269" lon="12.611783008604506"><ele>410.0</ele><time>2026-05-01T13:15:03Z</time></trkpt><trkpt lat="43.71076122372731" lon="12.611917069017132"><ele>412.0</ele><time>2026-05-01T13:15:04Z</time></trkpt><trkpt lat="43.71086392771034" lon="12.612068522105503"><ele>414.0</ele><time>2026-05-01T13:15:05Z</time></trkpt><trkpt lat="43.71092332722165" lon="12.612256548899458"><ele>416.0</ele><time>2026-05-01T13:15:06Z</time></trkpt><trkpt lat="43.71095755540216" lon="12.612464289753746"><ele>416.0</ele><time>2026-05-01T13:15:07Z</time></trkpt><trkpt lat="43.71096715387194" lon="12.612677486955619"><ele>416.0</ele><time>2026-05-01T13:15:08Z</time></trkpt><trkpt lat="43.71094401124318" lon="12.612890984804224"><ele>416.0</ele><time>2026-05-01T13:15:09Z</time></trkpt><trkpt lat="43.710885076207916" lon="12.613093939605251"><ele>417.66666666666663</ele><time>2026-05-01T13:15:10Z</time></trkpt><trkpt lat="43.71079385728315" lon="12.61327276886442"><ele>419.33333333333337</ele><time>2026-05-01T13:15:11Z</time></trkpt><trkpt lat="43.71066686856927" lon="12.613404868822109"><ele>421.0</ele><time>2026-05-01T13:15:12Z</time></trkpt><trkpt lat="43.710535984324316" lon="12.61349653313004"><ele>421.0</ele><time>2026-05-01T13:15:13Z</time></trkpt><trkpt lat="43.71043003870407" lon="12.613586802351834"><ele>421.0</ele><time>2026-05-01T13:15:14Z</time></trkpt><trkpt lat="43.71037614405931" lon="12.613731250150382"><ele>421.0</ele><time>2026-05-01T13:15:15Z</time></trkpt><trkpt lat="43.710368177325556" lon="12.61388983804811"><ele>421.0</ele><time>2026-05-01T13:15:16Z</time></trkpt><trkpt lat="43.71042400594367" lon="12.614038197198678"><ele>420.25</ele><time>2026-05-01T13:15:17Z</time></trkpt><trkpt lat="43.71052119721872" lon="12.614138778656924"><ele>419.5</ele><time>2026-05-01T13:15:18Z</time></trkpt><trkpt lat="43.71064382775744" lon="12.614175019643213"><ele>418.75</ele><time>2026-05-01T13:15:19Z</time></trkpt><trkpt lat="43.71077126068004" lon="12.614132772896117"><ele>418.0</ele><time>2026-05-01T13:15:20Z</time></trkpt><trkpt lat="43.7108954771243" lon="12.614075995635956"><ele>418.0</ele><time>2026-05-01T13:15:21Z</time></trkpt><trkpt lat="43.711033713570295" lon="12.614066508500734"><ele>418.0</ele><time>2026-05-01T13:15:22Z</time></trkpt><trkpt lat="43.71117664876522" lon="12.614089773507866"><ele>418.0</ele><time>2026-05-01T13:15:23Z</time></trkpt><trkpt lat="43.71130881479752" lon="12.614127777258417"><ele>418.0</ele><time>2026-05-01T13:15:24Z</time></trkpt><trkpt lat="43.71141967178273" lon="12.614199279475695"><ele>418.5</ele><time>2026-05-01T13:15:25Z</time></trkpt><trkpt lat="43.711509492819005" lon="12.61430297620367"><ele>419.0</ele><time>2026-05-01T13:15:26Z</time></trkpt><trkpt lat="43.71158615640459" lon="12.614421091204886"><ele>419.5</ele><time>2026-05-01T13:15:27Z</time></trkpt><trkpt lat="43.711636966936325" lon="12.614567520131676"><ele>420.0</ele><time>2026-05-01T13:15:28Z</time></trkpt><trkpt lat="43.71167505072941" lon="12.614717511635115"><ele>420.5</ele><time>2026-05-01T13:15:29Z</time></trkpt><trkpt lat="43.7117271180616" lon="12.614863517238696"><ele>421.0</ele><time>2026-05-01T13:15:30Z</time></trkpt><trkpt lat="43.7118012616823" lon="12.615004442825956"><ele>421.5</ele><time>2026-05-01T13:15:31Z</time></trkpt><trkpt lat="43.71189700161364" lon="12.615121221584507"><ele>422.0</ele><time>2026-05-01T13:15:32Z</time></trkpt><trkpt lat="43.712003629570816" lon="12.61521830231922"><ele>422.0</ele><time>2026-05-01T13:15:33Z</time></trkpt><trkpt lat="43.71211549540448" lon="12.615308083786886"><ele>422.0</ele><time>2026-05-01T13:15:34Z</time></trkpt><trkpt lat="43.71223076386856" lon="12.615391742730552"><ele>422.0</ele><time>2026-05-01T13:15:35Z</time></trkpt><trkpt lat="43.712353422835676" lon="12.61547185111048"><ele>422.0</ele><time>2026-05-01T13:15:36Z</time></trkpt><trkpt lat="43.71247933762213" lon="12.615549920558443"><ele>422.0</ele><time>2026-05-01T13:15:37Z</time></trkpt><trkpt lat="43.712598498858284" lon="12.615646188940607"><ele>422.0</ele><time>2026-05-01T13:15:38Z</time></trkpt><trkpt lat="43.71268827690785" lon="12.615781047079915"><ele>422.0</ele><time>2026-05-01T13:15:39Z</time></trkpt><trkpt lat="43.71273784041973" lon="12.61595709612827"><ele>422.0</ele><time>2026-05-01T13:15:40Z</time></trkpt><trkpt lat="43.71275243586421" lon="12.616155166910497"><ele>424.0</ele><time>2026-05-01T13:15:41Z</time></trkpt><trkpt lat="43.71276182939502" lon="12.616363188994653"><ele>426.0</ele><time>2026-05-01T13:15:42Z</time></trkpt><trkpt lat="43.71277977155471" lon="12.616571872843773"><ele>428.0</ele><time>2026-05-01T13:15:43Z</time></trkpt><trkpt lat="43.71280766317388" lon="12.6167866737073"><ele>429.0</ele><time>2026-05-01T13:15:44Z</time></trkpt><trkpt lat="43.712854175570264" lon="12.616997067982748"><ele>430.0</ele><time>2026-05-01T13:15:45Z</time></trkpt><trkpt lat="43.71291169783858" lon="12.617206541608201"><ele>431.0</ele><time>2026-05-01T13:15:46Z</time></trkpt><trkpt lat="43.71296597598733" lon="12.617408714385332"><ele>431.0</ele><time>2026-05-01T13:15:47Z</time></trkpt><trkpt lat="43.71299350218091" lon="12.617611142317687"><ele>431.0</ele><time>2026-05-01T13:15:48Z</time></trkpt><trkpt lat="43.71298489162194" lon="12.617817713432187"><ele>431.0</ele><time>2026-05-01T13:15:49Z</time></trkpt><trkpt lat="43.712950174658566" lon="12.618028179880413"><ele>432.66666666666663</ele><time>2026-05-01T13:15:50Z</time></trkpt><trkpt lat="43.712886928309786" lon="12.618228401381874"><ele>434.33333333333337</ele><time>2026-05-01T13:15:51Z</time></trkpt><trkpt lat="43.71282076995532" lon="12.618426881675232"><ele>436.0</ele><time>2026-05-01T13:15:52Z</time></trkpt><trkpt lat="43.712757054140475" lon="12.618628668104707"><ele>436.5</ele><time>2026-05-01T13:15:53Z</time></trkpt><trkpt lat="43.71270909458428" lon="12.61881478536938"><ele>437.0</ele><time>2026-05-01T13:15:54Z</time></trkpt><trkpt lat="43.71269085813318" lon="12.618999453443768"><ele>437.5</ele><time>2026-05-01T13:15:55Z</time></trkpt><trkpt lat="43.71272425407207" lon="12.619185848395963"><ele>438.0</ele><time>2026-05-01T13:15:56Z</time></trkpt><trkpt lat="43.71279155535259" lon="12.619368345276808"><ele>435.33333333333337</ele><time>2026-05-01T13:15:57Z</time></trkpt><trkpt lat="43.712877871103444" lon="12.61954378623082"><ele>432.6666666666667</ele><time>2026-05-01T13:15:58Z</time></trkpt><trkpt lat="43.71298047175438" lon="12.61970622012261"><ele>430.0</ele><time>2026-05-01T13:15:59Z</time></trkpt><trkpt lat="43.713102060584504" lon="12.619846945201054"><ele>430.0</ele><time>2026-05-01T13:16:00Z</time></trkpt><trkpt lat="43.7132306177511" lon="12.619976915017952"><ele>430.0</ele><time>2026-05-01T13:16:01Z</time></trkpt><trkpt lat="43.713339862210184" lon="12.620129935151805"><ele>430.0</ele><time>2026-05-01T13:16:02Z</time></trkpt><trkpt lat="43.71340817347688" lon="12.620322905089045"><ele>430.0</ele><time>2026-05-01T13:16:03Z</time></trkpt><trkpt lat="43.71343418666224" lon="12.620525821290787"><ele>430.0</ele><time>2026-05-01T13:16:04Z</time></trkpt><trkpt lat="43.71345943030254" lon="12.620703541681252"><ele>430.0</ele><time>2026-05-01T13:16:05Z</time></trkpt><trkpt lat="43.71352543653627" lon="12.620844942562016"><ele>430.0</ele><time>2026-05-01T13:16:06Z</time></trkpt><trkpt lat="43.71363588349709" lon="12.62094919714214"><ele>430.0</ele><time>2026-05-01T13:16:07Z</time></trkpt><trkpt lat="43.713766415836766" lon="12.621016242096466"><ele>430.0</ele><time>2026-05-01T13:16:08Z</time></trkpt><trkpt lat="43.713901166517836" lon="12.621079574674583"><ele>430.0</ele><time>2026-05-01T13:16:09Z</time></trkpt><trkpt lat="43.714018243768805" lon="12.621161795911304"><ele>430.0</ele><time>2026-05-01T13:16:10Z</time></trkpt><trkpt lat="43.714093942419765" lon="12.621268752232112"><ele>429.5</ele><time>2026-05-01T13:16:11Z</time></trkpt><trkpt lat="43.714112801714194" lon="12.621403172488725"><ele>429.0</ele><time>2026-05-01T13:16:12Z</time></trkpt><trkpt lat="43.714077682572864" lon="12.621549974004136"><ele>428.5</ele><time>2026-05-01T13:16:13Z</time></trkpt><trkpt lat="43.714009201080074" lon="12.621692406756411"><ele>428.0</ele><time>2026-05-01T13:16:14Z</time></trkpt><trkpt lat="43.71392920614644" lon="12.621837215627664"><ele>429.25</ele><time>2026-05-01T13:16:15Z</time></trkpt><trkpt lat="43.713847073600334" lon="12.621988449411829"><ele>430.5</ele><time>2026-05-01T13:16:16Z</time></trkpt><trkpt lat="43.713761482587486" lon="12.622146620865523"><ele>431.75</ele><time>2026-05-01T13:16:17Z</time></trkpt><trkpt lat="43.713674552401535" lon="12.622306744075324"><ele>433.0</ele><time>2026-05-01T13:16:18Z</time></trkpt><trkpt lat="43.71359322582052" lon="12.622472960075584"><ele>429.75</ele><time>2026-05-01T13:16:19Z</time></trkpt><trkpt lat="43.713528793552655" lon="12.622655608514927"><ele>426.5</ele><time>2026-05-01T13:16:20Z</time></trkpt><trkpt lat="43.71347709204037" lon="12.622846819374708"><ele>423.25</ele><time>2026-05-01T13:16:21Z</time></trkpt><trkpt lat="43.7134345072714" lon="12.623025050467476"><ele>420.0</ele><time>2026-05-01T13:16:22Z</time></trkpt><trkpt lat="43.713395152821334" lon="12.623190795705197"><ele>420.0</ele><time>2026-05-01T13:16:23Z</time></trkpt><trkpt lat="43.713366665482894" lon="12.623346413906733"><ele>420.0</ele><time>2026-05-01T13:16:24Z</time></trkpt><trkpt lat="43.71334845740333" lon="12.623494197295104"><ele>420.0</ele><time>2026-05-01T13:16:25Z</time></trkpt><trkpt lat="43.713363723829794" lon="12.623640852607306"><ele>420.0</ele><time>2026-05-01T13:16:26Z</time></trkpt><trkpt lat="43.71340436138168" lon="12.623786257632862"><ele>420.0</ele><time>2026-05-01T13:16:27Z</time></trkpt><trkpt lat="43.71347980594867" lon="12.623916753266851"><ele>419.25</ele><time>2026-05-01T13:16:28Z</time></trkpt><trkpt lat="43.71356907279776" lon="12.624038143245432"><ele>418.5</ele><time>2026-05-01T13:16:29Z</time></trkpt><trkpt lat="43.71365910419516" lon="12.624164655513551"><ele>417.75</ele><time>2026-05-01T13:16:30Z</time></trkpt><trkpt lat="43.71374949843663" lon="12.624298813090162"><ele>417.0</ele><time>2026-05-01T13:16:31Z</time></trkpt><trkpt lat="43.71384345105218" lon="12.624432886189727"><ele>417.0</ele><time>2026-05-01T13:16:32Z</time></trkpt><trkpt lat="43.713938401243524" lon="12.624573280492445"><ele>417.0</ele><time>2026-05-01T13:16:33Z</time></trkpt><trkpt lat="43.71404128576763" lon="12.624710468790033"><ele>417.0</ele><time>2026-05-01T13:16:34Z</time></trkpt><trkpt lat="43.71415274971234" lon="12.624838817120015"><ele>417.0</ele><time>2026-05-01T13:16:35Z</time></trkpt><trkpt lat="43.714276384122805" lon="12.6249473438194"><ele>417.0</ele><time>2026-05-01T13:16:36Z</time></trkpt><trkpt lat="43.71440074120417" lon="12.62504555118828"><ele>417.0</ele><time>2026-05-01T13:16:37Z</time></trkpt><trkpt lat="43.714528887654566" lon="12.625149913900723"><ele>417.0</ele><time>2026-05-01T13:16:38Z</time></trkpt><trkpt lat="43.71465691558683" lon="12.625255822388045"><ele>417.0</ele><time>2026-05-01T13:16:39Z</time></trkpt><trkpt lat="43.7147805219724" lon="12.625361886449369"><ele>416.5</ele><time>2026-05-01T13:16:40Z</time></trkpt><trkpt lat="43.71489752687835" lon="12.62546243148534"><ele>416.0</ele><time>2026-05-01T13:16:41Z</time></trkpt><trkpt lat="43.715007820212485" lon="12.625554577833258"><ele>415.5</ele><time>2026-05-01T13:16:42Z</time></trkpt><trkpt lat="43.7151130821402" lon="12.625624322010738"><ele>415.0</ele><time>2026-05-01T13:16:43Z</time></trkpt><trkpt lat="43.715230665976364" lon="12.62563907304124"><ele>414.0</ele><time>2026-05-01T13:16:44Z</time></trkpt><trkpt lat="43.715350527987404" lon="12.625596445101511"><ele>413.0</ele><time>2026-05-01T13:16:45Z</time></trkpt><trkpt lat="43.7154650436418" lon="12.6255156798337"><ele>412.0</ele><time>2026-05-01T13:16:46Z</time></trkpt><trkpt lat="43.71558382215925" lon="12.625450712903099"><ele>411.0</ele><time>2026-05-01T13:16:47Z</time></trkpt><trkpt lat="43.71571439943118" lon="12.625415267077962"><ele>411.0</ele><time>2026-05-01T13:16:48Z</time></trkpt><trkpt lat="43.71585230731078" lon="12.62541367852157"><ele>411.0</ele><time>2026-05-01T13:16:49Z</time></trkpt><trkpt lat="43.7159917150326" lon="12.625434200646177"><ele>411.0</ele><time>2026-05-01T13:16:50Z</time></trkpt><trkpt lat="43.71612920853414" lon="12.625472953727702"><ele>411.0</ele><time>2026-05-01T13:16:51Z</time></trkpt><trkpt lat="43.71626297057817" lon="12.625519029178452"><ele>413.25</ele><time>2026-05-01T13:16:52Z</time></trkpt><trkpt lat="43.71638850333617" lon="12.625594896597137"><ele>415.5</ele><time>2026-05-01T13:16:53Z</time></trkpt><trkpt lat="43.71649026327734" lon="12.625717154092385"><ele>417.75</ele><time>2026-05-01T13:16:54Z</time></trkpt><trkpt lat="43.716576767311565" lon="12.625860042960067"><ele>420.0</ele><time>2026-05-01T13:16:55Z</time></trkpt><trkpt lat="43.716641255779884" lon="12.626032074332468"><ele>418.5</ele><time>2026-05-01T13:16:56Z</time></trkpt><trkpt lat="43.716695163920114" lon="12.626209486956434"><ele>417.0</ele><time>2026-05-01T13:16:57Z</time></trkpt><trkpt lat="43.71676080209788" lon="12.626382629026207"><ele>415.5</ele><time>2026-05-01T13:16:58Z</time></trkpt><trkpt lat="43.716843513324356" lon="12.626549087560932"><ele>414.0</ele><time>2026-05-01T13:16:59Z</time></trkpt><trkpt lat="43.71694473442484" lon="12.62669974530256"><ele>417.66666666666663</ele><time>2026-05-01T13:17:00Z</time></trkpt><trkpt lat="43.71706464609386" lon="12.62682389124739"><ele>421.3333333333333</ele><time>2026-05-01T13:17:01Z</time></trkpt><trkpt lat="43.717202184545755" lon="12.626916003727745"><ele>425.0</ele><time>2026-05-01T13:17:02Z</time></trkpt><trkpt lat="43.717339943642884" lon="12.627006806018072"><ele>425.0</ele><time>2026-05-01T13:17:03Z</time></trkpt><trkpt lat="43.71746249387706" lon="12.62712582319407"><ele>425.0</ele><time>2026-05-01T13:17:04Z</time></trkpt><trkpt lat="43.717565007119774" lon="12.6272923998185"><ele>425.0</ele><time>2026-05-01T13:17:05Z</time></trkpt><trkpt lat="43.71765461134549" lon="12.627467225620792"><ele>427.0</ele><time>2026-05-01T13:17:06Z</time></trkpt><trkpt lat="43.71774995679721" lon="12.627632438755786"><ele>429.0</ele><time>2026-05-01T13:17:07Z</time></trkpt><trkpt lat="43.7178489444044" lon="12.627796086484192"><ele>431.0</ele><time>2026-05-01T13:17:08Z</time></trkpt><trkpt lat="43.71795159566336" lon="12.627953960706757"><ele>431.0</ele><time>2026-05-01T13:17:09Z</time></trkpt><trkpt lat="43.71806321457392" lon="12.628101933896055"><ele>431.0</ele><time>2026-05-01T13:17:10Z</time></trkpt><trkpt lat="43.718190619479365" lon="12.62822562434832"><ele>431.0</ele><time>2026-05-01T13:17:11Z</time></trkpt><trkpt lat="43.71832911127109" lon="12.628323123299824"><ele>431.0</ele><time>2026-05-01T13:17:12Z</time></trkpt><trkpt lat="43.71846333122218" lon="12.628404754812072"><ele>431.0</ele><time>2026-05-01T13:17:13Z</time></trkpt><trkpt lat="43.71859266431428" lon="12.628468114383473"><ele>431.0</ele><time>2026-05-01T13:17:14Z</time></trkpt><trkpt lat="43.71872430757769" lon="12.628518161741436"><ele>431.0</ele><time>2026-05-01T13:17:15Z</time></trkpt><trkpt lat="43.71886317622814" lon="12.62852541547737"><ele>431.0</ele><time>2026-05-01T13:17:16Z</time></trkpt><trkpt lat="43.71900656020854" lon="12.628487737029085"><ele>431.0</ele><time>2026-05-01T13:17:17Z</time></trkpt><trkpt lat="43.71914861155017" lon="12.628417774644536"><ele>431.0</ele><time>2026-05-01T13:17:18Z</time></trkpt><trkpt lat="43.719288731587596" lon="12.6283432618959"><ele>431.0</ele><time>2026-05-01T13:17:19Z</time></trkpt><trkpt lat="43.71944005728186" lon="12.628317681064603"><ele>431.0</ele><time>2026-05-01T13:17:20Z</time></trkpt><trkpt lat="43.71959457716735" lon="12.628364218452312"><ele>431.0</ele><time>2026-05-01T13:17:21Z</time></trkpt><trkpt lat="43.71974345975824" lon="12.628444196951211"><ele>431.0</ele><time>2026-05-01T13:17:22Z</time></trkpt><trkpt lat="43.719892793833324" lon="12.628515580716126"><ele>431.0</ele><time>2026-05-01T13:17:23Z</time></trkpt><trkpt lat="43.72004903101842" lon="12.628574792355382"><ele>431.0</ele><time>2026-05-01T13:17:24Z</time></trkpt><trkpt lat="43.72019200602918" lon="12.628657054516573"><ele>431.0</ele><time>2026-05-01T13:17:25Z</time></trkpt><trkpt lat="43.72032199584082" lon="12.628755690514582"><ele>428.0</ele><time>2026-05-01T13:17:26Z</time></trkpt><trkpt lat="43.72044218658226" lon="12.628852145313255"><ele>425.0</ele><time>2026-05-01T13:17:27Z</time></trkpt><trkpt lat="43.72055917855522" lon="12.628943767927442"><ele>422.0</ele><time>2026-05-01T13:17:28Z</time></trkpt><trkpt lat="43.720669815082836" lon="12.629031081944095"><ele>419.0</ele><time>2026-05-01T13:17:29Z</time></trkpt><trkpt lat="43.720780811298944" lon="12.629115686556823"><ele>419.0</ele><time>2026-05-01T13:17:30Z</time></trkpt><trkpt lat="43.720894815112366" lon="12.629201849663751"><ele>419.0</ele><time>2026-05-01T13:17:31Z</time></trkpt><trkpt lat="43.72100124601076" lon="12.629308246767641"><ele>419.0</ele><time>2026-05-01T13:17:32Z</time></trkpt><trkpt lat="43.72108706684648" lon="12.629462391995101"><ele>419.0</ele><time>2026-05-01T13:17:33Z</time></trkpt><trkpt lat="43.72115106245235" lon="12.62964037708245"><ele>421.25</ele><time>2026-05-01T13:17:34Z</time></trkpt><trkpt lat="43.72121095585137" lon="12.629825927500207"><ele>423.5</ele><time>2026-05-01T13:17:35Z</time></trkpt><trkpt lat="43.72126967568243" lon="12.630016089415085"><ele>425.75</ele><time>2026-05-01T13:17:36Z</time></trkpt><trkpt lat="43.721325329893425" lon="12.630212160321355"><ele>428.0</ele><time>2026-05-01T13:17:37Z</time></trkpt><trkpt lat="43.72137229840778" lon="12.630418218916981"><ele>428.0</ele><time>2026-05-01T13:17:38Z</time></trkpt><trkpt lat="43.721410928351936" lon="12.630621619165014"><ele>428.0</ele><time>2026-05-01T13:17:39Z</time></trkpt><trkpt lat="43.7214445638005" lon="12.630825028319139"><ele>428.0</ele><time>2026-05-01T13:17:40Z</time></trkpt><trkpt lat="43.72149240558898" lon="12.63102362247497"><ele>422.66666666666663</ele><time>2026-05-01T13:17:41Z</time></trkpt><trkpt lat="43.72156724617536" lon="12.631207603599291"><ele>417.33333333333337</ele><time>2026-05-01T13:17:42Z</time></trkpt><trkpt lat="43.721648014121115" lon="12.631387105534303"><ele>412.0</ele><time>2026-05-01T13:17:43Z</time></trkpt><trkpt lat="43.72174028120533" lon="12.631564021709119"><ele>412.0</ele><time>2026-05-01T13:17:44Z</time></trkpt><trkpt lat="43.721835232928576" lon="12.63174676440237"><ele>412.0</ele><time>2026-05-01T13:17:45Z</time></trkpt><trkpt lat="43.7219241825622" lon="12.631912649844308"><ele>412.0</ele><time>2026-05-01T13:17:46Z</time></trkpt><trkpt lat="43.722023186231894" lon="12.632056790538613"><ele>410.0</ele><time>2026-05-01T13:17:47Z</time></trkpt><trkpt lat="43.72213046229981" lon="12.632181001091372"><ele>408.0</ele><time>2026-05-01T13:17:48Z</time></trkpt><trkpt lat="43.722247366639856" lon="12.632266812650657"><ele>406.0</ele><time>2026-05-01T13:17:49Z</time></trkpt><trkpt lat="43.72237426980757" lon="12.632319011729507"><ele>404.0</ele><time>2026-05-01T13:17:50Z</time></trkpt><trkpt lat="43.72250736144609" lon="12.63234661751721"><ele>404.0</ele><time>2026-05-01T13:17:51Z</time></trkpt><trkpt lat="43.722645792531765" lon="12.632353345569824"><ele>404.0</ele><time>2026-05-01T13:17:52Z</time></trkpt><trkpt lat="43.72278468738252" lon="12.632348287078438"><ele>404.0</ele><time>2026-05-01T13:17:53Z</time></trkpt><trkpt lat="43.72291908465006" lon="12.632369986866276"><ele>404.0</ele><time>2026-05-01T13:17:54Z</time></trkpt><trkpt lat="43.72303779120023" lon="12.632436298411234"><ele>405.75</ele><time>2026-05-01T13:17:55Z</time></trkpt><trkpt lat="43.7231228113091" lon="12.632551835463325"><ele>407.5</ele><time>2026-05-01T13:17:56Z</time></trkpt><trkpt lat="43.723176630226625" lon="12.632697595261261"><ele>409.25</ele><time>2026-05-01T13:17:57Z</time></trkpt><trkpt lat="43.72319750305512" lon="12.632861141973677"><ele>411.0</ele><time>2026-05-01T13:17:58Z</time></trkpt><trkpt lat="43.72322818926072" lon="12.633021615014362"><ele>411.0</ele><time>2026-05-01T13:17:59Z</time></trkpt><trkpt lat="43.72326278065368" lon="12.633176573006985"><ele>411.0</ele><time>2026-05-01T13:18:00Z</time></trkpt><trkpt lat="43.723301953060606" lon="12.633336955233892"><ele>411.0</ele><time>2026-05-01T13:18:01Z</time></trkpt><trkpt lat="43.72334540270148" lon="12.633494038765662"><ele>411.0</ele><time>2026-05-01T13:18:02Z</time></trkpt><trkpt lat="43.723400533330256" lon="12.633643698471817"><ele>412.20000000000005</ele><time>2026-05-01T13:18:03Z</time></trkpt><trkpt lat="43.72347214701956" lon="12.633773730003407"><ele>413.40000000000003</ele><time>2026-05-01T13:18:04Z</time></trkpt><trkpt lat="43.72354248462268" lon="12.633892331805471"><ele>414.6</ele><time>2026-05-01T13:18:05Z</time></trkpt><trkpt lat="43.723600007747365" lon="12.634004093267613"><ele>415.8</ele><time>2026-05-01T13:18:06Z</time></trkpt><trkpt lat="43.72363602548102" lon="12.6341332264072"><ele>417.0</ele><time>2026-05-01T13:18:07Z</time></trkpt><trkpt lat="43.72362987994556" lon="12.634265294811964"><ele>417.0</ele><time>2026-05-01T13:18:08Z</time></trkpt><trkpt lat="43.72359826515304" lon="12.634395580886343"><ele>417.0</ele><time>2026-05-01T13:18:09Z</time></trkpt><trkpt lat="43.723556757604605" lon="12.63453016417325"><ele>417.0</ele><time>2026-05-01T13:18:10Z</time></trkpt><trkpt lat="43.72352225659127" lon="12.634665342642176"><ele>417.0</ele><time>2026-05-01T13:18:11Z</time></trkpt><trkpt lat="43.723491192604264" lon="12.634813020698871"><ele>417.0</ele><time>2026-05-01T13:18:12Z</time></trkpt><trkpt lat="43.723457954490016" lon="12.634951974468024"><ele>415.6</ele><time>2026-05-01T13:18:13Z</time></trkpt><trkpt lat="43.7234088468817" lon="12.635068011035633"><ele>414.20000000000005</ele><time>2026-05-01T13:18:14Z</time></trkpt><trkpt lat="43.723337817062195" lon="12.635118743741058"><ele>412.8</ele><time>2026-05-01T13:18:15Z</time></trkpt><trkpt lat="43.723240477813235" lon="12.635111104825453"><ele>411.4</ele><time>2026-05-01T13:18:16Z</time></trkpt><trkpt lat="43.72313624037447" lon="12.635091670467153"><ele>410.0</ele><time>2026-05-01T13:18:17Z</time></trkpt><trkpt lat="43.723024581629865" lon="12.635090173039789"><ele>410.0</ele><time>2026-05-01T13:18:18Z</time></trkpt><trkpt lat="43.722906750318536" lon="12.635114764440415"><ele>410.0</ele><time>2026-05-01T13:18:19Z</time></trkpt><trkpt lat="43.72279429326356" lon="12.635168052234983"><ele>410.0</ele><time>2026-05-01T13:18:20Z</time></trkpt><trkpt lat="43.72268554333704" lon="12.635235637260763"><ele>410.0</ele><time>2026-05-01T13:18:21Z</time></trkpt><trkpt lat="43.722582943059315" lon="12.635304549083093"><ele>415.6</ele><time>2026-05-01T13:18:22Z</time></trkpt><trkpt lat="43.72248175836156" lon="12.635366712352745"><ele>421.2</ele><time>2026-05-01T13:18:23Z</time></trkpt><trkpt lat="43.72237893184354" lon="12.635419293078716"><ele>426.79999999999995</ele><time>2026-05-01T13:18:24Z</time></trkpt><trkpt lat="43.72227079782505" lon="12.6354553886659"><ele>432.4</ele><time>2026-05-01T13:18:25Z</time></trkpt><trkpt lat="43.72217204327904" lon="12.635481121303238"><ele>438.0</ele><time>2026-05-01T13:18:26Z</time></trkpt><trkpt lat="43.72208194314267" lon="12.63549494820175"><ele>438.0</ele><time>2026-05-01T13:18:27Z</time></trkpt><trkpt lat="43.72199701054074" lon="12.635502309078422"><ele>438.0</ele><time>2026-05-01T13:18:28Z</time></trkpt><trkpt lat="43.721924817160435" lon="12.635503783148778"><ele>438.0</ele><time>2026-05-01T13:18:29Z</time></trkpt><trkpt lat="43.72184918704371" lon="12.63551280491054"><ele>438.0</ele><time>2026-05-01T13:18:30Z</time></trkpt><trkpt lat="43.72177360009073" lon="12.63555448038123"><ele>438.0</ele><time>2026-05-01T13:18:31Z</time></trkpt><trkpt lat="43.72168804546137" lon="12.63563696619858"><ele>438.0</ele><time>2026-05-01T13:18:32Z</time></trkpt><trkpt lat="43.72159197489911" lon="12.635719555950093"><ele>434.5</ele><time>2026-05-01T13:18:33Z</time></trkpt><trkpt lat="43.72148368084263" lon="12.635798163045"><ele>431.0</ele><time>2026-05-01T13:18:34Z</time></trkpt><trkpt lat="43.72136945350864" lon="12.63587178788935"><ele>427.5</ele><time>2026-05-01T13:18:35Z</time></trkpt><trkpt lat="43.72125679051042" lon="12.635936528095126"><ele>424.0</ele><time>2026-05-01T13:18:36Z</time></trkpt><trkpt lat="43.72115366683046" lon="12.635999612596176"><ele>422.0</ele><time>2026-05-01T13:18:37Z</time></trkpt><trkpt lat="43.72105355555365" lon="12.63606642329612"><ele>420.0</ele><time>2026-05-01T13:18:38Z</time></trkpt><trkpt lat="43.720960233506005" lon="12.636137363329661"><ele>418.0</ele><time>2026-05-01T13:18:39Z</time></trkpt><trkpt lat="43.720873971600085" lon="12.636202208922695"><ele>416.0</ele><time>2026-05-01T13:18:40Z</time></trkpt><trkpt lat="43.720792118602894" lon="12.636255953810787"><ele>414.0</ele><time>2026-05-01T13:18:41Z</time></trkpt><trkpt lat="43.72072909361034" lon="12.636327416874774"><ele>414.0</ele><time>2026-05-01T13:18:42Z</time></trkpt><trkpt lat="43.7206847426413" lon="12.636422626221645"><ele>414.0</ele><time>2026-05-01T13:18:43Z</time></trkpt><trkpt lat="43.720668282398776" lon="12.63653756292401"><ele>414.0</ele><time>2026-05-01T13:18:44Z</time></trkpt><trkpt lat="43.720690747796134" lon="12.636657871743378"><ele>414.0</ele><time>2026-05-01T13:18:45Z</time></trkpt><trkpt lat="43.72074794959223" lon="12.636759241440817"><ele>414.0</ele><time>2026-05-01T13:18:46Z</time></trkpt><trkpt lat="43.72080248815284" lon="12.636864888861965"><ele>414.0</ele><time>2026-05-01T13:18:47Z</time></trkpt><trkpt lat="43.720858373701" lon="12.636978099221198"><ele>412.0</ele><time>2026-05-01T13:18:48Z</time></trkpt><trkpt lat="43.720914738554264" lon="12.637099724686266"><ele>410.0</ele><time>2026-05-01T13:18:49Z</time></trkpt><trkpt lat="43.720978419548125" lon="12.637224804396384"><ele>408.0</ele><time>2026-05-01T13:18:50Z</time></trkpt><trkpt lat="43.72104929150235" lon="12.637362553857347"><ele>406.0</ele><time>2026-05-01T13:18:51Z</time></trkpt><trkpt lat="43.721120473287165" lon="12.637507936841198"><ele>408.25</ele><time>2026-05-01T13:18:52Z</time></trkpt><trkpt lat="43.72118746189041" lon="12.637653980672031"><ele>410.5</ele><time>2026-05-01T13:18:53Z</time></trkpt><trkpt lat="43.72126364557588" lon="12.637792995413863"><ele>412.75</ele><time>2026-05-01T13:18:54Z</time></trkpt><trkpt lat="43.72135490095558" lon="12.63792239534119"><ele>415.0</ele><time>2026-05-01T13:18:55Z</time></trkpt><trkpt lat="43.72145848159327" lon="12.638033471937762"><ele>415.0</ele><time>2026-05-01T13:18:56Z</time></trkpt><trkpt lat="43.7215712107185" lon="12.638130725001792"><ele>415.0</ele><time>2026-05-01T13:18:57Z</time></trkpt><trkpt lat="43.72167889191662" lon="12.638232819078484"><ele>415.0</ele><time>2026-05-01T13:18:58Z</time></trkpt><trkpt lat="43.721788979607176" lon="12.638332883036947"><ele>415.0</ele><time>2026-05-01T13:18:59Z</time></trkpt><trkpt lat="43.721902538370976" lon="12.638424543154624"><ele>412.0</ele><time>2026-05-01T13:19:00Z</time></trkpt><trkpt lat="43.72201749467339" lon="12.638508120422172"><ele>409.0</ele><time>2026-05-01T13:19:01Z</time></trkpt><trkpt lat="43.7221344367754" lon="12.638581957500378"><ele>406.0</ele><time>2026-05-01T13:19:02Z</time></trkpt><trkpt lat="43.72225351258185" lon="12.638658303038477"><ele>403.0</ele><time>2026-05-01T13:19:03Z</time></trkpt><trkpt lat="43.72237333173352" lon="12.638746994887779"><ele>403.0</ele><time>2026-05-01T13:19:04Z</time></trkpt><trkpt lat="43.722483919670005" lon="12.638850531849219"><ele>403.0</ele><time>2026-05-01T13:19:05Z</time></trkpt><trkpt lat="43.72259694126306" lon="12.638955223171518"><ele>403.0</ele><time>2026-05-01T13:19:06Z</time></trkpt><trkpt lat="43.722706699472496" lon="12.639061553290682"><ele>403.0</ele><time>2026-05-01T13:19:07Z</time></trkpt><trkpt lat="43.72281037027604" lon="12.639164803976739"><ele>405.0</ele><time>2026-05-01T13:19:08Z</time></trkpt><trkpt lat="43.72291668354797" lon="12.639257742732246"><ele>407.0</ele><time>2026-05-01T13:19:09Z</time></trkpt><trkpt lat="43.72303107881537" lon="12.639306162361985"><ele>409.0</ele><time>2026-05-01T13:19:10Z</time></trkpt><trkpt lat="43.723153379651215" lon="12.639307696988235"><ele>411.0</ele><time>2026-05-01T13:19:11Z</time></trkpt><trkpt lat="43.72327958076303" lon="12.639272667711955"><ele>411.0</ele><time>2026-05-01T13:19:12Z</time></trkpt><trkpt lat="43.72341212579876" lon="12.639237829430838"><ele>411.0</ele><time>2026-05-01T13:19:13Z</time></trkpt><trkpt lat="43.723553262634006" lon="12.639212778240344"><ele>411.0</ele><time>2026-05-01T13:19:14Z</time></trkpt><trkpt lat="43.72370534312536" lon="12.639213395361327"><ele>411.0</ele><time>2026-05-01T13:19:15Z</time></trkpt><trkpt lat="43.72386157831406" lon="12.63924304638741"><ele>411.33333333333337</ele><time>2026-05-01T13:19:16Z</time></trkpt><trkpt lat="43.72402293977522" lon="12.63927494532898"><ele>411.6666666666667</ele><time>2026-05-01T13:19:17Z</time></trkpt><trkpt lat="43.72418779251162" lon="12.639311491907272"><ele>412.0</ele><time>2026-05-01T13:19:18Z</time></trkpt><trkpt lat="43.72435585789728" lon="12.639359310930976"><ele>413.33333333333337</ele><time>2026-05-01T13:19:19Z</time></trkpt><trkpt lat="43.724515188458774" lon="12.639396357853709"><ele>414.66666666666663</ele><time>2026-05-01T13:19:20Z</time></trkpt><trkpt lat="43.72466822919549" lon="12.639428045020244"><ele>416.0</ele><time>2026-05-01T13:19:21Z</time></trkpt><trkpt lat="43.72481219964919" lon="12.63946093667706"><ele>407.3333333333333</ele><time>2026-05-01T13:19:22Z</time></trkpt><trkpt lat="43.7249539931604" lon="12.639500280897177"><ele>398.66666666666663</ele><time>2026-05-01T13:19:23Z</time></trkpt><trkpt lat="43.725101104337114" lon="12.63955594466299"><ele>390.0</ele><time>2026-05-01T13:19:24Z</time></trkpt><trkpt lat="43.7252436315927" lon="12.63964773201712"><ele>390.0</ele><time>2026-05-01T13:19:25Z</time></trkpt><trkpt lat="43.72536964316804" lon="12.639752790454335"><ele>390.0</ele><time>2026-05-01T13:19:26Z</time></trkpt><trkpt lat="43.725496807899034" lon="12.639832356042652"><ele>390.0</ele><time>2026-05-01T13:19:27Z</time></trkpt><trkpt lat="43.72563694157281" lon="12.639871489860194"><ele>390.0</ele><time>2026-05-01T13:19:28Z</time></trkpt><trkpt lat="43.725779056907534" lon="12.639860866768153"><ele>390.0</ele><time>2026-05-01T13:19:29Z</time></trkpt><trkpt lat="43.72590838714544" lon="12.639806007349017"><ele>390.0</ele><time>2026-05-01T13:19:30Z</time></trkpt><trkpt lat="43.726026025915296" lon="12.639747708411832"><ele>390.0</ele><time>2026-05-01T13:19:31Z</time></trkpt><trkpt lat="43.72613263186284" lon="12.639695243048275"><ele>390.0</ele><time>2026-05-01T13:19:32Z</time></trkpt><trkpt lat="43.7262266055116" lon="12.639675670859239"><ele>388.5</ele><time>2026-05-01T13:19:33Z</time></trkpt><trkpt lat="43.72630271315952" lon="12.63968011109792"><ele>387.0</ele><time>2026-05-01T13:19:34Z</time></trkpt><trkpt lat="43.72640987014839" lon="12.639724957283901"><ele>385.5</ele><time>2026-05-01T13:19:36Z</time></trkpt><trkpt lat="43.72646049245951" lon="12.639779063446065"><ele>384.0</ele><time>2026-05-01T13:19:37Z</time></trkpt><trkpt lat="43.72650550521489" lon="12.639853112784278"><ele>382.5</ele><time>2026-05-01T13:19:38Z</time></trkpt><trkpt lat="43.726537486844286" lon="12.639949297134471"><ele>381.0</ele><time>2026-05-01T13:19:39Z</time></trkpt><trkpt lat="43.726543814763104" lon="12.64006009367583"><ele>381.0</ele><time>2026-05-01T13:19:40Z</time></trkpt><trkpt lat="43.72650808642038" lon="12.640175275427836"><ele>381.0</ele><time>2026-05-01T13:19:41Z</time></trkpt><trkpt lat="43.72644139492389" lon="12.640265064155262"><ele>381.0</ele><time>2026-05-01T13:19:42Z</time></trkpt><trkpt lat="43.72636841930567" lon="12.640337767789699"><ele>381.0</ele><time>2026-05-01T13:19:43Z</time></trkpt><trkpt lat="43.726300881572094" lon="12.640408491648047"><ele>381.0</ele><time>2026-05-01T13:19:44Z</time></trkpt><trkpt lat="43.726233151689804" lon="12.640478993620334"><ele>381.0</ele><time>2026-05-01T13:19:45Z</time></trkpt><trkpt lat="43.726170233453246" lon="12.640556888810762"><ele>380.8333333333333</ele><time>2026-05-01T13:19:46Z</time></trkpt><trkpt lat="43.726112344569465" lon="12.640634020783203"><ele>380.6666666666667</ele><time>2026-05-01T13:19:47Z</time></trkpt><trkpt lat="43.726056707659055" lon="12.640711436809871"><ele>380.5</ele><time>2026-05-01T13:19:48Z</time></trkpt><trkpt lat="43.725994701379605" lon="12.640777580773944"><ele>380.33333333333337</ele><time>2026-05-01T13:19:49Z</time></trkpt><trkpt lat="43.725930738524625" lon="12.640832974518688"><ele>380.1666666666667</ele><time>2026-05-01T13:19:50Z</time></trkpt><trkpt lat="43.72585300547418" lon="12.640879213344164"><ele>380.0</ele><time>2026-05-01T13:19:51Z</time></trkpt><trkpt lat="43.725767012936316" lon="12.640924437725934"><ele>380.0</ele><time>2026-05-01T13:19:52Z</time></trkpt><trkpt lat="43.725696990521584" lon="12.640989902917138"><ele>380.0</ele><time>2026-05-01T13:19:53Z</time></trkpt><trkpt lat="43.72564985090426" lon="12.641080218489043"><ele>380.0</ele><time>2026-05-01T13:19:54Z</time></trkpt><trkpt lat="43.72564521966575" lon="12.641194488017014"><ele>380.0</ele><time>2026-05-01T13:19:55Z</time></trkpt><trkpt lat="43.7256716998405" lon="12.64130556172355"><ele>380.0</ele><time>2026-05-01T13:19:56Z</time></trkpt><trkpt lat="43.7257336282343" lon="12.641394369877393"><ele>380.0</ele><time>2026-05-01T13:19:57Z</time></trkpt><trkpt lat="43.725821375102676" lon="12.641427707342931"><ele>380.4</ele><time>2026-05-01T13:19:58Z</time></trkpt><trkpt lat="43.72591501494798" lon="12.641404877595084"><ele>380.8</ele><time>2026-05-01T13:19:59Z</time></trkpt><trkpt lat="43.72600827633174" lon="12.641355536026838"><ele>381.20000000000005</ele><time>2026-05-01T13:20:00Z</time></trkpt><trkpt lat="43.72611219879221" lon="12.64131438391322"><ele>381.6</ele><time>2026-05-01T13:20:01Z</time></trkpt><trkpt lat="43.72622695686224" lon="12.641307993787066"><ele>382.0</ele><time>2026-05-01T13:20:02Z</time></trkpt><trkpt lat="43.726349608077335" lon="12.641325363578403"><ele>382.0</ele><time>2026-05-01T13:20:03Z</time></trkpt><trkpt lat="43.72648276384868" lon="12.641351100161822"><ele>382.0</ele><time>2026-05-01T13:20:04Z</time></trkpt><trkpt lat="43.72661890763751" lon="12.641380793190576"><ele>382.0</ele><time>2026-05-01T13:20:05Z</time></trkpt><trkpt lat="43.72676371805876" lon="12.641405044446032"><ele>382.0</ele><time>2026-05-01T13:20:06Z</time></trkpt><trkpt lat="43.726908322322686" lon="12.64142814640898"><ele>378.3333333333333</ele><time>2026-05-01T13:20:07Z</time></trkpt><trkpt lat="43.72705487940121" lon="12.641456414768248"><ele>374.6666666666667</ele><time>2026-05-01T13:20:08Z</time></trkpt><trkpt lat="43.72720281701415" lon="12.641492462120144"><ele>371.0</ele><time>2026-05-01T13:20:09Z</time></trkpt><trkpt lat="43.72735231313787" lon="12.641527825973446"><ele>371.0</ele><time>2026-05-01T13:20:10Z</time></trkpt><trkpt lat="43.727502960930764" lon="12.641558349972886"><ele>371.0</ele><time>2026-05-01T13:20:11Z</time></trkpt><trkpt lat="43.72764932181419" lon="12.64158892788936"><ele>371.0</ele><time>2026-05-01T13:20:12Z</time></trkpt><trkpt lat="43.72779187657674" lon="12.641620094334185"><ele>371.0</ele><time>2026-05-01T13:20:13Z</time></trkpt><trkpt lat="43.72792911930274" lon="12.641660793272909"><ele>369.5</ele><time>2026-05-01T13:20:14Z</time></trkpt><trkpt lat="43.72806557747188" lon="12.641714185179168"><ele>368.0</ele><time>2026-05-01T13:20:15Z</time></trkpt><trkpt lat="43.72819105951052" lon="12.64178657294943"><ele>366.5</ele><time>2026-05-01T13:20:16Z</time></trkpt><trkpt lat="43.72830791830991" lon="12.64186762830198"><ele>365.0</ele><time>2026-05-01T13:20:17Z</time></trkpt><trkpt lat="43.728412153620496" lon="12.641943516799309"><ele>363.6</ele><time>2026-05-01T13:20:18Z</time></trkpt><trkpt lat="43.72851215971506" lon="12.642009518232863"><ele>362.2</ele><time>2026-05-01T13:20:19Z</time></trkpt><trkpt lat="43.72860601358578" lon="12.642035723645604"><ele>360.79999999999995</ele><time>2026-05-01T13:20:20Z</time></trkpt><trkpt lat="43.72870119911479" lon="12.641990154714223"><ele>359.4</ele><time>2026-05-01T13:20:21Z</time></trkpt><trkpt lat="43.728776250472606" lon="12.641902637657951"><ele>358.0</ele><time>2026-05-01T13:20:22Z</time></trkpt><trkpt lat="43.72882021156182" lon="12.64177053221846"><ele>358.0</ele><time>2026-05-01T13:20:23Z</time></trkpt><trkpt lat="43.72882338998107" lon="12.641625781575536"><ele>358.0</ele><time>2026-05-01T13:20:24Z</time></trkpt><trkpt lat="43.728767423928076" lon="12.641494244167658"><ele>358.0</ele><time>2026-05-01T13:20:25Z</time></trkpt><trkpt lat="43.72866263485482" lon="12.64140892746064"><ele>358.0</ele><time>2026-05-01T13:20:26Z</time></trkpt><trkpt lat="43.728537542672036" lon="12.641387478853266"><ele>359.75</ele><time>2026-05-01T13:20:27Z</time></trkpt><trkpt lat="43.72840876748899" lon="12.641403589937125"><ele>361.5</ele><time>2026-05-01T13:20:28Z</time></trkpt><trkpt lat="43.728281641185596" lon="12.64140886506062"><ele>363.25</ele><time>2026-05-01T13:20:29Z</time></trkpt><trkpt lat="43.72816086243166" lon="12.641398838661143"><ele>365.0</ele><time>2026-05-01T13:20:30Z</time></trkpt><trkpt lat="43.728051429578585" lon="12.641356243020258"><ele>365.0</ele><time>2026-05-01T13:20:31Z</time></trkpt><trkpt lat="43.7279665095155" lon="12.641263616605281"><ele>365.0</ele><time>2026-05-01T13:20:32Z</time></trkpt><trkpt lat="43.72793291778548" lon="12.641126856833482"><ele>365.0</ele><time>2026-05-01T13:20:33Z</time></trkpt><trkpt lat="43.727952601507795" lon="12.640987924196432"><ele>365.0</ele><time>2026-05-01T13:20:34Z</time></trkpt><trkpt lat="43.72803666641833" lon="12.640874280052445"><ele>365.0</ele><time>2026-05-01T13:20:35Z</time></trkpt><trkpt lat="43.728147698493046" lon="12.640830874163289"><ele>362.5</ele><time>2026-05-01T13:20:36Z</time></trkpt><trkpt lat="43.72827642007319" lon="12.640875665764213"><ele>360.0</ele><time>2026-05-01T13:20:37Z</time></trkpt><trkpt lat="43.72840527556006" lon="12.640948008519967"><ele>357.5</ele><time>2026-05-01T13:20:38Z</time></trkpt><trkpt lat="43.72854180751186" lon="12.641019500674505"><ele>355.0</ele><time>2026-05-01T13:20:39Z</time></trkpt><trkpt lat="43.72868190843569" lon="12.641084711175019"><ele>352.0</ele><time>2026-05-01T13:20:40Z</time></trkpt><trkpt lat="43.728818870971516" lon="12.64111982098071"><ele>349.0</ele><time>2026-05-01T13:20:41Z</time></trkpt><trkpt lat="43.72898238731845" lon="12.641131781385628"><ele>346.0</ele><time>2026-05-01T13:20:42Z</time></trkpt><trkpt lat="43.729179246380674" lon="12.64112097680393"><ele>342.0</ele><time>2026-05-01T13:20:43Z</time></trkpt><trkpt lat="43.72940979116917" lon="12.641102240104786"><ele>338.0</ele><time>2026-05-01T13:20:44Z</time></trkpt><trkpt lat="43.72967042152808" lon="12.641088995069648"><ele>338.0</ele><time>2026-05-01T13:20:45Z</time></trkpt><trkpt lat="43.729941703299346" lon="12.641072727700244"><ele>338.0</ele><time>2026-05-01T13:20:46Z</time></trkpt><trkpt lat="43.73020713849954" lon="12.641052096530121"><ele>335.0</ele><time>2026-05-01T13:20:47Z</time></trkpt><trkpt lat="43.73045821603748" lon="12.641026846791778"><ele>332.0</ele><time>2026-05-01T13:20:48Z</time></trkpt><trkpt lat="43.73069850509362" lon="12.641003839345597"><ele>332.0</ele><time>2026-05-01T13:20:49Z</time></trkpt><trkpt lat="43.73092931585453" lon="12.640978707246292"><ele>332.0</ele><time>2026-05-01T13:20:50Z</time></trkpt><trkpt lat="43.73115277108316" lon="12.640964632923996"><ele>330.33333333333337</ele><time>2026-05-01T13:20:51Z</time></trkpt><trkpt lat="43.731361744812574" lon="12.64094749696074"><ele>328.6666666666667</ele><time>2026-05-01T13:20:52Z</time></trkpt><trkpt lat="43.731561011926004" lon="12.640930373663782"><ele>327.0</ele><time>2026-05-01T13:20:53Z</time></trkpt><trkpt lat="43.731747365406925" lon="12.640941301340627"><ele>326.0</ele><time>2026-05-01T13:20:54Z</time></trkpt><trkpt lat="43.73191833087652" lon="12.641017292237898"><ele>325.0</ele><time>2026-05-01T13:20:55Z</time></trkpt><trkpt lat="43.732080227627385" lon="12.641163952505497"><ele>324.0</ele><time>2026-05-01T13:20:56Z</time></trkpt><trkpt lat="43.73222322680476" lon="12.641361782578729"><ele>324.0</ele><time>2026-05-01T13:20:57Z</time></trkpt><trkpt lat="43.732337767350984" lon="12.641599480914667"><ele>324.0</ele><time>2026-05-01T13:20:58Z</time></trkpt><trkpt lat="43.73245073737846" lon="12.641836359644664"><ele>324.0</ele><time>2026-05-01T13:20:59Z</time></trkpt><trkpt lat="43.73258347057652" lon="12.642059731366249"><ele>322.6666666666667</ele><time>2026-05-01T13:21:00Z</time></trkpt><trkpt lat="43.73272755853643" lon="12.64226761064766"><ele>321.33333333333337</ele><time>2026-05-01T13:21:01Z</time></trkpt><trkpt lat="43.73288088726251" lon="12.642449086967655"><ele>320.0</ele><time>2026-05-01T13:21:02Z</time></trkpt><trkpt lat="43.73303661637728" lon="12.642604816261345"><ele>320.0</ele><time>2026-05-01T13:21:03Z</time></trkpt><trkpt lat="43.733201819998996" lon="12.642730352709199"><ele>320.0</ele><time>2026-05-01T13:21:04Z</time></trkpt><trkpt lat="43.733380419964085" lon="12.642829652819081"><ele>320.0</ele><time>2026-05-01T13:21:05Z</time></trkpt><trkpt lat="43.7335666357754" lon="12.642903163320465"><ele>320.6666666666667</ele><time>2026-05-01T13:21:06Z</time></trkpt><trkpt lat="43.73375641515592" lon="12.642952752391869"><ele>321.3333333333333</ele><time>2026-05-01T13:21:07Z</time></trkpt><trkpt lat="43.73394832909924" lon="12.642985803729827"><ele>322.0</ele><time>2026-05-01T13:21:08Z</time></trkpt><trkpt lat="43.73413263986088" lon="12.643014939678919"><ele>322.0</ele><time>2026-05-01T13:21:09Z</time></trkpt><trkpt lat="43.734307704750464" lon="12.64304431629997"><ele>322.0</ele><time>2026-05-01T13:21:10Z</time></trkpt><trkpt lat="43.73447402082453" lon="12.643072859027187"><ele>322.0</ele><time>2026-05-01T13:21:11Z</time></trkpt><trkpt lat="43.73463221041189" lon="12.643095352258378"><ele>319.25</ele><time>2026-05-01T13:21:12Z</time></trkpt><trkpt lat="43.73477694737772" lon="12.643120675805012"><ele>316.5</ele><time>2026-05-01T13:21:13Z</time></trkpt><trkpt lat="43.73490869979096" lon="12.643138225354264"><ele>313.75</ele><time>2026-05-01T13:21:14Z</time></trkpt><trkpt lat="43.735031429344545" lon="12.643144570196693"><ele>311.0</ele><time>2026-05-01T13:21:15Z</time></trkpt><trkpt lat="43.735143624904985" lon="12.643138128296751"><ele>310.0</ele><time>2026-05-01T13:21:16Z</time></trkpt><trkpt lat="43.73524235505975" lon="12.643127777823667"><ele>309.0</ele><time>2026-05-01T13:21:17Z</time></trkpt><trkpt lat="43.73533626805909" lon="12.64312439788476"><ele>308.0</ele><time>2026-05-01T13:21:18Z</time></trkpt><trkpt lat="43.735434460143686" lon="12.643139673472696"><ele>307.0</ele><time>2026-05-01T13:21:19Z</time></trkpt><trkpt lat="43.73552755510291" lon="12.643163440764985"><ele>306.0</ele><time>2026-05-01T13:21:20Z</time></trkpt><trkpt lat="43.735618010676454" lon="12.643156998982555"><ele>306.0</ele><time>2026-05-01T13:21:21Z</time></trkpt><trkpt lat="43.735714299602186" lon="12.643113595140706"><ele>306.0</ele><time>2026-05-01T13:21:22Z</time></trkpt><trkpt lat="43.73581395553876" lon="12.643058290613924"><ele>306.0</ele><time>2026-05-01T13:21:23Z</time></trkpt><trkpt lat="43.73592259286969" lon="12.643000255985294"><ele>306.0</ele><time>2026-05-01T13:21:24Z</time></trkpt><trkpt lat="43.736039223928636" lon="12.642931460101998"><ele>305.25</ele><time>2026-05-01T13:21:25Z</time></trkpt><trkpt lat="43.73615144345126" lon="12.642853793987538"><ele>304.5</ele><time>2026-05-01T13:21:26Z</time></trkpt><trkpt lat="43.7362638738715" lon="12.642774561594026"><ele>303.75</ele><time>2026-05-01T13:21:27Z</time></trkpt><trkpt lat="43.736382902280354" lon="12.642691809844036"><ele>303.0</ele><time>2026-05-01T13:21:28Z</time></trkpt><trkpt lat="43.7365070302879" lon="12.642623644488216"><ele>305.75</ele><time>2026-05-01T13:21:29Z</time></trkpt><trkpt lat="43.73663679142984" lon="12.642568370130231"><ele>308.5</ele><time>2026-05-01T13:21:30Z</time></trkpt><trkpt lat="43.73677089418055" lon="12.642541590898727"><ele>311.25</ele><time>2026-05-01T13:21:31Z</time></trkpt><trkpt lat="43.736908096221526" lon="12.642545838643093"><ele>314.0</ele><time>2026-05-01T13:21:32Z</time></trkpt><trkpt lat="43.737047789857954" lon="12.642579032147369"><ele>315.25</ele><time>2026-05-01T13:21:33Z</time></trkpt><trkpt lat="43.737187129881185" lon="12.64263347762962"><ele>316.5</ele><time>2026-05-01T13:21:34Z</time></trkpt><trkpt lat="43.7373299782342" lon="12.642690794925398"><ele>317.75</ele><time>2026-05-01T13:21:35Z</time></trkpt><trkpt lat="43.73747230539345" lon="12.642763225541236"><ele>319.0</ele><time>2026-05-01T13:21:36Z</time></trkpt><trkpt lat="43.737618274243594" lon="12.642838297596308"><ele>315.75</ele><time>2026-05-01T13:21:37Z</time></trkpt><trkpt lat="43.73776082884614" lon="12.642914300197193"><ele>312.5</ele><time>2026-05-01T13:21:38Z</time></trkpt><trkpt lat="43.737894733394775" lon="12.642985809765758"><ele>309.25</ele><time>2026-05-01T13:21:39Z</time></trkpt><trkpt lat="43.73801916658889" lon="12.643057038793472"><ele>306.0</ele><time>2026-05-01T13:21:40Z</time></trkpt><trkpt lat="43.73813213378217" lon="12.643142427063447"><ele>306.0</ele><time>2026-05-01T13:21:41Z</time></trkpt><trkpt lat="43.73824198565291" lon="12.64325050105978"><ele>306.0</ele><time>2026-05-01T13:21:42Z</time></trkpt><trkpt lat="43.73836443459443" lon="12.643400896480044"><ele>306.0</ele><time>2026-05-01T13:21:43Z</time></trkpt><trkpt lat="43.7384997810836" lon="12.643588996185636"><ele>310.0</ele><time>2026-05-01T13:21:44Z</time></trkpt><trkpt lat="43.7386515123582" lon="12.643820416692886"><ele>314.0</ele><time>2026-05-01T13:21:45Z</time></trkpt><trkpt lat="43.738803354171665" lon="12.64409236688956"><ele>314.0</ele><time>2026-05-01T13:21:46Z</time></trkpt><trkpt lat="43.73894187656642" lon="12.644352954268815"><ele>314.0</ele><time>2026-05-01T13:21:47Z</time></trkpt><trkpt lat="43.73907294780139" lon="12.644581172678668"><ele>314.0</ele><time>2026-05-01T13:21:48Z</time></trkpt><trkpt lat="43.739198632409746" lon="12.644793426655317"><ele>313.6666666666667</ele><time>2026-05-01T13:21:49Z</time></trkpt><trkpt lat="43.73932764386892" lon="12.64498978964256"><ele>313.3333333333333</ele><time>2026-05-01T13:21:50Z</time></trkpt><trkpt lat="43.73946922293129" lon="12.645169595983951"><ele>313.0</ele><time>2026-05-01T13:21:51Z</time></trkpt><trkpt lat="43.73963692447705" lon="12.645313003626494"><ele>304.3333333333333</ele><time>2026-05-01T13:21:52Z</time></trkpt><trkpt lat="43.73982838190983" lon="12.64540916458604"><ele>295.6666666666667</ele><time>2026-05-01T13:21:53Z</time></trkpt><trkpt lat="43.74003249975887" lon="12.645451888646605"><ele>287.0</ele><time>2026-05-01T13:21:54Z</time></trkpt><trkpt lat="43.74024562674312" lon="12.645457832326063"><ele>287.0</ele><time>2026-05-01T13:21:55Z</time></trkpt><trkpt lat="43.74045627072592" lon="12.645469556122126"><ele>287.0</ele><time>2026-05-01T13:21:56Z</time></trkpt><trkpt lat="43.74066329509878" lon="12.64549045246887"><ele>287.0</ele><time>2026-05-01T13:21:57Z</time></trkpt><trkpt lat="43.74086634628446" lon="12.64551000421272"><ele>289.0</ele><time>2026-05-01T13:21:58Z</time></trkpt><trkpt lat="43.741057077465925" lon="12.645532917815101"><ele>291.0</ele><time>2026-05-01T13:21:59Z</time></trkpt><trkpt lat="43.741241712254" lon="12.645604334074516"><ele>293.0</ele><time>2026-05-01T13:22:00Z</time></trkpt><trkpt lat="43.741423093054685" lon="12.645722418534199"><ele>293.0</ele><time>2026-05-01T13:22:01Z</time></trkpt><trkpt lat="43.741609369661624" lon="12.645852694048472"><ele>293.0</ele><time>2026-05-01T13:22:02Z</time></trkpt><trkpt lat="43.741788605308095" lon="12.64597685353546"><ele>293.0</ele><time>2026-05-01T13:22:03Z</time></trkpt><trkpt lat="43.74196269636106" lon="12.646082538212644"><ele>288.6666666666667</ele><time>2026-05-01T13:22:04Z</time></trkpt><trkpt lat="43.74213860736109" lon="12.646169628836857"><ele>284.3333333333333</ele><time>2026-05-01T13:22:05Z</time></trkpt><trkpt lat="43.7423298952877" lon="12.646214701108281"><ele>280.0</ele><time>2026-05-01T13:22:06Z</time></trkpt><trkpt lat="43.74253021669176" lon="12.646219323955144"><ele>279.0</ele><time>2026-05-01T13:22:07Z</time></trkpt><trkpt lat="43.74273394186861" lon="12.64619685927897"><ele>278.0</ele><time>2026-05-01T13:22:08Z</time></trkpt><trkpt lat="43.7429357076448" lon="12.646127916754963"><ele>277.0</ele><time>2026-05-01T13:22:09Z</time></trkpt><trkpt lat="43.74313149676036" lon="12.646038700027148"><ele>280.0</ele><time>2026-05-01T13:22:10Z</time></trkpt><trkpt lat="43.74332186568365" lon="12.645958840636244"><ele>283.0</ele><time>2026-05-01T13:22:11Z</time></trkpt><trkpt lat="43.74350790655486" lon="12.645915997535681"><ele>286.0</ele><time>2026-05-01T13:22:12Z</time></trkpt><trkpt lat="43.74369325530125" lon="12.6459223672389"><ele>287.0</ele><time>2026-05-01T13:22:13Z</time></trkpt><trkpt lat="43.74388373720551" lon="12.645977358427832"><ele>288.0</ele><time>2026-05-01T13:22:14Z</time></trkpt><trkpt lat="43.74407307390502" lon="12.646069146794423"><ele>289.0</ele><time>2026-05-01T13:22:15Z</time></trkpt><trkpt lat="43.74426217455687" lon="12.646177342619644"><ele>285.3333333333333</ele><time>2026-05-01T13:22:16Z</time></trkpt><trkpt lat="43.744454971887684" lon="12.646282942129291"><ele>281.6666666666667</ele><time>2026-05-01T13:22:17Z</time></trkpt><trkpt lat="43.744642958265416" lon="12.646381924556927"><ele>278.0</ele><time>2026-05-01T13:22:18Z</time></trkpt><trkpt lat="43.74482457546254" lon="12.646468570993985"><ele>278.0</ele><time>2026-05-01T13:22:19Z</time></trkpt><trkpt lat="43.74499937046618" lon="12.646553022101054"><ele>278.0</ele><time>2026-05-01T13:22:20Z</time></trkpt><trkpt lat="43.745158049892275" lon="12.64667085263304"><ele>278.0</ele><time>2026-05-01T13:22:21Z</time></trkpt><trkpt lat="43.74529120725014" lon="12.646831129716997"><ele>279.6666666666667</ele><time>2026-05-01T13:22:22Z</time></trkpt><trkpt lat="43.745399303351526" lon="12.647036314088496"><ele>281.3333333333333</ele><time>2026-05-01T13:22:23Z</time></trkpt><trkpt lat="43.74545723359512" lon="12.647278118679623"><ele>283.0</ele><time>2026-05-01T13:22:24Z</time></trkpt><trkpt lat="43.745464469354104" lon="12.647540839820444"><ele>281.3333333333333</ele><time>2026-05-01T13:22:25Z</time></trkpt><trkpt lat="43.74544308510172" lon="12.6478108957711"><ele>279.6666666666667</ele><time>2026-05-01T13:22:26Z</time></trkpt><trkpt lat="43.74543208812904" lon="12.648088095672982"><ele>278.0</ele><time>2026-05-01T13:22:27Z</time></trkpt><trkpt lat="43.745453990708725" lon="12.648374171247374"><ele>274.0</ele><time>2026-05-01T13:22:28Z</time></trkpt><trkpt lat="43.74550051728632" lon="12.648654423201116"><ele>270.0</ele><time>2026-05-01T13:22:29Z</time></trkpt><trkpt lat="43.74557282945248" lon="12.648920195081024"><ele>266.0</ele><time>2026-05-01T13:22:30Z</time></trkpt><trkpt lat="43.74566230075458" lon="12.64918020554555"><ele>266.0</ele><time>2026-05-01T13:22:31Z</time></trkpt><trkpt lat="43.745765184659625" lon="12.649424398793188"><ele>266.0</ele><time>2026-05-01T13:22:32Z</time></trkpt><trkpt lat="43.74586571776346" lon="12.649661037800755"><ele>266.0</ele><time>2026-05-01T13:22:33Z</time></trkpt><trkpt lat="43.7459717708384" lon="12.64989747954128"><ele>268.0</ele><time>2026-05-01T13:22:34Z</time></trkpt><trkpt lat="43.746088012714175" lon="12.650129759923464"><ele>270.0</ele><time>2026-05-01T13:22:35Z</time></trkpt><trkpt lat="43.746212496920286" lon="12.650355968054477"><ele>272.0</ele><time>2026-05-01T13:22:36Z</time></trkpt><trkpt lat="43.746346118933886" lon="12.650566441890811"><ele>267.0</ele><time>2026-05-01T13:22:37Z</time></trkpt><trkpt lat="43.74648802387251" lon="12.650770806197585"><ele>262.0</ele><time>2026-05-01T13:22:38Z</time></trkpt><trkpt lat="43.746647608996554" lon="12.650966730154204"><ele>257.0</ele><time>2026-05-01T13:22:39Z</time></trkpt><trkpt lat="43.74682303559886" lon="12.651140423775502"><ele>256.6666666666667</ele><time>2026-05-01T13:22:40Z</time></trkpt><trkpt lat="43.74700536127572" lon="12.651300499023625"><ele>256.3333333333333</ele><time>2026-05-01T13:22:41Z</time></trkpt><trkpt lat="43.7471900706356" lon="12.651475733049635"><ele>256.0</ele><time>2026-05-01T13:22:42Z</time></trkpt><trkpt lat="43.7473740792412" lon="12.65165058611394"><ele>256.0</ele><time>2026-05-01T13:22:43Z</time></trkpt><trkpt lat="43.7475576920618" lon="12.651827515498717"><ele>256.0</ele><time>2026-05-01T13:22:44Z</time></trkpt><trkpt lat="43.7477406695927" lon="12.65200486693025"><ele>256.0</ele><time>2026-05-01T13:22:45Z</time></trkpt><trkpt lat="43.74793087989996" lon="12.652181081340698"><ele>253.33333333333331</ele><time>2026-05-01T13:22:46Z</time></trkpt><trkpt lat="43.74811769210203" lon="12.652349984041031"><ele>250.66666666666669</ele><time>2026-05-01T13:22:47Z</time></trkpt><trkpt lat="43.74830457413946" lon="12.652520019158416"><ele>248.0</ele><time>2026-05-01T13:22:48Z</time></trkpt><trkpt lat="43.74848935997786" lon="12.652694095540497"><ele>246.33333333333334</ele><time>2026-05-01T13:22:49Z</time></trkpt><trkpt lat="43.74866931363564" lon="12.652872410597618"><ele>244.66666666666669</ele><time>2026-05-01T13:22:50Z</time></trkpt><trkpt lat="43.74884284572269" lon="12.653067304048877"><ele>243.0</ele><time>2026-05-01T13:22:51Z</time></trkpt><trkpt lat="43.7490061387919" lon="12.65327503250046"><ele>243.0</ele><time>2026-05-01T13:22:52Z</time></trkpt><trkpt lat="43.74916729591988" lon="12.653483316176299"><ele>243.0</ele><time>2026-05-01T13:22:53Z</time></trkpt><trkpt lat="43.74932584558971" lon="12.653679226220055"><ele>243.0</ele><time>2026-05-01T13:22:54Z</time></trkpt><trkpt lat="43.74947813244834" lon="12.653871559791758"><ele>242.33333333333331</ele><time>2026-05-01T13:22:55Z</time></trkpt><trkpt lat="43.74962548811921" lon="12.654070171380878"><ele>241.66666666666666</ele><time>2026-05-01T13:22:56Z</time></trkpt><trkpt lat="43.749773966570366" lon="12.654265022639223"><ele>241.0</ele><time>2026-05-01T13:22:57Z</time></trkpt><trkpt lat="43.74991814594718" lon="12.654462453095105"><ele>241.33333333333331</ele><time>2026-05-01T13:22:58Z</time></trkpt><trkpt lat="43.75005332000391" lon="12.654674632608812"><ele>241.66666666666669</ele><time>2026-05-01T13:22:59Z</time></trkpt><trkpt lat="43.75017676513988" lon="12.654899324113995"><ele>242.0</ele><time>2026-05-01T13:23:00Z</time></trkpt><trkpt lat="43.75028540083892" lon="12.655135964833152"><ele>239.66666666666669</ele><time>2026-05-01T13:23:01Z</time></trkpt><trkpt lat="43.7503811794659" lon="12.655390693358964"><ele>237.33333333333331</ele><time>2026-05-01T13:23:02Z</time></trkpt><trkpt lat="43.75047885145671" lon="12.655651321719386"><ele>235.0</ele><time>2026-05-01T13:23:03Z</time></trkpt><trkpt lat="43.750578774532066" lon="12.655908599608232"><ele>232.33333333333331</ele><time>2026-05-01T13:23:04Z</time></trkpt><trkpt lat="43.75067555279233" lon="12.656169235656046"><ele>229.66666666666669</ele><time>2026-05-01T13:23:05Z</time></trkpt><trkpt lat="43.75076721718367" lon="12.656412646550605"><ele>227.0</ele><time>2026-05-01T13:23:06Z</time></trkpt><trkpt lat="43.75085638301258" lon="12.656658166743746"><ele>227.0</ele><time>2026-05-01T13:23:07Z</time></trkpt><trkpt lat="43.75094792065605" lon="12.65690305080093"><ele>227.0</ele><time>2026-05-01T13:23:08Z</time></trkpt><trkpt lat="43.75103978205155" lon="12.657150992938755"><ele>227.0</ele><time>2026-05-01T13:23:09Z</time></trkpt><trkpt lat="43.751132928792636" lon="12.65740311917111"><ele>228.33333333333334</ele><time>2026-05-01T13:23:10Z</time></trkpt><trkpt lat="43.75122755328796" lon="12.657653998522568"><ele>229.66666666666669</ele><time>2026-05-01T13:23:11Z</time></trkpt><trkpt lat="43.75131961659506" lon="12.657898075564614"><ele>231.0</ele><time>2026-05-01T13:23:12Z</time></trkpt><trkpt lat="43.75140883132131" lon="12.658125329056231"><ele>227.0</ele><time>2026-05-01T13:23:13Z</time></trkpt><trkpt lat="43.75149779605557" lon="12.658333141323702"><ele>223.0</ele><time>2026-05-01T13:23:14Z</time></trkpt><trkpt lat="43.751583366368884" lon="12.658524807663657"><ele>219.0</ele><time>2026-05-01T13:23:15Z</time></trkpt><trkpt lat="43.75167007383566" lon="12.658704360616582"><ele>217.75</ele><time>2026-05-01T13:23:16Z</time></trkpt><trkpt lat="43.75175267229912" lon="12.65887178792428"><ele>216.5</ele><time>2026-05-01T13:23:17Z</time></trkpt><trkpt lat="43.751830834766515" lon="12.659026718806304"><ele>215.25</ele><time>2026-05-01T13:23:18Z</time></trkpt><trkpt lat="43.751891393348885" lon="12.65916236194768"><ele>214.0</ele><time>2026-05-01T13:23:19Z</time></trkpt><trkpt lat="43.75192831240006" lon="12.659299515038816"><ele>214.6</ele><time>2026-05-01T13:23:20Z</time></trkpt><trkpt lat="43.75194749297176" lon="12.659434694015161"><ele>215.2</ele><time>2026-05-01T13:23:21Z</time></trkpt><trkpt lat="43.75198758774202" lon="12.65955590655578"><ele>215.79999999999998</ele><time>2026-05-01T13:23:22Z</time></trkpt><trkpt lat="43.752071310903716" lon="12.659657791960196"><ele>216.39999999999998</ele><time>2026-05-01T13:23:23Z</time></trkpt><trkpt lat="43.752167841646845" lon="12.659756189605663"><ele>217.0</ele><time>2026-05-01T13:23:24Z</time></trkpt><trkpt lat="43.75226538990349" lon="12.659902768960086"><ele>217.0</ele><time>2026-05-01T13:23:25Z</time></trkpt><trkpt lat="43.7523768747233" lon="12.660078217090334"><ele>217.0</ele><time>2026-05-01T13:23:26Z</time></trkpt><trkpt lat="43.75248811476202" lon="12.660246291246905"><ele>217.0</ele><time>2026-05-01T13:23:27Z</time></trkpt><trkpt lat="43.75259168150209" lon="12.660407886575264"><ele>216.75</ele><time>2026-05-01T13:23:28Z</time></trkpt><trkpt lat="43.75269119512826" lon="12.660559791752153"><ele>216.5</ele><time>2026-05-01T13:23:29Z</time></trkpt><trkpt lat="43.752787176637476" lon="12.660709232570428"><ele>216.25</ele><time>2026-05-01T13:23:30Z</time></trkpt><trkpt lat="43.752881167359924" lon="12.660846526774193"><ele>216.0</ele><time>2026-05-01T13:23:31Z</time></trkpt><trkpt lat="43.752975403965166" lon="12.6609752250326"><ele>216.0</ele><time>2026-05-01T13:23:32Z</time></trkpt><trkpt lat="43.75307043390371" lon="12.661097926790962"><ele>216.0</ele><time>2026-05-01T13:23:33Z</time></trkpt><trkpt lat="43.75316064943862" lon="12.661223813079543"><ele>216.0</ele><time>2026-05-01T13:23:34Z</time></trkpt><trkpt lat="43.75324879669092" lon="12.66137037916846"><ele>216.0</ele><time>2026-05-01T13:23:35Z</time></trkpt><trkpt lat="43.75333767298139" lon="12.66152376555604"><ele>212.5</ele><time>2026-05-01T13:23:36Z</time></trkpt><trkpt lat="43.75342907650219" lon="12.661677379369674"><ele>209.0</ele><time>2026-05-01T13:23:37Z</time></trkpt><trkpt lat="43.75352266726155" lon="12.661837614341895"><ele>205.5</ele><time>2026-05-01T13:23:38Z</time></trkpt><trkpt lat="43.75361621466794" lon="12.662007531672627"><ele>202.0</ele><time>2026-05-01T13:23:39Z</time></trkpt><trkpt lat="43.75371100695924" lon="12.662182526789953"><ele>202.0</ele><time>2026-05-01T13:23:40Z</time></trkpt><trkpt lat="43.753814001179094" lon="12.66235156033537"><ele>202.0</ele><time>2026-05-01T13:23:41Z</time></trkpt><trkpt lat="43.75391263346947" lon="12.662531241735001"><ele>202.0</ele><time>2026-05-01T13:23:42Z</time></trkpt><trkpt lat="43.75400314459079" lon="12.662710885027563"><ele>200.0</ele><time>2026-05-01T13:23:43Z</time></trkpt><trkpt lat="43.75408644793777" lon="12.662887425297836"><ele>198.0</ele><time>2026-05-01T13:23:44Z</time></trkpt><trkpt lat="43.754159672356096" lon="12.663067038433315"><ele>196.0</ele><time>2026-05-01T13:23:45Z</time></trkpt><trkpt lat="43.754228053030175" lon="12.66324595055875"><ele>194.0</ele><time>2026-05-01T13:23:46Z</time></trkpt><trkpt lat="43.75429225514151" lon="12.663417046486575"><ele>194.0</ele><time>2026-05-01T13:23:47Z</time></trkpt><trkpt lat="43.75435768890857" lon="12.66359035568509"><ele>194.0</ele><time>2026-05-01T13:23:48Z</time></trkpt><trkpt lat="43.75442263965948" lon="12.663772031090865"><ele>194.0</ele><time>2026-05-01T13:23:49Z</time></trkpt><trkpt lat="43.75449254320107" lon="12.663954622841983"><ele>194.0</ele><time>2026-05-01T13:23:50Z</time></trkpt><trkpt lat="43.75455941088252" lon="12.664141819219111"><ele>193.0</ele><time>2026-05-01T13:23:51Z</time></trkpt><trkpt lat="43.754620579519866" lon="12.664336404888651"><ele>192.0</ele><time>2026-05-01T13:23:52Z</time></trkpt><trkpt lat="43.75467167306314" lon="12.664535890539359"><ele>191.0</ele><time>2026-05-01T13:23:53Z</time></trkpt><trkpt lat="43.75470881220432" lon="12.664742312133408"><ele>191.0</ele><time>2026-05-01T13:23:54Z</time></trkpt><trkpt lat="43.75473883401819" lon="12.664947015645247"><ele>191.0</ele><time>2026-05-01T13:23:55Z</time></trkpt><trkpt lat="43.754775102032575" lon="12.665148478792066"><ele>191.0</ele><time>2026-05-01T13:23:56Z</time></trkpt><trkpt lat="43.754826361462285" lon="12.665347026376814"><ele>188.0</ele><time>2026-05-01T13:23:57Z</time></trkpt><trkpt lat="43.75489078741108" lon="12.665537435448613"><ele>185.0</ele><time>2026-05-01T13:23:58Z</time></trkpt><trkpt lat="43.754966086563044" lon="12.665718997466998"><ele>182.0</ele><time>2026-05-01T13:23:59Z</time></trkpt><trkpt lat="43.755045435031604" lon="12.66589707518059"><ele>182.0</ele><time>2026-05-01T13:24:00Z</time></trkpt><trkpt lat="43.75513978765387" lon="12.666062495353781"><ele>182.0</ele><time>2026-05-01T13:24:01Z</time></trkpt><trkpt lat="43.755252509166134" lon="12.666203491649473"><ele>182.0</ele><time>2026-05-01T13:24:02Z</time></trkpt><trkpt lat="43.75538151656424" lon="12.666319822979304"><ele>181.33333333333331</ele><time>2026-05-01T13:24:03Z</time></trkpt><trkpt lat="43.75552047161704" lon="12.666419480596728"><ele>180.66666666666666</ele><time>2026-05-01T13:24:04Z</time></trkpt><trkpt lat="43.755663493504194" lon="12.666500130291"><ele>180.0</ele><time>2026-05-01T13:24:05Z</time></trkpt><trkpt lat="43.755799118359285" lon="12.666566659195892"><ele>180.0</ele><time>2026-05-01T13:24:06Z</time></trkpt><trkpt lat="43.75593263695206" lon="12.666624996282437"><ele>180.0</ele><time>2026-05-01T13:24:07Z</time></trkpt><trkpt lat="43.75606238911921" lon="12.666674491438023"><ele>180.0</ele><time>2026-05-01T13:24:08Z</time></trkpt><trkpt lat="43.756186856238536" lon="12.666715751340456"><ele>180.0</ele><time>2026-05-01T13:24:09Z</time></trkpt><trkpt lat="43.756305134300455" lon="12.666751743686863"><ele>179.75</ele><time>2026-05-01T13:24:10Z</time></trkpt><trkpt lat="43.756417899804674" lon="12.666780632552483"><ele>179.5</ele><time>2026-05-01T13:24:11Z</time></trkpt><trkpt lat="43.75652948143772" lon="12.66681143963433"><ele>179.25</ele><time>2026-05-01T13:24:12Z</time></trkpt><trkpt lat="43.75664508727993" lon="12.666845242424332"><ele>179.0</ele><time>2026-05-01T13:24:13Z</time></trkpt><trkpt lat="43.75676491022771" lon="12.666871161383492"><ele>178.0</ele><time>2026-05-01T13:24:14Z</time></trkpt><trkpt lat="43.756890268627814" lon="12.666894729564556"><ele>177.0</ele><time>2026-05-01T13:24:15Z</time></trkpt><trkpt lat="43.7570197259288" lon="12.666913684990243"><ele>176.0</ele><time>2026-05-01T13:24:16Z</time></trkpt><trkpt lat="43.757158966276776" lon="12.666914056227954"><ele>175.0</ele><time>2026-05-01T13:24:17Z</time></trkpt><trkpt lat="43.757298965128264" lon="12.66690427156357"><ele>175.0</ele><time>2026-05-01T13:24:18Z</time></trkpt><trkpt lat="43.75743324713777" lon="12.666890076064359"><ele>175.0</ele><time>2026-05-01T13:24:19Z</time></trkpt><trkpt lat="43.757569862722605" lon="12.666870184851415"><ele>175.0</ele><time>2026-05-01T13:24:20Z</time></trkpt><trkpt lat="43.757706354107356" lon="12.66685831211202"><ele>175.0</ele><time>2026-05-01T13:24:21Z</time></trkpt><trkpt lat="43.75784856701559" lon="12.666866162074331"><ele>174.25</ele><time>2026-05-01T13:24:22Z</time></trkpt><trkpt lat="43.75799168376475" lon="12.66689221652976"><ele>173.5</ele><time>2026-05-01T13:24:23Z</time></trkpt><trkpt lat="43.75813332255494" lon="12.666946987801378"><ele>172.75</ele><time>2026-05-01T13:24:24Z</time></trkpt><trkpt lat="43.75826908203635" lon="12.667040115902886"><ele>172.0</ele><time>2026-05-01T13:24:25Z</time></trkpt><trkpt lat="43.75839014182595" lon="12.667169492133658"><ele>172.0</ele><time>2026-05-01T13:24:26Z</time></trkpt><trkpt lat="43.75850761447155" lon="12.667310532449708"><ele>172.0</ele><time>2026-05-01T13:24:27Z</time></trkpt><trkpt lat="43.75863858577767" lon="12.667438146424463"><ele>172.0</ele><time>2026-05-01T13:24:28Z</time></trkpt><trkpt lat="43.75878475921835" lon="12.667533819578821"><ele>171.33333333333334</ele><time>2026-05-01T13:24:29Z</time></trkpt><trkpt lat="43.758939932721425" lon="12.667591410394806"><ele>170.66666666666666</ele><time>2026-05-01T13:24:30Z</time></trkpt><trkpt lat="43.75910749564927" lon="12.667617092416643"><ele>170.0</ele><time>2026-05-01T13:24:31Z</time></trkpt><trkpt lat="43.75927883076784" lon="12.66763711406451"><ele>172.0</ele><time>2026-05-01T13:24:32Z</time></trkpt><trkpt lat="43.75945146611354" lon="12.667661997454509"><ele>174.0</ele><time>2026-05-01T13:24:33Z</time></trkpt><trkpt lat="43.75962853600475" lon="12.66768542216955"><ele>176.0</ele><time>2026-05-01T13:24:34Z</time></trkpt><trkpt lat="43.75980855985667" lon="12.667704166473289"><ele>176.0</ele><time>2026-05-01T13:24:35Z</time></trkpt><trkpt lat="43.759989490386005" lon="12.667719852812283"><ele>176.0</ele><time>2026-05-01T13:24:36Z</time></trkpt><trkpt lat="43.760169027119595" lon="12.667739068199522"><ele>176.0</ele><time>2026-05-01T13:24:37Z</time></trkpt><trkpt lat="43.76033978726522" lon="12.667760969234733"><ele>174.0</ele><time>2026-05-01T13:24:38Z</time></trkpt><trkpt lat="43.760502557174036" lon="12.66778646762366"><ele>172.0</ele><time>2026-05-01T13:24:39Z</time></trkpt><trkpt lat="43.7606696141743" lon="12.6678219305681"><ele>170.0</ele><time>2026-05-01T13:24:40Z</time></trkpt><trkpt lat="43.76084042490588" lon="12.667873105495454"><ele>170.0</ele><time>2026-05-01T13:24:41Z</time></trkpt><trkpt lat="43.761013885037016" lon="12.667939554701864"><ele>170.0</ele><time>2026-05-01T13:24:42Z</time></trkpt><trkpt lat="43.76118547463584" lon="12.668023743624586"><ele>170.0</ele><time>2026-05-01T13:24:43Z</time></trkpt><trkpt lat="43.76135509261743" lon="12.66812609092387"><ele>169.66666666666666</ele><time>2026-05-01T13:24:44Z</time></trkpt><trkpt lat="43.761519493692866" lon="12.668250405705807"><ele>169.33333333333334</ele><time>2026-05-01T13:24:45Z</time></trkpt><trkpt lat="43.76167340369323" lon="12.668388151535115"><ele>169.0</ele><time>2026-05-01T13:24:46Z</time></trkpt><trkpt lat="43.76181996287688" lon="12.668536623954274"><ele>167.66666666666669</ele><time>2026-05-01T13:24:47Z</time></trkpt><trkpt lat="43.76196234857387" lon="12.66869968133357"><ele>166.33333333333334</ele><time>2026-05-01T13:24:48Z</time></trkpt><trkpt lat="43.762095290529146" lon="12.668868940701675"><ele>165.0</ele><time>2026-05-01T13:24:49Z</time></trkpt><trkpt lat="43.762216618670685" lon="12.669037490731892"><ele>165.0</ele><time>2026-05-01T13:24:50Z</time></trkpt><trkpt lat="43.762339740266135" lon="12.669187951035676"><ele>165.0</ele><time>2026-05-01T13:24:51Z</time></trkpt><trkpt lat="43.76246284838629" lon="12.669322862278564"><ele>165.0</ele><time>2026-05-01T13:24:52Z</time></trkpt><trkpt lat="43.76258664256086" lon="12.669438727321726"><ele>162.33333333333334</ele><time>2026-05-01T13:24:53Z</time></trkpt><trkpt lat="43.762722271602726" lon="12.669522655065666"><ele>159.66666666666669</ele><time>2026-05-01T13:24:54Z</time></trkpt><trkpt lat="43.76287477676542" lon="12.66957799351555"><ele>157.0</ele><time>2026-05-01T13:24:55Z</time></trkpt><trkpt lat="43.763037205952664" lon="12.669620809878978"><ele>157.0</ele><time>2026-05-01T13:24:56Z</time></trkpt><trkpt lat="43.76321086126409" lon="12.669654860208752"><ele>157.0</ele><time>2026-05-01T13:24:57Z</time></trkpt><trkpt lat="43.763390053380355" lon="12.669678402359038"><ele>157.0</ele><time>2026-05-01T13:24:58Z</time></trkpt><trkpt lat="43.763573854132886" lon="12.669703700010826"><ele>157.0</ele><time>2026-05-01T13:24:59Z</time></trkpt><trkpt lat="43.7637546372801" lon="12.669724807768917"><ele>157.0</ele><time>2026-05-01T13:25:00Z</time></trkpt><trkpt lat="43.76392794342539" lon="12.669736929680758"><ele>157.0</ele><time>2026-05-01T13:25:01Z</time></trkpt><trkpt lat="43.76409477317457" lon="12.669741051324083"><ele>157.0</ele><time>2026-05-01T13:25:02Z</time></trkpt><trkpt lat="43.76425072178161" lon="12.66973280665853"><ele>157.0</ele><time>2026-05-01T13:25:03Z</time></trkpt><trkpt lat="43.76439775768214" lon="12.66970899127681"><ele>157.0</ele><time>2026-05-01T13:25:04Z</time></trkpt><trkpt lat="43.7645419520408" lon="12.66967243928219"><ele>157.0</ele><time>2026-05-01T13:25:05Z</time></trkpt><trkpt lat="43.76468359455125" lon="12.66962293761623"><ele>157.0</ele><time>2026-05-01T13:25:06Z</time></trkpt><trkpt lat="43.7648278941255" lon="12.66957095939684"><ele>157.0</ele><time>2026-05-01T13:25:07Z</time></trkpt><trkpt lat="43.76497504237592" lon="12.669524157859977"><ele>157.0</ele><time>2026-05-01T13:25:08Z</time></trkpt><trkpt lat="43.76512109998747" lon="12.669477753428072"><ele>156.75</ele><time>2026-05-01T13:25:09Z</time></trkpt><trkpt lat="43.76526349869571" lon="12.669440366882734"><ele>156.5</ele><time>2026-05-01T13:25:10Z</time></trkpt><trkpt lat="43.765405573132334" lon="12.669419480246615"><ele>156.25</ele><time>2026-05-01T13:25:11Z</time></trkpt><trkpt lat="43.76554986096862" lon="12.669433934714384"><ele>156.0</ele><time>2026-05-01T13:25:12Z</time></trkpt><trkpt lat="43.765696665042384" lon="12.66947622809769"><ele>156.0</ele><time>2026-05-01T13:25:13Z</time></trkpt><trkpt lat="43.76584371381663" lon="12.669560973166222"><ele>156.0</ele><time>2026-05-01T13:25:14Z</time></trkpt><trkpt lat="43.76599793681087" lon="12.669677590679113"><ele>156.0</ele><time>2026-05-01T13:25:15Z</time></trkpt><trkpt lat="43.76616561058749" lon="12.669838766754326"><ele>157.0</ele><time>2026-05-01T13:25:16Z</time></trkpt><trkpt lat="43.76634516220334" lon="12.67002526937517"><ele>158.0</ele><time>2026-05-01T13:25:17Z</time></trkpt><trkpt lat="43.766523274392796" lon="12.670234833891312"><ele>156.33333333333331</ele><time>2026-05-01T13:25:18Z</time></trkpt><trkpt lat="43.76668375574482" lon="12.67043552912079"><ele>154.66666666666666</ele><time>2026-05-01T13:25:19Z</time></trkpt><trkpt lat="43.766839612416426" lon="12.67063644589701"><ele>153.0</ele><time>2026-05-01T13:25:20Z</time></trkpt><trkpt lat="43.76699232127805" lon="12.67082970586263"><ele>153.33333333333334</ele><time>2026-05-01T13:25:21Z</time></trkpt><trkpt lat="43.767127505722975" lon="12.671015848816953"><ele>153.66666666666669</ele><time>2026-05-01T13:25:22Z</time></trkpt><trkpt lat="43.76725443665837" lon="12.6711877876457"><ele>154.0</ele><time>2026-05-01T13:25:23Z</time></trkpt><trkpt lat="43.76738263641824" lon="12.671336301506996"><ele>154.0</ele><time>2026-05-01T13:25:24Z</time></trkpt><trkpt lat="43.76752222072087" lon="12.67147161437746"><ele>154.0</ele><time>2026-05-01T13:25:25Z</time></trkpt><trkpt lat="43.76767396244135" lon="12.671584196138934"><ele>154.0</ele><time>2026-05-01T13:25:26Z</time></trkpt><trkpt lat="43.76783285878423" lon="12.671685536973548"><ele>154.33333333333334</ele><time>2026-05-01T13:25:27Z</time></trkpt><trkpt lat="43.7679901553561" lon="12.671768473470234"><ele>154.66666666666666</ele><time>2026-05-01T13:25:28Z</time></trkpt><trkpt lat="43.76813990887785" lon="12.67184849834149"><ele>155.0</ele><time>2026-05-01T13:25:29Z</time></trkpt><trkpt lat="43.76829274794797" lon="12.671921534751185"><ele>154.33333333333331</ele><time>2026-05-01T13:25:30Z</time></trkpt><trkpt lat="43.76844971293296" lon="12.67199235537837"><ele>153.66666666666666</ele><time>2026-05-01T13:25:31Z</time></trkpt><trkpt lat="43.76860810441612" lon="12.672063762999981"><ele>153.0</ele><time>2026-05-01T13:25:32Z</time></trkpt><trkpt lat="43.768764392192615" lon="12.672131110630547"><ele>152.66666666666666</ele><time>2026-05-01T13:25:33Z</time></trkpt><trkpt lat="43.76891743787901" lon="12.672195958873704"><ele>152.33333333333331</ele><time>2026-05-01T13:25:34Z</time></trkpt><trkpt lat="43.76907251724535" lon="12.67226104855133"><ele>152.0</ele><time>2026-05-01T13:25:35Z</time></trkpt><trkpt lat="43.769235149759815" lon="12.672332666220344"><ele>151.33333333333331</ele><time>2026-05-01T13:25:36Z</time></trkpt><trkpt lat="43.76941330653352" lon="12.672399630911904"><ele>150.66666666666666</ele><time>2026-05-01T13:25:37Z</time></trkpt><trkpt lat="43.7696139936074" lon="12.672471819598162"><ele>150.0</ele><time>2026-05-01T13:25:38Z</time></trkpt><trkpt lat="43.7698219879245" lon="12.672562963626655"><ele>150.0</ele><time>2026-05-01T13:25:39Z</time></trkpt><trkpt lat="43.77002612673227" lon="12.67266272481376"><ele>150.0</ele><time>2026-05-01T13:25:40Z</time></trkpt><trkpt lat="43.770226605784124" lon="12.67275870975192"><ele>150.0</ele><time>2026-05-01T13:25:41Z</time></trkpt><trkpt lat="43.770427479707394" lon="12.672852973493976"><ele>150.0</ele><time>2026-05-01T13:25:42Z</time></trkpt><trkpt lat="43.77063108837685" lon="12.672950272240888"><ele>150.0</ele><time>2026-05-01T13:25:43Z</time></trkpt><trkpt lat="43.770832795799784" lon="12.673042961381237"><ele>150.0</ele><time>2026-05-01T13:25:44Z</time></trkpt><trkpt lat="43.77102406919428" lon="12.673127685676324"><ele>151.33333333333334</ele><time>2026-05-01T13:25:45Z</time></trkpt><trkpt lat="43.77120169249154" lon="12.673213040197199"><ele>152.66666666666669</ele><time>2026-05-01T13:25:46Z</time></trkpt><trkpt lat="43.771370094824924" lon="12.673300046780417"><ele>154.0</ele><time>2026-05-01T13:25:47Z</time></trkpt><trkpt lat="43.771528242635576" lon="12.673388116190301"><ele>154.0</ele><time>2026-05-01T13:25:48Z</time></trkpt><trkpt lat="43.771677020715785" lon="12.673483956194797"><ele>154.0</ele><time>2026-05-01T13:25:49Z</time></trkpt><trkpt lat="43.771814370006965" lon="12.673583129058144"><ele>154.0</ele><time>2026-05-01T13:25:50Z</time></trkpt><trkpt lat="43.771953491565604" lon="12.673677147953399"><ele>151.66666666666669</ele><time>2026-05-01T13:25:51Z</time></trkpt><trkpt lat="43.77209745161971" lon="12.673771587338766"><ele>149.33333333333334</ele><time>2026-05-01T13:25:52Z</time></trkpt><trkpt lat="43.7722435609587" lon="12.67387611972178"><ele>147.0</ele><time>2026-05-01T13:25:53Z</time></trkpt><trkpt lat="43.772395749933" lon="12.673985236732591"><ele>147.0</ele><time>2026-05-01T13:25:54Z</time></trkpt><trkpt lat="43.77254780016149" lon="12.674102563990148"><ele>147.0</ele><time>2026-05-01T13:25:55Z</time></trkpt><trkpt lat="43.77269962803205" lon="12.674215749732177"><ele>147.0</ele><time>2026-05-01T13:25:56Z</time></trkpt><trkpt lat="43.7728430862007" lon="12.674318554524366"><ele>146.75</ele><time>2026-05-01T13:25:57Z</time></trkpt><trkpt lat="43.772981547670355" lon="12.6744265243591"><ele>146.5</ele><time>2026-05-01T13:25:58Z</time></trkpt><trkpt lat="43.773106252250685" lon="12.674535794008307"><ele>146.25</ele><time>2026-05-01T13:25:59Z</time></trkpt><trkpt lat="43.773228301691816" lon="12.674638604415163"><ele>146.0</ele><time>2026-05-01T13:26:00Z</time></trkpt><trkpt lat="43.773352503123235" lon="12.674746387066556"><ele>146.0</ele><time>2026-05-01T13:26:01Z</time></trkpt><trkpt lat="43.77347747901714" lon="12.674864077228344"><ele>146.0</ele><time>2026-05-01T13:26:02Z</time></trkpt><trkpt lat="43.77360049638377" lon="12.674994209699111"><ele>146.0</ele><time>2026-05-01T13:26:03Z</time></trkpt><trkpt lat="43.77371964828222" lon="12.67513907051491"><ele>145.66666666666666</ele><time>2026-05-01T13:26:04Z</time></trkpt><trkpt lat="43.77383789599064" lon="12.675300994209062"><ele>145.33333333333334</ele><time>2026-05-01T13:26:05Z</time></trkpt><trkpt lat="43.773948198799225" lon="12.67547143244909"><ele>145.0</ele><time>2026-05-01T13:26:06Z</time></trkpt><trkpt lat="43.77405627577104" lon="12.675636092415928"><ele>145.0</ele><time>2026-05-01T13:26:07Z</time></trkpt><trkpt lat="43.77416456623027" lon="12.675790062214816"><ele>145.0</ele><time>2026-05-01T13:26:08Z</time></trkpt><trkpt lat="43.774272020515276" lon="12.675943688634085"><ele>145.0</ele><time>2026-05-01T13:26:09Z</time></trkpt><trkpt lat="43.77437769237115" lon="12.67610193200704"><ele>147.25</ele><time>2026-05-01T13:26:10Z</time></trkpt><trkpt lat="43.77447932833175" lon="12.676250964995628"><ele>149.5</ele><time>2026-05-01T13:26:11Z</time></trkpt><trkpt lat="43.7745793147191" lon="12.67639624635889"><ele>151.75</ele><time>2026-05-01T13:26:12Z</time></trkpt><trkpt lat="43.77467381004697" lon="12.67655081811769"><ele>154.0</ele><time>2026-05-01T13:26:13Z</time></trkpt><trkpt lat="43.77476362908755" lon="12.676725348902556"><ele>154.0</ele><time>2026-05-01T13:26:14Z</time></trkpt><trkpt lat="43.77484022423353" lon="12.676920927543371"><ele>154.0</ele><time>2026-05-01T13:26:15Z</time></trkpt><trkpt lat="43.77490377005352" lon="12.67712864282641"><ele>154.0</ele><time>2026-05-01T13:26:16Z</time></trkpt><trkpt lat="43.77496367805877" lon="12.67734168249454"><ele>150.66666666666669</ele><time>2026-05-01T13:26:17Z</time></trkpt><trkpt lat="43.775026685007795" lon="12.677555236941425"><ele>147.33333333333334</ele><time>2026-05-01T13:26:18Z</time></trkpt><trkpt lat="43.77509377288484" lon="12.677762493295782"><ele>144.0</ele><time>2026-05-01T13:26:19Z</time></trkpt><trkpt lat="43.77516673119776" lon="12.677960350341172"><ele>145.0</ele><time>2026-05-01T13:26:20Z</time></trkpt><trkpt lat="43.775258925789906" lon="12.678146145664211"><ele>146.0</ele><time>2026-05-01T13:26:21Z</time></trkpt><trkpt lat="43.77537318280576" lon="12.678316748686104"><ele>147.0</ele><time>2026-05-01T13:26:22Z</time></trkpt><trkpt lat="43.77550001805578" lon="12.67847752979001"><ele>145.0</ele><time>2026-05-01T13:26:23Z</time></trkpt><trkpt lat="43.775625224785394" lon="12.678648644664156"><ele>143.0</ele><time>2026-05-01T13:26:24Z</time></trkpt><trkpt lat="43.77574310478329" lon="12.678834232666441"><ele>141.0</ele><time>2026-05-01T13:26:25Z</time></trkpt><trkpt lat="43.7758520378827" lon="12.679034323768326"><ele>141.0</ele><time>2026-05-01T13:26:26Z</time></trkpt><trkpt lat="43.77594965253909" lon="12.679245143599944"><ele>141.0</ele><time>2026-05-01T13:26:27Z</time></trkpt><trkpt lat="43.77604192043591" lon="12.679463456199512"><ele>141.0</ele><time>2026-05-01T13:26:28Z</time></trkpt><trkpt lat="43.77613596922645" lon="12.679691395259152"><ele>141.66666666666666</ele><time>2026-05-01T13:26:29Z</time></trkpt><trkpt lat="43.77623619862694" lon="12.679933024202567"><ele>142.33333333333331</ele><time>2026-05-01T13:26:30Z</time></trkpt><trkpt lat="43.776337394669795" lon="12.680206133893451"><ele>143.0</ele><time>2026-05-01T13:26:31Z</time></trkpt><trkpt lat="43.77644289043339" lon="12.680506424383282"><ele>143.0</ele><time>2026-05-01T13:26:32Z</time></trkpt><trkpt lat="43.776542102914114" lon="12.680800357947545"><ele>143.0</ele><time>2026-05-01T13:26:33Z</time></trkpt><trkpt lat="43.776627868670616" lon="12.681064640877407"><ele>143.0</ele><time>2026-05-01T13:26:34Z</time></trkpt><trkpt lat="43.776709445200204" lon="12.6813193742244"><ele>141.33333333333331</ele><time>2026-05-01T13:26:35Z</time></trkpt><trkpt lat="43.776777157626555" lon="12.681562225752044"><ele>139.66666666666666</ele><time>2026-05-01T13:26:36Z</time></trkpt><trkpt lat="43.77683389737874" lon="12.68179475256231"><ele>138.0</ele><time>2026-05-01T13:26:37Z</time></trkpt><trkpt lat="43.77688541068316" lon="12.682009390091512"><ele>143.33333333333334</ele><time>2026-05-01T13:26:38Z</time></trkpt><trkpt lat="43.77693461220431" lon="12.682217810444962"><ele>148.66666666666669</ele><time>2026-05-01T13:26:39Z</time></trkpt><trkpt lat="43.77697090495507" lon="12.682423350972085"><ele>154.0</ele><time>2026-05-01T13:26:40Z</time></trkpt><trkpt lat="43.776994905408905" lon="12.682642217237003"><ele>153.0</ele><time>2026-05-01T13:26:41Z</time></trkpt><trkpt lat="43.77700423725259" lon="12.682871179310506"><ele>152.0</ele><time>2026-05-01T13:26:42Z</time></trkpt><trkpt lat="43.776999508528284" lon="12.683094530628404"><ele>151.0</ele><time>2026-05-01T13:26:43Z</time></trkpt><trkpt lat="43.776988444568985" lon="12.683305959415588"><ele>151.0</ele><time>2026-05-01T13:26:44Z</time></trkpt><trkpt lat="43.776977237157055" lon="12.683508252753212"><ele>151.0</ele><time>2026-05-01T13:26:45Z</time></trkpt><trkpt lat="43.776962105017226" lon="12.683704647692887"><ele>151.0</ele><time>2026-05-01T13:26:46Z</time></trkpt><trkpt lat="43.77694819636366" lon="12.68389901751622"><ele>151.0</ele><time>2026-05-01T13:26:47Z</time></trkpt><trkpt lat="43.77693568310401" lon="12.684089640356543"><ele>149.25</ele><time>2026-05-01T13:26:48Z</time></trkpt><trkpt lat="43.77692962615274" lon="12.684280546181798"><ele>147.5</ele><time>2026-05-01T13:26:49Z</time></trkpt><trkpt lat="43.77693808687988" lon="12.684472612744425"><ele>145.75</ele><time>2026-05-01T13:26:50Z</time></trkpt><trkpt lat="43.776978431431225" lon="12.684657142877963"><ele>144.0</ele><time>2026-05-01T13:26:51Z</time></trkpt><trkpt lat="43.777043339019656" lon="12.684828757459112"><ele>140.33333333333334</ele><time>2026-05-01T13:26:52Z</time></trkpt><trkpt lat="43.777131976285084" lon="12.684989222191804"><ele>136.66666666666669</ele><time>2026-05-01T13:26:53Z</time></trkpt><trkpt lat="43.77724978848522" lon="12.68513428111066"><ele>133.0</ele><time>2026-05-01T13:26:54Z</time></trkpt><trkpt lat="43.777410735266834" lon="12.685261591184998"><ele>132.33333333333334</ele><time>2026-05-01T13:26:55Z</time></trkpt><trkpt lat="43.77759284004513" lon="12.685401447065848"><ele>131.66666666666666</ele><time>2026-05-01T13:26:56Z</time></trkpt><trkpt lat="43.77779196255887" lon="12.685564858629398"><ele>131.0</ele><time>2026-05-01T13:26:57Z</time></trkpt><trkpt lat="43.77800786886952" lon="12.685743616111173"><ele>131.0</ele><time>2026-05-01T13:26:58Z</time></trkpt><trkpt lat="43.77823766953586" lon="12.68594428765665"><ele>131.0</ele><time>2026-05-01T13:26:59Z</time></trkpt><trkpt lat="43.77846456591234" lon="12.686146956252397"><ele>130.5</ele><time>2026-05-01T13:27:00Z</time></trkpt><trkpt lat="43.77867525564805" lon="12.686332454310563"><ele>130.0</ele><time>2026-05-01T13:27:01Z</time></trkpt><trkpt lat="43.778885489194394" lon="12.686504128186376"><ele>130.0</ele><time>2026-05-01T13:27:02Z</time></trkpt><trkpt lat="43.77908619471256" lon="12.686666070181644"><ele>130.0</ele><time>2026-05-01T13:27:03Z</time></trkpt><trkpt lat="43.77929185886759" lon="12.686809897522837"><ele>129.5</ele><time>2026-05-01T13:27:04Z</time></trkpt><trkpt lat="43.77949886866027" lon="12.68694366619689"><ele>129.0</ele><time>2026-05-01T13:27:05Z</time></trkpt><trkpt lat="43.77970320779027" lon="12.687074339336954"><ele>129.0</ele><time>2026-05-01T13:27:06Z</time></trkpt><trkpt lat="43.779896764844025" lon="12.687206611097409"><ele>129.0</ele><time>2026-05-01T13:27:07Z</time></trkpt><trkpt lat="43.780097046212255" lon="12.687334604860059"><ele>129.0</ele><time>2026-05-01T13:27:08Z</time></trkpt><trkpt lat="43.78029178834053" lon="12.687466480019358"><ele>129.33333333333334</ele><time>2026-05-01T13:27:09Z</time></trkpt><trkpt lat="43.780476256657884" lon="12.687619997553261"><ele>129.66666666666669</ele><time>2026-05-01T13:27:10Z</time></trkpt><trkpt lat="43.78064573041979" lon="12.68780219572677"><ele>130.0</ele><time>2026-05-01T13:27:11Z</time></trkpt><trkpt lat="43.78080226186858" lon="12.688005935702693"><ele>130.0</ele><time>2026-05-01T13:27:12Z</time></trkpt><trkpt lat="43.78094676148347" lon="12.688231570268826"><ele>130.0</ele><time>2026-05-01T13:27:13Z</time></trkpt><trkpt lat="43.78108192081269" lon="12.688463986623955"><ele>130.0</ele><time>2026-05-01T13:27:14Z</time></trkpt><trkpt lat="43.7812119979718" lon="12.688698833636767"><ele>130.0</ele><time>2026-05-01T13:27:15Z</time></trkpt><trkpt lat="43.781339942950986" lon="12.688928799926714"><ele>130.0</ele><time>2026-05-01T13:27:16Z</time></trkpt><trkpt lat="43.78145638137919" lon="12.68916437864671"><ele>130.0</ele><time>2026-05-01T13:27:17Z</time></trkpt><trkpt lat="43.7815432575576" lon="12.689405722838176"><ele>128.66666666666669</ele><time>2026-05-01T13:27:18Z</time></trkpt><trkpt lat="43.78160861561529" lon="12.689632397988026"><ele>127.33333333333334</ele><time>2026-05-01T13:27:19Z</time></trkpt><trkpt lat="43.78166367050451" lon="12.689845662273092"><ele>126.0</ele><time>2026-05-01T13:27:20Z</time></trkpt><trkpt lat="43.78171117766023" lon="12.690045543782794"><ele>126.0</ele><time>2026-05-01T13:27:21Z</time></trkpt><trkpt lat="43.78176192773731" lon="12.69023408825064"><ele>126.0</ele><time>2026-05-01T13:27:22Z</time></trkpt><trkpt lat="43.7818125313335" lon="12.690421814720947"><ele>126.0</ele><time>2026-05-01T13:27:23Z</time></trkpt><trkpt lat="43.78186086005165" lon="12.69061326612633"><ele>126.0</ele><time>2026-05-01T13:27:24Z</time></trkpt><trkpt lat="43.781909436124245" lon="12.690810280453576"><ele>129.66666666666666</ele><time>2026-05-01T13:27:25Z</time></trkpt><trkpt lat="43.78195769105303" lon="12.691009829922224"><ele>133.33333333333331</ele><time>2026-05-01T13:27:26Z</time></trkpt><trkpt lat="43.78200018939871" lon="12.691216039639803"><ele>137.0</ele><time>2026-05-01T13:27:27Z</time></trkpt><trkpt lat="43.78203484058752" lon="12.691428616374731"><ele>137.0</ele><time>2026-05-01T13:27:28Z</time></trkpt><trkpt lat="43.78205932521396" lon="12.691648363259535"><ele>137.0</ele><time>2026-05-01T13:27:29Z</time></trkpt><trkpt lat="43.7820705917675" lon="12.691875712800726"><ele>137.0</ele><time>2026-05-01T13:27:30Z</time></trkpt><trkpt lat="43.78207412936119" lon="12.692107956596153"><ele>135.33333333333331</ele><time>2026-05-01T13:27:31Z</time></trkpt><trkpt lat="43.782072733145704" lon="12.692342896270123"><ele>133.66666666666666</ele><time>2026-05-01T13:27:32Z</time></trkpt><trkpt lat="43.78206442358904" lon="12.692581842966622"><ele>132.0</ele><time>2026-05-01T13:27:33Z</time></trkpt><trkpt lat="43.782043719877166" lon="12.69282337424286"><ele>132.0</ele><time>2026-05-01T13:27:34Z</time></trkpt><trkpt lat="43.7820074196413" lon="12.693062456034681"><ele>132.0</ele><time>2026-05-01T13:27:35Z</time></trkpt><trkpt lat="43.78196327142337" lon="12.69330206260978"><ele>132.0</ele><time>2026-05-01T13:27:36Z</time></trkpt><trkpt lat="43.78191521561634" lon="12.693535631975147"><ele>132.66666666666666</ele><time>2026-05-01T13:27:37Z</time></trkpt><trkpt lat="43.781868411071464" lon="12.69376718197041"><ele>133.33333333333331</ele><time>2026-05-01T13:27:38Z</time></trkpt><trkpt lat="43.78182216955441" lon="12.693997133450036"><ele>134.0</ele><time>2026-05-01T13:27:39Z</time></trkpt><trkpt lat="43.78177497389009" lon="12.694224576563967"><ele>131.66666666666666</ele><time>2026-05-01T13:27:40Z</time></trkpt><trkpt lat="43.78173067678024" lon="12.694452185890023"><ele>129.33333333333334</ele><time>2026-05-01T13:27:41Z</time></trkpt><trkpt lat="43.78168801946471" lon="12.694678321368253"><ele>127.0</ele><time>2026-05-01T13:27:42Z</time></trkpt><trkpt lat="43.78164574316449" lon="12.694905369462482"><ele>127.0</ele><time>2026-05-01T13:27:43Z</time></trkpt><trkpt lat="43.781603311819644" lon="12.695135059224116"><ele>127.0</ele><time>2026-05-01T13:27:44Z</time></trkpt><trkpt lat="43.78155937742766" lon="12.695360144204985"><ele>127.0</ele><time>2026-05-01T13:27:45Z</time></trkpt><trkpt lat="43.78151516211847" lon="12.695583091707105"><ele>126.0</ele><time>2026-05-01T13:27:46Z</time></trkpt><trkpt lat="43.78147181884583" lon="12.695804508500176"><ele>125.0</ele><time>2026-05-01T13:27:47Z</time></trkpt><trkpt lat="43.7814320777335" lon="12.696030505729137"><ele>124.0</ele><time>2026-05-01T13:27:48Z</time></trkpt><trkpt lat="43.78138936423183" lon="12.696266319964018"><ele>124.0</ele><time>2026-05-01T13:27:49Z</time></trkpt><trkpt lat="43.78134161355886" lon="12.696505815104402"><ele>124.0</ele><time>2026-05-01T13:27:50Z</time></trkpt><trkpt lat="43.78129713189769" lon="12.696752471088086"><ele>124.0</ele><time>2026-05-01T13:27:51Z</time></trkpt><trkpt lat="43.78125516622661" lon="12.697011071144313"><ele>124.0</ele><time>2026-05-01T13:27:52Z</time></trkpt><trkpt lat="43.781208081713416" lon="12.697274851583128"><ele>124.0</ele><time>2026-05-01T13:27:53Z</time></trkpt><trkpt lat="43.78115241507458" lon="12.697543452365649"><ele>124.0</ele><time>2026-05-01T13:27:54Z</time></trkpt><trkpt lat="43.781092056455776" lon="12.697813101216704"><ele>123.66666666666667</ele><time>2026-05-01T13:27:55Z</time></trkpt><trkpt lat="43.78103365285422" lon="12.698085635619638"><ele>123.33333333333334</ele><time>2026-05-01T13:27:56Z</time></trkpt><trkpt lat="43.780974034096" lon="12.69836551988242"><ele>123.0</ele><time>2026-05-01T13:27:57Z</time></trkpt><trkpt lat="43.78091708235909" lon="12.698648812104652"><ele>123.0</ele><time>2026-05-01T13:27:58Z</time></trkpt><trkpt lat="43.7808606562172" lon="12.698936737123688"><ele>123.0</ele><time>2026-05-01T13:27:59Z</time></trkpt><trkpt lat="43.78080272114917" lon="12.699228277022534"><ele>123.0</ele><time>2026-05-01T13:28:00Z</time></trkpt><trkpt lat="43.78074414616887" lon="12.699516533083006"><ele>122.66666666666666</ele><time>2026-05-01T13:28:01Z</time></trkpt><trkpt lat="43.780691382933234" lon="12.699802541071255"><ele>122.33333333333333</ele><time>2026-05-01T13:28:02Z</time></trkpt><trkpt lat="43.780642052601515" lon="12.700088534737448"><ele>122.0</ele><time>2026-05-01T13:28:03Z</time></trkpt><trkpt lat="43.780599856834215" lon="12.700378878776776"><ele>122.0</ele><time>2026-05-01T13:28:04Z</time></trkpt><trkpt lat="43.780558245647974" lon="12.70067205758676"><ele>122.0</ele><time>2026-05-01T13:28:05Z</time></trkpt><trkpt lat="43.78053070465268" lon="12.70096755112973"><ele>122.0</ele><time>2026-05-01T13:28:06Z</time></trkpt><trkpt lat="43.78051700228816" lon="12.701262931562612"><ele>121.66666666666666</ele><time>2026-05-01T13:28:07Z</time></trkpt><trkpt lat="43.78052454896804" lon="12.701572621509829"><ele>121.33333333333334</ele><time>2026-05-01T13:28:08Z</time></trkpt><trkpt lat="43.78053653284308" lon="12.701882751746078"><ele>121.0</ele><time>2026-05-01T13:28:09Z</time></trkpt><trkpt lat="43.78055773700844" lon="12.70219243612079"><ele>121.0</ele><time>2026-05-01T13:28:10Z</time></trkpt><trkpt lat="43.78059436752592" lon="12.702501031193858"><ele>121.0</ele><time>2026-05-01T13:28:11Z</time></trkpt><trkpt lat="43.780641168243456" lon="12.702807828204543"><ele>120.5</ele><time>2026-05-01T13:28:12Z</time></trkpt><trkpt lat="43.78069628606976" lon="12.703113610951744"><ele>120.0</ele><time>2026-05-01T13:28:13Z</time></trkpt><trkpt lat="43.7807657021822" lon="12.703412069839548"><ele>119.0</ele><time>2026-05-01T13:28:14Z</time></trkpt><trkpt lat="43.78082770837584" lon="12.703711716529376"><ele>118.0</ele><time>2026-05-01T13:28:15Z</time></trkpt><trkpt lat="43.78086380661965" lon="12.704015674960523"><ele>117.0</ele><time>2026-05-01T13:28:16Z</time></trkpt><trkpt lat="43.78088661704608" lon="12.704321507778335"><ele>116.0</ele><time>2026-05-01T13:28:17Z</time></trkpt><trkpt lat="43.78088234773058" lon="12.704628882346348"><ele>115.0</ele><time>2026-05-01T13:28:18Z</time></trkpt><trkpt lat="43.780860753267774" lon="12.704936196906859"><ele>114.0</ele><time>2026-05-01T13:28:19Z</time></trkpt><trkpt lat="43.78081759775629" lon="12.705238567563622"><ele>113.5</ele><time>2026-05-01T13:28:20Z</time></trkpt><trkpt lat="43.780765622577675" lon="12.705541291314628"><ele>113.0</ele><time>2026-05-01T13:28:21Z</time></trkpt><trkpt lat="43.780715665218295" lon="12.70584732808999"><ele>113.0</ele><time>2026-05-01T13:28:22Z</time></trkpt><trkpt lat="43.780673985934655" lon="12.706155945564076"><ele>113.0</ele><time>2026-05-01T13:28:23Z</time></trkpt><trkpt lat="43.78064049190746" lon="12.70646636557898"><ele>113.0</ele><time>2026-05-01T13:28:24Z</time></trkpt><trkpt lat="43.780621495948495" lon="12.706779450531398"><ele>113.0</ele><time>2026-05-01T13:28:25Z</time></trkpt><trkpt lat="43.78062715605646" lon="12.707094399711522"><ele>113.0</ele><time>2026-05-01T13:28:26Z</time></trkpt><trkpt lat="43.7806493620766" lon="12.707412107270557"><ele>113.0</ele><time>2026-05-01T13:28:27Z</time></trkpt><trkpt lat="43.7806728012941" lon="12.7077295720024"><ele>114.0</ele><time>2026-05-01T13:28:28Z</time></trkpt><trkpt lat="43.780697689503626" lon="12.708047181433614"><ele>115.0</ele><time>2026-05-01T13:28:29Z</time></trkpt><trkpt lat="43.780719317439875" lon="12.708356110529941"><ele>116.66666666666667</ele><time>2026-05-01T13:28:30Z</time></trkpt><trkpt lat="43.78073907574731" lon="12.708655393635606"><ele>118.33333333333334</ele><time>2026-05-01T13:28:31Z</time></trkpt><trkpt lat="43.7807679900712" lon="12.708947646130671"><ele>120.0</ele><time>2026-05-01T13:28:32Z</time></trkpt><trkpt lat="43.78080879336858" lon="12.709232170805322"><ele>121.66666666666666</ele><time>2026-05-01T13:28:33Z</time></trkpt><trkpt lat="43.78087212159785" lon="12.709510372487724"><ele>123.33333333333333</ele><time>2026-05-01T13:28:34Z</time></trkpt><trkpt lat="43.78095443217426" lon="12.709776951533119"><ele>125.0</ele><time>2026-05-01T13:28:35Z</time></trkpt><trkpt lat="43.78105165385085" lon="12.710016945427967"><ele>122.33333333333333</ele><time>2026-05-01T13:28:36Z</time></trkpt><trkpt lat="43.78116296869179" lon="12.710242416406516"><ele>119.66666666666666</ele><time>2026-05-01T13:28:37Z</time></trkpt><trkpt lat="43.78127493222794" lon="12.710463748490064"><ele>117.0</ele><time>2026-05-01T13:28:38Z</time></trkpt><trkpt lat="43.781388763710446" lon="12.710686646186176"><ele>117.0</ele><time>2026-05-01T13:28:39Z</time></trkpt><trkpt lat="43.78150345011546" lon="12.710898585902221"><ele>117.0</ele><time>2026-05-01T13:28:40Z</time></trkpt><trkpt lat="43.78161895188241" lon="12.71111311124266"><ele>117.0</ele><time>2026-05-01T13:28:41Z</time></trkpt><trkpt lat="43.7817317002769" lon="12.711329844938925"><ele>117.0</ele><time>2026-05-01T13:28:42Z</time></trkpt><trkpt lat="43.781837413837124" lon="12.71155305009436"><ele>117.0</ele><time>2026-05-01T13:28:43Z</time></trkpt><trkpt lat="43.781933549003824" lon="12.711783515849797"><ele>117.0</ele><time>2026-05-01T13:28:44Z</time></trkpt><trkpt lat="43.78202111746665" lon="12.712020051745375"><ele>120.33333333333334</ele><time>2026-05-01T13:28:45Z</time></trkpt><trkpt lat="43.78208778235781" lon="12.71226658137154"><ele>123.66666666666667</ele><time>2026-05-01T13:28:46Z</time></trkpt><trkpt lat="43.782136682292254" lon="12.712514088581171"><ele>127.0</ele><time>2026-05-01T13:28:47Z</time></trkpt><trkpt lat="43.78216473857487" lon="12.712745009846"><ele>127.66666666666667</ele><time>2026-05-01T13:28:48Z</time></trkpt><trkpt lat="43.78218260711758" lon="12.712963892041017"><ele>128.33333333333334</ele><time>2026-05-01T13:28:49Z</time></trkpt><trkpt lat="43.782197021135126" lon="12.713189353577253"><ele>129.0</ele><time>2026-05-01T13:28:50Z</time></trkpt><trkpt lat="43.782200930141585" lon="12.713419323227932"><ele>128.66666666666666</ele><time>2026-05-01T13:28:51Z</time></trkpt><trkpt lat="43.78220325902755" lon="12.713653126103987"><ele>128.33333333333331</ele><time>2026-05-01T13:28:52Z</time></trkpt><trkpt lat="43.78220326618752" lon="12.713886258280748"><ele>128.0</ele><time>2026-05-01T13:28:53Z</time></trkpt><trkpt lat="43.78220686955406" lon="12.714111311978165"><ele>128.0</ele><time>2026-05-01T13:28:54Z</time></trkpt><trkpt lat="43.78220841238857" lon="12.714325287553185"><ele>128.0</ele><time>2026-05-01T13:28:55Z</time></trkpt><trkpt lat="43.78220978024977" lon="12.714531397980199"><ele>128.0</ele><time>2026-05-01T13:28:56Z</time></trkpt><trkpt lat="43.782214048422716" lon="12.714736113388797"><ele>127.5</ele><time>2026-05-01T13:28:57Z</time></trkpt><trkpt lat="43.782231411198765" lon="12.714932530428815"><ele>127.0</ele><time>2026-05-01T13:28:58Z</time></trkpt><trkpt lat="43.782259207525975" lon="12.715146258177105"><ele>126.5</ele><time>2026-05-01T13:28:59Z</time></trkpt><trkpt lat="43.78229949814244" lon="12.715340209450101"><ele>126.0</ele><time>2026-05-01T13:29:00Z</time></trkpt><trkpt lat="43.78235170613306" lon="12.715523724433774"><ele>124.5</ele><time>2026-05-01T13:29:01Z</time></trkpt><trkpt lat="43.7824036248784" lon="12.715710971337915"><ele>123.0</ele><time>2026-05-01T13:29:02Z</time></trkpt><trkpt lat="43.782467544674844" lon="12.715894083742263"><ele>121.5</ele><time>2026-05-01T13:29:03Z</time></trkpt><trkpt lat="43.782537636875205" lon="12.716085355746076"><ele>120.0</ele><time>2026-05-01T13:29:04Z</time></trkpt><trkpt lat="43.782620275405286" lon="12.71626696602899"><ele>115.33333333333334</ele><time>2026-05-01T13:29:05Z</time></trkpt><trkpt lat="43.782728120416074" lon="12.716455798294634"><ele>110.66666666666667</ele><time>2026-05-01T13:29:06Z</time></trkpt><trkpt lat="43.782851813876775" lon="12.716645152554538"><ele>106.0</ele><time>2026-05-01T13:29:07Z</time></trkpt><trkpt lat="43.78298843953322" lon="12.71685656954408"><ele>105.66666666666667</ele><time>2026-05-01T13:29:08Z</time></trkpt><trkpt lat="43.78312285361396" lon="12.717070250560612"><ele>105.33333333333334</ele><time>2026-05-01T13:29:09Z</time></trkpt><trkpt lat="43.78325408140178" lon="12.717280366561038"><ele>105.0</ele><time>2026-05-01T13:29:10Z</time></trkpt><trkpt lat="43.78337761700329" lon="12.717483988368524"><ele>105.0</ele><time>2026-05-01T13:29:11Z</time></trkpt><trkpt lat="43.78349711602244" lon="12.71768013314131"><ele>105.0</ele><time>2026-05-01T13:29:12Z</time></trkpt><trkpt lat="43.783612643541176" lon="12.717872003918272"><ele>105.0</ele><time>2026-05-01T13:29:13Z</time></trkpt><trkpt lat="43.78372472617319" lon="12.718056209333017"><ele>105.33333333333334</ele><time>2026-05-01T13:29:14Z</time></trkpt><trkpt lat="43.78383917846661" lon="12.718238725469636"><ele>105.66666666666667</ele><time>2026-05-01T13:29:15Z</time></trkpt><trkpt lat="43.78395720898525" lon="12.718409540597888"><ele>106.0</ele><time>2026-05-01T13:29:16Z</time></trkpt><trkpt lat="43.78407932156127" lon="12.718566763659163"><ele>106.33333333333334</ele><time>2026-05-01T13:29:17Z</time></trkpt><trkpt lat="43.78420181653253" lon="12.718697641378043"><ele>106.66666666666666</ele><time>2026-05-01T13:29:18Z</time></trkpt><trkpt lat="43.7843345035593" lon="12.718814993774334"><ele>107.0</ele><time>2026-05-01T13:29:19Z</time></trkpt><trkpt lat="43.78449629104462" lon="12.7189018463648"><ele>107.0</ele><time>2026-05-01T13:29:20Z</time></trkpt><trkpt lat="43.784685138442335" lon="12.719001015426263"><ele>107.0</ele><time>2026-05-01T13:29:21Z</time></trkpt><trkpt lat="43.7848742779791" lon="12.71909656591725"><ele>107.0</ele><time>2026-05-01T13:29:22Z</time></trkpt><trkpt lat="43.78506343437047" lon="12.719185882595497"><ele>106.33333333333333</ele><time>2026-05-01T13:29:23Z</time></trkpt><trkpt lat="43.785253212606065" lon="12.719292735705563"><ele>105.66666666666666</ele><time>2026-05-01T13:29:24Z</time></trkpt><trkpt lat="43.78543299230142" lon="12.719423043757176"><ele>105.0</ele><time>2026-05-01T13:29:25Z</time></trkpt><trkpt lat="43.78560044333728" lon="12.719577155619268"><ele>105.0</ele><time>2026-05-01T13:29:26Z</time></trkpt><trkpt lat="43.78576291312707" lon="12.719745356244447"><ele>105.0</ele><time>2026-05-01T13:29:27Z</time></trkpt><trkpt lat="43.78592165432851" lon="12.71993320129246"><ele>105.0</ele><time>2026-05-01T13:29:28Z</time></trkpt><trkpt lat="43.786097519195415" lon="12.720167386780867"><ele>105.5</ele><time>2026-05-01T13:29:29Z</time></trkpt><trkpt lat="43.78629597093673" lon="12.720432016240293"><ele>106.0</ele><time>2026-05-01T13:29:30Z</time></trkpt><trkpt lat="43.78653522279919" lon="12.720722091017265"><ele>106.0</ele><time>2026-05-01T13:29:31Z</time></trkpt><trkpt lat="43.786787564141136" lon="12.72100756313096"><ele>106.0</ele><time>2026-05-01T13:29:32Z</time></trkpt><trkpt lat="43.787057567513095" lon="12.721314977944553"><ele>104.5</ele><time>2026-05-01T13:29:33Z</time></trkpt><trkpt lat="43.787347396556164" lon="12.721645754406422"><ele>103.0</ele><time>2026-05-01T13:29:34Z</time></trkpt><trkpt lat="43.78765099876011" lon="12.72199469166412"><ele>102.0</ele><time>2026-05-01T13:29:35Z</time></trkpt><trkpt lat="43.78793395843161" lon="12.722342881204572"><ele>101.0</ele><time>2026-05-01T13:29:36Z</time></trkpt><trkpt lat="43.78820438675744" lon="12.72265540130822"><ele>99.5</ele><time>2026-05-01T13:29:37Z</time></trkpt><trkpt lat="43.78844748679643" lon="12.722945722627674"><ele>98.0</ele><time>2026-05-01T13:29:38Z</time></trkpt><trkpt lat="43.78866255328368" lon="12.723194934350932"><ele>98.0</ele><time>2026-05-01T13:29:39Z</time></trkpt><trkpt lat="43.788862711916465" lon="12.723421366082624"><ele>98.0</ele><time>2026-05-01T13:29:40Z</time></trkpt><trkpt lat="43.78906185820573" lon="12.72363483714837"><ele>98.0</ele><time>2026-05-01T13:29:41Z</time></trkpt><trkpt lat="43.78926303075943" lon="12.723829449014316"><ele>98.0</ele><time>2026-05-01T13:29:42Z</time></trkpt><trkpt lat="43.7894702499694" lon="12.723991887020173"><ele>98.0</ele><time>2026-05-01T13:29:43Z</time></trkpt><trkpt lat="43.78968290096014" lon="12.724125154633267"><ele>98.0</ele><time>2026-05-01T13:29:44Z</time></trkpt><trkpt lat="43.78990187198604" lon="12.72422967952216"><ele>98.0</ele><time>2026-05-01T13:29:45Z</time></trkpt><trkpt lat="43.79012864036852" lon="12.724309676050426"><ele>98.0</ele><time>2026-05-01T13:29:46Z</time></trkpt><trkpt lat="43.79036641731505" lon="12.724357433730058"><ele>100.0</ele><time>2026-05-01T13:29:47Z</time></trkpt><trkpt lat="43.79060880332364" lon="12.72438087973386"><ele>102.0</ele><time>2026-05-01T13:29:48Z</time></trkpt><trkpt lat="43.79085811596718" lon="12.724367257074903"><ele>103.5</ele><time>2026-05-01T13:29:49Z</time></trkpt><trkpt lat="43.791114151512076" lon="12.724320197890979"><ele>105.0</ele><time>2026-05-01T13:29:50Z</time></trkpt><trkpt lat="43.79137204590455" lon="12.724250545934732"><ele>105.0</ele><time>2026-05-01T13:29:51Z</time></trkpt><trkpt lat="43.79163199905461" lon="12.724156602612112"><ele>105.0</ele><time>2026-05-01T13:29:52Z</time></trkpt><trkpt lat="43.79189589922899" lon="12.724061853238917"><ele>106.0</ele><time>2026-05-01T13:29:53Z</time></trkpt><trkpt lat="43.79216277258354" lon="12.72397229270977"><ele>107.0</ele><time>2026-05-01T13:29:54Z</time></trkpt><trkpt lat="43.79242983286909" lon="12.723872919440142"><ele>107.5</ele><time>2026-05-01T13:29:55Z</time></trkpt><trkpt lat="43.7927015921072" lon="12.723774410918368"><ele>108.0</ele><time>2026-05-01T13:29:56Z</time></trkpt><trkpt lat="43.792976780240075" lon="12.723678552463028"><ele>108.0</ele><time>2026-05-01T13:29:57Z</time></trkpt><trkpt lat="43.79325001844477" lon="12.723581092547553"><ele>108.0</ele><time>2026-05-01T13:29:58Z</time></trkpt><trkpt lat="43.793523961744235" lon="12.723483129376309"><ele>102.5</ele><time>2026-05-01T13:29:59Z</time></trkpt><trkpt lat="43.79379931597386" lon="12.72338707029462"><ele>97.0</ele><time>2026-05-01T13:30:00Z</time></trkpt><trkpt lat="43.79406920541676" lon="12.723292961808925"><ele>97.0</ele><time>2026-05-01T13:30:01Z</time></trkpt><trkpt lat="43.794324081208835" lon="12.72320419578414"><ele>97.0</ele><time>2026-05-01T13:30:02Z</time></trkpt><trkpt lat="43.7945698015862" lon="12.723121269232228"><ele>95.0</ele><time>2026-05-01T13:30:03Z</time></trkpt><trkpt lat="43.7948146234899" lon="12.723040879415036"><ele>93.0</ele><time>2026-05-01T13:30:04Z</time></trkpt><trkpt lat="43.795055438104335" lon="12.722964536385387"><ele>93.66666666666667</ele><time>2026-05-01T13:30:05Z</time></trkpt><trkpt lat="43.79527869953546" lon="12.722897510835645"><ele>94.33333333333334</ele><time>2026-05-01T13:30:06Z</time></trkpt><trkpt lat="43.79547474838629" lon="12.722844087012433"><ele>95.0</ele><time>2026-05-01T13:30:07Z</time></trkpt><trkpt lat="43.79566073935711" lon="12.72280161853056"><ele>95.0</ele><time>2026-05-01T13:30:08Z</time></trkpt><trkpt lat="43.795838402010766" lon="12.722760962364323"><ele>95.0</ele><time>2026-05-01T13:30:09Z</time></trkpt><trkpt lat="43.79599287913344" lon="12.722724927628377"><ele>95.0</ele><time>2026-05-01T13:30:10Z</time></trkpt><trkpt lat="43.79613683841823" lon="12.722694114197274"><ele>98.66666666666667</ele><time>2026-05-01T13:30:11Z</time></trkpt><trkpt lat="43.79629609322281" lon="12.722679615944836"><ele>102.33333333333334</ele><time>2026-05-01T13:30:12Z</time></trkpt><trkpt lat="43.79647435548611" lon="12.722700630495654"><ele>106.0</ele><time>2026-05-01T13:30:13Z</time></trkpt><trkpt lat="43.796670441091734" lon="12.722729563616149"><ele>103.33333333333334</ele><time>2026-05-01T13:30:14Z</time></trkpt><trkpt lat="43.79688044817959" lon="12.722752596026375"><ele>100.66666666666666</ele><time>2026-05-01T13:30:15Z</time></trkpt><trkpt lat="43.79710050396973" lon="12.722773938167627"><ele>98.0</ele><time>2026-05-01T13:30:16Z</time></trkpt><trkpt lat="43.79731688545482" lon="12.722795419543077"><ele>98.0</ele><time>2026-05-01T13:30:17Z</time></trkpt><trkpt lat="43.79753587955743" lon="12.722818723605759"><ele>98.0</ele><time>2026-05-01T13:30:18Z</time></trkpt><trkpt lat="43.79775532952475" lon="12.722845716616714"><ele>98.0</ele><time>2026-05-01T13:30:19Z</time></trkpt><trkpt lat="43.79797719338814" lon="12.722870273537753"><ele>97.5</ele><time>2026-05-01T13:30:20Z</time></trkpt><trkpt lat="43.798203256547346" lon="12.722896746796877"><ele>97.0</ele><time>2026-05-01T13:30:21Z</time></trkpt><trkpt lat="43.79843305554489" lon="12.722928314161948"><ele>96.0</ele><time>2026-05-01T13:30:22Z</time></trkpt><trkpt lat="43.798665238042695" lon="12.722961418011916"><ele>95.0</ele><time>2026-05-01T13:30:23Z</time></trkpt><trkpt lat="43.798898650632715" lon="12.722989386354671"><ele>95.0</ele><time>2026-05-01T13:30:24Z</time></trkpt><trkpt lat="43.79912879056041" lon="12.72300894008555"><ele>95.0</ele><time>2026-05-01T13:30:25Z</time></trkpt><trkpt lat="43.79934970727913" lon="12.723006868495107"><ele>95.33333333333334</ele><time>2026-05-01T13:30:26Z</time></trkpt><trkpt lat="43.79955485347254" lon="12.722979454127223"><ele>95.66666666666667</ele><time>2026-05-01T13:30:27Z</time></trkpt><trkpt lat="43.79976296020822" lon="12.722935328092627"><ele>96.0</ele><time>2026-05-01T13:30:28Z</time></trkpt><trkpt lat="43.799985655359734" lon="12.722868532581247"><ele>99.0</ele><time>2026-05-01T13:30:29Z</time></trkpt><trkpt lat="43.80045108710949" lon="12.722716673474649"><ele>99.0</ele><time>2026-05-01T13:30:31Z</time></trkpt><trkpt lat="43.80069432374409" lon="12.722652584170913"><ele>99.0</ele><time>2026-05-01T13:30:32Z</time></trkpt><trkpt lat="43.800942089863476" lon="12.722607317961154"><ele>95.0</ele><time>2026-05-01T13:30:33Z</time></trkpt><trkpt lat="43.80119313683155" lon="12.722576632860152"><ele>91.0</ele><time>2026-05-01T13:30:34Z</time></trkpt><trkpt lat="43.80144947231254" lon="12.722563575947568"><ele>91.0</ele><time>2026-05-01T13:30:35Z</time></trkpt><trkpt lat="43.8017077093893" lon="12.722578934638534"><ele>91.0</ele><time>2026-05-01T13:30:36Z</time></trkpt><trkpt lat="43.80196308283351" lon="12.722623914579804"><ele>90.5</ele><time>2026-05-01T13:30:37Z</time></trkpt><trkpt lat="43.802216515603156" lon="12.722695937148814"><ele>90.0</ele><time>2026-05-01T13:30:38Z</time></trkpt><trkpt lat="43.80246628690105" lon="12.722804428962707"><ele>94.0</ele><time>2026-05-01T13:30:39Z</time></trkpt><trkpt lat="43.802708116632246" lon="12.722943154394272"><ele>98.0</ele><time>2026-05-01T13:30:40Z</time></trkpt><trkpt lat="43.802947271344394" lon="12.723099434737797"><ele>98.0</ele><time>2026-05-01T13:30:41Z</time></trkpt><trkpt lat="43.803176230351994" lon="12.723275134087391"><ele>98.0</ele><time>2026-05-01T13:30:42Z</time></trkpt><trkpt lat="43.80339556737715" lon="12.723470779623494"><ele>96.0</ele><time>2026-05-01T13:30:43Z</time></trkpt><trkpt lat="43.80382694407504" lon="12.723871191236116"><ele>96.0</ele><time>2026-05-01T13:30:45Z</time></trkpt><trkpt lat="43.804052140719634" lon="12.724053152285224"><ele>96.0</ele><time>2026-05-01T13:30:46Z</time></trkpt><trkpt lat="43.80428209816414" lon="12.724223080339284"><ele>93.5</ele><time>2026-05-01T13:30:47Z</time></trkpt><trkpt lat="43.80451681035827" lon="12.724385883040878"><ele>91.0</ele><time>2026-05-01T13:30:48Z</time></trkpt><trkpt lat="43.804755502436834" lon="12.724539180283847"><ele>91.0</ele><time>2026-05-01T13:30:49Z</time></trkpt><trkpt lat="43.804994156197026" lon="12.724691421572885"><ele>91.0</ele><time>2026-05-01T13:30:50Z</time></trkpt><trkpt lat="43.805225311798665" lon="12.724858802504267"><ele>90.0</ele><time>2026-05-01T13:30:51Z</time></trkpt><trkpt lat="43.80544838251258" lon="12.725043389320334"><ele>89.0</ele><time>2026-05-01T13:30:52Z</time></trkpt><trkpt lat="43.80567118888264" lon="12.725230129822009"><ele>89.0</ele><time>2026-05-01T13:30:53Z</time></trkpt><trkpt lat="43.80589902182019" lon="12.725394380919328"><ele>89.0</ele><time>2026-05-01T13:30:54Z</time></trkpt><trkpt lat="43.806133685268186" lon="12.725535818278765"><ele>92.5</ele><time>2026-05-01T13:30:55Z</time></trkpt><trkpt lat="43.80637085076013" lon="12.725672760154787"><ele>96.0</ele><time>2026-05-01T13:30:56Z</time></trkpt><trkpt lat="43.80659847558322" lon="12.72581017176153"><ele>96.0</ele><time>2026-05-01T13:30:57Z</time></trkpt><trkpt lat="43.806814992145405" lon="12.72594316395932"><ele>96.0</ele><time>2026-05-01T13:30:58Z</time></trkpt><trkpt lat="43.807022639044064" lon="12.726055506450122"><ele>96.33333333333334</ele><time>2026-05-01T13:30:59Z</time></trkpt><trkpt lat="43.80723503085441" lon="12.72615440111864"><ele>96.66666666666667</ele><time>2026-05-01T13:31:00Z</time></trkpt><trkpt lat="43.807451413810334" lon="12.726238625723838"><ele>97.0</ele><time>2026-05-01T13:31:01Z</time></trkpt><trkpt lat="43.807672306881535" lon="12.726312724378397"><ele>95.0</ele><time>2026-05-01T13:31:02Z</time></trkpt><trkpt lat="43.807898646495985" lon="12.726385008327025"><ele>93.0</ele><time>2026-05-01T13:31:03Z</time></trkpt><trkpt lat="43.8081282697353" lon="12.72645918370156"><ele>93.0</ele><time>2026-05-01T13:31:04Z</time></trkpt><trkpt lat="43.80835860259866" lon="12.726531671572994"><ele>93.0</ele><time>2026-05-01T13:31:05Z</time></trkpt><trkpt lat="43.8085980674686" lon="12.726609695361526"><ele>94.5</ele><time>2026-05-01T13:31:06Z</time></trkpt><trkpt lat="43.80884574200659" lon="12.726689672748554"><ele>96.0</ele><time>2026-05-01T13:31:07Z</time></trkpt><trkpt lat="43.809098588339886" lon="12.72676643785883"><ele>99.0</ele><time>2026-05-01T13:31:08Z</time></trkpt><trkpt lat="43.80935674438835" lon="12.72682974463648"><ele>102.0</ele><time>2026-05-01T13:31:09Z</time></trkpt><trkpt lat="43.80961695523941" lon="12.726879601746973"><ele>94.0</ele><time>2026-05-01T13:31:10Z</time></trkpt><trkpt lat="43.80987716594162" lon="12.726905951546847"><ele>86.0</ele><time>2026-05-01T13:31:11Z</time></trkpt><trkpt lat="43.81013759623581" lon="12.726939656174345"><ele>90.0</ele><time>2026-05-01T13:31:12Z</time></trkpt><trkpt lat="43.81039651614844" lon="12.726997641907529"><ele>94.0</ele><time>2026-05-01T13:31:13Z</time></trkpt><trkpt lat="43.810651548601186" lon="12.727090380813168"><ele>94.0</ele><time>2026-05-01T13:31:14Z</time></trkpt><trkpt lat="43.81088723306975" lon="12.727225849868411"><ele>94.0</ele><time>2026-05-01T13:31:15Z</time></trkpt><trkpt lat="43.811111455963236" lon="12.72737554072862"><ele>97.5</ele><time>2026-05-01T13:31:16Z</time></trkpt><trkpt lat="43.8113388328614" lon="12.727507539173626"><ele>101.0</ele><time>2026-05-01T13:31:17Z</time></trkpt><trkpt lat="43.81157688595666" lon="12.727604882626737"><ele>101.0</ele><time>2026-05-01T13:31:18Z</time></trkpt><trkpt lat="43.8118194242644" lon="12.727675815240048"><ele>101.0</ele><time>2026-05-01T13:31:19Z</time></trkpt><trkpt lat="43.812064752441074" lon="12.727733404232046"><ele>99.0</ele><time>2026-05-01T13:31:20Z</time></trkpt><trkpt lat="43.81230653760294" lon="12.727793308033432"><ele>97.0</ele><time>2026-05-01T13:31:21Z</time></trkpt><trkpt lat="43.81254691671544" lon="12.727865304152902"><ele>98.0</ele><time>2026-05-01T13:31:22Z</time></trkpt><trkpt lat="43.812784498835" lon="12.727958499855804"><ele>99.0</ele><time>2026-05-01T13:31:23Z</time></trkpt><trkpt lat="43.813017042176895" lon="12.728077691943636"><ele>99.0</ele><time>2026-05-01T13:31:24Z</time></trkpt><trkpt lat="43.81324238331045" lon="12.728226359617683"><ele>99.0</ele><time>2026-05-01T13:31:25Z</time></trkpt><trkpt lat="43.81345956962474" lon="12.728403502236285"><ele>97.5</ele><time>2026-05-01T13:31:26Z</time></trkpt><trkpt lat="43.813679525170116" lon="12.728577099025046"><ele>96.0</ele><time>2026-05-01T13:31:27Z</time></trkpt><trkpt lat="43.81388791006478" lon="12.728732343808343"><ele>96.0</ele><time>2026-05-01T13:31:28Z</time></trkpt><trkpt lat="43.81408862103197" lon="12.728881272903228"><ele>96.0</ele><time>2026-05-01T13:31:29Z</time></trkpt><trkpt lat="43.81427967346792" lon="12.72902796693369"><ele>96.0</ele><time>2026-05-01T13:31:30Z</time></trkpt><trkpt lat="43.81446934249956" lon="12.729181911835143"><ele>95.33333333333333</ele><time>2026-05-01T13:31:31Z</time></trkpt><trkpt lat="43.814660633264566" lon="12.729340337911042"><ele>94.66666666666666</ele><time>2026-05-01T13:31:32Z</time></trkpt><trkpt lat="43.81485511182996" lon="12.729495932280626"><ele>94.0</ele><time>2026-05-01T13:31:33Z</time></trkpt><trkpt lat="43.81505030157619" lon="12.72964794075637"><ele>93.66666666666666</ele><time>2026-05-01T13:31:34Z</time></trkpt><trkpt lat="43.815246923468386" lon="12.729796939889683"><ele>93.33333333333333</ele><time>2026-05-01T13:31:35Z</time></trkpt><trkpt lat="43.81543977447219" lon="12.729951348210063"><ele>93.0</ele><time>2026-05-01T13:31:36Z</time></trkpt><trkpt lat="43.81562983065608" lon="12.73010702738197"><ele>93.0</ele><time>2026-05-01T13:31:37Z</time></trkpt><trkpt lat="43.81582034351839" lon="12.73026256155744"><ele>93.0</ele><time>2026-05-01T13:31:38Z</time></trkpt><trkpt lat="43.816009247123056" lon="12.730416613254974"><ele>93.0</ele><time>2026-05-01T13:31:39Z</time></trkpt><trkpt lat="43.81620042983268" lon="12.730564580471407"><ele>93.0</ele><time>2026-05-01T13:31:40Z</time></trkpt><trkpt lat="43.81639532596448" lon="12.730702933159602"><ele>93.0</ele><time>2026-05-01T13:31:41Z</time></trkpt><trkpt lat="43.8165989761275" lon="12.730821436364993"><ele>93.0</ele><time>2026-05-01T13:31:42Z</time></trkpt><trkpt lat="43.816808029376105" lon="12.730938576963586"><ele>92.5</ele><time>2026-05-01T13:31:43Z</time></trkpt><trkpt lat="43.8170194671774" lon="12.73105818257682"><ele>92.0</ele><time>2026-05-01T13:31:44Z</time></trkpt><trkpt lat="43.81723005846854" lon="12.731185519089804"><ele>92.0</ele><time>2026-05-01T13:31:45Z</time></trkpt><trkpt lat="43.81744400042279" lon="12.73131681924241"><ele>92.0</ele><time>2026-05-01T13:31:46Z</time></trkpt><trkpt lat="43.81766197180075" lon="12.731436304933592"><ele>92.0</ele><time>2026-05-01T13:31:47Z</time></trkpt><trkpt lat="43.81788116769629" lon="12.731553422182724"><ele>92.0</ele><time>2026-05-01T13:31:48Z</time></trkpt><trkpt lat="43.818103338297085" lon="12.731669109871696"><ele>92.0</ele><time>2026-05-01T13:31:49Z</time></trkpt><trkpt lat="43.81832577044783" lon="12.731784750979328"><ele>92.0</ele><time>2026-05-01T13:31:50Z</time></trkpt><trkpt lat="43.81854519728635" lon="12.731918986378947"><ele>90.5</ele><time>2026-05-01T13:31:51Z</time></trkpt><trkpt lat="43.8187574652384" lon="12.732076837465494"><ele>89.0</ele><time>2026-05-01T13:31:52Z</time></trkpt><trkpt lat="43.818960113671054" lon="12.732263037521863"><ele>89.0</ele><time>2026-05-01T13:31:53Z</time></trkpt><trkpt lat="43.81915748426394" lon="12.732462214207725"><ele>89.0</ele><time>2026-05-01T13:31:54Z</time></trkpt><trkpt lat="43.81935267208218" lon="12.732667218097397"><ele>88.0</ele><time>2026-05-01T13:31:55Z</time></trkpt><trkpt lat="43.81954523351408" lon="12.732879333443199"><ele>87.0</ele><time>2026-05-01T13:31:56Z</time></trkpt><trkpt lat="43.81973988323998" lon="12.733089441655435"><ele>87.0</ele><time>2026-05-01T13:31:57Z</time></trkpt><trkpt lat="43.81993891394928" lon="12.733293265157945"><ele>87.0</ele><time>2026-05-01T13:31:58Z</time></trkpt><trkpt lat="43.82013608956214" lon="12.733497893532801"><ele>85.5</ele><time>2026-05-01T13:31:59Z</time></trkpt><trkpt lat="43.820331824271506" lon="12.733701079949364"><ele>84.0</ele><time>2026-05-01T13:32:00Z</time></trkpt><trkpt lat="43.82052571263498" lon="12.733906794266165"><ele>84.0</ele><time>2026-05-01T13:32:01Z</time></trkpt><trkpt lat="43.820713092562265" lon="12.73411818261636"><ele>84.0</ele><time>2026-05-01T13:32:02Z</time></trkpt><trkpt lat="43.820884427013425" lon="12.734328754886638"><ele>84.66666666666667</ele><time>2026-05-01T13:32:03Z</time></trkpt><trkpt lat="43.82103761843546" lon="12.734543039810546"><ele>85.33333333333334</ele><time>2026-05-01T13:32:04Z</time></trkpt><trkpt lat="43.821168539901265" lon="12.734756721787669"><ele>86.0</ele><time>2026-05-01T13:32:05Z</time></trkpt><trkpt lat="43.821294883881365" lon="12.734962976078641"><ele>86.0</ele><time>2026-05-01T13:32:06Z</time></trkpt><trkpt lat="43.821420277083114" lon="12.735145912321217"><ele>86.0</ele><time>2026-05-01T13:32:07Z</time></trkpt><trkpt lat="43.82154333372087" lon="12.735318910609053"><ele>86.0</ele><time>2026-05-01T13:32:08Z</time></trkpt><trkpt lat="43.82166343350885" lon="12.735470593626493"><ele>85.66666666666667</ele><time>2026-05-01T13:32:09Z</time></trkpt><trkpt lat="43.821791490380285" lon="12.735624356989026"><ele>85.33333333333333</ele><time>2026-05-01T13:32:10Z</time></trkpt><trkpt lat="43.821925644865175" lon="12.735768125119597"><ele>85.0</ele><time>2026-05-01T13:32:11Z</time></trkpt><trkpt lat="43.82206607741478" lon="12.735906222546465"><ele>85.0</ele><time>2026-05-01T13:32:12Z</time></trkpt><trkpt lat="43.82221691057929" lon="12.736035322561223"><ele>85.0</ele><time>2026-05-01T13:32:13Z</time></trkpt><trkpt lat="43.82236747167568" lon="12.736174418311837"><ele>85.0</ele><time>2026-05-01T13:32:14Z</time></trkpt><trkpt lat="43.82252698666711" lon="12.736318651326583"><ele>83.5</ele><time>2026-05-01T13:32:15Z</time></trkpt><trkpt lat="43.82271284314334" lon="12.736471865703967"><ele>82.0</ele><time>2026-05-01T13:32:16Z</time></trkpt><trkpt lat="43.82292282867586" lon="12.736639435521528"><ele>82.0</ele><time>2026-05-01T13:32:17Z</time></trkpt><trkpt lat="43.82314139805739" lon="12.73682838334184"><ele>82.0</ele><time>2026-05-01T13:32:18Z</time></trkpt><trkpt lat="43.82335351156784" lon="12.737030547336968"><ele>82.0</ele><time>2026-05-01T13:32:19Z</time></trkpt><trkpt lat="43.823549818224734" lon="12.737227390405112"><ele>82.0</ele><time>2026-05-01T13:32:20Z</time></trkpt><trkpt lat="43.823736945596444" lon="12.73741601437995"><ele>82.0</ele><time>2026-05-01T13:32:21Z</time></trkpt><trkpt lat="43.82390958866343" lon="12.737588448840064"><ele>82.0</ele><time>2026-05-01T13:32:22Z</time></trkpt><trkpt lat="43.82406955149456" lon="12.73773693556016"><ele>82.0</ele><time>2026-05-01T13:32:23Z</time></trkpt><trkpt lat="43.824215662834575" lon="12.737876699814594"><ele>82.0</ele><time>2026-05-01T13:32:24Z</time></trkpt><trkpt lat="43.82434520481966" lon="12.738016573425988"><ele>82.0</ele><time>2026-05-01T13:32:25Z</time></trkpt><trkpt lat="43.82446552256844" lon="12.738162071439547"><ele>82.0</ele><time>2026-05-01T13:32:26Z</time></trkpt><trkpt lat="43.82458726145929" lon="12.738315830417898"><ele>82.0</ele><time>2026-05-01T13:32:27Z</time></trkpt><trkpt lat="43.824705080805415" lon="12.738484489551844"><ele>82.0</ele><time>2026-05-01T13:32:28Z</time></trkpt><trkpt lat="43.824816496609415" lon="12.738647973932665"><ele>82.0</ele><time>2026-05-01T13:32:29Z</time></trkpt><trkpt lat="43.824929615297386" lon="12.738811806312667"><ele>82.0</ele><time>2026-05-01T13:32:30Z</time></trkpt><trkpt lat="43.82504206739814" lon="12.738967732794045"><ele>82.0</ele><time>2026-05-01T13:32:31Z</time></trkpt><trkpt lat="43.82515938632597" lon="12.739118449098262"><ele>82.0</ele><time>2026-05-01T13:32:32Z</time></trkpt><trkpt lat="43.82527924987008" lon="12.73926781567523"><ele>81.33333333333333</ele><time>2026-05-01T13:32:33Z</time></trkpt><trkpt lat="43.82540446877616" lon="12.739418571546778"><ele>80.66666666666667</ele><time>2026-05-01T13:32:34Z</time></trkpt><trkpt lat="43.82553370016868" lon="12.739570083886022"><ele>80.0</ele><time>2026-05-01T13:32:35Z</time></trkpt><trkpt lat="43.82566122886752" lon="12.739728540085148"><ele>80.0</ele><time>2026-05-01T13:32:36Z</time></trkpt><trkpt lat="43.82579210301536" lon="12.73988548532479"><ele>80.0</ele><time>2026-05-01T13:32:37Z</time></trkpt><trkpt lat="43.82592391021879" lon="12.740040313351136"><ele>80.0</ele><time>2026-05-01T13:32:38Z</time></trkpt><trkpt lat="43.826050064778634" lon="12.740192789430916"><ele>79.33333333333334</ele><time>2026-05-01T13:32:39Z</time></trkpt><trkpt lat="43.8261737696109" lon="12.740358574221498"><ele>78.66666666666667</ele><time>2026-05-01T13:32:40Z</time></trkpt><trkpt lat="43.82629097866812" lon="12.740535356574972"><ele>78.0</ele><time>2026-05-01T13:32:41Z</time></trkpt><trkpt lat="43.826399891439465" lon="12.740720672361666"><ele>78.0</ele><time>2026-05-01T13:32:42Z</time></trkpt><trkpt lat="43.826493869572275" lon="12.740918378804514"><ele>78.0</ele><time>2026-05-01T13:32:43Z</time></trkpt><trkpt lat="43.82657090279963" lon="12.74113034248171"><ele>78.0</ele><time>2026-05-01T13:32:44Z</time></trkpt><trkpt lat="43.826639581315426" lon="12.74135471473976"><ele>77.66666666666667</ele><time>2026-05-01T13:32:45Z</time></trkpt><trkpt lat="43.826699987609494" lon="12.741583342843912"><ele>77.33333333333334</ele><time>2026-05-01T13:32:46Z</time></trkpt><trkpt lat="43.82676345013609" lon="12.741815730001582"><ele>77.0</ele><time>2026-05-01T13:32:47Z</time></trkpt><trkpt lat="43.82682873655025" lon="12.742049807077368"><ele>76.66666666666667</ele><time>2026-05-01T13:32:48Z</time></trkpt><trkpt lat="43.82689444758272" lon="12.742279040257433"><ele>76.33333333333333</ele><time>2026-05-01T13:32:49Z</time></trkpt><trkpt lat="43.8269588817783" lon="12.742506084232621"><ele>76.0</ele><time>2026-05-01T13:32:50Z</time></trkpt><trkpt lat="43.82702563014383" lon="12.742734344318764"><ele>76.0</ele><time>2026-05-01T13:32:51Z</time></trkpt><trkpt lat="43.827099763387494" lon="12.742959264851354"><ele>76.0</ele><time>2026-05-01T13:32:52Z</time></trkpt><trkpt lat="43.82718349780224" lon="12.74318321713253"><ele>76.0</ele><time>2026-05-01T13:32:53Z</time></trkpt><trkpt lat="43.82727829531183" lon="12.74340107025371"><ele>76.0</ele><time>2026-05-01T13:32:54Z</time></trkpt><trkpt lat="43.8273858943129" lon="12.74361126679364"><ele>76.0</ele><time>2026-05-01T13:32:55Z</time></trkpt><trkpt lat="43.827507129697004" lon="12.74381349696386"><ele>76.0</ele><time>2026-05-01T13:32:56Z</time></trkpt><trkpt lat="43.82763662442106" lon="12.744018424081817"><ele>76.33333333333333</ele><time>2026-05-01T13:32:57Z</time></trkpt><trkpt lat="43.82775962555018" lon="12.744216625700133"><ele>76.66666666666667</ele><time>2026-05-01T13:32:58Z</time></trkpt><trkpt lat="43.827888759036874" lon="12.744425209692615"><ele>77.0</ele><time>2026-05-01T13:32:59Z</time></trkpt><trkpt lat="43.82802312534226" lon="12.744628937290322"><ele>77.0</ele><time>2026-05-01T13:33:00Z</time></trkpt><trkpt lat="43.828163081376765" lon="12.744819400473698"><ele>77.0</ele><time>2026-05-01T13:33:01Z</time></trkpt><trkpt lat="43.82832254971172" lon="12.744970871570786"><ele>77.0</ele><time>2026-05-01T13:33:02Z</time></trkpt><trkpt lat="43.82849872150955" lon="12.74510338250255"><ele>75.66666666666667</ele><time>2026-05-01T13:33:03Z</time></trkpt><trkpt lat="43.82868344393101" lon="12.745212762698388"><ele>74.33333333333333</ele><time>2026-05-01T13:33:04Z</time></trkpt><trkpt lat="43.82886562243668" lon="12.745308029837224"><ele>73.0</ele><time>2026-05-01T13:33:05Z</time></trkpt><trkpt lat="43.829055472977146" lon="12.745374749548454"><ele>73.0</ele><time>2026-05-01T13:33:06Z</time></trkpt><trkpt lat="43.82925036527279" lon="12.745416964194842"><ele>73.0</ele><time>2026-05-01T13:33:07Z</time></trkpt><trkpt lat="43.82944885648512" lon="12.745446019144355"><ele>73.0</ele><time>2026-05-01T13:33:08Z</time></trkpt><trkpt lat="43.82964814697071" lon="12.745458881222715"><ele>73.33333333333333</ele><time>2026-05-01T13:33:09Z</time></trkpt><trkpt lat="43.82984660742311" lon="12.745460872643315"><ele>73.66666666666667</ele><time>2026-05-01T13:33:10Z</time></trkpt><trkpt lat="43.83003416030461" lon="12.745465425930963"><ele>74.0</ele><time>2026-05-01T13:33:11Z</time></trkpt><trkpt lat="43.830210596147325" lon="12.745478885135148"><ele>74.0</ele><time>2026-05-01T13:33:12Z</time></trkpt><trkpt lat="43.83037282312206" lon="12.74548596477676"><ele>74.0</ele><time>2026-05-01T13:33:13Z</time></trkpt><trkpt lat="43.830529863964436" lon="12.745498294459122"><ele>74.0</ele><time>2026-05-01T13:33:14Z</time></trkpt><trkpt lat="43.83067083163703" lon="12.745525997217735"><ele>74.0</ele><time>2026-05-01T13:33:15Z</time></trkpt><trkpt lat="43.830797753849595" lon="12.745572064188421"><ele>74.0</ele><time>2026-05-01T13:33:16Z</time></trkpt><trkpt lat="43.83091418304887" lon="12.745637342047809"><ele>74.0</ele><time>2026-05-01T13:33:17Z</time></trkpt><trkpt lat="43.83102575823206" lon="12.745688887823302"><ele>74.0</ele><time>2026-05-01T13:33:18Z</time></trkpt><trkpt lat="43.831136698170745" lon="12.745694549942042"><ele>73.60000000000001</ele><time>2026-05-01T13:33:19Z</time></trkpt><trkpt lat="43.83122923468368" lon="12.745650161709287"><ele>73.2</ele><time>2026-05-01T13:33:20Z</time></trkpt><trkpt lat="43.83129541624897" lon="12.745572842359019"><ele>72.80000000000001</ele><time>2026-05-01T13:33:21Z</time></trkpt><trkpt lat="43.83137376053087" lon="12.745520155883385"><ele>72.4</ele><time>2026-05-01T13:33:22Z</time></trkpt><trkpt lat="43.83146511091007" lon="12.745515118375"><ele>72.0</ele><time>2026-05-01T13:33:23Z</time></trkpt><trkpt lat="43.831575500268855" lon="12.745541942401669"><ele>72.0</ele><time>2026-05-01T13:33:24Z</time></trkpt><trkpt lat="43.831698818712674" lon="12.745577305842229"><ele>72.0</ele><time>2026-05-01T13:33:25Z</time></trkpt><trkpt lat="43.83183858994855" lon="12.745620479765874"><ele>72.0</ele><time>2026-05-01T13:33:26Z</time></trkpt><trkpt lat="43.83199009391529" lon="12.745664555904611"><ele>72.0</ele><time>2026-05-01T13:33:27Z</time></trkpt><trkpt lat="43.83215423173698" lon="12.74571077233529"><ele>71.66666666666667</ele><time>2026-05-01T13:33:28Z</time></trkpt><trkpt lat="43.832330784568626" lon="12.745758658018486"><ele>71.33333333333334</ele><time>2026-05-01T13:33:29Z</time></trkpt><trkpt lat="43.83250975693931" lon="12.74579670091272"><ele>71.0</ele><time>2026-05-01T13:33:30Z</time></trkpt><trkpt lat="43.83269683355631" lon="12.745826258465522"><ele>70.66666666666667</ele><time>2026-05-01T13:33:31Z</time></trkpt><trkpt lat="43.83288909749559" lon="12.745845825377348"><ele>70.33333333333333</ele><time>2026-05-01T13:33:32Z</time></trkpt><trkpt lat="43.83308279069469" lon="12.745854008853817"><ele>70.0</ele><time>2026-05-01T13:33:33Z</time></trkpt><trkpt lat="43.83325961455744" lon="12.74585700882405"><ele>70.0</ele><time>2026-05-01T13:33:34Z</time></trkpt><trkpt lat="43.83341938717292" lon="12.745862891810196"><ele>70.0</ele><time>2026-05-01T13:33:35Z</time></trkpt><trkpt lat="43.83356533661724" lon="12.745887479156123"><ele>70.0</ele><time>2026-05-01T13:33:36Z</time></trkpt><trkpt lat="43.83368318511136" lon="12.745940986280988"><ele>70.0</ele><time>2026-05-01T13:33:37Z</time></trkpt><trkpt lat="43.83378076147948" lon="12.74605159043145"><ele>69.0</ele><time>2026-05-01T13:33:38Z</time></trkpt><trkpt lat="43.833881305094295" lon="12.746188052438262"><ele>68.0</ele><time>2026-05-01T13:33:39Z</time></trkpt><trkpt lat="43.83397663569665" lon="12.746358650914589"><ele>67.0</ele><time>2026-05-01T13:33:40Z</time></trkpt><trkpt lat="43.83407480754262" lon="12.746544816690466"><ele>67.0</ele><time>2026-05-01T13:33:41Z</time></trkpt><trkpt lat="43.83418370884964" lon="12.746746928559004"><ele>67.0</ele><time>2026-05-01T13:33:42Z</time></trkpt><trkpt lat="43.83430030030829" lon="12.74696966129731"><ele>67.0</ele><time>2026-05-01T13:33:43Z</time></trkpt><trkpt lat="43.834421321332286" lon="12.747198615098588"><ele>66.33333333333333</ele><time>2026-05-01T13:33:44Z</time></trkpt><trkpt lat="43.834545958445254" lon="12.747435209217969"><ele>65.66666666666667</ele><time>2026-05-01T13:33:45Z</time></trkpt><trkpt lat="43.83467760245151" lon="12.74768251962452"><ele>65.0</ele><time>2026-05-01T13:33:46Z</time></trkpt><trkpt lat="43.834813622932245" lon="12.747941531532005"><ele>65.0</ele><time>2026-05-01T13:33:47Z</time></trkpt><trkpt lat="43.834951701721316" lon="12.748201914046106"><ele>65.0</ele><time>2026-05-01T13:33:48Z</time></trkpt><trkpt lat="43.83507892197356" lon="12.74845209820975"><ele>65.0</ele><time>2026-05-01T13:33:49Z</time></trkpt><trkpt lat="43.83519298177126" lon="12.748693986071704"><ele>65.0</ele><time>2026-05-01T13:33:50Z</time></trkpt><trkpt lat="43.835311398220014" lon="12.748924592376556"><ele>65.0</ele><time>2026-05-01T13:33:51Z</time></trkpt><trkpt lat="43.83542835354042" lon="12.749157849917449"><ele>64.33333333333334</ele><time>2026-05-01T13:33:52Z</time></trkpt><trkpt lat="43.83553711800417" lon="12.749396949826178"><ele>63.66666666666667</ele><time>2026-05-01T13:33:53Z</time></trkpt><trkpt lat="43.835634912695326" lon="12.749638140077606"><ele>63.0</ele><time>2026-05-01T13:33:54Z</time></trkpt><trkpt lat="43.83572894686143" lon="12.749881430450298"><ele>63.0</ele><time>2026-05-01T13:33:55Z</time></trkpt><trkpt lat="43.83582086775623" lon="12.750120178068032"><ele>63.0</ele><time>2026-05-01T13:33:56Z</time></trkpt><trkpt lat="43.835906163471854" lon="12.750347655544788"><ele>63.0</ele><time>2026-05-01T13:33:57Z</time></trkpt><trkpt lat="43.835973011527045" lon="12.75058303877782"><ele>61.0</ele><time>2026-05-01T13:33:58Z</time></trkpt><trkpt lat="43.836025901057" lon="12.750822892866745"><ele>59.0</ele><time>2026-05-01T13:33:59Z</time></trkpt><trkpt lat="43.83609942743696" lon="12.75107446782314"><ele>57.0</ele><time>2026-05-01T13:34:00Z</time></trkpt><trkpt lat="43.836183791799385" lon="12.751340448569161"><ele>56.0</ele><time>2026-05-01T13:34:01Z</time></trkpt><trkpt lat="43.83625604857798" lon="12.751642178821239"><ele>55.0</ele><time>2026-05-01T13:34:02Z</time></trkpt><trkpt lat="43.836343717467564" lon="12.75196604106974"><ele>55.0</ele><time>2026-05-01T13:34:03Z</time></trkpt><trkpt lat="43.83644043230795" lon="12.752301969962243"><ele>55.0</ele><time>2026-05-01T13:34:04Z</time></trkpt><trkpt lat="43.83654213202609" lon="12.752655495124394"><ele>55.5</ele><time>2026-05-01T13:34:05Z</time></trkpt><trkpt lat="43.836646608757135" lon="12.753015281031999"><ele>56.0</ele><time>2026-05-01T13:34:06Z</time></trkpt><trkpt lat="43.836745825659555" lon="12.753367360094865"><ele>56.0</ele><time>2026-05-01T13:34:07Z</time></trkpt><trkpt lat="43.83684247226276" lon="12.753721924056011"><ele>56.0</ele><time>2026-05-01T13:34:08Z</time></trkpt><trkpt lat="43.83693956128124" lon="12.754068883467294"><ele>57.0</ele><time>2026-05-01T13:34:09Z</time></trkpt><trkpt lat="43.837034434364334" lon="12.754404345297669"><ele>58.0</ele><time>2026-05-01T13:34:10Z</time></trkpt><trkpt lat="43.83712657871526" lon="12.754729673795815"><ele>58.0</ele><time>2026-05-01T13:34:11Z</time></trkpt><trkpt lat="43.83721618557798" lon="12.75503579860655"><ele>58.0</ele><time>2026-05-01T13:34:12Z</time></trkpt><trkpt lat="43.837301395492176" lon="12.755337358235113"><ele>60.0</ele><time>2026-05-01T13:34:13Z</time></trkpt><trkpt lat="43.83738573126115" lon="12.755630839806745"><ele>62.0</ele><time>2026-05-01T13:34:14Z</time></trkpt><trkpt lat="43.83747039939626" lon="12.755917820861459"><ele>62.66666666666667</ele><time>2026-05-01T13:34:15Z</time></trkpt><trkpt lat="43.83755401250061" lon="12.756199371778479"><ele>63.33333333333333</ele><time>2026-05-01T13:34:16Z</time></trkpt><trkpt lat="43.83762947669843" lon="12.75646500589371"><ele>64.0</ele><time>2026-05-01T13:34:17Z</time></trkpt><trkpt lat="43.83769558314303" lon="12.756711353649012"><ele>64.33333333333333</ele><time>2026-05-01T13:34:18Z</time></trkpt><trkpt lat="43.83775889755208" lon="12.756954488605565"><ele>64.66666666666667</ele><time>2026-05-01T13:34:19Z</time></trkpt><trkpt lat="43.83781722383632" lon="12.757204957862145"><ele>65.0</ele><time>2026-05-01T13:34:20Z</time></trkpt><trkpt lat="43.837869184188136" lon="12.757461989587988"><ele>66.0</ele><time>2026-05-01T13:34:21Z</time></trkpt><trkpt lat="43.83792036427762" lon="12.757717799818726"><ele>67.0</ele><time>2026-05-01T13:34:22Z</time></trkpt><trkpt lat="43.83797162496391" lon="12.757968659792981"><ele>68.0</ele><time>2026-05-01T13:34:23Z</time></trkpt><trkpt lat="43.83803102624549" lon="12.758237984080889"><ele>68.0</ele><time>2026-05-01T13:34:24Z</time></trkpt><trkpt lat="43.83809469258855" lon="12.758532514033954"><ele>68.0</ele><time>2026-05-01T13:34:25Z</time></trkpt><trkpt lat="43.838156385005" lon="12.758850842485646"><ele>68.5</ele><time>2026-05-01T13:34:26Z</time></trkpt><trkpt lat="43.8382156049806" lon="12.75918317278339"><ele>69.0</ele><time>2026-05-01T13:34:27Z</time></trkpt><trkpt lat="43.83827730257861" lon="12.759530296537628"><ele>69.5</ele><time>2026-05-01T13:34:28Z</time></trkpt><trkpt lat="43.83834067647804" lon="12.759883398066412"><ele>70.0</ele><time>2026-05-01T13:34:29Z</time></trkpt><trkpt lat="43.83840746187306" lon="12.760227313682748"><ele>69.0</ele><time>2026-05-01T13:34:30Z</time></trkpt><trkpt lat="43.83847706231068" lon="12.760576478000626"><ele>68.0</ele><time>2026-05-01T13:34:31Z</time></trkpt><trkpt lat="43.838550275791924" lon="12.760931144615098"><ele>69.0</ele><time>2026-05-01T13:34:32Z</time></trkpt><trkpt lat="43.83862132811475" lon="12.761289279966453"><ele>70.0</ele><time>2026-05-01T13:34:33Z</time></trkpt><trkpt lat="43.83869637013452" lon="12.761653234380992"><ele>70.0</ele><time>2026-05-01T13:34:34Z</time></trkpt><trkpt lat="43.83877201485263" lon="12.762017451513007"><ele>70.0</ele><time>2026-05-01T13:34:35Z</time></trkpt><trkpt lat="43.838843503738104" lon="12.76238808656098"><ele>67.5</ele><time>2026-05-01T13:34:36Z</time></trkpt><trkpt lat="43.83891412099691" lon="12.762758953698293"><ele>65.0</ele><time>2026-05-01T13:34:37Z</time></trkpt><trkpt lat="43.83898675688817" lon="12.763132191884111"><ele>65.0</ele><time>2026-05-01T13:34:38Z</time></trkpt><trkpt lat="43.839058071583445" lon="12.76350621757077"><ele>65.0</ele><time>2026-05-01T13:34:39Z</time></trkpt><trkpt lat="43.83912955961852" lon="12.763880015333584"><ele>65.5</ele><time>2026-05-01T13:34:40Z</time></trkpt><trkpt lat="43.83920113920137" lon="12.76425333041504"><ele>66.0</ele><time>2026-05-01T13:34:41Z</time></trkpt><trkpt lat="43.83927372398265" lon="12.764614304083384"><ele>67.0</ele><time>2026-05-01T13:34:42Z</time></trkpt><trkpt lat="43.83934731664893" lon="12.764954768590956"><ele>68.0</ele><time>2026-05-01T13:34:43Z</time></trkpt><trkpt lat="43.839427578195746" lon="12.765272747360298"><ele>69.0</ele><time>2026-05-01T13:34:44Z</time></trkpt><trkpt lat="43.839518164246726" lon="12.765569461965221"><ele>70.0</ele><time>2026-05-01T13:34:45Z</time></trkpt><trkpt lat="43.839620746316626" lon="12.765854491381438"><ele>69.33333333333333</ele><time>2026-05-01T13:34:46Z</time></trkpt><trkpt lat="43.83972596981493" lon="12.766100224696071"><ele>68.66666666666667</ele><time>2026-05-01T13:34:47Z</time></trkpt><trkpt lat="43.839848950006925" lon="12.766320740422309"><ele>68.0</ele><time>2026-05-01T13:34:48Z</time></trkpt><trkpt lat="43.83996979408995" lon="12.766524870381204"><ele>68.0</ele><time>2026-05-01T13:34:49Z</time></trkpt><trkpt lat="43.84009260000681" lon="12.766703982701193"><ele>68.0</ele><time>2026-05-01T13:34:50Z</time></trkpt><trkpt lat="43.840203648931414" lon="12.766851567005714"><ele>68.0</ele><time>2026-05-01T13:34:51Z</time></trkpt><trkpt lat="43.84029920172038" lon="12.76699548562687"><ele>67.75</ele><time>2026-05-01T13:34:52Z</time></trkpt><trkpt lat="43.84037894125544" lon="12.767138731166957"><ele>67.5</ele><time>2026-05-01T13:34:53Z</time></trkpt><trkpt lat="43.84044308033304" lon="12.767283348267153"><ele>67.25</ele><time>2026-05-01T13:34:54Z</time></trkpt><trkpt lat="43.84048230700322" lon="12.767427840113891"><ele>67.0</ele><time>2026-05-01T13:34:55Z</time></trkpt><trkpt lat="43.840499703164824" lon="12.767559604006939"><ele>67.0</ele><time>2026-05-01T13:34:56Z</time></trkpt><trkpt lat="43.84051906947965" lon="12.767686852145777"><ele>67.0</ele><time>2026-05-01T13:34:57Z</time></trkpt><trkpt lat="43.84055953714225" lon="12.767783096667348"><ele>67.0</ele><time>2026-05-01T13:34:58Z</time></trkpt><trkpt lat="43.840628699888505" lon="12.76784340557193"><ele>67.0</ele><time>2026-05-01T13:34:59Z</time></trkpt><trkpt lat="43.84072158273402" lon="12.767862644957678"><ele>67.0</ele><time>2026-05-01T13:35:00Z</time></trkpt><trkpt lat="43.84083593973059" lon="12.767861704310787"><ele>67.0</ele><time>2026-05-01T13:35:01Z</time></trkpt><trkpt lat="43.84096473727888" lon="12.76788552932908"><ele>67.0</ele><time>2026-05-01T13:35:02Z</time></trkpt><trkpt lat="43.84109175469148" lon="12.767960394850121"><ele>67.0</ele><time>2026-05-01T13:35:03Z</time></trkpt><trkpt lat="43.84121164335236" lon="12.768086034037314"><ele>67.0</ele><time>2026-05-01T13:35:04Z</time></trkpt><trkpt lat="43.8413487862074" lon="12.768237191009103"><ele>66.0</ele><time>2026-05-01T13:35:05Z</time></trkpt><trkpt lat="43.84149996408308" lon="12.768414851919223"><ele>65.0</ele><time>2026-05-01T13:35:06Z</time></trkpt><trkpt lat="43.84165744852037" lon="12.768619324503"><ele>64.0</ele><time>2026-05-01T13:35:07Z</time></trkpt><trkpt lat="43.84181876933333" lon="12.768827332558512"><ele>63.0</ele><time>2026-05-01T13:35:08Z</time></trkpt><trkpt lat="43.84199504333424" lon="12.769046833512547"><ele>62.0</ele><time>2026-05-01T13:35:09Z</time></trkpt><trkpt lat="43.84217760176931" lon="12.76927752882994"><ele>63.0</ele><time>2026-05-01T13:35:10Z</time></trkpt><trkpt lat="43.842360854013656" lon="12.769508416976837"><ele>64.0</ele><time>2026-05-01T13:35:11Z</time></trkpt><trkpt lat="43.84255324116213" lon="12.769751722321034"><ele>62.5</ele><time>2026-05-01T13:35:12Z</time></trkpt><trkpt lat="43.84275236298747" lon="12.769998655251626"><ele>61.0</ele><time>2026-05-01T13:35:13Z</time></trkpt><trkpt lat="43.8429517121784" lon="12.770240302477669"><ele>61.0</ele><time>2026-05-01T13:35:14Z</time></trkpt><trkpt lat="43.84315184052828" lon="12.770483312343648"><ele>61.0</ele><time>2026-05-01T13:35:15Z</time></trkpt><trkpt lat="43.84335149259221" lon="12.770729557919527"><ele>59.5</ele><time>2026-05-01T13:35:16Z</time></trkpt><trkpt lat="43.8435489583658" lon="12.770978671240243"><ele>58.0</ele><time>2026-05-01T13:35:17Z</time></trkpt><trkpt lat="43.84374712729866" lon="12.7712246801856"><ele>58.0</ele><time>2026-05-01T13:35:18Z</time></trkpt><trkpt lat="43.84394641558469" lon="12.771468456190531"><ele>58.0</ele><time>2026-05-01T13:35:19Z</time></trkpt><trkpt lat="43.844144441399315" lon="12.771708175201512"><ele>56.5</ele><time>2026-05-01T13:35:20Z</time></trkpt><trkpt lat="43.844329676847785" lon="12.771965614229803"><ele>55.0</ele><time>2026-05-01T13:35:21Z</time></trkpt><trkpt lat="43.84449979759236" lon="12.772237566956745"><ele>55.0</ele><time>2026-05-01T13:35:22Z</time></trkpt><trkpt lat="43.844652792159984" lon="12.772528549750522"><ele>55.0</ele><time>2026-05-01T13:35:23Z</time></trkpt><trkpt lat="43.8447931603978" lon="12.772832579997456"><ele>55.5</ele><time>2026-05-01T13:35:24Z</time></trkpt><trkpt lat="43.84491946455475" lon="12.773152202718768"><ele>56.0</ele><time>2026-05-01T13:35:25Z</time></trkpt><trkpt lat="43.84503061834243" lon="12.773481378011148"><ele>55.0</ele><time>2026-05-01T13:35:26Z</time></trkpt><trkpt lat="43.84511990892263" lon="12.7738253350323"><ele>54.0</ele><time>2026-05-01T13:35:27Z</time></trkpt><trkpt lat="43.84519576160301" lon="12.774177702601175"><ele>52.5</ele><time>2026-05-01T13:35:28Z</time></trkpt><trkpt lat="43.8452670750969" lon="12.774538485480054"><ele>51.0</ele><time>2026-05-01T13:35:29Z</time></trkpt><trkpt lat="43.84534510162514" lon="12.774900502838923"><ele>48.0</ele><time>2026-05-01T13:35:30Z</time></trkpt><trkpt lat="43.8454283732673" lon="12.775265605193283"><ele>45.0</ele><time>2026-05-01T13:35:31Z</time></trkpt><trkpt lat="43.84551192440368" lon="12.775635135369532"><ele>45.0</ele><time>2026-05-01T13:35:32Z</time></trkpt><trkpt lat="43.84559489156469" lon="12.776007266215034"><ele>45.0</ele><time>2026-05-01T13:35:33Z</time></trkpt><trkpt lat="43.84567516127649" lon="12.776379709014215"><ele>43.5</ele><time>2026-05-01T13:35:34Z</time></trkpt><trkpt lat="43.8457579512188" lon="12.776749205635632"><ele>42.0</ele><time>2026-05-01T13:35:35Z</time></trkpt><trkpt lat="43.845840916471026" lon="12.77711534425669"><ele>41.0</ele><time>2026-05-01T13:35:36Z</time></trkpt><trkpt lat="43.84592663779865" lon="12.77747814644026"><ele>40.0</ele><time>2026-05-01T13:35:37Z</time></trkpt><trkpt lat="43.84602300398444" lon="12.777834937227796"><ele>39.0</ele><time>2026-05-01T13:35:38Z</time></trkpt><trkpt lat="43.84613528220803" lon="12.778181252957717"><ele>38.0</ele><time>2026-05-01T13:35:39Z</time></trkpt><trkpt lat="43.846262522171585" lon="12.778518493286875"><ele>38.0</ele><time>2026-05-01T13:35:40Z</time></trkpt><trkpt lat="43.84641141982379" lon="12.778841208767751"><ele>38.0</ele><time>2026-05-01T13:35:41Z</time></trkpt><trkpt lat="43.84656871798012" lon="12.779147456966413"><ele>38.5</ele><time>2026-05-01T13:35:42Z</time></trkpt><trkpt lat="43.846725652330264" lon="12.779441398165355"><ele>39.0</ele><time>2026-05-01T13:35:43Z</time></trkpt><trkpt lat="43.84688160817151" lon="12.77973179557267"><ele>39.5</ele><time>2026-05-01T13:35:44Z</time></trkpt><trkpt lat="43.84702946957644" lon="12.780032183598303"><ele>40.0</ele><time>2026-05-01T13:35:45Z</time></trkpt><trkpt lat="43.84717724202985" lon="12.780337605621268"><ele>40.0</ele><time>2026-05-01T13:35:46Z</time></trkpt><trkpt lat="43.84732842226117" lon="12.780642017641188"><ele>40.0</ele><time>2026-05-01T13:35:47Z</time></trkpt><trkpt lat="43.84748400831686" lon="12.780946839532403"><ele>41.0</ele><time>2026-05-01T13:35:48Z</time></trkpt><trkpt lat="43.84764485549919" lon="12.781256271748509"><ele>42.0</ele><time>2026-05-01T13:35:49Z</time></trkpt><trkpt lat="43.84781680596319" lon="12.781579776018955"><ele>43.0</ele><time>2026-05-01T13:35:50Z</time></trkpt><trkpt lat="43.84799901705895" lon="12.781912488649683"><ele>44.0</ele><time>2026-05-01T13:35:51Z</time></trkpt><trkpt lat="43.8481897097443" lon="12.782258789190697"><ele>44.0</ele><time>2026-05-01T13:35:52Z</time></trkpt><trkpt lat="43.8483771914051" lon="12.782619601785076"><ele>44.0</ele><time>2026-05-01T13:35:53Z</time></trkpt><trkpt lat="43.84854429047092" lon="12.782963662797242"><ele>44.0</ele><time>2026-05-01T13:35:54Z</time></trkpt><trkpt lat="43.84869536856902" lon="12.783288532773785"><ele>44.0</ele><time>2026-05-01T13:35:55Z</time></trkpt><trkpt lat="43.84884397705773" lon="12.783597241950435"><ele>43.5</ele><time>2026-05-01T13:35:56Z</time></trkpt><trkpt lat="43.848988220507756" lon="12.783888616037428"><ele>43.0</ele><time>2026-05-01T13:35:57Z</time></trkpt><trkpt lat="43.84913724442699" lon="12.784175624898763"><ele>43.5</ele><time>2026-05-01T13:35:58Z</time></trkpt><trkpt lat="43.84928226687791" lon="12.784462249602912"><ele>44.0</ele><time>2026-05-01T13:35:59Z</time></trkpt><trkpt lat="43.849423147624144" lon="12.784739376970021"><ele>43.33333333333333</ele><time>2026-05-01T13:36:00Z</time></trkpt><trkpt lat="43.84955541176445" lon="12.784995597451783"><ele>42.666666666666664</ele><time>2026-05-01T13:36:01Z</time></trkpt><trkpt lat="43.84968464705426" lon="12.785235757776418"><ele>42.0</ele><time>2026-05-01T13:36:02Z</time></trkpt><trkpt lat="43.84981342951339" lon="12.785469509636878"><ele>42.0</ele><time>2026-05-01T13:36:03Z</time></trkpt><trkpt lat="43.84994076538959" lon="12.785699636464736"><ele>42.0</ele><time>2026-05-01T13:36:04Z</time></trkpt><trkpt lat="43.850069760315996" lon="12.785927013959821"><ele>42.0</ele><time>2026-05-01T13:36:05Z</time></trkpt><trkpt lat="43.85019562167854" lon="12.786153225679328"><ele>41.0</ele><time>2026-05-01T13:36:06Z</time></trkpt><trkpt lat="43.850316087040376" lon="12.786375217072965"><ele>40.0</ele><time>2026-05-01T13:36:07Z</time></trkpt><trkpt lat="43.85042905297562" lon="12.786588859396318"><ele>39.0</ele><time>2026-05-01T13:36:08Z</time></trkpt><trkpt lat="43.85053896399967" lon="12.78678797954439"><ele>39.5</ele><time>2026-05-01T13:36:09Z</time></trkpt><trkpt lat="43.85063676515686" lon="12.786974451098727"><ele>40.0</ele><time>2026-05-01T13:36:10Z</time></trkpt><trkpt lat="43.85072560787615" lon="12.787145440039017"><ele>40.5</ele><time>2026-05-01T13:36:11Z</time></trkpt><trkpt lat="43.85079796740764" lon="12.787296827217393"><ele>41.0</ele><time>2026-05-01T13:36:12Z</time></trkpt><trkpt lat="43.850851022373" lon="12.787438510101216"><ele>41.0</ele><time>2026-05-01T13:36:13Z</time></trkpt><trkpt lat="43.85088677217989" lon="12.787593448778006"><ele>41.0</ele><time>2026-05-01T13:36:14Z</time></trkpt><trkpt lat="43.85092167681373" lon="12.78775250132061"><ele>41.0</ele><time>2026-05-01T13:36:15Z</time></trkpt><trkpt lat="43.85099298052805" lon="12.787890627997134"><ele>41.0</ele><time>2026-05-01T13:36:16Z</time></trkpt><trkpt lat="43.85109431945296" lon="12.7880271091347"><ele>41.0</ele><time>2026-05-01T13:36:17Z</time></trkpt><trkpt lat="43.8511789653865" lon="12.78820331303077"><ele>41.0</ele><time>2026-05-01T13:36:18Z</time></trkpt><trkpt lat="43.85125181640404" lon="12.788414829346523"><ele>41.0</ele><time>2026-05-01T13:36:19Z</time></trkpt><trkpt lat="43.851320035182866" lon="12.78864386890467"><ele>41.33333333333333</ele><time>2026-05-01T13:36:20Z</time></trkpt><trkpt lat="43.8513827734773" lon="12.788883163118076"><ele>41.666666666666664</ele><time>2026-05-01T13:36:21Z</time></trkpt><trkpt lat="43.8514404161429" lon="12.789126649160357"><ele>42.0</ele><time>2026-05-01T13:36:22Z</time></trkpt><trkpt lat="43.851500433760755" lon="12.789391744713335"><ele>41.333333333333336</ele><time>2026-05-01T13:36:23Z</time></trkpt><trkpt lat="43.851557729635" lon="12.789670119015748"><ele>40.66666666666667</ele><time>2026-05-01T13:36:24Z</time></trkpt><trkpt lat="43.85161237397872" lon="12.789951793240125"><ele>40.0</ele><time>2026-05-01T13:36:25Z</time></trkpt><trkpt lat="43.851662403454824" lon="12.790237842288176"><ele>39.66666666666667</ele><time>2026-05-01T13:36:26Z</time></trkpt><trkpt lat="43.851705988372665" lon="12.790536161913337"><ele>39.333333333333336</ele><time>2026-05-01T13:36:27Z</time></trkpt><trkpt lat="43.851740276884584" lon="12.79084313921173"><ele>39.0</ele><time>2026-05-01T13:36:28Z</time></trkpt><trkpt lat="43.851763688509095" lon="12.79115355147783"><ele>39.0</ele><time>2026-05-01T13:36:29Z</time></trkpt><trkpt lat="43.85178255503824" lon="12.791471092882217"><ele>39.0</ele><time>2026-05-01T13:36:30Z</time></trkpt><trkpt lat="43.85179925593442" lon="12.791795284897399"><ele>36.5</ele><time>2026-05-01T13:36:31Z</time></trkpt><trkpt lat="43.85182090115483" lon="12.79212407494669"><ele>34.0</ele><time>2026-05-01T13:36:32Z</time></trkpt><trkpt lat="43.851841644159414" lon="12.792458298212315"><ele>34.5</ele><time>2026-05-01T13:36:33Z</time></trkpt><trkpt lat="43.851863064137724" lon="12.792797615821065"><ele>35.0</ele><time>2026-05-01T13:36:34Z</time></trkpt><trkpt lat="43.85188747444506" lon="12.793138980488534"><ele>35.0</ele><time>2026-05-01T13:36:35Z</time></trkpt><trkpt lat="43.851911111485535" lon="12.793483745791544"><ele>35.0</ele><time>2026-05-01T13:36:36Z</time></trkpt><trkpt lat="43.851931750628395" lon="12.79382931051428"><ele>37.5</ele><time>2026-05-01T13:36:37Z</time></trkpt><trkpt lat="43.85194928709697" lon="12.794177653365876"><ele>40.0</ele><time>2026-05-01T13:36:38Z</time></trkpt><trkpt lat="43.85196779798517" lon="12.794527379299808"><ele>40.5</ele><time>2026-05-01T13:36:39Z</time></trkpt><trkpt lat="43.85198662122159" lon="12.794882686491604"><ele>41.0</ele><time>2026-05-01T13:36:40Z</time></trkpt><trkpt lat="43.85200849181084" lon="12.795239451833186"><ele>38.5</ele><time>2026-05-01T13:36:41Z</time></trkpt><trkpt lat="43.85203242913464" lon="12.795597122329998"><ele>36.0</ele><time>2026-05-01T13:36:42Z</time></trkpt><trkpt lat="43.852057084799156" lon="12.79595516850807"><ele>35.0</ele><time>2026-05-01T13:36:43Z</time></trkpt><trkpt lat="43.852082160575186" lon="12.796316047305698"><ele>34.0</ele><time>2026-05-01T13:36:44Z</time></trkpt><trkpt lat="43.85210490893135" lon="12.796678123998909"><ele>35.0</ele><time>2026-05-01T13:36:45Z</time></trkpt><trkpt lat="43.85212595691844" lon="12.797038809830564"><ele>36.0</ele><time>2026-05-01T13:36:46Z</time></trkpt><trkpt lat="43.85214654841627" lon="12.797397400486098"><ele>36.0</ele><time>2026-05-01T13:36:47Z</time></trkpt><trkpt lat="43.852174140329474" lon="12.797754140132243"><ele>36.0</ele><time>2026-05-01T13:36:48Z</time></trkpt><trkpt lat="43.85220816268063" lon="12.79811001386773"><ele>36.0</ele><time>2026-05-01T13:36:49Z</time></trkpt><trkpt lat="43.85225381352785" lon="12.798463143336145"><ele>36.0</ele><time>2026-05-01T13:36:50Z</time></trkpt><trkpt lat="43.85230966193834" lon="12.798814770524498"><ele>37.5</ele><time>2026-05-01T13:36:51Z</time></trkpt><trkpt lat="43.85238810051901" lon="12.7991587329244"><ele>39.0</ele><time>2026-05-01T13:36:52Z</time></trkpt><trkpt lat="43.85247369107784" lon="12.79949655017097"><ele>39.0</ele><time>2026-05-01T13:36:53Z</time></trkpt><trkpt lat="43.85257319520415" lon="12.799830533242467"><ele>39.0</ele><time>2026-05-01T13:36:54Z</time></trkpt><trkpt lat="43.852683319128246" lon="12.800161120222976"><ele>38.5</ele><time>2026-05-01T13:36:55Z</time></trkpt><trkpt lat="43.8527970924963" lon="12.800494345297174"><ele>38.0</ele><time>2026-05-01T13:36:56Z</time></trkpt><trkpt lat="43.85291858448404" lon="12.800837306948514"><ele>37.5</ele><time>2026-05-01T13:36:57Z</time></trkpt><trkpt lat="43.85303992987687" lon="12.801190863792538"><ele>37.0</ele><time>2026-05-01T13:36:58Z</time></trkpt><trkpt lat="43.853157390888406" lon="12.801555661382272"><ele>37.0</ele><time>2026-05-01T13:36:59Z</time></trkpt><trkpt lat="43.853279882688724" lon="12.801924400930039"><ele>37.0</ele><time>2026-05-01T13:37:00Z</time></trkpt><trkpt lat="43.8534068667756" lon="12.802297714328748"><ele>35.5</ele><time>2026-05-01T13:37:01Z</time></trkpt><trkpt lat="43.85353741290989" lon="12.802674288574375"><ele>34.0</ele><time>2026-05-01T13:37:02Z</time></trkpt><trkpt lat="43.85366856954798" lon="12.803056011292512"><ele>34.0</ele><time>2026-05-01T13:37:03Z</time></trkpt><trkpt lat="43.85379724256452" lon="12.803443224934787"><ele>34.0</ele><time>2026-05-01T13:37:04Z</time></trkpt><trkpt lat="43.8539276210602" lon="12.803833731706927"><ele>33.5</ele><time>2026-05-01T13:37:05Z</time></trkpt><trkpt lat="43.85405777744648" lon="12.804229281348068"><ele>33.0</ele><time>2026-05-01T13:37:06Z</time></trkpt><trkpt lat="43.85418993888375" lon="12.80462401269084"><ele>32.5</ele><time>2026-05-01T13:37:07Z</time></trkpt><trkpt lat="43.85432306524983" lon="12.805021874643156"><ele>32.0</ele><time>2026-05-01T13:37:08Z</time></trkpt><trkpt lat="43.85445533102956" lon="12.805415765239115"><ele>32.0</ele><time>2026-05-01T13:37:09Z</time></trkpt><trkpt lat="43.854586764519965" lon="12.805805702647042"><ele>32.0</ele><time>2026-05-01T13:37:10Z</time></trkpt><trkpt lat="43.85471671672589" lon="12.8061861708005"><ele>33.0</ele><time>2026-05-01T13:37:11Z</time></trkpt><trkpt lat="43.8548537592245" lon="12.806559424131704"><ele>34.0</ele><time>2026-05-01T13:37:12Z</time></trkpt><trkpt lat="43.85500096417363" lon="12.80692225784038"><ele>34.5</ele><time>2026-05-01T13:37:13Z</time></trkpt><trkpt lat="43.85516885588095" lon="12.807270231100036"><ele>35.0</ele><time>2026-05-01T13:37:14Z</time></trkpt><trkpt lat="43.85535703803067" lon="12.807594734497421"><ele>34.0</ele><time>2026-05-01T13:37:15Z</time></trkpt><trkpt lat="43.855555739885666" lon="12.807907809913573"><ele>33.0</ele><time>2026-05-01T13:37:16Z</time></trkpt><trkpt lat="43.855760865497146" lon="12.808216568958432"><ele>32.5</ele><time>2026-05-01T13:37:17Z</time></trkpt><trkpt lat="43.855966370013064" lon="12.808525016442767"><ele>32.0</ele><time>2026-05-01T13:37:18Z</time></trkpt><trkpt lat="43.856173410577405" lon="12.808838830477773"><ele>32.0</ele><time>2026-05-01T13:37:19Z</time></trkpt><trkpt lat="43.856381292836595" lon="12.80915510193176"><ele>32.0</ele><time>2026-05-01T13:37:20Z</time></trkpt><trkpt lat="43.85659257128549" lon="12.809470650927123"><ele>32.0</ele><time>2026-05-01T13:37:21Z</time></trkpt><trkpt lat="43.85681000548502" lon="12.80978460802008"><ele>32.0</ele><time>2026-05-01T13:37:22Z</time></trkpt><trkpt lat="43.85702951316958" lon="12.81009966403453"><ele>32.0</ele><time>2026-05-01T13:37:23Z</time></trkpt><trkpt lat="43.8572522000263" lon="12.810417238350794"><ele>32.0</ele><time>2026-05-01T13:37:24Z</time></trkpt><trkpt lat="43.857467665221954" lon="12.810727506962026"><ele>33.0</ele><time>2026-05-01T13:37:25Z</time></trkpt><trkpt lat="43.857666486100186" lon="12.811017131141838"><ele>34.0</ele><time>2026-05-01T13:37:26Z</time></trkpt><trkpt lat="43.8578502909519" lon="12.811292818970479"><ele>34.0</ele><time>2026-05-01T13:37:27Z</time></trkpt><trkpt lat="43.8580293757299" lon="12.811559806362663"><ele>34.0</ele><time>2026-05-01T13:37:28Z</time></trkpt><trkpt lat="43.8582080431167" lon="12.811826920520401"><ele>33.0</ele><time>2026-05-01T13:37:29Z</time></trkpt><trkpt lat="43.858384109534235" lon="12.812095472452613"><ele>32.0</ele><time>2026-05-01T13:37:30Z</time></trkpt><trkpt lat="43.85856111038647" lon="12.812359342068282"><ele>31.5</ele><time>2026-05-01T13:37:31Z</time></trkpt><trkpt lat="43.85873514502543" lon="12.812620731493707"><ele>31.0</ele><time>2026-05-01T13:37:32Z</time></trkpt><trkpt lat="43.858894805721896" lon="12.812869183224441"><ele>32.5</ele><time>2026-05-01T13:37:33Z</time></trkpt><trkpt lat="43.85904365219117" lon="12.81311062250695"><ele>34.0</ele><time>2026-05-01T13:37:34Z</time></trkpt><trkpt lat="43.8591898127906" lon="12.813354693047437"><ele>32.5</ele><time>2026-05-01T13:37:35Z</time></trkpt><trkpt lat="43.85932972975984" lon="12.813609631557302"><ele>31.0</ele><time>2026-05-01T13:37:36Z</time></trkpt><trkpt lat="43.859462153833356" lon="12.813865745538118"><ele>31.0</ele><time>2026-05-01T13:37:37Z</time></trkpt><trkpt lat="43.85959189032667" lon="12.814108183046251"><ele>31.0</ele><time>2026-05-01T13:37:38Z</time></trkpt><trkpt lat="43.85972685217914" lon="12.814355963563601"><ele>31.0</ele><time>2026-05-01T13:37:39Z</time></trkpt><trkpt lat="43.859861339167445" lon="12.814616411805755"><ele>31.5</ele><time>2026-05-01T13:37:40Z</time></trkpt><trkpt lat="43.859993227299455" lon="12.81488357762175"><ele>32.0</ele><time>2026-05-01T13:37:41Z</time></trkpt><trkpt lat="43.860126613123356" lon="12.81515178913362"><ele>31.0</ele><time>2026-05-01T13:37:42Z</time></trkpt><trkpt lat="43.860261873367264" lon="12.815422962505927"><ele>30.0</ele><time>2026-05-01T13:37:43Z</time></trkpt><trkpt lat="43.86039881101932" lon="12.815692689713776"><ele>30.0</ele><time>2026-05-01T13:37:44Z</time></trkpt><trkpt lat="43.86053426612191" lon="12.815959676701588"><ele>30.0</ele><time>2026-05-01T13:37:45Z</time></trkpt><trkpt lat="43.86066083265245" lon="12.816216376272891"><ele>30.333333333333336</ele><time>2026-05-01T13:37:46Z</time></trkpt><trkpt lat="43.860777427418306" lon="12.8164635753751"><ele>30.666666666666668</ele><time>2026-05-01T13:37:47Z</time></trkpt><trkpt lat="43.860887724268174" lon="12.816696973668405"><ele>31.0</ele><time>2026-05-01T13:37:48Z</time></trkpt><trkpt lat="43.86098181670797" lon="12.816902295280048"><ele>30.25</ele><time>2026-05-01T13:37:49Z</time></trkpt><trkpt lat="43.861059154004614" lon="12.817086867437302"><ele>29.5</ele><time>2026-05-01T13:37:50Z</time></trkpt><trkpt lat="43.861124446262885" lon="12.81724999537803"><ele>28.75</ele><time>2026-05-01T13:37:51Z</time></trkpt><trkpt lat="43.86117097799685" lon="12.817383229437537"><ele>28.0</ele><time>2026-05-01T13:37:52Z</time></trkpt><trkpt lat="43.86119842040952" lon="12.817480532376353"><ele>28.0</ele><time>2026-05-01T13:37:53Z</time></trkpt><trkpt lat="43.861199155048084" lon="12.81764251017541"><ele>27.999999999999996</ele><time>2026-05-01T13:37:55Z</time></trkpt><trkpt lat="43.861189643862716" lon="12.817743977652103"><ele>27.999999999999996</ele><time>2026-05-01T13:37:56Z</time></trkpt><trkpt lat="43.861203873876256" lon="12.817859550751889"><ele>28.0</ele><time>2026-05-01T13:37:57Z</time></trkpt><trkpt lat="43.86125358417682" lon="12.817973798542234"><ele>28.0</ele><time>2026-05-01T13:37:58Z</time></trkpt><trkpt lat="43.86133235579799" lon="12.81806570577393"><ele>28.0</ele><time>2026-05-01T13:37:59Z</time></trkpt><trkpt lat="43.8614314994118" lon="12.818123855307336"><ele>28.0</ele><time>2026-05-01T13:38:00Z</time></trkpt><trkpt lat="43.86154840305912" lon="12.818167150933434"><ele>28.0</ele><time>2026-05-01T13:38:01Z</time></trkpt><trkpt lat="43.86166252549139" lon="12.818266817359039"><ele>28.0</ele><time>2026-05-01T13:38:02Z</time></trkpt><trkpt lat="43.86176302758625" lon="12.818424681679"><ele>28.666666666666668</ele><time>2026-05-01T13:38:03Z</time></trkpt><trkpt lat="43.86185678663876" lon="12.818591233372699"><ele>29.333333333333336</ele><time>2026-05-01T13:38:04Z</time></trkpt><trkpt lat="43.8619518741334" lon="12.81876324713482"><ele>30.0</ele><time>2026-05-01T13:38:05Z</time></trkpt><trkpt lat="43.862049197362815" lon="12.818943968722365"><ele>30.0</ele><time>2026-05-01T13:38:06Z</time></trkpt><trkpt lat="43.862145740090064" lon="12.819120718703653"><ele>30.0</ele><time>2026-05-01T13:38:07Z</time></trkpt><trkpt lat="43.86224165336811" lon="12.819299648798346"><ele>30.0</ele><time>2026-05-01T13:38:08Z</time></trkpt><trkpt lat="43.86233901387009" lon="12.819487446030303"><ele>30.666666666666664</ele><time>2026-05-01T13:38:09Z</time></trkpt><trkpt lat="43.862438958674545" lon="12.81968246047194"><ele>31.333333333333332</ele><time>2026-05-01T13:38:10Z</time></trkpt><trkpt lat="43.86254167885592" lon="12.81987876278146"><ele>32.0</ele><time>2026-05-01T13:38:11Z</time></trkpt><trkpt lat="43.86264212484313" lon="12.820072770226416"><ele>32.33333333333333</ele><time>2026-05-01T13:38:12Z</time></trkpt><trkpt lat="43.86274073309862" lon="12.820272689432452"><ele>32.666666666666664</ele><time>2026-05-01T13:38:13Z</time></trkpt><trkpt lat="43.86284473988555" lon="12.820472658367102"><ele>33.0</ele><time>2026-05-01T13:38:14Z</time></trkpt><trkpt lat="43.86297229269202" lon="12.820702646287799"><ele>33.0</ele><time>2026-05-01T13:38:15Z</time></trkpt><trkpt lat="43.86311913169109" lon="12.820979625389176"><ele>33.0</ele><time>2026-05-01T13:38:16Z</time></trkpt><trkpt lat="43.86327290746714" lon="12.82129645870997"><ele>33.0</ele><time>2026-05-01T13:38:17Z</time></trkpt><trkpt lat="43.863446135301366" lon="12.821660997225633"><ele>33.0</ele><time>2026-05-01T13:38:18Z</time></trkpt><trkpt lat="43.86363552411136" lon="12.82204438255398"><ele>33.0</ele><time>2026-05-01T13:38:19Z</time></trkpt><trkpt lat="43.86381350472059" lon="12.822388071028866"><ele>33.0</ele><time>2026-05-01T13:38:20Z</time></trkpt><trkpt lat="43.86398788595944" lon="12.822710990438646"><ele>32.5</ele><time>2026-05-01T13:38:21Z</time></trkpt><trkpt lat="43.86415639718348" lon="12.82301968009036"><ele>32.0</ele><time>2026-05-01T13:38:22Z</time></trkpt><trkpt lat="43.86432403487029" lon="12.823315985584351"><ele>31.0</ele><time>2026-05-01T13:38:23Z</time></trkpt><trkpt lat="43.864491325774246" lon="12.823598505827828"><ele>30.0</ele><time>2026-05-01T13:38:24Z</time></trkpt><trkpt lat="43.86465366550413" lon="12.823880593874405"><ele>30.0</ele><time>2026-05-01T13:38:25Z</time></trkpt><trkpt lat="43.864816142985156" lon="12.824162077197949"><ele>30.0</ele><time>2026-05-01T13:38:26Z</time></trkpt><trkpt lat="43.86497782200728" lon="12.824441202732858"><ele>30.0</ele><time>2026-05-01T13:38:27Z</time></trkpt><trkpt lat="43.8651375739004" lon="12.824717070840917"><ele>30.0</ele><time>2026-05-01T13:38:28Z</time></trkpt><trkpt lat="43.86529653938373" lon="12.824988566747646"><ele>30.0</ele><time>2026-05-01T13:38:29Z</time></trkpt><trkpt lat="43.86545367949247" lon="12.82525749725488"><ele>30.0</ele><time>2026-05-01T13:38:30Z</time></trkpt><trkpt lat="43.86560615671234" lon="12.825515191278093"><ele>30.0</ele><time>2026-05-01T13:38:31Z</time></trkpt><trkpt lat="43.86574913084989" lon="12.825750385023483"><ele>30.0</ele><time>2026-05-01T13:38:32Z</time></trkpt><trkpt lat="43.86588550686539" lon="12.825979100115646"><ele>30.0</ele><time>2026-05-01T13:38:33Z</time></trkpt><trkpt lat="43.86601232466613" lon="12.826199861795066"><ele>29.333333333333336</ele><time>2026-05-01T13:38:34Z</time></trkpt><trkpt lat="43.86613304468218" lon="12.826402609351868"><ele>28.666666666666668</ele><time>2026-05-01T13:38:35Z</time></trkpt><trkpt lat="43.86625012519368" lon="12.826596108059672"><ele>28.0</ele><time>2026-05-01T13:38:36Z</time></trkpt><trkpt lat="43.866357278944314" lon="12.826783901822187"><ele>28.0</ele><time>2026-05-01T13:38:37Z</time></trkpt><trkpt lat="43.86645915364714" lon="12.82696649022102"><ele>28.0</ele><time>2026-05-01T13:38:38Z</time></trkpt><trkpt lat="43.86656065126873" lon="12.827139094988336"><ele>28.0</ele><time>2026-05-01T13:38:39Z</time></trkpt><trkpt lat="43.866662883191424" lon="12.827314336730382"><ele>28.0</ele><time>2026-05-01T13:38:40Z</time></trkpt><trkpt lat="43.8667620266918" lon="12.827490134100472"><ele>28.0</ele><time>2026-05-01T13:38:41Z</time></trkpt><trkpt lat="43.866862257854464" lon="12.82766230368434"><ele>28.0</ele><time>2026-05-01T13:38:42Z</time></trkpt><trkpt lat="43.86695996245796" lon="12.827830186820234"><ele>28.333333333333336</ele><time>2026-05-01T13:38:43Z</time></trkpt><trkpt lat="43.867057972336944" lon="12.82799820362622"><ele>28.666666666666664</ele><time>2026-05-01T13:38:44Z</time></trkpt><trkpt lat="43.867157268025395" lon="12.828170227773663"><ele>29.0</ele><time>2026-05-01T13:38:45Z</time></trkpt><trkpt lat="43.8672564708135" lon="12.828344071309903"><ele>28.666666666666664</ele><time>2026-05-01T13:38:46Z</time></trkpt><trkpt lat="43.86735615739398" lon="12.8285192993285"><ele>28.333333333333336</ele><time>2026-05-01T13:38:47Z</time></trkpt><trkpt lat="43.867457148203734" lon="12.828695739496643"><ele>28.0</ele><time>2026-05-01T13:38:48Z</time></trkpt><trkpt lat="43.867559349342265" lon="12.828870500808653"><ele>28.0</ele><time>2026-05-01T13:38:49Z</time></trkpt><trkpt lat="43.8676624109268" lon="12.829042733061069"><ele>28.0</ele><time>2026-05-01T13:38:50Z</time></trkpt><trkpt lat="43.867762691436845" lon="12.829219890601196"><ele>28.0</ele><time>2026-05-01T13:38:51Z</time></trkpt><trkpt lat="43.86786295206385" lon="12.829401542815388"><ele>28.0</ele><time>2026-05-01T13:38:52Z</time></trkpt><trkpt lat="43.867967042094584" lon="12.829585711740549"><ele>28.0</ele><time>2026-05-01T13:38:53Z</time></trkpt><trkpt lat="43.86807192961075" lon="12.829768605868768"><ele>28.0</ele><time>2026-05-01T13:38:54Z</time></trkpt><trkpt lat="43.868178363339226" lon="12.829946715448584"><ele>28.0</ele><time>2026-05-01T13:38:55Z</time></trkpt><trkpt lat="43.868281588318844" lon="12.830127428607431"><ele>28.0</ele><time>2026-05-01T13:38:56Z</time></trkpt><trkpt lat="43.86838488007717" lon="12.830309815994598"><ele>28.0</ele><time>2026-05-01T13:38:57Z</time></trkpt><trkpt lat="43.86849138607884" lon="12.83048987555981"><ele>27.666666666666668</ele><time>2026-05-01T13:38:58Z</time></trkpt><trkpt lat="43.86859533780423" lon="12.83067011960375"><ele>27.333333333333336</ele><time>2026-05-01T13:38:59Z</time></trkpt><trkpt lat="43.86870016302004" lon="12.830848510525836"><ele>27.0</ele><time>2026-05-01T13:39:00Z</time></trkpt><trkpt lat="43.86880583335823" lon="12.831030844480688"><ele>27.0</ele><time>2026-05-01T13:39:01Z</time></trkpt><trkpt lat="43.86891296115079" lon="12.831213803057551"><ele>27.0</ele><time>2026-05-01T13:39:02Z</time></trkpt><trkpt lat="43.8690193775156" lon="12.8314007620688"><ele>27.0</ele><time>2026-05-01T13:39:03Z</time></trkpt><trkpt lat="43.869125887561914" lon="12.83159184100352"><ele>27.0</ele><time>2026-05-01T13:39:04Z</time></trkpt><trkpt lat="43.869234319516764" lon="12.831785742652858"><ele>27.0</ele><time>2026-05-01T13:39:05Z</time></trkpt><trkpt lat="43.86934522696704" lon="12.83198169685349"><ele>27.0</ele><time>2026-05-01T13:39:06Z</time></trkpt><trkpt lat="43.869453572041124" lon="12.832184795856671"><ele>27.333333333333336</ele><time>2026-05-01T13:39:07Z</time></trkpt><trkpt lat="43.869560095750096" lon="12.832400058117619"><ele>27.666666666666668</ele><time>2026-05-01T13:39:08Z</time></trkpt><trkpt lat="43.869677677917096" lon="12.83264533854296"><ele>28.0</ele><time>2026-05-01T13:39:09Z</time></trkpt><trkpt lat="43.869805622149656" lon="12.832904587010118"><ele>27.0</ele><time>2026-05-01T13:39:10Z</time></trkpt><trkpt lat="43.869956460127746" lon="12.833191720954595"><ele>26.0</ele><time>2026-05-01T13:39:11Z</time></trkpt><trkpt lat="43.87010785094284" lon="12.833493708898942"><ele>28.0</ele><time>2026-05-01T13:39:12Z</time></trkpt><trkpt lat="43.870261812708144" lon="12.833803595970956"><ele>30.0</ele><time>2026-05-01T13:39:13Z</time></trkpt><trkpt lat="43.87042239972942" lon="12.834120104149774"><ele>30.5</ele><time>2026-05-01T13:39:14Z</time></trkpt><trkpt lat="43.8705772982465" lon="12.834432772110898"><ele>31.0</ele><time>2026-05-01T13:39:15Z</time></trkpt><trkpt lat="43.87073115612618" lon="12.834736697885912"><ele>31.0</ele><time>2026-05-01T13:39:16Z</time></trkpt><trkpt lat="43.87088128717332" lon="12.835037197231209"><ele>31.0</ele><time>2026-05-01T13:39:17Z</time></trkpt><trkpt lat="43.8710277922663" lon="12.835331352197182"><ele>28.0</ele><time>2026-05-01T13:39:18Z</time></trkpt><trkpt lat="43.87117347779951" lon="12.835615728480754"><ele>25.0</ele><time>2026-05-01T13:39:19Z</time></trkpt><trkpt lat="43.871316754984846" lon="12.835890980417439"><ele>25.0</ele><time>2026-05-01T13:39:20Z</time></trkpt><trkpt lat="43.87145601463408" lon="12.836160879846936"><ele>25.0</ele><time>2026-05-01T13:39:21Z</time></trkpt><trkpt lat="43.87158824723615" lon="12.836429323464056"><ele>25.0</ele><time>2026-05-01T13:39:22.001Z</time></trkpt><trkpt lat="43.87171822238161" lon="12.836691236440213"><ele>25.0</ele><time>2026-05-01T13:39:23.001Z</time></trkpt><trkpt lat="43.87184013858912" lon="12.836933869045248"><ele>25.0</ele><time>2026-05-01T13:39:24.001Z</time></trkpt><trkpt lat="43.871954158701335" lon="12.837168670071431"><ele>25.0</ele><time>2026-05-01T13:39:25.001Z</time></trkpt><trkpt lat="43.87206616583331" lon="12.83739234299585"><ele>25.0</ele><time>2026-05-01T13:39:26.001Z</time></trkpt><trkpt lat="43.87217901119155" lon="12.837613297230675"><ele>25.0</ele><time>2026-05-01T13:39:27.001Z</time></trkpt><trkpt lat="43.87229090997584" lon="12.837843325712631"><ele>25.0</ele><time>2026-05-01T13:39:28.001Z</time></trkpt><trkpt lat="43.87240397238276" lon="12.838070805920413"><ele>25.0</ele><time>2026-05-01T13:39:29.001Z</time></trkpt><trkpt lat="43.87252051364962" lon="12.83829939384065"><ele>25.0</ele><time>2026-05-01T13:39:30.001Z</time></trkpt><trkpt lat="43.87264203038366" lon="12.838531835734404"><ele>24.5</ele><time>2026-05-01T13:39:31.001Z</time></trkpt><trkpt lat="43.872770224952355" lon="12.838773732473216"><ele>24.0</ele><time>2026-05-01T13:39:32Z</time></trkpt><trkpt lat="43.87290756677041" lon="12.83904220079315"><ele>25.5</ele><time>2026-05-01T13:39:33Z</time></trkpt><trkpt lat="43.873052285287244" lon="12.839328014335983"><ele>27.0</ele><time>2026-05-01T13:39:34Z</time></trkpt><trkpt lat="43.8732036084043" lon="12.839626209637164"><ele>27.0</ele><time>2026-05-01T13:39:35Z</time></trkpt><trkpt lat="43.87335868012361" lon="12.839929942463321"><ele>27.0</ele><time>2026-05-01T13:39:36Z</time></trkpt><trkpt lat="43.87351697551048" lon="12.840240371763542"><ele>27.5</ele><time>2026-05-01T13:39:37Z</time></trkpt><trkpt lat="43.87366850794814" lon="12.840530262743773"><ele>28.0</ele><time>2026-05-01T13:39:38Z</time></trkpt><trkpt lat="43.87381812196741" lon="12.840812393967761"><ele>27.0</ele><time>2026-05-01T13:39:39Z</time></trkpt><trkpt lat="43.87396900134245" lon="12.8410916980765"><ele>26.0</ele><time>2026-05-01T13:39:40Z</time></trkpt><trkpt lat="43.87411470228356" lon="12.841360402515946"><ele>26.0</ele><time>2026-05-01T13:39:41Z</time></trkpt><trkpt lat="43.87425188089011" lon="12.841610687735557"><ele>26.0</ele><time>2026-05-01T13:39:42Z</time></trkpt><trkpt lat="43.87438203678946" lon="12.841848526464506"><ele>26.0</ele><time>2026-05-01T13:39:43Z</time></trkpt><trkpt lat="43.87450749245893" lon="12.842077265116108"><ele>26.0</ele><time>2026-05-01T13:39:44Z</time></trkpt><trkpt lat="43.874630240400656" lon="12.84229990301698"><ele>26.0</ele><time>2026-05-01T13:39:45Z</time></trkpt><trkpt lat="43.8747502721196" lon="12.842524070219422"><ele>26.0</ele><time>2026-05-01T13:39:46Z</time></trkpt><trkpt lat="43.87486930430031" lon="12.842751920218141"><ele>26.0</ele><time>2026-05-01T13:39:47Z</time></trkpt><trkpt lat="43.87499690393155" lon="12.842986324283498"><ele>26.0</ele><time>2026-05-01T13:39:48Z</time></trkpt><trkpt lat="43.87512988010475" lon="12.843224739040974"><ele>26.0</ele><time>2026-05-01T13:39:49Z</time></trkpt><trkpt lat="43.87526570547495" lon="12.843465297138982"><ele>25.333333333333332</ele><time>2026-05-01T13:39:50Z</time></trkpt><trkpt lat="43.87539981440722" lon="12.843705441744389"><ele>24.666666666666664</ele><time>2026-05-01T13:39:51Z</time></trkpt><trkpt lat="43.87552971162833" lon="12.843944643562784"><ele>24.0</ele><time>2026-05-01T13:39:52Z</time></trkpt><trkpt lat="43.87565686847271" lon="12.844180641874875"><ele>24.0</ele><time>2026-05-01T13:39:53Z</time></trkpt><trkpt lat="43.87579006463332" lon="12.844423157330342"><ele>24.0</ele><time>2026-05-01T13:39:54Z</time></trkpt><trkpt lat="43.875925583075976" lon="12.844671071104745"><ele>24.0</ele><time>2026-05-01T13:39:55Z</time></trkpt><trkpt lat="43.876064677673966" lon="12.844925142037265"><ele>23.5</ele><time>2026-05-01T13:39:56Z</time></trkpt><trkpt lat="43.8762008386115" lon="12.84518437611362"><ele>23.0</ele><time>2026-05-01T13:39:57Z</time></trkpt><trkpt lat="43.876334529143215" lon="12.845449817997613"><ele>23.0</ele><time>2026-05-01T13:39:58Z</time></trkpt><trkpt lat="43.87646906882562" lon="12.845719754903923"><ele>23.0</ele><time>2026-05-01T13:39:59Z</time></trkpt><trkpt lat="43.87661402166487" lon="12.845994264518065"><ele>23.0</ele><time>2026-05-01T13:40:00Z</time></trkpt><trkpt lat="43.87676001682468" lon="12.846262280301387"><ele>23.0</ele><time>2026-05-01T13:40:01Z</time></trkpt><trkpt lat="43.87690929067211" lon="12.846530731306718"><ele>22.5</ele><time>2026-05-01T13:40:02Z</time></trkpt><trkpt lat="43.87705673685939" lon="12.846802768560035"><ele>22.0</ele><time>2026-05-01T13:40:03Z</time></trkpt><trkpt lat="43.87720439515138" lon="12.847079448872085"><ele>22.0</ele><time>2026-05-01T13:40:04Z</time></trkpt><trkpt lat="43.87735576601794" lon="12.84735979587812"><ele>22.0</ele><time>2026-05-01T13:40:05Z</time></trkpt><trkpt lat="43.87750875611623" lon="12.84764794395885"><ele>22.5</ele><time>2026-05-01T13:40:06Z</time></trkpt><trkpt lat="43.87766732066216" lon="12.847938520445918"><ele>23.0</ele><time>2026-05-01T13:40:07Z</time></trkpt><trkpt lat="43.87783133702843" lon="12.848235188657718"><ele>23.0</ele><time>2026-05-01T13:40:08Z</time></trkpt><trkpt lat="43.87799788588241" lon="12.84853694742827"><ele>23.0</ele><time>2026-05-01T13:40:09Z</time></trkpt><trkpt lat="43.878164516398826" lon="12.84884129104881"><ele>23.0</ele><time>2026-05-01T13:40:10Z</time></trkpt><trkpt lat="43.87833146422308" lon="12.849146738581908"><ele>23.0</ele><time>2026-05-01T13:40:11Z</time></trkpt><trkpt lat="43.87849727289279" lon="12.849451684347768"><ele>24.5</ele><time>2026-05-01T13:40:12Z</time></trkpt><trkpt lat="43.878665039715926" lon="12.849751367873136"><ele>26.0</ele><time>2026-05-01T13:40:13Z</time></trkpt><trkpt lat="43.87883044178427" lon="12.850054268711592"><ele>26.5</ele><time>2026-05-01T13:40:14Z</time></trkpt><trkpt lat="43.878995705555496" lon="12.8503536499132"><ele>27.0</ele><time>2026-05-01T13:40:15Z</time></trkpt><trkpt lat="43.87916070994619" lon="12.850652831006409"><ele>24.5</ele><time>2026-05-01T13:40:16Z</time></trkpt><trkpt lat="43.87932133472969" lon="12.850952757135596"><ele>22.0</ele><time>2026-05-01T13:40:17Z</time></trkpt><trkpt lat="43.87948284374087" lon="12.851250988172493"><ele>22.0</ele><time>2026-05-01T13:40:18Z</time></trkpt><trkpt lat="43.87964481179931" lon="12.851550152094878"><ele>22.0</ele><time>2026-05-01T13:40:19Z</time></trkpt><trkpt lat="43.87980760711814" lon="12.851851797231072"><ele>22.0</ele><time>2026-05-01T13:40:20Z</time></trkpt><trkpt lat="43.87997040486817" lon="12.85215667561513"><ele>22.0</ele><time>2026-05-01T13:40:21Z</time></trkpt><trkpt lat="43.88013391895854" lon="12.852461651236714"><ele>21.0</ele><time>2026-05-01T13:40:22Z</time></trkpt><trkpt lat="43.88029687129704" lon="12.852768203707381"><ele>20.0</ele><time>2026-05-01T13:40:23Z</time></trkpt><trkpt lat="43.88045940572764" lon="12.853076521554286"><ele>20.0</ele><time>2026-05-01T13:40:24Z</time></trkpt><trkpt lat="43.88062839632698" lon="12.85337902000432"><ele>20.0</ele><time>2026-05-01T13:40:25Z</time></trkpt><trkpt lat="43.88079409946036" lon="12.853687246972223"><ele>21.0</ele><time>2026-05-01T13:40:26Z</time></trkpt><trkpt lat="43.880960704407364" lon="12.853993990913972"><ele>22.0</ele><time>2026-05-01T13:40:27Z</time></trkpt><trkpt lat="43.8811292016183" lon="12.85430411673138"><ele>22.5</ele><time>2026-05-01T13:40:28Z</time></trkpt><trkpt lat="43.881303918070024" lon="12.854613515579455"><ele>23.0</ele><time>2026-05-01T13:40:29Z</time></trkpt><trkpt lat="43.88147554607914" lon="12.854926063882601"><ele>22.5</ele><time>2026-05-01T13:40:30Z</time></trkpt><trkpt lat="43.88164513164381" lon="12.855238826884074"><ele>22.0</ele><time>2026-05-01T13:40:31Z</time></trkpt><trkpt lat="43.881815377205314" lon="12.855549935677528"><ele>22.0</ele><time>2026-05-01T13:40:32Z</time></trkpt><trkpt lat="43.88198153668693" lon="12.85586281572982"><ele>22.0</ele><time>2026-05-01T13:40:33Z</time></trkpt><trkpt lat="43.88214587452109" lon="12.856175061706509"><ele>22.5</ele><time>2026-05-01T13:40:34Z</time></trkpt><trkpt lat="43.882320767443574" lon="12.856491101345469"><ele>23.0</ele><time>2026-05-01T13:40:35Z</time></trkpt><trkpt lat="43.882489257535326" lon="12.85680743851237"><ele>22.0</ele><time>2026-05-01T13:40:36Z</time></trkpt><trkpt lat="43.882661483038284" lon="12.85712120852149"><ele>21.0</ele><time>2026-05-01T13:40:37Z</time></trkpt><trkpt lat="43.88283953992222" lon="12.857434216305458"><ele>21.0</ele><time>2026-05-01T13:40:38Z</time></trkpt><trkpt lat="43.88300883277946" lon="12.857744843429167"><ele>21.0</ele><time>2026-05-01T13:40:39Z</time></trkpt><trkpt lat="43.88317442150214" lon="12.858048693127488"><ele>21.0</ele><time>2026-05-01T13:40:40Z</time></trkpt><trkpt lat="43.88333847979199" lon="12.858348747414652"><ele>21.0</ele><time>2026-05-01T13:40:41Z</time></trkpt><trkpt lat="43.88349353330452" lon="12.858636051948466"><ele>21.5</ele><time>2026-05-01T13:40:42Z</time></trkpt><trkpt lat="43.88363955919999" lon="12.858907895014879"><ele>22.0</ele><time>2026-05-01T13:40:43Z</time></trkpt><trkpt lat="43.88377855696141" lon="12.859164380316653"><ele>21.333333333333332</ele><time>2026-05-01T13:40:44Z</time></trkpt><trkpt lat="43.88391202583193" lon="12.859406130314378"><ele>20.666666666666668</ele><time>2026-05-01T13:40:45Z</time></trkpt><trkpt lat="43.88404150925708" lon="12.859634515074214"><ele>20.0</ele><time>2026-05-01T13:40:46Z</time></trkpt><trkpt lat="43.88416841464621" lon="12.859860781070857"><ele>20.0</ele><time>2026-05-01T13:40:47Z</time></trkpt><trkpt lat="43.88429158273927" lon="12.86008589739864"><ele>20.0</ele><time>2026-05-01T13:40:48Z</time></trkpt><trkpt lat="43.88440365514176" lon="12.860310246249904"><ele>20.0</ele><time>2026-05-01T13:40:49Z</time></trkpt><trkpt lat="43.884510272698805" lon="12.860522106977589"><ele>20.333333333333336</ele><time>2026-05-01T13:40:50Z</time></trkpt><trkpt lat="43.884613717533675" lon="12.860723746536875"><ele>20.666666666666668</ele><time>2026-05-01T13:40:51Z</time></trkpt><trkpt lat="43.88470762870541" lon="12.86092420082237"><ele>21.0</ele><time>2026-05-01T13:40:52Z</time></trkpt><trkpt lat="43.884799135803384" lon="12.861131633306718"><ele>21.0</ele><time>2026-05-01T13:40:53Z</time></trkpt><trkpt lat="43.88485059263225" lon="12.861352376075986"><ele>21.0</ele><time>2026-05-01T13:40:54Z</time></trkpt><trkpt lat="43.8848800374122" lon="12.861546622185497"><ele>21.0</ele><time>2026-05-01T13:40:55Z</time></trkpt><trkpt lat="43.884945431076645" lon="12.861710408815144"><ele>21.0</ele><time>2026-05-01T13:40:56Z</time></trkpt><trkpt lat="43.88506054169949" lon="12.861860470822673"><ele>20.333333333333332</ele><time>2026-05-01T13:40:57Z</time></trkpt><trkpt lat="43.885203869342654" lon="12.861983996753612"><ele>19.666666666666664</ele><time>2026-05-01T13:40:58Z</time></trkpt><trkpt lat="43.88534956969258" lon="12.862152748090669"><ele>19.0</ele><time>2026-05-01T13:40:59Z</time></trkpt><trkpt lat="43.88547699070329" lon="12.862371173071889"><ele>19.0</ele><time>2026-05-01T13:41:00Z</time></trkpt><trkpt lat="43.88561175411992" lon="12.862591476474385"><ele>19.0</ele><time>2026-05-01T13:41:01Z</time></trkpt><trkpt lat="43.8857407179418" lon="12.862809749511856"><ele>19.0</ele><time>2026-05-01T13:41:02Z</time></trkpt><trkpt lat="43.88587182815529" lon="12.863038897679598"><ele>19.0</ele><time>2026-05-01T13:41:03Z</time></trkpt><trkpt lat="43.88600808132737" lon="12.863276770063377"><ele>19.0</ele><time>2026-05-01T13:41:04Z</time></trkpt><trkpt lat="43.8861475438661" lon="12.863522466811512"><ele>19.0</ele><time>2026-05-01T13:41:05Z</time></trkpt><trkpt lat="43.88628534792799" lon="12.863779423769682"><ele>19.0</ele><time>2026-05-01T13:41:06Z</time></trkpt><trkpt lat="43.8864142530847" lon="12.8640367579658"><ele>19.0</ele><time>2026-05-01T13:41:07Z</time></trkpt><trkpt lat="43.886538690127104" lon="12.864304210097314"><ele>18.5</ele><time>2026-05-01T13:41:08Z</time></trkpt><trkpt lat="43.88665941910489" lon="12.864578423088703"><ele>18.0</ele><time>2026-05-01T13:41:09Z</time></trkpt><trkpt lat="43.88677544177187" lon="12.864862823579196"><ele>18.0</ele><time>2026-05-01T13:41:10Z</time></trkpt><trkpt lat="43.886888801588924" lon="12.865153141039656"><ele>18.0</ele><time>2026-05-01T13:41:11Z</time></trkpt><trkpt lat="43.886997694615346" lon="12.865444893880236"><ele>18.0</ele><time>2026-05-01T13:41:12Z</time></trkpt><trkpt lat="43.88710653472123" lon="12.865736111989552"><ele>18.0</ele><time>2026-05-01T13:41:13Z</time></trkpt><trkpt lat="43.887213902139145" lon="12.866027516092407"><ele>17.5</ele><time>2026-05-01T13:41:14.001Z</time></trkpt><trkpt lat="43.88732248246295" lon="12.866317972382436"><ele>17.0</ele><time>2026-05-01T13:41:15.001Z</time></trkpt><trkpt lat="43.88743193201922" lon="12.866608347676284"><ele>16.5</ele><time>2026-05-01T13:41:16.001Z</time></trkpt><trkpt lat="43.887540168967284" lon="12.866895869053101"><ele>16.0</ele><time>2026-05-01T13:41:17.001Z</time></trkpt><trkpt lat="43.8876428054752" lon="12.867172399258772"><ele>15.666666666666666</ele><time>2026-05-01T13:41:18.001Z</time></trkpt><trkpt lat="43.88773872480003" lon="12.867429716968319"><ele>15.333333333333332</ele><time>2026-05-01T13:41:19.001Z</time></trkpt><trkpt lat="43.8878236475113" lon="12.867663341296801"><ele>15.0</ele><time>2026-05-01T13:41:20.001Z</time></trkpt><trkpt lat="43.887901619991155" lon="12.867889888285621"><ele>15.666666666666668</ele><time>2026-05-01T13:41:21.001Z</time></trkpt><trkpt lat="43.88797618760197" lon="12.868102823951897"><ele>16.333333333333336</ele><time>2026-05-01T13:41:22.001Z</time></trkpt><trkpt lat="43.88804591626209" lon="12.868304583660564"><ele>17.0</ele><time>2026-05-01T13:41:23.001Z</time></trkpt><trkpt lat="43.88810449220809" lon="12.868497791453104"><ele>17.0</ele><time>2026-05-01T13:41:24.001Z</time></trkpt><trkpt lat="43.88813723825258" lon="12.868681094020616"><ele>17.0</ele><time>2026-05-01T13:41:25.001Z</time></trkpt><trkpt lat="43.88813525737805" lon="12.868849979180125"><ele>17.0</ele><time>2026-05-01T13:41:26.001Z</time></trkpt><trkpt lat="43.88812072739991" lon="12.86900818080241"><ele>17.0</ele><time>2026-05-01T13:41:27.001Z</time></trkpt><trkpt lat="43.888133147900945" lon="12.869164555258218"><ele>17.0</ele><time>2026-05-01T13:41:28.001Z</time></trkpt><trkpt lat="43.88819802156479" lon="12.86930564775021"><ele>17.0</ele><time>2026-05-01T13:41:29.001Z</time></trkpt><trkpt lat="43.888298877944834" lon="12.869415881425754"><ele>17.0</ele><time>2026-05-01T13:41:30.001Z</time></trkpt><trkpt lat="43.88841917741368" lon="12.86951150240583"><ele>17.0</ele><time>2026-05-01T13:41:31.001Z</time></trkpt><trkpt lat="43.88853264515875" lon="12.869641542806006"><ele>16.666666666666668</ele><time>2026-05-01T13:41:32.001Z</time></trkpt><trkpt lat="43.8886271519887" lon="12.869811340827647"><ele>16.333333333333332</ele><time>2026-05-01T13:41:33.001Z</time></trkpt><trkpt lat="43.88871108427528" lon="12.870012652555376"><ele>16.0</ele><time>2026-05-01T13:41:34.001Z</time></trkpt><trkpt lat="43.88879497703888" lon="12.870232401383873"><ele>16.333333333333332</ele><time>2026-05-01T13:41:35.001Z</time></trkpt><trkpt lat="43.88887938450619" lon="12.870466265742273"><ele>16.666666666666668</ele><time>2026-05-01T13:41:36.001Z</time></trkpt><trkpt lat="43.88896954210379" lon="12.870714528279658"><ele>17.0</ele><time>2026-05-01T13:41:37.001Z</time></trkpt><trkpt lat="43.889063503753576" lon="12.870964171405893"><ele>17.0</ele><time>2026-05-01T13:41:38Z</time></trkpt><trkpt lat="43.8891565386725" lon="12.871213874849243"><ele>17.0</ele><time>2026-05-01T13:41:39Z</time></trkpt><trkpt lat="43.88925048007323" lon="12.871463492235556"><ele>17.0</ele><time>2026-05-01T13:41:40Z</time></trkpt><trkpt lat="43.889344152942016" lon="12.871713437338721"><ele>16.333333333333336</ele><time>2026-05-01T13:41:41Z</time></trkpt><trkpt lat="43.88943635774738" lon="12.87196240153779"><ele>15.666666666666668</ele><time>2026-05-01T13:41:42Z</time></trkpt><trkpt lat="43.889530995463716" lon="12.872215763020263"><ele>15.0</ele><time>2026-05-01T13:41:43Z</time></trkpt><trkpt lat="43.8896343238155" lon="12.872475969403665"><ele>13.666666666666666</ele><time>2026-05-01T13:41:44Z</time></trkpt><trkpt lat="43.889740589269984" lon="12.872740303970504"><ele>12.333333333333332</ele><time>2026-05-01T13:41:45Z</time></trkpt><trkpt lat="43.889845468415444" lon="12.873009596529078"><ele>11.0</ele><time>2026-05-01T13:41:46Z</time></trkpt><trkpt lat="43.889943183685695" lon="12.87328103622321"><ele>11.333333333333332</ele><time>2026-05-01T13:41:47Z</time></trkpt><trkpt lat="43.89003419159755" lon="12.873536981478605"><ele>11.666666666666666</ele><time>2026-05-01T13:41:48Z</time></trkpt><trkpt lat="43.89012600029945" lon="12.873776645728519"><ele>12.0</ele><time>2026-05-01T13:41:49Z</time></trkpt><trkpt lat="43.89021423176899" lon="12.874014009397637"><ele>12.333333333333332</ele><time>2026-05-01T13:41:50Z</time></trkpt><trkpt lat="43.890298093728" lon="12.874247747360423"><ele>12.666666666666666</ele><time>2026-05-01T13:41:51Z</time></trkpt><trkpt lat="43.8903807346826" lon="12.874475430935933"><ele>13.0</ele><time>2026-05-01T13:41:52Z</time></trkpt><trkpt lat="43.890464552679695" lon="12.874695329811848"><ele>13.0</ele><time>2026-05-01T13:41:53Z</time></trkpt><trkpt lat="43.89054994503528" lon="12.874917629871804"><ele>13.0</ele><time>2026-05-01T13:41:54Z</time></trkpt><trkpt lat="43.89063253113667" lon="12.87514436177647"><ele>13.0</ele><time>2026-05-01T13:41:55Z</time></trkpt><trkpt lat="43.89071858064328" lon="12.875369958350769"><ele>13.0</ele><time>2026-05-01T13:41:56Z</time></trkpt><trkpt lat="43.89080098923137" lon="12.875595295609434"><ele>13.0</ele><time>2026-05-01T13:41:57Z</time></trkpt><trkpt lat="43.8908779440513" lon="12.875808847132417"><ele>13.0</ele><time>2026-05-01T13:41:58Z</time></trkpt><trkpt lat="43.89095625853665" lon="12.87601777173936"><ele>13.0</ele><time>2026-05-01T13:41:59Z</time></trkpt><trkpt lat="43.89103628399172" lon="12.876228825757124"><ele>13.0</ele><time>2026-05-01T13:42:00Z</time></trkpt><trkpt lat="43.891112642553274" lon="12.876436839975069"><ele>13.0</ele><time>2026-05-01T13:42:01Z</time></trkpt><trkpt lat="43.89118849133435" lon="12.876639896588804"><ele>11.666666666666666</ele><time>2026-05-01T13:42:02Z</time></trkpt><trkpt lat="43.891264046227036" lon="12.8768421300763"><ele>10.333333333333332</ele><time>2026-05-01T13:42:03Z</time></trkpt><trkpt lat="43.89133612553259" lon="12.877048487107508"><ele>9.0</ele><time>2026-05-01T13:42:04Z</time></trkpt><trkpt lat="43.89140104873427" lon="12.877259383196096"><ele>9.0</ele><time>2026-05-01T13:42:05Z</time></trkpt><trkpt lat="43.89145466295947" lon="12.877479970404584"><ele>9.0</ele><time>2026-05-01T13:42:06Z</time></trkpt><trkpt lat="43.8914926058011" lon="12.87770521208038"><ele>9.0</ele><time>2026-05-01T13:42:07Z</time></trkpt><trkpt lat="43.891523158155074" lon="12.877926707487315"><ele>8.666666666666666</ele><time>2026-05-01T13:42:08Z</time></trkpt><trkpt lat="43.89154227861187" lon="12.87814939706504"><ele>8.333333333333332</ele><time>2026-05-01T13:42:09Z</time></trkpt><trkpt lat="43.891549543569255" lon="12.878376419661588"><ele>8.0</ele><time>2026-05-01T13:42:10Z</time></trkpt><trkpt lat="43.891548377923456" lon="12.878602847646954"><ele>9.0</ele><time>2026-05-01T13:42:11Z</time></trkpt><trkpt lat="43.89154077697161" lon="12.878829431061002"><ele>10.0</ele><time>2026-05-01T13:42:12Z</time></trkpt><trkpt lat="43.89152498224842" lon="12.879047323176211"><ele>11.0</ele><time>2026-05-01T13:42:13Z</time></trkpt><trkpt lat="43.89150126669248" lon="12.879248618819577"><ele>11.5</ele><time>2026-05-01T13:42:14Z</time></trkpt><trkpt lat="43.891468001683535" lon="12.879439177940863"><ele>12.0</ele><time>2026-05-01T13:42:15Z</time></trkpt><trkpt lat="43.89142259881958" lon="12.879631768949357"><ele>12.5</ele><time>2026-05-01T13:42:16Z</time></trkpt><trkpt lat="43.89136683971043" lon="12.87984291119331"><ele>13.0</ele><time>2026-05-01T13:42:17Z</time></trkpt><trkpt lat="43.89129994907063" lon="12.880070786515743"><ele>13.333333333333332</ele><time>2026-05-01T13:42:18Z</time></trkpt><trkpt lat="43.89122747456091" lon="12.88031911712887"><ele>13.666666666666668</ele><time>2026-05-01T13:42:19Z</time></trkpt><trkpt lat="43.891145964644394" lon="12.88058731455731"><ele>14.0</ele><time>2026-05-01T13:42:20Z</time></trkpt><trkpt lat="43.8910572938276" lon="12.880875030204678"><ele>14.666666666666668</ele><time>2026-05-01T13:42:21Z</time></trkpt><trkpt lat="43.890969893661904" lon="12.881158609300975"><ele>15.333333333333332</ele><time>2026-05-01T13:42:22Z</time></trkpt><trkpt lat="43.890875061855155" lon="12.881443955668443"><ele>16.0</ele><time>2026-05-01T13:42:23Z</time></trkpt><trkpt lat="43.890777316915596" lon="12.88173474523167"><ele>15.5</ele><time>2026-05-01T13:42:24Z</time></trkpt><trkpt lat="43.89067925390628" lon="12.882026180874172"><ele>15.0</ele><time>2026-05-01T13:42:25Z</time></trkpt><trkpt lat="43.89058354649107" lon="12.882304980631558"><ele>15.0</ele><time>2026-05-01T13:42:26Z</time></trkpt><trkpt lat="43.89049775950562" lon="12.882565233519804"><ele>15.0</ele><time>2026-05-01T13:42:27Z</time></trkpt><trkpt lat="43.8904241971979" lon="12.88281356119097"><ele>15.0</ele><time>2026-05-01T13:42:28Z</time></trkpt><trkpt lat="43.890364183107074" lon="12.88303997272324"><ele>14.666666666666668</ele><time>2026-05-01T13:42:29Z</time></trkpt><trkpt lat="43.89031604264171" lon="12.8832586687428"><ele>14.333333333333334</ele><time>2026-05-01T13:42:30Z</time></trkpt><trkpt lat="43.89027276595931" lon="12.883456179327911"><ele>14.0</ele><time>2026-05-01T13:42:31Z</time></trkpt><trkpt lat="43.890217369536906" lon="12.883636625843518"><ele>13.5</ele><time>2026-05-01T13:42:32Z</time></trkpt><trkpt lat="43.8901338026935" lon="12.883775987783359"><ele>13.0</ele><time>2026-05-01T13:42:33Z</time></trkpt><trkpt lat="43.89003158938477" lon="12.883873400236302"><ele>12.5</ele><time>2026-05-01T13:42:34Z</time></trkpt><trkpt lat="43.8899404546869" lon="12.883990484784274"><ele>12.0</ele><time>2026-05-01T13:42:35Z</time></trkpt><trkpt lat="43.88988939797287" lon="12.884165525947713"><ele>12.666666666666668</ele><time>2026-05-01T13:42:36Z</time></trkpt><trkpt lat="43.889872850276454" lon="12.884360793254704"><ele>13.333333333333334</ele><time>2026-05-01T13:42:37Z</time></trkpt><trkpt lat="43.88987925287518" lon="12.884575807139775"><ele>14.0</ele><time>2026-05-01T13:42:38Z</time></trkpt><trkpt lat="43.88987043241534" lon="12.884795558697153"><ele>14.0</ele><time>2026-05-01T13:42:39Z</time></trkpt><trkpt lat="43.88986066938169" lon="12.88502567583742"><ele>14.0</ele><time>2026-05-01T13:42:40Z</time></trkpt><trkpt lat="43.88985914247555" lon="12.885261861078966"><ele>14.0</ele><time>2026-05-01T13:42:41Z</time></trkpt><trkpt lat="43.88987137789086" lon="12.885506865690159"><ele>14.0</ele><time>2026-05-01T13:42:42Z</time></trkpt><trkpt lat="43.88990086255595" lon="12.885749488752412"><ele>14.0</ele><time>2026-05-01T13:42:43Z</time></trkpt><trkpt lat="43.889949308749436" lon="12.885984804073717"><ele>14.0</ele><time>2026-05-01T13:42:44Z</time></trkpt><trkpt lat="43.89002284629513" lon="12.886212936008612"><ele>13.666666666666668</ele><time>2026-05-01T13:42:45Z</time></trkpt><trkpt lat="43.89011383704575" lon="12.886429131069592"><ele>13.333333333333332</ele><time>2026-05-01T13:42:46Z</time></trkpt><trkpt lat="43.890220265662045" lon="12.886635069264202"><ele>13.0</ele><time>2026-05-01T13:42:47Z</time></trkpt><trkpt lat="43.89033699042629" lon="12.886826736549729"><ele>13.0</ele><time>2026-05-01T13:42:48Z</time></trkpt><trkpt lat="43.89046553983418" lon="12.887007449295204"><ele>13.0</ele><time>2026-05-01T13:42:49Z</time></trkpt><trkpt lat="43.89059930037554" lon="12.88717113084667"><ele>13.0</ele><time>2026-05-01T13:42:50Z</time></trkpt><trkpt lat="43.89071970319851" lon="12.88736191722912"><ele>13.0</ele><time>2026-05-01T13:42:51Z</time></trkpt><trkpt lat="43.89084539400717" lon="12.887529212236418"><ele>13.0</ele><time>2026-05-01T13:42:52Z</time></trkpt><trkpt lat="43.890966102190966" lon="12.887690817444643"><ele>13.0</ele><time>2026-05-01T13:42:53Z</time></trkpt><trkpt lat="43.891080866515956" lon="12.88782840939858"><ele>12.75</ele><time>2026-05-01T13:42:54Z</time></trkpt><trkpt lat="43.891169989023155" lon="12.887983574497115"><ele>12.5</ele><time>2026-05-01T13:42:55Z</time></trkpt><trkpt lat="43.89123218910739" lon="12.888161652995567"><ele>12.25</ele><time>2026-05-01T13:42:56Z</time></trkpt><trkpt lat="43.89126874982718" lon="12.88837159837778"><ele>12.0</ele><time>2026-05-01T13:42:57Z</time></trkpt><trkpt lat="43.89129689928788" lon="12.888588519298896"><ele>12.0</ele><time>2026-05-01T13:42:58Z</time></trkpt><trkpt lat="43.89131674338129" lon="12.888803313886507"><ele>12.0</ele><time>2026-05-01T13:42:59Z</time></trkpt><trkpt lat="43.89131747454199" lon="12.889001826042966"><ele>12.0</ele><time>2026-05-01T13:43:00Z</time></trkpt><trkpt lat="43.891289242833516" lon="12.88920056691831"><ele>12.0</ele><time>2026-05-01T13:43:01Z</time></trkpt><trkpt lat="43.89123278247229" lon="12.889399489051687"><ele>12.0</ele><time>2026-05-01T13:43:02Z</time></trkpt><trkpt lat="43.89116697980766" lon="12.889590616370405"><ele>12.0</ele><time>2026-05-01T13:43:03Z</time></trkpt><trkpt lat="43.89109766191436" lon="12.889782687557844"><ele>12.0</ele><time>2026-05-01T13:43:04Z</time></trkpt><trkpt lat="43.89102760888156" lon="12.889986551859346"><ele>11.666666666666666</ele><time>2026-05-01T13:43:05Z</time></trkpt><trkpt lat="43.89095807423568" lon="12.89020889535086"><ele>11.333333333333332</ele><time>2026-05-01T13:43:06Z</time></trkpt><trkpt lat="43.89088722977266" lon="12.890445643884156"><ele>11.0</ele><time>2026-05-01T13:43:07Z</time></trkpt><trkpt lat="43.890792914678386" lon="12.890674627245982"><ele>10.0</ele><time>2026-05-01T13:43:08Z</time></trkpt><trkpt lat="43.89072542672584" lon="12.890938310977553"><ele>9.0</ele><time>2026-05-01T13:43:09Z</time></trkpt><trkpt lat="43.89062069355324" lon="12.89122794247821"><ele>8.0</ele><time>2026-05-01T13:43:10Z</time></trkpt><trkpt lat="43.89052317305067" lon="12.891491110869753"><ele>8.0</ele><time>2026-05-01T13:43:11Z</time></trkpt><trkpt lat="43.89043750108064" lon="12.891738213274389"><ele>8.0</ele><time>2026-05-01T13:43:12Z</time></trkpt><trkpt lat="43.89035766088053" lon="12.891966089341189"><ele>8.0</ele><time>2026-05-01T13:43:13Z</time></trkpt><trkpt lat="43.890284304007096" lon="12.89218219896859"><ele>9.666666666666666</ele><time>2026-05-01T13:43:14Z</time></trkpt><trkpt lat="43.890216714049195" lon="12.892390718068427"><ele>11.333333333333332</ele><time>2026-05-01T13:43:15Z</time></trkpt><trkpt lat="43.89014339009604" lon="12.892591663854821"><ele>13.0</ele><time>2026-05-01T13:43:16Z</time></trkpt><trkpt lat="43.89006384747058" lon="12.892802953034304"><ele>14.0</ele><time>2026-05-01T13:43:17Z</time></trkpt><trkpt lat="43.8899860276529" lon="12.893030711283162"><ele>15.0</ele><time>2026-05-01T13:43:18Z</time></trkpt><trkpt lat="43.889910450978675" lon="12.89326807080782"><ele>16.0</ele><time>2026-05-01T13:43:19Z</time></trkpt><trkpt lat="43.88984948464053" lon="12.893507978540303"><ele>15.666666666666666</ele><time>2026-05-01T13:43:20Z</time></trkpt><trkpt lat="43.889787975810435" lon="12.893750556314473"><ele>15.333333333333332</ele><time>2026-05-01T13:43:21Z</time></trkpt><trkpt lat="43.88972811266748" lon="12.894000941930058"><ele>15.0</ele><time>2026-05-01T13:43:22Z</time></trkpt><trkpt lat="43.88967406606605" lon="12.894257796133491"><ele>15.0</ele><time>2026-05-01T13:43:23Z</time></trkpt><trkpt lat="43.8896260571475" lon="12.894521978396584"><ele>15.0</ele><time>2026-05-01T13:43:24.001Z</time></trkpt><trkpt lat="43.88958980225871" lon="12.89479330416028"><ele>15.0</ele><time>2026-05-01T13:43:25.001Z</time></trkpt><trkpt lat="43.8895577173343" lon="12.895069320741937"><ele>15.0</ele><time>2026-05-01T13:43:26.001Z</time></trkpt><trkpt lat="43.88952517938587" lon="12.895348239921958"><ele>15.0</ele><time>2026-05-01T13:43:27.001Z</time></trkpt><trkpt lat="43.8894968756206" lon="12.895633251564016"><ele>15.0</ele><time>2026-05-01T13:43:28.001Z</time></trkpt><trkpt lat="43.889475237880184" lon="12.89592168352401"><ele>15.666666666666668</ele><time>2026-05-01T13:43:29.001Z</time></trkpt><trkpt lat="43.88946061237085" lon="12.896211685563118"><ele>16.333333333333336</ele><time>2026-05-01T13:43:30.001Z</time></trkpt><trkpt lat="43.889455380909226" lon="12.896503914757336"><ele>17.0</ele><time>2026-05-01T13:43:31.001Z</time></trkpt><trkpt lat="43.8894537061227" lon="12.896798062497375"><ele>17.0</ele><time>2026-05-01T13:43:32.001Z</time></trkpt><trkpt lat="43.88945285778052" lon="12.897090684243267"><ele>17.0</ele><time>2026-05-01T13:43:33.001Z</time></trkpt><trkpt lat="43.88945298981979" lon="12.897376817180884"><ele>17.0</ele><time>2026-05-01T13:43:34.001Z</time></trkpt><trkpt lat="43.88945261566241" lon="12.897656095227642"><ele>17.0</ele><time>2026-05-01T13:43:35.001Z</time></trkpt><trkpt lat="43.889451859674004" lon="12.89793873436178"><ele>17.0</ele><time>2026-05-01T13:43:36.001Z</time></trkpt><trkpt lat="43.889447916689356" lon="12.898214485537975"><ele>17.0</ele><time>2026-05-01T13:43:37.001Z</time></trkpt><trkpt lat="43.889441754515396" lon="12.898472072685927"><ele>16.0</ele><time>2026-05-01T13:43:38.001Z</time></trkpt><trkpt lat="43.88943691268957" lon="12.89871146409476"><ele>15.0</ele><time>2026-05-01T13:43:39.001Z</time></trkpt><trkpt lat="43.88942530483483" lon="12.898933609679608"><ele>14.0</ele><time>2026-05-01T13:43:40.001Z</time></trkpt><trkpt lat="43.889401735104165" lon="12.899121650715378"><ele>13.799999999999999</ele><time>2026-05-01T13:43:41.001Z</time></trkpt><trkpt lat="43.88936774327167" lon="12.89928172298893"><ele>13.599999999999998</ele><time>2026-05-01T13:43:42.001Z</time></trkpt><trkpt lat="43.88931615660341" lon="12.899421732032335"><ele>13.4</ele><time>2026-05-01T13:43:43.001Z</time></trkpt><trkpt lat="43.88924893719794" lon="12.899534793365387"><ele>13.2</ele><time>2026-05-01T13:43:44Z</time></trkpt><trkpt lat="43.8891677259778" lon="12.899625032407764"><ele>13.0</ele><time>2026-05-01T13:43:45Z</time></trkpt><trkpt lat="43.88908400291983" lon="12.899723629167033"><ele>12.75</ele><time>2026-05-01T13:43:46Z</time></trkpt><trkpt lat="43.88901341817256" lon="12.899851982107105"><ele>12.5</ele><time>2026-05-01T13:43:47Z</time></trkpt><trkpt lat="43.888975022688754" lon="12.900015077092279"><ele>12.25</ele><time>2026-05-01T13:43:48Z</time></trkpt><trkpt lat="43.8889828733704" lon="12.90019669154061"><ele>12.0</ele><time>2026-05-01T13:43:49Z</time></trkpt><trkpt lat="43.8890257859161" lon="12.90037629267078"><ele>12.0</ele><time>2026-05-01T13:43:50Z</time></trkpt><trkpt lat="43.88906959123579" lon="12.900564765395858"><ele>12.0</ele><time>2026-05-01T13:43:51Z</time></trkpt><trkpt lat="43.88907652463597" lon="12.9007537245386"><ele>12.0</ele><time>2026-05-01T13:43:52Z</time></trkpt><trkpt lat="43.88905164504553" lon="12.900917258715584"><ele>12.0</ele><time>2026-05-01T13:43:53Z</time></trkpt><trkpt lat="43.88901566702025" lon="12.901079566801695"><ele>12.0</ele><time>2026-05-01T13:43:54Z</time></trkpt><trkpt lat="43.888968695763396" lon="12.901263732001155"><ele>12.0</ele><time>2026-05-01T13:43:55Z</time></trkpt><trkpt lat="43.888914699794654" lon="12.901467597317732"><ele>12.0</ele><time>2026-05-01T13:43:56Z</time></trkpt><trkpt lat="43.88885749497831" lon="12.901691445450266"><ele>12.0</ele><time>2026-05-01T13:43:57Z</time></trkpt><trkpt lat="43.88878908279895" lon="12.901933788067621"><ele>12.0</ele><time>2026-05-01T13:43:58Z</time></trkpt><trkpt lat="43.88870718621577" lon="12.902191592343021"><ele>12.0</ele><time>2026-05-01T13:43:59Z</time></trkpt><trkpt lat="43.88862354129162" lon="12.902454380544743"><ele>12.0</ele><time>2026-05-01T13:44:00Z</time></trkpt><trkpt lat="43.8885400694278" lon="12.902711616323158"><ele>12.0</ele><time>2026-05-01T13:44:01Z</time></trkpt><trkpt lat="43.88845225222556" lon="12.902977000808606"><ele>12.0</ele><time>2026-05-01T13:44:02Z</time></trkpt><trkpt lat="43.88836315054954" lon="12.903246309937554"><ele>12.0</ele><time>2026-05-01T13:44:03Z</time></trkpt><trkpt lat="43.88827522592564" lon="12.903519361795729"><ele>12.0</ele><time>2026-05-01T13:44:04Z</time></trkpt><trkpt lat="43.88818861074109" lon="12.903794971707908"><ele>12.0</ele><time>2026-05-01T13:44:05Z</time></trkpt><trkpt lat="43.88809917785587" lon="12.90407301106205"><ele>12.333333333333332</ele><time>2026-05-01T13:44:06Z</time></trkpt><trkpt lat="43.88801589244098" lon="12.904351244358372"><ele>12.666666666666666</ele><time>2026-05-01T13:44:07Z</time></trkpt><trkpt lat="43.887942861606305" lon="12.904629146452624"><ele>13.0</ele><time>2026-05-01T13:44:08Z</time></trkpt><trkpt lat="43.88788283246784" lon="12.904908879633954"><ele>13.0</ele><time>2026-05-01T13:44:09Z</time></trkpt><trkpt lat="43.887835662588" lon="12.90517955723749"><ele>13.0</ele><time>2026-05-01T13:44:10Z</time></trkpt><trkpt lat="43.887794632961594" lon="12.90543414134938"><ele>13.0</ele><time>2026-05-01T13:44:11Z</time></trkpt><trkpt lat="43.88776289440468" lon="12.905670307058152"><ele>13.0</ele><time>2026-05-01T13:44:12Z</time></trkpt><trkpt lat="43.887737979527785" lon="12.905893228495938"><ele>13.0</ele><time>2026-05-01T13:44:13Z</time></trkpt><trkpt lat="43.887715904522246" lon="12.906099746641738"><ele>13.0</ele><time>2026-05-01T13:44:14Z</time></trkpt><trkpt lat="43.887693266903554" lon="12.906294814982253"><ele>13.0</ele><time>2026-05-01T13:44:15Z</time></trkpt><trkpt lat="43.88766882162658" lon="12.90646362464032"><ele>13.0</ele><time>2026-05-01T13:44:16Z</time></trkpt><trkpt lat="43.887635338556414" lon="12.906615688020809"><ele>13.0</ele><time>2026-05-01T13:44:17Z</time></trkpt><trkpt lat="43.88759369925721" lon="12.90673682699708"><ele>13.0</ele><time>2026-05-01T13:44:18Z</time></trkpt><trkpt lat="43.88753685821798" lon="12.906830168353517"><ele>13.0</ele><time>2026-05-01T13:44:19Z</time></trkpt><trkpt lat="43.88747291900217" lon="12.906898464370181"><ele>12.666666666666666</ele><time>2026-05-01T13:44:20Z</time></trkpt><trkpt lat="43.88740744227911" lon="12.906975501985468"><ele>12.333333333333332</ele><time>2026-05-01T13:44:21Z</time></trkpt><trkpt lat="43.887353120770264" lon="12.907071238974464"><ele>12.0</ele><time>2026-05-01T13:44:22Z</time></trkpt><trkpt lat="43.88732418448234" lon="12.90718278827436"><ele>11.666666666666666</ele><time>2026-05-01T13:44:23Z</time></trkpt><trkpt lat="43.88732078005438" lon="12.90729250210497"><ele>11.333333333333332</ele><time>2026-05-01T13:44:24Z</time></trkpt><trkpt lat="43.887342047367326" lon="12.90739722197702"><ele>11.0</ele><time>2026-05-01T13:44:25Z</time></trkpt><trkpt lat="43.887384656243405" lon="12.907504897535482"><ele>11.200000000000001</ele><time>2026-05-01T13:44:26Z</time></trkpt><trkpt lat="43.887445272082445" lon="12.907617383118769"><ele>11.4</ele><time>2026-05-01T13:44:27Z</time></trkpt><trkpt lat="43.88750356685496" lon="12.907746434063705"><ele>11.6</ele><time>2026-05-01T13:44:28Z</time></trkpt><trkpt lat="43.88755541191227" lon="12.90789045297032"><ele>11.8</ele><time>2026-05-01T13:44:29Z</time></trkpt><trkpt lat="43.88758201476638" lon="12.908047054364257"><ele>12.0</ele><time>2026-05-01T13:44:30Z</time></trkpt><trkpt lat="43.887579701825274" lon="12.908204165677128"><ele>12.0</ele><time>2026-05-01T13:44:31Z</time></trkpt><trkpt lat="43.887563029932686" lon="12.908346029737027"><ele>12.0</ele><time>2026-05-01T13:44:32Z</time></trkpt><trkpt lat="43.887541919982866" lon="12.908478505120666"><ele>12.0</ele><time>2026-05-01T13:44:33Z</time></trkpt><trkpt lat="43.88752752401048" lon="12.908611931113736"><ele>12.0</ele><time>2026-05-01T13:44:34Z</time></trkpt><trkpt lat="43.88751238457038" lon="12.90873586592331"><ele>12.0</ele><time>2026-05-01T13:44:35Z</time></trkpt><trkpt lat="43.88748785445986" lon="12.908832322361162"><ele>12.2</ele><time>2026-05-01T13:44:36Z</time></trkpt><trkpt lat="43.88741978467018" lon="12.90895429773253"><ele>12.399999999999999</ele><time>2026-05-01T13:44:38Z</time></trkpt><trkpt lat="43.88730926441982" lon="12.909001799192813"><ele>12.600000000000001</ele><time>2026-05-01T13:44:40Z</time></trkpt><trkpt lat="43.887246498478426" lon="12.90903478907693"><ele>12.8</ele><time>2026-05-01T13:44:41Z</time></trkpt><trkpt lat="43.88719596618561" lon="12.90911764406905"><ele>13.0</ele><time>2026-05-01T13:44:42Z</time></trkpt><trkpt lat="43.88717830563283" lon="12.90922834215976"><ele>13.499999999999998</ele><time>2026-05-01T13:44:43Z</time></trkpt><trkpt lat="43.887205233115324" lon="12.909337905322483"><ele>14.0</ele><time>2026-05-01T13:44:44Z</time></trkpt><trkpt lat="43.88726451696816" lon="12.909409457042033"><ele>14.5</ele><time>2026-05-01T13:44:45Z</time></trkpt><trkpt lat="43.887336158515375" lon="12.909443922102714"><ele>15.0</ele><time>2026-05-01T13:44:46Z</time></trkpt><trkpt lat="43.8874166037267" lon="12.909449857677162"><ele>15.499999999999998</ele><time>2026-05-01T13:44:47Z</time></trkpt><trkpt lat="43.88749859694641" lon="12.909490195108841"><ele>16.0</ele><time>2026-05-01T13:44:48Z</time></trkpt><trkpt lat="43.88758181203179" lon="12.90957858826161"><ele>16.25</ele><time>2026-05-01T13:44:49Z</time></trkpt><trkpt lat="43.88766599929779" lon="12.90970292574807"><ele>16.5</ele><time>2026-05-01T13:44:50Z</time></trkpt><trkpt lat="43.88774706904842" lon="12.909819897808784"><ele>16.75</ele><time>2026-05-01T13:44:51Z</time></trkpt><trkpt lat="43.88783643309693" lon="12.909943955493244"><ele>17.0</ele><time>2026-05-01T13:44:52Z</time></trkpt><trkpt lat="43.887930481153425" lon="12.910084594997029"><ele>17.0</ele><time>2026-05-01T13:44:53Z</time></trkpt><trkpt lat="43.88801816682413" lon="12.91024814587616"><ele>17.0</ele><time>2026-05-01T13:44:54Z</time></trkpt><trkpt lat="43.88809602088002" lon="12.910422662660915"><ele>17.0</ele><time>2026-05-01T13:44:55Z</time></trkpt><trkpt lat="43.88816697561051" lon="12.910612994151547"><ele>17.0</ele><time>2026-05-01T13:44:56Z</time></trkpt><trkpt lat="43.88823065892349" lon="12.910809290414514"><ele>18.25</ele><time>2026-05-01T13:44:57Z</time></trkpt><trkpt lat="43.88828799003486" lon="12.911011505398827"><ele>19.5</ele><time>2026-05-01T13:44:58Z</time></trkpt><trkpt lat="43.88834222784452" lon="12.911200773333894"><ele>20.75</ele><time>2026-05-01T13:44:59Z</time></trkpt><trkpt lat="43.88839744448377" lon="12.911374679733274"><ele>22.0</ele><time>2026-05-01T13:45:00Z</time></trkpt><trkpt lat="43.88844548041414" lon="12.911539743395993"><ele>19.75</ele><time>2026-05-01T13:45:01Z</time></trkpt><trkpt lat="43.888494534100396" lon="12.911712624808743"><ele>17.5</ele><time>2026-05-01T13:45:02Z</time></trkpt><trkpt lat="43.88853693752503" lon="12.911896032870743"><ele>15.25</ele><time>2026-05-01T13:45:03Z</time></trkpt><trkpt lat="43.88856850112294" lon="12.9120911640972"><ele>13.0</ele><time>2026-05-01T13:45:04Z</time></trkpt><trkpt lat="43.88858848885463" lon="12.912284747102216"><ele>13.0</ele><time>2026-05-01T13:45:05Z</time></trkpt><trkpt lat="43.88859114957811" lon="12.912462271974519"><ele>13.0</ele><time>2026-05-01T13:45:06Z</time></trkpt><trkpt lat="43.88859335246733" lon="12.912630061117474"><ele>13.0</ele><time>2026-05-01T13:45:07Z</time></trkpt><trkpt lat="43.888599447510515" lon="12.912787352902788"><ele>13.0</ele><time>2026-05-01T13:45:08Z</time></trkpt><trkpt lat="43.88860009632784" lon="12.912923203741329"><ele>12.833333333333332</ele><time>2026-05-01T13:45:09Z</time></trkpt><trkpt lat="43.8885964200597" lon="12.913049086461363"><ele>12.666666666666666</ele><time>2026-05-01T13:45:10Z</time></trkpt><trkpt lat="43.888577894044225" lon="12.913161120338302"><ele>12.5</ele><time>2026-05-01T13:45:11Z</time></trkpt><trkpt lat="43.88851257614976" lon="12.913240065815677"><ele>12.333333333333332</ele><time>2026-05-01T13:45:12Z</time></trkpt><trkpt lat="43.88847302344559" lon="12.913334430931108"><ele>12.166666666666666</ele><time>2026-05-01T13:45:13Z</time></trkpt><trkpt lat="43.88846541098904" lon="12.913451398639404"><ele>12.0</ele><time>2026-05-01T13:45:14Z</time></trkpt><trkpt lat="43.888480593456194" lon="12.913574933390557"><ele>12.0</ele><time>2026-05-01T13:45:15Z</time></trkpt><trkpt lat="43.88849027476906" lon="12.913715783225143"><ele>12.0</ele><time>2026-05-01T13:45:16Z</time></trkpt><trkpt lat="43.888476458841374" lon="12.913869496313124"><ele>12.0</ele><time>2026-05-01T13:45:17Z</time></trkpt><trkpt lat="43.88845904671425" lon="12.914028562570255"><ele>12.0</ele><time>2026-05-01T13:45:18Z</time></trkpt><trkpt lat="43.88845666214601" lon="12.914200594071506"><ele>11.75</ele><time>2026-05-01T13:45:19Z</time></trkpt><trkpt lat="43.888475824945836" lon="12.914381598632623"><ele>11.5</ele><time>2026-05-01T13:45:20Z</time></trkpt><trkpt lat="43.88851869933786" lon="12.914568193394716"><ele>11.25</ele><time>2026-05-01T13:45:21Z</time></trkpt><trkpt lat="43.88857691380117" lon="12.91475341685474"><ele>11.0</ele><time>2026-05-01T13:45:22Z</time></trkpt><trkpt lat="43.88864775569645" lon="12.914937409024033"><ele>12.0</ele><time>2026-05-01T13:45:23Z</time></trkpt><trkpt lat="43.88872700130546" lon="12.915117730269731"><ele>13.0</ele><time>2026-05-01T13:45:24Z</time></trkpt><trkpt lat="43.88880653883186" lon="12.915301314901265"><ele>14.0</ele><time>2026-05-01T13:45:25Z</time></trkpt><trkpt lat="43.888880394107886" lon="12.915490711844098"><ele>14.0</ele><time>2026-05-01T13:45:26Z</time></trkpt><trkpt lat="43.88895577476504" lon="12.91567753435825"><ele>14.0</ele><time>2026-05-01T13:45:27Z</time></trkpt><trkpt lat="43.8890247198244" lon="12.91585365426083"><ele>14.0</ele><time>2026-05-01T13:45:28Z</time></trkpt><trkpt lat="43.88908822316339" lon="12.916019328802108"><ele>14.0</ele><time>2026-05-01T13:45:29Z</time></trkpt><trkpt lat="43.889145404270124" lon="12.916181413455595"><ele>14.25</ele><time>2026-05-01T13:45:30Z</time></trkpt><trkpt lat="43.88919211349245" lon="12.916349397089652"><ele>14.5</ele><time>2026-05-01T13:45:31Z</time></trkpt><trkpt lat="43.88922401700587" lon="12.91652814067895"><ele>14.75</ele><time>2026-05-01T13:45:32Z</time></trkpt><trkpt lat="43.889243878103336" lon="12.916715839986827"><ele>15.0</ele><time>2026-05-01T13:45:33Z</time></trkpt><trkpt lat="43.88923953955719" lon="12.916909624290266"><ele>15.0</ele><time>2026-05-01T13:45:34Z</time></trkpt><trkpt lat="43.88921525487834" lon="12.917107682695736"><ele>15.0</ele><time>2026-05-01T13:45:35Z</time></trkpt><trkpt lat="43.88917349566304" lon="12.917301259047163"><ele>15.0</ele><time>2026-05-01T13:45:36Z</time></trkpt><trkpt lat="43.88910614190484" lon="12.917488856777851"><ele>15.0</ele><time>2026-05-01T13:45:37Z</time></trkpt><trkpt lat="43.889036872856245" lon="12.9176780757959"><ele>14.0</ele><time>2026-05-01T13:45:38Z</time></trkpt><trkpt lat="43.88897161211623" lon="12.917869770269116"><ele>13.0</ele><time>2026-05-01T13:45:39Z</time></trkpt><trkpt lat="43.8889151878282" lon="12.918063734439317"><ele>12.0</ele><time>2026-05-01T13:45:40Z</time></trkpt><trkpt lat="43.8888781507246" lon="12.918260866084387"><ele>12.25</ele><time>2026-05-01T13:45:41Z</time></trkpt><trkpt lat="43.88884081534317" lon="12.918444657799757"><ele>12.5</ele><time>2026-05-01T13:45:42Z</time></trkpt><trkpt lat="43.88883423973793" lon="12.918629630033195"><ele>12.75</ele><time>2026-05-01T13:45:43Z</time></trkpt><trkpt lat="43.88885913135226" lon="12.918808879922238"><ele>13.0</ele><time>2026-05-01T13:45:44Z</time></trkpt><trkpt lat="43.8888688920804" lon="12.918975551182093"><ele>12.999999999999998</ele><time>2026-05-01T13:45:45Z</time></trkpt><trkpt lat="43.88888821587364" lon="12.919118941657002"><ele>13.0</ele><time>2026-05-01T13:45:46Z</time></trkpt><trkpt lat="43.888906026151155" lon="12.919229295287925"><ele>13.0</ele><time>2026-05-01T13:45:47Z</time></trkpt><trkpt lat="43.88890009708628" lon="12.919332984866399"><ele>13.0</ele><time>2026-05-01T13:45:48Z</time></trkpt><trkpt lat="43.88886785364741" lon="12.919423493580789"><ele>12.999999999999998</ele><time>2026-05-01T13:45:49Z</time></trkpt><trkpt lat="43.88883166389654" lon="12.919511861945015"><ele>13.0</ele><time>2026-05-01T13:45:50Z</time></trkpt><trkpt lat="43.888818947542006" lon="12.919613581782317"><ele>13.166666666666666</ele><time>2026-05-01T13:45:51Z</time></trkpt><trkpt lat="43.8888462211953" lon="12.919719989957105"><ele>13.333333333333332</ele><time>2026-05-01T13:45:52Z</time></trkpt><trkpt lat="43.88891071829275" lon="12.919797226131173"><ele>13.5</ele><time>2026-05-01T13:45:53Z</time></trkpt><trkpt lat="43.88899707080835" lon="12.919809165023398"><ele>13.666666666666668</ele><time>2026-05-01T13:45:54Z</time></trkpt><trkpt lat="43.88908026568562" lon="12.91975202127452"><ele>13.833333333333334</ele><time>2026-05-01T13:45:55Z</time></trkpt><trkpt lat="43.889150776520424" lon="12.919665420772168"><ele>14.0</ele><time>2026-05-01T13:45:56Z</time></trkpt><trkpt lat="43.889226384962114" lon="12.919601683310846"><ele>13.799999999999999</ele><time>2026-05-01T13:45:57Z</time></trkpt><trkpt lat="43.8893168168682" lon="12.919608885585411"><ele>13.599999999999998</ele><time>2026-05-01T13:45:58Z</time></trkpt><trkpt lat="43.88940314081607" lon="12.919668147394413"><ele>13.4</ele><time>2026-05-01T13:45:59Z</time></trkpt><trkpt lat="43.88947694057274" lon="12.91978170436395"><ele>13.2</ele><time>2026-05-01T13:46:00Z</time></trkpt><trkpt lat="43.88952097377758" lon="12.91993590174719"><ele>13.0</ele><time>2026-05-01T13:46:01Z</time></trkpt><trkpt lat="43.889549442787164" lon="12.920100756443555"><ele>14.25</ele><time>2026-05-01T13:46:02Z</time></trkpt><trkpt lat="43.88957915082912" lon="12.920270769697128"><ele>15.5</ele><time>2026-05-01T13:46:03Z</time></trkpt><trkpt lat="43.88963294288088" lon="12.920435160353964"><ele>16.75</ele><time>2026-05-01T13:46:04Z</time></trkpt><trkpt lat="43.88971278367075" lon="12.920580893416762"><ele>18.0</ele><time>2026-05-01T13:46:05Z</time></trkpt><trkpt lat="43.88981904352906" lon="12.920710222815746"><ele>18.0</ele><time>2026-05-01T13:46:06Z</time></trkpt><trkpt lat="43.889936803050254" lon="12.920824293861937"><ele>18.0</ele><time>2026-05-01T13:46:07Z</time></trkpt><trkpt lat="43.89004662660694" lon="12.92094214260859"><ele>18.0</ele><time>2026-05-01T13:46:08Z</time></trkpt><trkpt lat="43.890140855717654" lon="12.921075585581871"><ele>18.0</ele><time>2026-05-01T13:46:09Z</time></trkpt><trkpt lat="43.89020467619187" lon="12.921237914966655"><ele>16.5</ele><time>2026-05-01T13:46:10Z</time></trkpt><trkpt lat="43.89027657807013" lon="12.921403041123495"><ele>15.0</ele><time>2026-05-01T13:46:11Z</time></trkpt><trkpt lat="43.89035336741126" lon="12.921568167374184"><ele>13.5</ele><time>2026-05-01T13:46:12Z</time></trkpt><trkpt lat="43.890447285319915" lon="12.921711734313524"><ele>12.0</ele><time>2026-05-01T13:46:13Z</time></trkpt><trkpt lat="43.89053223814076" lon="12.921857640802338"><ele>11.75</ele><time>2026-05-01T13:46:14Z</time></trkpt><trkpt lat="43.89062338850198" lon="12.921991811391925"><ele>11.5</ele><time>2026-05-01T13:46:15Z</time></trkpt><trkpt lat="43.89071735742987" lon="12.922112649371638"><ele>11.25</ele><time>2026-05-01T13:46:16Z</time></trkpt><trkpt lat="43.89081522096821" lon="12.92223445056476"><ele>11.0</ele><time>2026-05-01T13:46:17Z</time></trkpt><trkpt lat="43.89090442312844" lon="12.922354096704696"><ele>10.8</ele><time>2026-05-01T13:46:18Z</time></trkpt><trkpt lat="43.89097580947803" lon="12.922470210653698"><ele>10.600000000000001</ele><time>2026-05-01T13:46:19Z</time></trkpt><trkpt lat="43.8910353015792" lon="12.922587043408889"><ele>10.4</ele><time>2026-05-01T13:46:20Z</time></trkpt><trkpt lat="43.891088776192056" lon="12.922706880109724"><ele>10.2</ele><time>2026-05-01T13:46:21Z</time></trkpt><trkpt lat="43.89114101396595" lon="12.92283272669288"><ele>10.0</ele><time>2026-05-01T13:46:22Z</time></trkpt><trkpt lat="43.89119064950532" lon="12.922962995259793"><ele>10.4</ele><time>2026-05-01T13:46:23Z</time></trkpt><trkpt lat="43.891240281925974" lon="12.923094896585074"><ele>10.8</ele><time>2026-05-01T13:46:24Z</time></trkpt><trkpt lat="43.891288730391764" lon="12.923216312260795"><ele>11.2</ele><time>2026-05-01T13:46:25Z</time></trkpt><trkpt lat="43.89132579729278" lon="12.923318434900434"><ele>11.6</ele><time>2026-05-01T13:46:26Z</time></trkpt><trkpt lat="43.89136304719191" lon="12.923435443968428"><ele>12.0</ele><time>2026-05-01T13:46:28Z</time></trkpt><trkpt lat="43.89154418382334" lon="12.923323496516707"><ele>12.0</ele><time>2026-05-01T13:46:30Z</time></trkpt><trkpt lat="43.891664560081324" lon="12.923252202921054"><ele>12.0</ele><time>2026-05-01T13:46:31Z</time></trkpt><trkpt lat="43.89183831225424" lon="12.923153778976568"><ele>12.0</ele><time>2026-05-01T13:46:32Z</time></trkpt><trkpt lat="43.89204107588685" lon="12.923031904975458"><ele>12.0</ele><time>2026-05-01T13:46:33Z</time></trkpt><trkpt lat="43.89223297241772" lon="12.92290703503181"><ele>12.0</ele><time>2026-05-01T13:46:34Z</time></trkpt><trkpt lat="43.89243253610409" lon="12.922793381126466"><ele>12.0</ele><time>2026-05-01T13:46:35Z</time></trkpt><trkpt lat="43.89261233014084" lon="12.922687121645085"><ele>12.0</ele><time>2026-05-01T13:46:36Z</time></trkpt><trkpt lat="43.8927761725871" lon="12.92259983765395"><ele>12.0</ele><time>2026-05-01T13:46:37Z</time></trkpt><trkpt lat="43.892918689203185" lon="12.92251826858043"><ele>12.0</ele><time>2026-05-01T13:46:38Z</time></trkpt><trkpt lat="43.89304798003997" lon="12.922425683664807"><ele>11.6</ele><time>2026-05-01T13:46:39Z</time></trkpt><trkpt lat="43.893166122543775" lon="12.92235991295856"><ele>11.2</ele><time>2026-05-01T13:46:40Z</time></trkpt><trkpt lat="43.89325647310378" lon="12.922308100628852"><ele>10.8</ele><time>2026-05-01T13:46:41Z</time></trkpt><trkpt lat="43.893326555542" lon="12.922270423719805"><ele>10.4</ele><time>2026-05-01T13:46:42Z</time></trkpt><trkpt lat="43.89338998588211" lon="12.922255668263752"><ele>10.0</ele><time>2026-05-01T13:46:44Z</time></trkpt><trkpt lat="43.89342101941103" lon="12.922383068373922"><ele>10.0</ele><time>2026-05-01T13:46:45Z</time></trkpt><trkpt lat="43.893450968599325" lon="12.922486995235479"><ele>10.0</ele><time>2026-05-01T13:46:47Z</time></trkpt><trkpt lat="43.89348755068059" lon="12.922573368751763"><ele>11.0</ele><time>2026-05-01T13:46:49Z</time></trkpt><trkpt lat="43.8934987431931" lon="12.922679938720144"><ele>11.0</ele><time>2026-05-01T13:50:49Z</time></trkpt></trkseg></trk></gpx>